<?xml version='1.0' encoding='UTF-8'?><gpx version="1.1" creator="JPX - https://github.com/jenetics/jpx" xmlns="http://www.topografix.com/GPX/1/1"><trk><trkseg><trkpt lat="45.48694429834261" lon="10.993740677301775"><ele>169.0</ele><time>2026-04-15T10:02:08.001Z</time></trkpt><trkpt lat="45.48688182178543" lon="10.993644665142225"><ele>169.0</ele><time>2026-04-15T10:02:09.001Z</time></trkpt><trkpt lat="45.48681392046442" lon="10.993572438950535"><ele>169.0</ele><time>2026-04-15T10:02:10.001Z</time></trkpt><trkpt lat="45.48675296388527" lon="10.993506527689672"><ele>169.0</ele><time>2026-04-15T10:02:11.001Z</time></trkpt><trkpt lat="45.486691425516916" lon="10.993427225432551"><ele>169.0</ele><time>2026-04-15T10:02:12.001Z</time></trkpt><trkpt lat="45.486624423315554" lon="10.993325023614485"><ele>169.0</ele><time>2026-04-15T10:02:13.001Z</time></trkpt><trkpt lat="45.48655248735516" lon="10.993225262780182"><ele>168.16666666666669</ele><time>2026-04-15T10:02:14.001Z</time></trkpt><trkpt lat="45.486490396821246" lon="10.993140832884029"><ele>167.33333333333334</ele><time>2026-04-15T10:02:15.001Z</time></trkpt><trkpt lat="45.486429928808995" lon="10.9930684976485"><ele>166.5</ele><time>2026-04-15T10:02:16.001Z</time></trkpt><trkpt lat="45.48639083113195" lon="10.992984221004146"><ele>165.66666666666666</ele><time>2026-04-15T10:02:17.001Z</time></trkpt><trkpt lat="45.48634452382163" lon="10.992891272009974"><ele>164.83333333333331</ele><time>2026-04-15T10:02:18.001Z</time></trkpt><trkpt lat="45.48630893816863" lon="10.992790029563436"><ele>164.0</ele><time>2026-04-15T10:02:19.001Z</time></trkpt><trkpt lat="45.48615141872711" lon="10.992719633407216"><ele>163.25</ele><time>2026-04-15T10:02:20.001Z</time></trkpt><trkpt lat="45.48601489925967" lon="10.992628555993383"><ele>162.5</ele><time>2026-04-15T10:02:21.001Z</time></trkpt><trkpt lat="45.48588937531857" lon="10.99256310533551"><ele>161.75</ele><time>2026-04-15T10:02:22.001Z</time></trkpt><trkpt lat="45.485752841892094" lon="10.992461973685302"><ele>161.0</ele><time>2026-04-15T10:02:23.001Z</time></trkpt><trkpt lat="45.48563906237452" lon="10.992379846863884"><ele>160.5</ele><time>2026-04-15T10:02:24.001Z</time></trkpt><trkpt lat="45.48553086833064" lon="10.992297383328056"><ele>160.0</ele><time>2026-04-15T10:02:25.001Z</time></trkpt><trkpt lat="45.485426078410875" lon="10.99221166455847"><ele>159.5</ele><time>2026-04-15T10:02:26.001Z</time></trkpt><trkpt lat="45.485304563364096" lon="10.992127770275216"><ele>159.0</ele><time>2026-04-15T10:02:27.001Z</time></trkpt><trkpt lat="45.48516608875373" lon="10.992034631727087"><ele>157.5</ele><time>2026-04-15T10:02:28.001Z</time></trkpt><trkpt lat="45.485027648086685" lon="10.991931227511357"><ele>156.0</ele><time>2026-04-15T10:02:29.001Z</time></trkpt><trkpt lat="45.48490288040182" lon="10.991837819724902"><ele>154.5</ele><time>2026-04-15T10:02:30.001Z</time></trkpt><trkpt lat="45.484778315268386" lon="10.991758728588088"><ele>153.0</ele><time>2026-04-15T10:02:31.001Z</time></trkpt><trkpt lat="45.48465146893263" lon="10.991671328024058"><ele>151.0</ele><time>2026-04-15T10:02:32.001Z</time></trkpt><trkpt lat="45.48452620526733" lon="10.991575850782828"><ele>149.0</ele><time>2026-04-15T10:02:32.999Z</time></trkpt><trkpt lat="45.484408947476304" lon="10.991489027919686"><ele>147.0</ele><time>2026-04-15T10:02:33.999Z</time></trkpt><trkpt lat="45.48429313596314" lon="10.99140641530016"><ele>145.0</ele><time>2026-04-15T10:02:34.999Z</time></trkpt><trkpt lat="45.48419087073882" lon="10.991313639129633"><ele>145.0</ele><time>2026-04-15T10:02:35.999Z</time></trkpt><trkpt lat="45.48408142680844" lon="10.991252275275935"><ele>145.0</ele><time>2026-04-15T10:02:36.999Z</time></trkpt><trkpt lat="45.48395907450966" lon="10.991229116761229"><ele>145.0</ele><time>2026-04-15T10:02:37.999Z</time></trkpt><trkpt lat="45.4838205370424" lon="10.99120087752254"><ele>145.0</ele><time>2026-04-15T10:02:38.999Z</time></trkpt><trkpt lat="45.483667607741815" lon="10.991178729124856"><ele>145.0</ele><time>2026-04-15T10:02:39.999Z</time></trkpt><trkpt lat="45.483524257056395" lon="10.9911670171338"><ele>145.0</ele><time>2026-04-15T10:02:40.999Z</time></trkpt><trkpt lat="45.48339320429258" lon="10.991148724869818"><ele>145.0</ele><time>2026-04-15T10:02:41.999Z</time></trkpt><trkpt lat="45.48328395467442" lon="10.991085760566564"><ele>145.0</ele><time>2026-04-15T10:02:42.999Z</time></trkpt><trkpt lat="45.48315606522557" lon="10.991020203651548"><ele>145.0</ele><time>2026-04-15T10:02:43.999Z</time></trkpt><trkpt lat="45.482994133995376" lon="10.990932197597813"><ele>145.0</ele><time>2026-04-15T10:02:44.999Z</time></trkpt><trkpt lat="45.48284464492187" lon="10.99082112766945"><ele>145.0</ele><time>2026-04-15T10:02:45.999Z</time></trkpt><trkpt lat="45.48272099107422" lon="10.99075818026374"><ele>143.0</ele><time>2026-04-15T10:02:46.999Z</time></trkpt><trkpt lat="45.482591747912984" lon="10.990670065270018"><ele>141.0</ele><time>2026-04-15T10:02:47.999Z</time></trkpt><trkpt lat="45.48247272902373" lon="10.990582931825097"><ele>139.0</ele><time>2026-04-15T10:02:49Z</time></trkpt><trkpt lat="45.48236014663642" lon="10.990491542950183"><ele>137.0</ele><time>2026-04-15T10:02:50Z</time></trkpt><trkpt lat="45.482246598305395" lon="10.99041534290116"><ele>137.0</ele><time>2026-04-15T10:02:51Z</time></trkpt><trkpt lat="45.48212527288004" lon="10.990361730527814"><ele>137.0</ele><time>2026-04-15T10:02:52Z</time></trkpt><trkpt lat="45.48198651193449" lon="10.990322405177432"><ele>137.0</ele><time>2026-04-15T10:02:53Z</time></trkpt><trkpt lat="45.48184318000283" lon="10.990291178861247"><ele>137.0</ele><time>2026-04-15T10:02:54Z</time></trkpt><trkpt lat="45.48169932976938" lon="10.99026672152935"><ele>136.79999999999998</ele><time>2026-04-15T10:02:55Z</time></trkpt><trkpt lat="45.481571403868216" lon="10.990234855016904"><ele>136.6</ele><time>2026-04-15T10:02:56Z</time></trkpt><trkpt lat="45.48146473459308" lon="10.990204095644849"><ele>136.39999999999998</ele><time>2026-04-15T10:02:57Z</time></trkpt><trkpt lat="45.48138118418355" lon="10.990183474381613"><ele>136.2</ele><time>2026-04-15T10:02:58Z</time></trkpt><trkpt lat="45.48129528211887" lon="10.99017524702288"><ele>136.0</ele><time>2026-04-15T10:03:00Z</time></trkpt><trkpt lat="45.48131616589422" lon="10.990022873943712"><ele>135.6</ele><time>2026-04-15T10:03:05Z</time></trkpt><trkpt lat="45.48134584511336" lon="10.989926699250491"><ele>135.2</ele><time>2026-04-15T10:03:07Z</time></trkpt><trkpt lat="45.48129820501239" lon="10.989835930312223"><ele>134.8</ele><time>2026-04-15T10:03:09Z</time></trkpt><trkpt lat="45.481189779215114" lon="10.989784197205969"><ele>134.4</ele><time>2026-04-15T10:03:11Z</time></trkpt><trkpt lat="45.48110730588975" lon="10.989700872684471"><ele>134.0</ele><time>2026-04-15T10:03:13Z</time></trkpt><trkpt lat="45.481024508199404" lon="10.989594804589215"><ele>134.0</ele><time>2026-04-15T10:03:15Z</time></trkpt><trkpt lat="45.480977432420005" lon="10.989507437658327"><ele>134.0</ele><time>2026-04-15T10:03:16Z</time></trkpt><trkpt lat="45.48092886331428" lon="10.989431435958032"><ele>134.0</ele><time>2026-04-15T10:03:17Z</time></trkpt><trkpt lat="45.48088055162176" lon="10.989336086026553"><ele>134.0</ele><time>2026-04-15T10:03:18Z</time></trkpt><trkpt lat="45.480845785563396" lon="10.989251652491701"><ele>134.0</ele><time>2026-04-15T10:03:19Z</time></trkpt><trkpt lat="45.48078191806791" lon="10.989132815710866"><ele>134.0</ele><time>2026-04-15T10:03:21Z</time></trkpt><trkpt lat="45.48074053541205" lon="10.989061971621597"><ele>133.5</ele><time>2026-04-15T10:03:24Z</time></trkpt><trkpt lat="45.480660490156374" lon="10.989033829977107"><ele>133.0</ele><time>2026-04-15T10:03:26Z</time></trkpt><trkpt lat="45.480581451421635" lon="10.98897355170319"><ele>132.5</ele><time>2026-04-15T10:03:27Z</time></trkpt><trkpt lat="45.4805060570883" lon="10.98894034267375"><ele>132.0</ele><time>2026-04-15T10:03:28Z</time></trkpt><trkpt lat="45.480436592791065" lon="10.988933665536148"><ele>131.5</ele><time>2026-04-15T10:03:29Z</time></trkpt><trkpt lat="45.480372477487506" lon="10.988879997667599"><ele>131.0</ele><time>2026-04-15T10:03:30Z</time></trkpt><trkpt lat="45.48030916957024" lon="10.988864635202486"><ele>131.0</ele><time>2026-04-15T10:03:31Z</time></trkpt><trkpt lat="45.48022921254483" lon="10.988825676107224"><ele>131.0</ele><time>2026-04-15T10:03:32Z</time></trkpt><trkpt lat="45.48013765344441" lon="10.988776266742706"><ele>131.0</ele><time>2026-04-15T10:03:33Z</time></trkpt><trkpt lat="45.480036908104815" lon="10.988717239919362"><ele>131.0</ele><time>2026-04-15T10:03:34Z</time></trkpt><trkpt lat="45.47991324164445" lon="10.988664522742804"><ele>131.0</ele><time>2026-04-15T10:03:35Z</time></trkpt><trkpt lat="45.479803931532885" lon="10.988604512908763"><ele>131.0</ele><time>2026-04-15T10:03:36Z</time></trkpt><trkpt lat="45.47970847842384" lon="10.988551177923688"><ele>131.0</ele><time>2026-04-15T10:03:37.001Z</time></trkpt><trkpt lat="45.47961959684756" lon="10.98848954090566"><ele>131.0</ele><time>2026-04-15T10:03:38.001Z</time></trkpt><trkpt lat="45.47953831837805" lon="10.988420151006872"><ele>131.0</ele><time>2026-04-15T10:03:39.001Z</time></trkpt><trkpt lat="45.47946492455828" lon="10.98835631684646"><ele>131.0</ele><time>2026-04-15T10:03:40.001Z</time></trkpt><trkpt lat="45.4793860510339" lon="10.988288565073413"><ele>131.0</ele><time>2026-04-15T10:03:41.001Z</time></trkpt><trkpt lat="45.47929439948273" lon="10.988207112090187"><ele>131.0</ele><time>2026-04-15T10:03:42.001Z</time></trkpt><trkpt lat="45.47920405551212" lon="10.988144253170171"><ele>131.0</ele><time>2026-04-15T10:03:43.001Z</time></trkpt><trkpt lat="45.47911709937351" lon="10.988084686103193"><ele>131.0</ele><time>2026-04-15T10:03:44.001Z</time></trkpt><trkpt lat="45.479046332188325" lon="10.988029901803465"><ele>131.0</ele><time>2026-04-15T10:03:45.001Z</time></trkpt><trkpt lat="45.47898389173305" lon="10.987940919482"><ele>131.0</ele><time>2026-04-15T10:03:46.001Z</time></trkpt><trkpt lat="45.47891880502112" lon="10.987865458162828"><ele>131.0</ele><time>2026-04-15T10:03:47.001Z</time></trkpt><trkpt lat="45.478850393248564" lon="10.987771534006992"><ele>131.0</ele><time>2026-04-15T10:03:48.001Z</time></trkpt><trkpt lat="45.4787857867782" lon="10.987700733504575"><ele>131.0</ele><time>2026-04-15T10:03:49.001Z</time></trkpt><trkpt lat="45.478728967049875" lon="10.98763223243917"><ele>131.0</ele><time>2026-04-15T10:03:50.001Z</time></trkpt><trkpt lat="45.47867443978305" lon="10.987575355666577"><ele>131.0</ele><time>2026-04-15T10:03:51.001Z</time></trkpt><trkpt lat="45.47861662089817" lon="10.987529559448516"><ele>131.4</ele><time>2026-04-15T10:03:52.001Z</time></trkpt><trkpt lat="45.478555710320315" lon="10.987462251644015"><ele>131.8</ele><time>2026-04-15T10:04:00.001Z</time></trkpt><trkpt lat="45.478466025969155" lon="10.987397955222958"><ele>132.20000000000002</ele><time>2026-04-15T10:04:02.001Z</time></trkpt><trkpt lat="45.478340664140894" lon="10.987311978649034"><ele>132.6</ele><time>2026-04-15T10:04:04.001Z</time></trkpt><trkpt lat="45.478251238987056" lon="10.987249732578906"><ele>133.0</ele><time>2026-04-15T10:04:05.001Z</time></trkpt><trkpt lat="45.47814798826725" lon="10.987183982949775"><ele>133.0</ele><time>2026-04-15T10:04:06.001Z</time></trkpt><trkpt lat="45.478022573668596" lon="10.987140587279438"><ele>133.0</ele><time>2026-04-15T10:04:07.001Z</time></trkpt><trkpt lat="45.47789244611252" lon="10.987086884869829"><ele>133.0</ele><time>2026-04-15T10:04:08.001Z</time></trkpt><trkpt lat="45.477745214511444" lon="10.987050584529728"><ele>133.0</ele><time>2026-04-15T10:04:09.001Z</time></trkpt><trkpt lat="45.47761160158347" lon="10.987020992664066"><ele>130.5</ele><time>2026-04-15T10:04:10.001Z</time></trkpt><trkpt lat="45.47748597055292" lon="10.987002482282442"><ele>128.0</ele><time>2026-04-15T10:04:11.001Z</time></trkpt><trkpt lat="45.47734688340878" lon="10.986980496549329"><ele>125.5</ele><time>2026-04-15T10:04:12.001Z</time></trkpt><trkpt lat="45.47721639971702" lon="10.986986995326712"><ele>123.0</ele><time>2026-04-15T10:04:13.001Z</time></trkpt><trkpt lat="45.47709433314975" lon="10.987000189889573"><ele>122.0</ele><time>2026-04-15T10:04:14.001Z</time></trkpt><trkpt lat="45.47696546796383" lon="10.987012045168095"><ele>121.0</ele><time>2026-04-15T10:04:15.001Z</time></trkpt><trkpt lat="45.47684532909696" lon="10.987027203305269"><ele>120.0</ele><time>2026-04-15T10:04:16.001Z</time></trkpt><trkpt lat="45.47673153823236" lon="10.987049878220082"><ele>119.0</ele><time>2026-04-15T10:04:17.001Z</time></trkpt><trkpt lat="45.47664032429118" lon="10.987060258094408"><ele>119.0</ele><time>2026-04-15T10:04:18.001Z</time></trkpt><trkpt lat="45.47654784750553" lon="10.98710346249101"><ele>119.0</ele><time>2026-04-15T10:04:20.001Z</time></trkpt><trkpt lat="45.47664277752001" lon="10.987036209896074"><ele>119.0</ele><time>2026-04-15T10:04:26.001Z</time></trkpt><trkpt lat="45.4767356464795" lon="10.98701360058079"><ele>119.0</ele><time>2026-04-15T10:04:28.001Z</time></trkpt><trkpt lat="45.47682896498658" lon="10.986998496483977"><ele>119.0</ele><time>2026-04-15T10:04:30.001Z</time></trkpt><trkpt lat="45.476893632320504" lon="10.986987165840578"><ele>119.0</ele><time>2026-04-15T10:04:31.001Z</time></trkpt><trkpt lat="45.4769248407221" lon="10.986823267531769"><ele>119.0</ele><time>2026-04-15T10:04:32.001Z</time></trkpt><trkpt lat="45.47701918733909" lon="10.986770601084476"><ele>119.0</ele><time>2026-04-15T10:04:34.001Z</time></trkpt><trkpt lat="45.47712133043414" lon="10.986718644360245"><ele>119.0</ele><time>2026-04-15T10:04:36.001Z</time></trkpt><trkpt lat="45.47722370979181" lon="10.986604867334398"><ele>122.99999999999999</ele><time>2026-04-15T10:04:38.001Z</time></trkpt><trkpt lat="45.47728660798031" lon="10.986562166210037"><ele>127.0</ele><time>2026-04-15T10:04:38.998Z</time></trkpt><trkpt lat="45.477342363481846" lon="10.986508417505874"><ele>131.0</ele><time>2026-04-15T10:04:39.998Z</time></trkpt><trkpt lat="45.477421953401475" lon="10.986432023329002"><ele>135.0</ele><time>2026-04-15T10:04:41.998Z</time></trkpt><trkpt lat="45.47742693276017" lon="10.9863382659486"><ele>139.0</ele><time>2026-04-15T10:04:44.999Z</time></trkpt><trkpt lat="45.47735317800675" lon="10.986313247287917"><ele>143.0</ele><time>2026-04-15T10:04:46.999Z</time></trkpt><trkpt lat="45.47726359093212" lon="10.986307515175161"><ele>143.0</ele><time>2026-04-15T10:04:49.999Z</time></trkpt><trkpt lat="45.477159892094406" lon="10.986316993216793"><ele>143.0</ele><time>2026-04-15T10:04:53.999Z</time></trkpt><trkpt lat="45.47707678279944" lon="10.986294103856267"><ele>143.0</ele><time>2026-04-15T10:04:55.999Z</time></trkpt><trkpt lat="45.476982932033366" lon="10.98626300314282"><ele>143.0</ele><time>2026-04-15T10:04:58.999Z</time></trkpt><trkpt lat="45.47689876106291" lon="10.986254326134985"><ele>143.0</ele><time>2026-04-15T10:05:00.999Z</time></trkpt><trkpt lat="45.47681685589842" lon="10.986224754521569"><ele>142.42857142857142</ele><time>2026-04-15T10:05:02.999Z</time></trkpt><trkpt lat="45.47674747671822" lon="10.986203336482301"><ele>141.85714285714286</ele><time>2026-04-15T10:05:05.999Z</time></trkpt><trkpt lat="45.476676047134845" lon="10.98616988000201"><ele>141.28571428571428</ele><time>2026-04-15T10:05:07.999Z</time></trkpt><trkpt lat="45.47660529744568" lon="10.986133388126657"><ele>140.71428571428572</ele><time>2026-04-15T10:05:10Z</time></trkpt><trkpt lat="45.4765594307094" lon="10.986050616128226"><ele>140.14285714285714</ele><time>2026-04-15T10:05:12Z</time></trkpt><trkpt lat="45.4766221207699" lon="10.986037085474262"><ele>139.57142857142856</ele><time>2026-04-15T10:05:14Z</time></trkpt><trkpt lat="45.47670908072602" lon="10.986030372164135"><ele>139.0</ele><time>2026-04-15T10:05:16Z</time></trkpt><trkpt lat="45.47677328248903" lon="10.986007155706263"><ele>139.0</ele><time>2026-04-15T10:05:19Z</time></trkpt><trkpt lat="45.47685031895617" lon="10.985984440378026"><ele>139.0</ele><time>2026-04-15T10:05:22Z</time></trkpt><trkpt lat="45.47693923716174" lon="10.985960133595968"><ele>139.0</ele><time>2026-04-15T10:05:24Z</time></trkpt><trkpt lat="45.477051403978884" lon="10.985917220572132"><ele>139.0</ele><time>2026-04-15T10:05:26Z</time></trkpt><trkpt lat="45.4771347302259" lon="10.985897448373043"><ele>139.0</ele><time>2026-04-15T10:05:28Z</time></trkpt><trkpt lat="45.47708699573327" lon="10.985812500618831"><ele>139.0</ele><time>2026-04-15T10:05:37Z</time></trkpt><trkpt lat="45.4769691810877" lon="10.985807296137377"><ele>145.66666666666669</ele><time>2026-04-15T10:05:39Z</time></trkpt><trkpt lat="45.4769014155888" lon="10.985766070802356"><ele>152.33333333333334</ele><time>2026-04-15T10:05:41Z</time></trkpt><trkpt lat="45.476812859202745" lon="10.985725767928505"><ele>159.0</ele><time>2026-04-15T10:05:44Z</time></trkpt><trkpt lat="45.47673301295426" lon="10.985678032059042"><ele>165.66666666666666</ele><time>2026-04-15T10:05:46Z</time></trkpt><trkpt lat="45.476655262123344" lon="10.985658273616163"><ele>172.33333333333331</ele><time>2026-04-15T10:05:48Z</time></trkpt><trkpt lat="45.47659506169643" lon="10.98562671020888"><ele>179.0</ele><time>2026-04-15T10:05:49Z</time></trkpt><trkpt lat="45.476495607270294" lon="10.985585020359839"><ele>179.0</ele><time>2026-04-15T10:05:51.001Z</time></trkpt><trkpt lat="45.47648546591032" lon="10.985493036166455"><ele>179.0</ele><time>2026-04-15T10:05:55.001Z</time></trkpt><trkpt lat="45.47644207826417" lon="10.985398491679222"><ele>179.0</ele><time>2026-04-15T10:06:08.001Z</time></trkpt><trkpt lat="45.4764185154137" lon="10.985310129682345"><ele>179.0</ele><time>2026-04-15T10:06:10.001Z</time></trkpt><trkpt lat="45.47644121688765" lon="10.985205071278369"><ele>179.0</ele><time>2026-04-15T10:06:12.001Z</time></trkpt><trkpt lat="45.47649060341869" lon="10.985108953936228"><ele>179.0</ele><time>2026-04-15T10:06:15.001Z</time></trkpt><trkpt lat="45.476564211267515" lon="10.98520781060197"><ele>179.0</ele><time>2026-04-15T10:06:26.001Z</time></trkpt><trkpt lat="45.47655229455158" lon="10.98529662636104"><ele>179.0</ele><time>2026-04-15T10:06:29.001Z</time></trkpt><trkpt lat="45.47660694271393" lon="10.985347259582097"><ele>179.0</ele><time>2026-04-15T10:07:13Z</time></trkpt><trkpt lat="45.47666230750477" lon="10.98539627436985"><ele>179.0</ele><time>2026-04-15T10:07:47.001Z</time></trkpt><trkpt lat="45.47673642450265" lon="10.985355299301824"><ele>179.0</ele><time>2026-04-15T10:08:00.001Z</time></trkpt><trkpt lat="45.4768707831943" lon="10.985374124473573"><ele>179.0</ele><time>2026-04-15T10:08:04.001Z</time></trkpt><trkpt lat="45.4769523328064" lon="10.985371477583898"><ele>179.0</ele><time>2026-04-15T10:08:07.001Z</time></trkpt><trkpt lat="45.477014153389405" lon="10.985346090294902"><ele>179.0</ele><time>2026-04-15T10:08:09.001Z</time></trkpt><trkpt lat="45.47709781755002" lon="10.98530197432816"><ele>179.0</ele><time>2026-04-15T10:08:11.001Z</time></trkpt><trkpt lat="45.47717845808137" lon="10.985267632002138"><ele>179.0</ele><time>2026-04-15T10:08:13.001Z</time></trkpt><trkpt lat="45.47725826454494" lon="10.985262877369385"><ele>179.0</ele><time>2026-04-15T10:08:15.001Z</time></trkpt><trkpt lat="45.47734070317607" lon="10.985303961911857"><ele>179.0</ele><time>2026-04-15T10:08:18.001Z</time></trkpt><trkpt lat="45.47744112750683" lon="10.985331596339783"><ele>179.0</ele><time>2026-04-15T10:08:20.001Z</time></trkpt><trkpt lat="45.47752140676754" lon="10.985420414459595"><ele>179.0</ele><time>2026-04-15T10:08:22.001Z</time></trkpt><trkpt lat="45.4775849676549" lon="10.985419257516886"><ele>179.0</ele><time>2026-04-15T10:08:24.001Z</time></trkpt><trkpt lat="45.47766519398928" lon="10.985397614166782"><ele>179.0</ele><time>2026-04-15T10:08:26.001Z</time></trkpt><trkpt lat="45.47777270942551" lon="10.985459191949381"><ele>179.0</ele><time>2026-04-15T10:08:28.001Z</time></trkpt><trkpt lat="45.4778586802854" lon="10.985428185711795"><ele>179.0</ele><time>2026-04-15T10:08:30.002Z</time></trkpt><trkpt lat="45.47793416445009" lon="10.985443228821357"><ele>179.0</ele><time>2026-04-15T10:08:32.002Z</time></trkpt><trkpt lat="45.47799619087084" lon="10.985458892870836"><ele>179.0</ele><time>2026-04-15T10:08:34.002Z</time></trkpt><trkpt lat="45.478095231866234" lon="10.985507907531813"><ele>179.0</ele><time>2026-04-15T10:08:36.002Z</time></trkpt><trkpt lat="45.478178192647384" lon="10.985518990627394"><ele>179.0</ele><time>2026-04-15T10:08:38.002Z</time></trkpt><trkpt lat="45.478269328684014" lon="10.985494483926498"><ele>179.0</ele><time>2026-04-15T10:08:42.002Z</time></trkpt><trkpt lat="45.47835377981323" lon="10.985467149131994"><ele>182.0</ele><time>2026-04-15T10:08:44.002Z</time></trkpt><trkpt lat="45.47843146126037" lon="10.985463386974743"><ele>185.0</ele><time>2026-04-15T10:08:47.002Z</time></trkpt><trkpt lat="45.478508975619356" lon="10.985480682475611"><ele>188.0</ele><time>2026-04-15T10:08:49.002Z</time></trkpt><trkpt lat="45.47855988116562" lon="10.985554477051162"><ele>191.0</ele><time>2026-04-15T10:08:51.999Z</time></trkpt><trkpt lat="45.47861201574815" lon="10.9856086113315"><ele>194.00000000000003</ele><time>2026-04-15T10:08:53.999Z</time></trkpt><trkpt lat="45.47870966797066" lon="10.985628665631104"><ele>197.0</ele><time>2026-04-15T10:08:56.999Z</time></trkpt><trkpt lat="45.47881505844382" lon="10.985655107487764"><ele>200.66666666666669</ele><time>2026-04-15T10:08:59Z</time></trkpt><trkpt lat="45.47892077742258" lon="10.985670629747863"><ele>204.33333333333334</ele><time>2026-04-15T10:09:02Z</time></trkpt><trkpt lat="45.47898207384974" lon="10.98564289694843"><ele>208.0</ele><time>2026-04-15T10:09:05Z</time></trkpt><trkpt lat="45.47908137476384" lon="10.985645293699406"><ele>211.66666666666669</ele><time>2026-04-15T10:09:09Z</time></trkpt><trkpt lat="45.47916445461551" lon="10.985667053575852"><ele>215.33333333333334</ele><time>2026-04-15T10:09:11Z</time></trkpt><trkpt lat="45.4792308002365" lon="10.985699503978172"><ele>219.0</ele><time>2026-04-15T10:09:13Z</time></trkpt><trkpt lat="45.4793062319086" lon="10.98572523527942"><ele>219.0</ele><time>2026-04-15T10:09:15Z</time></trkpt><trkpt lat="45.47936047271471" lon="10.985788313482256"><ele>219.0</ele><time>2026-04-15T10:09:17Z</time></trkpt><trkpt lat="45.47943729958742" lon="10.985773372611689"><ele>219.0</ele><time>2026-04-15T10:09:49.001Z</time></trkpt><trkpt lat="45.47952345273798" lon="10.985847890227758"><ele>219.0</ele><time>2026-04-15T10:10:06.001Z</time></trkpt><trkpt lat="45.47962217090988" lon="10.985882723490255"><ele>219.0</ele><time>2026-04-15T10:10:08.001Z</time></trkpt><trkpt lat="45.47970976238128" lon="10.98590935784369"><ele>219.0</ele><time>2026-04-15T10:10:11.001Z</time></trkpt><trkpt lat="45.479800871052184" lon="10.985953324091414"><ele>216.66666666666666</ele><time>2026-04-15T10:10:13.001Z</time></trkpt><trkpt lat="45.47988803436236" lon="10.985970621452486"><ele>214.33333333333331</ele><time>2026-04-15T10:10:15.002Z</time></trkpt><trkpt lat="45.47995483866585" lon="10.985969086137334"><ele>212.0</ele><time>2026-04-15T10:10:17.002Z</time></trkpt><trkpt lat="45.4800388010603" lon="10.98605015143851"><ele>209.66666666666666</ele><time>2026-04-15T10:10:19.002Z</time></trkpt><trkpt lat="45.48014441550931" lon="10.98611284145375"><ele>207.33333333333331</ele><time>2026-04-15T10:10:21.002Z</time></trkpt><trkpt lat="45.48021580032241" lon="10.986153215320686"><ele>205.0</ele><time>2026-04-15T10:10:23.002Z</time></trkpt><trkpt lat="45.480291166632995" lon="10.986195207597849"><ele>204.99999999999997</ele><time>2026-04-15T10:10:25.002Z</time></trkpt><trkpt lat="45.480362367409704" lon="10.98621838592807"><ele>205.0</ele><time>2026-04-15T10:10:27.002Z</time></trkpt><trkpt lat="45.48043928867551" lon="10.986240852519082"><ele>205.0</ele><time>2026-04-15T10:10:30.002Z</time></trkpt><trkpt lat="45.480543631709004" lon="10.986263606343567"><ele>205.0</ele><time>2026-04-15T10:10:33.002Z</time></trkpt><trkpt lat="45.4806205049711" lon="10.986291539613353"><ele>204.99999999999997</ele><time>2026-04-15T10:10:35.002Z</time></trkpt><trkpt lat="45.48069536974259" lon="10.986278513446505"><ele>205.0</ele><time>2026-04-15T10:10:37.002Z</time></trkpt><trkpt lat="45.4807593659052" lon="10.98631211975131"><ele>208.83333333333331</ele><time>2026-04-15T10:10:39.002Z</time></trkpt><trkpt lat="45.48083016214405" lon="10.986280896007413"><ele>212.66666666666666</ele><time>2026-04-15T10:10:41.002Z</time></trkpt><trkpt lat="45.480896584839876" lon="10.986276800591279"><ele>216.5</ele><time>2026-04-15T10:10:43.002Z</time></trkpt><trkpt lat="45.48099132095835" lon="10.986204109121706"><ele>220.33333333333331</ele><time>2026-04-15T10:10:47.002Z</time></trkpt><trkpt lat="45.48105077897885" lon="10.986157076394305"><ele>224.16666666666666</ele><time>2026-04-15T10:10:50.002Z</time></trkpt><trkpt lat="45.48113946658297" lon="10.986114691099562"><ele>228.0</ele><time>2026-04-15T10:10:52.002Z</time></trkpt><trkpt lat="45.481230375053556" lon="10.986034616212232"><ele>229.33333333333334</ele><time>2026-04-15T10:10:54.002Z</time></trkpt><trkpt lat="45.48129752166551" lon="10.986015241167383"><ele>230.66666666666669</ele><time>2026-04-15T10:10:56.002Z</time></trkpt><trkpt lat="45.48134318050999" lon="10.985949983849299"><ele>232.0</ele><time>2026-04-15T10:10:58Z</time></trkpt><trkpt lat="45.48142276353408" lon="10.98585430259793"><ele>233.33333333333334</ele><time>2026-04-15T10:11:00Z</time></trkpt><trkpt lat="45.4814769266492" lon="10.985793708054125"><ele>234.66666666666669</ele><time>2026-04-15T10:11:03Z</time></trkpt><trkpt lat="45.48142121172642" lon="10.985727933275863"><ele>236.0</ele><time>2026-04-15T10:11:17Z</time></trkpt><trkpt lat="45.48134650214962" lon="10.985676994039384"><ele>239.28571428571428</ele><time>2026-04-15T10:11:20Z</time></trkpt><trkpt lat="45.48127506342388" lon="10.985629447231242"><ele>242.57142857142858</ele><time>2026-04-15T10:11:23Z</time></trkpt><trkpt lat="45.4812041000566" lon="10.98561476145535"><ele>245.85714285714286</ele><time>2026-04-15T10:11:26Z</time></trkpt><trkpt lat="45.48113805005395" lon="10.98556526364415"><ele>249.14285714285714</ele><time>2026-04-15T10:11:29Z</time></trkpt><trkpt lat="45.48109418859744" lon="10.985498486041546"><ele>252.42857142857144</ele><time>2026-04-15T10:11:32Z</time></trkpt><trkpt lat="45.48101115854143" lon="10.985464804782382"><ele>255.71428571428572</ele><time>2026-04-15T10:11:39.001Z</time></trkpt><trkpt lat="45.48094943375116" lon="10.985420732204311"><ele>259.0</ele><time>2026-04-15T10:11:45.001Z</time></trkpt><trkpt lat="45.480890740548965" lon="10.985382568154659"><ele>259.0</ele><time>2026-04-15T10:11:49.001Z</time></trkpt><trkpt lat="45.48086120901303" lon="10.985287789835972"><ele>259.0</ele><time>2026-04-15T10:11:52.001Z</time></trkpt><trkpt lat="45.48082307345396" lon="10.98517503432993"><ele>259.0</ele><time>2026-04-15T10:11:55.001Z</time></trkpt><trkpt lat="45.48082330959497" lon="10.985075865797878"><ele>259.0</ele><time>2026-04-15T10:13:08Z</time></trkpt><trkpt lat="45.48086199510129" lon="10.985000857527458"><ele>259.0</ele><time>2026-04-15T10:13:11Z</time></trkpt><trkpt lat="45.480862362527226" lon="10.984885483958712"><ele>259.0</ele><time>2026-04-15T10:13:14Z</time></trkpt><trkpt lat="45.480821909529844" lon="10.984798416344562"><ele>259.0</ele><time>2026-04-15T10:13:20Z</time></trkpt><trkpt lat="45.48084213602925" lon="10.984695603405582"><ele>263.0</ele><time>2026-04-15T10:13:27.001Z</time></trkpt><trkpt lat="45.480828672180685" lon="10.984581533416662"><ele>267.0</ele><time>2026-04-15T10:13:31.001Z</time></trkpt><trkpt lat="45.48085476803373" lon="10.984495521264153"><ele>271.0</ele><time>2026-04-15T10:13:34.001Z</time></trkpt><trkpt lat="45.480836964440506" lon="10.984380470433619"><ele>275.0</ele><time>2026-04-15T10:13:37.001Z</time></trkpt><trkpt lat="45.48085678548745" lon="10.984255244913738"><ele>279.0</ele><time>2026-04-15T10:13:40.001Z</time></trkpt><trkpt lat="45.48090404785067" lon="10.984185250161463"><ele>283.0</ele><time>2026-04-15T10:13:42.001Z</time></trkpt><trkpt lat="45.48094202746673" lon="10.984091771485385"><ele>286.4</ele><time>2026-04-15T10:13:45.001Z</time></trkpt><trkpt lat="45.48084580427363" lon="10.984002889942069"><ele>289.8</ele><time>2026-04-15T10:14:50.002Z</time></trkpt><trkpt lat="45.48078810101567" lon="10.983898102117575"><ele>293.2</ele><time>2026-04-15T10:14:52.002Z</time></trkpt><trkpt lat="45.48077236517151" lon="10.983791263388479"><ele>296.6</ele><time>2026-04-15T10:14:54.002Z</time></trkpt><trkpt lat="45.48074122401091" lon="10.983660259373698"><ele>300.0</ele><time>2026-04-15T10:14:56.003Z</time></trkpt><trkpt lat="45.480724732460956" lon="10.983533318451792"><ele>300.0</ele><time>2026-04-15T10:14:58.003Z</time></trkpt><trkpt lat="45.48064437466876" lon="10.983444809713728"><ele>300.0</ele><time>2026-04-15T10:15:01.003Z</time></trkpt><trkpt lat="45.480568916668425" lon="10.983395022740861"><ele>300.0</ele><time>2026-04-15T10:15:03.003Z</time></trkpt><trkpt lat="45.48050719562047" lon="10.98333658698094"><ele>300.0</ele><time>2026-04-15T10:15:06.003Z</time></trkpt><trkpt lat="45.480433139593785" lon="10.983310169205332"><ele>300.0</ele><time>2026-04-15T10:15:22.001Z</time></trkpt><trkpt lat="45.480351743369276" lon="10.983277241393276"><ele>300.0</ele><time>2026-04-15T10:15:25.001Z</time></trkpt><trkpt lat="45.480285903739436" lon="10.983282461525826"><ele>300.3333333333333</ele><time>2026-04-15T10:15:27.001Z</time></trkpt><trkpt lat="45.480211206124466" lon="10.98331651443593"><ele>300.6666666666667</ele><time>2026-04-15T10:15:29.001Z</time></trkpt><trkpt lat="45.48012518401101" lon="10.983335017802382"><ele>301.0</ele><time>2026-04-15T10:15:31.001Z</time></trkpt><trkpt lat="45.48005999487052" lon="10.983304324902102"><ele>301.33333333333337</ele><time>2026-04-15T10:15:32.001Z</time></trkpt><trkpt lat="45.47998639057967" lon="10.983269013748702"><ele>301.6666666666667</ele><time>2026-04-15T10:15:34.001Z</time></trkpt><trkpt lat="45.47987051851406" lon="10.983212514736474"><ele>302.0</ele><time>2026-04-15T10:15:36.001Z</time></trkpt><trkpt lat="45.4797634930145" lon="10.983208791350565"><ele>302.0</ele><time>2026-04-15T10:15:38.001Z</time></trkpt><trkpt lat="45.47966693369387" lon="10.983191620194447"><ele>302.0</ele><time>2026-04-15T10:15:41.001Z</time></trkpt><trkpt lat="45.47964378042449" lon="10.983097090328943"><ele>302.0</ele><time>2026-04-15T10:16:15.001Z</time></trkpt><trkpt lat="45.479726019201934" lon="10.983079878611598"><ele>302.0</ele><time>2026-04-15T10:16:19.001Z</time></trkpt><trkpt lat="45.479782276339" lon="10.983026588775541"><ele>302.0</ele><time>2026-04-15T10:16:22.002Z</time></trkpt><trkpt lat="45.47984718505542" lon="10.982969865786377"><ele>302.0</ele><time>2026-04-15T10:16:28.002Z</time></trkpt><trkpt lat="45.479840784080636" lon="10.982874998456328"><ele>302.0</ele><time>2026-04-15T10:16:33.002Z</time></trkpt><trkpt lat="45.479917083655465" lon="10.982813670067008"><ele>302.0</ele><time>2026-04-15T10:16:36.002Z</time></trkpt><trkpt lat="45.47998374692529" lon="10.982753380770585"><ele>302.0</ele><time>2026-04-15T10:16:39.002Z</time></trkpt><trkpt lat="45.48005480806227" lon="10.982744652845328"><ele>302.0</ele><time>2026-04-15T10:16:43.002Z</time></trkpt><trkpt lat="45.480164614542836" lon="10.982846885366902"><ele>302.0</ele><time>2026-04-15T10:16:46.002Z</time></trkpt><trkpt lat="45.4802369428482" lon="10.982877764689142"><ele>302.0</ele><time>2026-04-15T10:16:50.002Z</time></trkpt><trkpt lat="45.48031659499857" lon="10.982886762967974"><ele>302.0</ele><time>2026-04-15T10:16:53.002Z</time></trkpt><trkpt lat="45.48032741938371" lon="10.983005203983"><ele>302.0</ele><time>2026-04-15T10:16:57.002Z</time></trkpt><trkpt lat="45.480336635785456" lon="10.983119115345021"><ele>302.0</ele><time>2026-04-15T10:17:00.002Z</time></trkpt><trkpt lat="45.48036526349331" lon="10.98324118539937"><ele>302.0</ele><time>2026-04-15T10:17:03.002Z</time></trkpt><trkpt lat="45.480425144028786" lon="10.983281449842911"><ele>302.0</ele><time>2026-04-15T10:17:05.002Z</time></trkpt><trkpt lat="45.48061307960337" lon="10.983331175737229"><ele>303.1666666666667</ele><time>2026-04-15T10:17:07.003Z</time></trkpt><trkpt lat="45.480677214328615" lon="10.983328142155077"><ele>304.33333333333337</ele><time>2026-04-15T10:17:08.003Z</time></trkpt><trkpt lat="45.48071981892123" lon="10.983256406472497"><ele>305.5</ele><time>2026-04-15T10:17:09.003Z</time></trkpt><trkpt lat="45.48083104731634" lon="10.983223559424156"><ele>306.6666666666667</ele><time>2026-04-15T10:17:11.003Z</time></trkpt><trkpt lat="45.48089953761995" lon="10.983248623304059"><ele>307.8333333333333</ele><time>2026-04-15T10:17:12.003Z</time></trkpt><trkpt lat="45.481019092287724" lon="10.983285643181235"><ele>309.0</ele><time>2026-04-15T10:17:14.003Z</time></trkpt><trkpt lat="45.48111168523267" lon="10.983271208853399"><ele>309.0</ele><time>2026-04-15T10:17:15Z</time></trkpt><trkpt lat="45.481206388084274" lon="10.983251294372785"><ele>309.0</ele><time>2026-04-15T10:17:16Z</time></trkpt><trkpt lat="45.48130142183396" lon="10.983245613213464"><ele>309.0</ele><time>2026-04-15T10:17:17Z</time></trkpt><trkpt lat="45.481383176774294" lon="10.98325178854007"><ele>309.0</ele><time>2026-04-15T10:17:18Z</time></trkpt><trkpt lat="45.481482198717806" lon="10.983273912635196"><ele>309.0</ele><time>2026-04-15T10:17:19Z</time></trkpt><trkpt lat="45.4816012010808" lon="10.983280418342034"><ele>308.8333333333333</ele><time>2026-04-15T10:17:20Z</time></trkpt><trkpt lat="45.48168951103377" lon="10.983299805300673"><ele>308.6666666666667</ele><time>2026-04-15T10:17:21Z</time></trkpt><trkpt lat="45.48176712591737" lon="10.983323161438332"><ele>308.5</ele><time>2026-04-15T10:17:22Z</time></trkpt><trkpt lat="45.48185776700983" lon="10.983321701689514"><ele>308.33333333333337</ele><time>2026-04-15T10:17:23Z</time></trkpt><trkpt lat="45.48194896682703" lon="10.983338214249509"><ele>308.1666666666667</ele><time>2026-04-15T10:17:24Z</time></trkpt><trkpt lat="45.48204068401129" lon="10.983367520167414"><ele>308.0</ele><time>2026-04-15T10:17:25Z</time></trkpt><trkpt lat="45.482120299319085" lon="10.983401638855193"><ele>306.2</ele><time>2026-04-15T10:17:26Z</time></trkpt><trkpt lat="45.48222136631812" lon="10.983416024860054"><ele>304.4</ele><time>2026-04-15T10:17:27Z</time></trkpt><trkpt lat="45.48231913742292" lon="10.983421679366199"><ele>302.59999999999997</ele><time>2026-04-15T10:17:28Z</time></trkpt><trkpt lat="45.482420840032304" lon="10.98344285367088"><ele>300.8</ele><time>2026-04-15T10:17:29Z</time></trkpt><trkpt lat="45.4825042634098" lon="10.98345159511489"><ele>299.0</ele><time>2026-04-15T10:17:30Z</time></trkpt><trkpt lat="45.48258802212222" lon="10.983450957549419"><ele>299.0</ele><time>2026-04-15T10:17:31Z</time></trkpt><trkpt lat="45.48268913809117" lon="10.983391246865805"><ele>299.0</ele><time>2026-04-15T10:17:33Z</time></trkpt><trkpt lat="45.482708319538496" lon="10.98321887037749"><ele>299.0</ele><time>2026-04-15T10:17:35Z</time></trkpt><trkpt lat="45.4827270068585" lon="10.983095948562491"><ele>299.0</ele><time>2026-04-15T10:17:37Z</time></trkpt><trkpt lat="45.48283349078698" lon="10.983102330031798"><ele>299.0</ele><time>2026-04-15T10:17:39Z</time></trkpt><trkpt lat="45.482951820667736" lon="10.983142326135644"><ele>300.6666666666667</ele><time>2026-04-15T10:17:41Z</time></trkpt><trkpt lat="45.483031246109284" lon="10.983149444969197"><ele>302.33333333333337</ele><time>2026-04-15T10:17:42Z</time></trkpt><trkpt lat="45.48310906781519" lon="10.983156405155695"><ele>304.0</ele><time>2026-04-15T10:17:43Z</time></trkpt><trkpt lat="45.48319735570444" lon="10.983168615827054"><ele>305.6666666666667</ele><time>2026-04-15T10:17:44Z</time></trkpt><trkpt lat="45.483304893275864" lon="10.983186120498901"><ele>307.3333333333333</ele><time>2026-04-15T10:17:45Z</time></trkpt><trkpt lat="45.48339739296438" lon="10.983193199467086"><ele>309.0</ele><time>2026-04-15T10:17:46Z</time></trkpt><trkpt lat="45.48348892082042" lon="10.983203599157106"><ele>309.0</ele><time>2026-04-15T10:17:47.001Z</time></trkpt><trkpt lat="45.483596611632784" lon="10.983215604355287"><ele>309.0</ele><time>2026-04-15T10:17:48.001Z</time></trkpt><trkpt lat="45.48372219172507" lon="10.983243220079046"><ele>309.0</ele><time>2026-04-15T10:17:49.001Z</time></trkpt><trkpt lat="45.4838553152631" lon="10.983278209798888"><ele>309.0</ele><time>2026-04-15T10:17:50.001Z</time></trkpt><trkpt lat="45.48396800936959" lon="10.9833003740748"><ele>310.0</ele><time>2026-04-15T10:17:51.001Z</time></trkpt><trkpt lat="45.48406398368454" lon="10.983355585980894"><ele>311.0</ele><time>2026-04-15T10:17:52.001Z</time></trkpt><trkpt lat="45.484163558093684" lon="10.983373577969024"><ele>312.0</ele><time>2026-04-15T10:17:53.001Z</time></trkpt><trkpt lat="45.48427472198887" lon="10.98339366291935"><ele>313.0</ele><time>2026-04-15T10:17:54.001Z</time></trkpt><trkpt lat="45.48438666657926" lon="10.983399143461252"><ele>314.0</ele><time>2026-04-15T10:17:55.001Z</time></trkpt><trkpt lat="45.48450755155036" lon="10.98341423105602"><ele>315.0</ele><time>2026-04-15T10:17:56.001Z</time></trkpt><trkpt lat="45.48462419116946" lon="10.983434538492123"><ele>316.0</ele><time>2026-04-15T10:17:57.001Z</time></trkpt><trkpt lat="45.48473400429733" lon="10.983453493220756"><ele>317.0</ele><time>2026-04-15T10:17:58.001Z</time></trkpt><trkpt lat="45.48484936896334" lon="10.983471575447817"><ele>318.0</ele><time>2026-04-15T10:17:59.001Z</time></trkpt><trkpt lat="45.48496698771851" lon="10.983491584524879"><ele>318.0</ele><time>2026-04-15T10:18:00.001Z</time></trkpt><trkpt lat="45.48507659684138" lon="10.983513811155515"><ele>318.0</ele><time>2026-04-15T10:18:01.001Z</time></trkpt><trkpt lat="45.485188748322614" lon="10.983534550404872"><ele>318.0</ele><time>2026-04-15T10:18:02.001Z</time></trkpt><trkpt lat="45.48530309655194" lon="10.983557466546603"><ele>318.0</ele><time>2026-04-15T10:18:03.001Z</time></trkpt><trkpt lat="45.48541303289159" lon="10.983583658237533"><ele>317.6</ele><time>2026-04-15T10:18:04.001Z</time></trkpt><trkpt lat="45.48551709777473" lon="10.98360599212651"><ele>317.20000000000005</ele><time>2026-04-15T10:18:05.001Z</time></trkpt><trkpt lat="45.48562645297543" lon="10.983631956077279"><ele>316.8</ele><time>2026-04-15T10:18:06.001Z</time></trkpt><trkpt lat="45.485741535079434" lon="10.9836545085188"><ele>316.40000000000003</ele><time>2026-04-15T10:18:07.001Z</time></trkpt><trkpt lat="45.48584197757176" lon="10.98366241102955"><ele>316.0</ele><time>2026-04-15T10:18:08.001Z</time></trkpt><trkpt lat="45.485940123713846" lon="10.983650882202292"><ele>316.0</ele><time>2026-04-15T10:18:09.001Z</time></trkpt><trkpt lat="45.486036570390745" lon="10.983648890484302"><ele>316.0</ele><time>2026-04-15T10:18:10.001Z</time></trkpt><trkpt lat="45.486114810974996" lon="10.983682936512544"><ele>316.0</ele><time>2026-04-15T10:18:11.001Z</time></trkpt><trkpt lat="45.486174298691225" lon="10.983741252635939"><ele>316.0</ele><time>2026-04-15T10:18:12.001Z</time></trkpt><trkpt lat="45.486247730066566" lon="10.983890278767435"><ele>316.0</ele><time>2026-04-15T10:18:14.001Z</time></trkpt><trkpt lat="45.48639023568058" lon="10.983916990045778"><ele>317.4</ele><time>2026-04-15T10:18:16.001Z</time></trkpt><trkpt lat="45.48647389630449" lon="10.983924094262136"><ele>318.8</ele><time>2026-04-15T10:18:17.001Z</time></trkpt><trkpt lat="45.48654638738736" lon="10.983926547377198"><ele>320.2</ele><time>2026-04-15T10:18:18.001Z</time></trkpt><trkpt lat="45.486640484840976" lon="10.983929484899674"><ele>321.59999999999997</ele><time>2026-04-15T10:18:19.001Z</time></trkpt><trkpt lat="45.48673965750149" lon="10.983911227525484"><ele>323.0</ele><time>2026-04-15T10:18:20.001Z</time></trkpt><trkpt lat="45.486839256026116" lon="10.9839151126032"><ele>323.0</ele><time>2026-04-15T10:18:21.001Z</time></trkpt><trkpt lat="45.48693751318486" lon="10.983922298210274"><ele>323.0</ele><time>2026-04-15T10:18:22.001Z</time></trkpt><trkpt lat="45.48703532306444" lon="10.98395757110267"><ele>323.0</ele><time>2026-04-15T10:18:23.001Z</time></trkpt><trkpt lat="45.48710880031683" lon="10.98396906218778"><ele>323.0</ele><time>2026-04-15T10:18:24.001Z</time></trkpt><trkpt lat="45.48719464306398" lon="10.983960074474748"><ele>323.0</ele><time>2026-04-15T10:18:25.001Z</time></trkpt><trkpt lat="45.48729012475151" lon="10.9839486851219"><ele>324.83333333333337</ele><time>2026-04-15T10:18:26.001Z</time></trkpt><trkpt lat="45.487361392316004" lon="10.983883350776667"><ele>326.6666666666667</ele><time>2026-04-15T10:18:27.001Z</time></trkpt><trkpt lat="45.48743184479925" lon="10.983816476741769"><ele>328.5</ele><time>2026-04-15T10:18:28.001Z</time></trkpt><trkpt lat="45.48751399105763" lon="10.983793296317605"><ele>330.3333333333333</ele><time>2026-04-15T10:18:29.001Z</time></trkpt><trkpt lat="45.48759028363122" lon="10.983835605287853"><ele>332.16666666666663</ele><time>2026-04-15T10:18:30.001Z</time></trkpt><trkpt lat="45.48766147555602" lon="10.98385902215621"><ele>334.0</ele><time>2026-04-15T10:18:31.001Z</time></trkpt><trkpt lat="45.48775407480517" lon="10.98388035115191"><ele>334.0</ele><time>2026-04-15T10:18:32.001Z</time></trkpt><trkpt lat="45.48784084443106" lon="10.98391782137988"><ele>334.0</ele><time>2026-04-15T10:18:33.001Z</time></trkpt><trkpt lat="45.487939894767095" lon="10.983941365463386"><ele>334.0</ele><time>2026-04-15T10:18:34.002Z</time></trkpt><trkpt lat="45.48805700872018" lon="10.983959879846424"><ele>334.0</ele><time>2026-04-15T10:18:35.002Z</time></trkpt><trkpt lat="45.48817361619508" lon="10.983979502112293"><ele>334.0</ele><time>2026-04-15T10:18:36.002Z</time></trkpt><trkpt lat="45.488289726274466" lon="10.984000276485164"><ele>333.5</ele><time>2026-04-15T10:18:37.002Z</time></trkpt><trkpt lat="45.488421092193825" lon="10.98399623114379"><ele>333.0</ele><time>2026-04-15T10:18:38.002Z</time></trkpt><trkpt lat="45.48854882163634" lon="10.983990392732352"><ele>332.5</ele><time>2026-04-15T10:18:39.002Z</time></trkpt><trkpt lat="45.488662831120884" lon="10.98398282649448"><ele>332.0</ele><time>2026-04-15T10:18:40.002Z</time></trkpt><trkpt lat="45.48876411177896" lon="10.984003115330149"><ele>332.0</ele><time>2026-04-15T10:18:41.002Z</time></trkpt><trkpt lat="45.488862279136136" lon="10.983990446237586"><ele>332.0</ele><time>2026-04-15T10:18:42.002Z</time></trkpt><trkpt lat="45.488957069661375" lon="10.983993965168647"><ele>332.0</ele><time>2026-04-15T10:18:43.002Z</time></trkpt><trkpt lat="45.48904956774476" lon="10.983998963244074"><ele>332.0</ele><time>2026-04-15T10:18:44.002Z</time></trkpt><trkpt lat="45.489131918026075" lon="10.983959331786632"><ele>332.0</ele><time>2026-04-15T10:18:45.002Z</time></trkpt><trkpt lat="45.489218266773264" lon="10.983915615642834"><ele>332.0</ele><time>2026-04-15T10:18:46.002Z</time></trkpt><trkpt lat="45.489287475373104" lon="10.983869281035545"><ele>332.0</ele><time>2026-04-15T10:18:47.002Z</time></trkpt><trkpt lat="45.48937134397132" lon="10.983820211708421"><ele>332.0</ele><time>2026-04-15T10:18:48.002Z</time></trkpt><trkpt lat="45.48945633327546" lon="10.983779993062846"><ele>332.0</ele><time>2026-04-15T10:18:49.002Z</time></trkpt><trkpt lat="45.48955112717565" lon="10.983731330296184"><ele>332.0</ele><time>2026-04-15T10:18:50.002Z</time></trkpt><trkpt lat="45.489658481264016" lon="10.983667582927428"><ele>329.75</ele><time>2026-04-15T10:18:51.002Z</time></trkpt><trkpt lat="45.48978005644467" lon="10.983604211076411"><ele>327.5</ele><time>2026-04-15T10:18:52.002Z</time></trkpt><trkpt lat="45.489915406782536" lon="10.983555251329786"><ele>325.25</ele><time>2026-04-15T10:18:53.002Z</time></trkpt><trkpt lat="45.49003895616781" lon="10.983489755824426"><ele>323.0</ele><time>2026-04-15T10:18:54.002Z</time></trkpt><trkpt lat="45.49015100524021" lon="10.983445927237"><ele>323.0</ele><time>2026-04-15T10:18:55.002Z</time></trkpt><trkpt lat="45.490253517638614" lon="10.983410073822204"><ele>323.0</ele><time>2026-04-15T10:18:56.002Z</time></trkpt><trkpt lat="45.49035033631028" lon="10.983359859992698"><ele>323.0</ele><time>2026-04-15T10:18:57.002Z</time></trkpt><trkpt lat="45.490450810261684" lon="10.983306745469992"><ele>323.0</ele><time>2026-04-15T10:18:58.002Z</time></trkpt><trkpt lat="45.49054887429089" lon="10.983249468011604"><ele>323.0</ele><time>2026-04-15T10:18:59.002Z</time></trkpt><trkpt lat="45.49064404799083" lon="10.983195829332757"><ele>323.59999999999997</ele><time>2026-04-15T10:19:00.002Z</time></trkpt><trkpt lat="45.49072549015336" lon="10.98314593436285"><ele>324.2</ele><time>2026-04-15T10:19:01.002Z</time></trkpt><trkpt lat="45.49078263402189" lon="10.983105201185195"><ele>324.8</ele><time>2026-04-15T10:19:02.002Z</time></trkpt><trkpt lat="45.49087539619633" lon="10.983081855720474"><ele>325.4</ele><time>2026-04-15T10:19:04.002Z</time></trkpt><trkpt lat="45.49096160772201" lon="10.983044584482927"><ele>326.0</ele><time>2026-04-15T10:19:06.002Z</time></trkpt><trkpt lat="45.49107704426036" lon="10.983033260096605"><ele>326.0</ele><time>2026-04-15T10:19:08.002Z</time></trkpt><trkpt lat="45.49114082505017" lon="10.98300544939018"><ele>326.0</ele><time>2026-04-15T10:19:10.002Z</time></trkpt><trkpt lat="45.491228501812785" lon="10.98296689595321"><ele>326.0</ele><time>2026-04-15T10:19:13.002Z</time></trkpt><trkpt lat="45.49129202396045" lon="10.98296380686139"><ele>326.0</ele><time>2026-04-15T10:19:17.002Z</time></trkpt><trkpt lat="45.491264043072555" lon="10.982828722955807"><ele>326.0</ele><time>2026-04-15T10:19:21Z</time></trkpt><trkpt lat="45.49130266511473" lon="10.98274208733037"><ele>326.0</ele><time>2026-04-15T10:19:23Z</time></trkpt><trkpt lat="45.49141881619275" lon="10.982730257250816"><ele>326.1666666666667</ele><time>2026-04-15T10:19:25Z</time></trkpt><trkpt lat="45.49151610083399" lon="10.982748178432894"><ele>326.33333333333337</ele><time>2026-04-15T10:19:27Z</time></trkpt><trkpt lat="45.49159905533555" lon="10.982718044231754"><ele>326.5</ele><time>2026-04-15T10:19:30Z</time></trkpt><trkpt lat="45.491693457278295" lon="10.982757722205632"><ele>326.6666666666667</ele><time>2026-04-15T10:19:32Z</time></trkpt><trkpt lat="45.491783323621206" lon="10.982767237028016"><ele>326.8333333333333</ele><time>2026-04-15T10:19:34Z</time></trkpt><trkpt lat="45.49185448053195" lon="10.98273815733495"><ele>327.0</ele><time>2026-04-15T10:19:36Z</time></trkpt><trkpt lat="45.49194704332198" lon="10.98272409778022"><ele>327.0</ele><time>2026-04-15T10:19:38Z</time></trkpt><trkpt lat="45.49204311739819" lon="10.982739169353751"><ele>327.0</ele><time>2026-04-15T10:19:40Z</time></trkpt><trkpt lat="45.49211188028474" lon="10.98273302368081"><ele>327.0</ele><time>2026-04-15T10:19:42Z</time></trkpt><trkpt lat="45.492205616705995" lon="10.982722001096983"><ele>327.0</ele><time>2026-04-15T10:19:45Z</time></trkpt><trkpt lat="45.492280566391706" lon="10.982713514711808"><ele>327.0</ele><time>2026-04-15T10:19:47Z</time></trkpt><trkpt lat="45.4923657407518" lon="10.982724826350408"><ele>327.0</ele><time>2026-04-15T10:19:49Z</time></trkpt><trkpt lat="45.492437094005005" lon="10.982764202445924"><ele>328.6666666666667</ele><time>2026-04-15T10:19:51Z</time></trkpt><trkpt lat="45.49249980245343" lon="10.982773097400607"><ele>330.3333333333333</ele><time>2026-04-15T10:19:53Z</time></trkpt><trkpt lat="45.49256572403418" lon="10.982814557619996"><ele>332.0</ele><time>2026-04-15T10:19:55Z</time></trkpt><trkpt lat="45.492656100994495" lon="10.982844239918482"><ele>333.66666666666663</ele><time>2026-04-15T10:19:57Z</time></trkpt><trkpt lat="45.492725039521844" lon="10.982873966500968"><ele>335.3333333333333</ele><time>2026-04-15T10:20:00Z</time></trkpt><trkpt lat="45.49279333389762" lon="10.982918681737907"><ele>337.0</ele><time>2026-04-15T10:20:03.001Z</time></trkpt><trkpt lat="45.49289507470902" lon="10.982933838603396"><ele>337.66666666666663</ele><time>2026-04-15T10:20:06.001Z</time></trkpt><trkpt lat="45.49297042757317" lon="10.982930030651278"><ele>338.3333333333333</ele><time>2026-04-15T10:20:08.001Z</time></trkpt><trkpt lat="45.49303164678313" lon="10.982878361161232"><ele>339.0</ele><time>2026-04-15T10:20:11.001Z</time></trkpt><trkpt lat="45.49311486579912" lon="10.982861095499707"><ele>339.6666666666667</ele><time>2026-04-15T10:20:14.001Z</time></trkpt><trkpt lat="45.49323283841158" lon="10.982843461482995"><ele>340.33333333333337</ele><time>2026-04-15T10:20:16.001Z</time></trkpt><trkpt lat="45.49330984884155" lon="10.982802228802521"><ele>341.0</ele><time>2026-04-15T10:20:20.001Z</time></trkpt><trkpt lat="45.493410412659806" lon="10.982753717208281"><ele>341.0</ele><time>2026-04-15T10:20:23.001Z</time></trkpt><trkpt lat="45.493506299567265" lon="10.982749237585768"><ele>341.0</ele><time>2026-04-15T10:20:25.001Z</time></trkpt><trkpt lat="45.49361403641321" lon="10.982713378427297"><ele>341.0</ele><time>2026-04-15T10:20:27.001Z</time></trkpt><trkpt lat="45.4936819286507" lon="10.982712085209574"><ele>341.0</ele><time>2026-04-15T10:20:28.001Z</time></trkpt><trkpt lat="45.493763655257204" lon="10.982727548976683"><ele>341.0</ele><time>2026-04-15T10:20:30.001Z</time></trkpt><trkpt lat="45.49385227475195" lon="10.982723903071403"><ele>341.0</ele><time>2026-04-15T10:20:32.001Z</time></trkpt><trkpt lat="45.49392315680876" lon="10.982725283474306"><ele>341.0</ele><time>2026-04-15T10:20:34.001Z</time></trkpt><trkpt lat="45.493993377343735" lon="10.98274542363706"><ele>341.0</ele><time>2026-04-15T10:20:36.001Z</time></trkpt><trkpt lat="45.494082866341856" lon="10.982672412709048"><ele>341.0</ele><time>2026-04-15T10:20:39.001Z</time></trkpt><trkpt lat="45.494163361161604" lon="10.982623437962726"><ele>341.0</ele><time>2026-04-15T10:20:41.001Z</time></trkpt><trkpt lat="45.49420010183326" lon="10.98254860384316"><ele>341.0</ele><time>2026-04-15T10:20:42.001Z</time></trkpt><trkpt lat="45.494274536597345" lon="10.982499076741874"><ele>341.0</ele><time>2026-04-15T10:20:44.001Z</time></trkpt><trkpt lat="45.49433804218418" lon="10.982555709049707"><ele>341.0</ele><time>2026-04-15T10:20:46.001Z</time></trkpt><trkpt lat="45.49441078469691" lon="10.9825811864618"><ele>341.0</ele><time>2026-04-15T10:20:49.002Z</time></trkpt><trkpt lat="45.49446719490061" lon="10.98246243280291"><ele>341.0</ele><time>2026-04-15T10:20:52.002Z</time></trkpt><trkpt lat="45.494546183628394" lon="10.982462870260168"><ele>341.0</ele><time>2026-04-15T10:20:56.002Z</time></trkpt><trkpt lat="45.494653152652035" lon="10.98239184996473"><ele>341.0</ele><time>2026-04-15T10:20:59.002Z</time></trkpt><trkpt lat="45.494718991319765" lon="10.982378239048272"><ele>341.0</ele><time>2026-04-15T10:21:00.002Z</time></trkpt><trkpt lat="45.49482086857093" lon="10.982377546874918"><ele>342.4</ele><time>2026-04-15T10:21:02.002Z</time></trkpt><trkpt lat="45.49493813990028" lon="10.982351772875765"><ele>343.8</ele><time>2026-04-15T10:21:04.002Z</time></trkpt><trkpt lat="45.495040828423356" lon="10.98229699886387"><ele>345.2</ele><time>2026-04-15T10:21:06.002Z</time></trkpt><trkpt lat="45.49511620861894" lon="10.982267826331352"><ele>346.59999999999997</ele><time>2026-04-15T10:21:08.002Z</time></trkpt><trkpt lat="45.49523035100089" lon="10.982248343431667"><ele>348.0</ele><time>2026-04-15T10:21:10.002Z</time></trkpt><trkpt lat="45.49536939735161" lon="10.98223192029464"><ele>346.59999999999997</ele><time>2026-04-15T10:21:12.002Z</time></trkpt><trkpt lat="45.495476828281646" lon="10.982215906965175"><ele>345.2</ele><time>2026-04-15T10:21:14.002Z</time></trkpt><trkpt lat="45.49558130340204" lon="10.982288121760451"><ele>343.8</ele><time>2026-04-15T10:21:16.002Z</time></trkpt><trkpt lat="45.4956895198513" lon="10.98225263444398"><ele>342.4</ele><time>2026-04-15T10:21:18.002Z</time></trkpt><trkpt lat="45.49576988698386" lon="10.982209002805075"><ele>341.0</ele><time>2026-04-15T10:21:19.002Z</time></trkpt><trkpt lat="45.49584608006757" lon="10.982197472338386"><ele>341.0</ele><time>2026-04-15T10:21:20.002Z</time></trkpt><trkpt lat="45.49593267603761" lon="10.982182377226053"><ele>341.0</ele><time>2026-04-15T10:21:21.002Z</time></trkpt><trkpt lat="45.49600840305574" lon="10.982157821675882"><ele>341.0</ele><time>2026-04-15T10:21:22.002Z</time></trkpt><trkpt lat="45.49611526138477" lon="10.982126903361259"><ele>341.0</ele><time>2026-04-15T10:21:23.002Z</time></trkpt><trkpt lat="45.496193386168535" lon="10.982087777048688"><ele>341.0</ele><time>2026-04-15T10:21:24.002Z</time></trkpt><trkpt lat="45.49626640656349" lon="10.982057748485207"><ele>341.0</ele><time>2026-04-15T10:21:25.002Z</time></trkpt><trkpt lat="45.49638748337245" lon="10.98201440163646"><ele>338.0</ele><time>2026-04-15T10:21:27Z</time></trkpt><trkpt lat="45.49650045765079" lon="10.981944774387422"><ele>335.0</ele><time>2026-04-15T10:21:29Z</time></trkpt><trkpt lat="45.49656505510978" lon="10.981929034156604"><ele>332.0</ele><time>2026-04-15T10:21:30Z</time></trkpt><trkpt lat="45.49664623722031" lon="10.981904197258391"><ele>329.0</ele><time>2026-04-15T10:21:31Z</time></trkpt><trkpt lat="45.49672046941303" lon="10.981864368389063"><ele>326.0</ele><time>2026-04-15T10:21:32Z</time></trkpt><trkpt lat="45.49683942052227" lon="10.981844112201902"><ele>326.0</ele><time>2026-04-15T10:21:34Z</time></trkpt><trkpt lat="45.49696043297633" lon="10.981847226368863"><ele>326.0</ele><time>2026-04-15T10:21:36Z</time></trkpt><trkpt lat="45.497024252784456" lon="10.981838773729951"><ele>326.0</ele><time>2026-04-15T10:21:37Z</time></trkpt><trkpt lat="45.49715389183579" lon="10.981790380542916"><ele>326.0</ele><time>2026-04-15T10:21:39Z</time></trkpt><trkpt lat="45.497235221927035" lon="10.981762502386786"><ele>326.0</ele><time>2026-04-15T10:21:40Z</time></trkpt><trkpt lat="45.497327250154804" lon="10.981736336611354"><ele>325.20000000000005</ele><time>2026-04-15T10:21:41Z</time></trkpt><trkpt lat="45.497409646751436" lon="10.98170766256966"><ele>324.40000000000003</ele><time>2026-04-15T10:21:42Z</time></trkpt><trkpt lat="45.49749190390593" lon="10.981678769996572"><ele>323.6</ele><time>2026-04-15T10:21:43Z</time></trkpt><trkpt lat="45.49758054746107" lon="10.981646065669525"><ele>322.8</ele><time>2026-04-15T10:21:44Z</time></trkpt><trkpt lat="45.497664055693015" lon="10.981613199265684"><ele>322.0</ele><time>2026-04-15T10:21:45Z</time></trkpt><trkpt lat="45.49778800744254" lon="10.981540602704621"><ele>323.8333333333333</ele><time>2026-04-15T10:21:47Z</time></trkpt><trkpt lat="45.497858579001374" lon="10.981519349704223"><ele>325.66666666666663</ele><time>2026-04-15T10:21:48Z</time></trkpt><trkpt lat="45.49793980570814" lon="10.981533288644188"><ele>327.5</ele><time>2026-04-15T10:21:49Z</time></trkpt><trkpt lat="45.49803687170412" lon="10.981588786854207"><ele>329.3333333333333</ele><time>2026-04-15T10:21:51Z</time></trkpt><trkpt lat="45.498118074637986" lon="10.981592465295213"><ele>331.1666666666667</ele><time>2026-04-15T10:21:53Z</time></trkpt><trkpt lat="45.49822357351957" lon="10.98159493860856"><ele>333.0</ele><time>2026-04-15T10:21:55Z</time></trkpt><trkpt lat="45.49831991357168" lon="10.98157795557677"><ele>332.79999999999995</ele><time>2026-04-15T10:21:57Z</time></trkpt><trkpt lat="45.498407109796446" lon="10.981565686029917"><ele>332.6</ele><time>2026-04-15T10:21:59Z</time></trkpt><trkpt lat="45.49847796691624" lon="10.981562768114605"><ele>332.4</ele><time>2026-04-15T10:22:01Z</time></trkpt><trkpt lat="45.4985583984893" lon="10.981532911845544"><ele>332.20000000000005</ele><time>2026-04-15T10:22:03Z</time></trkpt><trkpt lat="45.49868583732696" lon="10.981517386065835"><ele>332.0</ele><time>2026-04-15T10:22:05Z</time></trkpt><trkpt lat="45.49878675640798" lon="10.981482554952269"><ele>332.0</ele><time>2026-04-15T10:22:07Z</time></trkpt><trkpt lat="45.49884714390123" lon="10.981530477140282"><ele>332.0</ele><time>2026-04-15T10:22:10.001Z</time></trkpt><trkpt lat="45.498916240630564" lon="10.981541312762383"><ele>332.0</ele><time>2026-04-15T10:22:14.001Z</time></trkpt><trkpt lat="45.49897874752711" lon="10.981576454844523"><ele>332.0</ele><time>2026-04-15T10:22:18.001Z</time></trkpt><trkpt lat="45.49905237752334" lon="10.981598908428511"><ele>332.0</ele><time>2026-04-15T10:22:20.001Z</time></trkpt><trkpt lat="45.49912202121845" lon="10.981666098059232"><ele>332.0</ele><time>2026-04-15T10:22:24.001Z</time></trkpt><trkpt lat="45.499158258337964" lon="10.981796531857487"><ele>330.8</ele><time>2026-04-15T10:22:28.001Z</time></trkpt><trkpt lat="45.49922404281603" lon="10.981886333095265"><ele>329.6</ele><time>2026-04-15T10:22:32.001Z</time></trkpt><trkpt lat="45.499296454431615" lon="10.981904923843032"><ele>328.40000000000003</ele><time>2026-04-15T10:22:33.001Z</time></trkpt><trkpt lat="45.49937252428536" lon="10.9819627703707"><ele>327.20000000000005</ele><time>2026-04-15T10:22:35.001Z</time></trkpt><trkpt lat="45.49944444389421" lon="10.982065272352884"><ele>326.0</ele><time>2026-04-15T10:22:37.001Z</time></trkpt><trkpt lat="45.49952798957956" lon="10.982158820944802"><ele>323.40000000000003</ele><time>2026-04-15T10:22:40.001Z</time></trkpt><trkpt lat="45.49961514319163" lon="10.982235881890539"><ele>320.8</ele><time>2026-04-15T10:22:43.001Z</time></trkpt><trkpt lat="45.49966315873791" lon="10.982331400706405"><ele>318.20000000000005</ele><time>2026-04-15T10:22:45.001Z</time></trkpt><trkpt lat="45.49968951108662" lon="10.982228960960025"><ele>315.6</ele><time>2026-04-15T10:22:52.002Z</time></trkpt><trkpt lat="45.49978391788998" lon="10.98224081375016"><ele>313.0</ele><time>2026-04-15T10:22:55.002Z</time></trkpt><trkpt lat="45.4998764718296" lon="10.982218985802607"><ele>313.0</ele><time>2026-04-15T10:22:57.002Z</time></trkpt><trkpt lat="45.49993861725586" lon="10.982188977910138"><ele>313.0</ele><time>2026-04-15T10:23:00.002Z</time></trkpt><trkpt lat="45.50001373068063" lon="10.982155612542194"><ele>313.0</ele><time>2026-04-15T10:23:02.002Z</time></trkpt><trkpt lat="45.50007929699388" lon="10.982143087578349"><ele>313.0</ele><time>2026-04-15T10:23:04.002Z</time></trkpt><trkpt lat="45.500144670731345" lon="10.982135727979879"><ele>313.0</ele><time>2026-04-15T10:23:08.002Z</time></trkpt><trkpt lat="45.50021883492858" lon="10.982120137077485"><ele>313.0</ele><time>2026-04-15T10:23:11.002Z</time></trkpt><trkpt lat="45.50029995177266" lon="10.982135919473341"><ele>313.0</ele><time>2026-04-15T10:23:14.002Z</time></trkpt><trkpt lat="45.5003865606368" lon="10.982151151671768"><ele>313.8333333333333</ele><time>2026-04-15T10:23:16.002Z</time></trkpt><trkpt lat="45.50050289486589" lon="10.982175965423412"><ele>314.66666666666663</ele><time>2026-04-15T10:23:18.002Z</time></trkpt><trkpt lat="45.50058831590587" lon="10.982201671859528"><ele>315.5</ele><time>2026-04-15T10:23:20.002Z</time></trkpt><trkpt lat="45.50065458850057" lon="10.982123927902776"><ele>316.3333333333333</ele><time>2026-04-15T10:23:33Z</time></trkpt><trkpt lat="45.5006229981252" lon="10.982011214494458"><ele>317.1666666666667</ele><time>2026-04-15T10:23:38Z</time></trkpt><trkpt lat="45.500614182189324" lon="10.981917038676672"><ele>318.0</ele><time>2026-04-15T10:23:40Z</time></trkpt><trkpt lat="45.50065357523631" lon="10.981840376319733"><ele>318.0</ele><time>2026-04-15T10:23:43Z</time></trkpt><trkpt lat="45.500725471479704" lon="10.981827961845942"><ele>318.0</ele><time>2026-04-15T10:23:46Z</time></trkpt><trkpt lat="45.50077418043879" lon="10.98193137450284"><ele>318.0</ele><time>2026-04-15T10:23:50Z</time></trkpt><trkpt lat="45.50083804103774" lon="10.981961772841741"><ele>318.0</ele><time>2026-04-15T10:23:52Z</time></trkpt><trkpt lat="45.50092276208043" lon="10.982007824866535"><ele>318.0</ele><time>2026-04-15T10:23:54Z</time></trkpt><trkpt lat="45.500960975463364" lon="10.98209306789575"><ele>318.0</ele><time>2026-04-15T10:23:57Z</time></trkpt><trkpt lat="45.5010523602358" lon="10.982118562448893"><ele>318.0</ele><time>2026-04-15T10:24:01Z</time></trkpt><trkpt lat="45.50111647592717" lon="10.982105265538229"><ele>318.0</ele><time>2026-04-15T10:24:03Z</time></trkpt><trkpt lat="45.50116892569207" lon="10.982046292481396"><ele>318.0</ele><time>2026-04-15T10:24:14.001Z</time></trkpt><trkpt lat="45.501227018291814" lon="10.981998448648788"><ele>318.0</ele><time>2026-04-15T10:24:58.002Z</time></trkpt><trkpt lat="45.501334010477244" lon="10.982037907962551"><ele>318.0</ele><time>2026-04-15T10:25:30.002Z</time></trkpt><trkpt lat="45.50139291045644" lon="10.981946561778228"><ele>318.0</ele><time>2026-04-15T10:27:32.002Z</time></trkpt><trkpt lat="45.50145624885737" lon="10.981954194946402"><ele>320.5</ele><time>2026-04-15T10:28:36.001Z</time></trkpt><trkpt lat="45.50153214961511" lon="10.982016774806088"><ele>323.0</ele><time>2026-04-15T10:28:39.001Z</time></trkpt><trkpt lat="45.501598896609515" lon="10.982064325975896"><ele>325.5</ele><time>2026-04-15T10:28:42.001Z</time></trkpt><trkpt lat="45.501661126732195" lon="10.982012879971276"><ele>328.0</ele><time>2026-04-15T10:28:45.001Z</time></trkpt><trkpt lat="45.501730369442356" lon="10.981994834532776"><ele>330.5</ele><time>2026-04-15T10:28:48.001Z</time></trkpt><trkpt lat="45.5018095665943" lon="10.982017411662978"><ele>333.0</ele><time>2026-04-15T10:28:50.001Z</time></trkpt><trkpt lat="45.50189262601671" lon="10.982041161374815"><ele>333.0</ele><time>2026-04-15T10:28:52.001Z</time></trkpt><trkpt lat="45.50196130731943" lon="10.982065620383954"><ele>333.0</ele><time>2026-04-15T10:28:54.002Z</time></trkpt><trkpt lat="45.50207367961439" lon="10.982083936936778"><ele>333.0</ele><time>2026-04-15T10:28:56.002Z</time></trkpt><trkpt lat="45.50213820469864" lon="10.982058221764868"><ele>333.0</ele><time>2026-04-15T10:28:58.002Z</time></trkpt><trkpt lat="45.50222210235139" lon="10.982026641318296"><ele>333.0</ele><time>2026-04-15T10:29:02.002Z</time></trkpt><trkpt lat="45.50229958179948" lon="10.982016609952302"><ele>333.0</ele><time>2026-04-15T10:29:04.002Z</time></trkpt><trkpt lat="45.50236228806432" lon="10.981997469920517"><ele>334.8333333333333</ele><time>2026-04-15T10:29:06.002Z</time></trkpt><trkpt lat="45.502402098187865" lon="10.981918249593562"><ele>336.6666666666667</ele><time>2026-04-15T10:29:08.002Z</time></trkpt><trkpt lat="45.5024898917159" lon="10.981875621548626"><ele>338.5</ele><time>2026-04-15T10:29:10.002Z</time></trkpt><trkpt lat="45.50253744139862" lon="10.981800019133782"><ele>340.33333333333337</ele><time>2026-04-15T10:29:12.002Z</time></trkpt><trkpt lat="45.50256512363996" lon="10.981678079680169"><ele>342.1666666666667</ele><time>2026-04-15T10:29:15.002Z</time></trkpt><trkpt lat="45.502636969102795" lon="10.9816671320021"><ele>344.0</ele><time>2026-04-15T10:29:17.002Z</time></trkpt><trkpt lat="45.502730280119586" lon="10.981657048919523"><ele>347.1666666666667</ele><time>2026-04-15T10:29:20.002Z</time></trkpt><trkpt lat="45.50280780729822" lon="10.981610839814207"><ele>350.33333333333337</ele><time>2026-04-15T10:29:23.002Z</time></trkpt><trkpt lat="45.50288220676249" lon="10.981616585078585"><ele>353.5</ele><time>2026-04-15T10:29:26.002Z</time></trkpt><trkpt lat="45.50298626036635" lon="10.981574425490043"><ele>356.6666666666667</ele><time>2026-04-15T10:29:29.002Z</time></trkpt><trkpt lat="45.50305419369732" lon="10.981521175027748"><ele>359.8333333333333</ele><time>2026-04-15T10:29:33.002Z</time></trkpt><trkpt lat="45.50307628740336" lon="10.981407647955532"><ele>363.0</ele><time>2026-04-15T10:29:36.002Z</time></trkpt><trkpt lat="45.503120922647526" lon="10.981319833562848"><ele>364.5</ele><time>2026-04-15T10:29:38.002Z</time></trkpt><trkpt lat="45.50314867322515" lon="10.981226972697995"><ele>366.0</ele><time>2026-04-15T10:29:40.002Z</time></trkpt><trkpt lat="45.50320754862329" lon="10.981145876526417"><ele>367.5</ele><time>2026-04-15T10:29:43.003Z</time></trkpt><trkpt lat="45.50321527548733" lon="10.981050618776885"><ele>369.0</ele><time>2026-04-15T10:29:45.003Z</time></trkpt><trkpt lat="45.50327983073636" lon="10.980953271442774"><ele>370.5</ele><time>2026-04-15T10:29:49.003Z</time></trkpt><trkpt lat="45.50333234222546" lon="10.98087802580731"><ele>372.0</ele><time>2026-04-15T10:29:51.001Z</time></trkpt><trkpt lat="45.50342938932948" lon="10.980837294437286"><ele>372.0</ele><time>2026-04-15T10:29:53.001Z</time></trkpt><trkpt lat="45.50351517823508" lon="10.980910069521777"><ele>372.0</ele><time>2026-04-15T10:29:55.001Z</time></trkpt><trkpt lat="45.50358638242112" lon="10.98093139447288"><ele>372.0</ele><time>2026-04-15T10:29:57.001Z</time></trkpt><trkpt lat="45.503637652421055" lon="10.980852400612731"><ele>372.0</ele><time>2026-04-15T10:29:59.001Z</time></trkpt><trkpt lat="45.503667771456" lon="10.980763985010018"><ele>372.0</ele><time>2026-04-15T10:30:01.001Z</time></trkpt><trkpt lat="45.50374782662658" lon="10.980654468391247"><ele>372.0</ele><time>2026-04-15T10:30:04.001Z</time></trkpt><trkpt lat="45.50381116558976" lon="10.980602174652317"><ele>375.0</ele><time>2026-04-15T10:30:06.001Z</time></trkpt><trkpt lat="45.503887116619566" lon="10.98057385654149"><ele>378.0</ele><time>2026-04-15T10:30:08.001Z</time></trkpt><trkpt lat="45.50394822004692" lon="10.980517842719385"><ele>381.0</ele><time>2026-04-15T10:30:11.001Z</time></trkpt><trkpt lat="45.50399036864719" lon="10.980412785909557"><ele>384.0</ele><time>2026-04-15T10:30:14.001Z</time></trkpt><trkpt lat="45.504045427069734" lon="10.9803314149696"><ele>387.0</ele><time>2026-04-15T10:30:16.001Z</time></trkpt><trkpt lat="45.504102677025855" lon="10.980264257541423"><ele>390.0</ele><time>2026-04-15T10:30:18.001Z</time></trkpt><trkpt lat="45.504169234423344" lon="10.980190128718567"><ele>390.0</ele><time>2026-04-15T10:30:21.001Z</time></trkpt><trkpt lat="45.50424086272303" lon="10.980127543389814"><ele>390.0</ele><time>2026-04-15T10:30:23.001Z</time></trkpt><trkpt lat="45.50430301261372" lon="10.980173805519478"><ele>390.0</ele><time>2026-04-15T10:30:26.001Z</time></trkpt><trkpt lat="45.50436842638056" lon="10.980212850459074"><ele>390.0</ele><time>2026-04-15T10:30:31.001Z</time></trkpt><trkpt lat="45.50444563184025" lon="10.980218257326078"><ele>390.0</ele><time>2026-04-15T10:30:33.001Z</time></trkpt><trkpt lat="45.50453649739654" lon="10.980190746271349"><ele>390.0</ele><time>2026-04-15T10:30:36.001Z</time></trkpt><trkpt lat="45.50459758373839" lon="10.980140089067833"><ele>391.1666666666667</ele><time>2026-04-15T10:30:38.001Z</time></trkpt><trkpt lat="45.50468100820483" lon="10.980111678852202"><ele>392.33333333333337</ele><time>2026-04-15T10:30:40.001Z</time></trkpt><trkpt lat="45.50475073800481" lon="10.980168312243684"><ele>393.5</ele><time>2026-04-15T10:30:42.001Z</time></trkpt><trkpt lat="45.50482179213681" lon="10.980183691176702"><ele>394.6666666666667</ele><time>2026-04-15T10:30:44.001Z</time></trkpt><trkpt lat="45.504895075017295" lon="10.980126917297365"><ele>395.83333333333337</ele><time>2026-04-15T10:30:46.001Z</time></trkpt><trkpt lat="45.50497324527239" lon="10.980160767944417"><ele>397.0</ele><time>2026-04-15T10:30:48.001Z</time></trkpt><trkpt lat="45.505076534142546" lon="10.980202323703313"><ele>397.00000000000006</ele><time>2026-04-15T10:30:51.001Z</time></trkpt><trkpt lat="45.50515159458662" lon="10.980206636595502"><ele>397.0</ele><time>2026-04-15T10:30:53.001Z</time></trkpt><trkpt lat="45.50522026598523" lon="10.980190422465782"><ele>397.0</ele><time>2026-04-15T10:30:55.001Z</time></trkpt><trkpt lat="45.50530565294134" lon="10.980167300685283"><ele>397.0</ele><time>2026-04-15T10:30:57.001Z</time></trkpt><trkpt lat="45.50538873825384" lon="10.980129831950832"><ele>397.00000000000006</ele><time>2026-04-15T10:30:59.001Z</time></trkpt><trkpt lat="45.50545952045583" lon="10.98008589017338"><ele>397.0</ele><time>2026-04-15T10:31:01.001Z</time></trkpt><trkpt lat="45.50553969936016" lon="10.980052374250244"><ele>398.00000000000006</ele><time>2026-04-15T10:31:03.001Z</time></trkpt><trkpt lat="45.5056253962469" lon="10.980033570182522"><ele>399.0</ele><time>2026-04-15T10:31:05.001Z</time></trkpt><trkpt lat="45.5057113436072" lon="10.979974199543573"><ele>400.0</ele><time>2026-04-15T10:31:07.001Z</time></trkpt><trkpt lat="45.50576013602614" lon="10.979904317491386"><ele>401.0</ele><time>2026-04-15T10:31:08.001Z</time></trkpt><trkpt lat="45.505778565237634" lon="10.979790171531423"><ele>402.00000000000006</ele><time>2026-04-15T10:31:10.002Z</time></trkpt><trkpt lat="45.505768599457745" lon="10.979663990718114"><ele>403.0</ele><time>2026-04-15T10:31:12.002Z</time></trkpt><trkpt lat="45.50576474162424" lon="10.979556802851127"><ele>404.83333333333337</ele><time>2026-04-15T10:31:15.002Z</time></trkpt><trkpt lat="45.50580876098983" lon="10.979479042772178"><ele>406.6666666666667</ele><time>2026-04-15T10:31:17.002Z</time></trkpt><trkpt lat="45.505807107616384" lon="10.979384753583217"><ele>408.5</ele><time>2026-04-15T10:31:19.002Z</time></trkpt><trkpt lat="45.505845123514355" lon="10.97928776450069"><ele>410.33333333333337</ele><time>2026-04-15T10:31:21.002Z</time></trkpt><trkpt lat="45.50589836120872" lon="10.979200638891303"><ele>412.1666666666667</ele><time>2026-04-15T10:31:23.002Z</time></trkpt><trkpt lat="45.50598767127865" lon="10.979137067408246"><ele>414.0</ele><time>2026-04-15T10:31:25.002Z</time></trkpt><trkpt lat="45.5060647408257" lon="10.97910529556143"><ele>414.0</ele><time>2026-04-15T10:31:27.002Z</time></trkpt><trkpt lat="45.50613873821482" lon="10.979014438698853"><ele>414.0</ele><time>2026-04-15T10:31:30.002Z</time></trkpt><trkpt lat="45.506201532615805" lon="10.978957034740162"><ele>414.0</ele><time>2026-04-15T10:31:32.002Z</time></trkpt><trkpt lat="45.50632376119217" lon="10.9788637829889"><ele>414.0</ele><time>2026-04-15T10:31:34.002Z</time></trkpt><trkpt lat="45.5063901986326" lon="10.978807407995992"><ele>414.0</ele><time>2026-04-15T10:31:36.002Z</time></trkpt><trkpt lat="45.50643322396653" lon="10.978738454495304"><ele>416.6</ele><time>2026-04-15T10:31:38.002Z</time></trkpt><trkpt lat="45.50652537143268" lon="10.978668964372272"><ele>419.2</ele><time>2026-04-15T10:31:40.002Z</time></trkpt><trkpt lat="45.506627802309666" lon="10.97859896539613"><ele>421.80000000000007</ele><time>2026-04-15T10:31:42.002Z</time></trkpt><trkpt lat="45.50671640786976" lon="10.978529747753425"><ele>424.40000000000003</ele><time>2026-04-15T10:31:44.002Z</time></trkpt><trkpt lat="45.50681557141802" lon="10.978534006201857"><ele>427.0</ele><time>2026-04-15T10:31:46.002Z</time></trkpt><trkpt lat="45.506883827450594" lon="10.978541130409564"><ele>427.00000000000006</ele><time>2026-04-15T10:31:47.002Z</time></trkpt><trkpt lat="45.50695416744532" lon="10.97854949145184"><ele>427.0</ele><time>2026-04-15T10:31:48.002Z</time></trkpt><trkpt lat="45.507063809772006" lon="10.978526253668218"><ele>427.0</ele><time>2026-04-15T10:31:50.002Z</time></trkpt><trkpt lat="45.50701727017396" lon="10.978435257490506"><ele>427.0</ele><time>2026-04-15T10:32:13Z</time></trkpt><trkpt lat="45.506973688304576" lon="10.978348588729197"><ele>427.00000000000006</ele><time>2026-04-15T10:32:17Z</time></trkpt><trkpt lat="45.50690382475293" lon="10.978257523863217"><ele>427.0</ele><time>2026-04-15T10:32:20Z</time></trkpt><trkpt lat="45.50684132071943" lon="10.978200507075456"><ele>425.00000000000006</ele><time>2026-04-15T10:32:22Z</time></trkpt><trkpt lat="45.50677615491003" lon="10.978203815630474"><ele>423.0</ele><time>2026-04-15T10:32:23Z</time></trkpt><trkpt lat="45.50666448992708" lon="10.978196435169608"><ele>421.0</ele><time>2026-04-15T10:32:25Z</time></trkpt><trkpt lat="45.50657109248253" lon="10.978174351893674"><ele>419.0</ele><time>2026-04-15T10:32:27Z</time></trkpt><trkpt lat="45.50648521393505" lon="10.978178580957389"><ele>417.00000000000006</ele><time>2026-04-15T10:32:29Z</time></trkpt><trkpt lat="45.506408406457666" lon="10.978200526997183"><ele>415.0</ele><time>2026-04-15T10:32:31Z</time></trkpt><trkpt lat="45.50632943207301" lon="10.978218747493324"><ele>413.00000000000006</ele><time>2026-04-15T10:32:34Z</time></trkpt><trkpt lat="45.50624341948057" lon="10.978215988735062"><ele>411.0</ele><time>2026-04-15T10:32:36Z</time></trkpt><trkpt lat="45.50616487770546" lon="10.978228558225613"><ele>409.0</ele><time>2026-04-15T10:32:38Z</time></trkpt><trkpt lat="45.50609863168088" lon="10.97824303931206"><ele>407.0</ele><time>2026-04-15T10:32:40Z</time></trkpt><trkpt lat="45.50602625671494" lon="10.978234430251314"><ele>405.00000000000006</ele><time>2026-04-15T10:32:42Z</time></trkpt><trkpt lat="45.50595670554601" lon="10.978232160309622"><ele>403.0</ele><time>2026-04-15T10:32:44.001Z</time></trkpt><trkpt lat="45.506021333095575" lon="10.97813799076837"><ele>403.00000000000006</ele><time>2026-04-15T10:32:48.001Z</time></trkpt><trkpt lat="45.50607707382783" lon="10.978095534905801"><ele>403.0</ele><time>2026-04-15T10:32:49.001Z</time></trkpt><trkpt lat="45.50613204795898" lon="10.978047928612726"><ele>403.0</ele><time>2026-04-15T10:32:50.001Z</time></trkpt><trkpt lat="45.5062378765673" lon="10.977991611810584"><ele>403.0</ele><time>2026-04-15T10:32:52.001Z</time></trkpt><trkpt lat="45.50630974460528" lon="10.977956020865992"><ele>403.00000000000006</ele><time>2026-04-15T10:32:53.001Z</time></trkpt><trkpt lat="45.50638453555968" lon="10.977927572608303"><ele>403.0</ele><time>2026-04-15T10:32:54.001Z</time></trkpt><trkpt lat="45.506455424960606" lon="10.977892626486769"><ele>405.4</ele><time>2026-04-15T10:32:55.001Z</time></trkpt><trkpt lat="45.506521566610196" lon="10.97787164341122"><ele>407.79999999999995</ele><time>2026-04-15T10:32:57.001Z</time></trkpt><trkpt lat="45.50661487832977" lon="10.97776843188683"><ele>410.2</ele><time>2026-04-15T10:33:29.001Z</time></trkpt><trkpt lat="45.506721828291575" lon="10.977711378784031"><ele>412.6</ele><time>2026-04-15T10:33:31.001Z</time></trkpt><trkpt lat="45.50679009687062" lon="10.977662681922231"><ele>415.0</ele><time>2026-04-15T10:33:32.002Z</time></trkpt><trkpt lat="45.50685160428287" lon="10.977591096962579"><ele>413.6666666666667</ele><time>2026-04-15T10:33:33.002Z</time></trkpt><trkpt lat="45.50690401031621" lon="10.977494253464425"><ele>412.33333333333337</ele><time>2026-04-15T10:33:35.002Z</time></trkpt><trkpt lat="45.50697339415958" lon="10.977384484105846"><ele>411.0</ele><time>2026-04-15T10:33:37.002Z</time></trkpt><trkpt lat="45.50701589133444" lon="10.977306318426509"><ele>409.66666666666663</ele><time>2026-04-15T10:33:38.002Z</time></trkpt><trkpt lat="45.50705822714232" lon="10.977227134370578"><ele>408.3333333333333</ele><time>2026-04-15T10:33:39.002Z</time></trkpt><trkpt lat="45.507111159154995" lon="10.977132040163767"><ele>407.0</ele><time>2026-04-15T10:33:41.002Z</time></trkpt><trkpt lat="45.50714127793762" lon="10.976999153219966"><ele>406.99999999999994</ele><time>2026-04-15T10:33:48.002Z</time></trkpt><trkpt lat="45.50713730194279" lon="10.97688703835339"><ele>407.0</ele><time>2026-04-15T10:33:50.002Z</time></trkpt><trkpt lat="45.507127721519645" lon="10.9767566917053"><ele>407.0</ele><time>2026-04-15T10:33:52.002Z</time></trkpt><trkpt lat="45.50711475477183" lon="10.976654348518695"><ele>407.0</ele><time>2026-04-15T10:33:53.002Z</time></trkpt><trkpt lat="45.50713045814403" lon="10.976541794969306"><ele>406.99999999999994</ele><time>2026-04-15T10:33:55.002Z</time></trkpt><trkpt lat="45.507204765152586" lon="10.976499993187096"><ele>407.0</ele><time>2026-04-15T10:33:57.002Z</time></trkpt><trkpt lat="45.50733508066793" lon="10.97643379086436"><ele>408.8</ele><time>2026-04-15T10:33:59.002Z</time></trkpt><trkpt lat="45.50741440415763" lon="10.9763494651379"><ele>410.6</ele><time>2026-04-15T10:34:01.002Z</time></trkpt><trkpt lat="45.507522695360855" lon="10.976285416312894"><ele>412.40000000000003</ele><time>2026-04-15T10:34:04Z</time></trkpt><trkpt lat="45.50760813603498" lon="10.97626205666531"><ele>414.20000000000005</ele><time>2026-04-15T10:34:06Z</time></trkpt><trkpt lat="45.5077082577858" lon="10.976197826695063"><ele>416.0</ele><time>2026-04-15T10:34:08Z</time></trkpt><trkpt lat="45.50779773715164" lon="10.976152943948822"><ele>415.99999999999994</ele><time>2026-04-15T10:34:10Z</time></trkpt><trkpt lat="45.50786570301415" lon="10.976095646937408"><ele>416.0</ele><time>2026-04-15T10:34:12Z</time></trkpt><trkpt lat="45.50795692294016" lon="10.976080688944094"><ele>416.0</ele><time>2026-04-15T10:34:14Z</time></trkpt><trkpt lat="45.50802487546961" lon="10.976067233948434"><ele>416.0</ele><time>2026-04-15T10:34:15Z</time></trkpt><trkpt lat="45.508086562812544" lon="10.976044535853744"><ele>415.99999999999994</ele><time>2026-04-15T10:34:16Z</time></trkpt><trkpt lat="45.50815725173911" lon="10.976038732504966"><ele>416.0</ele><time>2026-04-15T10:34:17Z</time></trkpt><trkpt lat="45.50825406467178" lon="10.976018863764532"><ele>418.8</ele><time>2026-04-15T10:34:18Z</time></trkpt><trkpt lat="45.508355545163106" lon="10.975993826647434"><ele>421.6</ele><time>2026-04-15T10:34:19Z</time></trkpt><trkpt lat="45.50847010067505" lon="10.975965640320949"><ele>424.4</ele><time>2026-04-15T10:34:20Z</time></trkpt><trkpt lat="45.50857703032869" lon="10.975945472497465"><ele>427.2</ele><time>2026-04-15T10:34:21Z</time></trkpt><trkpt lat="45.50869093150167" lon="10.975920667652222"><ele>430.0</ele><time>2026-04-15T10:34:22Z</time></trkpt><trkpt lat="45.50880138050235" lon="10.975892141740303"><ele>431.6</ele><time>2026-04-15T10:34:23Z</time></trkpt><trkpt lat="45.508911584277534" lon="10.975867285256825"><ele>433.2</ele><time>2026-04-15T10:34:24Z</time></trkpt><trkpt lat="45.50902074529663" lon="10.975848881479745"><ele>434.79999999999995</ele><time>2026-04-15T10:34:25Z</time></trkpt><trkpt lat="45.509131111558155" lon="10.975842088970357"><ele>436.4</ele><time>2026-04-15T10:34:26Z</time></trkpt><trkpt lat="45.50924018797915" lon="10.975836413784185"><ele>438.0</ele><time>2026-04-15T10:34:27Z</time></trkpt><trkpt lat="45.509359180754224" lon="10.975842738141276"><ele>438.25</ele><time>2026-04-15T10:34:28Z</time></trkpt><trkpt lat="45.50948593483301" lon="10.975868773148312"><ele>438.5</ele><time>2026-04-15T10:34:29Z</time></trkpt><trkpt lat="45.509624435539884" lon="10.97591654528505"><ele>438.75</ele><time>2026-04-15T10:34:30Z</time></trkpt><trkpt lat="45.50975782576263" lon="10.975960154312094"><ele>439.0</ele><time>2026-04-15T10:34:31Z</time></trkpt><trkpt lat="45.50989377851982" lon="10.976005759578221"><ele>440.75</ele><time>2026-04-15T10:34:32Z</time></trkpt><trkpt lat="45.510016535686674" lon="10.976051776421606"><ele>442.5</ele><time>2026-04-15T10:34:33Z</time></trkpt><trkpt lat="45.510121999417834" lon="10.976089488876292"><ele>444.25</ele><time>2026-04-15T10:34:34Z</time></trkpt><trkpt lat="45.51022911841335" lon="10.976098523403659"><ele>446.0</ele><time>2026-04-15T10:34:35Z</time></trkpt><trkpt lat="45.510345613711245" lon="10.976085278695157"><ele>447.6</ele><time>2026-04-15T10:34:36Z</time></trkpt><trkpt lat="45.51046766232981" lon="10.976051351981429"><ele>449.20000000000005</ele><time>2026-04-15T10:34:37Z</time></trkpt><trkpt lat="45.510585176100506" lon="10.97601166350107"><ele>450.79999999999995</ele><time>2026-04-15T10:34:38Z</time></trkpt><trkpt lat="45.51067723877754" lon="10.975991505827448"><ele>452.4</ele><time>2026-04-15T10:34:39Z</time></trkpt><trkpt lat="45.51075779242838" lon="10.975986817947474"><ele>454.0</ele><time>2026-04-15T10:34:40Z</time></trkpt><trkpt lat="45.5108249940661" lon="10.975974862429464"><ele>454.0</ele><time>2026-04-15T10:34:41Z</time></trkpt><trkpt lat="45.510895900532404" lon="10.975937901991042"><ele>454.0</ele><time>2026-04-15T10:34:42Z</time></trkpt><trkpt lat="45.51095871387884" lon="10.975892769500538"><ele>454.0</ele><time>2026-04-15T10:34:44Z</time></trkpt><trkpt lat="45.51102381957975" lon="10.975972770610205"><ele>454.0</ele><time>2026-04-15T10:34:47Z</time></trkpt><trkpt lat="45.51110371115027" lon="10.976097410913187"><ele>454.0</ele><time>2026-04-15T10:34:49.001Z</time></trkpt><trkpt lat="45.51119227612346" lon="10.976188797617617"><ele>454.4</ele><time>2026-04-15T10:34:51.001Z</time></trkpt><trkpt lat="45.51129264463384" lon="10.976258778706748"><ele>454.79999999999995</ele><time>2026-04-15T10:34:53.001Z</time></trkpt><trkpt lat="45.51140034553509" lon="10.976270194603332"><ele>455.20000000000005</ele><time>2026-04-15T10:34:55.001Z</time></trkpt><trkpt lat="45.51150908292633" lon="10.97628296184606"><ele>455.6</ele><time>2026-04-15T10:34:57.001Z</time></trkpt><trkpt lat="45.511591389612846" lon="10.976299136453084"><ele>456.0</ele><time>2026-04-15T10:34:58.001Z</time></trkpt><trkpt lat="45.51168163246541" lon="10.976307887578997"><ele>456.0</ele><time>2026-04-15T10:34:59.001Z</time></trkpt><trkpt lat="45.51177764677728" lon="10.976303952031785"><ele>456.0</ele><time>2026-04-15T10:35:00.001Z</time></trkpt><trkpt lat="45.511859986592626" lon="10.976303634205598"><ele>456.0</ele><time>2026-04-15T10:35:01.001Z</time></trkpt><trkpt lat="45.512004978639375" lon="10.976305531922824"><ele>456.0</ele><time>2026-04-15T10:35:03.001Z</time></trkpt><trkpt lat="45.512087743337545" lon="10.976317720988725"><ele>456.0</ele><time>2026-04-15T10:35:04.001Z</time></trkpt><trkpt lat="45.51216971300619" lon="10.976338106458526"><ele>455.5</ele><time>2026-04-15T10:35:05.001Z</time></trkpt><trkpt lat="45.51225016187974" lon="10.97634949850617"><ele>455.0</ele><time>2026-04-15T10:35:06.001Z</time></trkpt><trkpt lat="45.51234183472325" lon="10.976366048564657"><ele>454.5</ele><time>2026-04-15T10:35:07.001Z</time></trkpt><trkpt lat="45.51242636464393" lon="10.976387433849059"><ele>454.0</ele><time>2026-04-15T10:35:08.001Z</time></trkpt><trkpt lat="45.5124987118347" lon="10.976396993919519"><ele>453.5</ele><time>2026-04-15T10:35:09.001Z</time></trkpt><trkpt lat="45.51257171612044" lon="10.976437644126186"><ele>453.0</ele><time>2026-04-15T10:35:10.001Z</time></trkpt><trkpt lat="45.512629291508375" lon="10.976496306360188"><ele>453.0</ele><time>2026-04-15T10:35:11.001Z</time></trkpt><trkpt lat="45.51268844737418" lon="10.976542587639477"><ele>453.0</ele><time>2026-04-15T10:35:12.001Z</time></trkpt><trkpt lat="45.512776898653016" lon="10.976600335098277"><ele>453.0</ele><time>2026-04-15T10:35:13.001Z</time></trkpt><trkpt lat="45.51286835195353" lon="10.976669877799083"><ele>453.0</ele><time>2026-04-15T10:35:15.001Z</time></trkpt><trkpt lat="45.51293512296496" lon="10.976726630150594"><ele>453.0</ele><time>2026-04-15T10:35:16.001Z</time></trkpt><trkpt lat="45.51302563304961" lon="10.976785931183263"><ele>453.0</ele><time>2026-04-15T10:35:17.001Z</time></trkpt><trkpt lat="45.51309018302664" lon="10.976843915250225"><ele>452.1666666666667</ele><time>2026-04-15T10:35:18.001Z</time></trkpt><trkpt lat="45.513152738426975" lon="10.976888838260603"><ele>451.33333333333337</ele><time>2026-04-15T10:35:19.001Z</time></trkpt><trkpt lat="45.51322702699335" lon="10.976934961014743"><ele>450.5</ele><time>2026-04-15T10:35:20.001Z</time></trkpt><trkpt lat="45.51329684401267" lon="10.976981356529794"><ele>449.6666666666667</ele><time>2026-04-15T10:35:21.001Z</time></trkpt><trkpt lat="45.51338307020292" lon="10.977026780410116"><ele>448.83333333333337</ele><time>2026-04-15T10:35:23.001Z</time></trkpt><trkpt lat="45.513464931315866" lon="10.977051177226521"><ele>448.0</ele><time>2026-04-15T10:35:24.001Z</time></trkpt><trkpt lat="45.513588279568225" lon="10.97712748291186"><ele>448.0</ele><time>2026-04-15T10:35:26.001Z</time></trkpt><trkpt lat="45.51366711315611" lon="10.977172401507762"><ele>447.99999999999994</ele><time>2026-04-15T10:35:27.001Z</time></trkpt><trkpt lat="45.513729912134785" lon="10.977220074970145"><ele>447.99999999999994</ele><time>2026-04-15T10:35:28.001Z</time></trkpt><trkpt lat="45.51384370232941" lon="10.977305016184083"><ele>448.0</ele><time>2026-04-15T10:35:30.001Z</time></trkpt><trkpt lat="45.51392442902833" lon="10.977364064967311"><ele>448.0</ele><time>2026-04-15T10:35:31.001Z</time></trkpt><trkpt lat="45.51399919977089" lon="10.977403060676846"><ele>449.83333333333337</ele><time>2026-04-15T10:35:32.001Z</time></trkpt><trkpt lat="45.51405666877837" lon="10.977444085322492"><ele>451.6666666666667</ele><time>2026-04-15T10:35:33.001Z</time></trkpt><trkpt lat="45.51412687920845" lon="10.97750705275711"><ele>453.5</ele><time>2026-04-15T10:35:34.002Z</time></trkpt><trkpt lat="45.514222264476956" lon="10.977570115403346"><ele>455.33333333333337</ele><time>2026-04-15T10:35:35.002Z</time></trkpt><trkpt lat="45.514276797790835" lon="10.977629237265273"><ele>457.1666666666667</ele><time>2026-04-15T10:35:36.002Z</time></trkpt><trkpt lat="45.51434379682114" lon="10.977688105970485"><ele>459.0</ele><time>2026-04-15T10:35:37.002Z</time></trkpt><trkpt lat="45.51440976631251" lon="10.977756422275963"><ele>459.0</ele><time>2026-04-15T10:35:38.002Z</time></trkpt><trkpt lat="45.5144491001559" lon="10.97782824441146"><ele>459.0</ele><time>2026-04-15T10:35:39.002Z</time></trkpt><trkpt lat="45.51451061296364" lon="10.977905848982978"><ele>459.0</ele><time>2026-04-15T10:35:41.002Z</time></trkpt><trkpt lat="45.51452778142441" lon="10.978036998082487"><ele>459.0</ele><time>2026-04-15T10:35:43.002Z</time></trkpt><trkpt lat="45.51449329484818" lon="10.978208786073457"><ele>459.0</ele><time>2026-04-15T10:35:45.002Z</time></trkpt><trkpt lat="45.51444645329052" lon="10.978291685527077"><ele>459.0</ele><time>2026-04-15T10:35:46.002Z</time></trkpt><trkpt lat="45.51440305588873" lon="10.978391706591253"><ele>459.5</ele><time>2026-04-15T10:35:47.002Z</time></trkpt><trkpt lat="45.514337627232166" lon="10.978504562086504"><ele>460.0</ele><time>2026-04-15T10:35:49.002Z</time></trkpt><trkpt lat="45.51428877480924" lon="10.978623729247959"><ele>460.5</ele><time>2026-04-15T10:35:51.002Z</time></trkpt><trkpt lat="45.51424426879874" lon="10.978738306722162"><ele>461.0</ele><time>2026-04-15T10:35:53.002Z</time></trkpt><trkpt lat="45.51420205052567" lon="10.978832499656026"><ele>461.5</ele><time>2026-04-15T10:35:55.002Z</time></trkpt><trkpt lat="45.51426854394316" lon="10.978883797695485"><ele>462.0</ele><time>2026-04-15T10:36:06.002Z</time></trkpt><trkpt lat="45.51436709025087" lon="10.978885660027768"><ele>462.0</ele><time>2026-04-15T10:36:08.002Z</time></trkpt><trkpt lat="45.51443408966949" lon="10.978905042614816"><ele>462.00000000000006</ele><time>2026-04-15T10:36:09.999Z</time></trkpt><trkpt lat="45.5144901776182" lon="10.978863016567106"><ele>462.00000000000006</ele><time>2026-04-15T10:36:24Z</time></trkpt><trkpt lat="45.51456912716914" lon="10.97873857654359"><ele>462.0</ele><time>2026-04-15T10:36:26Z</time></trkpt><trkpt lat="45.51464428530408" lon="10.978650785133887"><ele>462.0</ele><time>2026-04-15T10:36:28Z</time></trkpt><trkpt lat="45.51470227816289" lon="10.978523224363444"><ele>464.5</ele><time>2026-04-15T10:36:30Z</time></trkpt><trkpt lat="45.514767486463136" lon="10.97844096747257"><ele>467.0</ele><time>2026-04-15T10:36:32Z</time></trkpt><trkpt lat="45.514818303970046" lon="10.978386993999706"><ele>469.5</ele><time>2026-04-15T10:36:33Z</time></trkpt><trkpt lat="45.51487493501354" lon="10.978292543280867"><ele>472.0</ele><time>2026-04-15T10:36:35Z</time></trkpt><trkpt lat="45.514918284876" lon="10.978218893185206"><ele>474.5</ele><time>2026-04-15T10:36:43Z</time></trkpt><trkpt lat="45.51495098380456" lon="10.97812861866855"><ele>477.0</ele><time>2026-04-15T10:36:55.001Z</time></trkpt><trkpt lat="45.51498415234042" lon="10.978243808414863"><ele>477.0</ele><time>2026-04-15T10:37:00.001Z</time></trkpt><trkpt lat="45.51500679500578" lon="10.978384051029389"><ele>477.00000000000006</ele><time>2026-04-15T10:37:03.001Z</time></trkpt><trkpt lat="45.5150428837299" lon="10.978502070772475"><ele>477.00000000000006</ele><time>2026-04-15T10:37:05.001Z</time></trkpt><trkpt lat="45.515055372725506" lon="10.97862088501681"><ele>477.0</ele><time>2026-04-15T10:37:07.001Z</time></trkpt><trkpt lat="45.51510192725648" lon="10.978771574461824"><ele>477.0</ele><time>2026-04-15T10:37:09.001Z</time></trkpt><trkpt lat="45.51512608890014" lon="10.978860291839329"><ele>477.0</ele><time>2026-04-15T10:37:10.001Z</time></trkpt><trkpt lat="45.515156581335255" lon="10.97900431722101"><ele>477.00000000000006</ele><time>2026-04-15T10:37:12.001Z</time></trkpt><trkpt lat="45.51518804129242" lon="10.97910129750782"><ele>477.00000000000006</ele><time>2026-04-15T10:37:13.001Z</time></trkpt><trkpt lat="45.51520328930159" lon="10.979249179280957"><ele>477.0</ele><time>2026-04-15T10:37:15.001Z</time></trkpt><trkpt lat="45.51524064993995" lon="10.979431374762774"><ele>477.0</ele><time>2026-04-15T10:37:17.001Z</time></trkpt><trkpt lat="45.515294350190594" lon="10.979543422867804"><ele>477.40000000000003</ele><time>2026-04-15T10:37:25.001Z</time></trkpt><trkpt lat="45.51535121954636" lon="10.97962532353391"><ele>477.80000000000007</ele><time>2026-04-15T10:37:27.001Z</time></trkpt><trkpt lat="45.515427864728515" lon="10.979687457260358"><ele>478.2</ele><time>2026-04-15T10:37:29.001Z</time></trkpt><trkpt lat="45.51548836545372" lon="10.979734644519988"><ele>478.6</ele><time>2026-04-15T10:37:30.001Z</time></trkpt><trkpt lat="45.5156102182792" lon="10.979776432839646"><ele>479.0</ele><time>2026-04-15T10:37:32.002Z</time></trkpt><trkpt lat="45.515712065716535" lon="10.979821267103553"><ele>479.0</ele><time>2026-04-15T10:37:34.002Z</time></trkpt><trkpt lat="45.51582163839028" lon="10.9798565291041"><ele>479.0</ele><time>2026-04-15T10:37:36.002Z</time></trkpt><trkpt lat="45.515901705292755" lon="10.979876684571996"><ele>479.0</ele><time>2026-04-15T10:37:37.002Z</time></trkpt><trkpt lat="45.515978003198896" lon="10.979893998073274"><ele>479.0</ele><time>2026-04-15T10:37:38.002Z</time></trkpt><trkpt lat="45.516121391829216" lon="10.97993341014348"><ele>479.0</ele><time>2026-04-15T10:37:40.002Z</time></trkpt><trkpt lat="45.51619186911554" lon="10.979956063108895"><ele>480.49999999999994</ele><time>2026-04-15T10:37:41.002Z</time></trkpt><trkpt lat="45.516267390826854" lon="10.979988012408734"><ele>482.0</ele><time>2026-04-15T10:37:42.002Z</time></trkpt><trkpt lat="45.51634660826384" lon="10.980001955541518"><ele>483.5</ele><time>2026-04-15T10:37:43.002Z</time></trkpt><trkpt lat="45.51642739973981" lon="10.979997715751875"><ele>485.0</ele><time>2026-04-15T10:37:44.002Z</time></trkpt><trkpt lat="45.51649211490696" lon="10.980044431772308"><ele>486.49999999999994</ele><time>2026-04-15T10:37:45.002Z</time></trkpt><trkpt lat="45.51655340837009" lon="10.980119256889774"><ele>488.0</ele><time>2026-04-15T10:37:46.002Z</time></trkpt><trkpt lat="45.516618490616416" lon="10.980166247832319"><ele>485.8333333333333</ele><time>2026-04-15T10:37:47.002Z</time></trkpt><trkpt lat="45.51667868836368" lon="10.980250092556972"><ele>483.66666666666663</ele><time>2026-04-15T10:37:49.002Z</time></trkpt><trkpt lat="45.51674656070381" lon="10.980302195171912"><ele>481.5</ele><time>2026-04-15T10:37:50.002Z</time></trkpt><trkpt lat="45.51680963271199" lon="10.980361538850028"><ele>479.33333333333337</ele><time>2026-04-15T10:37:51.002Z</time></trkpt><trkpt lat="45.51688015167842" lon="10.980410518010874"><ele>477.1666666666667</ele><time>2026-04-15T10:37:52.002Z</time></trkpt><trkpt lat="45.5169349281258" lon="10.98045718906094"><ele>475.0</ele><time>2026-04-15T10:37:53.002Z</time></trkpt><trkpt lat="45.51707305134084" lon="10.980541241628186"><ele>475.00000000000006</ele><time>2026-04-15T10:37:55.002Z</time></trkpt><trkpt lat="45.51713634651822" lon="10.980568668023274"><ele>475.0</ele><time>2026-04-15T10:37:56.002Z</time></trkpt><trkpt lat="45.517219325449055" lon="10.980594448028453"><ele>475.0</ele><time>2026-04-15T10:37:57.002Z</time></trkpt><trkpt lat="45.51730084390717" lon="10.980621527197771"><ele>475.0</ele><time>2026-04-15T10:37:58.002Z</time></trkpt><trkpt lat="45.5173711014941" lon="10.980647846318153"><ele>475.00000000000006</ele><time>2026-04-15T10:37:59.002Z</time></trkpt><trkpt lat="45.517449770796055" lon="10.980652950333052"><ele>475.0</ele><time>2026-04-15T10:38:00.002Z</time></trkpt><trkpt lat="45.51752088373791" lon="10.980641045993211"><ele>475.00000000000006</ele><time>2026-04-15T10:38:01.002Z</time></trkpt><trkpt lat="45.517587724666335" lon="10.980622083195515"><ele>475.0</ele><time>2026-04-15T10:38:02.002Z</time></trkpt><trkpt lat="45.51769458948186" lon="10.980639706840815"><ele>475.0</ele><time>2026-04-15T10:38:04.002Z</time></trkpt><trkpt lat="45.51775763584539" lon="10.980628858153638"><ele>475.0</ele><time>2026-04-15T10:38:05.002Z</time></trkpt><trkpt lat="45.51785133356876" lon="10.980555074343068"><ele>475.00000000000006</ele><time>2026-04-15T10:38:06.002Z</time></trkpt><trkpt lat="45.51792652976094" lon="10.980522579244438"><ele>475.0</ele><time>2026-04-15T10:38:07.002Z</time></trkpt><trkpt lat="45.51797797109449" lon="10.980466039952612"><ele>473.2</ele><time>2026-04-15T10:38:09.002Z</time></trkpt><trkpt lat="45.518087175190125" lon="10.980462587537959"><ele>471.4</ele><time>2026-04-15T10:38:11.002Z</time></trkpt><trkpt lat="45.518168877818795" lon="10.980409107808741"><ele>469.6</ele><time>2026-04-15T10:38:12.002Z</time></trkpt><trkpt lat="45.518249510713545" lon="10.980373350851773"><ele>467.8</ele><time>2026-04-15T10:38:13.002Z</time></trkpt><trkpt lat="45.518332530437526" lon="10.98027143017342"><ele>466.0</ele><time>2026-04-15T10:38:15Z</time></trkpt><trkpt lat="45.51842278096801" lon="10.980261062170594"><ele>466.0</ele><time>2026-04-15T10:38:17Z</time></trkpt><trkpt lat="45.51854019166035" lon="10.980125867391733"><ele>466.0</ele><time>2026-04-15T10:38:19Z</time></trkpt><trkpt lat="45.5185918710098" lon="10.98005771292101"><ele>466.0</ele><time>2026-04-15T10:38:21Z</time></trkpt><trkpt lat="45.51868549415387" lon="10.98000341443938"><ele>466.0</ele><time>2026-04-15T10:38:23Z</time></trkpt><trkpt lat="45.51875219783242" lon="10.979943130547822"><ele>466.0</ele><time>2026-04-15T10:38:25Z</time></trkpt><trkpt lat="45.51883478744595" lon="10.979911023956802"><ele>466.50000000000006</ele><time>2026-04-15T10:38:27Z</time></trkpt><trkpt lat="45.51891505214426" lon="10.979856622041245"><ele>467.0</ele><time>2026-04-15T10:38:29Z</time></trkpt><trkpt lat="45.51900022779926" lon="10.979798877399418"><ele>467.5</ele><time>2026-04-15T10:38:31Z</time></trkpt><trkpt lat="45.51904945944252" lon="10.979710526878822"><ele>468.0</ele><time>2026-04-15T10:38:33Z</time></trkpt><trkpt lat="45.519127336436654" lon="10.97964274214906"><ele>468.50000000000006</ele><time>2026-04-15T10:38:35Z</time></trkpt><trkpt lat="45.519178552530676" lon="10.979577549622745"><ele>469.0</ele><time>2026-04-15T10:38:36Z</time></trkpt><trkpt lat="45.51922597926021" lon="10.979499205732038"><ele>469.0</ele><time>2026-04-15T10:38:38Z</time></trkpt><trkpt lat="45.519310439856426" lon="10.97937152804995"><ele>469.0</ele><time>2026-04-15T10:38:40Z</time></trkpt><trkpt lat="45.51932888563665" lon="10.979281822835812"><ele>469.0</ele><time>2026-04-15T10:38:42Z</time></trkpt><trkpt lat="45.51933964847245" lon="10.979165153106258"><ele>469.0</ele><time>2026-04-15T10:38:44Z</time></trkpt><trkpt lat="45.51942964151324" lon="10.97907322936826"><ele>469.0</ele><time>2026-04-15T10:38:47.001Z</time></trkpt><trkpt lat="45.519486963861475" lon="10.979015589886187"><ele>470.83333333333337</ele><time>2026-04-15T10:38:48.001Z</time></trkpt><trkpt lat="45.51954627245195" lon="10.97896463182695"><ele>472.6666666666667</ele><time>2026-04-15T10:38:49.001Z</time></trkpt><trkpt lat="45.51961860599762" lon="10.978920547774102"><ele>474.5</ele><time>2026-04-15T10:38:50.001Z</time></trkpt><trkpt lat="45.51968485685203" lon="10.978901167210838"><ele>476.33333333333337</ele><time>2026-04-15T10:38:52.001Z</time></trkpt><trkpt lat="45.5197521434827" lon="10.978859265215876"><ele>478.1666666666667</ele><time>2026-04-15T10:38:53.001Z</time></trkpt><trkpt lat="45.51983424450276" lon="10.978860161145732"><ele>480.0</ele><time>2026-04-15T10:38:55.001Z</time></trkpt><trkpt lat="45.51994656866641" lon="10.978865505491203"><ele>480.0</ele><time>2026-04-15T10:38:57.001Z</time></trkpt><trkpt lat="45.5200534886094" lon="10.978819817632834"><ele>480.0</ele><time>2026-04-15T10:38:59.001Z</time></trkpt><trkpt lat="45.52016132380315" lon="10.978772454167935"><ele>480.0</ele><time>2026-04-15T10:39:02.001Z</time></trkpt><trkpt lat="45.52021998033487" lon="10.978737870341572"><ele>480.0</ele><time>2026-04-15T10:39:03.001Z</time></trkpt><trkpt lat="45.520341785097074" lon="10.97870107174241"><ele>480.0</ele><time>2026-04-15T10:39:05.001Z</time></trkpt><trkpt lat="45.52045675340039" lon="10.978634376771852"><ele>481.6</ele><time>2026-04-15T10:39:07.001Z</time></trkpt><trkpt lat="45.52055173377552" lon="10.978561275464942"><ele>483.2</ele><time>2026-04-15T10:39:09.001Z</time></trkpt><trkpt lat="45.520622974876346" lon="10.97847428625532"><ele>484.79999999999995</ele><time>2026-04-15T10:39:11.001Z</time></trkpt><trkpt lat="45.52066743775811" lon="10.97838856404063"><ele>486.4</ele><time>2026-04-15T10:39:13.001Z</time></trkpt><trkpt lat="45.52071393686256" lon="10.978275982767132"><ele>488.0</ele><time>2026-04-15T10:39:15.001Z</time></trkpt><trkpt lat="45.520728661295706" lon="10.978127000634446"><ele>488.0</ele><time>2026-04-15T10:39:17.001Z</time></trkpt><trkpt lat="45.52072203455221" lon="10.978035634867636"><ele>487.99999999999994</ele><time>2026-04-15T10:39:18.001Z</time></trkpt><trkpt lat="45.52073542466009" lon="10.977885701778796"><ele>487.99999999999994</ele><time>2026-04-15T10:39:20.001Z</time></trkpt><trkpt lat="45.520696088550224" lon="10.977737424724582"><ele>488.0</ele><time>2026-04-15T10:39:22.001Z</time></trkpt><trkpt lat="45.52065280333264" lon="10.977602888068944"><ele>488.0</ele><time>2026-04-15T10:39:24.001Z</time></trkpt><trkpt lat="45.52064958426633" lon="10.977485024502004"><ele>488.16666666666663</ele><time>2026-04-15T10:39:25.001Z</time></trkpt><trkpt lat="45.52065454247205" lon="10.977380926092039"><ele>488.3333333333333</ele><time>2026-04-15T10:39:26.001Z</time></trkpt><trkpt lat="45.520629311933334" lon="10.97726707706524"><ele>488.5</ele><time>2026-04-15T10:39:27.001Z</time></trkpt><trkpt lat="45.520623646227655" lon="10.977158158370962"><ele>488.66666666666663</ele><time>2026-04-15T10:39:28.001Z</time></trkpt><trkpt lat="45.520605687782364" lon="10.977070544838227"><ele>488.8333333333333</ele><time>2026-04-15T10:39:29.001Z</time></trkpt><trkpt lat="45.520563259846426" lon="10.976917484776049"><ele>489.0</ele><time>2026-04-15T10:39:31.002Z</time></trkpt><trkpt lat="45.52054304382766" lon="10.976747269755387"><ele>489.6</ele><time>2026-04-15T10:39:33.002Z</time></trkpt><trkpt lat="45.520517976387424" lon="10.976633514309407"><ele>490.2</ele><time>2026-04-15T10:39:34.002Z</time></trkpt><trkpt lat="45.52051153792965" lon="10.976515669835452"><ele>490.80000000000007</ele><time>2026-04-15T10:39:35.002Z</time></trkpt><trkpt lat="45.520491929103684" lon="10.97641665805043"><ele>491.40000000000003</ele><time>2026-04-15T10:39:36.002Z</time></trkpt><trkpt lat="45.520465161564815" lon="10.976252729129575"><ele>492.0</ele><time>2026-04-15T10:39:38.002Z</time></trkpt><trkpt lat="45.5204229836555" lon="10.976102515143959"><ele>492.0</ele><time>2026-04-15T10:39:40.002Z</time></trkpt><trkpt lat="45.520400713219395" lon="10.976011159384297"><ele>492.0</ele><time>2026-04-15T10:39:41.002Z</time></trkpt><trkpt lat="45.52036929936424" lon="10.975871626222963"><ele>492.0</ele><time>2026-04-15T10:39:43.002Z</time></trkpt><trkpt lat="45.52036830288081" lon="10.975735929629211"><ele>492.0</ele><time>2026-04-15T10:39:45.002Z</time></trkpt><trkpt lat="45.52035872752347" lon="10.975635114001332"><ele>492.0</ele><time>2026-04-15T10:39:46.002Z</time></trkpt><trkpt lat="45.52036619599461" lon="10.975533236647026"><ele>492.0</ele><time>2026-04-15T10:39:47.002Z</time></trkpt><trkpt lat="45.520362574979195" lon="10.975433136112931"><ele>494.3333333333333</ele><time>2026-04-15T10:39:48.002Z</time></trkpt><trkpt lat="45.520369505159096" lon="10.975297259265218"><ele>496.66666666666663</ele><time>2026-04-15T10:39:50.002Z</time></trkpt><trkpt lat="45.520378506946706" lon="10.975194677559022"><ele>499.0</ele><time>2026-04-15T10:39:54.002Z</time></trkpt><trkpt lat="45.520387105554526" lon="10.97509595983254"><ele>501.3333333333333</ele><time>2026-04-15T10:39:56.002Z</time></trkpt><trkpt lat="45.52037863332048" lon="10.97496485080211"><ele>503.66666666666663</ele><time>2026-04-15T10:40:15.003Z</time></trkpt><trkpt lat="45.52040530559055" lon="10.974875552667031"><ele>506.0</ele><time>2026-04-15T10:40:17.003Z</time></trkpt><trkpt lat="45.520481150482794" lon="10.97477743576851"><ele>506.49999999999994</ele><time>2026-04-15T10:40:20.003Z</time></trkpt><trkpt lat="45.520555454931234" lon="10.97473341914613"><ele>507.0</ele><time>2026-04-15T10:40:22Z</time></trkpt><trkpt lat="45.52063466885456" lon="10.974810945069091"><ele>507.5</ele><time>2026-04-15T10:40:24Z</time></trkpt><trkpt lat="45.520697854397156" lon="10.974876982273047"><ele>508.0</ele><time>2026-04-15T10:40:26Z</time></trkpt><trkpt lat="45.52076473056865" lon="10.974866705115986"><ele>508.49999999999994</ele><time>2026-04-15T10:40:29Z</time></trkpt><trkpt lat="45.520818575295934" lon="10.974805907417883"><ele>509.0</ele><time>2026-04-15T10:40:31Z</time></trkpt><trkpt lat="45.52090638178177" lon="10.974800550989096"><ele>509.0</ele><time>2026-04-15T10:40:35Z</time></trkpt><trkpt lat="45.52096407794648" lon="10.974838057560179"><ele>509.0</ele><time>2026-04-15T10:40:37Z</time></trkpt><trkpt lat="45.52104272878494" lon="10.97491268104911"><ele>509.0</ele><time>2026-04-15T10:40:39Z</time></trkpt><trkpt lat="45.52113008780549" lon="10.974962027482569"><ele>509.0</ele><time>2026-04-15T10:40:42Z</time></trkpt><trkpt lat="45.52121798086643" lon="10.975005298482193"><ele>509.0</ele><time>2026-04-15T10:40:45Z</time></trkpt><trkpt lat="45.52132962660758" lon="10.9750993859584"><ele>509.2</ele><time>2026-04-15T10:40:47Z</time></trkpt><trkpt lat="45.52143773816268" lon="10.975141613974309"><ele>509.4</ele><time>2026-04-15T10:40:49.001Z</time></trkpt><trkpt lat="45.52153366274639" lon="10.975228843497204"><ele>509.6</ele><time>2026-04-15T10:40:51.001Z</time></trkpt><trkpt lat="45.52162918110394" lon="10.975199401994645"><ele>509.8</ele><time>2026-04-15T10:40:54.001Z</time></trkpt><trkpt lat="45.521715270326844" lon="10.975177733478876"><ele>510.0</ele><time>2026-04-15T10:40:56.001Z</time></trkpt><trkpt lat="45.5217879431308" lon="10.975229648927387"><ele>510.0</ele><time>2026-04-15T10:40:58.001Z</time></trkpt><trkpt lat="45.5218537760432" lon="10.975200873941729"><ele>510.0</ele><time>2026-04-15T10:41:00.001Z</time></trkpt><trkpt lat="45.52190403815921" lon="10.97511194763678"><ele>510.0</ele><time>2026-04-15T10:41:02.001Z</time></trkpt><trkpt lat="45.52192742170876" lon="10.974961944442288"><ele>510.0</ele><time>2026-04-15T10:41:05.001Z</time></trkpt><trkpt lat="45.52198061909247" lon="10.974847588152153"><ele>510.0</ele><time>2026-04-15T10:41:07.001Z</time></trkpt><trkpt lat="45.522067364121604" lon="10.974774128855588"><ele>514.8</ele><time>2026-04-15T10:41:09.001Z</time></trkpt><trkpt lat="45.522159290369004" lon="10.974700652081868"><ele>519.6</ele><time>2026-04-15T10:41:11.001Z</time></trkpt><trkpt lat="45.52226363990262" lon="10.9747280463762"><ele>524.4</ele><time>2026-04-15T10:41:13.001Z</time></trkpt><trkpt lat="45.5223762354371" lon="10.974720134548878"><ele>529.2</ele><time>2026-04-15T10:41:15.001Z</time></trkpt><trkpt lat="45.52243591472307" lon="10.97467946663394"><ele>534.0</ele><time>2026-04-15T10:41:16.001Z</time></trkpt><trkpt lat="45.52248559705609" lon="10.974623233539331"><ele>534.0</ele><time>2026-04-15T10:41:17.001Z</time></trkpt><trkpt lat="45.52250935704663" lon="10.974511926405153"><ele>534.0</ele><time>2026-04-15T10:41:19.001Z</time></trkpt><trkpt lat="45.52254039430106" lon="10.97438160805345"><ele>534.0</ele><time>2026-04-15T10:41:21.001Z</time></trkpt><trkpt lat="45.52261499210709" lon="10.97428789551837"><ele>534.0</ele><time>2026-04-15T10:41:23.001Z</time></trkpt><trkpt lat="45.52271066059944" lon="10.974238840058561"><ele>534.0</ele><time>2026-04-15T10:41:25.001Z</time></trkpt><trkpt lat="45.522778805013225" lon="10.97422708838867"><ele>534.0</ele><time>2026-04-15T10:41:26.001Z</time></trkpt><trkpt lat="45.52285699384861" lon="10.97420768752069"><ele>536.4</ele><time>2026-04-15T10:41:27.001Z</time></trkpt><trkpt lat="45.52294556117866" lon="10.974142640428106"><ele>538.8</ele><time>2026-04-15T10:41:28.001Z</time></trkpt><trkpt lat="45.52303931237659" lon="10.974064666431651"><ele>541.2</ele><time>2026-04-15T10:41:29.001Z</time></trkpt><trkpt lat="45.523127167808354" lon="10.973993945872353"><ele>543.6</ele><time>2026-04-15T10:41:30.001Z</time></trkpt><trkpt lat="45.523235846905145" lon="10.973928241142985"><ele>546.0</ele><time>2026-04-15T10:41:31.001Z</time></trkpt><trkpt lat="45.52333094030089" lon="10.973864714644002"><ele>546.0</ele><time>2026-04-15T10:41:32.001Z</time></trkpt><trkpt lat="45.52339878680915" lon="10.973808745288983"><ele>546.0</ele><time>2026-04-15T10:41:33.001Z</time></trkpt><trkpt lat="45.52346874282681" lon="10.973762988531435"><ele>546.0</ele><time>2026-04-15T10:41:34.001Z</time></trkpt><trkpt lat="45.52353618203053" lon="10.973685712959"><ele>546.0</ele><time>2026-04-15T10:41:35.001Z</time></trkpt><trkpt lat="45.523600854925554" lon="10.973585740255146"><ele>546.0</ele><time>2026-04-15T10:41:36.002Z</time></trkpt><trkpt lat="45.52367851954063" lon="10.973497619976975"><ele>546.0</ele><time>2026-04-15T10:41:37.002Z</time></trkpt><trkpt lat="45.52373464545684" lon="10.9734519663373"><ele>546.5</ele><time>2026-04-15T10:41:38.002Z</time></trkpt><trkpt lat="45.5238607833812" lon="10.973419200451035"><ele>547.0</ele><time>2026-04-15T10:41:40.002Z</time></trkpt><trkpt lat="45.52394126257754" lon="10.97343330225478"><ele>547.5</ele><time>2026-04-15T10:41:41.002Z</time></trkpt><trkpt lat="45.52401824316819" lon="10.973428402423648"><ele>548.0</ele><time>2026-04-15T10:41:42.002Z</time></trkpt><trkpt lat="45.52408621500121" lon="10.973415077102409"><ele>548.5</ele><time>2026-04-15T10:41:43.002Z</time></trkpt><trkpt lat="45.5241552035424" lon="10.973422161233904"><ele>549.0</ele><time>2026-04-15T10:41:44.002Z</time></trkpt><trkpt lat="45.52428039872794" lon="10.973460140848314"><ele>549.0</ele><time>2026-04-15T10:41:46.002Z</time></trkpt><trkpt lat="45.52433195694669" lon="10.973513356914967"><ele>549.0</ele><time>2026-04-15T10:41:47.002Z</time></trkpt><trkpt lat="45.52440505831588" lon="10.973575453970465"><ele>549.0</ele><time>2026-04-15T10:41:49.002Z</time></trkpt><trkpt lat="45.52442862645815" lon="10.973676965250739"><ele>549.0</ele><time>2026-04-15T10:41:51.002Z</time></trkpt><trkpt lat="45.52445965748164" lon="10.973769360859826"><ele>549.0</ele><time>2026-04-15T10:41:53.002Z</time></trkpt><trkpt lat="45.524545058097154" lon="10.973866373394827"><ele>549.0</ele><time>2026-04-15T10:41:57.002Z</time></trkpt><trkpt lat="45.524604965052816" lon="10.973897050700321"><ele>550.0</ele><time>2026-04-15T10:41:58.002Z</time></trkpt><trkpt lat="45.52466433055077" lon="10.97393916816387"><ele>551.0</ele><time>2026-04-15T10:41:59.002Z</time></trkpt><trkpt lat="45.524770504965396" lon="10.973987370757838"><ele>552.0</ele><time>2026-04-15T10:42:01.002Z</time></trkpt><trkpt lat="45.52485913201413" lon="10.973992049806961"><ele>553.0</ele><time>2026-04-15T10:42:03.002Z</time></trkpt><trkpt lat="45.52494803451068" lon="10.974055735160835"><ele>554.0</ele><time>2026-04-15T10:42:06.002Z</time></trkpt><trkpt lat="45.525035572957385" lon="10.974150204836103"><ele>553.5</ele><time>2026-04-15T10:42:08.002Z</time></trkpt><trkpt lat="45.52511246987769" lon="10.974213177619752"><ele>553.0</ele><time>2026-04-15T10:42:09.002Z</time></trkpt><trkpt lat="45.52518008531325" lon="10.974264688373482"><ele>552.5</ele><time>2026-04-15T10:42:10.002Z</time></trkpt><trkpt lat="45.525286847732914" lon="10.974325560459958"><ele>552.0</ele><time>2026-04-15T10:42:12.002Z</time></trkpt><trkpt lat="45.52534948051016" lon="10.974353927059784"><ele>551.5</ele><time>2026-04-15T10:42:13.002Z</time></trkpt><trkpt lat="45.52541005217935" lon="10.974389074349416"><ele>551.0</ele><time>2026-04-15T10:42:14.002Z</time></trkpt><trkpt lat="45.525515724879966" lon="10.97443842354585"><ele>550.9999999999999</ele><time>2026-04-15T10:42:16.002Z</time></trkpt><trkpt lat="45.525576652907525" lon="10.974479417984892"><ele>551.0</ele><time>2026-04-15T10:42:17.002Z</time></trkpt><trkpt lat="45.52565388534884" lon="10.974539802298452"><ele>551.0</ele><time>2026-04-15T10:42:18.002Z</time></trkpt><trkpt lat="45.5257117762051" lon="10.974599623761586"><ele>551.0</ele><time>2026-04-15T10:42:19.002Z</time></trkpt><trkpt lat="45.52576453415481" lon="10.974650861593293"><ele>551.0</ele><time>2026-04-15T10:42:20.002Z</time></trkpt><trkpt lat="45.52582859859151" lon="10.97470476759546"><ele>550.9999999999999</ele><time>2026-04-15T10:42:21.003Z</time></trkpt><trkpt lat="45.525884054956116" lon="10.974756803575247"><ele>551.0</ele><time>2026-04-15T10:42:22.003Z</time></trkpt><trkpt lat="45.52593318918787" lon="10.97481522185364"><ele>551.0</ele><time>2026-04-15T10:42:23.003Z</time></trkpt><trkpt lat="45.52600458531895" lon="10.974906364874396"><ele>551.0</ele><time>2026-04-15T10:42:25.003Z</time></trkpt><trkpt lat="45.52606295448437" lon="10.974999179269712"><ele>551.0</ele><time>2026-04-15T10:42:27Z</time></trkpt><trkpt lat="45.52614115473399" lon="10.975111388683537"><ele>551.0</ele><time>2026-04-15T10:42:29Z</time></trkpt><trkpt lat="45.52617644116337" lon="10.975202030901954"><ele>551.0</ele><time>2026-04-15T10:42:31Z</time></trkpt><trkpt lat="45.52621709968558" lon="10.975285067529382"><ele>551.0</ele><time>2026-04-15T10:42:32Z</time></trkpt><trkpt lat="45.52625080364466" lon="10.975373882155768"><ele>551.4</ele><time>2026-04-15T10:42:33Z</time></trkpt><trkpt lat="45.526267026429544" lon="10.975471035039025"><ele>551.8</ele><time>2026-04-15T10:42:34Z</time></trkpt><trkpt lat="45.52627736939535" lon="10.975565466477233"><ele>552.1999999999999</ele><time>2026-04-15T10:42:35Z</time></trkpt><trkpt lat="45.52630870353082" lon="10.975751726797723"><ele>552.6</ele><time>2026-04-15T10:42:37Z</time></trkpt><trkpt lat="45.526362244036775" lon="10.975905120599041"><ele>553.0</ele><time>2026-04-15T10:42:39Z</time></trkpt><trkpt lat="45.52644219471612" lon="10.976043767139295"><ele>550.0</ele><time>2026-04-15T10:42:41Z</time></trkpt><trkpt lat="45.526500345889595" lon="10.976113567021347"><ele>547.0</ele><time>2026-04-15T10:42:42Z</time></trkpt><trkpt lat="45.52658207134808" lon="10.97619135818297"><ele>544.0</ele><time>2026-04-15T10:42:43Z</time></trkpt><trkpt lat="45.52664804389136" lon="10.976249063845554"><ele>541.0</ele><time>2026-04-15T10:42:44Z</time></trkpt><trkpt lat="45.526704662544184" lon="10.97629545083655"><ele>538.0</ele><time>2026-04-15T10:42:45Z</time></trkpt><trkpt lat="45.52682492853241" lon="10.976352918130472"><ele>535.0</ele><time>2026-04-15T10:42:47Z</time></trkpt><trkpt lat="45.526926246541" lon="10.976410224554659"><ele>535.0</ele><time>2026-04-15T10:42:49Z</time></trkpt><trkpt lat="45.52704680069016" lon="10.976472420226761"><ele>535.0</ele><time>2026-04-15T10:42:51Z</time></trkpt><trkpt lat="45.52712163644049" lon="10.97648591499957"><ele>535.0</ele><time>2026-04-15T10:42:52Z</time></trkpt><trkpt lat="45.52723037248724" lon="10.976521243559022"><ele>535.0</ele><time>2026-04-15T10:42:53Z</time></trkpt><trkpt lat="45.527331014546945" lon="10.976550102325609"><ele>535.0</ele><time>2026-04-15T10:42:54Z</time></trkpt><trkpt lat="45.52741341560337" lon="10.976573149441794"><ele>536.0</ele><time>2026-04-15T10:42:55Z</time></trkpt><trkpt lat="45.52748495257553" lon="10.976583674079244"><ele>537.0</ele><time>2026-04-15T10:42:56Z</time></trkpt><trkpt lat="45.52755049004902" lon="10.976598707126223"><ele>538.0</ele><time>2026-04-15T10:42:57.001Z</time></trkpt><trkpt lat="45.52763412697961" lon="10.976657049522203"><ele>539.0</ele><time>2026-04-15T10:42:59.001Z</time></trkpt><trkpt lat="45.52764665204478" lon="10.976765556917949"><ele>540.0</ele><time>2026-04-15T10:43:01.001Z</time></trkpt><trkpt lat="45.52756406327362" lon="10.976890276648405"><ele>541.0</ele><time>2026-04-15T10:43:03.001Z</time></trkpt><trkpt lat="45.527498733426796" lon="10.97695238471971"><ele>541.2</ele><time>2026-04-15T10:43:04.001Z</time></trkpt><trkpt lat="45.52743543142646" lon="10.977039485612728"><ele>541.4000000000001</ele><time>2026-04-15T10:43:05.001Z</time></trkpt><trkpt lat="45.527374189529944" lon="10.977146277118115"><ele>541.6</ele><time>2026-04-15T10:43:06.001Z</time></trkpt><trkpt lat="45.52730477042086" lon="10.97725874023715"><ele>541.8000000000001</ele><time>2026-04-15T10:43:07.001Z</time></trkpt><trkpt lat="45.52724590781979" lon="10.977378630646252"><ele>542.0</ele><time>2026-04-15T10:43:08.001Z</time></trkpt><trkpt lat="45.527200976505135" lon="10.977501422008585"><ele>540.8000000000001</ele><time>2026-04-15T10:43:09.001Z</time></trkpt><trkpt lat="45.52715655598357" lon="10.977639898076333"><ele>539.6</ele><time>2026-04-15T10:43:10.001Z</time></trkpt><trkpt lat="45.52710027143271" lon="10.977772550226065"><ele>538.4000000000001</ele><time>2026-04-15T10:43:11.001Z</time></trkpt><trkpt lat="45.52702602774258" lon="10.97789017992493"><ele>537.2</ele><time>2026-04-15T10:43:12.001Z</time></trkpt><trkpt lat="45.52695460001401" lon="10.977999628409181"><ele>536.0</ele><time>2026-04-15T10:43:13.001Z</time></trkpt><trkpt lat="45.526900090048834" lon="10.978083741641639"><ele>536.0</ele><time>2026-04-15T10:43:14.001Z</time></trkpt><trkpt lat="45.52682854668058" lon="10.97815193035405"><ele>536.0</ele><time>2026-04-15T10:43:15.001Z</time></trkpt><trkpt lat="45.526743593310506" lon="10.978202027711433"><ele>536.0</ele><time>2026-04-15T10:43:16.001Z</time></trkpt><trkpt lat="45.52667302541335" lon="10.97825860757032"><ele>536.0</ele><time>2026-04-15T10:43:17.001Z</time></trkpt><trkpt lat="45.526609492876105" lon="10.978337038672041"><ele>536.0</ele><time>2026-04-15T10:43:18.001Z</time></trkpt><trkpt lat="45.526554370692665" lon="10.978435679359883"><ele>536.0</ele><time>2026-04-15T10:43:19.001Z</time></trkpt><trkpt lat="45.52649669981135" lon="10.978531596012026"><ele>537.1666666666666</ele><time>2026-04-15T10:43:20.001Z</time></trkpt><trkpt lat="45.52643645230601" lon="10.978640675916127"><ele>538.3333333333333</ele><time>2026-04-15T10:43:21.001Z</time></trkpt><trkpt lat="45.52636572135802" lon="10.978734907145942"><ele>539.5</ele><time>2026-04-15T10:43:22.001Z</time></trkpt><trkpt lat="45.52631192965368" lon="10.9788059472551"><ele>540.6666666666666</ele><time>2026-04-15T10:43:23.001Z</time></trkpt><trkpt lat="45.52626517944405" lon="10.978882922707669"><ele>541.8333333333334</ele><time>2026-04-15T10:43:24.001Z</time></trkpt><trkpt lat="45.52620723751905" lon="10.978954569588188"><ele>543.0</ele><time>2026-04-15T10:43:25.001Z</time></trkpt><trkpt lat="45.526155851909586" lon="10.979020073645918"><ele>539.6</ele><time>2026-04-15T10:43:26.001Z</time></trkpt><trkpt lat="45.52610677831547" lon="10.979079019893994"><ele>536.1999999999999</ele><time>2026-04-15T10:43:27.001Z</time></trkpt><trkpt lat="45.52604367741746" lon="10.979194852053215"><ele>532.8</ele><time>2026-04-15T10:43:29.001Z</time></trkpt><trkpt lat="45.5259847356635" lon="10.979305907957075"><ele>529.4</ele><time>2026-04-15T10:43:31.001Z</time></trkpt><trkpt lat="45.52590760963891" lon="10.97938059614983"><ele>526.0</ele><time>2026-04-15T10:43:33.001Z</time></trkpt><trkpt lat="45.52581728514678" lon="10.979465513748927"><ele>525.8</ele><time>2026-04-15T10:43:35.001Z</time></trkpt><trkpt lat="45.525752137534965" lon="10.979508561213477"><ele>525.6</ele><time>2026-04-15T10:43:36.001Z</time></trkpt><trkpt lat="45.52564974425989" lon="10.979559718951954"><ele>525.4</ele><time>2026-04-15T10:43:38.001Z</time></trkpt><trkpt lat="45.52554605928314" lon="10.979595922581666"><ele>525.2</ele><time>2026-04-15T10:43:40.001Z</time></trkpt><trkpt lat="45.52545730351358" lon="10.979639270949427"><ele>525.0</ele><time>2026-04-15T10:43:42.001Z</time></trkpt><trkpt lat="45.5254473969348" lon="10.979748530426889"><ele>525.0</ele><time>2026-04-15T10:43:45.002Z</time></trkpt><trkpt lat="45.52547007577254" lon="10.979847232687595"><ele>525.0</ele><time>2026-04-15T10:43:47.002Z</time></trkpt><trkpt lat="45.52539508840129" lon="10.979909475169062"><ele>525.0</ele><time>2026-04-15T10:43:49.002Z</time></trkpt><trkpt lat="45.52532500024142" lon="10.979901472509551"><ele>525.0</ele><time>2026-04-15T10:43:50.002Z</time></trkpt><trkpt lat="45.52525469551522" lon="10.9798688494391"><ele>525.0</ele><time>2026-04-15T10:43:51.002Z</time></trkpt><trkpt lat="45.5251746998634" lon="10.979893498220545"><ele>525.0</ele><time>2026-04-15T10:43:52.002Z</time></trkpt><trkpt lat="45.52505979134044" lon="10.97991405405995"><ele>526.2</ele><time>2026-04-15T10:43:54.002Z</time></trkpt><trkpt lat="45.525002447086294" lon="10.979968122313503"><ele>527.4</ele><time>2026-04-15T10:43:55.002Z</time></trkpt><trkpt lat="45.524928249276705" lon="10.980005600642167"><ele>528.6</ele><time>2026-04-15T10:43:56.002Z</time></trkpt><trkpt lat="45.52480643108997" lon="10.980087352053413"><ele>529.8</ele><time>2026-04-15T10:43:58.002Z</time></trkpt><trkpt lat="45.52473957201348" lon="10.980141302390132"><ele>531.0</ele><time>2026-04-15T10:43:59.002Z</time></trkpt><trkpt lat="45.52463200734911" lon="10.980178790635085"><ele>528.5</ele><time>2026-04-15T10:44:01.002Z</time></trkpt><trkpt lat="45.52450927587816" lon="10.980150849038008"><ele>526.0</ele><time>2026-04-15T10:44:03.002Z</time></trkpt><trkpt lat="45.52439954578682" lon="10.98014161423583"><ele>523.5</ele><time>2026-04-15T10:44:05.002Z</time></trkpt><trkpt lat="45.5243232177597" lon="10.980171241181118"><ele>521.0</ele><time>2026-04-15T10:44:07.002Z</time></trkpt><trkpt lat="45.52418593884329" lon="10.980216506169489"><ele>521.0</ele><time>2026-04-15T10:44:09.002Z</time></trkpt><trkpt lat="45.524126222808746" lon="10.980254788011838"><ele>521.0</ele><time>2026-04-15T10:44:10.002Z</time></trkpt><trkpt lat="45.52406742980614" lon="10.980287483669201"><ele>521.0</ele><time>2026-04-15T10:44:11.002Z</time></trkpt><trkpt lat="45.523925757222244" lon="10.98034150611848"><ele>521.0</ele><time>2026-04-15T10:44:13.002Z</time></trkpt><trkpt lat="45.523829121094764" lon="10.980368067389032"><ele>521.0</ele><time>2026-04-15T10:44:14.002Z</time></trkpt><trkpt lat="45.52374866669954" lon="10.980363577920503"><ele>521.4</ele><time>2026-04-15T10:44:15.002Z</time></trkpt><trkpt lat="45.523666685325665" lon="10.980338543814149"><ele>521.8</ele><time>2026-04-15T10:44:16.002Z</time></trkpt><trkpt lat="45.52358778911927" lon="10.980309831807327"><ele>522.1999999999999</ele><time>2026-04-15T10:44:17.002Z</time></trkpt><trkpt lat="45.52351447961179" lon="10.980287278441505"><ele>522.6</ele><time>2026-04-15T10:44:18.002Z</time></trkpt><trkpt lat="45.52340601528148" lon="10.980231227847332"><ele>523.0</ele><time>2026-04-15T10:44:19.002Z</time></trkpt><trkpt lat="45.523314149442264" lon="10.980186850582026"><ele>523.0</ele><time>2026-04-15T10:44:20.002Z</time></trkpt><trkpt lat="45.52323176520171" lon="10.980139117532696"><ele>523.0</ele><time>2026-04-15T10:44:21.002Z</time></trkpt><trkpt lat="45.523153112027835" lon="10.980106971382575"><ele>523.0</ele><time>2026-04-15T10:44:22.002Z</time></trkpt><trkpt lat="45.523069688176605" lon="10.980078246424444"><ele>523.0</ele><time>2026-04-15T10:44:23.002Z</time></trkpt><trkpt lat="45.52297952350677" lon="10.980053939183128"><ele>523.0</ele><time>2026-04-15T10:44:24.002Z</time></trkpt><trkpt lat="45.52288640652813" lon="10.98003495318089"><ele>523.0</ele><time>2026-04-15T10:44:25.002Z</time></trkpt><trkpt lat="45.52278446147536" lon="10.980007066314181"><ele>522.1999999999999</ele><time>2026-04-15T10:44:26.002Z</time></trkpt><trkpt lat="45.52266484283785" lon="10.979995628777148"><ele>521.4</ele><time>2026-04-15T10:44:27.002Z</time></trkpt><trkpt lat="45.52255867928886" lon="10.979988335997488"><ele>520.5999999999999</ele><time>2026-04-15T10:44:28.002Z</time></trkpt><trkpt lat="45.52245677705672" lon="10.979981680592516"><ele>519.8</ele><time>2026-04-15T10:44:29.002Z</time></trkpt><trkpt lat="45.522378325362666" lon="10.980005759676121"><ele>519.0</ele><time>2026-04-15T10:44:30.002Z</time></trkpt><trkpt lat="45.52229720926867" lon="10.980037574805564"><ele>519.0</ele><time>2026-04-15T10:44:31.002Z</time></trkpt><trkpt lat="45.522219877119134" lon="10.980090247207722"><ele>519.0</ele><time>2026-04-15T10:44:32.003Z</time></trkpt><trkpt lat="45.52215659164935" lon="10.980114046467246"><ele>519.0</ele><time>2026-04-15T10:44:33Z</time></trkpt><trkpt lat="45.522088723968444" lon="10.980135403926855"><ele>519.0</ele><time>2026-04-15T10:44:37Z</time></trkpt><trkpt lat="45.522060844755984" lon="10.98025578684358"><ele>519.0</ele><time>2026-04-15T10:44:40Z</time></trkpt><trkpt lat="45.522078511819366" lon="10.98016649882809"><ele>519.0</ele><time>2026-04-15T10:45:30.001Z</time></trkpt><trkpt lat="45.52214945173445" lon="10.980177279969336"><ele>519.0</ele><time>2026-04-15T10:45:32.001Z</time></trkpt><trkpt lat="45.522197862331176" lon="10.980243994396151"><ele>519.0</ele><time>2026-04-15T10:45:33.001Z</time></trkpt><trkpt lat="45.52222332061639" lon="10.980341212296958"><ele>519.0</ele><time>2026-04-15T10:45:34.001Z</time></trkpt><trkpt lat="45.522229472272" lon="10.980450243704455"><ele>519.0</ele><time>2026-04-15T10:45:35.001Z</time></trkpt><trkpt lat="45.52224679686666" lon="10.980560412883776"><ele>519.0</ele><time>2026-04-15T10:45:36.001Z</time></trkpt><trkpt lat="45.52227096912796" lon="10.98070047584725"><ele>519.0</ele><time>2026-04-15T10:45:37.001Z</time></trkpt><trkpt lat="45.522285589314315" lon="10.980841421141271"><ele>519.0</ele><time>2026-04-15T10:45:38.001Z</time></trkpt><trkpt lat="45.522296169737096" lon="10.980995180184483"><ele>519.0</ele><time>2026-04-15T10:45:39.001Z</time></trkpt><trkpt lat="45.52231228647998" lon="10.98113114131821"><ele>519.0</ele><time>2026-04-15T10:45:40.001Z</time></trkpt><trkpt lat="45.5223258308886" lon="10.981245746781202"><ele>519.0</ele><time>2026-04-15T10:45:41.001Z</time></trkpt><trkpt lat="45.522343509043836" lon="10.981364386826005"><ele>519.0</ele><time>2026-04-15T10:45:42.001Z</time></trkpt><trkpt lat="45.52236521088378" lon="10.981491798877304"><ele>519.0</ele><time>2026-04-15T10:45:43.001Z</time></trkpt><trkpt lat="45.52240843032277" lon="10.981654353209523"><ele>518.0</ele><time>2026-04-15T10:45:44.001Z</time></trkpt><trkpt lat="45.52246199296515" lon="10.981821102949796"><ele>517.0</ele><time>2026-04-15T10:45:45.001Z</time></trkpt><trkpt lat="45.522529726388406" lon="10.981996664020787"><ele>516.0</ele><time>2026-04-15T10:45:46.001Z</time></trkpt><trkpt lat="45.522590212450126" lon="10.982141145628168"><ele>515.0</ele><time>2026-04-15T10:45:47.001Z</time></trkpt><trkpt lat="45.52264131976796" lon="10.982269035343954"><ele>515.0</ele><time>2026-04-15T10:45:48.001Z</time></trkpt><trkpt lat="45.52268756168537" lon="10.982382880930901"><ele>515.0</ele><time>2026-04-15T10:45:49.001Z</time></trkpt><trkpt lat="45.522728365170686" lon="10.982499402856488"><ele>515.0</ele><time>2026-04-15T10:45:50.001Z</time></trkpt><trkpt lat="45.52278574430819" lon="10.982616512027814"><ele>515.0</ele><time>2026-04-15T10:45:51.001Z</time></trkpt><trkpt lat="45.52285425012598" lon="10.982756726224766"><ele>515.0</ele><time>2026-04-15T10:45:52.002Z</time></trkpt><trkpt lat="45.522913163938256" lon="10.982913296011844"><ele>516.8</ele><time>2026-04-15T10:45:53.002Z</time></trkpt><trkpt lat="45.5229458982092" lon="10.983065800943164"><ele>518.6</ele><time>2026-04-15T10:45:54.002Z</time></trkpt><trkpt lat="45.52296508553879" lon="10.983198831343957"><ele>520.4</ele><time>2026-04-15T10:45:55.002Z</time></trkpt><trkpt lat="45.52298030351215" lon="10.983325093823863"><ele>522.2</ele><time>2026-04-15T10:45:56.002Z</time></trkpt><trkpt lat="45.52298526258646" lon="10.983457955587733"><ele>524.0</ele><time>2026-04-15T10:45:57.002Z</time></trkpt><trkpt lat="45.52297587734618" lon="10.98360873904053"><ele>524.75</ele><time>2026-04-15T10:45:58.002Z</time></trkpt><trkpt lat="45.52296597363548" lon="10.98377324943765"><ele>525.5</ele><time>2026-04-15T10:45:59.002Z</time></trkpt><trkpt lat="45.52294560418775" lon="10.983952324017507"><ele>526.25</ele><time>2026-04-15T10:46:00.002Z</time></trkpt><trkpt lat="45.522916649109696" lon="10.984137882175029"><ele>527.0</ele><time>2026-04-15T10:46:01.002Z</time></trkpt><trkpt lat="45.5228873570458" lon="10.984309338903314"><ele>524.8333333333333</ele><time>2026-04-15T10:46:02.002Z</time></trkpt><trkpt lat="45.522847988885815" lon="10.984462443266903"><ele>522.6666666666666</ele><time>2026-04-15T10:46:03.002Z</time></trkpt><trkpt lat="45.522838465826325" lon="10.984577312732101"><ele>520.5</ele><time>2026-04-15T10:46:04.002Z</time></trkpt><trkpt lat="45.52282466767833" lon="10.984680960803876"><ele>518.3333333333334</ele><time>2026-04-15T10:46:05.002Z</time></trkpt><trkpt lat="45.52279202139037" lon="10.984815108744556"><ele>516.1666666666667</ele><time>2026-04-15T10:46:07.002Z</time></trkpt><trkpt lat="45.52279203218914" lon="10.984921165655935"><ele>514.0</ele><time>2026-04-15T10:46:10.002Z</time></trkpt><trkpt lat="45.522882267297334" lon="10.984968672567247"><ele>513.8</ele><time>2026-04-15T10:46:12.002Z</time></trkpt><trkpt lat="45.52299160219097" lon="10.984983455852252"><ele>513.5999999999999</ele><time>2026-04-15T10:46:13.002Z</time></trkpt><trkpt lat="45.52306133779438" lon="10.985033740424946"><ele>513.4</ele><time>2026-04-15T10:46:14.002Z</time></trkpt><trkpt lat="45.52312533478342" lon="10.985103404368957"><ele>513.1999999999999</ele><time>2026-04-15T10:46:15.002Z</time></trkpt><trkpt lat="45.523186581648034" lon="10.985194860599039"><ele>513.0</ele><time>2026-04-15T10:46:16.002Z</time></trkpt><trkpt lat="45.523256727311576" lon="10.9853078900381"><ele>513.0</ele><time>2026-04-15T10:46:17.002Z</time></trkpt><trkpt lat="45.52334288834822" lon="10.985416260360429"><ele>513.0</ele><time>2026-04-15T10:46:18.002Z</time></trkpt><trkpt lat="45.52343020256274" lon="10.985490761864318"><ele>513.0</ele><time>2026-04-15T10:46:19.002Z</time></trkpt><trkpt lat="45.52350697297426" lon="10.985562684926503"><ele>513.0</ele><time>2026-04-15T10:46:20.002Z</time></trkpt><trkpt lat="45.523561741743116" lon="10.985634367375132"><ele>513.0</ele><time>2026-04-15T10:46:21.002Z</time></trkpt><trkpt lat="45.52360574435675" lon="10.985802221546962"><ele>515.4</ele><time>2026-04-15T10:46:23.002Z</time></trkpt><trkpt lat="45.52357119270095" lon="10.985907248425033"><ele>517.8</ele><time>2026-04-15T10:46:24.002Z</time></trkpt><trkpt lat="45.52349429262212" lon="10.986011070078384"><ele>520.2</ele><time>2026-04-15T10:46:25.002Z</time></trkpt><trkpt lat="45.52339773280287" lon="10.986091954402536"><ele>522.6</ele><time>2026-04-15T10:46:26.002Z</time></trkpt><trkpt lat="45.52327618850786" lon="10.98615277435898"><ele>525.0</ele><time>2026-04-15T10:46:27.002Z</time></trkpt><trkpt lat="45.52315645282974" lon="10.98622484245841"><ele>525.0</ele><time>2026-04-15T10:46:28.002Z</time></trkpt><trkpt lat="45.52305092613139" lon="10.986330386012932"><ele>525.0</ele><time>2026-04-15T10:46:29.002Z</time></trkpt><trkpt lat="45.52293104990044" lon="10.98646422759035"><ele>525.0</ele><time>2026-04-15T10:46:30.002Z</time></trkpt><trkpt lat="45.522806689509494" lon="10.986590299901051"><ele>525.0</ele><time>2026-04-15T10:46:31.002Z</time></trkpt><trkpt lat="45.522693602040285" lon="10.986691464687333"><ele>526.0</ele><time>2026-04-15T10:46:32.002Z</time></trkpt><trkpt lat="45.522588369905336" lon="10.986791525061209"><ele>527.0</ele><time>2026-04-15T10:46:33.002Z</time></trkpt><trkpt lat="45.522482311510274" lon="10.986892305485679"><ele>528.0</ele><time>2026-04-15T10:46:34.002Z</time></trkpt><trkpt lat="45.52236585356538" lon="10.986985848774243"><ele>529.0</ele><time>2026-04-15T10:46:35.002Z</time></trkpt><trkpt lat="45.52225421845869" lon="10.987077256305744"><ele>529.0</ele><time>2026-04-15T10:46:36.002Z</time></trkpt><trkpt lat="45.522149795554796" lon="10.987157924053728"><ele>529.0</ele><time>2026-04-15T10:46:37.002Z</time></trkpt><trkpt lat="45.522041251580006" lon="10.987188682492102"><ele>529.0</ele><time>2026-04-15T10:46:38.002Z</time></trkpt><trkpt lat="45.52190996389714" lon="10.987196707969565"><ele>529.0</ele><time>2026-04-15T10:46:39.001Z</time></trkpt><trkpt lat="45.521784279839544" lon="10.987195535011397"><ele>526.2</ele><time>2026-04-15T10:46:40.001Z</time></trkpt><trkpt lat="45.52167435944094" lon="10.98719464361662"><ele>523.4</ele><time>2026-04-15T10:46:41.001Z</time></trkpt><trkpt lat="45.52157699141678" lon="10.987211146576316"><ele>520.6</ele><time>2026-04-15T10:46:42.001Z</time></trkpt><trkpt lat="45.521487756525524" lon="10.987258319484965"><ele>517.8</ele><time>2026-04-15T10:46:43Z</time></trkpt><trkpt lat="45.52140267970136" lon="10.987336344666888"><ele>515.0</ele><time>2026-04-15T10:46:44.001Z</time></trkpt><trkpt lat="45.521316398322575" lon="10.987436690376189"><ele>514.25</ele><time>2026-04-15T10:46:45Z</time></trkpt><trkpt lat="45.52122633637412" lon="10.987545022691675"><ele>513.5</ele><time>2026-04-15T10:46:46Z</time></trkpt><trkpt lat="45.52113605281771" lon="10.987660195224686"><ele>512.75</ele><time>2026-04-15T10:46:47Z</time></trkpt><trkpt lat="45.52105758936402" lon="10.98780719404057"><ele>512.0</ele><time>2026-04-15T10:46:48Z</time></trkpt><trkpt lat="45.52099574387708" lon="10.987981756705464"><ele>512.0</ele><time>2026-04-15T10:46:49Z</time></trkpt><trkpt lat="45.52096884681416" lon="10.988154107237174"><ele>512.0</ele><time>2026-04-15T10:46:50Z</time></trkpt><trkpt lat="45.5209718265991" lon="10.988321367747307"><ele>512.0</ele><time>2026-04-15T10:46:51Z</time></trkpt><trkpt lat="45.52099375260929" lon="10.988471609245128"><ele>512.0</ele><time>2026-04-15T10:46:52Z</time></trkpt><trkpt lat="45.52101619152688" lon="10.988610732013253"><ele>512.0</ele><time>2026-04-15T10:46:53Z</time></trkpt><trkpt lat="45.521036333037614" lon="10.98876102749799"><ele>511.6</ele><time>2026-04-15T10:46:54Z</time></trkpt><trkpt lat="45.52105902706738" lon="10.988903482723114"><ele>511.20000000000005</ele><time>2026-04-15T10:46:55Z</time></trkpt><trkpt lat="45.52108805823642" lon="10.989034774595963"><ele>510.8</ele><time>2026-04-15T10:46:56Z</time></trkpt><trkpt lat="45.52112390844739" lon="10.989176193802832"><ele>510.4</ele><time>2026-04-15T10:46:57Z</time></trkpt><trkpt lat="45.52115259201178" lon="10.989316322884424"><ele>510.0</ele><time>2026-04-15T10:46:58Z</time></trkpt><trkpt lat="45.52117537538766" lon="10.989458643758347"><ele>509.5</ele><time>2026-04-15T10:46:59Z</time></trkpt><trkpt lat="45.52119710846938" lon="10.989587869066135"><ele>509.0</ele><time>2026-04-15T10:47:00Z</time></trkpt><trkpt lat="45.521228605310036" lon="10.98972659602614"><ele>508.5</ele><time>2026-04-15T10:47:01Z</time></trkpt><trkpt lat="45.52125841841915" lon="10.989851961364426"><ele>508.0</ele><time>2026-04-15T10:47:02Z</time></trkpt><trkpt lat="45.52129065692803" lon="10.989943114897166"><ele>507.5</ele><time>2026-04-15T10:47:03Z</time></trkpt><trkpt lat="45.521319244639415" lon="10.990052704324743"><ele>507.0</ele><time>2026-04-15T10:47:05Z</time></trkpt><trkpt lat="45.52130060039435" lon="10.990171875316337"><ele>506.5</ele><time>2026-04-15T10:47:07Z</time></trkpt><trkpt lat="45.52126335352726" lon="10.990305139296435"><ele>506.0</ele><time>2026-04-15T10:47:09.001Z</time></trkpt><trkpt lat="45.521223481125766" lon="10.99044349379879"><ele>505.5</ele><time>2026-04-15T10:47:11.001Z</time></trkpt><trkpt lat="45.52123559325721" lon="10.990552233774991"><ele>505.0</ele><time>2026-04-15T10:47:12.001Z</time></trkpt><trkpt lat="45.52123503575295" lon="10.99066491609059"><ele>504.5</ele><time>2026-04-15T10:47:13.001Z</time></trkpt><trkpt lat="45.52122772073813" lon="10.99076599385091"><ele>504.0</ele><time>2026-04-15T10:47:14.001Z</time></trkpt><trkpt lat="45.5211970235546" lon="10.990914957029332"><ele>501.42857142857144</ele><time>2026-04-15T10:47:16.001Z</time></trkpt><trkpt lat="45.52114931286193" lon="10.990978760562061"><ele>498.8571428571429</ele><time>2026-04-15T10:47:18.001Z</time></trkpt><trkpt lat="45.521151783933306" lon="10.991093074380116"><ele>496.2857142857143</ele><time>2026-04-15T10:47:23.001Z</time></trkpt><trkpt lat="45.521219749973305" lon="10.991112224380629"><ele>493.7142857142857</ele><time>2026-04-15T10:47:26.001Z</time></trkpt><trkpt lat="45.52129283164005" lon="10.991094131005251"><ele>491.14285714285717</ele><time>2026-04-15T10:47:28.001Z</time></trkpt><trkpt lat="45.521360839000174" lon="10.991080655378305"><ele>488.57142857142856</ele><time>2026-04-15T10:47:30.001Z</time></trkpt><trkpt lat="45.521432366996265" lon="10.99113321889382"><ele>486.0</ele><time>2026-04-15T10:47:32.001Z</time></trkpt><trkpt lat="45.521500899467696" lon="10.991210430564621"><ele>486.0</ele><time>2026-04-15T10:47:34.001Z</time></trkpt><trkpt lat="45.521532358853456" lon="10.991319286207412"><ele>486.0</ele><time>2026-04-15T10:47:36.001Z</time></trkpt><trkpt lat="45.52158091218167" lon="10.991441957975136"><ele>486.0</ele><time>2026-04-15T10:47:38.001Z</time></trkpt><trkpt lat="45.521624126179226" lon="10.991552934495855"><ele>486.0</ele><time>2026-04-15T10:47:40.001Z</time></trkpt><trkpt lat="45.5216517433533" lon="10.991658248475812"><ele>486.0</ele><time>2026-04-15T10:47:42.001Z</time></trkpt><trkpt lat="45.521695227599125" lon="10.99175364831074"><ele>486.0</ele><time>2026-04-15T10:47:44.001Z</time></trkpt><trkpt lat="45.521740351018536" lon="10.991893365873826"><ele>483.8333333333333</ele><time>2026-04-15T10:47:46.001Z</time></trkpt><trkpt lat="45.521797162824804" lon="10.992045798258246"><ele>481.66666666666663</ele><time>2026-04-15T10:47:48.001Z</time></trkpt><trkpt lat="45.52184571930294" lon="10.99215707182531"><ele>479.5</ele><time>2026-04-15T10:47:50.001Z</time></trkpt><trkpt lat="45.52188986031882" lon="10.992226202887469"><ele>477.3333333333333</ele><time>2026-04-15T10:47:52.001Z</time></trkpt><trkpt lat="45.521870187853295" lon="10.992334642135722"><ele>475.16666666666663</ele><time>2026-04-15T10:47:56.001Z</time></trkpt><trkpt lat="45.52184174105992" lon="10.992446014075274"><ele>473.0</ele><time>2026-04-15T10:47:59.001Z</time></trkpt><trkpt lat="45.521783841648535" lon="10.992516808837022"><ele>471.49999999999994</ele><time>2026-04-15T10:48:04.002Z</time></trkpt><trkpt lat="45.52181753932651" lon="10.992610507302095"><ele>470.0</ele><time>2026-04-15T10:48:09.002Z</time></trkpt><trkpt lat="45.52187676375909" lon="10.992653713990908"><ele>468.5</ele><time>2026-04-15T10:48:10.002Z</time></trkpt><trkpt lat="45.521935828480274" lon="10.992703809261513"><ele>467.0</ele><time>2026-04-15T10:48:12.002Z</time></trkpt><trkpt lat="45.522052129397906" lon="10.992755796469945"><ele>465.49999999999994</ele><time>2026-04-15T10:48:14.002Z</time></trkpt><trkpt lat="45.52212178652752" lon="10.99277187302238"><ele>464.0</ele><time>2026-04-15T10:48:15.002Z</time></trkpt><trkpt lat="45.522189998693435" lon="10.99280167173394"><ele>464.0</ele><time>2026-04-15T10:48:16.002Z</time></trkpt><trkpt lat="45.522287563562244" lon="10.99289933992603"><ele>464.0</ele><time>2026-04-15T10:48:18.002Z</time></trkpt><trkpt lat="45.522349269587345" lon="10.993011511929762"><ele>464.0</ele><time>2026-04-15T10:48:20.002Z</time></trkpt><trkpt lat="45.52245376333178" lon="10.993084897011437"><ele>464.0</ele><time>2026-04-15T10:48:22.002Z</time></trkpt><trkpt lat="45.52251513290992" lon="10.993131740121646"><ele>464.0</ele><time>2026-04-15T10:48:23.002Z</time></trkpt><trkpt lat="45.52257239383522" lon="10.99318068163825"><ele>463.99999999999994</ele><time>2026-04-15T10:48:24.002Z</time></trkpt><trkpt lat="45.522645636395694" lon="10.99324365003089"><ele>464.0</ele><time>2026-04-15T10:48:25.002Z</time></trkpt><trkpt lat="45.52271316820635" lon="10.993294511837018"><ele>464.0</ele><time>2026-04-15T10:48:26.002Z</time></trkpt><trkpt lat="45.52277408949941" lon="10.9933831021294"><ele>464.0</ele><time>2026-04-15T10:48:28.002Z</time></trkpt><trkpt lat="45.52282752950005" lon="10.993465495331506"><ele>463.99999999999994</ele><time>2026-04-15T10:48:30.002Z</time></trkpt><trkpt lat="45.52288094396541" lon="10.99355692607784"><ele>464.0</ele><time>2026-04-15T10:48:32.002Z</time></trkpt><trkpt lat="45.52295153346511" lon="10.993675978846143"><ele>462.16666666666663</ele><time>2026-04-15T10:48:34.002Z</time></trkpt><trkpt lat="45.52302592914898" lon="10.993760058129153"><ele>460.3333333333333</ele><time>2026-04-15T10:48:36.002Z</time></trkpt><trkpt lat="45.52309987315159" lon="10.993839079379022"><ele>458.5</ele><time>2026-04-15T10:48:38.002Z</time></trkpt><trkpt lat="45.52312501708234" lon="10.993942557741025"><ele>456.66666666666663</ele><time>2026-04-15T10:48:40.002Z</time></trkpt><trkpt lat="45.52315820331766" lon="10.994019916916915"><ele>454.8333333333333</ele><time>2026-04-15T10:48:42.002Z</time></trkpt><trkpt lat="45.52323706809942" lon="10.994070905226867"><ele>453.0</ele><time>2026-04-15T10:48:44.002Z</time></trkpt><trkpt lat="45.52332416093522" lon="10.994102415942562"><ele>453.0</ele><time>2026-04-15T10:48:46Z</time></trkpt><trkpt lat="45.52340617548246" lon="10.994092447781032"><ele>453.0</ele><time>2026-04-15T10:48:48Z</time></trkpt><trkpt lat="45.52348644706232" lon="10.994035013339207"><ele>453.0</ele><time>2026-04-15T10:48:50Z</time></trkpt><trkpt lat="45.52359039924418" lon="10.993927213877395"><ele>453.0</ele><time>2026-04-15T10:49:16Z</time></trkpt><trkpt lat="45.52364849749269" lon="10.993857110501443"><ele>453.0</ele><time>2026-04-15T10:49:19Z</time></trkpt><trkpt lat="45.5237041868008" lon="10.993807298627388"><ele>453.0</ele><time>2026-04-15T10:49:21Z</time></trkpt><trkpt lat="45.52379149697337" lon="10.993766572328783"><ele>453.6666666666667</ele><time>2026-04-15T10:49:25Z</time></trkpt><trkpt lat="45.523887735440496" lon="10.993750529970084"><ele>454.33333333333337</ele><time>2026-04-15T10:49:28.001Z</time></trkpt><trkpt lat="45.52394479412471" lon="10.993799039800074"><ele>455.0</ele><time>2026-04-15T10:49:30.001Z</time></trkpt><trkpt lat="45.52393590653845" lon="10.99391495191463"><ele>455.6666666666667</ele><time>2026-04-15T10:49:32.001Z</time></trkpt><trkpt lat="45.52394280855598" lon="10.994062429271292"><ele>456.33333333333337</ele><time>2026-04-15T10:49:35.001Z</time></trkpt><trkpt lat="45.52393158692779" lon="10.994175217124694"><ele>457.0</ele><time>2026-04-15T10:49:37.001Z</time></trkpt><trkpt lat="45.523946511069255" lon="10.994266411838431"><ele>457.00000000000006</ele><time>2026-04-15T10:49:40.001Z</time></trkpt><trkpt lat="45.52400806354223" lon="10.994204691242055"><ele>457.0</ele><time>2026-04-15T10:49:56.001Z</time></trkpt><trkpt lat="45.52407385978415" lon="10.99427217154511"><ele>457.0</ele><time>2026-04-15T10:50:44.002Z</time></trkpt><trkpt lat="45.52414967724222" lon="10.994325471868475"><ele>457.0</ele><time>2026-04-15T10:50:54.001Z</time></trkpt><trkpt lat="45.52420702466183" lon="10.994266552552281"><ele>457.00000000000006</ele><time>2026-04-15T10:50:58.001Z</time></trkpt><trkpt lat="45.52424569639347" lon="10.994195393743011"><ele>457.0</ele><time>2026-04-15T10:51:00.001Z</time></trkpt><trkpt lat="45.52433163260293" lon="10.994193930282446"><ele>457.00000000000006</ele><time>2026-04-15T10:51:04.001Z</time></trkpt><trkpt lat="45.52440164238894" lon="10.994216862629354"><ele>457.0</ele><time>2026-04-15T10:51:07.001Z</time></trkpt><trkpt lat="45.52445009972045" lon="10.99414794772123"><ele>457.00000000000006</ele><time>2026-04-15T10:51:13.001Z</time></trkpt><trkpt lat="45.524524475158486" lon="10.994162724072051"><ele>457.00000000000006</ele><time>2026-04-15T10:51:16.001Z</time></trkpt><trkpt lat="45.52459077715978" lon="10.994126771552615"><ele>457.0</ele><time>2026-04-15T10:51:19.001Z</time></trkpt><trkpt lat="45.524648491775956" lon="10.994080150300883"><ele>457.00000000000006</ele><time>2026-04-15T10:51:23.001Z</time></trkpt><trkpt lat="45.52470241024365" lon="10.99400767203757"><ele>457.00000000000006</ele><time>2026-04-15T10:51:30.001Z</time></trkpt><trkpt lat="45.52477131161322" lon="10.99401844149343"><ele>460.00000000000006</ele><time>2026-04-15T10:51:33.001Z</time></trkpt><trkpt lat="45.524851913354205" lon="10.99405991923273"><ele>463.0</ele><time>2026-04-15T10:51:36.001Z</time></trkpt><trkpt lat="45.52491273099482" lon="10.994103047849455"><ele>466.00000000000006</ele><time>2026-04-15T10:51:39.001Z</time></trkpt><trkpt lat="45.52497849217164" lon="10.99412356008424"><ele>469.00000000000006</ele><time>2026-04-15T10:52:01.001Z</time></trkpt><trkpt lat="45.52505622090026" lon="10.99415355198754"><ele>472.0</ele><time>2026-04-15T10:52:05.001Z</time></trkpt><trkpt lat="45.52512980774709" lon="10.994149704091097"><ele>475.00000000000006</ele><time>2026-04-15T10:52:49.002Z</time></trkpt><trkpt lat="45.52513144338336" lon="10.994055124698015"><ele>478.00000000000006</ele><time>2026-04-15T10:52:56.002Z</time></trkpt><trkpt lat="45.525123291895376" lon="10.993958022133796"><ele>478.00000000000006</ele><time>2026-04-15T10:53:01.001Z</time></trkpt><trkpt lat="45.525182594027456" lon="10.993916269953324"><ele>478.0</ele><time>2026-04-15T10:54:57.002Z</time></trkpt><trkpt lat="45.52525110322048" lon="10.993844241696484"><ele>478.0</ele><time>2026-04-15T10:55:01.002Z</time></trkpt><trkpt lat="45.52530205506359" lon="10.993769715692856"><ele>478.0</ele><time>2026-04-15T10:55:05.001Z</time></trkpt><trkpt lat="45.52538835276798" lon="10.993806806926155"><ele>478.00000000000006</ele><time>2026-04-15T10:55:08.001Z</time></trkpt><trkpt lat="45.52545080967766" lon="10.993851204576487"><ele>478.0</ele><time>2026-04-15T10:55:10.001Z</time></trkpt><trkpt lat="45.52553816374837" lon="10.993847903901923"><ele>480.33333333333337</ele><time>2026-04-15T10:55:12.001Z</time></trkpt><trkpt lat="45.525588663741075" lon="10.993914235673223"><ele>482.6666666666667</ele><time>2026-04-15T10:55:16.001Z</time></trkpt><trkpt lat="45.5257029689887" lon="10.99390862140302"><ele>485.0</ele><time>2026-04-15T10:55:19.001Z</time></trkpt><trkpt lat="45.525781241472075" lon="10.993873558803376"><ele>487.33333333333337</ele><time>2026-04-15T10:55:22.001Z</time></trkpt><trkpt lat="45.525847910315434" lon="10.993889091745684"><ele>489.6666666666667</ele><time>2026-04-15T10:55:28.001Z</time></trkpt><trkpt lat="45.5259090192001" lon="10.993949259479447"><ele>492.0</ele><time>2026-04-15T10:55:32.001Z</time></trkpt><trkpt lat="45.52598128245822" lon="10.994007547425568"><ele>492.0</ele><time>2026-04-15T10:55:35.001Z</time></trkpt><trkpt lat="45.52606953724212" lon="10.993942148833906"><ele>492.0</ele><time>2026-04-15T10:55:37.001Z</time></trkpt><trkpt lat="45.52613132957927" lon="10.993960328090026"><ele>492.0</ele><time>2026-04-15T10:55:47.001Z</time></trkpt><trkpt lat="45.52619377185962" lon="10.993995765626089"><ele>492.0</ele><time>2026-04-15T10:55:50.001Z</time></trkpt><trkpt lat="45.526275447069054" lon="10.994021286074064"><ele>492.0</ele><time>2026-04-15T10:55:52.001Z</time></trkpt><trkpt lat="45.52633414678246" lon="10.994104564535489"><ele>492.0</ele><time>2026-04-15T10:55:55.001Z</time></trkpt><trkpt lat="45.526418457338" lon="10.994074222443182"><ele>493.8333333333333</ele><time>2026-04-15T10:55:58.001Z</time></trkpt><trkpt lat="45.52651600282215" lon="10.99405018116672"><ele>495.66666666666663</ele><time>2026-04-15T10:56:00.001Z</time></trkpt><trkpt lat="45.526580197724016" lon="10.99404751849508"><ele>497.5</ele><time>2026-04-15T10:56:02.001Z</time></trkpt><trkpt lat="45.52666106307919" lon="10.994024039566849"><ele>499.3333333333333</ele><time>2026-04-15T10:56:04.001Z</time></trkpt><trkpt lat="45.526708837534876" lon="10.993941021167855"><ele>501.16666666666663</ele><time>2026-04-15T10:56:07.001Z</time></trkpt><trkpt lat="45.52670243742989" lon="10.99385112430087"><ele>503.0</ele><time>2026-04-15T10:56:09.001Z</time></trkpt><trkpt lat="45.52674586905435" lon="10.993764187827912"><ele>502.99999999999994</ele><time>2026-04-15T10:56:13.001Z</time></trkpt><trkpt lat="45.52681786581311" lon="10.993733690439015"><ele>503.0</ele><time>2026-04-15T10:56:15.001Z</time></trkpt><trkpt lat="45.52689842717185" lon="10.993677840105818"><ele>503.0</ele><time>2026-04-15T10:56:17.001Z</time></trkpt><trkpt lat="45.52696568893385" lon="10.993655373561737"><ele>503.0</ele><time>2026-04-15T10:56:19.001Z</time></trkpt><trkpt lat="45.52704874855999" lon="10.993753821955973"><ele>502.99999999999994</ele><time>2026-04-15T10:56:22.001Z</time></trkpt><trkpt lat="45.52711179183502" lon="10.993784698040924"><ele>503.0</ele><time>2026-04-15T10:56:23.001Z</time></trkpt><trkpt lat="45.52717809714034" lon="10.993822926087763"><ele>505.49999999999994</ele><time>2026-04-15T10:56:25.001Z</time></trkpt><trkpt lat="45.527119070091075" lon="10.993757075651919"><ele>508.0</ele><time>2026-04-15T10:56:49.002Z</time></trkpt><trkpt lat="45.52719266330896" lon="10.993757742503053"><ele>510.5</ele><time>2026-04-15T10:56:52.002Z</time></trkpt><trkpt lat="45.52725974198922" lon="10.993677586124816"><ele>513.0</ele><time>2026-04-15T10:56:54.002Z</time></trkpt><trkpt lat="45.527323142566985" lon="10.993580290352536"><ele>515.5</ele><time>2026-04-15T10:56:57.002Z</time></trkpt><trkpt lat="45.527396170454004" lon="10.993548610421053"><ele>518.0</ele><time>2026-04-15T10:56:59.002Z</time></trkpt><trkpt lat="45.527462267602296" lon="10.993556266628298"><ele>518.0</ele><time>2026-04-15T10:57:02.002Z</time></trkpt><trkpt lat="45.52753895821069" lon="10.993499313199399"><ele>518.0</ele><time>2026-04-15T10:57:08.002Z</time></trkpt><trkpt lat="45.52760900578531" lon="10.993450152807814"><ele>518.0</ele><time>2026-04-15T10:57:14Z</time></trkpt><trkpt lat="45.52767676262368" lon="10.99342860220538"><ele>518.0</ele><time>2026-04-15T10:57:16Z</time></trkpt><trkpt lat="45.52773473366114" lon="10.993389190433636"><ele>518.0</ele><time>2026-04-15T10:57:18Z</time></trkpt><trkpt lat="45.5277787689612" lon="10.993273436554825"><ele>518.0</ele><time>2026-04-15T10:57:21Z</time></trkpt><trkpt lat="45.527834127861034" lon="10.993181246589511"><ele>522.1666666666666</ele><time>2026-04-15T10:57:24Z</time></trkpt><trkpt lat="45.52793139244066" lon="10.993210943980145"><ele>526.3333333333333</ele><time>2026-04-15T10:57:27Z</time></trkpt><trkpt lat="45.527994370046265" lon="10.993225006847656"><ele>530.5</ele><time>2026-04-15T10:57:30Z</time></trkpt><trkpt lat="45.52807222250032" lon="10.993206181554443"><ele>534.6666666666666</ele><time>2026-04-15T10:57:33Z</time></trkpt><trkpt lat="45.5281501626318" lon="10.993129805147444"><ele>538.8333333333334</ele><time>2026-04-15T10:57:36Z</time></trkpt><trkpt lat="45.52822613495873" lon="10.993100413353538"><ele>543.0</ele><time>2026-04-15T10:57:39Z</time></trkpt><trkpt lat="45.52827470542853" lon="10.99303604593183"><ele>543.0</ele><time>2026-04-15T10:57:41Z</time></trkpt><trkpt lat="45.52831968197373" lon="10.99296723643238"><ele>543.0</ele><time>2026-04-15T10:57:44Z</time></trkpt><trkpt lat="45.52833525333907" lon="10.992845224530665"><ele>543.0</ele><time>2026-04-15T10:57:47Z</time></trkpt><trkpt lat="45.528339988123435" lon="10.99272803707594"><ele>543.0</ele><time>2026-04-15T10:57:50Z</time></trkpt><trkpt lat="45.52835216333175" lon="10.992621497076058"><ele>543.0</ele><time>2026-04-15T10:57:52Z</time></trkpt><trkpt lat="45.52835645895046" lon="10.992517956581555"><ele>543.0</ele><time>2026-04-15T10:58:17.001Z</time></trkpt><trkpt lat="45.52843738754908" lon="10.99255196436384"><ele>543.0</ele><time>2026-04-15T10:58:21.001Z</time></trkpt><trkpt lat="45.52851499423464" lon="10.992552025302086"><ele>543.0</ele><time>2026-04-15T10:58:23.001Z</time></trkpt><trkpt lat="45.5285857123753" lon="10.992530536676153"><ele>543.0</ele><time>2026-04-15T10:58:25.001Z</time></trkpt><trkpt lat="45.52868331408272" lon="10.992582911138694"><ele>543.0</ele><time>2026-04-15T10:58:34.001Z</time></trkpt><trkpt lat="45.5287307082053" lon="10.992660459753102"><ele>543.0</ele><time>2026-04-15T10:58:35.001Z</time></trkpt><trkpt lat="45.52884394494875" lon="10.992731079169788"><ele>545.1666666666666</ele><time>2026-04-15T10:58:37.001Z</time></trkpt><trkpt lat="45.5289294312872" lon="10.992772498719765"><ele>547.3333333333334</ele><time>2026-04-15T10:58:38.001Z</time></trkpt><trkpt lat="45.52900331740827" lon="10.992824898158235"><ele>549.5</ele><time>2026-04-15T10:58:39.001Z</time></trkpt><trkpt lat="45.52907080701335" lon="10.992909047873864"><ele>551.6666666666667</ele><time>2026-04-15T10:58:40.001Z</time></trkpt><trkpt lat="45.52912583736288" lon="10.992996988011095"><ele>553.8333333333334</ele><time>2026-04-15T10:58:41.001Z</time></trkpt><trkpt lat="45.52917036753428" lon="10.99308115507335"><ele>556.0</ele><time>2026-04-15T10:58:42.001Z</time></trkpt><trkpt lat="45.52919926792384" lon="10.993183179223001"><ele>556.0</ele><time>2026-04-15T10:58:43.001Z</time></trkpt><trkpt lat="45.529225218244726" lon="10.99331971113521"><ele>556.0</ele><time>2026-04-15T10:58:44.001Z</time></trkpt><trkpt lat="45.52924418619279" lon="10.993442307226788"><ele>556.0</ele><time>2026-04-15T10:58:45.001Z</time></trkpt><trkpt lat="45.5292602741725" lon="10.993556045172673"><ele>556.0</ele><time>2026-04-15T10:58:46.001Z</time></trkpt><trkpt lat="45.52926996690717" lon="10.993676487179556"><ele>556.0</ele><time>2026-04-15T10:58:47.001Z</time></trkpt><trkpt lat="45.529276459657666" lon="10.993772062463846"><ele>556.0</ele><time>2026-04-15T10:58:48.001Z</time></trkpt><trkpt lat="45.529296111701804" lon="10.993870542472411"><ele>554.6666666666667</ele><time>2026-04-15T10:58:49.001Z</time></trkpt><trkpt lat="45.52929711876453" lon="10.994020990009428"><ele>553.3333333333334</ele><time>2026-04-15T10:58:51.001Z</time></trkpt><trkpt lat="45.529272896241395" lon="10.994116121595242"><ele>552.0</ele><time>2026-04-15T10:58:56.001Z</time></trkpt><trkpt lat="45.52925286567329" lon="10.994218524196475"><ele>550.6666666666666</ele><time>2026-04-15T10:59:13.001Z</time></trkpt><trkpt lat="45.529245663346096" lon="10.9943209179057"><ele>549.3333333333333</ele><time>2026-04-15T10:59:14.999Z</time></trkpt><trkpt lat="45.52922608348702" lon="10.994468162285088"><ele>548.0</ele><time>2026-04-15T10:59:16.999Z</time></trkpt><trkpt lat="45.52951850438812" lon="10.99459584553389"><ele>544.8333333333333</ele><time>2026-04-15T10:59:18.999Z</time></trkpt><trkpt lat="45.529645700464954" lon="10.994550327221189"><ele>541.6666666666666</ele><time>2026-04-15T10:59:20.999Z</time></trkpt><trkpt lat="45.52972033176838" lon="10.994502980686367"><ele>538.5</ele><time>2026-04-15T10:59:21.999Z</time></trkpt><trkpt lat="45.52980568710133" lon="10.994462508047278"><ele>535.3333333333334</ele><time>2026-04-15T10:59:22.999Z</time></trkpt><trkpt lat="45.529869458028756" lon="10.994423161054787"><ele>532.1666666666667</ele><time>2026-04-15T10:59:23.999Z</time></trkpt><trkpt lat="45.52992233241059" lon="10.994372581455158"><ele>529.0</ele><time>2026-04-15T10:59:24.999Z</time></trkpt><trkpt lat="45.52997602068492" lon="10.994317702105379"><ele>529.0</ele><time>2026-04-15T10:59:25.999Z</time></trkpt><trkpt lat="45.530020681957076" lon="10.99424518500972"><ele>529.0</ele><time>2026-04-15T10:59:26.999Z</time></trkpt><trkpt lat="45.530070958481026" lon="10.994185064860915"><ele>529.0</ele><time>2026-04-15T10:59:27.999Z</time></trkpt><trkpt lat="45.53018712426379" lon="10.994111824493304"><ele>529.0</ele><time>2026-04-15T10:59:30Z</time></trkpt><trkpt lat="45.530271858483665" lon="10.994049655113473"><ele>529.0</ele><time>2026-04-15T10:59:31Z</time></trkpt><trkpt lat="45.5303231997469" lon="10.993972347556983"><ele>529.0</ele><time>2026-04-15T10:59:32Z</time></trkpt><trkpt lat="45.53041262272416" lon="10.993914957091805"><ele>531.3333333333334</ele><time>2026-04-15T10:59:33Z</time></trkpt><trkpt lat="45.530486159521395" lon="10.993893549702328"><ele>533.6666666666667</ele><time>2026-04-15T10:59:34Z</time></trkpt><trkpt lat="45.53054978888736" lon="10.993867012651055"><ele>536.0</ele><time>2026-04-15T10:59:35Z</time></trkpt><trkpt lat="45.530599920267605" lon="10.993800473807976"><ele>538.3333333333334</ele><time>2026-04-15T10:59:36Z</time></trkpt><trkpt lat="45.530660228651236" lon="10.993712646132202"><ele>540.6666666666666</ele><time>2026-04-15T10:59:37Z</time></trkpt><trkpt lat="45.5307343264553" lon="10.993633175096635"><ele>543.0</ele><time>2026-04-15T10:59:38Z</time></trkpt><trkpt lat="45.530798822544796" lon="10.993585217649937"><ele>543.0</ele><time>2026-04-15T10:59:39Z</time></trkpt><trkpt lat="45.530849932397714" lon="10.99352021748204"><ele>543.0</ele><time>2026-04-15T10:59:42Z</time></trkpt><trkpt lat="45.530899378899" lon="10.993451478477175"><ele>543.0</ele><time>2026-04-15T10:59:43Z</time></trkpt><trkpt lat="45.53095900415925" lon="10.993384705731982"><ele>543.0</ele><time>2026-04-15T10:59:44Z</time></trkpt><trkpt lat="45.531030772606556" lon="10.993314152061519"><ele>543.0</ele><time>2026-04-15T10:59:45Z</time></trkpt><trkpt lat="45.53109310890149" lon="10.993241157701727"><ele>543.0</ele><time>2026-04-15T10:59:46Z</time></trkpt><trkpt lat="45.53115195438938" lon="10.993163763973412"><ele>543.8333333333334</ele><time>2026-04-15T10:59:47Z</time></trkpt><trkpt lat="45.53120493756713" lon="10.993089848884086"><ele>544.6666666666666</ele><time>2026-04-15T10:59:48Z</time></trkpt><trkpt lat="45.53127089105275" lon="10.993005640626158"><ele>545.5</ele><time>2026-04-15T10:59:49Z</time></trkpt><trkpt lat="45.53133181472957" lon="10.992918305026604"><ele>546.3333333333333</ele><time>2026-04-15T10:59:50Z</time></trkpt><trkpt lat="45.53137413222689" lon="10.992838415706979"><ele>547.1666666666666</ele><time>2026-04-15T10:59:51Z</time></trkpt><trkpt lat="45.53141751113201" lon="10.992744364057645"><ele>548.0</ele><time>2026-04-15T10:59:53Z</time></trkpt><trkpt lat="45.53145124098345" lon="10.992650994102666"><ele>548.0</ele><time>2026-04-15T10:59:56Z</time></trkpt><trkpt lat="45.53149496458619" lon="10.992520399364842"><ele>548.0</ele><time>2026-04-15T10:59:58Z</time></trkpt><trkpt lat="45.53154483272284" lon="10.992423050453707"><ele>548.0</ele><time>2026-04-15T11:00:00Z</time></trkpt><trkpt lat="45.531636684503674" lon="10.992376696408373"><ele>548.0</ele><time>2026-04-15T11:00:02Z</time></trkpt><trkpt lat="45.531718527672005" lon="10.992380546303826"><ele>548.0</ele><time>2026-04-15T11:00:03Z</time></trkpt><trkpt lat="45.53178687417155" lon="10.992408877830126"><ele>548.0</ele><time>2026-04-15T11:00:04Z</time></trkpt><trkpt lat="45.531857525493756" lon="10.992435124877781"><ele>548.0000000000001</ele><time>2026-04-15T11:00:05Z</time></trkpt><trkpt lat="45.531940488082505" lon="10.992455174354857"><ele>548.0</ele><time>2026-04-15T11:00:07Z</time></trkpt><trkpt lat="45.531978731438265" lon="10.992530107511685"><ele>548.0</ele><time>2026-04-15T11:00:11Z</time></trkpt><trkpt lat="45.53196001132041" lon="10.992619993005462"><ele>548.0</ele><time>2026-04-15T11:00:13Z</time></trkpt><trkpt lat="45.53196289376496" lon="10.992717205223"><ele>548.0</ele><time>2026-04-15T11:00:15Z</time></trkpt><trkpt lat="45.53203157703804" lon="10.992752417039025"><ele>548.0000000000001</ele><time>2026-04-15T11:00:17.001Z</time></trkpt><trkpt lat="45.53211887748531" lon="10.992752994606125"><ele>548.0</ele><time>2026-04-15T11:00:19.001Z</time></trkpt><trkpt lat="45.53222575792038" lon="10.99274470816066"><ele>544.6</ele><time>2026-04-15T11:00:21.001Z</time></trkpt><trkpt lat="45.53234378249863" lon="10.992742621438088"><ele>541.1999999999999</ele><time>2026-04-15T11:00:23.001Z</time></trkpt><trkpt lat="45.532451871585934" lon="10.99275391598637"><ele>537.8</ele><time>2026-04-15T11:00:25.001Z</time></trkpt><trkpt lat="45.532553945184375" lon="10.992750458458065"><ele>534.4</ele><time>2026-04-15T11:00:27.001Z</time></trkpt><trkpt lat="45.53264673732611" lon="10.992766014251645"><ele>531.0</ele><time>2026-04-15T11:00:29.001Z</time></trkpt><trkpt lat="45.53276060528339" lon="10.992789112357036"><ele>531.0</ele><time>2026-04-15T11:00:31.001Z</time></trkpt><trkpt lat="45.53282747563887" lon="10.992809968490079"><ele>531.0</ele><time>2026-04-15T11:00:32.001Z</time></trkpt><trkpt lat="45.53291728577096" lon="10.992810940135762"><ele>531.0</ele><time>2026-04-15T11:00:34.001Z</time></trkpt><trkpt lat="45.53301806996629" lon="10.992808463093796"><ele>531.0</ele><time>2026-04-15T11:00:36.001Z</time></trkpt><trkpt lat="45.53308810151175" lon="10.992814567222311"><ele>531.0</ele><time>2026-04-15T11:00:37.001Z</time></trkpt><trkpt lat="45.533154108005846" lon="10.992806446900106"><ele>531.0</ele><time>2026-04-15T11:00:38.001Z</time></trkpt><trkpt lat="45.53322018326705" lon="10.992807485070744"><ele>527.3333333333334</ele><time>2026-04-15T11:00:39.001Z</time></trkpt><trkpt lat="45.53330009930141" lon="10.992788869341332"><ele>523.6666666666666</ele><time>2026-04-15T11:00:40.001Z</time></trkpt><trkpt lat="45.53337031363148" lon="10.99277092193798"><ele>520.0</ele><time>2026-04-15T11:00:41.001Z</time></trkpt><trkpt lat="45.5334312793771" lon="10.992747037677"><ele>516.3333333333333</ele><time>2026-04-15T11:00:42.001Z</time></trkpt><trkpt lat="45.5335133651232" lon="10.992746624566585"><ele>512.6666666666666</ele><time>2026-04-15T11:00:44.001Z</time></trkpt><trkpt lat="45.5336015525295" lon="10.99273247971336"><ele>509.0</ele><time>2026-04-15T11:00:46.001Z</time></trkpt><trkpt lat="45.533683402690215" lon="10.99272971202473"><ele>506.66666666666663</ele><time>2026-04-15T11:00:47.001Z</time></trkpt><trkpt lat="45.533762684447645" lon="10.992721416206196"><ele>504.3333333333333</ele><time>2026-04-15T11:00:48.001Z</time></trkpt><trkpt lat="45.53382512312958" lon="10.992706748829779"><ele>502.0</ele><time>2026-04-15T11:00:49.001Z</time></trkpt><trkpt lat="45.53390104683704" lon="10.9927041965315"><ele>499.66666666666663</ele><time>2026-04-15T11:00:50.001Z</time></trkpt><trkpt lat="45.53397689988245" lon="10.99270862738793"><ele>497.3333333333333</ele><time>2026-04-15T11:00:51.001Z</time></trkpt><trkpt lat="45.534046684010484" lon="10.992699160250709"><ele>495.0</ele><time>2026-04-15T11:00:52.001Z</time></trkpt><trkpt lat="45.53413479314289" lon="10.99270726269859"><ele>495.0</ele><time>2026-04-15T11:00:54.001Z</time></trkpt><trkpt lat="45.5341964056619" lon="10.992753917610989"><ele>495.0</ele><time>2026-04-15T11:00:55.001Z</time></trkpt><trkpt lat="45.534260781538435" lon="10.992785257363389"><ele>495.0</ele><time>2026-04-15T11:00:56.001Z</time></trkpt><trkpt lat="45.53432548740645" lon="10.992797487144317"><ele>495.0</ele><time>2026-04-15T11:00:57.001Z</time></trkpt><trkpt lat="45.53440415797923" lon="10.99282676679009"><ele>495.0</ele><time>2026-04-15T11:00:58.001Z</time></trkpt><trkpt lat="45.53453948665377" lon="10.992789404730487"><ele>495.0</ele><time>2026-04-15T11:01:00.001Z</time></trkpt><trkpt lat="45.53461284332502" lon="10.99276699495435"><ele>493.0</ele><time>2026-04-15T11:01:01.001Z</time></trkpt><trkpt lat="45.53468507542674" lon="10.992765222397182"><ele>491.0</ele><time>2026-04-15T11:01:02.001Z</time></trkpt><trkpt lat="45.53478640858334" lon="10.99278176456093"><ele>489.0</ele><time>2026-04-15T11:01:04.001Z</time></trkpt><trkpt lat="45.53489297215439" lon="10.99274102574613"><ele>487.0</ele><time>2026-04-15T11:01:06.001Z</time></trkpt><trkpt lat="45.53497212614925" lon="10.992715362135014"><ele>485.0</ele><time>2026-04-15T11:01:07.001Z</time></trkpt><trkpt lat="45.5350463310031" lon="10.992706500892213"><ele>483.0</ele><time>2026-04-15T11:01:08.001Z</time></trkpt><trkpt lat="45.53515776824396" lon="10.992707691526366"><ele>483.0</ele><time>2026-04-15T11:01:10.001Z</time></trkpt><trkpt lat="45.535219384487036" lon="10.992734058561062"><ele>482.99999999999994</ele><time>2026-04-15T11:01:11.001Z</time></trkpt><trkpt lat="45.53530528358547" lon="10.992795073990703"><ele>482.99999999999994</ele><time>2026-04-15T11:01:25Z</time></trkpt><trkpt lat="45.53539407826069" lon="10.99282028984742"><ele>483.0</ele><time>2026-04-15T11:01:27Z</time></trkpt><trkpt lat="45.53549824773597" lon="10.992785853173167"><ele>483.0</ele><time>2026-04-15T11:01:29Z</time></trkpt><trkpt lat="45.53561151087079" lon="10.992750898874489"><ele>480.5</ele><time>2026-04-15T11:01:31Z</time></trkpt><trkpt lat="45.535680314570534" lon="10.992716539748933"><ele>478.0</ele><time>2026-04-15T11:01:33Z</time></trkpt><trkpt lat="45.53574938883221" lon="10.992705822894564"><ele>475.5</ele><time>2026-04-15T11:01:35Z</time></trkpt><trkpt lat="45.53583291121939" lon="10.992635761745374"><ele>473.0</ele><time>2026-04-15T11:01:37Z</time></trkpt><trkpt lat="45.535899912133566" lon="10.992618735682058"><ele>470.5</ele><time>2026-04-15T11:01:45Z</time></trkpt><trkpt lat="45.53597595853354" lon="10.992570662417581"><ele>468.0</ele><time>2026-04-15T11:01:49Z</time></trkpt><trkpt lat="45.536057059436246" lon="10.992557768250053"><ele>468.0</ele><time>2026-04-15T11:01:51Z</time></trkpt><trkpt lat="45.53612309747321" lon="10.992510595479152"><ele>468.0</ele><time>2026-04-15T11:01:54Z</time></trkpt><trkpt lat="45.536190142009254" lon="10.992438730554477"><ele>468.0</ele><time>2026-04-15T11:01:58Z</time></trkpt><trkpt lat="45.5362402542455" lon="10.992364530617122"><ele>468.0</ele><time>2026-04-15T11:02:00Z</time></trkpt><trkpt lat="45.536275427389846" lon="10.992221298104067"><ele>468.0</ele><time>2026-04-15T11:02:03Z</time></trkpt><trkpt lat="45.536327497975876" lon="10.99214059041076"><ele>468.0</ele><time>2026-04-15T11:02:06Z</time></trkpt><trkpt lat="45.53638527200717" lon="10.99207682746788"><ele>468.6666666666667</ele><time>2026-04-15T11:02:10.001Z</time></trkpt><trkpt lat="45.536427306841205" lon="10.991996520159764"><ele>469.33333333333337</ele><time>2026-04-15T11:02:12.001Z</time></trkpt><trkpt lat="45.53646001552993" lon="10.991914202383345"><ele>470.0</ele><time>2026-04-15T11:02:15.001Z</time></trkpt><trkpt lat="45.53649388425226" lon="10.991811466508945"><ele>470.6666666666667</ele><time>2026-04-15T11:02:18.001Z</time></trkpt><trkpt lat="45.536557188822044" lon="10.991734396901784"><ele>471.33333333333337</ele><time>2026-04-15T11:02:21.001Z</time></trkpt><trkpt lat="45.53655411358213" lon="10.991620018824271"><ele>472.0</ele><time>2026-04-15T11:02:25.001Z</time></trkpt><trkpt lat="45.536518942848964" lon="10.991518318119393"><ele>472.6666666666667</ele><time>2026-04-15T11:02:27.001Z</time></trkpt><trkpt lat="45.53648379668023" lon="10.9914418749262"><ele>473.33333333333337</ele><time>2026-04-15T11:02:29.001Z</time></trkpt><trkpt lat="45.53644810631205" lon="10.99132231632551"><ele>474.0</ele><time>2026-04-15T11:02:32.001Z</time></trkpt><trkpt lat="45.5363728521887" lon="10.991190159955497"><ele>474.66666666666663</ele><time>2026-04-15T11:02:34.001Z</time></trkpt><trkpt lat="45.536331777478495" lon="10.991097155975904"><ele>475.3333333333333</ele><time>2026-04-15T11:02:36.001Z</time></trkpt><trkpt lat="45.536298590939225" lon="10.991002844122326"><ele>476.0</ele><time>2026-04-15T11:02:38.001Z</time></trkpt><trkpt lat="45.53630738510788" lon="10.990846116898071"><ele>476.20000000000005</ele><time>2026-04-15T11:02:42.001Z</time></trkpt><trkpt lat="45.536338462971145" lon="10.990722211990557"><ele>476.40000000000003</ele><time>2026-04-15T11:02:45.001Z</time></trkpt><trkpt lat="45.53637960423668" lon="10.9905847391065"><ele>476.6</ele><time>2026-04-15T11:02:48.001Z</time></trkpt><trkpt lat="45.53641995833036" lon="10.990446589542591"><ele>476.8</ele><time>2026-04-15T11:02:50.001Z</time></trkpt><trkpt lat="45.536454070891956" lon="10.990306717232354"><ele>477.0</ele><time>2026-04-15T11:02:53.001Z</time></trkpt><trkpt lat="45.53646828452243" lon="10.99020103652683"><ele>477.0</ele><time>2026-04-15T11:02:55.001Z</time></trkpt><trkpt lat="45.53652359135521" lon="10.990123547518172"><ele>476.99999999999994</ele><time>2026-04-15T11:02:57.001Z</time></trkpt><trkpt lat="45.53655520947971" lon="10.99003807604314"><ele>477.0</ele><time>2026-04-15T11:03:00.001Z</time></trkpt><trkpt lat="45.53656369298079" lon="10.98992578753434"><ele>477.0</ele><time>2026-04-15T11:03:10.002Z</time></trkpt><trkpt lat="45.536595934182905" lon="10.989832806949412"><ele>476.99999999999994</ele><time>2026-04-15T11:03:17.002Z</time></trkpt><trkpt lat="45.53663305721537" lon="10.98973931707001"><ele>477.0</ele><time>2026-04-15T11:03:22.002Z</time></trkpt><trkpt lat="45.53669767973679" lon="10.989715096157592"><ele>477.0</ele><time>2026-04-15T11:03:25.002Z</time></trkpt><trkpt lat="45.53674768627454" lon="10.98964896772899"><ele>479.0</ele><time>2026-04-15T11:03:28Z</time></trkpt><trkpt lat="45.536807927270104" lon="10.989509503007843"><ele>481.0</ele><time>2026-04-15T11:03:32Z</time></trkpt><trkpt lat="45.53683926651021" lon="10.989428707872415"><ele>483.0</ele><time>2026-04-15T11:03:33Z</time></trkpt><trkpt lat="45.53687197080119" lon="10.989337552939602"><ele>485.0</ele><time>2026-04-15T11:03:35Z</time></trkpt><trkpt lat="45.536925677883794" lon="10.989261186515677"><ele>487.0</ele><time>2026-04-15T11:03:44Z</time></trkpt><trkpt lat="45.53697194855232" lon="10.989198950032993"><ele>489.0</ele><time>2026-04-15T11:03:47Z</time></trkpt><trkpt lat="45.53700218574872" lon="10.989100500759964"><ele>486.8333333333333</ele><time>2026-04-15T11:03:49Z</time></trkpt><trkpt lat="45.53705496936179" lon="10.989041831226007"><ele>484.66666666666663</ele><time>2026-04-15T11:03:55Z</time></trkpt><trkpt lat="45.53712500256351" lon="10.988964090312976"><ele>482.5</ele><time>2026-04-15T11:03:57Z</time></trkpt><trkpt lat="45.53720663040235" lon="10.988871746553073"><ele>480.3333333333333</ele><time>2026-04-15T11:03:59.001Z</time></trkpt><trkpt lat="45.53725297513004" lon="10.98879649605583"><ele>478.16666666666663</ele><time>2026-04-15T11:04:01.001Z</time></trkpt><trkpt lat="45.53732193007486" lon="10.988660457056984"><ele>476.0</ele><time>2026-04-15T11:04:03.001Z</time></trkpt><trkpt lat="45.53737243944699" lon="10.988582746141605"><ele>476.0</ele><time>2026-04-15T11:04:04.001Z</time></trkpt><trkpt lat="45.53742077622917" lon="10.988497642133817"><ele>476.0</ele><time>2026-04-15T11:04:05.001Z</time></trkpt><trkpt lat="45.53747670376357" lon="10.988440076699337"><ele>476.0</ele><time>2026-04-15T11:04:06.001Z</time></trkpt><trkpt lat="45.53753157232019" lon="10.988331548677765"><ele>476.0</ele><time>2026-04-15T11:04:08.001Z</time></trkpt><trkpt lat="45.537556593243906" lon="10.988237378502534"><ele>476.0</ele><time>2026-04-15T11:04:12.001Z</time></trkpt><trkpt lat="45.53760645194177" lon="10.988178724782413"><ele>476.0</ele><time>2026-04-15T11:04:20.001Z</time></trkpt><trkpt lat="45.53764452742119" lon="10.988103181427475"><ele>476.0</ele><time>2026-04-15T11:04:32.001Z</time></trkpt><trkpt lat="45.53766534587547" lon="10.987974572734524"><ele>477.66666666666663</ele><time>2026-04-15T11:04:36.001Z</time></trkpt><trkpt lat="45.53770231861104" lon="10.987889190656709"><ele>479.3333333333333</ele><time>2026-04-15T11:04:38.001Z</time></trkpt><trkpt lat="45.53772738693274" lon="10.987782262806332"><ele>481.0</ele><time>2026-04-15T11:04:40.001Z</time></trkpt><trkpt lat="45.53776586274415" lon="10.987698323196897"><ele>482.66666666666663</ele><time>2026-04-15T11:04:46.001Z</time></trkpt><trkpt lat="45.53782957316396" lon="10.98763460234131"><ele>484.3333333333333</ele><time>2026-04-15T11:04:48.001Z</time></trkpt><trkpt lat="45.537880862581204" lon="10.987582268166829"><ele>486.0</ele><time>2026-04-15T11:04:49.001Z</time></trkpt><trkpt lat="45.53793952666967" lon="10.987466605532463"><ele>486.0</ele><time>2026-04-15T11:04:51.001Z</time></trkpt><trkpt lat="45.53788790359044" lon="10.987293131496628"><ele>486.0</ele><time>2026-04-15T11:04:53.001Z</time></trkpt><trkpt lat="45.53788929053857" lon="10.987172744200935"><ele>486.0</ele><time>2026-04-15T11:04:54.001Z</time></trkpt><trkpt lat="45.53791761529467" lon="10.987057925304377"><ele>486.0</ele><time>2026-04-15T11:04:55.001Z</time></trkpt><trkpt lat="45.53795050765248" lon="10.986957237887594"><ele>486.0</ele><time>2026-04-15T11:04:56.001Z</time></trkpt><trkpt lat="45.53798414295099" lon="10.986817150840151"><ele>486.0</ele><time>2026-04-15T11:04:57.001Z</time></trkpt><trkpt lat="45.537979682657294" lon="10.986678325104997"><ele>486.0</ele><time>2026-04-15T11:04:58.001Z</time></trkpt><trkpt lat="45.53797158562472" lon="10.986551864282847"><ele>486.0</ele><time>2026-04-15T11:04:59.001Z</time></trkpt><trkpt lat="45.53797372823012" lon="10.986398409780277"><ele>486.0</ele><time>2026-04-15T11:05:00.001Z</time></trkpt><trkpt lat="45.53798225966463" lon="10.986270040690668"><ele>486.0</ele><time>2026-04-15T11:05:01.001Z</time></trkpt><trkpt lat="45.537980084731174" lon="10.986173587231308"><ele>488.20000000000005</ele><time>2026-04-15T11:05:02.001Z</time></trkpt><trkpt lat="45.53793763088104" lon="10.986066552105076"><ele>490.40000000000003</ele><time>2026-04-15T11:05:03.001Z</time></trkpt><trkpt lat="45.53787378250039" lon="10.985971241625663"><ele>492.6</ele><time>2026-04-15T11:05:04.001Z</time></trkpt><trkpt lat="45.537797749891055" lon="10.985865197831629"><ele>494.8</ele><time>2026-04-15T11:05:05.002Z</time></trkpt><trkpt lat="45.53771259999059" lon="10.985733710619384"><ele>497.0</ele><time>2026-04-15T11:05:06.002Z</time></trkpt><trkpt lat="45.53761540282171" lon="10.985598504959972"><ele>502.0</ele><time>2026-04-15T11:05:07.002Z</time></trkpt><trkpt lat="45.537540720266364" lon="10.985488976332787"><ele>507.00000000000006</ele><time>2026-04-15T11:05:08.002Z</time></trkpt><trkpt lat="45.53747320319174" lon="10.98541482133155"><ele>512.0</ele><time>2026-04-15T11:05:09.002Z</time></trkpt><trkpt lat="45.537398891541685" lon="10.985319528721579"><ele>517.0</ele><time>2026-04-15T11:05:10.002Z</time></trkpt><trkpt lat="45.53734453915904" lon="10.985204040947398"><ele>522.0</ele><time>2026-04-15T11:05:11.002Z</time></trkpt><trkpt lat="45.537285457587245" lon="10.985074045321008"><ele>520.0</ele><time>2026-04-15T11:05:12.002Z</time></trkpt><trkpt lat="45.53725847947415" lon="10.984952391400588"><ele>518.0</ele><time>2026-04-15T11:05:13.002Z</time></trkpt><trkpt lat="45.53723166431986" lon="10.984843925223764"><ele>516.0</ele><time>2026-04-15T11:05:14.002Z</time></trkpt><trkpt lat="45.5372224816087" lon="10.984664426684882"><ele>514.0</ele><time>2026-04-15T11:05:16.002Z</time></trkpt><trkpt lat="45.53720648130156" lon="10.984542779440444"><ele>512.0</ele><time>2026-04-15T11:05:17.002Z</time></trkpt><trkpt lat="45.53721218500017" lon="10.98439811819677"><ele>511.99999999999994</ele><time>2026-04-15T11:05:18.002Z</time></trkpt><trkpt lat="45.53722502824248" lon="10.984282986856918"><ele>512.0</ele><time>2026-04-15T11:05:19.002Z</time></trkpt><trkpt lat="45.537222638760255" lon="10.98418128892936"><ele>512.0</ele><time>2026-04-15T11:05:20.002Z</time></trkpt><trkpt lat="45.53728499422978" lon="10.984054947669346"><ele>512.0</ele><time>2026-04-15T11:05:22.002Z</time></trkpt><trkpt lat="45.537346138106614" lon="10.983980288616191"><ele>511.99999999999994</ele><time>2026-04-15T11:05:23.002Z</time></trkpt><trkpt lat="45.53739130939095" lon="10.98390406296187"><ele>512.0</ele><time>2026-04-15T11:05:24.002Z</time></trkpt><trkpt lat="45.537425783828056" lon="10.98378392229648"><ele>511.99999999999994</ele><time>2026-04-15T11:05:25.002Z</time></trkpt><trkpt lat="45.53744653040955" lon="10.983675887174964"><ele>512.0</ele><time>2026-04-15T11:05:26.002Z</time></trkpt><trkpt lat="45.53751640977066" lon="10.98353186019237"><ele>512.0</ele><time>2026-04-15T11:05:28.002Z</time></trkpt><trkpt lat="45.53758255625397" lon="10.983464596367781"><ele>512.0</ele><time>2026-04-15T11:05:29.002Z</time></trkpt><trkpt lat="45.537648953018945" lon="10.983414353723601"><ele>511.99999999999994</ele><time>2026-04-15T11:05:30.002Z</time></trkpt><trkpt lat="45.537709057143054" lon="10.983339685283935"><ele>512.0</ele><time>2026-04-15T11:05:31.002Z</time></trkpt><trkpt lat="45.53775654957212" lon="10.983259325924433"><ele>515.8000000000001</ele><time>2026-04-15T11:05:32.002Z</time></trkpt><trkpt lat="45.537789080475825" lon="10.983158283142062"><ele>519.6</ele><time>2026-04-15T11:05:33.001Z</time></trkpt><trkpt lat="45.53782205753786" lon="10.983039452272493"><ele>523.4000000000001</ele><time>2026-04-15T11:05:34.001Z</time></trkpt><trkpt lat="45.53784270283698" lon="10.982911845641977"><ele>527.2</ele><time>2026-04-15T11:05:36.001Z</time></trkpt><trkpt lat="45.53786303592002" lon="10.98277853963784"><ele>531.0</ele><time>2026-04-15T11:05:39.001Z</time></trkpt><trkpt lat="45.537884235370356" lon="10.982634257643902"><ele>534.0</ele><time>2026-04-15T11:05:41.001Z</time></trkpt><trkpt lat="45.537901474766464" lon="10.98246114971228"><ele>537.0</ele><time>2026-04-15T11:05:43.001Z</time></trkpt><trkpt lat="45.53788195476706" lon="10.982357759197294"><ele>540.0</ele><time>2026-04-15T11:05:44.001Z</time></trkpt><trkpt lat="45.53786074029809" lon="10.982242633344184"><ele>543.0</ele><time>2026-04-15T11:05:45.001Z</time></trkpt><trkpt lat="45.537806571843" lon="10.98213652881671"><ele>546.0</ele><time>2026-04-15T11:05:46Z</time></trkpt><trkpt lat="45.5377855373221" lon="10.982022800518058"><ele>546.0</ele><time>2026-04-15T11:05:47Z</time></trkpt><trkpt lat="45.53780477098425" lon="10.981867723311293"><ele>546.0</ele><time>2026-04-15T11:05:49Z</time></trkpt><trkpt lat="45.537890166016055" lon="10.98177815532364"><ele>546.0</ele><time>2026-04-15T11:05:52Z</time></trkpt><trkpt lat="45.537995343455776" lon="10.981744454635422"><ele>546.0</ele><time>2026-04-15T11:05:54Z</time></trkpt><trkpt lat="45.538116533075645" lon="10.981701366873272"><ele>546.0</ele><time>2026-04-15T11:05:55Z</time></trkpt><trkpt lat="45.538217583694625" lon="10.981670776898815"><ele>542.2</ele><time>2026-04-15T11:05:56Z</time></trkpt><trkpt lat="45.53832267603359" lon="10.981652338617291"><ele>538.4000000000001</ele><time>2026-04-15T11:05:57Z</time></trkpt><trkpt lat="45.53842080073038" lon="10.981650482539138"><ele>534.6</ele><time>2026-04-15T11:05:58Z</time></trkpt><trkpt lat="45.53851942917689" lon="10.981629724901026"><ele>530.8000000000001</ele><time>2026-04-15T11:05:59.001Z</time></trkpt><trkpt lat="45.53861879451981" lon="10.981594836548469"><ele>527.0</ele><time>2026-04-15T11:06:00.001Z</time></trkpt><trkpt lat="45.538720459201684" lon="10.98157998520976"><ele>524.4</ele><time>2026-04-15T11:06:01.001Z</time></trkpt><trkpt lat="45.53884511404259" lon="10.981547757141321"><ele>521.8000000000001</ele><time>2026-04-15T11:06:02.001Z</time></trkpt><trkpt lat="45.53896490946603" lon="10.981501674062063"><ele>519.2</ele><time>2026-04-15T11:06:03.001Z</time></trkpt><trkpt lat="45.53905303923738" lon="10.981450047851274"><ele>516.6</ele><time>2026-04-15T11:06:04.001Z</time></trkpt><trkpt lat="45.53914071969426" lon="10.981384242336242"><ele>514.0</ele><time>2026-04-15T11:06:05.001Z</time></trkpt><trkpt lat="45.539235131242506" lon="10.981360645176292"><ele>514.0</ele><time>2026-04-15T11:06:06.001Z</time></trkpt><trkpt lat="45.53934430967352" lon="10.98135118871792"><ele>514.0</ele><time>2026-04-15T11:06:07.001Z</time></trkpt><trkpt lat="45.53944994925536" lon="10.981318634453096"><ele>514.0</ele><time>2026-04-15T11:06:08.001Z</time></trkpt><trkpt lat="45.53953570914751" lon="10.981266538981215"><ele>514.0</ele><time>2026-04-15T11:06:09.001Z</time></trkpt><trkpt lat="45.53961455916065" lon="10.981199570424979"><ele>514.0</ele><time>2026-04-15T11:06:10.001Z</time></trkpt><trkpt lat="45.53968148656757" lon="10.981142075826583"><ele>514.2</ele><time>2026-04-15T11:06:11.001Z</time></trkpt><trkpt lat="45.539736234893795" lon="10.98107283291403"><ele>514.4</ele><time>2026-04-15T11:06:12.001Z</time></trkpt><trkpt lat="45.539786819130285" lon="10.980991607259627"><ele>514.6</ele><time>2026-04-15T11:06:13.001Z</time></trkpt><trkpt lat="45.539889384567566" lon="10.980846357784916"><ele>514.8</ele><time>2026-04-15T11:06:15.001Z</time></trkpt><trkpt lat="45.53994835783749" lon="10.980770319369482"><ele>515.0</ele><time>2026-04-15T11:06:16.001Z</time></trkpt><trkpt lat="45.540007777383515" lon="10.980650277664477"><ele>515.0</ele><time>2026-04-15T11:06:17.001Z</time></trkpt><trkpt lat="45.54006269848628" lon="10.980527604256258"><ele>515.0</ele><time>2026-04-15T11:06:18.001Z</time></trkpt><trkpt lat="45.54009799242751" lon="10.98041004648596"><ele>515.0</ele><time>2026-04-15T11:06:19.001Z</time></trkpt><trkpt lat="45.54011740363215" lon="10.980316149436735"><ele>515.0</ele><time>2026-04-15T11:06:20.001Z</time></trkpt><trkpt lat="45.540133080181846" lon="10.980209100709695"><ele>515.0</ele><time>2026-04-15T11:06:21.001Z</time></trkpt><trkpt lat="45.5401513701837" lon="10.980109870940952"><ele>515.0</ele><time>2026-04-15T11:06:22.001Z</time></trkpt><trkpt lat="45.54018872227196" lon="10.979994084274846"><ele>518.2</ele><time>2026-04-15T11:06:23.001Z</time></trkpt><trkpt lat="45.54024464340107" lon="10.979884057699064"><ele>521.4</ele><time>2026-04-15T11:06:24.001Z</time></trkpt><trkpt lat="45.540294330529036" lon="10.97974993230717"><ele>524.6</ele><time>2026-04-15T11:06:25.001Z</time></trkpt><trkpt lat="45.54033224927779" lon="10.979653654540376"><ele>527.8</ele><time>2026-04-15T11:06:26.001Z</time></trkpt><trkpt lat="45.54038599549812" lon="10.979502038116088"><ele>531.0</ele><time>2026-04-15T11:06:28.001Z</time></trkpt><trkpt lat="45.54043710788532" lon="10.979416482216648"><ele>524.0</ele><time>2026-04-15T11:06:29.001Z</time></trkpt><trkpt lat="45.540477037408195" lon="10.979336415152531"><ele>517.0</ele><time>2026-04-15T11:06:30.001Z</time></trkpt><trkpt lat="45.54051383393665" lon="10.979258729467215"><ele>510.0</ele><time>2026-04-15T11:06:31.001Z</time></trkpt><trkpt lat="45.540555909144224" lon="10.979165162906911"><ele>503.0</ele><time>2026-04-15T11:06:32.001Z</time></trkpt><trkpt lat="45.540578994953265" lon="10.97907465403253"><ele>496.0</ele><time>2026-04-15T11:06:33.001Z</time></trkpt><trkpt lat="45.54064610653009" lon="10.978920075775887"><ele>489.0</ele><time>2026-04-15T11:06:35.001Z</time></trkpt><trkpt lat="45.54068669227718" lon="10.978848047072319"><ele>489.0</ele><time>2026-04-15T11:06:36.001Z</time></trkpt><trkpt lat="45.54072888033799" lon="10.978736275037967"><ele>489.0</ele><time>2026-04-15T11:06:37.001Z</time></trkpt><trkpt lat="45.540764362233865" lon="10.978645504746373"><ele>489.0</ele><time>2026-04-15T11:06:38.001Z</time></trkpt><trkpt lat="45.54079796996639" lon="10.978531372832608"><ele>489.0</ele><time>2026-04-15T11:06:39.001Z</time></trkpt><trkpt lat="45.54082616562868" lon="10.978428520700685"><ele>489.0</ele><time>2026-04-15T11:06:40.001Z</time></trkpt><trkpt lat="45.54085321962435" lon="10.978301231028633"><ele>489.0</ele><time>2026-04-15T11:06:41.001Z</time></trkpt><trkpt lat="45.54087773077225" lon="10.978169114553305"><ele>490.5</ele><time>2026-04-15T11:06:42.001Z</time></trkpt><trkpt lat="45.54088421876778" lon="10.978063258806282"><ele>492.0</ele><time>2026-04-15T11:06:43.001Z</time></trkpt><trkpt lat="45.54085379643781" lon="10.977942545469272"><ele>493.5</ele><time>2026-04-15T11:06:45.001Z</time></trkpt><trkpt lat="45.54087992144316" lon="10.977815806946266"><ele>495.0</ele><time>2026-04-15T11:06:47.001Z</time></trkpt><trkpt lat="45.54097702071855" lon="10.977844735529942"><ele>496.5</ele><time>2026-04-15T11:06:49.001Z</time></trkpt><trkpt lat="45.54102949391554" lon="10.977905175571479"><ele>498.0</ele><time>2026-04-15T11:06:50.001Z</time></trkpt><trkpt lat="45.54111115805301" lon="10.977988865168221"><ele>498.0</ele><time>2026-04-15T11:06:51.001Z</time></trkpt><trkpt lat="45.54119595472166" lon="10.978061460053933"><ele>498.0</ele><time>2026-04-15T11:06:52.001Z</time></trkpt><trkpt lat="45.54127306208459" lon="10.9781314788823"><ele>498.0</ele><time>2026-04-15T11:06:53.001Z</time></trkpt><trkpt lat="45.54133204430985" lon="10.978193312478973"><ele>498.0</ele><time>2026-04-15T11:06:54.001Z</time></trkpt><trkpt lat="45.54141632859345" lon="10.978212155602082"><ele>498.0</ele><time>2026-04-15T11:06:55.001Z</time></trkpt><trkpt lat="45.541499691562365" lon="10.978186533313425"><ele>498.0</ele><time>2026-04-15T11:06:56.001Z</time></trkpt><trkpt lat="45.541608343813365" lon="10.978150480103599"><ele>494.0</ele><time>2026-04-15T11:06:57.001Z</time></trkpt><trkpt lat="45.54169830713699" lon="10.978098051398414"><ele>489.99999999999994</ele><time>2026-04-15T11:06:58.001Z</time></trkpt><trkpt lat="45.54177385558071" lon="10.978081498635866"><ele>485.99999999999994</ele><time>2026-04-15T11:06:59.001Z</time></trkpt><trkpt lat="45.54185386574602" lon="10.978083553010732"><ele>482.0</ele><time>2026-04-15T11:07:00.001Z</time></trkpt><trkpt lat="45.54196466074434" lon="10.978095264986353"><ele>478.0</ele><time>2026-04-15T11:07:01.001Z</time></trkpt><trkpt lat="45.54205071766299" lon="10.978091702295977"><ele>476.6666666666667</ele><time>2026-04-15T11:07:02.001Z</time></trkpt><trkpt lat="45.54213132124324" lon="10.978058950402623"><ele>475.33333333333337</ele><time>2026-04-15T11:07:03.001Z</time></trkpt><trkpt lat="45.54218600024072" lon="10.977994400313056"><ele>474.0</ele><time>2026-04-15T11:07:04.001Z</time></trkpt><trkpt lat="45.54226789854701" lon="10.977928885074808"><ele>472.66666666666663</ele><time>2026-04-15T11:07:05.001Z</time></trkpt><trkpt lat="45.542359325205844" lon="10.977874775163352"><ele>471.3333333333333</ele><time>2026-04-15T11:07:06.001Z</time></trkpt><trkpt lat="45.542450916680195" lon="10.97782931836036"><ele>470.0</ele><time>2026-04-15T11:07:07.001Z</time></trkpt><trkpt lat="45.54251074228082" lon="10.977779474762201"><ele>469.99999999999994</ele><time>2026-04-15T11:07:08.001Z</time></trkpt><trkpt lat="45.542574690914115" lon="10.977705231291115"><ele>470.0</ele><time>2026-04-15T11:07:09.001Z</time></trkpt><trkpt lat="45.54265462687417" lon="10.977629582592558"><ele>470.0</ele><time>2026-04-15T11:07:10.001Z</time></trkpt><trkpt lat="45.542721364437234" lon="10.977569904480134"><ele>470.0</ele><time>2026-04-15T11:07:11.001Z</time></trkpt><trkpt lat="45.54277048225651" lon="10.97749546075397"><ele>469.99999999999994</ele><time>2026-04-15T11:07:12.001Z</time></trkpt><trkpt lat="45.54282365034932" lon="10.977349050565927"><ele>470.0</ele><time>2026-04-15T11:07:14.001Z</time></trkpt><trkpt lat="45.54292457292551" lon="10.977368682980348"><ele>472.66666666666663</ele><time>2026-04-15T11:07:16.001Z</time></trkpt><trkpt lat="45.54295970991511" lon="10.977449133042992"><ele>475.3333333333333</ele><time>2026-04-15T11:07:17.001Z</time></trkpt><trkpt lat="45.54297807028401" lon="10.977545316707058"><ele>478.0</ele><time>2026-04-15T11:07:18.001Z</time></trkpt><trkpt lat="45.54298544960655" lon="10.97765523030013"><ele>480.66666666666663</ele><time>2026-04-15T11:07:19.002Z</time></trkpt><trkpt lat="45.54301389131882" lon="10.977762090930467"><ele>483.3333333333333</ele><time>2026-04-15T11:07:20.002Z</time></trkpt><trkpt lat="45.54304535487074" lon="10.977871311784197"><ele>486.0</ele><time>2026-04-15T11:07:21.002Z</time></trkpt><trkpt lat="45.5431053973992" lon="10.977977713848787"><ele>486.0</ele><time>2026-04-15T11:07:22.002Z</time></trkpt><trkpt lat="45.5431767991085" lon="10.978096709536198"><ele>486.0</ele><time>2026-04-15T11:07:23.002Z</time></trkpt><trkpt lat="45.54325116734371" lon="10.97821562665819"><ele>486.0</ele><time>2026-04-15T11:07:24.002Z</time></trkpt><trkpt lat="45.54331645196051" lon="10.97834469666167"><ele>486.0</ele><time>2026-04-15T11:07:25.002Z</time></trkpt><trkpt lat="45.54337272707848" lon="10.97846114792441"><ele>486.0</ele><time>2026-04-15T11:07:26.002Z</time></trkpt><trkpt lat="45.54343364263712" lon="10.978561496242644"><ele>484.6666666666667</ele><time>2026-04-15T11:07:27.002Z</time></trkpt><trkpt lat="45.54348988985804" lon="10.978673905924715"><ele>483.33333333333337</ele><time>2026-04-15T11:07:28.002Z</time></trkpt><trkpt lat="45.54352388610082" lon="10.97878357153947"><ele>482.0</ele><time>2026-04-15T11:07:29.002Z</time></trkpt><trkpt lat="45.54355538534656" lon="10.978898226941176"><ele>480.6666666666667</ele><time>2026-04-15T11:07:30.002Z</time></trkpt><trkpt lat="45.54357381971768" lon="10.979015311213326"><ele>479.33333333333337</ele><time>2026-04-15T11:07:31.002Z</time></trkpt><trkpt lat="45.543596711990084" lon="10.979117359455044"><ele>478.0</ele><time>2026-04-15T11:07:32.002Z</time></trkpt><trkpt lat="45.543662888823306" lon="10.97927416246412"><ele>477.33333333333337</ele><time>2026-04-15T11:07:34.002Z</time></trkpt><trkpt lat="45.54371346652707" lon="10.979364031501811"><ele>476.6666666666667</ele><time>2026-04-15T11:07:35.002Z</time></trkpt><trkpt lat="45.54374369480912" lon="10.979468836297565"><ele>476.0</ele><time>2026-04-15T11:07:36.002Z</time></trkpt><trkpt lat="45.54370858229427" lon="10.979613670901717"><ele>475.33333333333337</ele><time>2026-04-15T11:07:37.002Z</time></trkpt><trkpt lat="45.54373235970935" lon="10.979742640929745"><ele>474.6666666666667</ele><time>2026-04-15T11:07:38.002Z</time></trkpt><trkpt lat="45.54374313801668" lon="10.979855895826695"><ele>474.0</ele><time>2026-04-15T11:07:39.001Z</time></trkpt><trkpt lat="45.54374403358903" lon="10.979969830215975"><ele>472.0</ele><time>2026-04-15T11:07:40.001Z</time></trkpt><trkpt lat="45.54377245169773" lon="10.980061146082587"><ele>470.0</ele><time>2026-04-15T11:07:41.001Z</time></trkpt><trkpt lat="45.54381258654913" lon="10.980149255113785"><ele>468.0</ele><time>2026-04-15T11:07:42.001Z</time></trkpt><trkpt lat="45.543881571192706" lon="10.980208618298851"><ele>466.0</ele><time>2026-04-15T11:07:43.001Z</time></trkpt><trkpt lat="45.54396874372884" lon="10.980209433171105"><ele>464.0</ele><time>2026-04-15T11:07:44.001Z</time></trkpt><trkpt lat="45.54406215469034" lon="10.980206010580611"><ele>462.0</ele><time>2026-04-15T11:07:45.001Z</time></trkpt><trkpt lat="45.54415269467919" lon="10.980183065059785"><ele>462.0</ele><time>2026-04-15T11:07:46Z</time></trkpt><trkpt lat="45.54424368128079" lon="10.980130187716451"><ele>462.00000000000006</ele><time>2026-04-15T11:07:47Z</time></trkpt><trkpt lat="45.544333762765206" lon="10.980081450311715"><ele>462.00000000000006</ele><time>2026-04-15T11:07:48Z</time></trkpt><trkpt lat="45.54442453643947" lon="10.98002859030826"><ele>462.0</ele><time>2026-04-15T11:07:49Z</time></trkpt><trkpt lat="45.54450574204444" lon="10.979987544155025"><ele>462.0</ele><time>2026-04-15T11:07:50Z</time></trkpt><trkpt lat="45.54459569483603" lon="10.979977971575329"><ele>462.8333333333333</ele><time>2026-04-15T11:07:51Z</time></trkpt><trkpt lat="45.544688307626465" lon="10.980005717116208"><ele>463.66666666666663</ele><time>2026-04-15T11:07:52Z</time></trkpt><trkpt lat="45.544773330557156" lon="10.980013776140108"><ele>464.5</ele><time>2026-04-15T11:07:53Z</time></trkpt><trkpt lat="45.544846639871324" lon="10.980021070043266"><ele>465.3333333333333</ele><time>2026-04-15T11:07:54Z</time></trkpt><trkpt lat="45.54492334097435" lon="10.980025086361996"><ele>466.16666666666663</ele><time>2026-04-15T11:07:55Z</time></trkpt><trkpt lat="45.54501198729221" lon="10.980009206623244"><ele>467.0</ele><time>2026-04-15T11:07:56Z</time></trkpt><trkpt lat="45.54509887129228" lon="10.979986288713125"><ele>466.99999999999994</ele><time>2026-04-15T11:07:57Z</time></trkpt><trkpt lat="45.545162817553546" lon="10.979981480005685"><ele>467.0</ele><time>2026-04-15T11:07:58Z</time></trkpt><trkpt lat="45.54519200652802" lon="10.980104318632469"><ele>467.0</ele><time>2026-04-15T11:07:59Z</time></trkpt><trkpt lat="45.54521714845401" lon="10.980223827068649"><ele>467.0</ele><time>2026-04-15T11:08:00Z</time></trkpt><trkpt lat="45.54527052326717" lon="10.98033526038866"><ele>466.99999999999994</ele><time>2026-04-15T11:08:01Z</time></trkpt><trkpt lat="45.54535194430736" lon="10.98041827595272"><ele>467.0</ele><time>2026-04-15T11:08:02Z</time></trkpt><trkpt lat="45.54541240532286" lon="10.980502800428575"><ele>471.40000000000003</ele><time>2026-04-15T11:08:03Z</time></trkpt><trkpt lat="45.5454714495185" lon="10.980574883831405"><ele>475.80000000000007</ele><time>2026-04-15T11:08:04Z</time></trkpt><trkpt lat="45.54552201418043" lon="10.980703140559966"><ele>480.2</ele><time>2026-04-15T11:08:06Z</time></trkpt><trkpt lat="45.54551945916138" lon="10.980819558113536"><ele>484.6</ele><time>2026-04-15T11:08:08Z</time></trkpt><trkpt lat="45.545611322052345" lon="10.980844715383466"><ele>489.0</ele><time>2026-04-15T11:08:10.001Z</time></trkpt><trkpt lat="45.54551160112246" lon="10.98092639796693"><ele>490.2</ele><time>2026-04-15T11:08:12.001Z</time></trkpt><trkpt lat="45.54543858934516" lon="10.980948505891865"><ele>491.4</ele><time>2026-04-15T11:08:14.001Z</time></trkpt><trkpt lat="45.54535399925543" lon="10.981008227482947"><ele>492.6</ele><time>2026-04-15T11:08:17.001Z</time></trkpt><trkpt lat="45.545285539587546" lon="10.981216683877017"><ele>493.8</ele><time>2026-04-15T11:08:18.001Z</time></trkpt><trkpt lat="45.54525722844518" lon="10.981340735802805"><ele>495.0</ele><time>2026-04-15T11:08:20.001Z</time></trkpt><trkpt lat="45.54523472137575" lon="10.981431828384876"><ele>486.5</ele><time>2026-04-15T11:08:21.001Z</time></trkpt><trkpt lat="45.545197268935986" lon="10.981508874462984"><ele>478.0</ele><time>2026-04-15T11:08:23.001Z</time></trkpt><trkpt lat="45.545142483380936" lon="10.981571039480048"><ele>469.5</ele><time>2026-04-15T11:08:25.001Z</time></trkpt><trkpt lat="45.545028753303434" lon="10.981734571617695"><ele>461.0</ele><time>2026-04-15T11:08:27.001Z</time></trkpt><trkpt lat="45.544915502918755" lon="10.982328247460797"><ele>454.3333333333333</ele><time>2026-04-15T11:08:28.001Z</time></trkpt><trkpt lat="45.54494441352519" lon="10.982515559045774"><ele>447.66666666666663</ele><time>2026-04-15T11:08:30.001Z</time></trkpt><trkpt lat="45.54505243164435" lon="10.98278945692"><ele>441.0</ele><time>2026-04-15T11:08:31.001Z</time></trkpt><trkpt lat="45.545297080697125" lon="10.983212188239175"><ele>452.5</ele><time>2026-04-15T11:08:32.001Z</time></trkpt><trkpt lat="45.54538998885845" lon="10.983233875454284"><ele>464.0</ele><time>2026-04-15T11:08:33.001Z</time></trkpt><trkpt lat="45.54611817294005" lon="10.98269115193129"><ele>464.0</ele><time>2026-04-15T11:08:38.001Z</time></trkpt><trkpt lat="45.546192469387634" lon="10.982721725861339"><ele>464.0</ele><time>2026-04-15T11:08:39.001Z</time></trkpt><trkpt lat="45.546312895992976" lon="10.982794216511408"><ele>464.0</ele><time>2026-04-15T11:08:41.001Z</time></trkpt><trkpt lat="45.54638096842213" lon="10.98276163113302"><ele>464.0</ele><time>2026-04-15T11:08:44.001Z</time></trkpt><trkpt lat="45.54630074266313" lon="10.982690365504746"><ele>464.0</ele><time>2026-04-15T11:08:47.001Z</time></trkpt><trkpt lat="45.546209241607855" lon="10.982582487591824"><ele>468.79999999999995</ele><time>2026-04-15T11:08:49.001Z</time></trkpt><trkpt lat="45.546146625631145" lon="10.982443522196576"><ele>473.59999999999997</ele><time>2026-04-15T11:08:51.001Z</time></trkpt><trkpt lat="45.54607544102834" lon="10.982295913222163"><ele>478.4</ele><time>2026-04-15T11:08:53.001Z</time></trkpt><trkpt lat="45.54601507059781" lon="10.982178538846137"><ele>483.2</ele><time>2026-04-15T11:08:55.001Z</time></trkpt><trkpt lat="45.545942042177025" lon="10.982072295888527"><ele>488.0</ele><time>2026-04-15T11:08:57.001Z</time></trkpt><trkpt lat="45.545927073867496" lon="10.98195449758318"><ele>487.99999999999994</ele><time>2026-04-15T11:08:59.001Z</time></trkpt><trkpt lat="45.54600370214763" lon="10.981885157639415"><ele>488.0</ele><time>2026-04-15T11:09:22.001Z</time></trkpt><trkpt lat="45.54608642378165" lon="10.981876367045924"><ele>488.0</ele><time>2026-04-15T11:09:25.001Z</time></trkpt><trkpt lat="45.54616429164305" lon="10.981868564703783"><ele>488.0</ele><time>2026-04-15T11:09:27.001Z</time></trkpt><trkpt lat="45.546246439046215" lon="10.981858605106927"><ele>487.99999999999994</ele><time>2026-04-15T11:09:30.001Z</time></trkpt><trkpt lat="45.54633800625553" lon="10.981844460765307"><ele>488.0</ele><time>2026-04-15T11:09:33.001Z</time></trkpt><trkpt lat="45.54640615059858" lon="10.981853219463233"><ele>493.79999999999995</ele><time>2026-04-15T11:09:35.002Z</time></trkpt><trkpt lat="45.54651123418867" lon="10.981863884282292"><ele>499.59999999999997</ele><time>2026-04-15T11:09:38.002Z</time></trkpt><trkpt lat="45.54658249964706" lon="10.98185410104501"><ele>505.40000000000003</ele><time>2026-04-15T11:09:40.002Z</time></trkpt><trkpt lat="45.546685227056116" lon="10.981812556449"><ele>511.20000000000005</ele><time>2026-04-15T11:09:42.002Z</time></trkpt><trkpt lat="45.546780706060964" lon="10.981796088057912"><ele>517.0</ele><time>2026-04-15T11:09:44.002Z</time></trkpt><trkpt lat="45.54686486904278" lon="10.981781697901186"><ele>517.0</ele><time>2026-04-15T11:09:46Z</time></trkpt><trkpt lat="45.546960162410436" lon="10.981758412621842"><ele>517.0</ele><time>2026-04-15T11:09:48Z</time></trkpt><trkpt lat="45.547038847923176" lon="10.981778723594283"><ele>517.0</ele><time>2026-04-15T11:09:50Z</time></trkpt><trkpt lat="45.5471172612281" lon="10.981714449468999"><ele>517.0</ele><time>2026-04-15T11:09:52Z</time></trkpt><trkpt lat="45.54721772905757" lon="10.98171926355473"><ele>517.0</ele><time>2026-04-15T11:09:54Z</time></trkpt><trkpt lat="45.54728223724885" lon="10.981702970245275"><ele>517.0</ele><time>2026-04-15T11:09:55Z</time></trkpt><trkpt lat="45.54734392607078" lon="10.98165077020432"><ele>521.5</ele><time>2026-04-15T11:09:56Z</time></trkpt><trkpt lat="45.54739666987361" lon="10.981586469802458"><ele>526.0</ele><time>2026-04-15T11:09:57Z</time></trkpt><trkpt lat="45.54744971326557" lon="10.98153311379376"><ele>530.5</ele><time>2026-04-15T11:09:58Z</time></trkpt><trkpt lat="45.54756647238254" lon="10.981498643231928"><ele>535.0</ele><time>2026-04-15T11:10:00Z</time></trkpt><trkpt lat="45.54762665076275" lon="10.981470209890714"><ele>539.5</ele><time>2026-04-15T11:10:01Z</time></trkpt><trkpt lat="45.54771350573767" lon="10.981488931666178"><ele>544.0</ele><time>2026-04-15T11:10:03Z</time></trkpt><trkpt lat="45.547735325167935" lon="10.981664774774044"><ele>545.4</ele><time>2026-04-15T11:10:06Z</time></trkpt><trkpt lat="45.547696473492834" lon="10.981805419376505"><ele>546.8</ele><time>2026-04-15T11:10:08Z</time></trkpt><trkpt lat="45.547661581130036" lon="10.981927070714883"><ele>548.2</ele><time>2026-04-15T11:10:10Z</time></trkpt><trkpt lat="45.54770158206678" lon="10.982046269481915"><ele>549.6</ele><time>2026-04-15T11:10:12Z</time></trkpt><trkpt lat="45.54779644601716" lon="10.98210471161278"><ele>551.0</ele><time>2026-04-15T11:10:14Z</time></trkpt><trkpt lat="45.54790097663774" lon="10.982099326284306"><ele>551.0</ele><time>2026-04-15T11:10:16Z</time></trkpt><trkpt lat="45.548019960904504" lon="10.982137769452912"><ele>551.0</ele><time>2026-04-15T11:10:18Z</time></trkpt><trkpt lat="45.548108498428164" lon="10.982170699849645"><ele>551.0</ele><time>2026-04-15T11:10:19Z</time></trkpt><trkpt lat="45.548206979360614" lon="10.982176264245313"><ele>551.0</ele><time>2026-04-15T11:10:20Z</time></trkpt><trkpt lat="45.54828382448876" lon="10.982181047906558"><ele>551.0</ele><time>2026-04-15T11:10:21Z</time></trkpt><trkpt lat="45.548364519517314" lon="10.982188793929145"><ele>551.0</ele><time>2026-04-15T11:10:27Z</time></trkpt><trkpt lat="45.548397907372994" lon="10.982279406149681"><ele>551.0</ele><time>2026-04-15T11:10:30Z</time></trkpt><trkpt lat="45.54842045382397" lon="10.982390437776184"><ele>551.0</ele><time>2026-04-15T11:10:32.001Z</time></trkpt><trkpt lat="45.54847431007538" lon="10.982477347196156"><ele>551.0</ele><time>2026-04-15T11:10:34.001Z</time></trkpt><trkpt lat="45.54855247394717" lon="10.982555630955012"><ele>551.0</ele><time>2026-04-15T11:10:36.001Z</time></trkpt><trkpt lat="45.548614612188" lon="10.982654458252224"><ele>551.0</ele><time>2026-04-15T11:10:38.001Z</time></trkpt><trkpt lat="45.548683768413696" lon="10.982726340109638"><ele>548.1666666666666</ele><time>2026-04-15T11:10:41.001Z</time></trkpt><trkpt lat="45.54875118316029" lon="10.982777289681334"><ele>545.3333333333333</ele><time>2026-04-15T11:10:43.001Z</time></trkpt><trkpt lat="45.54880723421555" lon="10.982842800316716"><ele>542.5</ele><time>2026-04-15T11:10:45.001Z</time></trkpt><trkpt lat="45.54885556520427" lon="10.982935159215739"><ele>539.6666666666666</ele><time>2026-04-15T11:10:47.001Z</time></trkpt><trkpt lat="45.548901394965256" lon="10.98303220583306"><ele>536.8333333333334</ele><time>2026-04-15T11:10:49.001Z</time></trkpt><trkpt lat="45.54893468914515" lon="10.983128485113975"><ele>534.0</ele><time>2026-04-15T11:10:51.001Z</time></trkpt><trkpt lat="45.54898887209582" lon="10.98322831339605"><ele>534.0</ele><time>2026-04-15T11:10:53.001Z</time></trkpt><trkpt lat="45.54905518461343" lon="10.983282332697204"><ele>534.0</ele><time>2026-04-15T11:10:55.001Z</time></trkpt><trkpt lat="45.5491300217749" lon="10.983295470852424"><ele>534.0</ele><time>2026-04-15T11:10:57.001Z</time></trkpt><trkpt lat="45.54919350801108" lon="10.983292236617165"><ele>534.0</ele><time>2026-04-15T11:11:00.001Z</time></trkpt><trkpt lat="45.549277890117835" lon="10.983331101051382"><ele>534.0</ele><time>2026-04-15T11:11:03.001Z</time></trkpt><trkpt lat="45.54935044767892" lon="10.983443837470384"><ele>534.0</ele><time>2026-04-15T11:11:05.001Z</time></trkpt><trkpt lat="45.54944533160056" lon="10.983541802967316"><ele>532.1666666666666</ele><time>2026-04-15T11:11:07.001Z</time></trkpt><trkpt lat="45.54951617276487" lon="10.983638132459388"><ele>530.3333333333334</ele><time>2026-04-15T11:11:08.001Z</time></trkpt><trkpt lat="45.54957622596586" lon="10.98370660958661"><ele>528.5</ele><time>2026-04-15T11:11:09.001Z</time></trkpt><trkpt lat="45.54964296844624" lon="10.983751704307766"><ele>526.6666666666667</ele><time>2026-04-15T11:11:10.001Z</time></trkpt><trkpt lat="45.549682640989715" lon="10.983825508873911"><ele>524.8333333333334</ele><time>2026-04-15T11:11:11.001Z</time></trkpt><trkpt lat="45.54972861521177" lon="10.98391146586493"><ele>523.0</ele><time>2026-04-15T11:11:12.001Z</time></trkpt><trkpt lat="45.54978761223364" lon="10.983988890256327"><ele>523.0</ele><time>2026-04-15T11:11:13.001Z</time></trkpt><trkpt lat="45.549852145148805" lon="10.984070937032264"><ele>523.0</ele><time>2026-04-15T11:11:14.001Z</time></trkpt><trkpt lat="45.54992258139072" lon="10.984141502750292"><ele>523.0</ele><time>2026-04-15T11:11:15.001Z</time></trkpt><trkpt lat="45.5499810509537" lon="10.984217744593947"><ele>523.0</ele><time>2026-04-15T11:11:16.001Z</time></trkpt><trkpt lat="45.550039217387344" lon="10.984300155189556"><ele>523.0</ele><time>2026-04-15T11:11:17.001Z</time></trkpt><trkpt lat="45.55010501339254" lon="10.984396557789848"><ele>523.0</ele><time>2026-04-15T11:11:18.001Z</time></trkpt><trkpt lat="45.55016347092769" lon="10.984480768110853"><ele>520.5</ele><time>2026-04-15T11:11:19.001Z</time></trkpt><trkpt lat="45.550187639291764" lon="10.984578184362167"><ele>518.0</ele><time>2026-04-15T11:11:20.001Z</time></trkpt><trkpt lat="45.5502074833415" lon="10.984697292787136"><ele>515.5</ele><time>2026-04-15T11:11:21.001Z</time></trkpt><trkpt lat="45.550231898755705" lon="10.9848125633794"><ele>513.0</ele><time>2026-04-15T11:11:22.001Z</time></trkpt><trkpt lat="45.55022320176844" lon="10.985002477681496"><ele>510.50000000000006</ele><time>2026-04-15T11:11:24.001Z</time></trkpt><trkpt lat="45.550204342918896" lon="10.985096782136695"><ele>508.0</ele><time>2026-04-15T11:11:25.001Z</time></trkpt><trkpt lat="45.550119634467706" lon="10.985161477929777"><ele>506.33333333333337</ele><time>2026-04-15T11:11:27.001Z</time></trkpt><trkpt lat="45.55004087063886" lon="10.985168489138037"><ele>504.6666666666667</ele><time>2026-04-15T11:11:28.001Z</time></trkpt><trkpt lat="45.54996856862314" lon="10.985197120904285"><ele>503.0</ele><time>2026-04-15T11:11:29.001Z</time></trkpt><trkpt lat="45.549880514056795" lon="10.985141462679605"><ele>501.33333333333337</ele><time>2026-04-15T11:11:30.001Z</time></trkpt><trkpt lat="45.54979435184951" lon="10.985175588314151"><ele>499.6666666666667</ele><time>2026-04-15T11:11:31.001Z</time></trkpt><trkpt lat="45.54972530866986" lon="10.985209873567966"><ele>498.0</ele><time>2026-04-15T11:11:32.001Z</time></trkpt><trkpt lat="45.549661162179866" lon="10.985249591464457"><ele>498.0</ele><time>2026-04-15T11:11:33.001Z</time></trkpt><trkpt lat="45.54956261350882" lon="10.985327326817137"><ele>497.99999999999994</ele><time>2026-04-15T11:11:35.001Z</time></trkpt><trkpt lat="45.54949266146655" lon="10.985434686318605"><ele>497.99999999999994</ele><time>2026-04-15T11:11:37.001Z</time></trkpt><trkpt lat="45.549473526311665" lon="10.98552414092403"><ele>498.0</ele><time>2026-04-15T11:11:38.001Z</time></trkpt><trkpt lat="45.549511585945304" lon="10.985651014944375"><ele>498.0</ele><time>2026-04-15T11:11:39.001Z</time></trkpt><trkpt lat="45.54953422976728" lon="10.985762133715378"><ele>496.8333333333333</ele><time>2026-04-15T11:11:40.001Z</time></trkpt><trkpt lat="45.54958246360174" lon="10.985880741717015"><ele>495.66666666666663</ele><time>2026-04-15T11:11:41.001Z</time></trkpt><trkpt lat="45.549657683111164" lon="10.985986822716193"><ele>494.5</ele><time>2026-04-15T11:11:42.001Z</time></trkpt><trkpt lat="45.54970819301661" lon="10.986098647740931"><ele>493.3333333333333</ele><time>2026-04-15T11:11:43.001Z</time></trkpt><trkpt lat="45.54973691082452" lon="10.98620373623868"><ele>492.16666666666663</ele><time>2026-04-15T11:11:44.001Z</time></trkpt><trkpt lat="45.54976121082229" lon="10.9863027197587"><ele>491.0</ele><time>2026-04-15T11:11:45.001Z</time></trkpt><trkpt lat="45.54977661196202" lon="10.98641160025758"><ele>490.99999999999994</ele><time>2026-04-15T11:11:46.001Z</time></trkpt><trkpt lat="45.54979014534224" lon="10.98650299089535"><ele>491.0</ele><time>2026-04-15T11:11:47.001Z</time></trkpt><trkpt lat="45.54980299173304" lon="10.986600514047868"><ele>491.0</ele><time>2026-04-15T11:11:49.001Z</time></trkpt><trkpt lat="45.54981708680148" lon="10.98670751549508"><ele>491.0</ele><time>2026-04-15T11:11:54Z</time></trkpt><trkpt lat="45.54996437277774" lon="10.986682353886254"><ele>490.99999999999994</ele><time>2026-04-15T11:11:55Z</time></trkpt><trkpt lat="45.5500518656021" lon="10.986692809176054"><ele>491.0</ele><time>2026-04-15T11:11:56Z</time></trkpt><trkpt lat="45.5501458850291" lon="10.98672239439232"><ele>490.6</ele><time>2026-04-15T11:11:57Z</time></trkpt><trkpt lat="45.55023191798942" lon="10.986764789812751"><ele>490.20000000000005</ele><time>2026-04-15T11:11:58Z</time></trkpt><trkpt lat="45.5503242776175" lon="10.986821073462826"><ele>489.79999999999995</ele><time>2026-04-15T11:11:59Z</time></trkpt><trkpt lat="45.55042905217897" lon="10.986888893952782"><ele>489.4</ele><time>2026-04-15T11:12:00Z</time></trkpt><trkpt lat="45.55052618758306" lon="10.986978255570161"><ele>489.0</ele><time>2026-04-15T11:12:01Z</time></trkpt><trkpt lat="45.55059631026937" lon="10.987111035015404"><ele>487.5</ele><time>2026-04-15T11:12:02Z</time></trkpt><trkpt lat="45.550676436714205" lon="10.98725066311106"><ele>486.0</ele><time>2026-04-15T11:12:03Z</time></trkpt><trkpt lat="45.550746126637435" lon="10.987410852501347"><ele>484.5</ele><time>2026-04-15T11:12:04Z</time></trkpt><trkpt lat="45.55083135627783" lon="10.987528041822626"><ele>483.0</ele><time>2026-04-15T11:12:05Z</time></trkpt><trkpt lat="45.55093368862453" lon="10.987612483415589"><ele>483.0</ele><time>2026-04-15T11:12:06Z</time></trkpt><trkpt lat="45.55104858213559" lon="10.987658680709997"><ele>483.0</ele><time>2026-04-15T11:12:07Z</time></trkpt><trkpt lat="45.55117133375079" lon="10.987690288462629"><ele>483.0</ele><time>2026-04-15T11:12:08Z</time></trkpt><trkpt lat="45.55130072026416" lon="10.987734179575744"><ele>483.0</ele><time>2026-04-15T11:12:09Z</time></trkpt><trkpt lat="45.55142938369874" lon="10.987792973771272"><ele>486.25</ele><time>2026-04-15T11:12:10Z</time></trkpt><trkpt lat="45.55154618454412" lon="10.9878476041741"><ele>489.5</ele><time>2026-04-15T11:12:11Z</time></trkpt><trkpt lat="45.55165321843094" lon="10.987905000086457"><ele>492.75</ele><time>2026-04-15T11:12:12Z</time></trkpt><trkpt lat="45.55175581069475" lon="10.987974332632215"><ele>496.0</ele><time>2026-04-15T11:12:13Z</time></trkpt><trkpt lat="45.55185061628583" lon="10.988047813504672"><ele>496.0</ele><time>2026-04-15T11:12:14Z</time></trkpt><trkpt lat="45.55194188274593" lon="10.988117718654852"><ele>496.0</ele><time>2026-04-15T11:12:15Z</time></trkpt><trkpt lat="45.55203540040735" lon="10.988186984572978"><ele>496.0</ele><time>2026-04-15T11:12:16Z</time></trkpt><trkpt lat="45.552117872704386" lon="10.988261204627728"><ele>496.0</ele><time>2026-04-15T11:12:17Z</time></trkpt><trkpt lat="45.55221215831139" lon="10.988336523462955"><ele>496.0</ele><time>2026-04-15T11:12:18Z</time></trkpt><trkpt lat="45.55231273039635" lon="10.988402482852148"><ele>497.0</ele><time>2026-04-15T11:12:19Z</time></trkpt><trkpt lat="45.55242388870778" lon="10.988465858102987"><ele>498.0</ele><time>2026-04-15T11:12:20Z</time></trkpt><trkpt lat="45.55254095942189" lon="10.988528437277086"><ele>499.0</ele><time>2026-04-15T11:12:21Z</time></trkpt><trkpt lat="45.552662990386615" lon="10.988589130259603"><ele>500.0</ele><time>2026-04-15T11:12:22Z</time></trkpt><trkpt lat="45.552792913787606" lon="10.988633104645308"><ele>499.5</ele><time>2026-04-15T11:12:23Z</time></trkpt><trkpt lat="45.552925191870685" lon="10.988651464744658"><ele>499.0</ele><time>2026-04-15T11:12:24Z</time></trkpt><trkpt lat="45.55305752564631" lon="10.988650096172977"><ele>498.5</ele><time>2026-04-15T11:12:25Z</time></trkpt><trkpt lat="45.5531768914936" lon="10.988645037413244"><ele>498.0</ele><time>2026-04-15T11:12:26Z</time></trkpt><trkpt lat="45.55326833666855" lon="10.988633430811326"><ele>498.0</ele><time>2026-04-15T11:12:27Z</time></trkpt><trkpt lat="45.55333186735208" lon="10.9886166696022"><ele>497.99999999999994</ele><time>2026-04-15T11:12:28Z</time></trkpt><trkpt lat="45.55339274120819" lon="10.98865455245528"><ele>497.99999999999994</ele><time>2026-04-15T11:12:49.001Z</time></trkpt><trkpt lat="45.55332731696889" lon="10.988720720508722"><ele>498.0</ele><time>2026-04-15T11:12:51.001Z</time></trkpt><trkpt lat="45.55319064358395" lon="10.988796462069773"><ele>498.0</ele><time>2026-04-15T11:12:52.001Z</time></trkpt><trkpt lat="45.553068531526364" lon="10.988880223072208"><ele>498.0</ele><time>2026-04-15T11:12:53.001Z</time></trkpt><trkpt lat="45.55293280088514" lon="10.988972190581674"><ele>498.0</ele><time>2026-04-15T11:12:54.001Z</time></trkpt><trkpt lat="45.55279658504225" lon="10.98903965377206"><ele>498.0</ele><time>2026-04-15T11:12:55.001Z</time></trkpt><trkpt lat="45.55267547817654" lon="10.98912365929837"><ele>498.0</ele><time>2026-04-15T11:12:56.001Z</time></trkpt><trkpt lat="45.55257951524964" lon="10.989208529881223"><ele>496.79999999999995</ele><time>2026-04-15T11:12:57.001Z</time></trkpt><trkpt lat="45.55250360978378" lon="10.98931664280949"><ele>495.59999999999997</ele><time>2026-04-15T11:12:58.001Z</time></trkpt><trkpt lat="45.55244141984544" lon="10.989440462032634"><ele>494.40000000000003</ele><time>2026-04-15T11:12:59.001Z</time></trkpt><trkpt lat="45.5524154318269" lon="10.989591942337354"><ele>493.20000000000005</ele><time>2026-04-15T11:13:00.001Z</time></trkpt><trkpt lat="45.5524173888925" lon="10.989730344903629"><ele>492.0</ele><time>2026-04-15T11:13:01.001Z</time></trkpt><trkpt lat="45.552428184320014" lon="10.98987745440075"><ele>492.0</ele><time>2026-04-15T11:13:02.001Z</time></trkpt><trkpt lat="45.552439271447966" lon="10.98997599024962"><ele>492.00000000000006</ele><time>2026-04-15T11:13:03.001Z</time></trkpt><trkpt lat="45.5525164610812" lon="10.990072017447725"><ele>492.00000000000006</ele><time>2026-04-15T11:13:05.001Z</time></trkpt><trkpt lat="45.552571030680625" lon="10.990144206683297"><ele>492.0</ele><time>2026-04-15T11:13:06.001Z</time></trkpt><trkpt lat="45.55262295086193" lon="10.990255596598182"><ele>492.0</ele><time>2026-04-15T11:13:07.001Z</time></trkpt><trkpt lat="45.55263715718781" lon="10.990414352947754"><ele>490.25</ele><time>2026-04-15T11:13:08.001Z</time></trkpt><trkpt lat="45.55267596661382" lon="10.99058530204666"><ele>488.5</ele><time>2026-04-15T11:13:09.001Z</time></trkpt><trkpt lat="45.552716649752135" lon="10.99077817906559"><ele>486.75</ele><time>2026-04-15T11:13:10.001Z</time></trkpt><trkpt lat="45.55274930870277" lon="10.990958053066473"><ele>485.0</ele><time>2026-04-15T11:13:11.001Z</time></trkpt><trkpt lat="45.55277855702182" lon="10.991137038408688"><ele>483.5</ele><time>2026-04-15T11:13:12.001Z</time></trkpt><trkpt lat="45.552808111579175" lon="10.991345597372774"><ele>482.0</ele><time>2026-04-15T11:13:13.001Z</time></trkpt><trkpt lat="45.552821880179664" lon="10.991556776063508"><ele>480.5</ele><time>2026-04-15T11:13:14.001Z</time></trkpt><trkpt lat="45.5528323775134" lon="10.991746956347"><ele>479.0</ele><time>2026-04-15T11:13:15.001Z</time></trkpt><trkpt lat="45.55284027298206" lon="10.991911220858622"><ele>478.66666666666663</ele><time>2026-04-15T11:13:16.001Z</time></trkpt><trkpt lat="45.552859598424384" lon="10.992055547536465"><ele>478.3333333333333</ele><time>2026-04-15T11:13:17.001Z</time></trkpt><trkpt lat="45.55284203859564" lon="10.992173057785413"><ele>478.0</ele><time>2026-04-15T11:13:18.001Z</time></trkpt><trkpt lat="45.55283352571904" lon="10.99226964088418"><ele>477.66666666666663</ele><time>2026-04-15T11:13:19.001Z</time></trkpt><trkpt lat="45.55281429237419" lon="10.992413992510224"><ele>477.3333333333333</ele><time>2026-04-15T11:13:21.001Z</time></trkpt><trkpt lat="45.552796482917344" lon="10.992520335008965"><ele>477.0</ele><time>2026-04-15T11:13:23.001Z</time></trkpt><trkpt lat="45.55299761965216" lon="10.992618367302436"><ele>476.8</ele><time>2026-04-15T11:13:25.001Z</time></trkpt><trkpt lat="45.55309655580977" lon="10.992634505394337"><ele>476.6</ele><time>2026-04-15T11:13:26.001Z</time></trkpt><trkpt lat="45.5531984381525" lon="10.992656577340815"><ele>476.40000000000003</ele><time>2026-04-15T11:13:27.001Z</time></trkpt><trkpt lat="45.553296024833266" lon="10.992679805149033"><ele>476.20000000000005</ele><time>2026-04-15T11:13:28.001Z</time></trkpt><trkpt lat="45.55339970722611" lon="10.9926970877024"><ele>476.0</ele><time>2026-04-15T11:13:29.001Z</time></trkpt><trkpt lat="45.553511103501805" lon="10.99269830723253"><ele>476.0</ele><time>2026-04-15T11:13:30.001Z</time></trkpt><trkpt lat="45.55363442528383" lon="10.992686296521034"><ele>476.0</ele><time>2026-04-15T11:13:31.001Z</time></trkpt><trkpt lat="45.553755803717934" lon="10.992661733645328"><ele>476.0</ele><time>2026-04-15T11:13:32.001Z</time></trkpt><trkpt lat="45.55385855887859" lon="10.992628339589281"><ele>476.0</ele><time>2026-04-15T11:13:33.001Z</time></trkpt><trkpt lat="45.5539357918539" lon="10.992600483526683"><ele>476.0</ele><time>2026-04-15T11:13:34.001Z</time></trkpt><trkpt lat="45.554004763004976" lon="10.992573074796402"><ele>474.4</ele><time>2026-04-15T11:13:35.001Z</time></trkpt><trkpt lat="45.55411537431141" lon="10.992522957500542"><ele>472.8</ele><time>2026-04-15T11:13:37.001Z</time></trkpt><trkpt lat="45.55423657346862" lon="10.99244262891586"><ele>471.19999999999993</ele><time>2026-04-15T11:13:39.001Z</time></trkpt><trkpt lat="45.554311064175494" lon="10.992396726009499"><ele>469.59999999999997</ele><time>2026-04-15T11:13:40.001Z</time></trkpt><trkpt lat="45.554389327012615" lon="10.992337216194914"><ele>468.0</ele><time>2026-04-15T11:13:41.001Z</time></trkpt><trkpt lat="45.55446573269013" lon="10.992273085915016"><ele>465.0</ele><time>2026-04-15T11:13:42.001Z</time></trkpt><trkpt lat="45.55455145446319" lon="10.99220766030283"><ele>462.0</ele><time>2026-04-15T11:13:43.001Z</time></trkpt><trkpt lat="45.55462571529421" lon="10.992149923007585"><ele>459.0</ele><time>2026-04-15T11:13:44.001Z</time></trkpt><trkpt lat="45.55470349537211" lon="10.992094211251127"><ele>456.0</ele><time>2026-04-15T11:13:45.001Z</time></trkpt><trkpt lat="45.5547860946524" lon="10.992048257773327"><ele>453.0</ele><time>2026-04-15T11:13:46.001Z</time></trkpt><trkpt lat="45.554853155073864" lon="10.992001534268434"><ele>450.0</ele><time>2026-04-15T11:13:47.001Z</time></trkpt><trkpt lat="45.554913576658066" lon="10.991938225372108"><ele>450.00000000000006</ele><time>2026-04-15T11:13:48.001Z</time></trkpt><trkpt lat="45.55496249435416" lon="10.9918672814204"><ele>450.0</ele><time>2026-04-15T11:13:49.001Z</time></trkpt><trkpt lat="45.555008269137275" lon="10.991736128183353"><ele>450.00000000000006</ele><time>2026-04-15T11:13:51.001Z</time></trkpt><trkpt lat="45.55502998644211" lon="10.991651693805215"><ele>450.00000000000006</ele><time>2026-04-15T11:13:54.001Z</time></trkpt><trkpt lat="45.55507299626488" lon="10.991576863630987"><ele>450.0</ele><time>2026-04-15T11:13:57Z</time></trkpt><trkpt lat="45.55509756880912" lon="10.99148767581725"><ele>450.00000000000006</ele><time>2026-04-15T11:14:01Z</time></trkpt><trkpt lat="45.55511607648411" lon="10.991377909298368"><ele>450.00000000000006</ele><time>2026-04-15T11:14:04Z</time></trkpt><trkpt lat="45.555095597483515" lon="10.991285364967606"><ele>450.1666666666667</ele><time>2026-04-15T11:14:07Z</time></trkpt><trkpt lat="45.55506530423917" lon="10.991184882211998"><ele>450.33333333333337</ele><time>2026-04-15T11:14:09Z</time></trkpt><trkpt lat="45.55502965038743" lon="10.99109360011263"><ele>450.5</ele><time>2026-04-15T11:14:12Z</time></trkpt><trkpt lat="45.55499270525532" lon="10.99098931469952"><ele>450.6666666666667</ele><time>2026-04-15T11:14:14Z</time></trkpt><trkpt lat="45.55495120543643" lon="10.990881473829395"><ele>450.83333333333337</ele><time>2026-04-15T11:14:17Z</time></trkpt><trkpt lat="45.55494090643545" lon="10.99075414076203"><ele>451.0</ele><time>2026-04-15T11:14:19Z</time></trkpt><trkpt lat="45.55494875743026" lon="10.990614709455828"><ele>451.00000000000006</ele><time>2026-04-15T11:14:21Z</time></trkpt><trkpt lat="45.554922758522345" lon="10.990507916998098"><ele>451.0</ele><time>2026-04-15T11:14:23Z</time></trkpt><trkpt lat="45.55492473538775" lon="10.99039786248727"><ele>451.0</ele><time>2026-04-15T11:14:26Z</time></trkpt><trkpt lat="45.55499833133919" lon="10.990404835700605"><ele>451.0</ele><time>2026-04-15T11:14:29Z</time></trkpt><trkpt lat="45.5550701094056" lon="10.990483887996525"><ele>451.00000000000006</ele><time>2026-04-15T11:14:32Z</time></trkpt><trkpt lat="45.55514307090684" lon="10.990505360445923"><ele>451.0</ele><time>2026-04-15T11:14:34Z</time></trkpt><trkpt lat="45.555226344431" lon="10.990536768446495"><ele>451.00000000000006</ele><time>2026-04-15T11:14:36Z</time></trkpt><trkpt lat="45.55532896827159" lon="10.990518947679824"><ele>451.0</ele><time>2026-04-15T11:14:38Z</time></trkpt><trkpt lat="45.555417387112804" lon="10.99051759978732"><ele>451.0</ele><time>2026-04-15T11:14:41Z</time></trkpt><trkpt lat="45.55548809041234" lon="10.990455604504042"><ele>451.0</ele><time>2026-04-15T11:14:43Z</time></trkpt><trkpt lat="45.55557538448473" lon="10.99043358937462"><ele>451.00000000000006</ele><time>2026-04-15T11:16:40Z</time></trkpt><trkpt lat="45.55561816176594" lon="10.99032719662125"><ele>451.0</ele><time>2026-04-15T11:16:42Z</time></trkpt><trkpt lat="45.55563639715769" lon="10.990163299460253"><ele>448.1666666666667</ele><time>2026-04-15T11:16:44Z</time></trkpt><trkpt lat="45.555644064474556" lon="10.990053284905608"><ele>445.33333333333337</ele><time>2026-04-15T11:16:45Z</time></trkpt><trkpt lat="45.555642929153414" lon="10.989962798657295"><ele>442.5</ele><time>2026-04-15T11:16:46Z</time></trkpt><trkpt lat="45.55563436754428" lon="10.98986214487129"><ele>439.66666666666663</ele><time>2026-04-15T11:16:47Z</time></trkpt><trkpt lat="45.555665944740774" lon="10.989742429248603"><ele>436.8333333333333</ele><time>2026-04-15T11:16:49Z</time></trkpt><trkpt lat="45.55570589088222" lon="10.989609108501483"><ele>434.0</ele><time>2026-04-15T11:16:51Z</time></trkpt><trkpt lat="45.55576643057137" lon="10.98956814680034"><ele>434.0</ele><time>2026-04-15T11:16:54Z</time></trkpt><trkpt lat="45.555841839543476" lon="10.989557423697674"><ele>434.0</ele><time>2026-04-15T11:17:01.001Z</time></trkpt><trkpt lat="45.55592566526182" lon="10.989527433406874"><ele>434.0</ele><time>2026-04-15T11:17:03.001Z</time></trkpt><trkpt lat="45.55599341023224" lon="10.98953629600532"><ele>434.0</ele><time>2026-04-15T11:17:16.001Z</time></trkpt><trkpt lat="45.55604200890449" lon="10.989478488571256"><ele>434.0</ele><time>2026-04-15T11:17:19.001Z</time></trkpt><trkpt lat="45.55610470678355" lon="10.98950067717315"><ele>434.0</ele><time>2026-04-15T11:17:27.001Z</time></trkpt><trkpt lat="45.556168962141804" lon="10.98954566085857"><ele>434.0</ele><time>2026-04-15T11:17:31.001Z</time></trkpt><trkpt lat="45.5562478748801" lon="10.989585338630306"><ele>435.49999999999994</ele><time>2026-04-15T11:17:33.001Z</time></trkpt><trkpt lat="45.556331304564964" lon="10.989665482709393"><ele>437.0</ele><time>2026-04-15T11:17:37.001Z</time></trkpt><trkpt lat="45.55641474302749" lon="10.989682699741731"><ele>438.5</ele><time>2026-04-15T11:17:39.001Z</time></trkpt><trkpt lat="45.55648741005403" lon="10.98968234920192"><ele>440.0</ele><time>2026-04-15T11:17:41.001Z</time></trkpt><trkpt lat="45.556522388847036" lon="10.989806936218729"><ele>441.49999999999994</ele><time>2026-04-15T11:17:44.001Z</time></trkpt><trkpt lat="45.556550796944116" lon="10.989896904336936"><ele>443.0</ele><time>2026-04-15T11:17:45.001Z</time></trkpt><trkpt lat="45.55658510001601" lon="10.98997386479655"><ele>438.59999999999997</ele><time>2026-04-15T11:17:46.001Z</time></trkpt><trkpt lat="45.556661933362584" lon="10.99011291409913"><ele>434.19999999999993</ele><time>2026-04-15T11:17:48.001Z</time></trkpt><trkpt lat="45.55671945624449" lon="10.990174514135804"><ele>429.8</ele><time>2026-04-15T11:17:49.001Z</time></trkpt><trkpt lat="45.556769633144064" lon="10.990265233693268"><ele>425.4</ele><time>2026-04-15T11:17:50.001Z</time></trkpt><trkpt lat="45.55686532049083" lon="10.990392145497639"><ele>421.0</ele><time>2026-04-15T11:17:52.001Z</time></trkpt><trkpt lat="45.55692664935207" lon="10.990456763013148"><ele>421.00000000000006</ele><time>2026-04-15T11:17:53.001Z</time></trkpt><trkpt lat="45.556988354357046" lon="10.990514683907772"><ele>421.0</ele><time>2026-04-15T11:17:54.001Z</time></trkpt><trkpt lat="45.557047210429495" lon="10.99056441070244"><ele>421.0</ele><time>2026-04-15T11:17:55.001Z</time></trkpt><trkpt lat="45.557107192388756" lon="10.990616194664998"><ele>421.0</ele><time>2026-04-15T11:17:56.001Z</time></trkpt><trkpt lat="45.55717428202263" lon="10.990652463604064"><ele>421.0</ele><time>2026-04-15T11:17:57.001Z</time></trkpt><trkpt lat="45.55722429252907" lon="10.990725881958943"><ele>421.00000000000006</ele><time>2026-04-15T11:17:58.001Z</time></trkpt><trkpt lat="45.5572648413702" lon="10.990816388854146"><ele>421.0</ele><time>2026-04-15T11:17:59.001Z</time></trkpt><trkpt lat="45.55731191441945" lon="10.990913497759191"><ele>422.33333333333337</ele><time>2026-04-15T11:18:00.001Z</time></trkpt><trkpt lat="45.55735603754876" lon="10.991019450414555"><ele>423.6666666666667</ele><time>2026-04-15T11:18:01.001Z</time></trkpt><trkpt lat="45.557405859467565" lon="10.991078180380354"><ele>425.0</ele><time>2026-04-15T11:18:02.001Z</time></trkpt><trkpt lat="45.5575183388123" lon="10.991149872667354"><ele>426.33333333333337</ele><time>2026-04-15T11:18:04.001Z</time></trkpt><trkpt lat="45.55759887628188" lon="10.99118497753721"><ele>427.6666666666667</ele><time>2026-04-15T11:18:05.001Z</time></trkpt><trkpt lat="45.55767520297008" lon="10.991213749297799"><ele>429.0</ele><time>2026-04-15T11:18:06.001Z</time></trkpt><trkpt lat="45.55775547262408" lon="10.991241823889299"><ele>429.0</ele><time>2026-04-15T11:18:07.001Z</time></trkpt><trkpt lat="45.55783258438423" lon="10.99124535522821"><ele>429.0</ele><time>2026-04-15T11:18:08.001Z</time></trkpt><trkpt lat="45.55793177984903" lon="10.991311646196534"><ele>429.0</ele><time>2026-04-15T11:18:10Z</time></trkpt><trkpt lat="45.55793956589315" lon="10.99141667557634"><ele>429.0</ele><time>2026-04-15T11:18:12Z</time></trkpt><trkpt lat="45.5579427410591" lon="10.991603320191262"><ele>429.0</ele><time>2026-04-15T11:18:14Z</time></trkpt><trkpt lat="45.55795796682614" lon="10.991700713521084"><ele>432.79999999999995</ele><time>2026-04-15T11:18:15Z</time></trkpt><trkpt lat="45.55796972945185" lon="10.991819953471287"><ele>436.59999999999997</ele><time>2026-04-15T11:18:16Z</time></trkpt><trkpt lat="45.55799356269084" lon="10.991990538716609"><ele>440.4</ele><time>2026-04-15T11:18:18Z</time></trkpt><trkpt lat="45.55801570906241" lon="10.992091775592014"><ele>444.2</ele><time>2026-04-15T11:18:19Z</time></trkpt><trkpt lat="45.55802677396913" lon="10.992204498508304"><ele>448.0</ele><time>2026-04-15T11:18:20Z</time></trkpt><trkpt lat="45.558076702188764" lon="10.992314216985159"><ele>448.0</ele><time>2026-04-15T11:18:21Z</time></trkpt><trkpt lat="45.558126173413434" lon="10.99238016850976"><ele>447.99999999999994</ele><time>2026-04-15T11:18:22Z</time></trkpt><trkpt lat="45.55819006613435" lon="10.992430408950543"><ele>447.99999999999994</ele><time>2026-04-15T11:18:23Z</time></trkpt><trkpt lat="45.5581810081129" lon="10.992662298038304"><ele>448.0</ele><time>2026-04-15T11:18:24Z</time></trkpt><trkpt lat="45.558247155291255" lon="10.99273435370557"><ele>448.0</ele><time>2026-04-15T11:18:25Z</time></trkpt><trkpt lat="45.55837353661943" lon="10.992856798412678"><ele>445.83333333333337</ele><time>2026-04-15T11:18:26Z</time></trkpt><trkpt lat="45.55844549660524" lon="10.99290062871818"><ele>443.6666666666667</ele><time>2026-04-15T11:18:27Z</time></trkpt><trkpt lat="45.558504691720564" lon="10.992936685136273"><ele>441.5</ele><time>2026-04-15T11:18:28Z</time></trkpt><trkpt lat="45.55857927436337" lon="10.9930150879163"><ele>439.33333333333337</ele><time>2026-04-15T11:18:30Z</time></trkpt><trkpt lat="45.558646069286915" lon="10.993107368431714"><ele>437.1666666666667</ele><time>2026-04-15T11:18:32Z</time></trkpt><trkpt lat="45.55869681524243" lon="10.993207939463254"><ele>435.0</ele><time>2026-04-15T11:18:34Z</time></trkpt><trkpt lat="45.55914351349741" lon="10.99331933828149"><ele>435.0</ele><time>2026-04-15T11:18:35Z</time></trkpt><trkpt lat="45.5592137223705" lon="10.993313086430158"><ele>435.0</ele><time>2026-04-15T11:18:36Z</time></trkpt><trkpt lat="45.559311808878704" lon="10.99327626254917"><ele>435.0</ele><time>2026-04-15T11:18:37Z</time></trkpt><trkpt lat="45.55943744917543" lon="10.993223077136808"><ele>435.0</ele><time>2026-04-15T11:18:39Z</time></trkpt><trkpt lat="45.559500733188884" lon="10.993182280207972"><ele>435.0</ele><time>2026-04-15T11:18:40Z</time></trkpt><trkpt lat="45.55957001707744" lon="10.99312517747674"><ele>431.0</ele><time>2026-04-15T11:18:41Z</time></trkpt><trkpt lat="45.55962622494559" lon="10.99306971940805"><ele>427.0</ele><time>2026-04-15T11:18:42Z</time></trkpt><trkpt lat="45.559692274889656" lon="10.992985421962898"><ele>423.0</ele><time>2026-04-15T11:18:43Z</time></trkpt><trkpt lat="45.55975591067065" lon="10.992884096874713"><ele>419.0</ele><time>2026-04-15T11:18:44Z</time></trkpt><trkpt lat="45.55980221767493" lon="10.992793783535365"><ele>415.0</ele><time>2026-04-15T11:18:45Z</time></trkpt><trkpt lat="45.55985428268908" lon="10.992692245248607"><ele>411.0</ele><time>2026-04-15T11:18:48Z</time></trkpt><trkpt lat="45.55991667835082" lon="10.992570559869913"><ele>411.0</ele><time>2026-04-15T11:18:50Z</time></trkpt><trkpt lat="45.55995468673" lon="10.992496435102284"><ele>411.0</ele><time>2026-04-15T11:18:51Z</time></trkpt><trkpt lat="45.56000218464302" lon="10.992404121559376"><ele>411.0</ele><time>2026-04-15T11:18:52.001Z</time></trkpt><trkpt lat="45.56006089279062" lon="10.992293496307134"><ele>411.0</ele><time>2026-04-15T11:18:54.001Z</time></trkpt><trkpt lat="45.559994164019265" lon="10.992325475674173"><ele>411.0</ele><time>2026-04-15T11:19:01.001Z</time></trkpt><trkpt lat="45.559954197851226" lon="10.992410489029348"><ele>411.0</ele><time>2026-04-15T11:19:02.001Z</time></trkpt><trkpt lat="45.559906639213025" lon="10.99251132244914"><ele>411.0</ele><time>2026-04-15T11:19:03.001Z</time></trkpt><trkpt lat="45.55985942823571" lon="10.992604904126221"><ele>411.0</ele><time>2026-04-15T11:19:04.001Z</time></trkpt><trkpt lat="45.55982290998568" lon="10.992703492239087"><ele>411.0</ele><time>2026-04-15T11:19:05.001Z</time></trkpt><trkpt lat="45.55978134793828" lon="10.992782517031582"><ele>411.0</ele><time>2026-04-15T11:19:06.001Z</time></trkpt><trkpt lat="45.55974060208311" lon="10.992864375253243"><ele>411.0</ele><time>2026-04-15T11:19:07.001Z</time></trkpt><trkpt lat="45.55969287970498" lon="10.99294230110758"><ele>411.0</ele><time>2026-04-15T11:19:08.001Z</time></trkpt><trkpt lat="45.55962880693716" lon="10.993006850995435"><ele>411.0</ele><time>2026-04-15T11:19:09.001Z</time></trkpt><trkpt lat="45.55955770239703" lon="10.993082309035646"><ele>415.8</ele><time>2026-04-15T11:19:10.001Z</time></trkpt><trkpt lat="45.559480183215776" lon="10.993141165652826"><ele>420.6</ele><time>2026-04-15T11:19:11.001Z</time></trkpt><trkpt lat="45.55940182931646" lon="10.99319017007085"><ele>425.4</ele><time>2026-04-15T11:19:12.001Z</time></trkpt><trkpt lat="45.55931413049767" lon="10.9932265507655"><ele>430.2</ele><time>2026-04-15T11:19:13.001Z</time></trkpt><trkpt lat="45.55921314456499" lon="10.993261745182364"><ele>435.0</ele><time>2026-04-15T11:19:14.001Z</time></trkpt><trkpt lat="45.559098995824115" lon="10.993294958578014"><ele>435.0</ele><time>2026-04-15T11:19:15.001Z</time></trkpt><trkpt lat="45.55898828590652" lon="10.993323971514895"><ele>435.0</ele><time>2026-04-15T11:19:16.001Z</time></trkpt><trkpt lat="45.55889109138187" lon="10.993349449056915"><ele>435.0</ele><time>2026-04-15T11:19:17.001Z</time></trkpt><trkpt lat="45.55880308921903" lon="10.993360685992611"><ele>435.0</ele><time>2026-04-15T11:19:18.001Z</time></trkpt><trkpt lat="45.558724364990425" lon="10.993346120639732"><ele>435.0</ele><time>2026-04-15T11:19:19.001Z</time></trkpt><trkpt lat="45.558664795415574" lon="10.993298982204545"><ele>435.0</ele><time>2026-04-15T11:19:20.001Z</time></trkpt><trkpt lat="45.55864458388622" lon="10.993156905539957"><ele>429.25</ele><time>2026-04-15T11:19:22.001Z</time></trkpt><trkpt lat="45.55861214972666" lon="10.992987350153037"><ele>423.5</ele><time>2026-04-15T11:19:24.001Z</time></trkpt><trkpt lat="45.55853850105078" lon="10.992910147729578"><ele>417.75</ele><time>2026-04-15T11:19:25.001Z</time></trkpt><trkpt lat="45.55843227969682" lon="10.992836678276515"><ele>412.0</ele><time>2026-04-15T11:19:26.001Z</time></trkpt><trkpt lat="45.55832606347823" lon="10.99275002564078"><ele>412.0</ele><time>2026-04-15T11:19:27.001Z</time></trkpt><trkpt lat="45.55821937957993" lon="10.992667500814587"><ele>412.0</ele><time>2026-04-15T11:19:28.001Z</time></trkpt><trkpt lat="45.558135156362574" lon="10.992582725174216"><ele>412.0</ele><time>2026-04-15T11:19:29.001Z</time></trkpt><trkpt lat="45.558052084949445" lon="10.992542327888543"><ele>412.0</ele><time>2026-04-15T11:19:30.001Z</time></trkpt><trkpt lat="45.55796320817283" lon="10.992515996802036"><ele>412.0</ele><time>2026-04-15T11:19:31.001Z</time></trkpt><trkpt lat="45.55787988972419" lon="10.992468393148014"><ele>410.40000000000003</ele><time>2026-04-15T11:19:32.001Z</time></trkpt><trkpt lat="45.55780843230943" lon="10.992383426623313"><ele>408.8</ele><time>2026-04-15T11:19:33.001Z</time></trkpt><trkpt lat="45.55775459244843" lon="10.992261648497966"><ele>407.2</ele><time>2026-04-15T11:19:34.001Z</time></trkpt><trkpt lat="45.55771360269419" lon="10.99209304345186"><ele>405.6</ele><time>2026-04-15T11:19:35.001Z</time></trkpt><trkpt lat="45.55767425382483" lon="10.991925848545506"><ele>404.0</ele><time>2026-04-15T11:19:36.001Z</time></trkpt><trkpt lat="45.55763342438348" lon="10.99179677591802"><ele>404.0</ele><time>2026-04-15T11:19:37.001Z</time></trkpt><trkpt lat="45.55759199243756" lon="10.991711541801951"><ele>404.0</ele><time>2026-04-15T11:19:38.001Z</time></trkpt><trkpt lat="45.5575193128829" lon="10.991660394064102"><ele>404.0</ele><time>2026-04-15T11:19:39.001Z</time></trkpt><trkpt lat="45.55742023064425" lon="10.991604698754658"><ele>404.0</ele><time>2026-04-15T11:19:40.001Z</time></trkpt><trkpt lat="45.55729029780509" lon="10.991561077260187"><ele>404.0</ele><time>2026-04-15T11:19:41.001Z</time></trkpt><trkpt lat="45.55717175549118" lon="10.991518383319455"><ele>401.6</ele><time>2026-04-15T11:19:42.001Z</time></trkpt><trkpt lat="45.557074230380096" lon="10.991468988063597"><ele>399.2</ele><time>2026-04-15T11:19:43.001Z</time></trkpt><trkpt lat="45.55700560748188" lon="10.991408826994036"><ele>396.8</ele><time>2026-04-15T11:19:44.001Z</time></trkpt><trkpt lat="45.556978134518104" lon="10.991301471117165"><ele>394.40000000000003</ele><time>2026-04-15T11:19:45.001Z</time></trkpt><trkpt lat="45.556931046084884" lon="10.991190352489655"><ele>392.0</ele><time>2026-04-15T11:19:46.001Z</time></trkpt><trkpt lat="45.55684402635764" lon="10.991070765103567"><ele>392.0</ele><time>2026-04-15T11:19:47.001Z</time></trkpt><trkpt lat="45.55674178352563" lon="10.990955508428335"><ele>392.0</ele><time>2026-04-15T11:19:48.001Z</time></trkpt><trkpt lat="45.556629888104986" lon="10.990849415765284"><ele>392.0</ele><time>2026-04-15T11:19:49.001Z</time></trkpt><trkpt lat="45.556542073381515" lon="10.990752531063466"><ele>392.0</ele><time>2026-04-15T11:19:50.001Z</time></trkpt><trkpt lat="45.556464183546325" lon="10.990678005587283"><ele>397.8</ele><time>2026-04-15T11:19:51.001Z</time></trkpt><trkpt lat="45.556386202572504" lon="10.990626528545855"><ele>403.6</ele><time>2026-04-15T11:19:52.001Z</time></trkpt><trkpt lat="45.55631200468544" lon="10.990585791849247"><ele>409.40000000000003</ele><time>2026-04-15T11:19:53.001Z</time></trkpt><trkpt lat="45.55625154814119" lon="10.990551188828004"><ele>415.20000000000005</ele><time>2026-04-15T11:19:54.001Z</time></trkpt><trkpt lat="45.556160922979515" lon="10.9906394754405"><ele>421.0</ele><time>2026-04-15T11:19:56.001Z</time></trkpt><trkpt lat="45.55619175640946" lon="10.990796557639712"><ele>413.75</ele><time>2026-04-15T11:19:58.001Z</time></trkpt><trkpt lat="45.556290910848695" lon="10.990857476755211"><ele>406.5</ele><time>2026-04-15T11:19:59.001Z</time></trkpt><trkpt lat="45.556367190500154" lon="10.990968475629755"><ele>399.25</ele><time>2026-04-15T11:20:00.001Z</time></trkpt><trkpt lat="45.55645598420574" lon="10.991076207874151"><ele>392.0</ele><time>2026-04-15T11:20:01.001Z</time></trkpt><trkpt lat="45.55654358758462" lon="10.99120728497289"><ele>392.0</ele><time>2026-04-15T11:20:02.001Z</time></trkpt><trkpt lat="45.556623624487706" lon="10.991350855506148"><ele>392.0</ele><time>2026-04-15T11:20:03.001Z</time></trkpt><trkpt lat="45.55670079182335" lon="10.991499627128011"><ele>392.0</ele><time>2026-04-15T11:20:04.001Z</time></trkpt><trkpt lat="45.55677708097707" lon="10.99165283665045"><ele>392.0</ele><time>2026-04-15T11:20:05.001Z</time></trkpt><trkpt lat="45.55686661918184" lon="10.991792622791227"><ele>395.0</ele><time>2026-04-15T11:20:06.001Z</time></trkpt><trkpt lat="45.556954720235886" lon="10.99192343470865"><ele>398.0</ele><time>2026-04-15T11:20:07.001Z</time></trkpt><trkpt lat="45.557055001464576" lon="10.992041588721715"><ele>401.0</ele><time>2026-04-15T11:20:08.001Z</time></trkpt><trkpt lat="45.55712501242286" lon="10.992160775648511"><ele>404.0</ele><time>2026-04-15T11:20:09.001Z</time></trkpt><trkpt lat="45.55715597891866" lon="10.992272690250145"><ele>404.0</ele><time>2026-04-15T11:20:10.001Z</time></trkpt><trkpt lat="45.557192562123205" lon="10.992405220982317"><ele>404.0</ele><time>2026-04-15T11:20:11.001Z</time></trkpt><trkpt lat="45.55722719028276" lon="10.992554922703032"><ele>404.0</ele><time>2026-04-15T11:20:12.001Z</time></trkpt><trkpt lat="45.55728845478807" lon="10.99268799346366"><ele>404.0</ele><time>2026-04-15T11:20:13.001Z</time></trkpt><trkpt lat="45.55734466411693" lon="10.992826706812638"><ele>404.0</ele><time>2026-04-15T11:20:14.001Z</time></trkpt><trkpt lat="45.557416727533294" lon="10.992959082755217"><ele>396.0</ele><time>2026-04-15T11:20:14.999Z</time></trkpt><trkpt lat="45.55748110271891" lon="10.993091253140731"><ele>388.0</ele><time>2026-04-15T11:20:15.999Z</time></trkpt><trkpt lat="45.557552134567146" lon="10.993202855901988"><ele>380.0</ele><time>2026-04-15T11:20:16.999Z</time></trkpt><trkpt lat="45.55761587657817" lon="10.993271210506082"><ele>372.0</ele><time>2026-04-15T11:20:17.999Z</time></trkpt><trkpt lat="45.55769844874271" lon="10.993336992417971"><ele>364.0</ele><time>2026-04-15T11:20:19.999Z</time></trkpt><trkpt lat="45.55779789722278" lon="10.993429150987485"><ele>364.0</ele><time>2026-04-15T11:20:21.999Z</time></trkpt><trkpt lat="45.5578325575269" lon="10.993521190599802"><ele>364.0</ele><time>2026-04-15T11:20:23.999Z</time></trkpt><trkpt lat="45.55775258038341" lon="10.99354864911389"><ele>364.0</ele><time>2026-04-15T11:20:25.999Z</time></trkpt><trkpt lat="45.557686920296774" lon="10.993482702518"><ele>364.0</ele><time>2026-04-15T11:20:26.999Z</time></trkpt><trkpt lat="45.557598421149635" lon="10.993444863638219"><ele>364.0</ele><time>2026-04-15T11:20:27.999Z</time></trkpt><trkpt lat="45.557501159434544" lon="10.993368623685843"><ele>364.0</ele><time>2026-04-15T11:20:28.999Z</time></trkpt><trkpt lat="45.55740568397657" lon="10.993293072664912"><ele>364.0</ele><time>2026-04-15T11:20:30Z</time></trkpt><trkpt lat="45.55731450642667" lon="10.993216474679047"><ele>364.0</ele><time>2026-04-15T11:20:31Z</time></trkpt><trkpt lat="45.55724734322058" lon="10.993145983320382"><ele>364.0</ele><time>2026-04-15T11:20:32Z</time></trkpt><trkpt lat="45.55719310210505" lon="10.993069031145733"><ele>364.0</ele><time>2026-04-15T11:20:33Z</time></trkpt><trkpt lat="45.55709348745527" lon="10.993002320955856"><ele>364.0</ele><time>2026-04-15T11:20:35Z</time></trkpt><trkpt lat="45.55705569441288" lon="10.993136637291313"><ele>364.0</ele><time>2026-04-15T11:20:37Z</time></trkpt><trkpt lat="45.5570633229257" lon="10.993234985130293"><ele>364.0</ele><time>2026-04-15T11:20:38Z</time></trkpt><trkpt lat="45.557156400351474" lon="10.993320686914537"><ele>364.0</ele><time>2026-04-15T11:20:39Z</time></trkpt><trkpt lat="45.557221133936395" lon="10.993453096668375"><ele>364.0</ele><time>2026-04-15T11:20:40Z</time></trkpt><trkpt lat="45.557286868205395" lon="10.993552691255562"><ele>364.0</ele><time>2026-04-15T11:20:41Z</time></trkpt><trkpt lat="45.55736000894196" lon="10.993655578868616"><ele>357.79999999999995</ele><time>2026-04-15T11:20:42Z</time></trkpt><trkpt lat="45.55743991354486" lon="10.993755150484045"><ele>351.59999999999997</ele><time>2026-04-15T11:20:43Z</time></trkpt><trkpt lat="45.55752437741167" lon="10.993855629903313"><ele>345.4</ele><time>2026-04-15T11:20:44Z</time></trkpt><trkpt lat="45.55760052343713" lon="10.993943364723856"><ele>339.2</ele><time>2026-04-15T11:20:45Z</time></trkpt><trkpt lat="45.557657484502016" lon="10.99400556178795"><ele>333.0</ele><time>2026-04-15T11:20:46Z</time></trkpt><trkpt lat="45.55773280215724" lon="10.994091504833968"><ele>333.0</ele><time>2026-04-15T11:20:48Z</time></trkpt><trkpt lat="45.5576455600866" lon="10.99414998415213"><ele>333.0</ele><time>2026-04-15T11:20:50Z</time></trkpt><trkpt lat="45.55756454635976" lon="10.99408776614844"><ele>333.0</ele><time>2026-04-15T11:20:51Z</time></trkpt><trkpt lat="45.55748561181658" lon="10.993992486463203"><ele>333.0</ele><time>2026-04-15T11:20:52Z</time></trkpt><trkpt lat="45.55742020038377" lon="10.993949211550877"><ele>333.0</ele><time>2026-04-15T11:20:53Z</time></trkpt><trkpt lat="45.55734940560154" lon="10.993987945152682"><ele>333.0</ele><time>2026-04-15T11:20:55Z</time></trkpt><trkpt lat="45.557356999689304" lon="10.994154585233066"><ele>328.0</ele><time>2026-04-15T11:20:57Z</time></trkpt><trkpt lat="45.557415625888886" lon="10.994252589723327"><ele>323.0</ele><time>2026-04-15T11:20:58Z</time></trkpt><trkpt lat="45.55746190623948" lon="10.994334800311785"><ele>318.0</ele><time>2026-04-15T11:20:59Z</time></trkpt><trkpt lat="45.557527063344075" lon="10.994444278259754"><ele>313.0</ele><time>2026-04-15T11:21:00Z</time></trkpt><trkpt lat="45.55759048247007" lon="10.994580376566054"><ele>308.0</ele><time>2026-04-15T11:21:01Z</time></trkpt><trkpt lat="45.5576696418576" lon="10.99470851779871"><ele>308.0</ele><time>2026-04-15T11:21:02Z</time></trkpt><trkpt lat="45.55774741992035" lon="10.99483010903316"><ele>308.0</ele><time>2026-04-15T11:21:03Z</time></trkpt><trkpt lat="45.55782111919067" lon="10.994946430997544"><ele>308.0</ele><time>2026-04-15T11:21:04Z</time></trkpt><trkpt lat="45.55790052569829" lon="10.995053791970866"><ele>308.0</ele><time>2026-04-15T11:21:05Z</time></trkpt><trkpt lat="45.55796484915045" lon="10.99516396559564"><ele>308.0</ele><time>2026-04-15T11:21:06Z</time></trkpt><trkpt lat="45.55802467937018" lon="10.995258813586519"><ele>303.6</ele><time>2026-04-15T11:21:07Z</time></trkpt><trkpt lat="45.558077054204375" lon="10.995366073861192"><ele>299.20000000000005</ele><time>2026-04-15T11:21:08Z</time></trkpt><trkpt lat="45.558145157688614" lon="10.995457522682342"><ele>294.8</ele><time>2026-04-15T11:21:09Z</time></trkpt><trkpt lat="45.55823392439556" lon="10.995542395953708"><ele>290.40000000000003</ele><time>2026-04-15T11:21:10Z</time></trkpt><trkpt lat="45.55832144388057" lon="10.995599826548027"><ele>286.0</ele><time>2026-04-15T11:21:11Z</time></trkpt><trkpt lat="45.55841211963752" lon="10.995635914311691"><ele>286.0</ele><time>2026-04-15T11:21:12Z</time></trkpt><trkpt lat="45.558512505125755" lon="10.995696176419461"><ele>286.0</ele><time>2026-04-15T11:21:13Z</time></trkpt><trkpt lat="45.558610755779064" lon="10.995770332700527"><ele>286.0</ele><time>2026-04-15T11:21:14Z</time></trkpt><trkpt lat="45.55871214662355" lon="10.995806347995137"><ele>286.0</ele><time>2026-04-15T11:21:15Z</time></trkpt><trkpt lat="45.55879755056048" lon="10.995878826500737"><ele>286.0</ele><time>2026-04-15T11:21:16Z</time></trkpt><trkpt lat="45.55889525985728" lon="10.995922923571767"><ele>281.75</ele><time>2026-04-15T11:21:17Z</time></trkpt><trkpt lat="45.558987042348136" lon="10.996015011224976"><ele>277.5</ele><time>2026-04-15T11:21:18Z</time></trkpt><trkpt lat="45.55911228564888" lon="10.996021102232579"><ele>273.25</ele><time>2026-04-15T11:21:19Z</time></trkpt><trkpt lat="45.5592268352504" lon="10.996032199139165"><ele>269.0</ele><time>2026-04-15T11:21:20Z</time></trkpt><trkpt lat="45.55933891471272" lon="10.996037681291762"><ele>269.0</ele><time>2026-04-15T11:21:21Z</time></trkpt><trkpt lat="45.55945781295837" lon="10.99601897847391"><ele>269.0</ele><time>2026-04-15T11:21:22Z</time></trkpt><trkpt lat="45.55957252375115" lon="10.99603780312454"><ele>269.0</ele><time>2026-04-15T11:21:23Z</time></trkpt><trkpt lat="45.55966768404056" lon="10.996019279314392"><ele>269.0</ele><time>2026-04-15T11:21:24Z</time></trkpt><trkpt lat="45.55973732614587" lon="10.99603322115652"><ele>269.0</ele><time>2026-04-15T11:21:25Z</time></trkpt><trkpt lat="45.55986126596269" lon="10.996017243312588"><ele>269.2</ele><time>2026-04-15T11:21:27.001Z</time></trkpt><trkpt lat="45.56000151817442" lon="10.995974686020483"><ele>269.4</ele><time>2026-04-15T11:21:29.001Z</time></trkpt><trkpt lat="45.560084692059235" lon="10.995918634704093"><ele>269.6</ele><time>2026-04-15T11:21:30.001Z</time></trkpt><trkpt lat="45.560171926389756" lon="10.995907247148914"><ele>269.8</ele><time>2026-04-15T11:21:31.001Z</time></trkpt><trkpt lat="45.560235541171046" lon="10.995847887051394"><ele>270.0</ele><time>2026-04-15T11:21:32.001Z</time></trkpt><trkpt lat="45.5603387987545" lon="10.995787300884562"><ele>270.75</ele><time>2026-04-15T11:21:34.001Z</time></trkpt><trkpt lat="45.56044724217387" lon="10.996037806481661"><ele>271.5</ele><time>2026-04-15T11:21:37.001Z</time></trkpt><trkpt lat="45.56048874349406" lon="10.996156675998833"><ele>272.25</ele><time>2026-04-15T11:21:38.001Z</time></trkpt><trkpt lat="45.56053035407491" lon="10.996293920578518"><ele>273.0</ele><time>2026-04-15T11:21:39.001Z</time></trkpt><trkpt lat="45.56057112138701" lon="10.99643160989335"><ele>273.0</ele><time>2026-04-15T11:21:40.001Z</time></trkpt><trkpt lat="45.560614345637624" lon="10.996561598548125"><ele>273.0</ele><time>2026-04-15T11:21:41.001Z</time></trkpt><trkpt lat="45.56067605876207" lon="10.996688698083194"><ele>273.0</ele><time>2026-04-15T11:21:42.001Z</time></trkpt><trkpt lat="45.560724116568856" lon="10.99680313419862"><ele>273.0</ele><time>2026-04-15T11:21:43.001Z</time></trkpt><trkpt lat="45.56076108944359" lon="10.996901331731504"><ele>273.0</ele><time>2026-04-15T11:21:44.001Z</time></trkpt><trkpt lat="45.560807709188204" lon="10.997033321695138"><ele>273.4</ele><time>2026-04-15T11:21:46.001Z</time></trkpt><trkpt lat="45.56071899267031" lon="10.997185049678757"><ele>273.8</ele><time>2026-04-15T11:21:50.001Z</time></trkpt><trkpt lat="45.560656855142554" lon="10.997231401995924"><ele>274.2</ele><time>2026-04-15T11:21:51.001Z</time></trkpt><trkpt lat="45.56058655826218" lon="10.997274345933976"><ele>274.6</ele><time>2026-04-15T11:21:52.001Z</time></trkpt><trkpt lat="45.56050976150188" lon="10.99734298621445"><ele>275.0</ele><time>2026-04-15T11:21:53.001Z</time></trkpt><trkpt lat="45.56044483488575" lon="10.997415383293182"><ele>275.0</ele><time>2026-04-15T11:21:54.001Z</time></trkpt><trkpt lat="45.56039030155414" lon="10.9974759167054"><ele>275.0</ele><time>2026-04-15T11:21:55.001Z</time></trkpt><trkpt lat="45.56034079553695" lon="10.997533253255245"><ele>275.0</ele><time>2026-04-15T11:21:56.001Z</time></trkpt><trkpt lat="45.56025574386808" lon="10.997638026142548"><ele>275.0</ele><time>2026-04-15T11:21:58.001Z</time></trkpt><trkpt lat="45.56016063606069" lon="10.997755681629819"><ele>275.0</ele><time>2026-04-15T11:22:00.001Z</time></trkpt><trkpt lat="45.560099720596526" lon="10.997827515806657"><ele>275.0</ele><time>2026-04-15T11:22:01.001Z</time></trkpt><trkpt lat="45.56004180623525" lon="10.99790424414112"><ele>275.0</ele><time>2026-04-15T11:22:02.001Z</time></trkpt><trkpt lat="45.55998668067056" lon="10.997977206752363"><ele>275.0</ele><time>2026-04-15T11:22:03.001Z</time></trkpt><trkpt lat="45.55992880067212" lon="10.998035079676843"><ele>275.0</ele><time>2026-04-15T11:22:04.001Z</time></trkpt><trkpt lat="45.55988047071616" lon="10.997941531014252"><ele>275.0</ele><time>2026-04-15T11:22:07.001Z</time></trkpt><trkpt lat="45.559915938299454" lon="10.998036379464542"><ele>275.0</ele><time>2026-04-15T11:22:12.001Z</time></trkpt><trkpt lat="45.55991103136" lon="10.99778979230228"><ele>275.0</ele><time>2026-04-15T11:22:23.999Z</time></trkpt><trkpt lat="45.5600096043889" lon="10.997685107210945"><ele>275.0</ele><time>2026-04-15T11:22:25.999Z</time></trkpt><trkpt lat="45.56006823121991" lon="10.9976139087222"><ele>275.0</ele><time>2026-04-15T11:22:26.999Z</time></trkpt><trkpt lat="45.56012259785075" lon="10.997532515622563"><ele>275.0</ele><time>2026-04-15T11:22:27.999Z</time></trkpt><trkpt lat="45.560324372743914" lon="10.997606962891545"><ele>275.0</ele><time>2026-04-15T11:22:28.999Z</time></trkpt><trkpt lat="45.56040779137472" lon="10.997507402843262"><ele>275.0</ele><time>2026-04-15T11:22:29.999Z</time></trkpt><trkpt lat="45.56048965844516" lon="10.99742154833864"><ele>275.0</ele><time>2026-04-15T11:22:30.999Z</time></trkpt><trkpt lat="45.560580091773566" lon="10.997333028275097"><ele>275.0</ele><time>2026-04-15T11:22:31.999Z</time></trkpt><trkpt lat="45.560686278676044" lon="10.997237857894564"><ele>275.0</ele><time>2026-04-15T11:22:32.999Z</time></trkpt><trkpt lat="45.56081294365023" lon="10.99714471106391"><ele>275.0</ele><time>2026-04-15T11:22:33.999Z</time></trkpt><trkpt lat="45.56094192406703" lon="10.99706269519848"><ele>275.0</ele><time>2026-04-15T11:22:34.999Z</time></trkpt><trkpt lat="45.5610858443088" lon="10.996978472069475"><ele>275.0</ele><time>2026-04-15T11:22:35.999Z</time></trkpt><trkpt lat="45.56123980183459" lon="10.996885769232291"><ele>275.25</ele><time>2026-04-15T11:22:36.999Z</time></trkpt><trkpt lat="45.561373546027696" lon="10.996801916032789"><ele>275.5</ele><time>2026-04-15T11:22:37.999Z</time></trkpt><trkpt lat="45.56149181852583" lon="10.996727311433919"><ele>275.75</ele><time>2026-04-15T11:22:39Z</time></trkpt><trkpt lat="45.561598218398466" lon="10.996664672436959"><ele>276.0</ele><time>2026-04-15T11:22:40Z</time></trkpt><trkpt lat="45.56169710770637" lon="10.99660021955139"><ele>276.0</ele><time>2026-04-15T11:22:41Z</time></trkpt><trkpt lat="45.56178125238847" lon="10.996544244955672"><ele>276.0</ele><time>2026-04-15T11:22:42Z</time></trkpt><trkpt lat="45.56187994031718" lon="10.996514230030824"><ele>276.0</ele><time>2026-04-15T11:22:44Z</time></trkpt><trkpt lat="45.561945895091455" lon="10.996643838569737"><ele>276.0</ele><time>2026-04-15T11:22:46Z</time></trkpt><trkpt lat="45.561979520607146" lon="10.996790107128863"><ele>276.0</ele><time>2026-04-15T11:22:47Z</time></trkpt><trkpt lat="45.562010565394594" lon="10.996944948237314"><ele>277.0</ele><time>2026-04-15T11:22:48Z</time></trkpt><trkpt lat="45.56205586782261" lon="10.997130975585103"><ele>278.0</ele><time>2026-04-15T11:22:49Z</time></trkpt><trkpt lat="45.56211068925542" lon="10.997317741661572"><ele>279.0</ele><time>2026-04-15T11:22:50Z</time></trkpt><trkpt lat="45.56217156566866" lon="10.997514376203704"><ele>280.0</ele><time>2026-04-15T11:22:51Z</time></trkpt><trkpt lat="45.56224065372874" lon="10.997727434707105"><ele>280.3333333333333</ele><time>2026-04-15T11:22:52Z</time></trkpt><trkpt lat="45.56230228266231" lon="10.997924406124543"><ele>280.6666666666667</ele><time>2026-04-15T11:22:53Z</time></trkpt><trkpt lat="45.56235756160565" lon="10.998120424927166"><ele>281.0</ele><time>2026-04-15T11:22:54Z</time></trkpt><trkpt lat="45.56242136399582" lon="10.998331397287014"><ele>281.0</ele><time>2026-04-15T11:22:55Z</time></trkpt><trkpt lat="45.56248614801935" lon="10.998547273645833"><ele>281.0</ele><time>2026-04-15T11:22:56Z</time></trkpt><trkpt lat="45.56255751994199" lon="10.998775860978116"><ele>281.0</ele><time>2026-04-15T11:22:57Z</time></trkpt><trkpt lat="45.562620540486805" lon="10.998983538414079"><ele>282.0</ele><time>2026-04-15T11:22:58Z</time></trkpt><trkpt lat="45.56268390491015" lon="10.999191524096465"><ele>283.0</ele><time>2026-04-15T11:22:59Z</time></trkpt><trkpt lat="45.562744582858166" lon="10.999396054536522"><ele>284.0</ele><time>2026-04-15T11:23:00Z</time></trkpt><trkpt lat="45.56280420463049" lon="10.999602030316339"><ele>284.0</ele><time>2026-04-15T11:23:01Z</time></trkpt><trkpt lat="45.562854280560934" lon="10.999791996768169"><ele>284.0</ele><time>2026-04-15T11:23:02Z</time></trkpt><trkpt lat="45.56291813249493" lon="10.999976809195367"><ele>284.0</ele><time>2026-04-15T11:23:03Z</time></trkpt><trkpt lat="45.56297612521488" lon="11.00016696920817"><ele>284.0</ele><time>2026-04-15T11:23:04Z</time></trkpt><trkpt lat="45.563015861874675" lon="11.00034814543471"><ele>285.0</ele><time>2026-04-15T11:23:05Z</time></trkpt><trkpt lat="45.563025458666715" lon="11.00055458947242"><ele>286.0</ele><time>2026-04-15T11:23:06Z</time></trkpt><trkpt lat="45.563010025835844" lon="11.0007750274136"><ele>287.0</ele><time>2026-04-15T11:23:07Z</time></trkpt><trkpt lat="45.5629718485779" lon="11.00099746498279"><ele>288.0</ele><time>2026-04-15T11:23:08Z</time></trkpt><trkpt lat="45.56297421483301" lon="11.001219058217487"><ele>289.0</ele><time>2026-04-15T11:23:09Z</time></trkpt><trkpt lat="45.56295791277875" lon="11.001418162563171"><ele>290.0</ele><time>2026-04-15T11:23:10Z</time></trkpt><trkpt lat="45.56294294020784" lon="11.001625565001845"><ele>291.0</ele><time>2026-04-15T11:23:11Z</time></trkpt><trkpt lat="45.56293133765376" lon="11.001830149791196"><ele>291.2</ele><time>2026-04-15T11:23:12Z</time></trkpt><trkpt lat="45.5629433115468" lon="11.0020119416136"><ele>291.40000000000003</ele><time>2026-04-15T11:23:13Z</time></trkpt><trkpt lat="45.56295772008881" lon="11.002151647414324"><ele>291.6</ele><time>2026-04-15T11:23:14Z</time></trkpt><trkpt lat="45.56298099697062" lon="11.002269115347506"><ele>291.8</ele><time>2026-04-15T11:23:15Z</time></trkpt><trkpt lat="45.56304063035829" lon="11.002380689349826"><ele>292.0</ele><time>2026-04-15T11:23:16Z</time></trkpt><trkpt lat="45.5631170346152" lon="11.002487383205668"><ele>292.75</ele><time>2026-04-15T11:23:17Z</time></trkpt><trkpt lat="45.56319255690692" lon="11.002605412944877"><ele>293.5</ele><time>2026-04-15T11:23:18Z</time></trkpt><trkpt lat="45.56321837290221" lon="11.002749840682535"><ele>294.25</ele><time>2026-04-15T11:23:19Z</time></trkpt><trkpt lat="45.563215545316446" lon="11.00290838220165"><ele>295.0</ele><time>2026-04-15T11:23:20Z</time></trkpt><trkpt lat="45.563221150815814" lon="11.003101035652088"><ele>295.0</ele><time>2026-04-15T11:23:21Z</time></trkpt><trkpt lat="45.56324604402835" lon="11.003291031164146"><ele>295.0</ele><time>2026-04-15T11:23:22Z</time></trkpt><trkpt lat="45.563252317076746" lon="11.003505885784822"><ele>295.0</ele><time>2026-04-15T11:23:23Z</time></trkpt><trkpt lat="45.56328712127521" lon="11.003737803534998"><ele>296.0</ele><time>2026-04-15T11:23:24Z</time></trkpt><trkpt lat="45.56333076278099" lon="11.003930298642674"><ele>297.0</ele><time>2026-04-15T11:23:25.001Z</time></trkpt><trkpt lat="45.563354626168426" lon="11.00412391999864"><ele>298.0</ele><time>2026-04-15T11:23:26.001Z</time></trkpt><trkpt lat="45.56334141507936" lon="11.0043276395139"><ele>299.0</ele><time>2026-04-15T11:23:27.001Z</time></trkpt><trkpt lat="45.56333707314732" lon="11.004532082431037"><ele>300.0</ele><time>2026-04-15T11:23:28.001Z</time></trkpt><trkpt lat="45.56332565758959" lon="11.00471318965144"><ele>301.0</ele><time>2026-04-15T11:23:29.001Z</time></trkpt><trkpt lat="45.563334424959486" lon="11.004876612316345"><ele>302.0</ele><time>2026-04-15T11:23:30.001Z</time></trkpt><trkpt lat="45.563324708293834" lon="11.005029392062816"><ele>303.0</ele><time>2026-04-15T11:23:31.001Z</time></trkpt><trkpt lat="45.56332681946685" lon="11.005179513338167"><ele>304.0</ele><time>2026-04-15T11:23:32.001Z</time></trkpt><trkpt lat="45.563375992381985" lon="11.005286581811774"><ele>305.0</ele><time>2026-04-15T11:23:33.001Z</time></trkpt><trkpt lat="45.563441069338204" lon="11.005367718784447"><ele>306.0</ele><time>2026-04-15T11:23:34.001Z</time></trkpt><trkpt lat="45.56353099920316" lon="11.005437267579536"><ele>307.0</ele><time>2026-04-15T11:23:35.001Z</time></trkpt><trkpt lat="45.56362632335982" lon="11.005502215889928"><ele>308.0</ele><time>2026-04-15T11:23:36.001Z</time></trkpt><trkpt lat="45.563725284346006" lon="11.0056026129991"><ele>310.83333333333337</ele><time>2026-04-15T11:23:37.001Z</time></trkpt><trkpt lat="45.56381136159204" lon="11.005670203582547"><ele>313.6666666666667</ele><time>2026-04-15T11:23:38.001Z</time></trkpt><trkpt lat="45.5638796453767" lon="11.005728139739137"><ele>316.5</ele><time>2026-04-15T11:23:39.001Z</time></trkpt><trkpt lat="45.56394852193919" lon="11.005794216285855"><ele>319.3333333333333</ele><time>2026-04-15T11:23:40.001Z</time></trkpt><trkpt lat="45.563992361253824" lon="11.005867583152488"><ele>322.16666666666663</ele><time>2026-04-15T11:23:41.001Z</time></trkpt><trkpt lat="45.56403792167564" lon="11.005978083816318"><ele>325.0</ele><time>2026-04-15T11:23:43.001Z</time></trkpt><trkpt lat="45.56406667356631" lon="11.006067521806067"><ele>325.0</ele><time>2026-04-15T11:23:47.001Z</time></trkpt><trkpt lat="45.564108506779526" lon="11.006226758727793"><ele>325.0</ele><time>2026-04-15T11:23:50.001Z</time></trkpt><trkpt lat="45.56415943794156" lon="11.006408846753184"><ele>325.0</ele><time>2026-04-15T11:23:52.001Z</time></trkpt><trkpt lat="45.56421349546337" lon="11.006520258148017"><ele>325.0</ele><time>2026-04-15T11:23:54.001Z</time></trkpt><trkpt lat="45.564256262000214" lon="11.006588844292745"><ele>325.0</ele><time>2026-04-15T11:23:55.001Z</time></trkpt><trkpt lat="45.56433212097385" lon="11.006699965958514"><ele>323.6</ele><time>2026-04-15T11:23:57.001Z</time></trkpt><trkpt lat="45.56438871185765" lon="11.006782862903442"><ele>322.2</ele><time>2026-04-15T11:23:58.001Z</time></trkpt><trkpt lat="45.5644448548388" lon="11.006859406363903"><ele>320.8</ele><time>2026-04-15T11:23:59.001Z</time></trkpt><trkpt lat="45.56449291116253" lon="11.006922675061805"><ele>319.4</ele><time>2026-04-15T11:24:00.001Z</time></trkpt><trkpt lat="45.56459173546045" lon="11.007012833900719"><ele>318.0</ele><time>2026-04-15T11:24:02.001Z</time></trkpt><trkpt lat="45.56461033678494" lon="11.006697337712612"><ele>325.0</ele><time>2026-04-15T11:24:06.001Z</time></trkpt><trkpt lat="45.5645638380169" lon="11.006616728866888"><ele>332.0</ele><time>2026-04-15T11:24:07.001Z</time></trkpt><trkpt lat="45.56462335776136" lon="11.006561783512751"><ele>339.0</ele><time>2026-04-15T11:24:10.001Z</time></trkpt><trkpt lat="45.56467186519888" lon="11.006640338547433"><ele>346.0</ele><time>2026-04-15T11:24:12.001Z</time></trkpt><trkpt lat="45.56474807191032" lon="11.006737944371478"><ele>353.0</ele><time>2026-04-15T11:24:14.001Z</time></trkpt><trkpt lat="45.56483243552588" lon="11.006848672130683"><ele>360.0</ele><time>2026-04-15T11:24:16.001Z</time></trkpt><trkpt lat="45.56475854686361" lon="11.007122013661235"><ele>360.0</ele><time>2026-04-15T11:24:17.001Z</time></trkpt><trkpt lat="45.56483620739077" lon="11.007215817638707"><ele>360.0</ele><time>2026-04-15T11:24:19.001Z</time></trkpt><trkpt lat="45.56492291492647" lon="11.007334652695757"><ele>360.0</ele><time>2026-04-15T11:24:21.001Z</time></trkpt><trkpt lat="45.56497101570646" lon="11.007402133016095"><ele>360.0</ele><time>2026-04-15T11:24:22.001Z</time></trkpt><trkpt lat="45.56501744005375" lon="11.007467595874447"><ele>360.0</ele><time>2026-04-15T11:24:23.001Z</time></trkpt><trkpt lat="45.565096402887434" lon="11.007577523332872"><ele>356.1666666666667</ele><time>2026-04-15T11:24:25.001Z</time></trkpt><trkpt lat="45.565166566180096" lon="11.007668314350969"><ele>352.3333333333333</ele><time>2026-04-15T11:24:27Z</time></trkpt><trkpt lat="45.56521926862503" lon="11.007733305121306"><ele>348.5</ele><time>2026-04-15T11:24:28Z</time></trkpt><trkpt lat="45.56528208262197" lon="11.007806153061162"><ele>344.66666666666663</ele><time>2026-04-15T11:24:29Z</time></trkpt><trkpt lat="45.565350575738776" lon="11.007885587403665"><ele>340.8333333333333</ele><time>2026-04-15T11:24:30Z</time></trkpt><trkpt lat="45.56540568572025" lon="11.0079495009137"><ele>337.0</ele><time>2026-04-15T11:24:31Z</time></trkpt><trkpt lat="45.56546652217907" lon="11.008020055697617"><ele>341.20000000000005</ele><time>2026-04-15T11:24:32Z</time></trkpt><trkpt lat="45.56559149180486" lon="11.008154912684997"><ele>345.4</ele><time>2026-04-15T11:24:34Z</time></trkpt><trkpt lat="45.56566647660725" lon="11.008210751696783"><ele>349.6</ele><time>2026-04-15T11:24:35Z</time></trkpt><trkpt lat="45.565723240930936" lon="11.008262683906283"><ele>353.79999999999995</ele><time>2026-04-15T11:24:36Z</time></trkpt><trkpt lat="45.56579251760918" lon="11.0083502138776"><ele>358.0</ele><time>2026-04-15T11:24:38Z</time></trkpt><trkpt lat="45.56583321919084" lon="11.008438269030822"><ele>358.0</ele><time>2026-04-15T11:24:40Z</time></trkpt><trkpt lat="45.56585289066867" lon="11.008543146376057"><ele>358.0</ele><time>2026-04-15T11:24:42Z</time></trkpt><trkpt lat="45.56585614128003" lon="11.008643770704518"><ele>358.0</ele><time>2026-04-15T11:24:44Z</time></trkpt><trkpt lat="45.565841257410945" lon="11.008768146930258"><ele>358.0</ele><time>2026-04-15T11:24:46Z</time></trkpt><trkpt lat="45.56585863911894" lon="11.008919408119594"><ele>358.0</ele><time>2026-04-15T11:24:48Z</time></trkpt><trkpt lat="45.56587510717056" lon="11.009033056917803"><ele>358.0</ele><time>2026-04-15T11:24:49Z</time></trkpt><trkpt lat="45.56592584633472" lon="11.009209121211555"><ele>354.5</ele><time>2026-04-15T11:24:50Z</time></trkpt><trkpt lat="45.565995608368134" lon="11.00934036292214"><ele>351.0</ele><time>2026-04-15T11:24:51Z</time></trkpt><trkpt lat="45.56630193297038" lon="11.009147294505036"><ele>357.5</ele><time>2026-04-15T11:24:53Z</time></trkpt><trkpt lat="45.566384896389295" lon="11.009203094573335"><ele>364.0</ele><time>2026-04-15T11:24:55Z</time></trkpt><trkpt lat="45.56646239751839" lon="11.009296817406268"><ele>370.5</ele><time>2026-04-15T11:24:57Z</time></trkpt><trkpt lat="45.56650774986873" lon="11.009365396688413"><ele>377.0</ele><time>2026-04-15T11:24:58Z</time></trkpt><trkpt lat="45.56658646681527" lon="11.009427127483608"><ele>383.5</ele><time>2026-04-15T11:25:01Z</time></trkpt><trkpt lat="45.56667093476054" lon="11.009465492861125"><ele>390.0</ele><time>2026-04-15T11:25:03Z</time></trkpt><trkpt lat="45.56676619322998" lon="11.009491323212444"><ele>390.0</ele><time>2026-04-15T11:25:05Z</time></trkpt><trkpt lat="45.566856055871085" lon="11.009508515282766"><ele>390.0</ele><time>2026-04-15T11:25:07Z</time></trkpt><trkpt lat="45.56696775591595" lon="11.00958704803868"><ele>390.0</ele><time>2026-04-15T11:25:09Z</time></trkpt><trkpt lat="45.567045513438806" lon="11.00964400003393"><ele>390.0</ele><time>2026-04-15T11:25:11Z</time></trkpt><trkpt lat="45.5671354769432" lon="11.009715164390899"><ele>390.0</ele><time>2026-04-15T11:25:13Z</time></trkpt><trkpt lat="45.56722316745416" lon="11.009781783814972"><ele>391.8</ele><time>2026-04-15T11:25:15Z</time></trkpt><trkpt lat="45.56729779227899" lon="11.009858377382834"><ele>393.6</ele><time>2026-04-15T11:25:17Z</time></trkpt><trkpt lat="45.56736341090806" lon="11.009895835266251"><ele>395.4</ele><time>2026-04-15T11:25:19Z</time></trkpt><trkpt lat="45.567479825778264" lon="11.009963075044052"><ele>397.2</ele><time>2026-04-15T11:25:21Z</time></trkpt><trkpt lat="45.56758097979154" lon="11.010067890740645"><ele>399.0</ele><time>2026-04-15T11:25:23.001Z</time></trkpt><trkpt lat="45.56768578839569" lon="11.010187802283308"><ele>399.0</ele><time>2026-04-15T11:25:25.001Z</time></trkpt><trkpt lat="45.56775973783823" lon="11.01025806972272"><ele>399.0</ele><time>2026-04-15T11:25:27.001Z</time></trkpt><trkpt lat="45.567793813168564" lon="11.010129328308656"><ele>399.0</ele><time>2026-04-15T11:26:50Z</time></trkpt><trkpt lat="45.56776781334185" lon="11.010038898328931"><ele>399.0</ele><time>2026-04-15T11:26:51Z</time></trkpt><trkpt lat="45.56771766908412" lon="11.00994738771483"><ele>399.0</ele><time>2026-04-15T11:26:52Z</time></trkpt><trkpt lat="45.56766179027604" lon="11.009870775208729"><ele>399.0</ele><time>2026-04-15T11:26:53Z</time></trkpt><trkpt lat="45.56761197167021" lon="11.009777904047514"><ele>404.5</ele><time>2026-04-15T11:26:54Z</time></trkpt><trkpt lat="45.567558698027085" lon="11.00968354684728"><ele>410.0</ele><time>2026-04-15T11:26:55Z</time></trkpt><trkpt lat="45.56750573112811" lon="11.009588322242578"><ele>415.5</ele><time>2026-04-15T11:26:56Z</time></trkpt><trkpt lat="45.56744901411616" lon="11.009471072842196"><ele>421.0</ele><time>2026-04-15T11:26:57Z</time></trkpt><trkpt lat="45.56738790687402" lon="11.009382523008979"><ele>426.5</ele><time>2026-04-15T11:26:58Z</time></trkpt><trkpt lat="45.56732924204716" lon="11.009287438549222"><ele>432.0</ele><time>2026-04-15T11:26:59Z</time></trkpt><trkpt lat="45.567256738167565" lon="11.009195695377416"><ele>429.0</ele><time>2026-04-15T11:27:00Z</time></trkpt><trkpt lat="45.567178687270136" lon="11.00910125538026"><ele>426.00000000000006</ele><time>2026-04-15T11:27:01Z</time></trkpt><trkpt lat="45.56710894504255" lon="11.009000904380768"><ele>423.0</ele><time>2026-04-15T11:27:02Z</time></trkpt><trkpt lat="45.56704509331828" lon="11.008890448603228"><ele>420.0</ele><time>2026-04-15T11:27:03Z</time></trkpt><trkpt lat="45.5669897218142" lon="11.008812265366178"><ele>417.0</ele><time>2026-04-15T11:27:04Z</time></trkpt><trkpt lat="45.56693095109848" lon="11.008748531096202"><ele>417.0</ele><time>2026-04-15T11:27:05Z</time></trkpt><trkpt lat="45.5668790400841" lon="11.008667455239104"><ele>417.0</ele><time>2026-04-15T11:27:06.001Z</time></trkpt><trkpt lat="45.566850359755705" lon="11.008578452876534"><ele>417.0</ele><time>2026-04-15T11:27:07.001Z</time></trkpt><trkpt lat="45.56691364171231" lon="11.008558135774388"><ele>417.0</ele><time>2026-04-15T11:27:11.001Z</time></trkpt><trkpt lat="45.56696617348242" lon="11.008613372430023"><ele>417.0</ele><time>2026-04-15T11:27:12.001Z</time></trkpt><trkpt lat="45.56702829323385" lon="11.008702049886988"><ele>417.0</ele><time>2026-04-15T11:27:13.001Z</time></trkpt><trkpt lat="45.56710135484974" lon="11.008753102012449"><ele>417.0</ele><time>2026-04-15T11:27:14.001Z</time></trkpt><trkpt lat="45.56718293799419" lon="11.008798015920483"><ele>425.6666666666667</ele><time>2026-04-15T11:27:15.001Z</time></trkpt><trkpt lat="45.56727535397207" lon="11.00877647613562"><ele>434.33333333333337</ele><time>2026-04-15T11:27:16.001Z</time></trkpt><trkpt lat="45.56734880660946" lon="11.008798063265155"><ele>443.0</ele><time>2026-04-15T11:27:17.001Z</time></trkpt><trkpt lat="45.56742193199365" lon="11.008856979505214"><ele>451.6666666666667</ele><time>2026-04-15T11:27:18.001Z</time></trkpt><trkpt lat="45.56750450518517" lon="11.008930327409036"><ele>460.33333333333337</ele><time>2026-04-15T11:27:19.001Z</time></trkpt><trkpt lat="45.56758026691632" lon="11.008972590734817"><ele>469.0</ele><time>2026-04-15T11:27:20.001Z</time></trkpt><trkpt lat="45.567666060687536" lon="11.009026694458363"><ele>469.0</ele><time>2026-04-15T11:27:21.001Z</time></trkpt><trkpt lat="45.56775589312452" lon="11.009077388833457"><ele>469.0</ele><time>2026-04-15T11:27:22.001Z</time></trkpt><trkpt lat="45.56782292412793" lon="11.009109422668853"><ele>469.0</ele><time>2026-04-15T11:27:23.001Z</time></trkpt><trkpt lat="45.56789704799516" lon="11.009184697938052"><ele>469.0</ele><time>2026-04-15T11:27:24.001Z</time></trkpt><trkpt lat="45.567993689345386" lon="11.009274227556125"><ele>469.0</ele><time>2026-04-15T11:27:25.001Z</time></trkpt><trkpt lat="45.56807564801385" lon="11.009358773801734"><ele>469.79999999999995</ele><time>2026-04-15T11:27:26.001Z</time></trkpt><trkpt lat="45.56816251318663" lon="11.009448184010097"><ele>470.59999999999997</ele><time>2026-04-15T11:27:27.001Z</time></trkpt><trkpt lat="45.568250143132275" lon="11.009535097318347"><ele>471.4</ele><time>2026-04-15T11:27:28.001Z</time></trkpt><trkpt lat="45.568315012669565" lon="11.009622930404667"><ele>472.2</ele><time>2026-04-15T11:27:29.001Z</time></trkpt><trkpt lat="45.568415421074725" lon="11.009687401867659"><ele>473.0</ele><time>2026-04-15T11:27:31.001Z</time></trkpt><trkpt lat="45.56846550634378" lon="11.009751217179698"><ele>473.0</ele><time>2026-04-15T11:27:32.001Z</time></trkpt><trkpt lat="45.5685063880193" lon="11.00988420075874"><ele>473.0</ele><time>2026-04-15T11:27:34.001Z</time></trkpt><trkpt lat="45.56846684993451" lon="11.010080210913712"><ele>473.0</ele><time>2026-04-15T11:27:36.001Z</time></trkpt><trkpt lat="45.568491681371654" lon="11.010207509631655"><ele>473.0</ele><time>2026-04-15T11:27:38.001Z</time></trkpt><trkpt lat="45.5686247057013" lon="11.010319765513593"><ele>473.66666666666663</ele><time>2026-04-15T11:27:40.001Z</time></trkpt><trkpt lat="45.568667254795415" lon="11.01038966348566"><ele>474.3333333333333</ele><time>2026-04-15T11:27:41.001Z</time></trkpt><trkpt lat="45.568767788543106" lon="11.010444110979702"><ele>475.0</ele><time>2026-04-15T11:27:43.001Z</time></trkpt><trkpt lat="45.56884629337888" lon="11.01045925615248"><ele>475.66666666666663</ele><time>2026-04-15T11:27:44.001Z</time></trkpt><trkpt lat="45.568924261840316" lon="11.01049441260727"><ele>476.3333333333333</ele><time>2026-04-15T11:27:45.001Z</time></trkpt><trkpt lat="45.569010680907404" lon="11.010531504687588"><ele>477.0</ele><time>2026-04-15T11:27:46.001Z</time></trkpt><trkpt lat="45.56909727181168" lon="11.010578748705376"><ele>477.0</ele><time>2026-04-15T11:27:47.001Z</time></trkpt><trkpt lat="45.56918653319917" lon="11.010600632266273"><ele>477.00000000000006</ele><time>2026-04-15T11:27:48.001Z</time></trkpt><trkpt lat="45.56927806352924" lon="11.010584040173345"><ele>477.00000000000006</ele><time>2026-04-15T11:27:49.001Z</time></trkpt><trkpt lat="45.56936296084448" lon="11.010548416291323"><ele>477.0</ele><time>2026-04-15T11:27:50.001Z</time></trkpt><trkpt lat="45.569445644385496" lon="11.010481958649043"><ele>477.0</ele><time>2026-04-15T11:27:51.001Z</time></trkpt><trkpt lat="45.569527271369374" lon="11.010443806406489"><ele>477.85714285714283</ele><time>2026-04-15T11:27:52.001Z</time></trkpt><trkpt lat="45.56960377910213" lon="11.010447121646141"><ele>478.71428571428567</ele><time>2026-04-15T11:27:53.001Z</time></trkpt><trkpt lat="45.56966604266918" lon="11.01046045522179"><ele>479.57142857142856</ele><time>2026-04-15T11:27:54.001Z</time></trkpt><trkpt lat="45.56973166592735" lon="11.01049548258872"><ele>480.42857142857144</ele><time>2026-04-15T11:27:55.001Z</time></trkpt><trkpt lat="45.56977963691054" lon="11.01056481981923"><ele>481.2857142857143</ele><time>2026-04-15T11:27:56.001Z</time></trkpt><trkpt lat="45.56980868656783" lon="11.010657767260321"><ele>482.1428571428571</ele><time>2026-04-15T11:27:57.001Z</time></trkpt><trkpt lat="45.56980153848126" lon="11.010765106160548"><ele>483.0</ele><time>2026-04-15T11:27:58.001Z</time></trkpt><trkpt lat="45.56973040799267" lon="11.010930294547524"><ele>483.0</ele><time>2026-04-15T11:28:00.001Z</time></trkpt><trkpt lat="45.56969972753569" lon="11.011024552060437"><ele>483.0</ele><time>2026-04-15T11:28:01.001Z</time></trkpt><trkpt lat="45.56967775927894" lon="11.011139760232338"><ele>483.0</ele><time>2026-04-15T11:28:02.001Z</time></trkpt><trkpt lat="45.56966339009592" lon="11.01125955922565"><ele>483.0</ele><time>2026-04-15T11:28:03.001Z</time></trkpt><trkpt lat="45.56966821720232" lon="11.011360632402631"><ele>483.0</ele><time>2026-04-15T11:28:04.001Z</time></trkpt><trkpt lat="45.569700923456914" lon="11.01145663549087"><ele>483.0</ele><time>2026-04-15T11:28:05.001Z</time></trkpt><trkpt lat="45.569753840957894" lon="11.011539688300061"><ele>483.0</ele><time>2026-04-15T11:28:06.001Z</time></trkpt><trkpt lat="45.569879266933604" lon="11.011563295423587"><ele>482.99999999999994</ele><time>2026-04-15T11:28:08.001Z</time></trkpt><trkpt lat="45.56995366273385" lon="11.01153597279402"><ele>482.99999999999994</ele><time>2026-04-15T11:28:09.002Z</time></trkpt><trkpt lat="45.570012530528274" lon="11.011405865014156"><ele>483.0</ele><time>2026-04-15T11:28:11.002Z</time></trkpt><trkpt lat="45.57009872151412" lon="11.01136440610109"><ele>483.0</ele><time>2026-04-15T11:28:13.002Z</time></trkpt><trkpt lat="45.5701668787951" lon="11.011383364051222"><ele>483.0</ele><time>2026-04-15T11:28:14.002Z</time></trkpt><trkpt lat="45.5702397336903" lon="11.011388659379016"><ele>483.0</ele><time>2026-04-15T11:28:15.002Z</time></trkpt><trkpt lat="45.570310672766006" lon="11.011384243583219"><ele>483.0</ele><time>2026-04-15T11:28:16.002Z</time></trkpt><trkpt lat="45.57043335282662" lon="11.011328687774563"><ele>483.0</ele><time>2026-04-15T11:28:18.002Z</time></trkpt><trkpt lat="45.570499035387456" lon="11.011296334065175"><ele>483.0</ele><time>2026-04-15T11:28:19.002Z</time></trkpt><trkpt lat="45.57058700673156" lon="11.011266838731304"><ele>483.0</ele><time>2026-04-15T11:28:20.002Z</time></trkpt><trkpt lat="45.570714285586185" lon="11.011257708863091"><ele>486.0</ele><time>2026-04-15T11:28:22.002Z</time></trkpt><trkpt lat="45.57078270282497" lon="11.011260359610072"><ele>489.0</ele><time>2026-04-15T11:28:23.002Z</time></trkpt><trkpt lat="45.57087352860946" lon="11.011254953014909"><ele>492.0</ele><time>2026-04-15T11:28:24.002Z</time></trkpt><trkpt lat="45.570965811962914" lon="11.01123856482086"><ele>495.0</ele><time>2026-04-15T11:28:25.002Z</time></trkpt><trkpt lat="45.57105467613729" lon="11.011209614509779"><ele>498.0</ele><time>2026-04-15T11:28:26.002Z</time></trkpt><trkpt lat="45.57113305248971" lon="11.011170657741808"><ele>501.0</ele><time>2026-04-15T11:28:27.002Z</time></trkpt><trkpt lat="45.57119749917061" lon="11.011154961055041"><ele>502.6666666666667</ele><time>2026-04-15T11:28:28.002Z</time></trkpt><trkpt lat="45.571281577668756" lon="11.011157051304055"><ele>504.33333333333337</ele><time>2026-04-15T11:28:29.002Z</time></trkpt><trkpt lat="45.57137404037798" lon="11.011145706291893"><ele>506.0</ele><time>2026-04-15T11:28:30.002Z</time></trkpt><trkpt lat="45.57145934989197" lon="11.011138059236474"><ele>507.6666666666667</ele><time>2026-04-15T11:28:31.002Z</time></trkpt><trkpt lat="45.57153846918591" lon="11.011125183345545"><ele>509.33333333333337</ele><time>2026-04-15T11:28:32.002Z</time></trkpt><trkpt lat="45.57163394647215" lon="11.011153743126924"><ele>511.0</ele><time>2026-04-15T11:28:33.002Z</time></trkpt><trkpt lat="45.57173956833917" lon="11.01115668014059"><ele>511.0</ele><time>2026-04-15T11:28:34.002Z</time></trkpt><trkpt lat="45.57185038966475" lon="11.01114052535495"><ele>511.0</ele><time>2026-04-15T11:28:35.002Z</time></trkpt><trkpt lat="45.57196108287537" lon="11.01114496806907"><ele>511.0</ele><time>2026-04-15T11:28:36.002Z</time></trkpt><trkpt lat="45.57205313953347" lon="11.011147275263545"><ele>511.0</ele><time>2026-04-15T11:28:37.002Z</time></trkpt><trkpt lat="45.57213398382074" lon="11.01115647385503"><ele>511.0</ele><time>2026-04-15T11:28:38.002Z</time></trkpt><trkpt lat="45.57221778156242" lon="11.011164552198924"><ele>512.0</ele><time>2026-04-15T11:28:39.001Z</time></trkpt><trkpt lat="45.572292986717386" lon="11.011174947576505"><ele>513.0</ele><time>2026-04-15T11:28:40.001Z</time></trkpt><trkpt lat="45.572361350022646" lon="11.011178809632371"><ele>514.0</ele><time>2026-04-15T11:28:41.001Z</time></trkpt><trkpt lat="45.57245212880191" lon="11.011175815292384"><ele>515.0</ele><time>2026-04-15T11:28:42.001Z</time></trkpt><trkpt lat="45.572558105719835" lon="11.011174609665959"><ele>516.0</ele><time>2026-04-15T11:28:43.001Z</time></trkpt><trkpt lat="45.57266314662052" lon="11.011202864053464"><ele>517.0</ele><time>2026-04-15T11:28:44.001Z</time></trkpt><trkpt lat="45.57279051504618" lon="11.011221905486599"><ele>520.0</ele><time>2026-04-15T11:28:45.001Z</time></trkpt><trkpt lat="45.57292707707718" lon="11.011238254135712"><ele>523.0</ele><time>2026-04-15T11:28:46.001Z</time></trkpt><trkpt lat="45.5730653873558" lon="11.011282962745613"><ele>526.0</ele><time>2026-04-15T11:28:47.001Z</time></trkpt><trkpt lat="45.57319791576016" lon="11.011323279959065"><ele>529.0</ele><time>2026-04-15T11:28:48.001Z</time></trkpt><trkpt lat="45.57328739956795" lon="11.011368442674694"><ele>529.0</ele><time>2026-04-15T11:28:49.001Z</time></trkpt><trkpt lat="45.573373457883434" lon="11.011397035673493"><ele>529.0</ele><time>2026-04-15T11:28:50.001Z</time></trkpt><trkpt lat="45.57344786734585" lon="11.011398099928043"><ele>529.0</ele><time>2026-04-15T11:28:51.001Z</time></trkpt><trkpt lat="45.573564955701976" lon="11.011442169344514"><ele>529.0</ele><time>2026-04-15T11:28:53.001Z</time></trkpt><trkpt lat="45.57368564764869" lon="11.011499708557595"><ele>529.0</ele><time>2026-04-15T11:28:55.001Z</time></trkpt><trkpt lat="45.57376768186877" lon="11.011468845400273"><ele>532.0</ele><time>2026-04-15T11:28:56.001Z</time></trkpt><trkpt lat="45.57383599695621" lon="11.011426495092234"><ele>535.0</ele><time>2026-04-15T11:28:57.001Z</time></trkpt><trkpt lat="45.57389729893277" lon="11.011299904630407"><ele>538.0</ele><time>2026-04-15T11:28:59.001Z</time></trkpt><trkpt lat="45.573993367155396" lon="11.011159389000767"><ele>541.0</ele><time>2026-04-15T11:29:01.001Z</time></trkpt><trkpt lat="45.57406010587921" lon="11.011052970618412"><ele>544.0</ele><time>2026-04-15T11:29:02.001Z</time></trkpt><trkpt lat="45.57413479008151" lon="11.010928568032327"><ele>544.4</ele><time>2026-04-15T11:29:03.001Z</time></trkpt><trkpt lat="45.57421308771273" lon="11.010804775968447"><ele>544.8</ele><time>2026-04-15T11:29:04.001Z</time></trkpt><trkpt lat="45.57427729862366" lon="11.01068246175072"><ele>545.2</ele><time>2026-04-15T11:29:05.001Z</time></trkpt><trkpt lat="45.57436105153798" lon="11.010592533776393"><ele>545.6</ele><time>2026-04-15T11:29:06.001Z</time></trkpt><trkpt lat="45.57443096345572" lon="11.0105253974975"><ele>546.0</ele><time>2026-04-15T11:29:07.001Z</time></trkpt><trkpt lat="45.57450268048944" lon="11.010519768471069"><ele>547.4</ele><time>2026-04-15T11:29:08.001Z</time></trkpt><trkpt lat="45.57464967031262" lon="11.010469293880973"><ele>548.8</ele><time>2026-04-15T11:29:10.001Z</time></trkpt><trkpt lat="45.574746899664866" lon="11.010484700283165"><ele>550.1999999999999</ele><time>2026-04-15T11:29:11.001Z</time></trkpt><trkpt lat="45.57482228292086" lon="11.010460049348692"><ele>551.6</ele><time>2026-04-15T11:29:12.001Z</time></trkpt><trkpt lat="45.57490511035014" lon="11.01052639596783"><ele>553.0</ele><time>2026-04-15T11:29:14.001Z</time></trkpt><trkpt lat="45.57488887743016" lon="11.010679236114445"><ele>553.0</ele><time>2026-04-15T11:29:15.001Z</time></trkpt><trkpt lat="45.57492415394635" lon="11.010801714483405"><ele>553.0</ele><time>2026-04-15T11:29:16.001Z</time></trkpt><trkpt lat="45.574942073937976" lon="11.010942164536965"><ele>553.0</ele><time>2026-04-15T11:29:17.001Z</time></trkpt><trkpt lat="45.57493582356208" lon="11.01104517043156"><ele>553.0</ele><time>2026-04-15T11:29:18.001Z</time></trkpt><trkpt lat="45.574918867640655" lon="11.011152895021002"><ele>553.0</ele><time>2026-04-15T11:29:20.001Z</time></trkpt><trkpt lat="45.574837745897796" lon="11.011298153039197"><ele>552.5</ele><time>2026-04-15T11:29:22.001Z</time></trkpt><trkpt lat="45.57477237180304" lon="11.01136717021281"><ele>552.0</ele><time>2026-04-15T11:29:23.001Z</time></trkpt><trkpt lat="45.57470017850625" lon="11.011432031785008"><ele>551.5</ele><time>2026-04-15T11:29:24.001Z</time></trkpt><trkpt lat="45.5746413160487" lon="11.011502374688146"><ele>551.0</ele><time>2026-04-15T11:29:25.001Z</time></trkpt><trkpt lat="45.574580129681344" lon="11.011588651599354"><ele>550.5</ele><time>2026-04-15T11:29:27.001Z</time></trkpt><trkpt lat="45.574558086966505" lon="11.011690999438269"><ele>550.0</ele><time>2026-04-15T11:29:30.001Z</time></trkpt><trkpt lat="45.574501644390615" lon="11.011599436164982"><ele>550.3333333333334</ele><time>2026-04-15T11:29:31.001Z</time></trkpt><trkpt lat="45.574435655412046" lon="11.01160807329839"><ele>550.6666666666667</ele><time>2026-04-15T11:29:32.001Z</time></trkpt><trkpt lat="45.574351856110354" lon="11.011677964448484"><ele>551.0</ele><time>2026-04-15T11:29:33.001Z</time></trkpt><trkpt lat="45.574298591367686" lon="11.011776091934648"><ele>551.3333333333334</ele><time>2026-04-15T11:29:34.001Z</time></trkpt><trkpt lat="45.574238367253535" lon="11.011867755171993"><ele>551.6666666666666</ele><time>2026-04-15T11:29:35.001Z</time></trkpt><trkpt lat="45.5741824795716" lon="11.011972093922157"><ele>552.0</ele><time>2026-04-15T11:29:36.001Z</time></trkpt><trkpt lat="45.57413616890608" lon="11.012099440834314"><ele>552.0</ele><time>2026-04-15T11:29:37.001Z</time></trkpt><trkpt lat="45.574094025353304" lon="11.012239774745023"><ele>552.0</ele><time>2026-04-15T11:29:38.001Z</time></trkpt><trkpt lat="45.57405537254323" lon="11.012390040782687"><ele>552.0</ele><time>2026-04-15T11:29:39.001Z</time></trkpt><trkpt lat="45.57401228967006" lon="11.0125446563445"><ele>552.0</ele><time>2026-04-15T11:29:40.001Z</time></trkpt><trkpt lat="45.57396023075324" lon="11.012682994964688"><ele>552.0</ele><time>2026-04-15T11:29:41.001Z</time></trkpt><trkpt lat="45.57390699744934" lon="11.012799073671202"><ele>554.0</ele><time>2026-04-15T11:29:42.001Z</time></trkpt><trkpt lat="45.57384445550234" lon="11.012928522656432"><ele>556.0</ele><time>2026-04-15T11:29:43.001Z</time></trkpt><trkpt lat="45.5737485467411" lon="11.013015211282445"><ele>558.0</ele><time>2026-04-15T11:29:44.001Z</time></trkpt><trkpt lat="45.57365255521202" lon="11.013115186505221"><ele>560.0</ele><time>2026-04-15T11:29:45.001Z</time></trkpt><trkpt lat="45.57354403985284" lon="11.013209833858747"><ele>559.2</ele><time>2026-04-15T11:29:46.001Z</time></trkpt><trkpt lat="45.5734432140883" lon="11.0133030276677"><ele>558.4</ele><time>2026-04-15T11:29:47.001Z</time></trkpt><trkpt lat="45.57335417350094" lon="11.013407972032159"><ele>557.6</ele><time>2026-04-15T11:29:48.001Z</time></trkpt><trkpt lat="45.573289332262625" lon="11.013489739644179"><ele>556.8</ele><time>2026-04-15T11:29:49.001Z</time></trkpt><trkpt lat="45.573246407972945" lon="11.013572661967418"><ele>556.0</ele><time>2026-04-15T11:29:50.001Z</time></trkpt><trkpt lat="45.57321105154787" lon="11.01366096392541"><ele>556.0</ele><time>2026-04-15T11:29:51.001Z</time></trkpt><trkpt lat="45.573193511040614" lon="11.013776402694766"><ele>556.0</ele><time>2026-04-15T11:29:52.001Z</time></trkpt><trkpt lat="45.57318995451936" lon="11.013910223156623"><ele>556.0</ele><time>2026-04-15T11:29:53.001Z</time></trkpt><trkpt lat="45.573200665509134" lon="11.014029293264224"><ele>556.0</ele><time>2026-04-15T11:29:54.001Z</time></trkpt><trkpt lat="45.573212098489655" lon="11.014136511434367"><ele>556.0</ele><time>2026-04-15T11:29:55.001Z</time></trkpt><trkpt lat="45.573224136457966" lon="11.014262858999782"><ele>556.0</ele><time>2026-04-15T11:29:56.001Z</time></trkpt><trkpt lat="45.57325843586734" lon="11.014362150576707"><ele>556.2</ele><time>2026-04-15T11:29:57.001Z</time></trkpt><trkpt lat="45.573352993587925" lon="11.014431664272129"><ele>556.4000000000001</ele><time>2026-04-15T11:29:58.001Z</time></trkpt><trkpt lat="45.5734157610818" lon="11.01453457796459"><ele>556.6</ele><time>2026-04-15T11:29:59.001Z</time></trkpt><trkpt lat="45.57349356291539" lon="11.014612284658128"><ele>556.8000000000001</ele><time>2026-04-15T11:30:00.001Z</time></trkpt><trkpt lat="45.57356518979994" lon="11.014719253793912"><ele>557.0</ele><time>2026-04-15T11:30:01.001Z</time></trkpt><trkpt lat="45.573691071743916" lon="11.014724401782571"><ele>557.0</ele><time>2026-04-15T11:30:02.001Z</time></trkpt><trkpt lat="45.5736725772467" lon="11.014869271745196"><ele>557.0</ele><time>2026-04-15T11:30:03.001Z</time></trkpt><trkpt lat="45.57374926516527" lon="11.014959460206224"><ele>557.0</ele><time>2026-04-15T11:30:04.001Z</time></trkpt><trkpt lat="45.57383900816278" lon="11.015062257200002"><ele>557.0</ele><time>2026-04-15T11:30:05.001Z</time></trkpt><trkpt lat="45.57394728819101" lon="11.015156872246791"><ele>557.0</ele><time>2026-04-15T11:30:06.001Z</time></trkpt><trkpt lat="45.574040375145316" lon="11.015251142357496"><ele>557.0</ele><time>2026-04-15T11:30:07.001Z</time></trkpt><trkpt lat="45.574128721396065" lon="11.015335082597709"><ele>557.0</ele><time>2026-04-15T11:30:08.001Z</time></trkpt><trkpt lat="45.5742320185017" lon="11.015407102405943"><ele>557.0</ele><time>2026-04-15T11:30:09.001Z</time></trkpt><trkpt lat="45.57433557674918" lon="11.015472894235039"><ele>557.0</ele><time>2026-04-15T11:30:10.001Z</time></trkpt><trkpt lat="45.57444538999406" lon="11.01555396765513"><ele>557.4</ele><time>2026-04-15T11:30:11.001Z</time></trkpt><trkpt lat="45.57453512145725" lon="11.015646582499247"><ele>557.8000000000001</ele><time>2026-04-15T11:30:12.001Z</time></trkpt><trkpt lat="45.574610345414236" lon="11.015741895773992"><ele>558.2</ele><time>2026-04-15T11:30:13.001Z</time></trkpt><trkpt lat="45.57468455526505" lon="11.015862295238911"><ele>558.6</ele><time>2026-04-15T11:30:14.001Z</time></trkpt><trkpt lat="45.57474853091571" lon="11.015974942189178"><ele>559.0</ele><time>2026-04-15T11:30:15.002Z</time></trkpt><trkpt lat="45.57481376177572" lon="11.016088415628486"><ele>559.0</ele><time>2026-04-15T11:30:16.002Z</time></trkpt><trkpt lat="45.57487554919936" lon="11.01619452274274"><ele>559.0</ele><time>2026-04-15T11:30:17.002Z</time></trkpt><trkpt lat="45.57491184746095" lon="11.016315698197113"><ele>559.0</ele><time>2026-04-15T11:30:18.002Z</time></trkpt><trkpt lat="45.574953481902774" lon="11.01644040968216"><ele>559.0</ele><time>2026-04-15T11:30:19.002Z</time></trkpt><trkpt lat="45.57497434219106" lon="11.016549001086934"><ele>559.0</ele><time>2026-04-15T11:30:20.002Z</time></trkpt><trkpt lat="45.57499120284013" lon="11.01665452618457"><ele>559.0</ele><time>2026-04-15T11:30:21.002Z</time></trkpt><trkpt lat="45.57502686380698" lon="11.016757834431813"><ele>560.8333333333334</ele><time>2026-04-15T11:30:22.002Z</time></trkpt><trkpt lat="45.57506651103548" lon="11.016853011454389"><ele>562.6666666666667</ele><time>2026-04-15T11:30:23.002Z</time></trkpt><trkpt lat="45.575117451055206" lon="11.016945594911153"><ele>564.5</ele><time>2026-04-15T11:30:24.002Z</time></trkpt><trkpt lat="45.57517719368772" lon="11.01704647172105"><ele>566.3333333333334</ele><time>2026-04-15T11:30:25.002Z</time></trkpt><trkpt lat="45.575228614947335" lon="11.017147172263131"><ele>568.1666666666666</ele><time>2026-04-15T11:30:26.002Z</time></trkpt><trkpt lat="45.5752951069771" lon="11.017231816505452"><ele>570.0</ele><time>2026-04-15T11:30:27.002Z</time></trkpt><trkpt lat="45.5753658443342" lon="11.017347019280932"><ele>565.6666666666666</ele><time>2026-04-15T11:30:29.002Z</time></trkpt><trkpt lat="45.575347920129175" lon="11.017451352300913"><ele>561.3333333333334</ele><time>2026-04-15T11:30:58Z</time></trkpt><trkpt lat="45.57524050258318" lon="11.017505139632169"><ele>557.0</ele><time>2026-04-15T11:31:00Z</time></trkpt><trkpt lat="45.57517185867753" lon="11.017518925208073"><ele>552.6666666666667</ele><time>2026-04-15T11:31:01Z</time></trkpt><trkpt lat="45.57510479224572" lon="11.017546539736543"><ele>548.3333333333334</ele><time>2026-04-15T11:31:02Z</time></trkpt><trkpt lat="45.57503489704016" lon="11.017578133470478"><ele>544.0</ele><time>2026-04-15T11:31:03Z</time></trkpt><trkpt lat="45.57496782674215" lon="11.017599364350414"><ele>544.0</ele><time>2026-04-15T11:31:04Z</time></trkpt><trkpt lat="45.57484521782887" lon="11.017608863263254"><ele>544.0</ele><time>2026-04-15T11:31:06Z</time></trkpt><trkpt lat="45.57475182985407" lon="11.01761025003575"><ele>544.0</ele><time>2026-04-15T11:31:07Z</time></trkpt><trkpt lat="45.57467153901706" lon="11.017602834920234"><ele>544.0</ele><time>2026-04-15T11:31:08Z</time></trkpt><trkpt lat="45.574579929577126" lon="11.017589482545986"><ele>544.0</ele><time>2026-04-15T11:31:09Z</time></trkpt><trkpt lat="45.57450344610319" lon="11.017566178013803"><ele>543.8</ele><time>2026-04-15T11:31:10Z</time></trkpt><trkpt lat="45.57443920042924" lon="11.017563962824536"><ele>543.5999999999999</ele><time>2026-04-15T11:31:11Z</time></trkpt><trkpt lat="45.57431802521089" lon="11.017616540545225"><ele>543.4</ele><time>2026-04-15T11:31:13.001Z</time></trkpt><trkpt lat="45.57422057858283" lon="11.017697494559592"><ele>543.1999999999999</ele><time>2026-04-15T11:31:15.001Z</time></trkpt><trkpt lat="45.57417611689297" lon="11.017825763563344"><ele>543.0</ele><time>2026-04-15T11:31:17.001Z</time></trkpt><trkpt lat="45.57416585572062" lon="11.017961421059754"><ele>543.0</ele><time>2026-04-15T11:31:19.001Z</time></trkpt><trkpt lat="45.57423244898135" lon="11.018115802612657"><ele>543.0</ele><time>2026-04-15T11:31:21.001Z</time></trkpt><trkpt lat="45.574321583189594" lon="11.018233511326208"><ele>543.0</ele><time>2026-04-15T11:31:23.001Z</time></trkpt><trkpt lat="45.57438529273346" lon="11.018292738460037"><ele>543.0</ele><time>2026-04-15T11:31:24.001Z</time></trkpt><trkpt lat="45.574446946727676" lon="11.018352379005336"><ele>543.0</ele><time>2026-04-15T11:31:25.001Z</time></trkpt><trkpt lat="45.57455842658182" lon="11.018429234248591"><ele>547.0</ele><time>2026-04-15T11:31:27.001Z</time></trkpt><trkpt lat="45.5746588947323" lon="11.018523644876362"><ele>551.0</ele><time>2026-04-15T11:31:29.001Z</time></trkpt><trkpt lat="45.57471717748618" lon="11.018610374009384"><ele>555.0</ele><time>2026-04-15T11:31:31.001Z</time></trkpt><trkpt lat="45.57479244932095" lon="11.018764873890118"><ele>559.0</ele><time>2026-04-15T11:31:33.001Z</time></trkpt><trkpt lat="45.57484566983073" lon="11.01883765195619"><ele>563.0</ele><time>2026-04-15T11:31:34.001Z</time></trkpt><trkpt lat="45.574893746277176" lon="11.019031475313021"><ele>563.0</ele><time>2026-04-15T11:31:36.001Z</time></trkpt><trkpt lat="45.574927685582324" lon="11.01914104793913"><ele>563.0</ele><time>2026-04-15T11:31:37.001Z</time></trkpt><trkpt lat="45.57496764147903" lon="11.019266957152936"><ele>563.0</ele><time>2026-04-15T11:31:38.001Z</time></trkpt><trkpt lat="45.57500329307408" lon="11.019364224783104"><ele>563.0</ele><time>2026-04-15T11:31:39.001Z</time></trkpt><trkpt lat="45.57503442241794" lon="11.019461628523734"><ele>563.0</ele><time>2026-04-15T11:31:40.001Z</time></trkpt><trkpt lat="45.57507036536989" lon="11.0195728747947"><ele>563.0</ele><time>2026-04-15T11:31:41.001Z</time></trkpt><trkpt lat="45.5751184333049" lon="11.019706308566905"><ele>563.8</ele><time>2026-04-15T11:31:42.001Z</time></trkpt><trkpt lat="45.575151763214464" lon="11.019833414964156"><ele>564.5999999999999</ele><time>2026-04-15T11:31:43.001Z</time></trkpt><trkpt lat="45.575191631815954" lon="11.01995474954924"><ele>565.4000000000001</ele><time>2026-04-15T11:31:44.001Z</time></trkpt><trkpt lat="45.575230442138" lon="11.020083624539172"><ele>566.2</ele><time>2026-04-15T11:31:45.001Z</time></trkpt><trkpt lat="45.575276619540546" lon="11.020196988727111"><ele>567.0</ele><time>2026-04-15T11:31:46.001Z</time></trkpt><trkpt lat="45.57531646987348" lon="11.020313152355712"><ele>573.4</ele><time>2026-04-15T11:31:47.001Z</time></trkpt><trkpt lat="45.575357433090666" lon="11.02042768839027"><ele>579.8000000000001</ele><time>2026-04-15T11:31:48.001Z</time></trkpt><trkpt lat="45.57540577450606" lon="11.020558027378717"><ele>586.2</ele><time>2026-04-15T11:31:49.001Z</time></trkpt><trkpt lat="45.57547089432781" lon="11.02067571488371"><ele>592.6</ele><time>2026-04-15T11:31:50.001Z</time></trkpt><trkpt lat="45.575516815014545" lon="11.020800536989853"><ele>599.0</ele><time>2026-04-15T11:31:51.001Z</time></trkpt><trkpt lat="45.57555948165399" lon="11.020937873751055"><ele>599.0</ele><time>2026-04-15T11:31:52.001Z</time></trkpt><trkpt lat="45.57560910132264" lon="11.021066107946593"><ele>599.0</ele><time>2026-04-15T11:31:53.001Z</time></trkpt><trkpt lat="45.57564485560429" lon="11.02118776651519"><ele>599.0</ele><time>2026-04-15T11:31:54.001Z</time></trkpt><trkpt lat="45.575676405915054" lon="11.021323128372359"><ele>599.0</ele><time>2026-04-15T11:31:55.001Z</time></trkpt><trkpt lat="45.575716057273475" lon="11.021462237230022"><ele>599.0</ele><time>2026-04-15T11:31:56.001Z</time></trkpt><trkpt lat="45.575749498142066" lon="11.021602891027241"><ele>596.6</ele><time>2026-04-15T11:31:57.001Z</time></trkpt><trkpt lat="45.57578606027577" lon="11.021745954758188"><ele>594.2</ele><time>2026-04-15T11:31:58.001Z</time></trkpt><trkpt lat="45.57581625561737" lon="11.021874015484476"><ele>591.8000000000001</ele><time>2026-04-15T11:31:59.001Z</time></trkpt><trkpt lat="45.57586157219686" lon="11.0219695566405"><ele>589.4</ele><time>2026-04-15T11:32:00.001Z</time></trkpt><trkpt lat="45.57590446200457" lon="11.022112628189468"><ele>587.0</ele><time>2026-04-15T11:32:02.001Z</time></trkpt><trkpt lat="45.57595627763318" lon="11.022246033246608"><ele>587.0</ele><time>2026-04-15T11:32:04.001Z</time></trkpt><trkpt lat="45.57598714696324" lon="11.022328082903606"><ele>587.0</ele><time>2026-04-15T11:32:05.001Z</time></trkpt><trkpt lat="45.57603607343833" lon="11.022421173543195"><ele>587.0</ele><time>2026-04-15T11:32:06.001Z</time></trkpt><trkpt lat="45.57609340700421" lon="11.022523689635475"><ele>587.0</ele><time>2026-04-15T11:32:07.001Z</time></trkpt><trkpt lat="45.576138470149964" lon="11.022602337500139"><ele>587.0</ele><time>2026-04-15T11:32:08.001Z</time></trkpt><trkpt lat="45.576183694950394" lon="11.022683224102963"><ele>587.0</ele><time>2026-04-15T11:32:09.001Z</time></trkpt><trkpt lat="45.57623639929716" lon="11.022764695344335"><ele>589.6666666666666</ele><time>2026-04-15T11:32:10.001Z</time></trkpt><trkpt lat="45.57629857469535" lon="11.022838361448443"><ele>592.3333333333333</ele><time>2026-04-15T11:32:11.001Z</time></trkpt><trkpt lat="45.576370048359536" lon="11.02290797641271"><ele>595.0</ele><time>2026-04-15T11:32:12.001Z</time></trkpt><trkpt lat="45.576427712314235" lon="11.022950591408614"><ele>597.6666666666666</ele><time>2026-04-15T11:32:13.001Z</time></trkpt><trkpt lat="45.57649867453786" lon="11.022984967054215"><ele>600.3333333333334</ele><time>2026-04-15T11:32:14.001Z</time></trkpt><trkpt lat="45.57658401576986" lon="11.023009592881209"><ele>603.0</ele><time>2026-04-15T11:32:15.001Z</time></trkpt><trkpt lat="45.576644716690595" lon="11.0230357324117"><ele>603.0</ele><time>2026-04-15T11:32:16.001Z</time></trkpt><trkpt lat="45.576711332440844" lon="11.023050655660454"><ele>603.0</ele><time>2026-04-15T11:32:17.001Z</time></trkpt><trkpt lat="45.57679053225833" lon="11.023057424655095"><ele>603.0</ele><time>2026-04-15T11:32:18.001Z</time></trkpt><trkpt lat="45.57689247320669" lon="11.023066167701487"><ele>603.0</ele><time>2026-04-15T11:32:19.001Z</time></trkpt><trkpt lat="45.57697861204764" lon="11.02306291023547"><ele>603.0</ele><time>2026-04-15T11:32:20.001Z</time></trkpt><trkpt lat="45.57706196152629" lon="11.023044299325969"><ele>603.0</ele><time>2026-04-15T11:32:21.001Z</time></trkpt><trkpt lat="45.57714112567515" lon="11.023040214210546"><ele>604.3333333333334</ele><time>2026-04-15T11:32:22.001Z</time></trkpt><trkpt lat="45.577222807798606" lon="11.023039178400946"><ele>605.6666666666666</ele><time>2026-04-15T11:32:23.001Z</time></trkpt><trkpt lat="45.57730380759392" lon="11.023052989797609"><ele>607.0</ele><time>2026-04-15T11:32:24.001Z</time></trkpt><trkpt lat="45.57738702825918" lon="11.02307355715694"><ele>608.3333333333333</ele><time>2026-04-15T11:32:25.001Z</time></trkpt><trkpt lat="45.577472016881146" lon="11.023102714036657"><ele>609.6666666666666</ele><time>2026-04-15T11:32:26.001Z</time></trkpt><trkpt lat="45.57755232298964" lon="11.023135659839424"><ele>611.0</ele><time>2026-04-15T11:32:27.001Z</time></trkpt><trkpt lat="45.57761627131449" lon="11.023179388154013"><ele>611.0</ele><time>2026-04-15T11:32:28.001Z</time></trkpt><trkpt lat="45.577709241346184" lon="11.023209943280717"><ele>611.0</ele><time>2026-04-15T11:32:29.001Z</time></trkpt><trkpt lat="45.577794364988385" lon="11.023259190730204"><ele>611.0</ele><time>2026-04-15T11:32:30.001Z</time></trkpt><trkpt lat="45.57787761767677" lon="11.02331421361262"><ele>611.0</ele><time>2026-04-15T11:32:31.002Z</time></trkpt><trkpt lat="45.577958882737526" lon="11.023365469243684"><ele>611.0</ele><time>2026-04-15T11:32:32.002Z</time></trkpt><trkpt lat="45.57804129138057" lon="11.02340078866439"><ele>607.8333333333333</ele><time>2026-04-15T11:32:33.002Z</time></trkpt><trkpt lat="45.57814001823473" lon="11.023438082182816"><ele>604.6666666666666</ele><time>2026-04-15T11:32:34.002Z</time></trkpt><trkpt lat="45.57822125805873" lon="11.023471162126341"><ele>601.5</ele><time>2026-04-15T11:32:35.002Z</time></trkpt><trkpt lat="45.57830571945419" lon="11.023502464561956"><ele>598.3333333333334</ele><time>2026-04-15T11:32:36.002Z</time></trkpt><trkpt lat="45.57838286394657" lon="11.023505780188243"><ele>595.1666666666667</ele><time>2026-04-15T11:32:37.002Z</time></trkpt><trkpt lat="45.57845538378816" lon="11.023490921259949"><ele>592.0</ele><time>2026-04-15T11:32:38.002Z</time></trkpt><trkpt lat="45.57855897959322" lon="11.023529656550526"><ele>592.0</ele><time>2026-04-15T11:32:40.002Z</time></trkpt><trkpt lat="45.57862811438192" lon="11.023717077286317"><ele>592.0</ele><time>2026-04-15T11:32:42.002Z</time></trkpt><trkpt lat="45.57868327104527" lon="11.023832902800223"><ele>592.0</ele><time>2026-04-15T11:32:43.002Z</time></trkpt><trkpt lat="45.578733550983806" lon="11.023988010447782"><ele>592.0</ele><time>2026-04-15T11:32:45.002Z</time></trkpt><trkpt lat="45.57879622815213" lon="11.024060311037175"><ele>592.0</ele><time>2026-04-15T11:32:46.002Z</time></trkpt><trkpt lat="45.57886364351993" lon="11.024124024307586"><ele>591.8000000000001</ele><time>2026-04-15T11:32:47.002Z</time></trkpt><trkpt lat="45.5789651039192" lon="11.024190013062059"><ele>591.6</ele><time>2026-04-15T11:32:48.002Z</time></trkpt><trkpt lat="45.57906833404143" lon="11.024252226639419"><ele>591.4000000000001</ele><time>2026-04-15T11:32:49.002Z</time></trkpt><trkpt lat="45.57916562498213" lon="11.024291728536088"><ele>591.2</ele><time>2026-04-15T11:32:50.002Z</time></trkpt><trkpt lat="45.57924203445065" lon="11.024337238681717"><ele>591.0</ele><time>2026-04-15T11:32:51Z</time></trkpt><trkpt lat="45.57934454083699" lon="11.024387044717145"><ele>591.0</ele><time>2026-04-15T11:32:52Z</time></trkpt><trkpt lat="45.579452864903665" lon="11.024445040049857"><ele>591.0</ele><time>2026-04-15T11:32:53Z</time></trkpt><trkpt lat="45.579544930159194" lon="11.024477931379828"><ele>591.0</ele><time>2026-04-15T11:32:54Z</time></trkpt><trkpt lat="45.5796529392198" lon="11.024512760679293"><ele>591.0</ele><time>2026-04-15T11:32:55Z</time></trkpt><trkpt lat="45.57974471208264" lon="11.02453933164608"><ele>591.0</ele><time>2026-04-15T11:32:56Z</time></trkpt><trkpt lat="45.57984403190068" lon="11.024553477224053"><ele>592.3333333333334</ele><time>2026-04-15T11:32:57Z</time></trkpt><trkpt lat="45.5799345743571" lon="11.024556638677753"><ele>593.6666666666666</ele><time>2026-04-15T11:32:58Z</time></trkpt><trkpt lat="45.5800166312417" lon="11.024567117740146"><ele>595.0</ele><time>2026-04-15T11:32:59Z</time></trkpt><trkpt lat="45.58008280896153" lon="11.024583983240609"><ele>596.3333333333333</ele><time>2026-04-15T11:33:00Z</time></trkpt><trkpt lat="45.5801602103125" lon="11.024587648200052"><ele>597.6666666666666</ele><time>2026-04-15T11:33:01Z</time></trkpt><trkpt lat="45.580231674546596" lon="11.024588298969155"><ele>599.0</ele><time>2026-04-15T11:33:02Z</time></trkpt><trkpt lat="45.58029723877995" lon="11.024594970640653"><ele>599.8</ele><time>2026-04-15T11:33:03Z</time></trkpt><trkpt lat="45.58039746642347" lon="11.024545908865148"><ele>600.5999999999999</ele><time>2026-04-15T11:33:05Z</time></trkpt><trkpt lat="45.580469042593265" lon="11.024504197306362"><ele>601.4</ele><time>2026-04-15T11:33:08Z</time></trkpt><trkpt lat="45.58060144863848" lon="11.024474456487562"><ele>602.1999999999999</ele><time>2026-04-15T11:33:10Z</time></trkpt><trkpt lat="45.58067631866348" lon="11.024436935001164"><ele>603.0</ele><time>2026-04-15T11:33:11Z</time></trkpt><trkpt lat="45.58076023311808" lon="11.024393720577805"><ele>603.0</ele><time>2026-04-15T11:33:12Z</time></trkpt><trkpt lat="45.580856905943705" lon="11.024362996850476"><ele>603.0</ele><time>2026-04-15T11:33:13Z</time></trkpt><trkpt lat="45.580929069649954" lon="11.024342266860478"><ele>603.0</ele><time>2026-04-15T11:33:14Z</time></trkpt><trkpt lat="45.58100656474515" lon="11.02431494367689"><ele>603.0</ele><time>2026-04-15T11:33:15Z</time></trkpt><trkpt lat="45.58108073543653" lon="11.024281429238455"><ele>603.0</ele><time>2026-04-15T11:33:16Z</time></trkpt><trkpt lat="45.58120014034625" lon="11.024161399438556"><ele>605.4</ele><time>2026-04-15T11:33:18Z</time></trkpt><trkpt lat="45.58127585372387" lon="11.024074952245044"><ele>607.8</ele><time>2026-04-15T11:33:19Z</time></trkpt><trkpt lat="45.58136011208442" lon="11.023988327947828"><ele>610.2</ele><time>2026-04-15T11:33:21Z</time></trkpt><trkpt lat="45.581410432529616" lon="11.024076447136629"><ele>612.6</ele><time>2026-04-15T11:33:25Z</time></trkpt><trkpt lat="45.581379512407466" lon="11.024231661304121"><ele>615.0</ele><time>2026-04-15T11:33:27Z</time></trkpt><trkpt lat="45.581362987963246" lon="11.024371071328963"><ele>615.0</ele><time>2026-04-15T11:33:28Z</time></trkpt><trkpt lat="45.58135196515669" lon="11.024500571736821"><ele>615.0</ele><time>2026-04-15T11:33:29Z</time></trkpt><trkpt lat="45.5813482600412" lon="11.024640817533017"><ele>615.0</ele><time>2026-04-15T11:33:30Z</time></trkpt><trkpt lat="45.5813641430969" lon="11.024751324067951"><ele>615.0</ele><time>2026-04-15T11:33:31Z</time></trkpt><trkpt lat="45.58139404967787" lon="11.024840262527578"><ele>615.0</ele><time>2026-04-15T11:33:32Z</time></trkpt><trkpt lat="45.58143769120501" lon="11.02491575566475"><ele>615.0</ele><time>2026-04-15T11:33:33.001Z</time></trkpt><trkpt lat="45.581498098021406" lon="11.02497311871628"><ele>612.6</ele><time>2026-04-15T11:33:34.001Z</time></trkpt><trkpt lat="45.58158823556499" lon="11.025026679454546"><ele>610.2</ele><time>2026-04-15T11:33:35.001Z</time></trkpt><trkpt lat="45.58168167180105" lon="11.025081962787256"><ele>607.8</ele><time>2026-04-15T11:33:36.001Z</time></trkpt><trkpt lat="45.58178105738746" lon="11.025104538495478"><ele>605.4</ele><time>2026-04-15T11:33:37.001Z</time></trkpt><trkpt lat="45.581867704626674" lon="11.025133960941943"><ele>603.0</ele><time>2026-04-15T11:33:38.001Z</time></trkpt><trkpt lat="45.58195373238862" lon="11.025163609303336"><ele>604.1999999999999</ele><time>2026-04-15T11:33:39.001Z</time></trkpt><trkpt lat="45.58203250024817" lon="11.0252030905361"><ele>605.4</ele><time>2026-04-15T11:33:40.001Z</time></trkpt><trkpt lat="45.58212631691732" lon="11.025212075935032"><ele>606.5999999999999</ele><time>2026-04-15T11:33:41.001Z</time></trkpt><trkpt lat="45.58220835855961" lon="11.025212831600019"><ele>607.8</ele><time>2026-04-15T11:33:42.001Z</time></trkpt><trkpt lat="45.582324233779396" lon="11.025218834700576"><ele>609.0</ele><time>2026-04-15T11:33:43.001Z</time></trkpt><trkpt lat="45.58244990604774" lon="11.025238867766294"><ele>609.0</ele><time>2026-04-15T11:33:44.001Z</time></trkpt><trkpt lat="45.582561322468656" lon="11.025250232163607"><ele>609.0</ele><time>2026-04-15T11:33:45.001Z</time></trkpt><trkpt lat="45.58265535812847" lon="11.025260282068922"><ele>609.0</ele><time>2026-04-15T11:33:46.001Z</time></trkpt><trkpt lat="45.582746102408926" lon="11.02528207402676"><ele>609.0</ele><time>2026-04-15T11:33:47.001Z</time></trkpt><trkpt lat="45.582820984102575" lon="11.025294358508273"><ele>609.0</ele><time>2026-04-15T11:33:48.001Z</time></trkpt><trkpt lat="45.58288852034149" lon="11.025351904642777"><ele>611.3333333333334</ele><time>2026-04-15T11:33:49.001Z</time></trkpt><trkpt lat="45.58295331971539" lon="11.025443067366991"><ele>613.6666666666666</ele><time>2026-04-15T11:33:50.001Z</time></trkpt><trkpt lat="45.58302067241087" lon="11.025527346450243"><ele>616.0</ele><time>2026-04-15T11:33:51.001Z</time></trkpt><trkpt lat="45.583089941583154" lon="11.0255813370691"><ele>618.3333333333333</ele><time>2026-04-15T11:33:52.001Z</time></trkpt><trkpt lat="45.58315430090074" lon="11.025626505966885"><ele>620.6666666666666</ele><time>2026-04-15T11:33:53.001Z</time></trkpt><trkpt lat="45.583257197792605" lon="11.02569897748846"><ele>623.0</ele><time>2026-04-15T11:33:55.001Z</time></trkpt><trkpt lat="45.58331242397318" lon="11.025742319223635"><ele>623.0</ele><time>2026-04-15T11:33:58.001Z</time></trkpt><trkpt lat="45.583368831682094" lon="11.02580287574824"><ele>623.0</ele><time>2026-04-15T11:34:19.001Z</time></trkpt><trkpt lat="45.58346096616394" lon="11.025775194216179"><ele>623.0</ele><time>2026-04-15T11:34:21.001Z</time></trkpt><trkpt lat="45.58352509051331" lon="11.025776783368627"><ele>623.0</ele><time>2026-04-15T11:34:22.001Z</time></trkpt><trkpt lat="45.58359902974336" lon="11.025790527709777"><ele>623.0</ele><time>2026-04-15T11:34:23.001Z</time></trkpt><trkpt lat="45.583672942168405" lon="11.02579045058332"><ele>623.0</ele><time>2026-04-15T11:34:24.001Z</time></trkpt><trkpt lat="45.583791562200645" lon="11.025839499461739"><ele>623.0</ele><time>2026-04-15T11:34:26.001Z</time></trkpt><trkpt lat="45.58387530984388" lon="11.025804880267955"><ele>623.0</ele><time>2026-04-15T11:34:28.001Z</time></trkpt><trkpt lat="45.5838260882051" lon="11.0256730167683"><ele>623.0</ele><time>2026-04-15T11:34:30.001Z</time></trkpt><trkpt lat="45.58378629722055" lon="11.025584622924104"><ele>623.0</ele><time>2026-04-15T11:34:31.001Z</time></trkpt><trkpt lat="45.58374348699717" lon="11.025470911195754"><ele>623.0</ele><time>2026-04-15T11:34:32.001Z</time></trkpt><trkpt lat="45.583702883127614" lon="11.025376750954445"><ele>623.0</ele><time>2026-04-15T11:34:33.001Z</time></trkpt><trkpt lat="45.583640937586345" lon="11.025304994054574"><ele>623.0</ele><time>2026-04-15T11:34:34.001Z</time></trkpt><trkpt lat="45.58360537837542" lon="11.025212283325258"><ele>623.0</ele><time>2026-04-15T11:34:35.001Z</time></trkpt><trkpt lat="45.583622936606034" lon="11.025114194657945"><ele>623.0</ele><time>2026-04-15T11:34:38.001Z</time></trkpt><trkpt lat="45.58373655335073" lon="11.025098639756846"><ele>623.0</ele><time>2026-04-15T11:34:40.001Z</time></trkpt><trkpt lat="45.58380018386369" lon="11.025071798886454"><ele>623.0</ele><time>2026-04-15T11:34:41.001Z</time></trkpt><trkpt lat="45.583931195066185" lon="11.02506727173568"><ele>625.0</ele><time>2026-04-15T11:34:43.001Z</time></trkpt><trkpt lat="45.58402185886191" lon="11.024981651962767"><ele>627.0</ele><time>2026-04-15T11:34:45.001Z</time></trkpt><trkpt lat="45.584089557073106" lon="11.025033303687994"><ele>629.0</ele><time>2026-04-15T11:34:47.001Z</time></trkpt><trkpt lat="45.58413662104133" lon="11.025097777954063"><ele>631.0</ele><time>2026-04-15T11:34:48.001Z</time></trkpt><trkpt lat="45.58420392115273" lon="11.025102950676724"><ele>633.0</ele><time>2026-04-15T11:34:49.001Z</time></trkpt><trkpt lat="45.584267873864505" lon="11.025069304243805"><ele>635.0</ele><time>2026-04-15T11:34:50.001Z</time></trkpt><trkpt lat="45.584358951244205" lon="11.025072882550656"><ele>634.9999999999999</ele><time>2026-04-15T11:34:52.001Z</time></trkpt><trkpt lat="45.584420941489554" lon="11.025040408803777"><ele>635.0</ele><time>2026-04-15T11:34:56.001Z</time></trkpt><trkpt lat="45.58437879941271" lon="11.024972007533087"><ele>635.0</ele><time>2026-04-15T11:34:58Z</time></trkpt><trkpt lat="45.584334285544124" lon="11.024872393775267"><ele>635.0</ele><time>2026-04-15T11:34:59Z</time></trkpt><trkpt lat="45.584252056996085" lon="11.02480207098629"><ele>635.0</ele><time>2026-04-15T11:35:01Z</time></trkpt><trkpt lat="45.58421148434104" lon="11.024732228301824"><ele>634.9999999999999</ele><time>2026-04-15T11:35:02Z</time></trkpt><trkpt lat="45.58416333717305" lon="11.024645535156896"><ele>635.0</ele><time>2026-04-15T11:35:03Z</time></trkpt><trkpt lat="45.58411330361278" lon="11.024567786632302"><ele>638.6</ele><time>2026-04-15T11:35:04Z</time></trkpt><trkpt lat="45.584013016359" lon="11.024481481328875"><ele>642.2</ele><time>2026-04-15T11:35:06Z</time></trkpt><trkpt lat="45.58395610695938" lon="11.02440229875147"><ele>645.8</ele><time>2026-04-15T11:35:07Z</time></trkpt><trkpt lat="45.58388281543262" lon="11.024309300356208"><ele>649.4</ele><time>2026-04-15T11:35:08Z</time></trkpt><trkpt lat="45.58384326986823" lon="11.024193737443484"><ele>653.0</ele><time>2026-04-15T11:35:09Z</time></trkpt><trkpt lat="45.58379142777225" lon="11.024105304682575"><ele>654.2</ele><time>2026-04-15T11:35:10Z</time></trkpt><trkpt lat="45.583726518760294" lon="11.02406060020077"><ele>655.4</ele><time>2026-04-15T11:35:11Z</time></trkpt><trkpt lat="45.58364557177502" lon="11.024002654490246"><ele>656.6</ele><time>2026-04-15T11:35:12Z</time></trkpt><trkpt lat="45.58355707386944" lon="11.023925516626353"><ele>657.8000000000001</ele><time>2026-04-15T11:35:13Z</time></trkpt><trkpt lat="45.58348943400211" lon="11.02387248358048"><ele>659.0</ele><time>2026-04-15T11:35:14Z</time></trkpt><trkpt lat="45.58338756324395" lon="11.023773691905177"><ele>659.0</ele><time>2026-04-15T11:35:16Z</time></trkpt><trkpt lat="45.58331856975742" lon="11.023697355620575"><ele>659.0</ele><time>2026-04-15T11:35:17Z</time></trkpt><trkpt lat="45.58325929124594" lon="11.023618861218488"><ele>659.0</ele><time>2026-04-15T11:35:18Z</time></trkpt><trkpt lat="45.583240619486574" lon="11.023524989297615"><ele>659.0</ele><time>2026-04-15T11:35:20Z</time></trkpt><trkpt lat="45.583310649404595" lon="11.023519986799595"><ele>659.0</ele><time>2026-04-15T11:35:22Z</time></trkpt><trkpt lat="45.583424902840385" lon="11.023538490667619"><ele>659.0</ele><time>2026-04-15T11:35:25Z</time></trkpt><trkpt lat="45.583451996512835" lon="11.02344930587787"><ele>659.0</ele><time>2026-04-15T11:35:27Z</time></trkpt><trkpt lat="45.58338794722949" lon="11.023314516059074"><ele>659.0</ele><time>2026-04-15T11:35:29Z</time></trkpt><trkpt lat="45.58333981913701" lon="11.023221558168052"><ele>659.0</ele><time>2026-04-15T11:35:30Z</time></trkpt><trkpt lat="45.583297448444306" lon="11.023111898789669"><ele>659.0</ele><time>2026-04-15T11:35:31Z</time></trkpt><trkpt lat="45.583266877499135" lon="11.023007816206455"><ele>659.0</ele><time>2026-04-15T11:35:32Z</time></trkpt><trkpt lat="45.583233765839594" lon="11.02287848985418"><ele>660.8333333333333</ele><time>2026-04-15T11:35:33Z</time></trkpt><trkpt lat="45.58320564289952" lon="11.02275829480619"><ele>662.6666666666666</ele><time>2026-04-15T11:35:34Z</time></trkpt><trkpt lat="45.58317878453097" lon="11.022623706411919"><ele>664.5</ele><time>2026-04-15T11:35:35Z</time></trkpt><trkpt lat="45.58314784268572" lon="11.02249389557657"><ele>666.3333333333334</ele><time>2026-04-15T11:35:36Z</time></trkpt><trkpt lat="45.583125602836525" lon="11.022375102139819"><ele>668.1666666666667</ele><time>2026-04-15T11:35:37Z</time></trkpt><trkpt lat="45.58312036378941" lon="11.022277496720411"><ele>670.0</ele><time>2026-04-15T11:35:38Z</time></trkpt><trkpt lat="45.583119669243295" lon="11.022157770061792"><ele>670.1666666666667</ele><time>2026-04-15T11:35:39Z</time></trkpt><trkpt lat="45.58310844441803" lon="11.02204384694684"><ele>670.3333333333334</ele><time>2026-04-15T11:35:40Z</time></trkpt><trkpt lat="45.583077198173186" lon="11.021915716687278"><ele>670.5</ele><time>2026-04-15T11:35:41Z</time></trkpt><trkpt lat="45.58306072202012" lon="11.021797227294782"><ele>670.6666666666666</ele><time>2026-04-15T11:35:42Z</time></trkpt><trkpt lat="45.583059700799915" lon="11.02167699654692"><ele>670.8333333333333</ele><time>2026-04-15T11:35:43Z</time></trkpt><trkpt lat="45.58306372377458" lon="11.021528009796718"><ele>671.0</ele><time>2026-04-15T11:35:44Z</time></trkpt><trkpt lat="45.583074614574045" lon="11.021437043858203"><ele>671.0</ele><time>2026-04-15T11:35:45Z</time></trkpt><trkpt lat="45.58309417396099" lon="11.021343103401595"><ele>671.0</ele><time>2026-04-15T11:35:46Z</time></trkpt><trkpt lat="45.583157802921754" lon="11.021269596818389"><ele>671.0</ele><time>2026-04-15T11:35:48Z</time></trkpt><trkpt lat="45.583234357022604" lon="11.021291522440276"><ele>671.0</ele><time>2026-04-15T11:35:50.001Z</time></trkpt><trkpt lat="45.58332125572867" lon="11.02140710418101"><ele>671.0</ele><time>2026-04-15T11:35:52.001Z</time></trkpt><trkpt lat="45.58338059199186" lon="11.021478590069469"><ele>671.0</ele><time>2026-04-15T11:35:53.001Z</time></trkpt><trkpt lat="45.58345893414704" lon="11.021545560076042"><ele>671.0</ele><time>2026-04-15T11:35:54.001Z</time></trkpt><trkpt lat="45.58356126149287" lon="11.021615970056542"><ele>671.0</ele><time>2026-04-15T11:35:55.001Z</time></trkpt><trkpt lat="45.58366220888082" lon="11.021692519154692"><ele>671.0</ele><time>2026-04-15T11:35:56.001Z</time></trkpt><trkpt lat="45.58376709218939" lon="11.021776414121776"><ele>671.0</ele><time>2026-04-15T11:35:57.001Z</time></trkpt><trkpt lat="45.58387588006892" lon="11.021849607310802"><ele>675.25</ele><time>2026-04-15T11:35:58.001Z</time></trkpt><trkpt lat="45.58398879667652" lon="11.021921336473067"><ele>679.5</ele><time>2026-04-15T11:35:59.001Z</time></trkpt><trkpt lat="45.58411306122913" lon="11.021999089760135"><ele>683.75</ele><time>2026-04-15T11:36:00.001Z</time></trkpt><trkpt lat="45.58425112827853" lon="11.022066107160027"><ele>688.0</ele><time>2026-04-15T11:36:01.001Z</time></trkpt><trkpt lat="45.58440132326765" lon="11.022129751473429"><ele>689.5</ele><time>2026-04-15T11:36:02.001Z</time></trkpt><trkpt lat="45.58454900325135" lon="11.022185707165063"><ele>691.0</ele><time>2026-04-15T11:36:03.001Z</time></trkpt><trkpt lat="45.584674060956814" lon="11.0222224392205"><ele>692.5</ele><time>2026-04-15T11:36:04.001Z</time></trkpt><trkpt lat="45.58478297253558" lon="11.022253005651972"><ele>694.0</ele><time>2026-04-15T11:36:05.001Z</time></trkpt><trkpt lat="45.58489304294215" lon="11.022296191087607"><ele>694.0</ele><time>2026-04-15T11:36:06.001Z</time></trkpt><trkpt lat="45.58500948938525" lon="11.022352231171423"><ele>694.0</ele><time>2026-04-15T11:36:07.001Z</time></trkpt><trkpt lat="45.585117758527474" lon="11.022426197179948"><ele>694.0</ele><time>2026-04-15T11:36:08.001Z</time></trkpt><trkpt lat="45.58523236106942" lon="11.02251808131549"><ele>694.0</ele><time>2026-04-15T11:36:09.001Z</time></trkpt><trkpt lat="45.58534121653095" lon="11.022617952199363"><ele>692.5</ele><time>2026-04-15T11:36:10.001Z</time></trkpt><trkpt lat="45.58545674678179" lon="11.022714841388638"><ele>691.0</ele><time>2026-04-15T11:36:11.001Z</time></trkpt><trkpt lat="45.58558474147834" lon="11.022815240606207"><ele>689.5</ele><time>2026-04-15T11:36:12.001Z</time></trkpt><trkpt lat="45.58571073758884" lon="11.02291258796685"><ele>688.0</ele><time>2026-04-15T11:36:13.001Z</time></trkpt><trkpt lat="45.5858477942364" lon="11.023018575679895"><ele>688.0</ele><time>2026-04-15T11:36:14.001Z</time></trkpt><trkpt lat="45.58597532252619" lon="11.023129022690481"><ele>688.0</ele><time>2026-04-15T11:36:15.001Z</time></trkpt><trkpt lat="45.58610221525344" lon="11.023241682893845"><ele>688.0</ele><time>2026-04-15T11:36:16.001Z</time></trkpt><trkpt lat="45.58622540080081" lon="11.023336316749555"><ele>688.0</ele><time>2026-04-15T11:36:17.001Z</time></trkpt><trkpt lat="45.586323836929054" lon="11.023444848521093"><ele>687.0</ele><time>2026-04-15T11:36:18.001Z</time></trkpt><trkpt lat="45.58642978405984" lon="11.023571704003496"><ele>686.0</ele><time>2026-04-15T11:36:19.001Z</time></trkpt><trkpt lat="45.586544379897326" lon="11.023714021412061"><ele>685.0</ele><time>2026-04-15T11:36:20.001Z</time></trkpt><trkpt lat="45.586659509564264" lon="11.023862434156873"><ele>684.0</ele><time>2026-04-15T11:36:21.001Z</time></trkpt><trkpt lat="45.58675390296132" lon="11.024028875757297"><ele>684.5</ele><time>2026-04-15T11:36:22.001Z</time></trkpt><trkpt lat="45.58686252048633" lon="11.024157433851382"><ele>685.0</ele><time>2026-04-15T11:36:23.001Z</time></trkpt><trkpt lat="45.58694411929629" lon="11.024294375521803"><ele>685.5</ele><time>2026-04-15T11:36:24.001Z</time></trkpt><trkpt lat="45.5870173912845" lon="11.024428305028056"><ele>686.0</ele><time>2026-04-15T11:36:25.001Z</time></trkpt><trkpt lat="45.58709394045502" lon="11.024540370161583"><ele>686.25</ele><time>2026-04-15T11:36:26.001Z</time></trkpt><trkpt lat="45.58717294619266" lon="11.024657447929211"><ele>686.5</ele><time>2026-04-15T11:36:27.001Z</time></trkpt><trkpt lat="45.58726153858576" lon="11.024779606703907"><ele>686.75</ele><time>2026-04-15T11:36:28.001Z</time></trkpt><trkpt lat="45.58735788190805" lon="11.024906341991986"><ele>687.0</ele><time>2026-04-15T11:36:29.001Z</time></trkpt><trkpt lat="45.587457256256" lon="11.025036701555806"><ele>687.0</ele><time>2026-04-15T11:36:30.001Z</time></trkpt><trkpt lat="45.58755648528137" lon="11.025160537384732"><ele>687.0</ele><time>2026-04-15T11:36:31.001Z</time></trkpt><trkpt lat="45.58765840014043" lon="11.025280294337586"><ele>687.0</ele><time>2026-04-15T11:36:32.001Z</time></trkpt><trkpt lat="45.58776691744036" lon="11.02539306719104"><ele>687.0</ele><time>2026-04-15T11:36:33.001Z</time></trkpt><trkpt lat="45.58787190284306" lon="11.025513167727778"><ele>686.6</ele><time>2026-04-15T11:36:34.001Z</time></trkpt><trkpt lat="45.58797176977788" lon="11.025624536777292"><ele>686.2</ele><time>2026-04-15T11:36:35.001Z</time></trkpt><trkpt lat="45.58806512554118" lon="11.02572683786659"><ele>685.8</ele><time>2026-04-15T11:36:36.001Z</time></trkpt><trkpt lat="45.588138752151174" lon="11.025827245030666"><ele>685.4</ele><time>2026-04-15T11:36:37.001Z</time></trkpt><trkpt lat="45.58818856613321" lon="11.025923665712199"><ele>685.0</ele><time>2026-04-15T11:36:38.001Z</time></trkpt><trkpt lat="45.588254524345736" lon="11.025978326845607"><ele>685.0</ele><time>2026-04-15T11:36:39.001Z</time></trkpt><trkpt lat="45.588320484943715" lon="11.026043114730127"><ele>685.0</ele><time>2026-04-15T11:36:40.001Z</time></trkpt><trkpt lat="45.58831592120505" lon="11.02627405711774"><ele>685.0</ele><time>2026-04-15T11:36:41.001Z</time></trkpt><trkpt lat="45.5883262483883" lon="11.026450201075102"><ele>685.0</ele><time>2026-04-15T11:36:42.001Z</time></trkpt><trkpt lat="45.58833884005259" lon="11.02660448579"><ele>686.5</ele><time>2026-04-15T11:36:43.001Z</time></trkpt><trkpt lat="45.58834305343591" lon="11.026750510815152"><ele>688.0</ele><time>2026-04-15T11:36:44.001Z</time></trkpt><trkpt lat="45.58834683898275" lon="11.026911140349545"><ele>689.5</ele><time>2026-04-15T11:36:45.001Z</time></trkpt><trkpt lat="45.58833749418306" lon="11.027081567086336"><ele>691.0</ele><time>2026-04-15T11:36:46.001Z</time></trkpt><trkpt lat="45.58832025555838" lon="11.027257502975266"><ele>691.0</ele><time>2026-04-15T11:36:47.001Z</time></trkpt><trkpt lat="45.588283767845795" lon="11.027428220835397"><ele>691.0</ele><time>2026-04-15T11:36:48.001Z</time></trkpt><trkpt lat="45.58827313884308" lon="11.027605049997415"><ele>691.0</ele><time>2026-04-15T11:36:49.001Z</time></trkpt><trkpt lat="45.58826633886707" lon="11.027778248960665"><ele>691.0</ele><time>2026-04-15T11:36:50.001Z</time></trkpt><trkpt lat="45.588265749417936" lon="11.027934535532516"><ele>692.1999999999999</ele><time>2026-04-15T11:36:51.001Z</time></trkpt><trkpt lat="45.58828108347231" lon="11.028079088598455"><ele>693.4</ele><time>2026-04-15T11:36:52.001Z</time></trkpt><trkpt lat="45.588300806702684" lon="11.028182773805272"><ele>694.6</ele><time>2026-04-15T11:36:53.001Z</time></trkpt><trkpt lat="45.58823630234443" lon="11.028299338414623"><ele>695.8</ele><time>2026-04-15T11:36:55.001Z</time></trkpt><trkpt lat="45.58818535120787" lon="11.028470823029116"><ele>697.0</ele><time>2026-04-15T11:36:57.001Z</time></trkpt><trkpt lat="45.58813067031253" lon="11.02857622455354"><ele>696.0</ele><time>2026-04-15T11:36:58.001Z</time></trkpt><trkpt lat="45.588068687670074" lon="11.028679351021676"><ele>695.0</ele><time>2026-04-15T11:36:59.001Z</time></trkpt><trkpt lat="45.588001091538445" lon="11.02872870948429"><ele>694.0</ele><time>2026-04-15T11:37:00.001Z</time></trkpt><trkpt lat="45.58790679853131" lon="11.028683573726648"><ele>693.0</ele><time>2026-04-15T11:37:01.001Z</time></trkpt><trkpt lat="45.58783076316301" lon="11.02871124722134"><ele>692.0</ele><time>2026-04-15T11:37:02.001Z</time></trkpt><trkpt lat="45.58769599181959" lon="11.02875593028814"><ele>692.0</ele><time>2026-04-15T11:37:04Z</time></trkpt><trkpt lat="45.58760940608356" lon="11.028805031125438"><ele>692.0</ele><time>2026-04-15T11:37:05Z</time></trkpt><trkpt lat="45.58752945393118" lon="11.028879397605204"><ele>692.0</ele><time>2026-04-15T11:37:06Z</time></trkpt><trkpt lat="45.58746112438549" lon="11.028987072311704"><ele>692.0</ele><time>2026-04-15T11:37:07Z</time></trkpt><trkpt lat="45.58741850745287" lon="11.029110493845721"><ele>692.0</ele><time>2026-04-15T11:37:08Z</time></trkpt><trkpt lat="45.587391929509984" lon="11.029258602573348"><ele>695.25</ele><time>2026-04-15T11:37:09Z</time></trkpt><trkpt lat="45.587362412164" lon="11.02942334010899"><ele>698.5</ele><time>2026-04-15T11:37:10Z</time></trkpt><trkpt lat="45.587324688486206" lon="11.029600192486603"><ele>701.75</ele><time>2026-04-15T11:37:11Z</time></trkpt><trkpt lat="45.58728955642334" lon="11.029752894414962"><ele>705.0</ele><time>2026-04-15T11:37:12Z</time></trkpt><trkpt lat="45.587254966996596" lon="11.029901211212009"><ele>703.25</ele><time>2026-04-15T11:37:13Z</time></trkpt><trkpt lat="45.587209227804024" lon="11.03003906226314"><ele>701.5</ele><time>2026-04-15T11:37:14Z</time></trkpt><trkpt lat="45.58712820145761" lon="11.030136332272223"><ele>699.75</ele><time>2026-04-15T11:37:15Z</time></trkpt><trkpt lat="45.587036825004084" lon="11.03023591919465"><ele>698.0</ele><time>2026-04-15T11:37:16Z</time></trkpt><trkpt lat="45.586927089686675" lon="11.030329845279608"><ele>698.0</ele><time>2026-04-15T11:37:17Z</time></trkpt><trkpt lat="45.58681504050137" lon="11.030422752263258"><ele>698.0</ele><time>2026-04-15T11:37:18Z</time></trkpt><trkpt lat="45.58671081875849" lon="11.030523905701976"><ele>698.0</ele><time>2026-04-15T11:37:19Z</time></trkpt><trkpt lat="45.586597566208205" lon="11.03057627716565"><ele>698.0</ele><time>2026-04-15T11:37:20Z</time></trkpt><trkpt lat="45.58649991033273" lon="11.030632659298755"><ele>698.0</ele><time>2026-04-15T11:37:21Z</time></trkpt><trkpt lat="45.58641368204295" lon="11.030662159825662"><ele>698.0</ele><time>2026-04-15T11:37:22Z</time></trkpt><trkpt lat="45.58631281369862" lon="11.03068897211107"><ele>698.0</ele><time>2026-04-15T11:37:23Z</time></trkpt><trkpt lat="45.58620973114377" lon="11.030733867317078"><ele>698.0</ele><time>2026-04-15T11:37:24Z</time></trkpt><trkpt lat="45.586106643278804" lon="11.030666482456635"><ele>698.0</ele><time>2026-04-15T11:37:25Z</time></trkpt><trkpt lat="45.585997207763704" lon="11.030669410413335"><ele>698.25</ele><time>2026-04-15T11:37:26Z</time></trkpt><trkpt lat="45.58589073039207" lon="11.030707119286696"><ele>698.5</ele><time>2026-04-15T11:37:27Z</time></trkpt><trkpt lat="45.585782683343176" lon="11.030746399942755"><ele>698.75</ele><time>2026-04-15T11:37:28Z</time></trkpt><trkpt lat="45.585667770429694" lon="11.030786185275195"><ele>699.0</ele><time>2026-04-15T11:37:29Z</time></trkpt><trkpt lat="45.585554939368464" lon="11.030822223603716"><ele>700.2</ele><time>2026-04-15T11:37:30Z</time></trkpt><trkpt lat="45.585452294293425" lon="11.030849868059535"><ele>701.4000000000001</ele><time>2026-04-15T11:37:31Z</time></trkpt><trkpt lat="45.58535155586248" lon="11.030874640197052"><ele>702.6</ele><time>2026-04-15T11:37:32Z</time></trkpt><trkpt lat="45.58525749939964" lon="11.03089491094499"><ele>703.8</ele><time>2026-04-15T11:37:33Z</time></trkpt><trkpt lat="45.58516250925275" lon="11.030917425628346"><ele>705.0</ele><time>2026-04-15T11:37:34Z</time></trkpt><trkpt lat="45.58506501485414" lon="11.030955260339908"><ele>705.0</ele><time>2026-04-15T11:37:35Z</time></trkpt><trkpt lat="45.58498304872594" lon="11.031036187880577"><ele>705.0</ele><time>2026-04-15T11:37:36Z</time></trkpt><trkpt lat="45.58488701517445" lon="11.031098502136391"><ele>705.0</ele><time>2026-04-15T11:37:37Z</time></trkpt><trkpt lat="45.58478981666738" lon="11.03118814908283"><ele>705.0</ele><time>2026-04-15T11:37:38Z</time></trkpt><trkpt lat="45.584685607785865" lon="11.031288371267758"><ele>705.0</ele><time>2026-04-15T11:37:39Z</time></trkpt><trkpt lat="45.58459225563173" lon="11.031376398752869"><ele>703.8333333333334</ele><time>2026-04-15T11:37:40Z</time></trkpt><trkpt lat="45.58450621168461" lon="11.03145409337825"><ele>702.6666666666666</ele><time>2026-04-15T11:37:41Z</time></trkpt><trkpt lat="45.584430204817224" lon="11.031519931461856"><ele>701.5</ele><time>2026-04-15T11:37:42Z</time></trkpt><trkpt lat="45.58435623771545" lon="11.031588613574728"><ele>700.3333333333333</ele><time>2026-04-15T11:37:43Z</time></trkpt><trkpt lat="45.584287208722074" lon="11.031663612748117"><ele>699.1666666666666</ele><time>2026-04-15T11:37:44Z</time></trkpt><trkpt lat="45.58423278421616" lon="11.031737764152341"><ele>698.0</ele><time>2026-04-15T11:37:45Z</time></trkpt><trkpt lat="45.58419559508139" lon="11.031812028392297"><ele>698.0</ele><time>2026-04-15T11:37:46Z</time></trkpt><trkpt lat="45.58417084055864" lon="11.031911310449377"><ele>698.0</ele><time>2026-04-15T11:37:47Z</time></trkpt><trkpt lat="45.58415511600397" lon="11.032021931116406"><ele>698.0</ele><time>2026-04-15T11:37:49Z</time></trkpt><trkpt lat="45.584211888004155" lon="11.032197535908429"><ele>698.0</ele><time>2026-04-15T11:37:51Z</time></trkpt><trkpt lat="45.58426730243891" lon="11.032275752686758"><ele>698.0</ele><time>2026-04-15T11:37:52Z</time></trkpt><trkpt lat="45.58431971025507" lon="11.032365933694953"><ele>698.0</ele><time>2026-04-15T11:37:54Z</time></trkpt><trkpt lat="45.584365927194675" lon="11.032445461651282"><ele>697.8</ele><time>2026-04-15T11:38:01Z</time></trkpt><trkpt lat="45.58443197901135" lon="11.032530835328544"><ele>697.5999999999999</ele><time>2026-04-15T11:38:03Z</time></trkpt><trkpt lat="45.58442140229567" lon="11.032624816963981"><ele>697.4000000000001</ele><time>2026-04-15T11:38:04Z</time></trkpt><trkpt lat="45.58439268384877" lon="11.032777854160226"><ele>697.2</ele><time>2026-04-15T11:38:06Z</time></trkpt><trkpt lat="45.58428251417838" lon="11.032876681657319"><ele>697.0</ele><time>2026-04-15T11:38:08.001Z</time></trkpt><trkpt lat="45.58420370211574" lon="11.032928571797337"><ele>697.0</ele><time>2026-04-15T11:38:09.001Z</time></trkpt><trkpt lat="45.58412225554422" lon="11.032995130118834"><ele>697.0</ele><time>2026-04-15T11:38:10.001Z</time></trkpt><trkpt lat="45.584033092321015" lon="11.033070506646718"><ele>697.0</ele><time>2026-04-15T11:38:11.001Z</time></trkpt><trkpt lat="45.583932375712415" lon="11.033111706263595"><ele>697.0</ele><time>2026-04-15T11:38:12.001Z</time></trkpt><trkpt lat="45.58383002282149" lon="11.033192179134474"><ele>697.0</ele><time>2026-04-15T11:38:13.001Z</time></trkpt><trkpt lat="45.583731067325004" lon="11.033302913157947"><ele>697.25</ele><time>2026-04-15T11:38:14.001Z</time></trkpt><trkpt lat="45.583622911606106" lon="11.033396240732914"><ele>697.5</ele><time>2026-04-15T11:38:15.001Z</time></trkpt><trkpt lat="45.583525552167494" lon="11.033480957443038"><ele>697.75</ele><time>2026-04-15T11:38:16.001Z</time></trkpt><trkpt lat="45.5834216015974" lon="11.033530006749976"><ele>698.0</ele><time>2026-04-15T11:38:17.001Z</time></trkpt><trkpt lat="45.583330373046735" lon="11.033615080810504"><ele>698.0</ele><time>2026-04-15T11:38:18.001Z</time></trkpt><trkpt lat="45.58323971313857" lon="11.033670027398937"><ele>698.0</ele><time>2026-04-15T11:38:19.001Z</time></trkpt><trkpt lat="45.583151374116945" lon="11.033723703575355"><ele>698.0</ele><time>2026-04-15T11:38:20.001Z</time></trkpt><trkpt lat="45.583061176980834" lon="11.033787236317538"><ele>698.0</ele><time>2026-04-15T11:38:21.001Z</time></trkpt><trkpt lat="45.58296550241611" lon="11.033845062478937"><ele>698.0</ele><time>2026-04-15T11:38:22.001Z</time></trkpt><trkpt lat="45.58287068991819" lon="11.033900844229795"><ele>698.3333333333333</ele><time>2026-04-15T11:38:23.001Z</time></trkpt><trkpt lat="45.58278968736776" lon="11.033963692032357"><ele>698.6666666666666</ele><time>2026-04-15T11:38:24.001Z</time></trkpt><trkpt lat="45.58273461643385" lon="11.03405075265381"><ele>699.0</ele><time>2026-04-15T11:38:25.001Z</time></trkpt><trkpt lat="45.582705588096246" lon="11.03414666379728"><ele>699.3333333333334</ele><time>2026-04-15T11:38:26.001Z</time></trkpt><trkpt lat="45.582688155856964" lon="11.034269658353054"><ele>699.6666666666667</ele><time>2026-04-15T11:38:28.001Z</time></trkpt><trkpt lat="45.58272800722447" lon="11.034403861463904"><ele>700.0</ele><time>2026-04-15T11:38:42.001Z</time></trkpt><trkpt lat="45.58279129920719" lon="11.034475786199886"><ele>700.0</ele><time>2026-04-15T11:38:43.001Z</time></trkpt><trkpt lat="45.582834393497016" lon="11.034571100518843"><ele>700.0</ele><time>2026-04-15T11:38:44.001Z</time></trkpt><trkpt lat="45.58276594432799" lon="11.034777992094194"><ele>700.0</ele><time>2026-04-15T11:38:45.001Z</time></trkpt><trkpt lat="45.582788491552925" lon="11.03489184199838"><ele>700.0</ele><time>2026-04-15T11:38:46.001Z</time></trkpt><trkpt lat="45.58282022173808" lon="11.035024005332879"><ele>700.0</ele><time>2026-04-15T11:38:47.001Z</time></trkpt><trkpt lat="45.58285245934649" lon="11.035146384115441"><ele>702.0</ele><time>2026-04-15T11:38:48.001Z</time></trkpt><trkpt lat="45.58290507151899" lon="11.035266554667093"><ele>704.0</ele><time>2026-04-15T11:38:49.001Z</time></trkpt><trkpt lat="45.582952508528116" lon="11.035375107814065"><ele>706.0</ele><time>2026-04-15T11:38:50.001Z</time></trkpt><trkpt lat="45.58300701164336" lon="11.035494117904957"><ele>708.0</ele><time>2026-04-15T11:38:51.001Z</time></trkpt><trkpt lat="45.583065260231606" lon="11.035589227115866"><ele>710.0</ele><time>2026-04-15T11:38:52.001Z</time></trkpt><trkpt lat="45.583115413531026" lon="11.035661490398208"><ele>712.0</ele><time>2026-04-15T11:38:53.001Z</time></trkpt><trkpt lat="45.58318276430738" lon="11.035775569653039"><ele>711.1666666666667</ele><time>2026-04-15T11:38:55.001Z</time></trkpt><trkpt lat="45.58318468504482" lon="11.035872545816638"><ele>710.3333333333334</ele><time>2026-04-15T11:38:57.001Z</time></trkpt><trkpt lat="45.58311964038191" lon="11.035923305612393"><ele>709.5</ele><time>2026-04-15T11:38:59.001Z</time></trkpt><trkpt lat="45.58302339708039" lon="11.03591458485699"><ele>708.6666666666666</ele><time>2026-04-15T11:39:01.001Z</time></trkpt><trkpt lat="45.58295765875127" lon="11.035899996653933"><ele>707.8333333333333</ele><time>2026-04-15T11:39:04.001Z</time></trkpt><trkpt lat="45.58287262232119" lon="11.035919272427073"><ele>707.0</ele><time>2026-04-15T11:39:06.001Z</time></trkpt><trkpt lat="45.582802740744135" lon="11.03593524917092"><ele>706.0</ele><time>2026-04-15T11:39:07.001Z</time></trkpt><trkpt lat="45.58273707038933" lon="11.035954229114527"><ele>705.0</ele><time>2026-04-15T11:39:08.001Z</time></trkpt><trkpt lat="45.5826753509448" lon="11.035983627667637"><ele>704.0</ele><time>2026-04-15T11:39:09Z</time></trkpt><trkpt lat="45.58260815617603" lon="11.03604690427257"><ele>703.0</ele><time>2026-04-15T11:39:10Z</time></trkpt><trkpt lat="45.582542912020486" lon="11.036115896575469"><ele>702.0</ele><time>2026-04-15T11:39:11Z</time></trkpt><trkpt lat="45.582481615262886" lon="11.036185603661608"><ele>701.0</ele><time>2026-04-15T11:39:12Z</time></trkpt><trkpt lat="45.58242748988456" lon="11.036244091906852"><ele>700.0</ele><time>2026-04-15T11:39:13Z</time></trkpt><trkpt lat="45.58236191937098" lon="11.0362975128501"><ele>700.0</ele><time>2026-04-15T11:39:14Z</time></trkpt><trkpt lat="45.58225491081416" lon="11.036313783107634"><ele>700.0</ele><time>2026-04-15T11:39:16Z</time></trkpt><trkpt lat="45.58218736772826" lon="11.036295241906432"><ele>700.0</ele><time>2026-04-15T11:39:17Z</time></trkpt><trkpt lat="45.58212272232073" lon="11.03632399294729"><ele>700.0</ele><time>2026-04-15T11:39:19Z</time></trkpt><trkpt lat="45.582046320421476" lon="11.036351055919047"><ele>700.0</ele><time>2026-04-15T11:39:21Z</time></trkpt><trkpt lat="45.581978704080775" lon="11.036409200403087"><ele>700.0</ele><time>2026-04-15T11:39:23Z</time></trkpt><trkpt lat="45.581901267681545" lon="11.036454818670055"><ele>699.0</ele><time>2026-04-15T11:39:25Z</time></trkpt><trkpt lat="45.58182888771997" lon="11.036494324421053"><ele>698.0</ele><time>2026-04-15T11:39:27Z</time></trkpt><trkpt lat="45.581748799483066" lon="11.036543220955227"><ele>697.0</ele><time>2026-04-15T11:39:29Z</time></trkpt><trkpt lat="45.58165523146132" lon="11.03662338524792"><ele>696.0</ele><time>2026-04-15T11:39:31Z</time></trkpt><trkpt lat="45.58156895100261" lon="11.036722754294841"><ele>695.0</ele><time>2026-04-15T11:39:33Z</time></trkpt><trkpt lat="45.58151192959338" lon="11.036820976647524"><ele>698.3333333333333</ele><time>2026-04-15T11:39:35Z</time></trkpt><trkpt lat="45.58145379549303" lon="11.03694536139917"><ele>701.6666666666666</ele><time>2026-04-15T11:39:37Z</time></trkpt><trkpt lat="45.58140899778553" lon="11.037027394439653"><ele>705.0</ele><time>2026-04-15T11:39:38Z</time></trkpt><trkpt lat="45.581372429483025" lon="11.037111494457132"><ele>708.3333333333334</ele><time>2026-04-15T11:39:39Z</time></trkpt><trkpt lat="45.581338488070244" lon="11.037192479308528"><ele>711.6666666666667</ele><time>2026-04-15T11:39:40Z</time></trkpt><trkpt lat="45.58127201152574" lon="11.037312310731693"><ele>715.0</ele><time>2026-04-15T11:39:42Z</time></trkpt><trkpt lat="45.58121869863961" lon="11.037475850862611"><ele>715.3333333333334</ele><time>2026-04-15T11:39:44Z</time></trkpt><trkpt lat="45.58118010707617" lon="11.037619524666477"><ele>715.6666666666667</ele><time>2026-04-15T11:39:46Z</time></trkpt><trkpt lat="45.58110654250162" lon="11.03773299524181"><ele>716.0</ele><time>2026-04-15T11:39:48Z</time></trkpt><trkpt lat="45.58104338917912" lon="11.037733851280093"><ele>716.3333333333334</ele><time>2026-04-15T11:39:50Z</time></trkpt><trkpt lat="45.58098072396334" lon="11.037799917253896"><ele>716.6666666666666</ele><time>2026-04-15T11:39:52Z</time></trkpt><trkpt lat="45.580923063691806" lon="11.037902418340032"><ele>717.0</ele><time>2026-04-15T11:39:54Z</time></trkpt><trkpt lat="45.58087976398381" lon="11.037981301937064"><ele>717.0</ele><time>2026-04-15T11:39:56Z</time></trkpt><trkpt lat="45.58082764882871" lon="11.038090179464486"><ele>717.0</ele><time>2026-04-15T11:39:58Z</time></trkpt><trkpt lat="45.580789034193906" lon="11.038182746617519"><ele>717.0</ele><time>2026-04-15T11:39:59Z</time></trkpt><trkpt lat="45.58075374781396" lon="11.038286916224013"><ele>717.0</ele><time>2026-04-15T11:40:00Z</time></trkpt><trkpt lat="45.580718714178595" lon="11.038365737286615"><ele>717.0</ele><time>2026-04-15T11:40:01Z</time></trkpt><trkpt lat="45.58069023669112" lon="11.03847453261777"><ele>717.0</ele><time>2026-04-15T11:40:31.001Z</time></trkpt><trkpt lat="45.58065740925873" lon="11.038564412448702"><ele>719.1666666666666</ele><time>2026-04-15T11:40:33.001Z</time></trkpt><trkpt lat="45.58060652738691" lon="11.038619898021105"><ele>721.3333333333334</ele><time>2026-04-15T11:40:34.001Z</time></trkpt><trkpt lat="45.580606469086106" lon="11.038717069455313"><ele>723.5</ele><time>2026-04-15T11:40:35.001Z</time></trkpt><trkpt lat="45.58058199048139" lon="11.038805896927482"><ele>725.6666666666667</ele><time>2026-04-15T11:40:36.001Z</time></trkpt><trkpt lat="45.580551498193984" lon="11.038919573467394"><ele>727.8333333333334</ele><time>2026-04-15T11:40:37.001Z</time></trkpt><trkpt lat="45.58051968738288" lon="11.039031256670695"><ele>730.0</ele><time>2026-04-15T11:40:38.001Z</time></trkpt><trkpt lat="45.58048461391649" lon="11.039154293496292"><ele>730.6</ele><time>2026-04-15T11:40:39.001Z</time></trkpt><trkpt lat="45.58044688470299" lon="11.039287366723125"><ele>731.2</ele><time>2026-04-15T11:40:40.001Z</time></trkpt><trkpt lat="45.580401991431884" lon="11.039424976255626"><ele>731.8</ele><time>2026-04-15T11:40:41.001Z</time></trkpt><trkpt lat="45.58035476842471" lon="11.039565738419896"><ele>732.4</ele><time>2026-04-15T11:40:42.001Z</time></trkpt><trkpt lat="45.58028340054745" lon="11.039696883380486"><ele>733.0</ele><time>2026-04-15T11:40:43.001Z</time></trkpt><trkpt lat="45.580217883267316" lon="11.03983084160979"><ele>734.2</ele><time>2026-04-15T11:40:44.001Z</time></trkpt><trkpt lat="45.580156636594396" lon="11.039949251882037"><ele>735.4</ele><time>2026-04-15T11:40:45.001Z</time></trkpt><trkpt lat="45.58011092715048" lon="11.040067494892924"><ele>736.6</ele><time>2026-04-15T11:40:46.001Z</time></trkpt><trkpt lat="45.580051128719845" lon="11.040186036830512"><ele>737.8000000000001</ele><time>2026-04-15T11:40:47.001Z</time></trkpt><trkpt lat="45.5799801545627" lon="11.040308280710605"><ele>739.0</ele><time>2026-04-15T11:40:48.001Z</time></trkpt><trkpt lat="45.57992478996506" lon="11.040476706989601"><ele>739.0</ele><time>2026-04-15T11:40:49.001Z</time></trkpt><trkpt lat="45.57985019664673" lon="11.040648711214786"><ele>739.0</ele><time>2026-04-15T11:40:50.001Z</time></trkpt><trkpt lat="45.57977856452386" lon="11.0408224150545"><ele>739.0</ele><time>2026-04-15T11:40:51.001Z</time></trkpt><trkpt lat="45.57971153230037" lon="11.040959325853802"><ele>739.0</ele><time>2026-04-15T11:40:52.001Z</time></trkpt><trkpt lat="45.579662902662335" lon="11.041097948883769"><ele>739.3333333333334</ele><time>2026-04-15T11:40:53.001Z</time></trkpt><trkpt lat="45.579616507454816" lon="11.041228666379627"><ele>739.6666666666667</ele><time>2026-04-15T11:40:54.001Z</time></trkpt><trkpt lat="45.5795767849021" lon="11.04135706946154"><ele>740.0</ele><time>2026-04-15T11:40:55.001Z</time></trkpt><trkpt lat="45.57953880876065" lon="11.041455812782587"><ele>740.3333333333334</ele><time>2026-04-15T11:40:56.001Z</time></trkpt><trkpt lat="45.579513235627616" lon="11.041539042315495"><ele>740.6666666666666</ele><time>2026-04-15T11:40:57.001Z</time></trkpt><trkpt lat="45.5794978507942" lon="11.041638415616323"><ele>741.0</ele><time>2026-04-15T11:40:58.001Z</time></trkpt><trkpt lat="45.57948420397321" lon="11.04174732521354"><ele>741.0</ele><time>2026-04-15T11:40:59.001Z</time></trkpt><trkpt lat="45.57950058199138" lon="11.041906892566208"><ele>741.0</ele><time>2026-04-15T11:41:01.001Z</time></trkpt><trkpt lat="45.57955239330638" lon="11.042001467252717"><ele>741.0</ele><time>2026-04-15T11:41:02.001Z</time></trkpt><trkpt lat="45.57959644870593" lon="11.04211967814427"><ele>741.0</ele><time>2026-04-15T11:41:03.001Z</time></trkpt><trkpt lat="45.57963624899709" lon="11.042228324035952"><ele>741.0</ele><time>2026-04-15T11:41:04.001Z</time></trkpt><trkpt lat="45.57965037576166" lon="11.04231939494428"><ele>741.0</ele><time>2026-04-15T11:41:05.001Z</time></trkpt><trkpt lat="45.57966209197432" lon="11.042408262722853"><ele>740.4</ele><time>2026-04-15T11:41:34Z</time></trkpt><trkpt lat="45.579611132009404" lon="11.042497213500738"><ele>739.8</ele><time>2026-04-15T11:41:36Z</time></trkpt><trkpt lat="45.579532890156635" lon="11.042563485178075"><ele>739.1999999999999</ele><time>2026-04-15T11:41:38Z</time></trkpt><trkpt lat="45.57962024472288" lon="11.04277563260268"><ele>738.5999999999999</ele><time>2026-04-15T11:41:39Z</time></trkpt><trkpt lat="45.57969284215694" lon="11.042873855259701"><ele>738.0</ele><time>2026-04-15T11:41:40Z</time></trkpt><trkpt lat="45.579779489315555" lon="11.04295332125952"><ele>738.0</ele><time>2026-04-15T11:41:41Z</time></trkpt><trkpt lat="45.57988422841689" lon="11.043014134658412"><ele>738.0</ele><time>2026-04-15T11:41:42Z</time></trkpt><trkpt lat="45.580008830013405" lon="11.04303227815863"><ele>738.0</ele><time>2026-04-15T11:41:43Z</time></trkpt><trkpt lat="45.58015544747521" lon="11.04302148471684"><ele>738.0</ele><time>2026-04-15T11:41:44Z</time></trkpt><trkpt lat="45.58030789882252" lon="11.043007066615715"><ele>737.25</ele><time>2026-04-15T11:41:45Z</time></trkpt><trkpt lat="45.5804488299075" lon="11.042995835406622"><ele>736.5</ele><time>2026-04-15T11:41:46Z</time></trkpt><trkpt lat="45.58058190230631" lon="11.042990608729784"><ele>735.75</ele><time>2026-04-15T11:41:47Z</time></trkpt><trkpt lat="45.58071283522152" lon="11.042987599100286"><ele>735.0</ele><time>2026-04-15T11:41:48Z</time></trkpt><trkpt lat="45.58083915462405" lon="11.042993063739406"><ele>735.0</ele><time>2026-04-15T11:41:49Z</time></trkpt><trkpt lat="45.58097577532393" lon="11.043015898758261"><ele>735.0</ele><time>2026-04-15T11:41:50Z</time></trkpt><trkpt lat="45.58112501384166" lon="11.043069724922931"><ele>735.0</ele><time>2026-04-15T11:41:51Z</time></trkpt><trkpt lat="45.58126160500752" lon="11.043132570592116"><ele>735.0</ele><time>2026-04-15T11:41:52Z</time></trkpt><trkpt lat="45.58139624758489" lon="11.043188540242374"><ele>735.5</ele><time>2026-04-15T11:41:53Z</time></trkpt><trkpt lat="45.581527291354256" lon="11.043233382705434"><ele>736.0</ele><time>2026-04-15T11:41:54Z</time></trkpt><trkpt lat="45.58165391714933" lon="11.043276755089883"><ele>736.5</ele><time>2026-04-15T11:41:55Z</time></trkpt><trkpt lat="45.58177829821119" lon="11.043323395575346"><ele>737.0</ele><time>2026-04-15T11:41:56Z</time></trkpt><trkpt lat="45.581897335085195" lon="11.043373350314058"><ele>732.75</ele><time>2026-04-15T11:41:57Z</time></trkpt><trkpt lat="45.58201464759679" lon="11.043427591300473"><ele>728.5</ele><time>2026-04-15T11:41:58Z</time></trkpt><trkpt lat="45.582130062133814" lon="11.043480917940304"><ele>724.25</ele><time>2026-04-15T11:41:59Z</time></trkpt><trkpt lat="45.582241417633874" lon="11.043533770148006"><ele>720.0</ele><time>2026-04-15T11:42:00Z</time></trkpt><trkpt lat="45.582352884311945" lon="11.043575296991197"><ele>720.0</ele><time>2026-04-15T11:42:01Z</time></trkpt><trkpt lat="45.58246314433413" lon="11.043613281210343"><ele>720.0</ele><time>2026-04-15T11:42:02Z</time></trkpt><trkpt lat="45.58257326644824" lon="11.04365258625505"><ele>720.0</ele><time>2026-04-15T11:42:03Z</time></trkpt><trkpt lat="45.582701791922474" lon="11.04370191630837"><ele>720.0</ele><time>2026-04-15T11:42:04Z</time></trkpt><trkpt lat="45.58283918173808" lon="11.043760607876555"><ele>719.25</ele><time>2026-04-15T11:42:05Z</time></trkpt><trkpt lat="45.58296291039329" lon="11.04382931493977"><ele>718.5</ele><time>2026-04-15T11:42:06Z</time></trkpt><trkpt lat="45.58307884549439" lon="11.043938562755585"><ele>717.75</ele><time>2026-04-15T11:42:07Z</time></trkpt><trkpt lat="45.5831929067708" lon="11.044080685515798"><ele>717.0</ele><time>2026-04-15T11:42:08Z</time></trkpt><trkpt lat="45.58329330672354" lon="11.044251969308082"><ele>715.25</ele><time>2026-04-15T11:42:09Z</time></trkpt><trkpt lat="45.583367447106866" lon="11.044435802253167"><ele>713.5</ele><time>2026-04-15T11:42:10Z</time></trkpt><trkpt lat="45.583424923877146" lon="11.044621831873467"><ele>711.75</ele><time>2026-04-15T11:42:11Z</time></trkpt><trkpt lat="45.58348601263949" lon="11.044806030308333"><ele>710.0</ele><time>2026-04-15T11:42:12Z</time></trkpt><trkpt lat="45.58355121060058" lon="11.044980919481514"><ele>709.25</ele><time>2026-04-15T11:42:13Z</time></trkpt><trkpt lat="45.583625207355574" lon="11.045142042025942"><ele>708.5</ele><time>2026-04-15T11:42:14Z</time></trkpt><trkpt lat="45.583723561037026" lon="11.04528424883915"><ele>707.75</ele><time>2026-04-15T11:42:15Z</time></trkpt><trkpt lat="45.58384697668435" lon="11.04541629363945"><ele>707.0</ele><time>2026-04-15T11:42:16.001Z</time></trkpt><trkpt lat="45.5839766890381" lon="11.04552002929728"><ele>707.0</ele><time>2026-04-15T11:42:17.001Z</time></trkpt><trkpt lat="45.58409845473672" lon="11.045616759623996"><ele>707.0</ele><time>2026-04-15T11:42:18.001Z</time></trkpt><trkpt lat="45.58419932876945" lon="11.04571625151382"><ele>707.0</ele><time>2026-04-15T11:42:19.001Z</time></trkpt><trkpt lat="45.58428632152203" lon="11.04583442309631"><ele>707.0</ele><time>2026-04-15T11:42:20.001Z</time></trkpt><trkpt lat="45.58435410671226" lon="11.04598666211964"><ele>703.5</ele><time>2026-04-15T11:42:21.001Z</time></trkpt><trkpt lat="45.584404720047786" lon="11.046179412232444"><ele>700.0</ele><time>2026-04-15T11:42:22.001Z</time></trkpt><trkpt lat="45.58440961797713" lon="11.046384719232229"><ele>696.5</ele><time>2026-04-15T11:42:23.001Z</time></trkpt><trkpt lat="45.584384112995586" lon="11.046575556990492"><ele>693.0</ele><time>2026-04-15T11:42:24.001Z</time></trkpt><trkpt lat="45.58435701049758" lon="11.046756294513386"><ele>691.4</ele><time>2026-04-15T11:42:25.001Z</time></trkpt><trkpt lat="45.58434796507909" lon="11.046929524538388"><ele>689.8</ele><time>2026-04-15T11:42:26.001Z</time></trkpt><trkpt lat="45.58435974934793" lon="11.04707399224754"><ele>688.2</ele><time>2026-04-15T11:42:27.001Z</time></trkpt><trkpt lat="45.584380338697926" lon="11.04718357791997"><ele>686.6</ele><time>2026-04-15T11:42:28.001Z</time></trkpt><trkpt lat="45.584379555873774" lon="11.04732643284784"><ele>685.0</ele><time>2026-04-15T11:42:30.001Z</time></trkpt><trkpt lat="45.58434225492988" lon="11.047410066032096"><ele>685.0</ele><time>2026-04-15T11:42:32.001Z</time></trkpt><trkpt lat="45.58424340015823" lon="11.047512099370637"><ele>685.0</ele><time>2026-04-15T11:42:36.001Z</time></trkpt><trkpt lat="45.584198154730636" lon="11.04744826065655"><ele>685.0</ele><time>2026-04-15T11:42:38.001Z</time></trkpt><trkpt lat="45.584130821853115" lon="11.047303189182479"><ele>685.0</ele><time>2026-04-15T11:42:40.001Z</time></trkpt><trkpt lat="45.58407499029512" lon="11.047399301430083"><ele>685.0</ele><time>2026-04-15T11:42:45.001Z</time></trkpt><trkpt lat="45.584094724194784" lon="11.047485413200896"><ele>683.3333333333334</ele><time>2026-04-15T11:42:46.001Z</time></trkpt><trkpt lat="45.58408394395793" lon="11.047603875626717"><ele>681.6666666666667</ele><time>2026-04-15T11:42:48.001Z</time></trkpt><trkpt lat="45.5840691539687" lon="11.04775132058652"><ele>680.0</ele><time>2026-04-15T11:42:50.001Z</time></trkpt><trkpt lat="45.58405296306268" lon="11.047838558344015"><ele>678.3333333333334</ele><time>2026-04-15T11:42:51.001Z</time></trkpt><trkpt lat="45.584084398120595" lon="11.047935458433813"><ele>676.6666666666666</ele><time>2026-04-15T11:42:52.001Z</time></trkpt><trkpt lat="45.58409049811177" lon="11.048054513335941"><ele>675.0</ele><time>2026-04-15T11:42:54.001Z</time></trkpt><trkpt lat="45.58414301065516" lon="11.048183313704136"><ele>675.0</ele><time>2026-04-15T11:42:56.001Z</time></trkpt><trkpt lat="45.58416962650495" lon="11.04826585077711"><ele>675.0</ele><time>2026-04-15T11:42:57.001Z</time></trkpt><trkpt lat="45.5842233978171" lon="11.048395133920804"><ele>675.0</ele><time>2026-04-15T11:42:59.001Z</time></trkpt><trkpt lat="45.584257257674125" lon="11.048498715231673"><ele>675.0</ele><time>2026-04-15T11:43:01.001Z</time></trkpt><trkpt lat="45.58428415726909" lon="11.048612480246334"><ele>675.0</ele><time>2026-04-15T11:43:03.001Z</time></trkpt><trkpt lat="45.58429010226353" lon="11.048766251120592"><ele>675.0</ele><time>2026-04-15T11:43:05.001Z</time></trkpt><trkpt lat="45.584284051265016" lon="11.048872146347462"><ele>673.2</ele><time>2026-04-15T11:43:06.001Z</time></trkpt><trkpt lat="45.58431648813429" lon="11.049011122144986"><ele>671.4</ele><time>2026-04-15T11:43:08.001Z</time></trkpt><trkpt lat="45.58434466919728" lon="11.049147221325365"><ele>669.5999999999999</ele><time>2026-04-15T11:43:09.001Z</time></trkpt><trkpt lat="45.58438758596116" lon="11.049229090278763"><ele>667.8</ele><time>2026-04-15T11:43:10.001Z</time></trkpt><trkpt lat="45.58443591369036" lon="11.049361559434104"><ele>666.0</ele><time>2026-04-15T11:43:12.001Z</time></trkpt><trkpt lat="45.58444599852949" lon="11.049464175556283"><ele>664.0</ele><time>2026-04-15T11:43:13.001Z</time></trkpt><trkpt lat="45.58448149295613" lon="11.049549968037029"><ele>662.0</ele><time>2026-04-15T11:43:14.001Z</time></trkpt><trkpt lat="45.584523081351996" lon="11.049643971042938"><ele>660.0</ele><time>2026-04-15T11:43:15.001Z</time></trkpt><trkpt lat="45.584601245070765" lon="11.049765871304835"><ele>658.0</ele><time>2026-04-15T11:43:17.001Z</time></trkpt><trkpt lat="45.584655235056886" lon="11.049820493920208"><ele>656.0</ele><time>2026-04-15T11:43:18.001Z</time></trkpt><trkpt lat="45.58475051208574" lon="11.049937434879471"><ele>656.3333333333333</ele><time>2026-04-15T11:43:20.001Z</time></trkpt><trkpt lat="45.58479785829013" lon="11.050002832744235"><ele>656.6666666666666</ele><time>2026-04-15T11:43:21Z</time></trkpt><trkpt lat="45.584880334687824" lon="11.050083511188353"><ele>657.0</ele><time>2026-04-15T11:43:23Z</time></trkpt><trkpt lat="45.58493301275935" lon="11.050150714773025"><ele>657.3333333333334</ele><time>2026-04-15T11:43:24Z</time></trkpt><trkpt lat="45.58499596223481" lon="11.050221476501719"><ele>657.6666666666667</ele><time>2026-04-15T11:43:25Z</time></trkpt><trkpt lat="45.585047337232794" lon="11.050284379572417"><ele>658.0</ele><time>2026-04-15T11:43:26Z</time></trkpt><trkpt lat="45.58511302713982" lon="11.050355968864107"><ele>658.0</ele><time>2026-04-15T11:43:27Z</time></trkpt><trkpt lat="45.585165211371226" lon="11.050423854665006"><ele>658.0</ele><time>2026-04-15T11:43:28Z</time></trkpt><trkpt lat="45.585254211310975" lon="11.050515367210078"><ele>658.0</ele><time>2026-04-15T11:43:30Z</time></trkpt><trkpt lat="45.58535470422277" lon="11.050506990239171"><ele>658.0</ele><time>2026-04-15T11:43:32Z</time></trkpt><trkpt lat="45.58543455324687" lon="11.050446107877262"><ele>658.0</ele><time>2026-04-15T11:43:34Z</time></trkpt><trkpt lat="45.5855477584072" lon="11.050371841655881"><ele>657.6666666666667</ele><time>2026-04-15T11:43:36Z</time></trkpt><trkpt lat="45.58560700950649" lon="11.050338769836852"><ele>657.3333333333334</ele><time>2026-04-15T11:43:37Z</time></trkpt><trkpt lat="45.58566285919956" lon="11.050296633618732"><ele>657.0</ele><time>2026-04-15T11:43:38Z</time></trkpt><trkpt lat="45.58574455209523" lon="11.05023508791501"><ele>656.6666666666666</ele><time>2026-04-15T11:43:40Z</time></trkpt><trkpt lat="45.58582138245468" lon="11.050175532992647"><ele>656.3333333333333</ele><time>2026-04-15T11:43:42Z</time></trkpt><trkpt lat="45.585931566603655" lon="11.050166055679249"><ele>656.0</ele><time>2026-04-15T11:43:44Z</time></trkpt><trkpt lat="45.58602019551395" lon="11.050084836123975"><ele>656.0</ele><time>2026-04-15T11:43:46Z</time></trkpt><trkpt lat="45.586086778143866" lon="11.050079702355958"><ele>656.0</ele><time>2026-04-15T11:43:48Z</time></trkpt><trkpt lat="45.58620108083385" lon="11.050084470481554"><ele>656.0</ele><time>2026-04-15T11:43:50Z</time></trkpt><trkpt lat="45.586274366994175" lon="11.050079741119166"><ele>656.0</ele><time>2026-04-15T11:43:52Z</time></trkpt><trkpt lat="45.58634929204485" lon="11.050100480356454"><ele>656.0</ele><time>2026-04-15T11:43:54Z</time></trkpt><trkpt lat="45.58646378753204" lon="11.050141330995725"><ele>656.0</ele><time>2026-04-15T11:43:57Z</time></trkpt><trkpt lat="45.58652863650766" lon="11.050165270018244"><ele>654.1666666666666</ele><time>2026-04-15T11:43:59Z</time></trkpt><trkpt lat="45.58661977785222" lon="11.05017644302881"><ele>652.3333333333333</ele><time>2026-04-15T11:44:02Z</time></trkpt><trkpt lat="45.58669426846214" lon="11.05022565010259"><ele>650.5</ele><time>2026-04-15T11:44:03Z</time></trkpt><trkpt lat="45.58677464494749" lon="11.050273152033444"><ele>648.6666666666666</ele><time>2026-04-15T11:44:05Z</time></trkpt><trkpt lat="45.586872024482965" lon="11.050281858816096"><ele>646.8333333333334</ele><time>2026-04-15T11:44:07Z</time></trkpt><trkpt lat="45.58694294909255" lon="11.050301053407619"><ele>645.0</ele><time>2026-04-15T11:44:08Z</time></trkpt><trkpt lat="45.587020651931255" lon="11.050313803287994"><ele>642.8</ele><time>2026-04-15T11:44:10Z</time></trkpt><trkpt lat="45.58709774238466" lon="11.050327532089012"><ele>640.6</ele><time>2026-04-15T11:44:12Z</time></trkpt><trkpt lat="45.587202437744466" lon="11.050332490106705"><ele>638.4</ele><time>2026-04-15T11:44:14.001Z</time></trkpt><trkpt lat="45.58732203776802" lon="11.050306453209537"><ele>636.2</ele><time>2026-04-15T11:44:16.001Z</time></trkpt><trkpt lat="45.58739978027038" lon="11.0502710379995"><ele>634.0</ele><time>2026-04-15T11:44:17.001Z</time></trkpt><trkpt lat="45.58750988738249" lon="11.050208791449927"><ele>634.0</ele><time>2026-04-15T11:44:19.001Z</time></trkpt><trkpt lat="45.5876179888692" lon="11.05018549231488"><ele>634.0</ele><time>2026-04-15T11:44:21.001Z</time></trkpt><trkpt lat="45.587708473143145" lon="11.050156707138834"><ele>634.0</ele><time>2026-04-15T11:44:23.001Z</time></trkpt><trkpt lat="45.58780256616085" lon="11.050113667694387"><ele>634.0</ele><time>2026-04-15T11:44:25.001Z</time></trkpt><trkpt lat="45.58792150650947" lon="11.050079942397025"><ele>634.0</ele><time>2026-04-15T11:44:27.001Z</time></trkpt><trkpt lat="45.588039665447184" lon="11.050087300484572"><ele>636.0</ele><time>2026-04-15T11:44:29.001Z</time></trkpt><trkpt lat="45.588110939946716" lon="11.050012674563396"><ele>638.0</ele><time>2026-04-15T11:44:31.001Z</time></trkpt><trkpt lat="45.5882186597603" lon="11.049936239926366"><ele>640.0</ele><time>2026-04-15T11:44:33.001Z</time></trkpt><trkpt lat="45.58829192501371" lon="11.04988377284507"><ele>642.0</ele><time>2026-04-15T11:44:35.001Z</time></trkpt><trkpt lat="45.58836114288726" lon="11.049819847405182"><ele>644.0</ele><time>2026-04-15T11:44:37.001Z</time></trkpt><trkpt lat="45.588450244269346" lon="11.049717630201153"><ele>644.0</ele><time>2026-04-15T11:44:39.001Z</time></trkpt><trkpt lat="45.588495945440364" lon="11.04960518966002"><ele>644.0</ele><time>2026-04-15T11:44:41.001Z</time></trkpt><trkpt lat="45.58854674586517" lon="11.049450713417427"><ele>644.0</ele><time>2026-04-15T11:44:43.001Z</time></trkpt><trkpt lat="45.58859162486226" lon="11.049385841673708"><ele>644.0</ele><time>2026-04-15T11:44:44.001Z</time></trkpt><trkpt lat="45.588709418625285" lon="11.04932708699919"><ele>644.0</ele><time>2026-04-15T11:44:46.001Z</time></trkpt><trkpt lat="45.58880956000102" lon="11.049312183838015"><ele>642.6666666666666</ele><time>2026-04-15T11:44:48.001Z</time></trkpt><trkpt lat="45.58889380557273" lon="11.049236461417301"><ele>641.3333333333333</ele><time>2026-04-15T11:44:49.001Z</time></trkpt><trkpt lat="45.58895879647629" lon="11.04917314087835"><ele>640.0</ele><time>2026-04-15T11:44:50.001Z</time></trkpt><trkpt lat="45.58904834642435" lon="11.049147372069418"><ele>638.6666666666666</ele><time>2026-04-15T11:44:51.001Z</time></trkpt><trkpt lat="45.58911920828377" lon="11.04913210454533"><ele>637.3333333333334</ele><time>2026-04-15T11:44:52.001Z</time></trkpt><trkpt lat="45.589219293312375" lon="11.049083927853745"><ele>636.0</ele><time>2026-04-15T11:44:54.001Z</time></trkpt><trkpt lat="45.58931749044863" lon="11.048959335103074"><ele>636.0</ele><time>2026-04-15T11:44:56.001Z</time></trkpt><trkpt lat="45.589357561463444" lon="11.048883411185578"><ele>636.0</ele><time>2026-04-15T11:44:57.001Z</time></trkpt><trkpt lat="45.58937992108596" lon="11.0487777816606"><ele>636.0</ele><time>2026-04-15T11:44:58.001Z</time></trkpt><trkpt lat="45.58942204513268" lon="11.04868473895131"><ele>636.0</ele><time>2026-04-15T11:44:59.001Z</time></trkpt><trkpt lat="45.589471737097305" lon="11.0485719033628"><ele>636.0</ele><time>2026-04-15T11:45:01.001Z</time></trkpt><trkpt lat="45.5895731901727" lon="11.048558461541573"><ele>636.0</ele><time>2026-04-15T11:45:03.001Z</time></trkpt><trkpt lat="45.58966153074786" lon="11.048615104248917"><ele>632.0</ele><time>2026-04-15T11:45:05.001Z</time></trkpt><trkpt lat="45.58967112620798" lon="11.048729608571378"><ele>628.0</ele><time>2026-04-15T11:45:07.001Z</time></trkpt><trkpt lat="45.58969564518058" lon="11.048823271513635"><ele>624.0</ele><time>2026-04-15T11:45:10.001Z</time></trkpt><trkpt lat="45.589670154580084" lon="11.048949668916418"><ele>620.0</ele><time>2026-04-15T11:45:12.001Z</time></trkpt><trkpt lat="45.589593504377945" lon="11.049040224409989"><ele>616.0</ele><time>2026-04-15T11:45:14.001Z</time></trkpt><trkpt lat="45.58955416687339" lon="11.049123232802385"><ele>612.0</ele><time>2026-04-15T11:45:15.002Z</time></trkpt><trkpt lat="45.589468132006324" lon="11.04927458373158"><ele>611.3333333333334</ele><time>2026-04-15T11:45:17.002Z</time></trkpt><trkpt lat="45.5893983626279" lon="11.049342598019816"><ele>610.6666666666666</ele><time>2026-04-15T11:45:18.002Z</time></trkpt><trkpt lat="45.58932918239554" lon="11.049407963526765"><ele>610.0</ele><time>2026-04-15T11:45:19.002Z</time></trkpt><trkpt lat="45.58925352210926" lon="11.049463437581206"><ele>609.3333333333333</ele><time>2026-04-15T11:45:20.002Z</time></trkpt><trkpt lat="45.5891625098165" lon="11.049518083481663"><ele>608.6666666666666</ele><time>2026-04-15T11:45:21.002Z</time></trkpt><trkpt lat="45.589072926724164" lon="11.049562468414205"><ele>608.0</ele><time>2026-04-15T11:45:22.002Z</time></trkpt><trkpt lat="45.58899316860098" lon="11.049610029153317"><ele>608.0</ele><time>2026-04-15T11:45:23.002Z</time></trkpt><trkpt lat="45.58892265395567" lon="11.049660666596822"><ele>608.0</ele><time>2026-04-15T11:45:24.002Z</time></trkpt><trkpt lat="45.58885823833074" lon="11.049737128482542"><ele>608.0</ele><time>2026-04-15T11:45:25.002Z</time></trkpt><trkpt lat="45.588804340636464" lon="11.049850975227205"><ele>608.0</ele><time>2026-04-15T11:45:26.002Z</time></trkpt><trkpt lat="45.58877369326306" lon="11.049978621143271"><ele>608.0</ele><time>2026-04-15T11:45:27Z</time></trkpt><trkpt lat="45.58875274893829" lon="11.050089754901345"><ele>608.0</ele><time>2026-04-15T11:45:28Z</time></trkpt><trkpt lat="45.58872371499785" lon="11.050190943836215"><ele>608.6666666666666</ele><time>2026-04-15T11:45:29Z</time></trkpt><trkpt lat="45.58870214048997" lon="11.05028465685109"><ele>609.3333333333333</ele><time>2026-04-15T11:45:30Z</time></trkpt><trkpt lat="45.58865568605129" lon="11.050358004700954"><ele>610.0</ele><time>2026-04-15T11:45:31Z</time></trkpt><trkpt lat="45.58862440739066" lon="11.050437416208734"><ele>610.6666666666666</ele><time>2026-04-15T11:45:32Z</time></trkpt><trkpt lat="45.58855662933647" lon="11.050544924342113"><ele>611.3333333333334</ele><time>2026-04-15T11:45:34Z</time></trkpt><trkpt lat="45.588484702196645" lon="11.050549564064953"><ele>612.0</ele><time>2026-04-15T11:45:36Z</time></trkpt><trkpt lat="45.58840783843787" lon="11.05060275678196"><ele>612.0</ele><time>2026-04-15T11:45:39Z</time></trkpt><trkpt lat="45.58834453509715" lon="11.050650421632785"><ele>612.0</ele><time>2026-04-15T11:47:11.001Z</time></trkpt><trkpt lat="45.58827613594063" lon="11.05070286682206"><ele>612.0</ele><time>2026-04-15T11:47:13.001Z</time></trkpt><trkpt lat="45.588213865781306" lon="11.050750806213637"><ele>612.0</ele><time>2026-04-15T11:47:14.001Z</time></trkpt><trkpt lat="45.58813332651081" lon="11.050813452856811"><ele>612.0</ele><time>2026-04-15T11:47:15.002Z</time></trkpt><trkpt lat="45.588049098020335" lon="11.050879653774775"><ele>612.0</ele><time>2026-04-15T11:47:16.002Z</time></trkpt><trkpt lat="45.587959676746756" lon="11.050941335780466"><ele>610.25</ele><time>2026-04-15T11:47:17.002Z</time></trkpt><trkpt lat="45.587859128462874" lon="11.050989854777427"><ele>608.5</ele><time>2026-04-15T11:47:18.002Z</time></trkpt><trkpt lat="45.58774088516726" lon="11.051061317691314"><ele>606.75</ele><time>2026-04-15T11:47:19.002Z</time></trkpt><trkpt lat="45.58763062481853" lon="11.051140334301198"><ele>605.0</ele><time>2026-04-15T11:47:20.002Z</time></trkpt><trkpt lat="45.58752373808094" lon="11.051220861864124"><ele>604.75</ele><time>2026-04-15T11:47:21.002Z</time></trkpt><trkpt lat="45.58742063314809" lon="11.051300356583045"><ele>604.5</ele><time>2026-04-15T11:47:22.002Z</time></trkpt><trkpt lat="45.587311724903735" lon="11.051384325681537"><ele>604.25</ele><time>2026-04-15T11:47:23.002Z</time></trkpt><trkpt lat="45.58720032737932" lon="11.051467503023952"><ele>604.0</ele><time>2026-04-15T11:47:24.002Z</time></trkpt><trkpt lat="45.58709525677976" lon="11.051532955658839"><ele>604.6</ele><time>2026-04-15T11:47:25.002Z</time></trkpt><trkpt lat="45.58700652310965" lon="11.051571835679052"><ele>605.2</ele><time>2026-04-15T11:47:26.002Z</time></trkpt><trkpt lat="45.586938142428934" lon="11.051593283276588"><ele>605.8000000000001</ele><time>2026-04-15T11:47:27.002Z</time></trkpt><trkpt lat="45.58687474026683" lon="11.05160869878496"><ele>606.4</ele><time>2026-04-15T11:47:28.002Z</time></trkpt><trkpt lat="45.5867835085334" lon="11.051644089648878"><ele>607.0</ele><time>2026-04-15T11:47:30.002Z</time></trkpt><trkpt lat="45.586332124206024" lon="11.052071939524414"><ele>600.6666666666667</ele><time>2026-04-15T11:47:31.002Z</time></trkpt><trkpt lat="45.58636436188229" lon="11.052302991514868"><ele>594.3333333333334</ele><time>2026-04-15T11:47:32.002Z</time></trkpt><trkpt lat="45.5863623104672" lon="11.05241581962205"><ele>588.0</ele><time>2026-04-15T11:47:34Z</time></trkpt><trkpt lat="45.58693504971323" lon="11.052366856983852"><ele>592.1999999999999</ele><time>2026-04-15T11:47:37Z</time></trkpt><trkpt lat="45.58701115342311" lon="11.052225582082388"><ele>596.4</ele><time>2026-04-15T11:47:39Z</time></trkpt><trkpt lat="45.58704901852411" lon="11.05213345618948"><ele>600.5999999999999</ele><time>2026-04-15T11:47:40Z</time></trkpt><trkpt lat="45.58713484943144" lon="11.052032944459988"><ele>604.8</ele><time>2026-04-15T11:47:41Z</time></trkpt><trkpt lat="45.58720766170933" lon="11.051962642797276"><ele>609.0</ele><time>2026-04-15T11:47:42Z</time></trkpt><trkpt lat="45.587274317126735" lon="11.051915399310225"><ele>609.0</ele><time>2026-04-15T11:47:43Z</time></trkpt><trkpt lat="45.58735355731338" lon="11.051884115499002"><ele>609.0</ele><time>2026-04-15T11:47:44Z</time></trkpt><trkpt lat="45.587438553203064" lon="11.05184808801277"><ele>609.0</ele><time>2026-04-15T11:47:45Z</time></trkpt><trkpt lat="45.5875232891545" lon="11.051789482199725"><ele>609.0</ele><time>2026-04-15T11:47:46Z</time></trkpt><trkpt lat="45.587640359863755" lon="11.051709146284814"><ele>609.0</ele><time>2026-04-15T11:47:47Z</time></trkpt><trkpt lat="45.58773801537348" lon="11.05162886908481"><ele>608.3333333333334</ele><time>2026-04-15T11:47:48Z</time></trkpt><trkpt lat="45.58784320489141" lon="11.051566482072474"><ele>607.6666666666666</ele><time>2026-04-15T11:47:49Z</time></trkpt><trkpt lat="45.587941753092466" lon="11.051515719300642"><ele>607.0</ele><time>2026-04-15T11:47:50Z</time></trkpt><trkpt lat="45.588019608708386" lon="11.051451324477002"><ele>606.3333333333333</ele><time>2026-04-15T11:47:51Z</time></trkpt><trkpt lat="45.58806994082854" lon="11.051396532303185"><ele>605.6666666666666</ele><time>2026-04-15T11:47:52Z</time></trkpt><trkpt lat="45.588138688278484" lon="11.051437942294367"><ele>605.0</ele><time>2026-04-15T11:47:55Z</time></trkpt><trkpt lat="45.58810744229866" lon="11.051538995658596"><ele>605.0</ele><time>2026-04-15T11:47:57Z</time></trkpt><trkpt lat="45.58804861184592" lon="11.05157677086593"><ele>605.0</ele><time>2026-04-15T11:47:58Z</time></trkpt><trkpt lat="45.58791906576839" lon="11.051639801271664"><ele>605.0</ele><time>2026-04-15T11:48:00Z</time></trkpt><trkpt lat="45.587858900013224" lon="11.051666432143731"><ele>605.0</ele><time>2026-04-15T11:48:01Z</time></trkpt><trkpt lat="45.58779649538798" lon="11.051688898889108"><ele>605.0</ele><time>2026-04-15T11:48:02Z</time></trkpt><trkpt lat="45.58773917835837" lon="11.051739479204414"><ele>605.0</ele><time>2026-04-15T11:48:03Z</time></trkpt><trkpt lat="45.587622933571666" lon="11.051876651927078"><ele>605.8</ele><time>2026-04-15T11:48:04.001Z</time></trkpt><trkpt lat="45.58753312134949" lon="11.051976054254236"><ele>606.6</ele><time>2026-04-15T11:48:05.001Z</time></trkpt><trkpt lat="45.587450089555624" lon="11.052079106033554"><ele>607.4</ele><time>2026-04-15T11:48:06.001Z</time></trkpt><trkpt lat="45.58738207648179" lon="11.052195368995475"><ele>608.2</ele><time>2026-04-15T11:48:07.001Z</time></trkpt><trkpt lat="45.58732518839831" lon="11.052314050229535"><ele>609.0</ele><time>2026-04-15T11:48:08.001Z</time></trkpt><trkpt lat="45.58727187160943" lon="11.052413892804488"><ele>614.4</ele><time>2026-04-15T11:48:09.001Z</time></trkpt><trkpt lat="45.58720763790093" lon="11.052564237953138"><ele>619.8</ele><time>2026-04-15T11:48:10.001Z</time></trkpt><trkpt lat="45.587168996785614" lon="11.05270014188673"><ele>625.2</ele><time>2026-04-15T11:48:11.001Z</time></trkpt><trkpt lat="45.58713200593504" lon="11.052806966163836"><ele>630.6</ele><time>2026-04-15T11:48:12.001Z</time></trkpt><trkpt lat="45.58707784888068" lon="11.05289759490557"><ele>636.0</ele><time>2026-04-15T11:48:13.001Z</time></trkpt><trkpt lat="45.587058038997476" lon="11.05299965542013"><ele>636.0</ele><time>2026-04-15T11:48:14.001Z</time></trkpt><trkpt lat="45.58704547442361" lon="11.0531264815736"><ele>636.0</ele><time>2026-04-15T11:48:15.001Z</time></trkpt><trkpt lat="45.587041046655735" lon="11.05326086142731"><ele>636.0</ele><time>2026-04-15T11:48:16.001Z</time></trkpt><trkpt lat="45.58702841149668" lon="11.053400697236036"><ele>636.0</ele><time>2026-04-15T11:48:17.001Z</time></trkpt><trkpt lat="45.58700793038118" lon="11.05353997583322"><ele>636.0</ele><time>2026-04-15T11:48:18.001Z</time></trkpt><trkpt lat="45.586986230163426" lon="11.053650595820097"><ele>636.5</ele><time>2026-04-15T11:48:19.001Z</time></trkpt><trkpt lat="45.586963631525165" lon="11.053737394159127"><ele>637.0</ele><time>2026-04-15T11:48:20.001Z</time></trkpt><trkpt lat="45.58697260697806" lon="11.053904229986594"><ele>637.5</ele><time>2026-04-15T11:48:22.001Z</time></trkpt><trkpt lat="45.586960460275435" lon="11.054037826598984"><ele>638.0</ele><time>2026-04-15T11:48:24.001Z</time></trkpt><trkpt lat="45.58693188052857" lon="11.054158023434088"><ele>638.5</ele><time>2026-04-15T11:48:26.001Z</time></trkpt><trkpt lat="45.586896874092005" lon="11.054240004840334"><ele>639.0</ele><time>2026-04-15T11:48:28.001Z</time></trkpt><trkpt lat="45.58685903354449" lon="11.054375343482233"><ele>639.0</ele><time>2026-04-15T11:48:30.001Z</time></trkpt><trkpt lat="45.58685506048416" lon="11.054484064990561"><ele>639.0</ele><time>2026-04-15T11:48:32.001Z</time></trkpt><trkpt lat="45.586817968881576" lon="11.054641082986414"><ele>639.0</ele><time>2026-04-15T11:48:34.001Z</time></trkpt><trkpt lat="45.58677501078315" lon="11.054741623923716"><ele>639.0</ele><time>2026-04-15T11:48:35.001Z</time></trkpt><trkpt lat="45.586775470492015" lon="11.054842152332307"><ele>639.0</ele><time>2026-04-15T11:48:36.001Z</time></trkpt><trkpt lat="45.58671010415043" lon="11.055035471154483"><ele>642.2</ele><time>2026-04-15T11:48:38.001Z</time></trkpt><trkpt lat="45.58665381906265" lon="11.055170951905943"><ele>645.4</ele><time>2026-04-15T11:48:40.001Z</time></trkpt><trkpt lat="45.58660443386983" lon="11.055320093995972"><ele>648.6</ele><time>2026-04-15T11:48:42.001Z</time></trkpt><trkpt lat="45.586542578716944" lon="11.055351828428508"><ele>651.8</ele><time>2026-04-15T11:48:49.001Z</time></trkpt><trkpt lat="45.58651482400234" lon="11.055202690765272"><ele>655.0</ele><time>2026-04-15T11:48:53.001Z</time></trkpt><trkpt lat="45.586519987954894" lon="11.055108028611999"><ele>655.0</ele><time>2026-04-15T11:48:55.001Z</time></trkpt><trkpt lat="45.58647844748879" lon="11.055015275320873"><ele>655.0</ele><time>2026-04-15T11:48:57.001Z</time></trkpt><trkpt lat="45.58639996303156" lon="11.054905613287222"><ele>655.0</ele><time>2026-04-15T11:48:59.001Z</time></trkpt><trkpt lat="45.58632724311416" lon="11.054804682746648"><ele>655.0</ele><time>2026-04-15T11:49:01.001Z</time></trkpt><trkpt lat="45.58622144463529" lon="11.054714109118153"><ele>655.0</ele><time>2026-04-15T11:49:03.001Z</time></trkpt><trkpt lat="45.58615534532237" lon="11.054637798814136"><ele>654.2</ele><time>2026-04-15T11:49:05.001Z</time></trkpt><trkpt lat="45.58605776093988" lon="11.054526870446296"><ele>653.4</ele><time>2026-04-15T11:49:07.001Z</time></trkpt><trkpt lat="45.585994342373475" lon="11.054464950366802"><ele>652.5999999999999</ele><time>2026-04-15T11:49:09.001Z</time></trkpt><trkpt lat="45.58603341544649" lon="11.054588942036045"><ele>651.8</ele><time>2026-04-15T11:49:19.002Z</time></trkpt><trkpt lat="45.586048842460805" lon="11.054714628479962"><ele>651.0</ele><time>2026-04-15T11:49:21.002Z</time></trkpt><trkpt lat="45.58606398074641" lon="11.05482574668209"><ele>651.0</ele><time>2026-04-15T11:49:24.002Z</time></trkpt><trkpt lat="45.58609168644181" lon="11.054945199264438"><ele>651.0</ele><time>2026-04-15T11:49:26.002Z</time></trkpt><trkpt lat="45.586101244986" lon="11.055049676752514"><ele>651.0</ele><time>2026-04-15T11:49:28.002Z</time></trkpt><trkpt lat="45.5861062223942" lon="11.05520700993936"><ele>651.0</ele><time>2026-04-15T11:49:30.002Z</time></trkpt><trkpt lat="45.58612280626858" lon="11.055299606286669"><ele>651.0</ele><time>2026-04-15T11:49:31.002Z</time></trkpt><trkpt lat="45.58613558975765" lon="11.055488805937326"><ele>656.4</ele><time>2026-04-15T11:49:33.002Z</time></trkpt><trkpt lat="45.586145067866255" lon="11.055589200873845"><ele>661.8</ele><time>2026-04-15T11:49:34.002Z</time></trkpt><trkpt lat="45.586138866170394" lon="11.0557683381296"><ele>667.1999999999999</ele><time>2026-04-15T11:49:36.002Z</time></trkpt><trkpt lat="45.586138614322294" lon="11.055895467469291"><ele>672.5999999999999</ele><time>2026-04-15T11:49:38.002Z</time></trkpt><trkpt lat="45.58612702392032" lon="11.056030431516705"><ele>678.0</ele><time>2026-04-15T11:49:40Z</time></trkpt><trkpt lat="45.586111850881395" lon="11.056167494904216"><ele>680.3333333333334</ele><time>2026-04-15T11:49:42Z</time></trkpt><trkpt lat="45.586082062095784" lon="11.056301550762862"><ele>682.6666666666666</ele><time>2026-04-15T11:49:44Z</time></trkpt><trkpt lat="45.58603398410381" lon="11.056437757441536"><ele>685.0</ele><time>2026-04-15T11:49:46Z</time></trkpt><trkpt lat="45.586001851051634" lon="11.056540051161875"><ele>687.3333333333333</ele><time>2026-04-15T11:49:48Z</time></trkpt><trkpt lat="45.58596806834862" lon="11.056627383213788"><ele>689.6666666666666</ele><time>2026-04-15T11:49:50Z</time></trkpt><trkpt lat="45.58590841098674" lon="11.056700721744267"><ele>692.0</ele><time>2026-04-15T11:49:51Z</time></trkpt><trkpt lat="45.58583575199646" lon="11.056848235984885"><ele>692.7142857142857</ele><time>2026-04-15T11:49:53Z</time></trkpt><trkpt lat="45.58577681344264" lon="11.05695291700978"><ele>693.4285714285714</ele><time>2026-04-15T11:49:55Z</time></trkpt><trkpt lat="45.58574465898691" lon="11.05703188223"><ele>694.1428571428571</ele><time>2026-04-15T11:50:00Z</time></trkpt><trkpt lat="45.58571836260849" lon="11.057123073467025"><ele>694.8571428571429</ele><time>2026-04-15T11:50:12Z</time></trkpt><trkpt lat="45.58568455888627" lon="11.057231015354233"><ele>695.5714285714286</ele><time>2026-04-15T11:50:15Z</time></trkpt><trkpt lat="45.58564902285562" lon="11.05730685670893"><ele>696.2857142857143</ele><time>2026-04-15T11:50:17Z</time></trkpt><trkpt lat="45.5856165656671" lon="11.05739640784738"><ele>697.0</ele><time>2026-04-15T11:50:20Z</time></trkpt><trkpt lat="45.585622832506246" lon="11.057527946400732"><ele>698.3333333333334</ele><time>2026-04-15T11:50:24.001Z</time></trkpt><trkpt lat="45.585630293106725" lon="11.057619589132898"><ele>699.6666666666667</ele><time>2026-04-15T11:50:26.001Z</time></trkpt><trkpt lat="45.58559110303374" lon="11.057695537800303"><ele>701.0</ele><time>2026-04-15T11:50:29.001Z</time></trkpt><trkpt lat="45.58558884514869" lon="11.057802665866566"><ele>702.3333333333334</ele><time>2026-04-15T11:50:31.001Z</time></trkpt><trkpt lat="45.58560686372803" lon="11.057934260340947"><ele>703.6666666666666</ele><time>2026-04-15T11:50:33.001Z</time></trkpt><trkpt lat="45.58558896991275" lon="11.058033787663023"><ele>705.0</ele><time>2026-04-15T11:50:37.001Z</time></trkpt><trkpt lat="45.58549854166116" lon="11.058086701462667"><ele>705.0</ele><time>2026-04-15T11:50:39.001Z</time></trkpt><trkpt lat="45.585416435591576" lon="11.058159994506914"><ele>705.0</ele><time>2026-04-15T11:50:41.001Z</time></trkpt><trkpt lat="45.58537493025897" lon="11.05826107232168"><ele>705.0</ele><time>2026-04-15T11:50:43.001Z</time></trkpt><trkpt lat="45.58533500394336" lon="11.05833343654935"><ele>705.0</ele><time>2026-04-15T11:50:44.001Z</time></trkpt><trkpt lat="45.585304372434116" lon="11.058417214403477"><ele>705.0</ele><time>2026-04-15T11:50:45.001Z</time></trkpt><trkpt lat="45.58528885406648" lon="11.058513954138705"><ele>705.0</ele><time>2026-04-15T11:50:46.001Z</time></trkpt><trkpt lat="45.58527438688885" lon="11.058642093205389"><ele>706.6</ele><time>2026-04-15T11:50:47.001Z</time></trkpt><trkpt lat="45.585267249360136" lon="11.058744137659914"><ele>708.2</ele><time>2026-04-15T11:50:48.001Z</time></trkpt><trkpt lat="45.58524848109057" lon="11.05883522361395"><ele>709.8</ele><time>2026-04-15T11:50:49.001Z</time></trkpt><trkpt lat="45.58519415233555" lon="11.058936830781798"><ele>711.4</ele><time>2026-04-15T11:50:51.001Z</time></trkpt><trkpt lat="45.585110754707706" lon="11.059164821387018"><ele>713.0</ele><time>2026-04-15T11:50:54.001Z</time></trkpt><trkpt lat="45.58506634339038" lon="11.05926682390744"><ele>713.0</ele><time>2026-04-15T11:50:55.001Z</time></trkpt><trkpt lat="45.58504336489362" lon="11.059354631209478"><ele>713.0</ele><time>2026-04-15T11:50:57.001Z</time></trkpt><trkpt lat="45.58509704113657" lon="11.059415479271854"><ele>713.0</ele><time>2026-04-15T11:50:59.001Z</time></trkpt><trkpt lat="45.58519929499499" lon="11.059652070673236"><ele>713.0</ele><time>2026-04-15T11:51:01.001Z</time></trkpt><trkpt lat="45.58526764840907" lon="11.059819691128379"><ele>713.0</ele><time>2026-04-15T11:51:02.001Z</time></trkpt><trkpt lat="45.58533179861534" lon="11.059936484423089"><ele>713.0</ele><time>2026-04-15T11:51:03.001Z</time></trkpt><trkpt lat="45.585398741739375" lon="11.060078094840666"><ele>713.0</ele><time>2026-04-15T11:51:04.001Z</time></trkpt><trkpt lat="45.58544202531829" lon="11.060184786656006"><ele>713.0</ele><time>2026-04-15T11:51:05.001Z</time></trkpt><trkpt lat="45.58549780468944" lon="11.060282045678544"><ele>713.0</ele><time>2026-04-15T11:51:06.001Z</time></trkpt><trkpt lat="45.58555578933279" lon="11.060364551473354"><ele>713.5999999999999</ele><time>2026-04-15T11:51:07.001Z</time></trkpt><trkpt lat="45.58559920097699" lon="11.060445081252054"><ele>714.1999999999999</ele><time>2026-04-15T11:51:08.001Z</time></trkpt><trkpt lat="45.58552852469408" lon="11.060335784958124"><ele>714.8</ele><time>2026-04-15T11:51:13.001Z</time></trkpt><trkpt lat="45.585381724495086" lon="11.060259895072306"><ele>715.4</ele><time>2026-04-15T11:51:15.001Z</time></trkpt><trkpt lat="45.58526648660588" lon="11.060239216141742"><ele>716.0</ele><time>2026-04-15T11:51:16.001Z</time></trkpt><trkpt lat="45.585159956680464" lon="11.060196709918237"><ele>717.25</ele><time>2026-04-15T11:51:17.001Z</time></trkpt><trkpt lat="45.58504362793486" lon="11.06018479596861"><ele>718.5</ele><time>2026-04-15T11:51:18.001Z</time></trkpt><trkpt lat="45.58491722626723" lon="11.060144107060555"><ele>719.75</ele><time>2026-04-15T11:51:19.001Z</time></trkpt><trkpt lat="45.584791335260874" lon="11.060125260302058"><ele>721.0</ele><time>2026-04-15T11:51:20.001Z</time></trkpt><trkpt lat="45.58465197428421" lon="11.060121718395003"><ele>722.25</ele><time>2026-04-15T11:51:21.001Z</time></trkpt><trkpt lat="45.58451098839575" lon="11.060089256012528"><ele>723.5</ele><time>2026-04-15T11:51:22.001Z</time></trkpt><trkpt lat="45.58436271424805" lon="11.060077182658457"><ele>724.75</ele><time>2026-04-15T11:51:23.001Z</time></trkpt><trkpt lat="45.58420765250645" lon="11.060108353402029"><ele>726.0</ele><time>2026-04-15T11:51:24.001Z</time></trkpt><trkpt lat="45.58404736803858" lon="11.06018140666312"><ele>726.0</ele><time>2026-04-15T11:51:25.001Z</time></trkpt><trkpt lat="45.58391397415918" lon="11.060238925086578"><ele>726.0</ele><time>2026-04-15T11:51:26.001Z</time></trkpt><trkpt lat="45.583772608886264" lon="11.060289990901746"><ele>726.0</ele><time>2026-04-15T11:51:27.002Z</time></trkpt><trkpt lat="45.5836341757866" lon="11.06033630053666"><ele>726.0</ele><time>2026-04-15T11:51:28.002Z</time></trkpt><trkpt lat="45.58350049150367" lon="11.060382005004636"><ele>725.4</ele><time>2026-04-15T11:51:29.002Z</time></trkpt><trkpt lat="45.58338695961938" lon="11.060418429407886"><ele>724.8</ele><time>2026-04-15T11:51:30.002Z</time></trkpt><trkpt lat="45.5832788755104" lon="11.060447432655698"><ele>724.1999999999999</ele><time>2026-04-15T11:51:31.002Z</time></trkpt><trkpt lat="45.58316353190323" lon="11.060497256006439"><ele>723.5999999999999</ele><time>2026-04-15T11:51:32.002Z</time></trkpt><trkpt lat="45.58307141021318" lon="11.060559706678527"><ele>723.0</ele><time>2026-04-15T11:51:33.002Z</time></trkpt><trkpt lat="45.58300161080413" lon="11.060630873983985"><ele>723.0</ele><time>2026-04-15T11:51:34.002Z</time></trkpt><trkpt lat="45.58295167126744" lon="11.06071632031104"><ele>723.0</ele><time>2026-04-15T11:51:35.002Z</time></trkpt><trkpt lat="45.58290194836473" lon="11.06081363332883"><ele>723.0</ele><time>2026-04-15T11:51:36.002Z</time></trkpt><trkpt lat="45.582855364294275" lon="11.060918161075776"><ele>723.0</ele><time>2026-04-15T11:51:37.002Z</time></trkpt><trkpt lat="45.58282395612939" lon="11.061005448813287"><ele>723.0</ele><time>2026-04-15T11:51:38.002Z</time></trkpt><trkpt lat="45.582787172423124" lon="11.061109180782115"><ele>723.0</ele><time>2026-04-15T11:51:40.002Z</time></trkpt><trkpt lat="45.582619987434185" lon="11.061115948270201"><ele>723.8333333333334</ele><time>2026-04-15T11:51:50Z</time></trkpt><trkpt lat="45.58254623924782" lon="11.061016978675507"><ele>724.6666666666666</ele><time>2026-04-15T11:51:53Z</time></trkpt><trkpt lat="45.5825056979309" lon="11.060928973524506"><ele>725.5</ele><time>2026-04-15T11:51:57Z</time></trkpt><trkpt lat="45.58243686728671" lon="11.060876486964805"><ele>726.3333333333333</ele><time>2026-04-15T11:52:01Z</time></trkpt><trkpt lat="45.58236621447815" lon="11.06081850529266"><ele>727.1666666666666</ele><time>2026-04-15T11:52:05Z</time></trkpt><trkpt lat="45.58229511890459" lon="11.060776862047875"><ele>728.0</ele><time>2026-04-15T11:52:08Z</time></trkpt><trkpt lat="45.582237495390814" lon="11.06067726432862"><ele>725.5999999999999</ele><time>2026-04-15T11:52:12Z</time></trkpt><trkpt lat="45.58215931734911" lon="11.060604407415836"><ele>723.1999999999999</ele><time>2026-04-15T11:52:15Z</time></trkpt><trkpt lat="45.582059296822216" lon="11.06051978311096"><ele>720.8</ele><time>2026-04-15T11:52:17Z</time></trkpt><trkpt lat="45.58197575948234" lon="11.060479720363697"><ele>718.4</ele><time>2026-04-15T11:52:20Z</time></trkpt><trkpt lat="45.5819230076387" lon="11.060560076254015"><ele>716.0</ele><time>2026-04-15T11:52:23Z</time></trkpt><trkpt lat="45.58195877812413" lon="11.060716952385647"><ele>718.4</ele><time>2026-04-15T11:52:25Z</time></trkpt><trkpt lat="45.58198143195469" lon="11.060801844512987"><ele>720.8</ele><time>2026-04-15T11:52:26Z</time></trkpt><trkpt lat="45.582008408222414" lon="11.060908268209687"><ele>723.1999999999999</ele><time>2026-04-15T11:52:27Z</time></trkpt><trkpt lat="45.58202209091179" lon="11.061078096774288"><ele>725.5999999999999</ele><time>2026-04-15T11:52:29Z</time></trkpt><trkpt lat="45.58204113766996" lon="11.061244424532907"><ele>728.0</ele><time>2026-04-15T11:52:31Z</time></trkpt><trkpt lat="45.58204862060661" lon="11.06135014798723"><ele>728.0</ele><time>2026-04-15T11:52:32.001Z</time></trkpt><trkpt lat="45.58207348787626" lon="11.06145474037514"><ele>728.0</ele><time>2026-04-15T11:52:33.001Z</time></trkpt><trkpt lat="45.5820755020703" lon="11.06158361458535"><ele>728.0</ele><time>2026-04-15T11:52:35.001Z</time></trkpt><trkpt lat="45.582087642808446" lon="11.06173687728231"><ele>728.0</ele><time>2026-04-15T11:52:37.001Z</time></trkpt><trkpt lat="45.58206376176171" lon="11.061903771377574"><ele>728.0</ele><time>2026-04-15T11:52:39.001Z</time></trkpt><trkpt lat="45.58206147029532" lon="11.06199751757881"><ele>727.8333333333333</ele><time>2026-04-15T11:52:40.001Z</time></trkpt><trkpt lat="45.58203996313141" lon="11.0621413641129"><ele>727.6666666666666</ele><time>2026-04-15T11:52:42.001Z</time></trkpt><trkpt lat="45.58202567254368" lon="11.062233526791212"><ele>727.5</ele><time>2026-04-15T11:52:43.001Z</time></trkpt><trkpt lat="45.58201488756329" lon="11.062331101501778"><ele>727.3333333333334</ele><time>2026-04-15T11:52:44.001Z</time></trkpt><trkpt lat="45.581988717838605" lon="11.062481672148756"><ele>727.1666666666667</ele><time>2026-04-15T11:52:46.001Z</time></trkpt><trkpt lat="45.5819447582425" lon="11.062591908660801"><ele>727.0</ele><time>2026-04-15T11:52:48.001Z</time></trkpt><trkpt lat="45.58189989743984" lon="11.06272077961292"><ele>719.8</ele><time>2026-04-15T11:52:50.001Z</time></trkpt><trkpt lat="45.58185874850668" lon="11.062924375319469"><ele>712.6</ele><time>2026-04-15T11:52:52.001Z</time></trkpt><trkpt lat="45.58184043962847" lon="11.063057882725575"><ele>705.4</ele><time>2026-04-15T11:52:53.001Z</time></trkpt><trkpt lat="45.581855323833146" lon="11.063175575510583"><ele>698.1999999999999</ele><time>2026-04-15T11:52:55.001Z</time></trkpt><trkpt lat="45.58191617086437" lon="11.06325516747262"><ele>691.0</ele><time>2026-04-15T11:52:57.001Z</time></trkpt><trkpt lat="45.58196157426175" lon="11.063372732325103"><ele>690.9999999999999</ele><time>2026-04-15T11:52:59.001Z</time></trkpt><trkpt lat="45.58191267741928" lon="11.063439981172039"><ele>691.0</ele><time>2026-04-15T11:53:03.001Z</time></trkpt><trkpt lat="45.58186042599675" lon="11.063506130118325"><ele>691.0</ele><time>2026-04-15T11:54:36.001Z</time></trkpt><trkpt lat="45.581793631535106" lon="11.06352597949914"><ele>691.0</ele><time>2026-04-15T11:54:38.001Z</time></trkpt><trkpt lat="45.58172853612517" lon="11.063568723470485"><ele>691.0</ele><time>2026-04-15T11:54:40.001Z</time></trkpt><trkpt lat="45.58167395205697" lon="11.063510318732115"><ele>690.9999999999999</ele><time>2026-04-15T11:54:44.001Z</time></trkpt><trkpt lat="45.58167512467998" lon="11.063387744505635"><ele>691.0</ele><time>2026-04-15T11:54:46.001Z</time></trkpt><trkpt lat="45.5816489715612" lon="11.063279038320056"><ele>690.1999999999999</ele><time>2026-04-15T11:54:48.001Z</time></trkpt><trkpt lat="45.58158802409576" lon="11.063164600781352"><ele>689.4</ele><time>2026-04-15T11:54:50.001Z</time></trkpt><trkpt lat="45.581523710644674" lon="11.063046250646146"><ele>688.6</ele><time>2026-04-15T11:54:52.001Z</time></trkpt><trkpt lat="45.58147912391321" lon="11.062961683105247"><ele>687.8</ele><time>2026-04-15T11:54:53.001Z</time></trkpt><trkpt lat="45.58140609715849" lon="11.062839153783086"><ele>687.0</ele><time>2026-04-15T11:54:55.001Z</time></trkpt><trkpt lat="45.5813312578123" lon="11.062727775827783"><ele>687.0</ele><time>2026-04-15T11:54:57.001Z</time></trkpt><trkpt lat="45.581190919928304" lon="11.062596447281832"><ele>687.0</ele><time>2026-04-15T11:54:59.001Z</time></trkpt><trkpt lat="45.58111401215811" lon="11.062555822766695"><ele>687.0</ele><time>2026-04-15T11:55:00.001Z</time></trkpt><trkpt lat="45.58103407616453" lon="11.062459500945224"><ele>687.0</ele><time>2026-04-15T11:55:02.001Z</time></trkpt><trkpt lat="45.580937464679494" lon="11.062321228279929"><ele>686.0</ele><time>2026-04-15T11:55:04.001Z</time></trkpt><trkpt lat="45.58084798366095" lon="11.06224218216359"><ele>685.0</ele><time>2026-04-15T11:55:05.001Z</time></trkpt><trkpt lat="45.580770460220585" lon="11.062205843533558"><ele>684.0</ele><time>2026-04-15T11:55:06.001Z</time></trkpt><trkpt lat="45.580706573157954" lon="11.062138682357636"><ele>683.0</ele><time>2026-04-15T11:55:07.001Z</time></trkpt><trkpt lat="45.58061779975789" lon="11.062082454783164"><ele>682.0</ele><time>2026-04-15T11:55:08.001Z</time></trkpt><trkpt lat="45.580524060970035" lon="11.062025723821128"><ele>682.0</ele><time>2026-04-15T11:55:09.001Z</time></trkpt><trkpt lat="45.580439509594456" lon="11.061949197475382"><ele>682.0</ele><time>2026-04-15T11:55:10.001Z</time></trkpt><trkpt lat="45.580353176656125" lon="11.061874588123134"><ele>682.0</ele><time>2026-04-15T11:55:11.001Z</time></trkpt><trkpt lat="45.580297481396315" lon="11.061807180666962"><ele>682.0</ele><time>2026-04-15T11:55:16.001Z</time></trkpt><trkpt lat="45.58019818472996" lon="11.061805614448268"><ele>682.0</ele><time>2026-04-15T11:55:19.001Z</time></trkpt><trkpt lat="45.58008996381414" lon="11.061792122952722"><ele>686.6</ele><time>2026-04-15T11:55:21.001Z</time></trkpt><trkpt lat="45.579969928573696" lon="11.061784527165516"><ele>691.2</ele><time>2026-04-15T11:55:23.001Z</time></trkpt><trkpt lat="45.57989525959998" lon="11.061773119904514"><ele>695.8</ele><time>2026-04-15T11:55:24.001Z</time></trkpt><trkpt lat="45.57981540880715" lon="11.06174760150209"><ele>700.4</ele><time>2026-04-15T11:55:25.001Z</time></trkpt><trkpt lat="45.57970885380796" lon="11.061741429009816"><ele>705.0</ele><time>2026-04-15T11:55:27.001Z</time></trkpt><trkpt lat="45.57964100947056" lon="11.0617175406828"><ele>705.0</ele><time>2026-04-15T11:55:28.001Z</time></trkpt><trkpt lat="45.57956427345068" lon="11.06168906399647"><ele>705.0</ele><time>2026-04-15T11:55:29.001Z</time></trkpt><trkpt lat="45.57949895837863" lon="11.06162978206712"><ele>705.0</ele><time>2026-04-15T11:55:30.001Z</time></trkpt><trkpt lat="45.579369621268675" lon="11.061625291002695"><ele>705.0</ele><time>2026-04-15T11:55:32.001Z</time></trkpt><trkpt lat="45.57927639632244" lon="11.061687100178013"><ele>705.0</ele><time>2026-04-15T11:55:34.001Z</time></trkpt><trkpt lat="45.57919948715997" lon="11.061653649385118"><ele>703.2</ele><time>2026-04-15T11:55:37.002Z</time></trkpt><trkpt lat="45.579132695662594" lon="11.061505627508813"><ele>701.4</ele><time>2026-04-15T11:55:39.002Z</time></trkpt><trkpt lat="45.57903676260242" lon="11.061397922770043"><ele>699.5999999999999</ele><time>2026-04-15T11:55:41.002Z</time></trkpt><trkpt lat="45.57897024081157" lon="11.06137424703417"><ele>697.8</ele><time>2026-04-15T11:55:42.002Z</time></trkpt><trkpt lat="45.578879282312776" lon="11.06138636580352"><ele>696.0</ele><time>2026-04-15T11:55:44.002Z</time></trkpt><trkpt lat="45.57878999338376" lon="11.06138039742607"><ele>696.0</ele><time>2026-04-15T11:55:45.002Z</time></trkpt><trkpt lat="45.578712516523574" lon="11.061372104454302"><ele>696.0</ele><time>2026-04-15T11:55:46.002Z</time></trkpt><trkpt lat="45.578647163115846" lon="11.06137707477477"><ele>696.0</ele><time>2026-04-15T11:55:47.002Z</time></trkpt><trkpt lat="45.57854532897603" lon="11.06140031051025"><ele>696.0</ele><time>2026-04-15T11:55:49.002Z</time></trkpt><trkpt lat="45.578486594872636" lon="11.061480857621047"><ele>696.0</ele><time>2026-04-15T11:55:51.002Z</time></trkpt><trkpt lat="45.57840170127429" lon="11.061613409537195"><ele>699.5999999999999</ele><time>2026-04-15T11:55:53.002Z</time></trkpt><trkpt lat="45.578308510241236" lon="11.061683609985534"><ele>703.2</ele><time>2026-04-15T11:55:55.002Z</time></trkpt><trkpt lat="45.57822843810752" lon="11.061791233266252"><ele>706.8</ele><time>2026-04-15T11:55:57.001Z</time></trkpt><trkpt lat="45.57818352828346" lon="11.06186450154942"><ele>710.4000000000001</ele><time>2026-04-15T11:55:58Z</time></trkpt><trkpt lat="45.57814584276625" lon="11.061938110411957"><ele>714.0</ele><time>2026-04-15T11:55:59.001Z</time></trkpt><trkpt lat="45.578035891073455" lon="11.062024943929476"><ele>714.0</ele><time>2026-04-15T11:56:01Z</time></trkpt><trkpt lat="45.57797209981002" lon="11.062004307990039"><ele>714.0</ele><time>2026-04-15T11:56:02Z</time></trkpt><trkpt lat="45.57790253843085" lon="11.06198692334345"><ele>714.0</ele><time>2026-04-15T11:56:03Z</time></trkpt><trkpt lat="45.57781721208316" lon="11.0619868907611"><ele>714.0</ele><time>2026-04-15T11:56:04Z</time></trkpt><trkpt lat="45.577699934042634" lon="11.061976368604995"><ele>714.0</ele><time>2026-04-15T11:56:06Z</time></trkpt><trkpt lat="45.57758539174469" lon="11.0619058909887"><ele>714.6</ele><time>2026-04-15T11:56:08Z</time></trkpt><trkpt lat="45.57752637980805" lon="11.061781799258327"><ele>715.2</ele><time>2026-04-15T11:56:10Z</time></trkpt><trkpt lat="45.577458884054" lon="11.061723955448352"><ele>715.8000000000001</ele><time>2026-04-15T11:56:11Z</time></trkpt><trkpt lat="45.577367332334994" lon="11.06161991900572"><ele>716.4000000000001</ele><time>2026-04-15T11:56:13Z</time></trkpt><trkpt lat="45.57730793245953" lon="11.061554104017889"><ele>717.0</ele><time>2026-04-15T11:56:14Z</time></trkpt><trkpt lat="45.57725613503059" lon="11.061478346027503"><ele>713.8333333333334</ele><time>2026-04-15T11:56:15Z</time></trkpt><trkpt lat="45.57720214071402" lon="11.06140489130846"><ele>710.6666666666666</ele><time>2026-04-15T11:56:16Z</time></trkpt><trkpt lat="45.57707590967714" lon="11.061351676218628"><ele>707.5</ele><time>2026-04-15T11:56:18Z</time></trkpt><trkpt lat="45.576981767223955" lon="11.06131910847807"><ele>704.3333333333333</ele><time>2026-04-15T11:56:19Z</time></trkpt><trkpt lat="45.576909587311015" lon="11.061279190801587"><ele>701.1666666666666</ele><time>2026-04-15T11:56:20Z</time></trkpt><trkpt lat="45.57684290935021" lon="11.061275559570936"><ele>698.0</ele><time>2026-04-15T11:56:21Z</time></trkpt><trkpt lat="45.57677298508434" lon="11.061291217986513"><ele>698.0</ele><time>2026-04-15T11:56:22Z</time></trkpt><trkpt lat="45.57671670262896" lon="11.06133365772637"><ele>698.0</ele><time>2026-04-15T11:56:23Z</time></trkpt><trkpt lat="45.57662559709838" lon="11.06134927218005"><ele>698.0</ele><time>2026-04-15T11:56:24Z</time></trkpt><trkpt lat="45.57656320859492" lon="11.061383477097195"><ele>698.0</ele><time>2026-04-15T11:56:25Z</time></trkpt><trkpt lat="45.576450960262505" lon="11.061450652942044"><ele>698.0</ele><time>2026-04-15T11:56:27Z</time></trkpt><trkpt lat="45.57635789618509" lon="11.061568506968602"><ele>699.0</ele><time>2026-04-15T11:56:29Z</time></trkpt><trkpt lat="45.5763051935398" lon="11.061633614960586"><ele>700.0</ele><time>2026-04-15T11:56:30Z</time></trkpt><trkpt lat="45.576207210962664" lon="11.061717996890577"><ele>701.0</ele><time>2026-04-15T11:56:32.001Z</time></trkpt><trkpt lat="45.5761313857127" lon="11.061778353866707"><ele>702.0</ele><time>2026-04-15T11:56:33.001Z</time></trkpt><trkpt lat="45.576083275954744" lon="11.06185409292833"><ele>703.0</ele><time>2026-04-15T11:56:34.001Z</time></trkpt><trkpt lat="45.57602666468525" lon="11.061958498046472"><ele>704.0</ele><time>2026-04-15T11:56:35.001Z</time></trkpt><trkpt lat="45.57596269305145" lon="11.062032472577618"><ele>704.0</ele><time>2026-04-15T11:56:36.001Z</time></trkpt><trkpt lat="45.57592217051938" lon="11.062120466636985"><ele>704.0</ele><time>2026-04-15T11:56:37.001Z</time></trkpt><trkpt lat="45.57589958523789" lon="11.062296518852193"><ele>704.0</ele><time>2026-04-15T11:56:39.001Z</time></trkpt><trkpt lat="45.57588998102953" lon="11.06241055540544"><ele>704.0</ele><time>2026-04-15T11:56:40.001Z</time></trkpt><trkpt lat="45.57590540479633" lon="11.062526649197142"><ele>704.0</ele><time>2026-04-15T11:56:41.001Z</time></trkpt><trkpt lat="45.57591400025346" lon="11.062644843008405"><ele>704.0</ele><time>2026-04-15T11:56:42.001Z</time></trkpt><trkpt lat="45.57591487403812" lon="11.062804925194433"><ele>705.3333333333333</ele><time>2026-04-15T11:56:43.001Z</time></trkpt><trkpt lat="45.57592401131047" lon="11.06293159726151"><ele>706.6666666666666</ele><time>2026-04-15T11:56:44.001Z</time></trkpt><trkpt lat="45.57594018543961" lon="11.063044279447384"><ele>708.0</ele><time>2026-04-15T11:56:45.001Z</time></trkpt><trkpt lat="45.575957700658776" lon="11.063155910965408"><ele>709.3333333333334</ele><time>2026-04-15T11:56:46.001Z</time></trkpt><trkpt lat="45.57596143141412" lon="11.063290691887527"><ele>710.6666666666667</ele><time>2026-04-15T11:56:47.001Z</time></trkpt><trkpt lat="45.57598087195003" lon="11.063414078059658"><ele>712.0</ele><time>2026-04-15T11:56:48.001Z</time></trkpt><trkpt lat="45.57601292814267" lon="11.063553266487867"><ele>712.6666666666667</ele><time>2026-04-15T11:56:49.001Z</time></trkpt><trkpt lat="45.57602595778192" lon="11.063653790406816"><ele>713.3333333333334</ele><time>2026-04-15T11:56:50.001Z</time></trkpt><trkpt lat="45.5760570711722" lon="11.063732046723542"><ele>714.0</ele><time>2026-04-15T11:56:51.001Z</time></trkpt><trkpt lat="45.576093132294474" lon="11.063846065479476"><ele>714.6666666666666</ele><time>2026-04-15T11:56:53.001Z</time></trkpt><trkpt lat="45.57609614679493" lon="11.063959811256007"><ele>715.3333333333333</ele><time>2026-04-15T11:56:55.001Z</time></trkpt><trkpt lat="45.57611942421178" lon="11.064098055073922"><ele>716.0</ele><time>2026-04-15T11:56:57.001Z</time></trkpt><trkpt lat="45.57617311920957" lon="11.064193249644086"><ele>719.8333333333333</ele><time>2026-04-15T11:56:59.001Z</time></trkpt><trkpt lat="45.57621430830797" lon="11.064288408882978"><ele>723.6666666666666</ele><time>2026-04-15T11:57:01.001Z</time></trkpt><trkpt lat="45.57625538314274" lon="11.064389800130286"><ele>727.5</ele><time>2026-04-15T11:57:03.001Z</time></trkpt><trkpt lat="45.57631900224964" lon="11.064471069833942"><ele>731.3333333333334</ele><time>2026-04-15T11:57:05.001Z</time></trkpt><trkpt lat="45.576349231660316" lon="11.06457079110797"><ele>735.1666666666667</ele><time>2026-04-15T11:57:07.001Z</time></trkpt><trkpt lat="45.57629889072808" lon="11.064680943316995"><ele>739.0</ele><time>2026-04-15T11:57:09.001Z</time></trkpt><trkpt lat="45.57621892657594" lon="11.06472657398213"><ele>735.6666666666667</ele><time>2026-04-15T11:57:11.001Z</time></trkpt><trkpt lat="45.57613231966844" lon="11.064706154280803"><ele>732.3333333333334</ele><time>2026-04-15T11:57:13.001Z</time></trkpt><trkpt lat="45.57606499998991" lon="11.0647328739854"><ele>729.0</ele><time>2026-04-15T11:57:15.001Z</time></trkpt><trkpt lat="45.5759850626411" lon="11.064794828840231"><ele>725.6666666666666</ele><time>2026-04-15T11:57:17.001Z</time></trkpt><trkpt lat="45.5759168461107" lon="11.064844578270717"><ele>722.3333333333333</ele><time>2026-04-15T11:57:19.001Z</time></trkpt><trkpt lat="45.57581362434468" lon="11.064841831022372"><ele>719.0</ele><time>2026-04-15T11:57:21.001Z</time></trkpt><trkpt lat="45.57571652107122" lon="11.064884777359476"><ele>718.9999999999999</ele><time>2026-04-15T11:57:23.001Z</time></trkpt><trkpt lat="45.575661560353495" lon="11.064931120943298"><ele>719.0</ele><time>2026-04-15T11:57:24.001Z</time></trkpt><trkpt lat="45.5756048830108" lon="11.064976176380187"><ele>719.0</ele><time>2026-04-15T11:57:25.001Z</time></trkpt><trkpt lat="45.575558681341256" lon="11.065043629329343"><ele>719.0</ele><time>2026-04-15T11:57:26.001Z</time></trkpt><trkpt lat="45.57550732033938" lon="11.065122781150345"><ele>719.0</ele><time>2026-04-15T11:57:27.001Z</time></trkpt><trkpt lat="45.57542278863431" lon="11.06520042947567"><ele>718.9999999999999</ele><time>2026-04-15T11:57:29.001Z</time></trkpt><trkpt lat="45.57538205877222" lon="11.065283235026158"><ele>719.0</ele><time>2026-04-15T11:57:30.001Z</time></trkpt><trkpt lat="45.57531184309114" lon="11.065437859966679"><ele>719.5</ele><time>2026-04-15T11:57:32.001Z</time></trkpt><trkpt lat="45.57528084073165" lon="11.065538862863445"><ele>720.0</ele><time>2026-04-15T11:57:33.001Z</time></trkpt><trkpt lat="45.57519620347336" lon="11.065618831854861"><ele>720.5</ele><time>2026-04-15T11:57:35.001Z</time></trkpt><trkpt lat="45.575131825775664" lon="11.06560697479949"><ele>721.0</ele><time>2026-04-15T11:57:36.001Z</time></trkpt><trkpt lat="45.575053017389166" lon="11.065581090171927"><ele>721.5</ele><time>2026-04-15T11:57:37.001Z</time></trkpt><trkpt lat="45.574989457346014" lon="11.065573913361295"><ele>722.0</ele><time>2026-04-15T11:57:38.001Z</time></trkpt><trkpt lat="45.574906074661975" lon="11.065550019955174"><ele>722.0</ele><time>2026-04-15T11:57:39.001Z</time></trkpt><trkpt lat="45.574815831116474" lon="11.065528860554494"><ele>722.0</ele><time>2026-04-15T11:57:40.001Z</time></trkpt><trkpt lat="45.57471720925158" lon="11.06548390831613"><ele>722.0</ele><time>2026-04-15T11:57:42.001Z</time></trkpt><trkpt lat="45.574654567908276" lon="11.065512151929761"><ele>722.0</ele><time>2026-04-15T11:57:43.001Z</time></trkpt><trkpt lat="45.574590392616436" lon="11.06554894744723"><ele>722.0</ele><time>2026-04-15T11:57:44.001Z</time></trkpt><trkpt lat="45.57452236652364" lon="11.065579481778897"><ele>722.0</ele><time>2026-04-15T11:57:45.001Z</time></trkpt><trkpt lat="45.57445839414911" lon="11.065569128996993"><ele>725.3333333333333</ele><time>2026-04-15T11:57:46.001Z</time></trkpt><trkpt lat="45.57438947572075" lon="11.065544260537823"><ele>728.6666666666666</ele><time>2026-04-15T11:57:47.002Z</time></trkpt><trkpt lat="45.57431405372625" lon="11.065443030694366"><ele>732.0</ele><time>2026-04-15T11:57:49.002Z</time></trkpt><trkpt lat="45.57429013998804" lon="11.065338875913964"><ele>735.3333333333334</ele><time>2026-04-15T11:57:51.002Z</time></trkpt><trkpt lat="45.574206947147964" lon="11.065336415530787"><ele>738.6666666666667</ele><time>2026-04-15T11:57:54.002Z</time></trkpt><trkpt lat="45.57413723521336" lon="11.065351919248041"><ele>742.0</ele><time>2026-04-15T11:57:56.002Z</time></trkpt><trkpt lat="45.57402328140853" lon="11.065333357410807"><ele>742.0</ele><time>2026-04-15T11:57:58.002Z</time></trkpt><trkpt lat="45.5739636045985" lon="11.065473461432683"><ele>742.0</ele><time>2026-04-15T11:58:00.002Z</time></trkpt><trkpt lat="45.573948443760884" lon="11.065561666087069"><ele>742.0</ele><time>2026-04-15T11:58:01.002Z</time></trkpt><trkpt lat="45.57393665296172" lon="11.065682861108376"><ele>742.0</ele><time>2026-04-15T11:58:02.002Z</time></trkpt><trkpt lat="45.57391903349924" lon="11.065830679678273"><ele>742.0</ele><time>2026-04-15T11:58:03Z</time></trkpt><trkpt lat="45.573914335776415" lon="11.065941723710493"><ele>742.0</ele><time>2026-04-15T11:58:04Z</time></trkpt><trkpt lat="45.57391034401271" lon="11.066077890117842"><ele>742.1666666666667</ele><time>2026-04-15T11:58:05Z</time></trkpt><trkpt lat="45.57390276945885" lon="11.066169667810803"><ele>742.3333333333334</ele><time>2026-04-15T11:58:06Z</time></trkpt><trkpt lat="45.57387355702779" lon="11.0662702895689"><ele>742.5</ele><time>2026-04-15T12:01:46.001Z</time></trkpt><trkpt lat="45.57384658783152" lon="11.06646429119178"><ele>742.6666666666666</ele><time>2026-04-15T12:01:48.001Z</time></trkpt><trkpt lat="45.57382239502207" lon="11.066585143900683"><ele>742.8333333333333</ele><time>2026-04-15T12:01:49.001Z</time></trkpt><trkpt lat="45.573796883222634" lon="11.066695704966545"><ele>743.0</ele><time>2026-04-15T12:01:50.001Z</time></trkpt><trkpt lat="45.57377350497159" lon="11.06682217363229"><ele>742.8</ele><time>2026-04-15T12:01:51.001Z</time></trkpt><trkpt lat="45.57376173640848" lon="11.066946969459101"><ele>742.5999999999999</ele><time>2026-04-15T12:01:52.001Z</time></trkpt><trkpt lat="45.57375744756832" lon="11.06707868298671"><ele>742.4000000000001</ele><time>2026-04-15T12:01:53.001Z</time></trkpt><trkpt lat="45.5737544568235" lon="11.067218542007803"><ele>742.2</ele><time>2026-04-15T12:01:54.001Z</time></trkpt><trkpt lat="45.57375439790429" lon="11.067349855881767"><ele>742.0</ele><time>2026-04-15T12:01:55.001Z</time></trkpt><trkpt lat="45.573755701605315" lon="11.067477737725863"><ele>742.0</ele><time>2026-04-15T12:01:56.001Z</time></trkpt><trkpt lat="45.573765067773245" lon="11.06759447162596"><ele>742.0</ele><time>2026-04-15T12:01:57.001Z</time></trkpt><trkpt lat="45.57379372748084" lon="11.067736696398605"><ele>742.0</ele><time>2026-04-15T12:01:58.002Z</time></trkpt><trkpt lat="45.57383371166868" lon="11.067873683369433"><ele>742.0</ele><time>2026-04-15T12:01:59.002Z</time></trkpt><trkpt lat="45.57387007412014" lon="11.068012722626825"><ele>742.0</ele><time>2026-04-15T12:02:00.002Z</time></trkpt><trkpt lat="45.57389842777226" lon="11.0681508563548"><ele>740.6</ele><time>2026-04-15T12:02:01.002Z</time></trkpt><trkpt lat="45.573925705112075" lon="11.068291102744286"><ele>739.2</ele><time>2026-04-15T12:02:02.002Z</time></trkpt><trkpt lat="45.57394652261058" lon="11.068439753787654"><ele>737.8</ele><time>2026-04-15T12:02:03.002Z</time></trkpt><trkpt lat="45.57397065891194" lon="11.068575741464974"><ele>736.4</ele><time>2026-04-15T12:02:04.002Z</time></trkpt><trkpt lat="45.574000446061994" lon="11.0686944988742"><ele>735.0</ele><time>2026-04-15T12:02:05.002Z</time></trkpt><trkpt lat="45.57402546699505" lon="11.068804223934409"><ele>735.0</ele><time>2026-04-15T12:02:06.002Z</time></trkpt><trkpt lat="45.57405394670432" lon="11.068895217666052"><ele>735.0</ele><time>2026-04-15T12:02:07.002Z</time></trkpt><trkpt lat="45.57410041224772" lon="11.068988959971565"><ele>735.0</ele><time>2026-04-15T12:02:08.002Z</time></trkpt><trkpt lat="45.57417035149201" lon="11.069068621876003"><ele>735.0</ele><time>2026-04-15T12:02:09.002Z</time></trkpt><trkpt lat="45.57422508158202" lon="11.069131791083127"><ele>735.0</ele><time>2026-04-15T12:02:10.002Z</time></trkpt><trkpt lat="45.57425494409972" lon="11.06927555124725"><ele>735.0</ele><time>2026-04-15T12:02:12.002Z</time></trkpt><trkpt lat="45.57421904816502" lon="11.069368862572727"><ele>733.6666666666666</ele><time>2026-04-15T12:02:13.002Z</time></trkpt><trkpt lat="45.5741683856838" lon="11.069469643922561"><ele>732.3333333333334</ele><time>2026-04-15T12:02:14.002Z</time></trkpt><trkpt lat="45.57412267154344" lon="11.069561650813048"><ele>731.0</ele><time>2026-04-15T12:02:15.001Z</time></trkpt><trkpt lat="45.57412285675259" lon="11.069718409982654"><ele>729.6666666666667</ele><time>2026-04-15T12:02:17.001Z</time></trkpt><trkpt lat="45.574165500648945" lon="11.069815532713276"><ele>728.3333333333334</ele><time>2026-04-15T12:02:18.001Z</time></trkpt><trkpt lat="45.574204955962294" lon="11.069924783523266"><ele>727.0</ele><time>2026-04-15T12:02:19.001Z</time></trkpt><trkpt lat="45.57423320314529" lon="11.070054283361575"><ele>726.75</ele><time>2026-04-15T12:02:20.001Z</time></trkpt><trkpt lat="45.5742047651487" lon="11.070169150953564"><ele>726.5</ele><time>2026-04-15T12:02:21.001Z</time></trkpt><trkpt lat="45.574163573648846" lon="11.07028854394245"><ele>726.25</ele><time>2026-04-15T12:02:23.001Z</time></trkpt><trkpt lat="45.57398400610307" lon="11.070254251092996"><ele>726.0</ele><time>2026-04-15T12:02:25.001Z</time></trkpt><trkpt lat="45.573869556540345" lon="11.070278307454464"><ele>726.0</ele><time>2026-04-15T12:02:26.001Z</time></trkpt><trkpt lat="45.57375453789483" lon="11.070326248645513"><ele>726.0</ele><time>2026-04-15T12:02:27.001Z</time></trkpt><trkpt lat="45.57366532898058" lon="11.070416000587024"><ele>726.0</ele><time>2026-04-15T12:02:28.001Z</time></trkpt><trkpt lat="45.57360348110796" lon="11.070540483081864"><ele>726.0</ele><time>2026-04-15T12:02:29.001Z</time></trkpt><trkpt lat="45.57354375571091" lon="11.07068499704827"><ele>728.0</ele><time>2026-04-15T12:02:30.001Z</time></trkpt><trkpt lat="45.57347867579515" lon="11.070800926327983"><ele>730.0</ele><time>2026-04-15T12:02:31.001Z</time></trkpt><trkpt lat="45.57340500048754" lon="11.070890918246768"><ele>732.0</ele><time>2026-04-15T12:02:32.001Z</time></trkpt><trkpt lat="45.5732903829787" lon="11.070885197982253"><ele>734.0</ele><time>2026-04-15T12:02:33.001Z</time></trkpt><trkpt lat="45.57317846115654" lon="11.070897929147051"><ele>736.0</ele><time>2026-04-15T12:02:34.001Z</time></trkpt><trkpt lat="45.57305746904996" lon="11.070908012441137"><ele>736.0</ele><time>2026-04-15T12:02:35.001Z</time></trkpt><trkpt lat="45.57292731063347" lon="11.07093512897814"><ele>736.0</ele><time>2026-04-15T12:02:36.001Z</time></trkpt><trkpt lat="45.572784724946466" lon="11.070931804164374"><ele>736.0</ele><time>2026-04-15T12:02:37.001Z</time></trkpt><trkpt lat="45.57264035119061" lon="11.07091642053484"><ele>736.0</ele><time>2026-04-15T12:02:38.001Z</time></trkpt><trkpt lat="45.57248644774844" lon="11.070871742560824"><ele>736.75</ele><time>2026-04-15T12:02:39.001Z</time></trkpt><trkpt lat="45.57235656880689" lon="11.070834928792467"><ele>737.5</ele><time>2026-04-15T12:02:40.001Z</time></trkpt><trkpt lat="45.57224577887462" lon="11.070817814036966"><ele>738.25</ele><time>2026-04-15T12:02:41.001Z</time></trkpt><trkpt lat="45.57214268158996" lon="11.070823022887046"><ele>739.0</ele><time>2026-04-15T12:02:42.001Z</time></trkpt><trkpt lat="45.57202616935895" lon="11.070821984283642"><ele>738.75</ele><time>2026-04-15T12:02:43.001Z</time></trkpt><trkpt lat="45.57191616970493" lon="11.070855570029119"><ele>738.5</ele><time>2026-04-15T12:02:44.001Z</time></trkpt><trkpt lat="45.57181729672499" lon="11.070903710215603"><ele>738.25</ele><time>2026-04-15T12:02:45.001Z</time></trkpt><trkpt lat="45.571716486791956" lon="11.070973287081666"><ele>738.0</ele><time>2026-04-15T12:02:46.001Z</time></trkpt><trkpt lat="45.57160800016541" lon="11.071085554302105"><ele>738.0</ele><time>2026-04-15T12:02:47.001Z</time></trkpt><trkpt lat="45.571498784215315" lon="11.071188940790305"><ele>738.0</ele><time>2026-04-15T12:02:48.001Z</time></trkpt><trkpt lat="45.57138942277542" lon="11.071265467479513"><ele>738.0</ele><time>2026-04-15T12:02:49.001Z</time></trkpt><trkpt lat="45.5713001643161" lon="11.071370569779466"><ele>738.0</ele><time>2026-04-15T12:02:50.001Z</time></trkpt><trkpt lat="45.57121804791577" lon="11.071482213906044"><ele>737.4</ele><time>2026-04-15T12:02:51.001Z</time></trkpt><trkpt lat="45.5711614850571" lon="11.07160245387869"><ele>736.8</ele><time>2026-04-15T12:02:52.001Z</time></trkpt><trkpt lat="45.57109311712683" lon="11.071684032012598"><ele>736.2</ele><time>2026-04-15T12:02:53.001Z</time></trkpt><trkpt lat="45.571013512348316" lon="11.071753001023652"><ele>735.6</ele><time>2026-04-15T12:02:54.001Z</time></trkpt><trkpt lat="45.57090791800029" lon="11.071772054752923"><ele>735.0</ele><time>2026-04-15T12:02:55.001Z</time></trkpt><trkpt lat="45.570787003569436" lon="11.071832087172897"><ele>735.0</ele><time>2026-04-15T12:02:56.001Z</time></trkpt><trkpt lat="45.570646261149676" lon="11.071885681663176"><ele>735.0</ele><time>2026-04-15T12:02:57.001Z</time></trkpt><trkpt lat="45.57050541216241" lon="11.0719319065726"><ele>735.0</ele><time>2026-04-15T12:02:58.001Z</time></trkpt><trkpt lat="45.57036728572338" lon="11.071954266009604"><ele>735.0</ele><time>2026-04-15T12:02:59.001Z</time></trkpt><trkpt lat="45.57023265176382" lon="11.071980199805994"><ele>732.25</ele><time>2026-04-15T12:03:00.001Z</time></trkpt><trkpt lat="45.57009655732661" lon="11.072005919618894"><ele>729.5</ele><time>2026-04-15T12:03:01.001Z</time></trkpt><trkpt lat="45.56995597495421" lon="11.072047841034278"><ele>726.75</ele><time>2026-04-15T12:03:02.001Z</time></trkpt><trkpt lat="45.569830554576725" lon="11.072108606364361"><ele>724.0</ele><time>2026-04-15T12:03:03.001Z</time></trkpt><trkpt lat="45.569719596155615" lon="11.07216885296244"><ele>724.0</ele><time>2026-04-15T12:03:04.001Z</time></trkpt><trkpt lat="45.56963418764184" lon="11.072236402046354"><ele>724.0</ele><time>2026-04-15T12:03:05.001Z</time></trkpt><trkpt lat="45.56956034472921" lon="11.07232320224582"><ele>724.0</ele><time>2026-04-15T12:03:06.001Z</time></trkpt><trkpt lat="45.569474024618415" lon="11.072357274935028"><ele>724.0</ele><time>2026-04-15T12:03:07.001Z</time></trkpt><trkpt lat="45.569370444404505" lon="11.072365316007577"><ele>724.0</ele><time>2026-04-15T12:03:08.001Z</time></trkpt><trkpt lat="45.5692643230246" lon="11.072414907390614"><ele>725.75</ele><time>2026-04-15T12:03:09.001Z</time></trkpt><trkpt lat="45.56914008011657" lon="11.07246263381539"><ele>727.5</ele><time>2026-04-15T12:03:10.001Z</time></trkpt><trkpt lat="45.56900300517378" lon="11.072507336309421"><ele>729.25</ele><time>2026-04-15T12:03:11.001Z</time></trkpt><trkpt lat="45.568837952876535" lon="11.072565804032212"><ele>731.0</ele><time>2026-04-15T12:03:12.001Z</time></trkpt><trkpt lat="45.56867978976775" lon="11.072577921492657"><ele>731.0</ele><time>2026-04-15T12:03:13.001Z</time></trkpt><trkpt lat="45.56853938608786" lon="11.072601684519062"><ele>731.0</ele><time>2026-04-15T12:03:14.001Z</time></trkpt><trkpt lat="45.568405843094055" lon="11.07262171248161"><ele>731.0</ele><time>2026-04-15T12:03:15.001Z</time></trkpt><trkpt lat="45.56828649374785" lon="11.07265779074436"><ele>731.0</ele><time>2026-04-15T12:03:16.001Z</time></trkpt><trkpt lat="45.5681855546994" lon="11.072662646577236"><ele>731.0</ele><time>2026-04-15T12:03:17.001Z</time></trkpt><trkpt lat="45.56808564263433" lon="11.072658617905772"><ele>731.0</ele><time>2026-04-15T12:03:18.001Z</time></trkpt><trkpt lat="45.56798053738362" lon="11.072705523360014"><ele>731.0</ele><time>2026-04-15T12:03:19.001Z</time></trkpt><trkpt lat="45.56786877843403" lon="11.072790507829414"><ele>731.0</ele><time>2026-04-15T12:03:20.001Z</time></trkpt><trkpt lat="45.56777688816968" lon="11.072848969138455"><ele>731.0</ele><time>2026-04-15T12:03:21.001Z</time></trkpt><trkpt lat="45.56769599927918" lon="11.072903387614732"><ele>730.1999999999999</ele><time>2026-04-15T12:03:22.001Z</time></trkpt><trkpt lat="45.5676355860347" lon="11.073003503768323"><ele>729.4</ele><time>2026-04-15T12:03:23.001Z</time></trkpt><trkpt lat="45.56762405780519" lon="11.073146395116261"><ele>728.6</ele><time>2026-04-15T12:03:24.001Z</time></trkpt><trkpt lat="45.567629017919025" lon="11.07328263007516"><ele>727.8</ele><time>2026-04-15T12:03:25.001Z</time></trkpt><trkpt lat="45.56764398635956" lon="11.073450088479518"><ele>727.0</ele><time>2026-04-15T12:03:26.001Z</time></trkpt><trkpt lat="45.567673050897525" lon="11.073634227942545"><ele>727.0</ele><time>2026-04-15T12:03:27.001Z</time></trkpt><trkpt lat="45.56771725998559" lon="11.073825164142384"><ele>727.0</ele><time>2026-04-15T12:03:28.001Z</time></trkpt><trkpt lat="45.56777057591704" lon="11.074003544233891"><ele>727.0</ele><time>2026-04-15T12:03:29.001Z</time></trkpt><trkpt lat="45.56782729832226" lon="11.074166251258305"><ele>727.0</ele><time>2026-04-15T12:03:30.001Z</time></trkpt><trkpt lat="45.56789258541212" lon="11.07431293721566"><ele>730.75</ele><time>2026-04-15T12:03:31.001Z</time></trkpt><trkpt lat="45.56795768529368" lon="11.074459667560378"><ele>734.5</ele><time>2026-04-15T12:03:32.001Z</time></trkpt><trkpt lat="45.568024423831446" lon="11.074591940641863"><ele>738.25</ele><time>2026-04-15T12:03:33.001Z</time></trkpt><trkpt lat="45.56808929125083" lon="11.074723336182366"><ele>742.0</ele><time>2026-04-15T12:03:34.001Z</time></trkpt><trkpt lat="45.56815154603667" lon="11.07485396435539"><ele>739.8</ele><time>2026-04-15T12:03:35.001Z</time></trkpt><trkpt lat="45.568215086244024" lon="11.074985370272989"><ele>737.6</ele><time>2026-04-15T12:03:36.001Z</time></trkpt><trkpt lat="45.56827582645476" lon="11.075110781570643"><ele>735.4</ele><time>2026-04-15T12:03:37.001Z</time></trkpt><trkpt lat="45.568318750781486" lon="11.075234462516379"><ele>733.1999999999999</ele><time>2026-04-15T12:03:38.001Z</time></trkpt><trkpt lat="45.56833399394663" lon="11.075361454281937"><ele>731.0</ele><time>2026-04-15T12:03:39.001Z</time></trkpt><trkpt lat="45.568300574922446" lon="11.075477091587224"><ele>731.0</ele><time>2026-04-15T12:03:40.001Z</time></trkpt><trkpt lat="45.568268927571395" lon="11.07559913787448"><ele>731.0</ele><time>2026-04-15T12:03:41.001Z</time></trkpt><trkpt lat="45.56821041707602" lon="11.075694216398336"><ele>731.0</ele><time>2026-04-15T12:03:42.001Z</time></trkpt><trkpt lat="45.568148090730766" lon="11.075770115697916"><ele>731.0</ele><time>2026-04-15T12:03:43.001Z</time></trkpt><trkpt lat="45.568044744476715" lon="11.075751609182166"><ele>731.0</ele><time>2026-04-15T12:03:44.001Z</time></trkpt><trkpt lat="45.56793861000123" lon="11.075774238420166"><ele>728.4</ele><time>2026-04-15T12:03:45.001Z</time></trkpt><trkpt lat="45.567822396393844" lon="11.075812759232708"><ele>725.8</ele><time>2026-04-15T12:03:46.001Z</time></trkpt><trkpt lat="45.567708384243154" lon="11.075846493234186"><ele>723.1999999999999</ele><time>2026-04-15T12:03:47.001Z</time></trkpt><trkpt lat="45.5676133225793" lon="11.075858821619688"><ele>720.5999999999999</ele><time>2026-04-15T12:03:48.001Z</time></trkpt><trkpt lat="45.56753878954752" lon="11.075888219044922"><ele>718.0</ele><time>2026-04-15T12:03:49.001Z</time></trkpt><trkpt lat="45.567474124465484" lon="11.075916454991384"><ele>718.0</ele><time>2026-04-15T12:03:50.001Z</time></trkpt><trkpt lat="45.567435323498955" lon="11.076019558296222"><ele>718.0</ele><time>2026-04-15T12:03:51.001Z</time></trkpt><trkpt lat="45.56736732418377" lon="11.076083810160599"><ele>718.0</ele><time>2026-04-15T12:03:52.001Z</time></trkpt><trkpt lat="45.567309888517386" lon="11.076186639883437"><ele>718.0</ele><time>2026-04-15T12:03:53.001Z</time></trkpt><trkpt lat="45.56727065705945" lon="11.076304202881875"><ele>718.0</ele><time>2026-04-15T12:03:54.001Z</time></trkpt><trkpt lat="45.567244997996376" lon="11.076432956187295"><ele>718.0</ele><time>2026-04-15T12:03:55.001Z</time></trkpt><trkpt lat="45.56723458062632" lon="11.076554795039543"><ele>718.8</ele><time>2026-04-15T12:03:56.001Z</time></trkpt><trkpt lat="45.56726284964095" lon="11.076684187746746"><ele>719.5999999999999</ele><time>2026-04-15T12:03:57.001Z</time></trkpt><trkpt lat="45.56728177825173" lon="11.076803623503878"><ele>720.4000000000001</ele><time>2026-04-15T12:03:58.001Z</time></trkpt><trkpt lat="45.56730250212346" lon="11.07693566117758"><ele>721.2</ele><time>2026-04-15T12:03:59.001Z</time></trkpt><trkpt lat="45.567331586693605" lon="11.077086434466542"><ele>722.0</ele><time>2026-04-15T12:04:00.001Z</time></trkpt><trkpt lat="45.56736966068607" lon="11.077268418262113"><ele>720.4000000000001</ele><time>2026-04-15T12:04:01.001Z</time></trkpt><trkpt lat="45.56740058673491" lon="11.077438790832625"><ele>718.8000000000001</ele><time>2026-04-15T12:04:02.001Z</time></trkpt><trkpt lat="45.567418696794775" lon="11.077591358775893"><ele>717.2</ele><time>2026-04-15T12:04:03.001Z</time></trkpt><trkpt lat="45.56741772684898" lon="11.077737109575168"><ele>715.6</ele><time>2026-04-15T12:04:04.001Z</time></trkpt><trkpt lat="45.56738330841345" lon="11.077855737436607"><ele>714.0</ele><time>2026-04-15T12:04:05.001Z</time></trkpt><trkpt lat="45.56732947336148" lon="11.077948336155126"><ele>714.0</ele><time>2026-04-15T12:04:06.001Z</time></trkpt><trkpt lat="45.56724710797412" lon="11.078006141459763"><ele>714.0</ele><time>2026-04-15T12:04:07.001Z</time></trkpt><trkpt lat="45.567147328558065" lon="11.078093082796586"><ele>714.0</ele><time>2026-04-15T12:04:08.001Z</time></trkpt><trkpt lat="45.56702618830421" lon="11.078196868083163"><ele>714.0</ele><time>2026-04-15T12:04:09.001Z</time></trkpt><trkpt lat="45.566910561120096" lon="11.078291575495449"><ele>710.75</ele><time>2026-04-15T12:04:10.001Z</time></trkpt><trkpt lat="45.56679673529657" lon="11.078382073253254"><ele>707.5</ele><time>2026-04-15T12:04:11.001Z</time></trkpt><trkpt lat="45.56669394400031" lon="11.078485567199648"><ele>704.25</ele><time>2026-04-15T12:04:12.001Z</time></trkpt><trkpt lat="45.56661605291021" lon="11.078618863280166"><ele>701.0</ele><time>2026-04-15T12:04:13.001Z</time></trkpt><trkpt lat="45.56655441025552" lon="11.078782851035829"><ele>701.0</ele><time>2026-04-15T12:04:14.001Z</time></trkpt><trkpt lat="45.56648007825555" lon="11.078928799021758"><ele>701.0</ele><time>2026-04-15T12:04:15.001Z</time></trkpt><trkpt lat="45.56641399651596" lon="11.079057693549366"><ele>701.0</ele><time>2026-04-15T12:04:16.001Z</time></trkpt><trkpt lat="45.56635029724158" lon="11.079173910051326"><ele>701.0</ele><time>2026-04-15T12:04:17.001Z</time></trkpt><trkpt lat="45.56628692921364" lon="11.07928347468365"><ele>701.0</ele><time>2026-04-15T12:04:18.001Z</time></trkpt><trkpt lat="45.56620801296128" lon="11.079402062893367"><ele>702.0</ele><time>2026-04-15T12:04:19.001Z</time></trkpt><trkpt lat="45.56610936972421" lon="11.079529204952264"><ele>703.0</ele><time>2026-04-15T12:04:20.001Z</time></trkpt><trkpt lat="45.56599383301534" lon="11.079666349462892"><ele>704.0</ele><time>2026-04-15T12:04:20.999Z</time></trkpt><trkpt lat="45.565882494183356" lon="11.079799963877772"><ele>705.0</ele><time>2026-04-15T12:04:21.999Z</time></trkpt><trkpt lat="45.5657765191735" lon="11.0799241656817"><ele>704.0</ele><time>2026-04-15T12:04:22.999Z</time></trkpt><trkpt lat="45.56567214074402" lon="11.080033807914822"><ele>703.0</ele><time>2026-04-15T12:04:23.999Z</time></trkpt><trkpt lat="45.565564502327824" lon="11.080122650213655"><ele>702.0</ele><time>2026-04-15T12:04:24.999Z</time></trkpt><trkpt lat="45.5654541318725" lon="11.080187392679036"><ele>701.0</ele><time>2026-04-15T12:04:25.999Z</time></trkpt><trkpt lat="45.56534051606415" lon="11.080217310788656"><ele>701.0</ele><time>2026-04-15T12:04:26.999Z</time></trkpt><trkpt lat="45.565229104650065" lon="11.080217825553744"><ele>701.0</ele><time>2026-04-15T12:04:27.999Z</time></trkpt><trkpt lat="45.565096961461144" lon="11.080217651344359"><ele>701.0</ele><time>2026-04-15T12:04:28.999Z</time></trkpt><trkpt lat="45.564947660403874" lon="11.080218798254318"><ele>701.0</ele><time>2026-04-15T12:04:29.999Z</time></trkpt><trkpt lat="45.56478442975208" lon="11.080220245383767"><ele>701.0</ele><time>2026-04-15T12:04:30.999Z</time></trkpt><trkpt lat="45.56463345573373" lon="11.080221489701943"><ele>701.0</ele><time>2026-04-15T12:04:31.999Z</time></trkpt><trkpt lat="45.56448200898945" lon="11.080216867375233"><ele>701.0</ele><time>2026-04-15T12:04:32.999Z</time></trkpt><trkpt lat="45.56433961280655" lon="11.080219451172681"><ele>701.0</ele><time>2026-04-15T12:04:33.999Z</time></trkpt><trkpt lat="45.564200483484285" lon="11.080238532304751"><ele>700.5</ele><time>2026-04-15T12:04:35Z</time></trkpt><trkpt lat="45.56406842012679" lon="11.080271415603768"><ele>700.0</ele><time>2026-04-15T12:04:36Z</time></trkpt><trkpt lat="45.56394649070083" lon="11.080315315397128"><ele>699.5</ele><time>2026-04-15T12:04:37Z</time></trkpt><trkpt lat="45.56382722038478" lon="11.080362213641873"><ele>699.0</ele><time>2026-04-15T12:04:38Z</time></trkpt><trkpt lat="45.56370478655819" lon="11.080404162326708"><ele>697.6666666666666</ele><time>2026-04-15T12:04:39Z</time></trkpt><trkpt lat="45.56357499319641" lon="11.080458239630108"><ele>696.3333333333333</ele><time>2026-04-15T12:04:40Z</time></trkpt><trkpt lat="45.56342803509818" lon="11.080513663822403"><ele>695.0</ele><time>2026-04-15T12:04:41Z</time></trkpt><trkpt lat="45.563264830789464" lon="11.080582495273081"><ele>695.0</ele><time>2026-04-15T12:04:42Z</time></trkpt><trkpt lat="45.56311003901701" lon="11.080647321295746"><ele>695.0</ele><time>2026-04-15T12:04:43Z</time></trkpt><trkpt lat="45.56296968152273" lon="11.080699612040812"><ele>695.0</ele><time>2026-04-15T12:04:44Z</time></trkpt><trkpt lat="45.56283821955788" lon="11.080786202660322"><ele>691.25</ele><time>2026-04-15T12:04:45Z</time></trkpt><trkpt lat="45.562723790352514" lon="11.080880751324207"><ele>687.5</ele><time>2026-04-15T12:04:46Z</time></trkpt><trkpt lat="45.56261854003875" lon="11.08098863783731"><ele>683.75</ele><time>2026-04-15T12:04:47Z</time></trkpt><trkpt lat="45.562517065781826" lon="11.08111746229914"><ele>680.0</ele><time>2026-04-15T12:04:48Z</time></trkpt><trkpt lat="45.56240995147674" lon="11.081259300911402"><ele>680.0</ele><time>2026-04-15T12:04:49Z</time></trkpt><trkpt lat="45.562292237548334" lon="11.081401801838643"><ele>680.0</ele><time>2026-04-15T12:04:50Z</time></trkpt><trkpt lat="45.5621796251414" lon="11.081531733841956"><ele>680.0</ele><time>2026-04-15T12:04:51Z</time></trkpt><trkpt lat="45.562069677031374" lon="11.081657819662208"><ele>680.0</ele><time>2026-04-15T12:04:52Z</time></trkpt><trkpt lat="45.56196292639181" lon="11.08175823099161"><ele>679.6</ele><time>2026-04-15T12:04:53Z</time></trkpt><trkpt lat="45.561847243471234" lon="11.081813084073312"><ele>679.2</ele><time>2026-04-15T12:04:54Z</time></trkpt><trkpt lat="45.56174743436374" lon="11.081823532325217"><ele>678.8</ele><time>2026-04-15T12:04:55Z</time></trkpt><trkpt lat="45.561657443843465" lon="11.081812121565141"><ele>678.4</ele><time>2026-04-15T12:04:56Z</time></trkpt><trkpt lat="45.56158299385493" lon="11.081787718683264"><ele>678.0</ele><time>2026-04-15T12:04:57Z</time></trkpt><trkpt lat="45.56151012081762" lon="11.081737826895239"><ele>678.0</ele><time>2026-04-15T12:04:58Z</time></trkpt><trkpt lat="45.56142654779354" lon="11.081774106702202"><ele>678.0</ele><time>2026-04-15T12:05:00Z</time></trkpt><trkpt lat="45.56148553663671" lon="11.08137683854415"><ele>678.0</ele><time>2026-04-15T12:05:02Z</time></trkpt><trkpt lat="45.56145991308841" lon="11.081270558231505"><ele>676.8</ele><time>2026-04-15T12:05:03Z</time></trkpt><trkpt lat="45.56143620645985" lon="11.08115452470564"><ele>675.5999999999999</ele><time>2026-04-15T12:05:04Z</time></trkpt><trkpt lat="45.56141746577257" lon="11.081028777425939"><ele>674.4000000000001</ele><time>2026-04-15T12:05:05Z</time></trkpt><trkpt lat="45.561409320315896" lon="11.080916016308821"><ele>673.2</ele><time>2026-04-15T12:05:06Z</time></trkpt><trkpt lat="45.56139744204256" lon="11.080707583660807"><ele>672.0</ele><time>2026-04-15T12:05:08Z</time></trkpt><trkpt lat="45.56138897749198" lon="11.080613979750744"><ele>673.0</ele><time>2026-04-15T12:05:09Z</time></trkpt><trkpt lat="45.561374732726314" lon="11.080478002980346"><ele>674.0</ele><time>2026-04-15T12:05:10Z</time></trkpt><trkpt lat="45.56079459366276" lon="11.08032831426037"><ele>674.0</ele><time>2026-04-15T12:05:11Z</time></trkpt><trkpt lat="45.560713176817636" lon="11.080214119153922"><ele>674.0</ele><time>2026-04-15T12:05:12Z</time></trkpt><trkpt lat="45.560621698104434" lon="11.080106034272129"><ele>674.0</ele><time>2026-04-15T12:05:13Z</time></trkpt><trkpt lat="45.560535958408295" lon="11.079988954645751"><ele>674.0</ele><time>2026-04-15T12:05:14Z</time></trkpt><trkpt lat="45.56045112142993" lon="11.079872621823112"><ele>674.25</ele><time>2026-04-15T12:05:15Z</time></trkpt><trkpt lat="45.560360735096864" lon="11.079749172941938"><ele>674.5</ele><time>2026-04-15T12:05:16Z</time></trkpt><trkpt lat="45.560269226259344" lon="11.07963835808717"><ele>674.75</ele><time>2026-04-15T12:05:17Z</time></trkpt><trkpt lat="45.56018944580533" lon="11.079551243303424"><ele>675.0</ele><time>2026-04-15T12:05:18Z</time></trkpt><trkpt lat="45.56010103289222" lon="11.079466409879197"><ele>675.0</ele><time>2026-04-15T12:05:19Z</time></trkpt><trkpt lat="45.560011866039424" lon="11.079386045083014"><ele>675.0</ele><time>2026-04-15T12:05:20Z</time></trkpt><trkpt lat="45.55992384499437" lon="11.07932519318687"><ele>675.0</ele><time>2026-04-15T12:05:21Z</time></trkpt><trkpt lat="45.559831160272815" lon="11.079255080267258"><ele>675.0</ele><time>2026-04-15T12:05:22Z</time></trkpt><trkpt lat="45.559747157009575" lon="11.0791613408327"><ele>675.0</ele><time>2026-04-15T12:05:23Z</time></trkpt><trkpt lat="45.55967704412023" lon="11.07906400454168"><ele>674.2</ele><time>2026-04-15T12:05:24Z</time></trkpt><trkpt lat="45.55963877839399" lon="11.078962858719024"><ele>673.4</ele><time>2026-04-15T12:05:25Z</time></trkpt><trkpt lat="45.55960715293283" lon="11.07882457214792"><ele>672.5999999999999</ele><time>2026-04-15T12:05:26Z</time></trkpt><trkpt lat="45.55957057997053" lon="11.078670922987657"><ele>671.8</ele><time>2026-04-15T12:05:27Z</time></trkpt><trkpt lat="45.55953748905744" lon="11.078508874000436"><ele>671.0</ele><time>2026-04-15T12:05:28Z</time></trkpt><trkpt lat="45.559508209144155" lon="11.078361335051397"><ele>668.5999999999999</ele><time>2026-04-15T12:05:29Z</time></trkpt><trkpt lat="45.55947797428889" lon="11.078218765729943"><ele>666.2</ele><time>2026-04-15T12:05:30Z</time></trkpt><trkpt lat="45.559449716568814" lon="11.07810359022966"><ele>663.8</ele><time>2026-04-15T12:05:31Z</time></trkpt><trkpt lat="45.55942328805392" lon="11.078000543172486"><ele>661.4000000000001</ele><time>2026-04-15T12:05:32Z</time></trkpt><trkpt lat="45.55937890217457" lon="11.07789067482163"><ele>659.0</ele><time>2026-04-15T12:05:33Z</time></trkpt><trkpt lat="45.55931399267956" lon="11.07777600993812"><ele>659.0</ele><time>2026-04-15T12:05:34Z</time></trkpt><trkpt lat="45.559235963025216" lon="11.077665185566838"><ele>659.0</ele><time>2026-04-15T12:05:35Z</time></trkpt><trkpt lat="45.55917210696761" lon="11.077548825261351"><ele>659.0</ele><time>2026-04-15T12:05:36Z</time></trkpt><trkpt lat="45.55911941820966" lon="11.077408887428126"><ele>659.0</ele><time>2026-04-15T12:05:37Z</time></trkpt><trkpt lat="45.55906533849046" lon="11.077269208556753"><ele>659.0</ele><time>2026-04-15T12:05:38Z</time></trkpt><trkpt lat="45.559013827679905" lon="11.077124706940841"><ele>657.2</ele><time>2026-04-15T12:05:39Z</time></trkpt><trkpt lat="45.55894955870777" lon="11.07701690955506"><ele>655.4000000000001</ele><time>2026-04-15T12:05:40Z</time></trkpt><trkpt lat="45.55888616377356" lon="11.076921144209994"><ele>653.6</ele><time>2026-04-15T12:05:41Z</time></trkpt><trkpt lat="45.558833208101525" lon="11.0768236853122"><ele>651.8</ele><time>2026-04-15T12:05:42Z</time></trkpt><trkpt lat="45.55878088072855" lon="11.076697812633578"><ele>650.0</ele><time>2026-04-15T12:05:43Z</time></trkpt><trkpt lat="45.55875514115353" lon="11.076568662885936"><ele>649.0</ele><time>2026-04-15T12:05:44Z</time></trkpt><trkpt lat="45.558708976327964" lon="11.076442109676465"><ele>648.0</ele><time>2026-04-15T12:05:45Z</time></trkpt><trkpt lat="45.55863805558447" lon="11.076339789069237"><ele>647.0</ele><time>2026-04-15T12:05:46Z</time></trkpt><trkpt lat="45.558561150472336" lon="11.076246359525815"><ele>646.0</ele><time>2026-04-15T12:05:47Z</time></trkpt><trkpt lat="45.55848634298212" lon="11.076140634916984"><ele>645.0</ele><time>2026-04-15T12:05:48Z</time></trkpt><trkpt lat="45.55842776280843" lon="11.076044329119435"><ele>645.0</ele><time>2026-04-15T12:05:49Z</time></trkpt><trkpt lat="45.558374120581554" lon="11.07596208826686"><ele>645.0</ele><time>2026-04-15T12:05:50Z</time></trkpt><trkpt lat="45.55829261406236" lon="11.075851060881373"><ele>645.0</ele><time>2026-04-15T12:05:52Z</time></trkpt><trkpt lat="45.55819263177257" lon="11.075811248510227"><ele>645.0</ele><time>2026-04-15T12:05:54Z</time></trkpt><trkpt lat="45.55812584128347" lon="11.075738746259452"><ele>645.0</ele><time>2026-04-15T12:05:56Z</time></trkpt><trkpt lat="45.55805972478867" lon="11.075817696531173"><ele>645.0</ele><time>2026-04-15T12:05:58Z</time></trkpt><trkpt lat="45.55801237900957" lon="11.07590694355285"><ele>645.0</ele><time>2026-04-15T12:05:59Z</time></trkpt><trkpt lat="45.5579534728204" lon="11.075989743824652"><ele>645.0</ele><time>2026-04-15T12:06:00Z</time></trkpt><trkpt lat="45.55788927912713" lon="11.076059039323706"><ele>645.0</ele><time>2026-04-15T12:06:01Z</time></trkpt><trkpt lat="45.557811492171425" lon="11.076124450507887"><ele>645.0</ele><time>2026-04-15T12:06:02.001Z</time></trkpt><trkpt lat="45.55774300228135" lon="11.076164009438891"><ele>645.0</ele><time>2026-04-15T12:06:03.001Z</time></trkpt><trkpt lat="45.557638802439726" lon="11.076214561715966"><ele>642.6666666666666</ele><time>2026-04-15T12:06:04.001Z</time></trkpt><trkpt lat="45.55755529963082" lon="11.076249298804003"><ele>640.3333333333334</ele><time>2026-04-15T12:06:05.001Z</time></trkpt><trkpt lat="45.55748330098294" lon="11.076251800689755"><ele>638.0</ele><time>2026-04-15T12:06:06.001Z</time></trkpt><trkpt lat="45.557364754032896" lon="11.076266942579807"><ele>635.6666666666667</ele><time>2026-04-15T12:06:08.001Z</time></trkpt><trkpt lat="45.55730424816109" lon="11.076322037688938"><ele>633.3333333333334</ele><time>2026-04-15T12:06:09.001Z</time></trkpt><trkpt lat="45.55725039410161" lon="11.076396645441763"><ele>631.0</ele><time>2026-04-15T12:06:10.001Z</time></trkpt><trkpt lat="45.557188595742566" lon="11.07645068108165"><ele>631.0</ele><time>2026-04-15T12:06:11.001Z</time></trkpt><trkpt lat="45.557104054164576" lon="11.07648333625734"><ele>631.0</ele><time>2026-04-15T12:06:12.001Z</time></trkpt><trkpt lat="45.55703468257474" lon="11.076495817802098"><ele>631.0</ele><time>2026-04-15T12:06:13.001Z</time></trkpt><trkpt lat="45.55695473517341" lon="11.076493294098011"><ele>631.0</ele><time>2026-04-15T12:06:14.001Z</time></trkpt><trkpt lat="45.55688344195162" lon="11.076491018720459"><ele>631.0</ele><time>2026-04-15T12:06:15.001Z</time></trkpt><trkpt lat="45.5568189412647" lon="11.07651478272224"><ele>631.0</ele><time>2026-04-15T12:06:16.001Z</time></trkpt><trkpt lat="45.55672772533509" lon="11.076623895277592"><ele>628.8</ele><time>2026-04-15T12:06:18.001Z</time></trkpt><trkpt lat="45.55660363576263" lon="11.076676776394608"><ele>626.6</ele><time>2026-04-15T12:06:20.001Z</time></trkpt><trkpt lat="45.55654319899546" lon="11.076711066101788"><ele>624.4</ele><time>2026-04-15T12:06:21.001Z</time></trkpt><trkpt lat="45.55644150940501" lon="11.076739870412124"><ele>622.2</ele><time>2026-04-15T12:06:23.001Z</time></trkpt><trkpt lat="45.556362668281594" lon="11.076852904241363"><ele>620.0</ele><time>2026-04-15T12:06:25.001Z</time></trkpt><trkpt lat="45.556356686927444" lon="11.076968855583921"><ele>620.0</ele><time>2026-04-15T12:06:26.999Z</time></trkpt><trkpt lat="45.55634580824814" lon="11.07708385290048"><ele>620.0</ele><time>2026-04-15T12:06:28.999Z</time></trkpt><trkpt lat="45.55633547300731" lon="11.077202505368396"><ele>620.0</ele><time>2026-04-15T12:06:30.999Z</time></trkpt><trkpt lat="45.556317850149085" lon="11.077295333119787"><ele>620.0</ele><time>2026-04-15T12:06:31.999Z</time></trkpt><trkpt lat="45.55635993523217" lon="11.07742031115086"><ele>620.0</ele><time>2026-04-15T12:06:32.999Z</time></trkpt><trkpt lat="45.556408111107785" lon="11.077565413309847"><ele>620.0</ele><time>2026-04-15T12:06:33.999Z</time></trkpt><trkpt lat="45.55643802310875" lon="11.077712819949058"><ele>619.3333333333333</ele><time>2026-04-15T12:06:34.999Z</time></trkpt><trkpt lat="45.55641505313562" lon="11.077841191382388"><ele>618.6666666666666</ele><time>2026-04-15T12:06:35.999Z</time></trkpt><trkpt lat="45.55639079690612" lon="11.077925775709756"><ele>618.0</ele><time>2026-04-15T12:06:36.999Z</time></trkpt><trkpt lat="45.55633637826486" lon="11.077988055465527"><ele>617.3333333333334</ele><time>2026-04-15T12:06:37.999Z</time></trkpt><trkpt lat="45.55626404805399" lon="11.07801619776698"><ele>616.6666666666667</ele><time>2026-04-15T12:06:38.999Z</time></trkpt><trkpt lat="45.55616197249178" lon="11.07808648463198"><ele>616.0</ele><time>2026-04-15T12:06:39.999Z</time></trkpt><trkpt lat="45.55606866447465" lon="11.07822729847297"><ele>614.25</ele><time>2026-04-15T12:06:40.999Z</time></trkpt><trkpt lat="45.555951463282355" lon="11.078369670425646"><ele>612.5</ele><time>2026-04-15T12:06:41.999Z</time></trkpt><trkpt lat="45.555836221467665" lon="11.078520632162293"><ele>610.75</ele><time>2026-04-15T12:06:42.999Z</time></trkpt><trkpt lat="45.55573560696223" lon="11.07864549748171"><ele>609.0</ele><time>2026-04-15T12:06:43.999Z</time></trkpt><trkpt lat="45.5556675813416" lon="11.078775557631344"><ele>609.0</ele><time>2026-04-15T12:06:44.999Z</time></trkpt><trkpt lat="45.55560184207178" lon="11.078892856218905"><ele>609.0</ele><time>2026-04-15T12:06:45.999Z</time></trkpt><trkpt lat="45.55553913732262" lon="11.07900873026979"><ele>609.0</ele><time>2026-04-15T12:06:46.999Z</time></trkpt><trkpt lat="45.55552098367831" lon="11.079151930413461"><ele>609.0</ele><time>2026-04-15T12:06:47.999Z</time></trkpt><trkpt lat="45.55550513415958" lon="11.079307798945411"><ele>609.0</ele><time>2026-04-15T12:06:48.999Z</time></trkpt><trkpt lat="45.55548742611527" lon="11.079454435433789"><ele>610.75</ele><time>2026-04-15T12:06:49.999Z</time></trkpt><trkpt lat="45.555500909680156" lon="11.079600097418247"><ele>612.5</ele><time>2026-04-15T12:06:50.999Z</time></trkpt><trkpt lat="45.55557411101116" lon="11.079755997787549"><ele>614.25</ele><time>2026-04-15T12:06:51.999Z</time></trkpt><trkpt lat="45.55560648737546" lon="11.079943130964876"><ele>616.0</ele><time>2026-04-15T12:06:52.999Z</time></trkpt><trkpt lat="45.55563634818686" lon="11.080131448338042"><ele>616.6</ele><time>2026-04-15T12:06:53.999Z</time></trkpt><trkpt lat="45.55566331573171" lon="11.080303538857729"><ele>617.2</ele><time>2026-04-15T12:06:55Z</time></trkpt><trkpt lat="45.5557127120651" lon="11.080437737132463"><ele>617.8</ele><time>2026-04-15T12:06:56Z</time></trkpt><trkpt lat="45.55571427914631" lon="11.080579862496881"><ele>618.4</ele><time>2026-04-15T12:06:57Z</time></trkpt><trkpt lat="45.555759054235935" lon="11.080698201642912"><ele>619.0</ele><time>2026-04-15T12:06:58Z</time></trkpt><trkpt lat="45.555984609327666" lon="11.080736510587705"><ele>619.2</ele><time>2026-04-15T12:06:59Z</time></trkpt><trkpt lat="45.556022556043324" lon="11.080885147385521"><ele>619.4</ele><time>2026-04-15T12:07:00Z</time></trkpt><trkpt lat="45.55606303804273" lon="11.08104370847514"><ele>619.6</ele><time>2026-04-15T12:07:01Z</time></trkpt><trkpt lat="45.55610012165287" lon="11.081187735256163"><ele>619.8</ele><time>2026-04-15T12:07:02Z</time></trkpt><trkpt lat="45.55613319538585" lon="11.081310779831377"><ele>620.0</ele><time>2026-04-15T12:07:03Z</time></trkpt><trkpt lat="45.556203186204556" lon="11.081810528237492"><ele>620.0</ele><time>2026-04-15T12:07:04Z</time></trkpt><trkpt lat="45.55604952188911" lon="11.082033455988286"><ele>620.0</ele><time>2026-04-15T12:07:05Z</time></trkpt><trkpt lat="45.556023970809804" lon="11.082117565783427"><ele>620.0</ele><time>2026-04-15T12:07:06Z</time></trkpt><trkpt lat="45.556008044587294" lon="11.082206026885222"><ele>620.0</ele><time>2026-04-15T12:07:07Z</time></trkpt><trkpt lat="45.55600301744912" lon="11.082313204458334"><ele>620.0</ele><time>2026-04-15T12:07:08Z</time></trkpt><trkpt lat="45.55600478983765" lon="11.082424172895644"><ele>622.0</ele><time>2026-04-15T12:07:09Z</time></trkpt><trkpt lat="45.55601021547008" lon="11.082524410390008"><ele>624.0</ele><time>2026-04-15T12:07:10Z</time></trkpt><trkpt lat="45.55601891827073" lon="11.082620474023086"><ele>626.0</ele><time>2026-04-15T12:07:11Z</time></trkpt><trkpt lat="45.55600228373094" lon="11.082756733685397"><ele>628.0</ele><time>2026-04-15T12:07:13Z</time></trkpt><trkpt lat="45.55543979526779" lon="11.082873960793746"><ele>628.5</ele><time>2026-04-15T12:07:14Z</time></trkpt><trkpt lat="45.555358030939324" lon="11.082901253652663"><ele>629.0</ele><time>2026-04-15T12:07:15Z</time></trkpt><trkpt lat="45.5552911605534" lon="11.082937364857779"><ele>629.5</ele><time>2026-04-15T12:07:16Z</time></trkpt><trkpt lat="45.55523777348091" lon="11.082996259312015"><ele>630.0</ele><time>2026-04-15T12:07:17Z</time></trkpt><trkpt lat="45.55517344533828" lon="11.083122888481114"><ele>630.5</ele><time>2026-04-15T12:07:19Z</time></trkpt><trkpt lat="45.55514572643868" lon="11.083239392895361"><ele>631.0</ele><time>2026-04-15T12:07:20Z</time></trkpt><trkpt lat="45.555114702728446" lon="11.083391535374375"><ele>631.25</ele><time>2026-04-15T12:07:21Z</time></trkpt><trkpt lat="45.55507574787308" lon="11.08355661553658"><ele>631.5</ele><time>2026-04-15T12:07:22Z</time></trkpt><trkpt lat="45.555043224827244" lon="11.083716343839262"><ele>631.75</ele><time>2026-04-15T12:07:23Z</time></trkpt><trkpt lat="45.55501127691612" lon="11.083892641658299"><ele>632.0</ele><time>2026-04-15T12:07:24Z</time></trkpt><trkpt lat="45.55496089849184" lon="11.084071923793044"><ele>633.0</ele><time>2026-04-15T12:07:25Z</time></trkpt><trkpt lat="45.55487932818796" lon="11.084185220010855"><ele>634.0</ele><time>2026-04-15T12:07:26Z</time></trkpt><trkpt lat="45.554794156168214" lon="11.084273339591718"><ele>635.0</ele><time>2026-04-15T12:07:27Z</time></trkpt><trkpt lat="45.55471099153864" lon="11.084368192390365"><ele>636.0</ele><time>2026-04-15T12:07:28Z</time></trkpt><trkpt lat="45.5546371140636" lon="11.084461587723371"><ele>637.0</ele><time>2026-04-15T12:07:29Z</time></trkpt><trkpt lat="45.55459173714607" lon="11.084566317053847"><ele>637.0</ele><time>2026-04-15T12:07:30Z</time></trkpt><trkpt lat="45.554544134569525" lon="11.08465148220439"><ele>637.0</ele><time>2026-04-15T12:07:31Z</time></trkpt><trkpt lat="45.55447626645176" lon="11.084730966537661"><ele>637.0</ele><time>2026-04-15T12:07:32Z</time></trkpt><trkpt lat="45.554388093162856" lon="11.084789764622045"><ele>637.0</ele><time>2026-04-15T12:07:33Z</time></trkpt><trkpt lat="45.55427444346577" lon="11.08484107179893"><ele>637.0</ele><time>2026-04-15T12:07:34Z</time></trkpt><trkpt lat="45.55414549175144" lon="11.084864360079742"><ele>635.0</ele><time>2026-04-15T12:07:35Z</time></trkpt><trkpt lat="45.5540014429853" lon="11.084861283847765"><ele>633.0</ele><time>2026-04-15T12:07:36Z</time></trkpt><trkpt lat="45.553852630529576" lon="11.084846441461828"><ele>631.0</ele><time>2026-04-15T12:07:37Z</time></trkpt><trkpt lat="45.553720270537184" lon="11.084833536629297"><ele>629.0</ele><time>2026-04-15T12:07:38Z</time></trkpt><trkpt lat="45.55359782959935" lon="11.084835853770748"><ele>629.0</ele><time>2026-04-15T12:07:39Z</time></trkpt><trkpt lat="45.55348320810565" lon="11.08484576007416"><ele>629.0</ele><time>2026-04-15T12:07:40Z</time></trkpt><trkpt lat="45.553375392785036" lon="11.08487010762615"><ele>629.0</ele><time>2026-04-15T12:07:41Z</time></trkpt><trkpt lat="45.55326420275028" lon="11.084881542241678"><ele>629.0</ele><time>2026-04-15T12:07:42Z</time></trkpt><trkpt lat="45.55314683658149" lon="11.084930372663713"><ele>631.0</ele><time>2026-04-15T12:07:43Z</time></trkpt><trkpt lat="45.55303501974668" lon="11.08501791289148"><ele>633.0</ele><time>2026-04-15T12:07:44Z</time></trkpt><trkpt lat="45.55291446636385" lon="11.085098446829416"><ele>635.0</ele><time>2026-04-15T12:07:45Z</time></trkpt><trkpt lat="45.552801724405896" lon="11.085197284866789"><ele>637.0</ele><time>2026-04-15T12:07:46Z</time></trkpt><trkpt lat="45.552693260866455" lon="11.085306210661736"><ele>637.0</ele><time>2026-04-15T12:07:47Z</time></trkpt><trkpt lat="45.552588448901844" lon="11.085416272183284"><ele>637.0</ele><time>2026-04-15T12:07:48Z</time></trkpt><trkpt lat="45.55248507380683" lon="11.085519658194215"><ele>637.0</ele><time>2026-04-15T12:07:49Z</time></trkpt><trkpt lat="45.552382523081356" lon="11.085622769574554"><ele>637.0</ele><time>2026-04-15T12:07:50Z</time></trkpt><trkpt lat="45.552285860805334" lon="11.085726111886473"><ele>637.25</ele><time>2026-04-15T12:07:51Z</time></trkpt><trkpt lat="45.55218770208822" lon="11.085826204717955"><ele>637.5</ele><time>2026-04-15T12:07:52Z</time></trkpt><trkpt lat="45.552090752796666" lon="11.085926557737196"><ele>637.75</ele><time>2026-04-15T12:07:53.001Z</time></trkpt><trkpt lat="45.551986143178894" lon="11.086027284438616"><ele>638.0</ele><time>2026-04-15T12:07:54.001Z</time></trkpt><trkpt lat="45.55187337214041" lon="11.086139137677595"><ele>637.4</ele><time>2026-04-15T12:07:55.001Z</time></trkpt><trkpt lat="45.551770621704314" lon="11.086240154700187"><ele>636.8</ele><time>2026-04-15T12:07:56.001Z</time></trkpt><trkpt lat="45.551677400017454" lon="11.08633658371429"><ele>636.2</ele><time>2026-04-15T12:07:57.001Z</time></trkpt><trkpt lat="45.55159176462755" lon="11.086427102913786"><ele>635.6</ele><time>2026-04-15T12:07:58.001Z</time></trkpt><trkpt lat="45.551508974869165" lon="11.086505026894912"><ele>635.0</ele><time>2026-04-15T12:07:59.001Z</time></trkpt><trkpt lat="45.55142019855567" lon="11.086576780860915"><ele>635.75</ele><time>2026-04-15T12:08:00.001Z</time></trkpt><trkpt lat="45.55132172688376" lon="11.08664641171862"><ele>636.5</ele><time>2026-04-15T12:08:01.001Z</time></trkpt><trkpt lat="45.55121151984103" lon="11.08671466883133"><ele>637.25</ele><time>2026-04-15T12:08:02.001Z</time></trkpt><trkpt lat="45.55109348089797" lon="11.08678218413362"><ele>638.0</ele><time>2026-04-15T12:08:03.001Z</time></trkpt><trkpt lat="45.55097379243959" lon="11.086845838964086"><ele>638.25</ele><time>2026-04-15T12:08:04.001Z</time></trkpt><trkpt lat="45.550853290034084" lon="11.086902419194477"><ele>638.5</ele><time>2026-04-15T12:08:05.001Z</time></trkpt><trkpt lat="45.55074311912105" lon="11.086961528362172"><ele>638.75</ele><time>2026-04-15T12:08:06.001Z</time></trkpt><trkpt lat="45.550633014978466" lon="11.0870356785107"><ele>639.0</ele><time>2026-04-15T12:08:07.001Z</time></trkpt><trkpt lat="45.55052812662237" lon="11.087105203280853"><ele>639.0</ele><time>2026-04-15T12:08:08.001Z</time></trkpt><trkpt lat="45.55042761555335" lon="11.087183641838807"><ele>639.0</ele><time>2026-04-15T12:08:09.001Z</time></trkpt><trkpt lat="45.55032756339729" lon="11.087277822887447"><ele>639.0</ele><time>2026-04-15T12:08:10.001Z</time></trkpt><trkpt lat="45.55023648102976" lon="11.087383424275764"><ele>639.0</ele><time>2026-04-15T12:08:11.001Z</time></trkpt><trkpt lat="45.55015246883229" lon="11.087494094879302"><ele>637.75</ele><time>2026-04-15T12:08:12.001Z</time></trkpt><trkpt lat="45.550067155563546" lon="11.087607401004364"><ele>636.5</ele><time>2026-04-15T12:08:13.001Z</time></trkpt><trkpt lat="45.54997843640345" lon="11.087730758320422"><ele>635.25</ele><time>2026-04-15T12:08:14.001Z</time></trkpt><trkpt lat="45.54989184272329" lon="11.087869607585276"><ele>634.0</ele><time>2026-04-15T12:08:15.001Z</time></trkpt><trkpt lat="45.5498078223998" lon="11.088008734555679"><ele>634.0</ele><time>2026-04-15T12:08:16.001Z</time></trkpt><trkpt lat="45.54972403806448" lon="11.088152172845964"><ele>634.0</ele><time>2026-04-15T12:08:17.001Z</time></trkpt><trkpt lat="45.549640327287634" lon="11.088293320009743"><ele>634.0</ele><time>2026-04-15T12:08:18.001Z</time></trkpt><trkpt lat="45.54955673602699" lon="11.08843186177315"><ele>634.0</ele><time>2026-04-15T12:08:19.001Z</time></trkpt><trkpt lat="45.54947371493721" lon="11.088568545182843"><ele>634.25</ele><time>2026-04-15T12:08:20.001Z</time></trkpt><trkpt lat="45.54939279712052" lon="11.088705052822828"><ele>634.5</ele><time>2026-04-15T12:08:21.001Z</time></trkpt><trkpt lat="45.54931507897389" lon="11.088851332939818"><ele>634.75</ele><time>2026-04-15T12:08:22.001Z</time></trkpt><trkpt lat="45.54924487007107" lon="11.089012689671716"><ele>635.0</ele><time>2026-04-15T12:08:23.001Z</time></trkpt><trkpt lat="45.54917532654559" lon="11.089177278406163"><ele>633.75</ele><time>2026-04-15T12:08:24.001Z</time></trkpt><trkpt lat="45.54910597700369" lon="11.089336830309804"><ele>632.5</ele><time>2026-04-15T12:08:25.001Z</time></trkpt><trkpt lat="45.54903029689578" lon="11.089490642684872"><ele>631.25</ele><time>2026-04-15T12:08:26.001Z</time></trkpt><trkpt lat="45.54894873557869" lon="11.089631122281231"><ele>630.0</ele><time>2026-04-15T12:08:27.001Z</time></trkpt><trkpt lat="45.548842734251274" lon="11.089764508564041"><ele>630.0</ele><time>2026-04-15T12:08:28.001Z</time></trkpt><trkpt lat="45.548721957275205" lon="11.089877514742431"><ele>630.0</ele><time>2026-04-15T12:08:29.001Z</time></trkpt><trkpt lat="45.54858280735151" lon="11.089959256402068"><ele>630.0</ele><time>2026-04-15T12:08:30.001Z</time></trkpt><trkpt lat="45.548440790557855" lon="11.09000641263674"><ele>630.0</ele><time>2026-04-15T12:08:31.001Z</time></trkpt><trkpt lat="45.54829927876214" lon="11.090032719095223"><ele>627.5</ele><time>2026-04-15T12:08:32.001Z</time></trkpt><trkpt lat="45.54815509099993" lon="11.09003556986883"><ele>625.0</ele><time>2026-04-15T12:08:32.999Z</time></trkpt><trkpt lat="45.54800334611687" lon="11.090028714316858"><ele>622.5</ele><time>2026-04-15T12:08:33.999Z</time></trkpt><trkpt lat="45.54785008414038" lon="11.090018484137575"><ele>620.0</ele><time>2026-04-15T12:08:34.999Z</time></trkpt><trkpt lat="45.54769641922085" lon="11.09000115508565"><ele>620.3333333333333</ele><time>2026-04-15T12:08:35.999Z</time></trkpt><trkpt lat="45.54754423821677" lon="11.089957709346802"><ele>620.6666666666666</ele><time>2026-04-15T12:08:36.999Z</time></trkpt><trkpt lat="45.54739110830337" lon="11.089890786499964"><ele>621.0</ele><time>2026-04-15T12:08:37.999Z</time></trkpt><trkpt lat="45.54724564404642" lon="11.08979969800742"><ele>621.0</ele><time>2026-04-15T12:08:38.999Z</time></trkpt><trkpt lat="45.547117878981936" lon="11.089695500766553"><ele>621.0</ele><time>2026-04-15T12:08:39.999Z</time></trkpt><trkpt lat="45.547005672742976" lon="11.08958071830592"><ele>621.0</ele><time>2026-04-15T12:08:40.999Z</time></trkpt><trkpt lat="45.54688473414002" lon="11.089461449444405"><ele>621.0</ele><time>2026-04-15T12:08:41.999Z</time></trkpt><trkpt lat="45.54673825849168" lon="11.08933443577665"><ele>619.3333333333334</ele><time>2026-04-15T12:08:42.999Z</time></trkpt><trkpt lat="45.54657738378178" lon="11.08920461154412"><ele>617.6666666666667</ele><time>2026-04-15T12:08:43.999Z</time></trkpt><trkpt lat="45.54639038935517" lon="11.089056862238674"><ele>616.0</ele><time>2026-04-15T12:08:44.999Z</time></trkpt><trkpt lat="45.54620207990126" lon="11.088933291461961"><ele>609.6666666666667</ele><time>2026-04-15T12:08:45.999Z</time></trkpt><trkpt lat="45.54602360716728" lon="11.088852054017304"><ele>603.3333333333334</ele><time>2026-04-15T12:08:46.999Z</time></trkpt><trkpt lat="45.545850007569015" lon="11.08881558579565"><ele>597.0</ele><time>2026-04-15T12:08:47.999Z</time></trkpt><trkpt lat="45.54567996590431" lon="11.088818716594918"><ele>597.0</ele><time>2026-04-15T12:08:48.999Z</time></trkpt><trkpt lat="45.54552032318722" lon="11.088829852303888"><ele>597.0</ele><time>2026-04-15T12:08:49.999Z</time></trkpt><trkpt lat="45.54536947021269" lon="11.08883493672082"><ele>597.0</ele><time>2026-04-15T12:08:50.999Z</time></trkpt><trkpt lat="45.545198898401296" lon="11.088838036240611"><ele>596.6666666666666</ele><time>2026-04-15T12:08:51.999Z</time></trkpt><trkpt lat="45.54503345579552" lon="11.088846339926576"><ele>596.3333333333333</ele><time>2026-04-15T12:08:52.999Z</time></trkpt><trkpt lat="45.5448568127325" lon="11.088869335481474"><ele>596.0</ele><time>2026-04-15T12:08:53.999Z</time></trkpt><trkpt lat="45.54469245662986" lon="11.088903705970953"><ele>596.6666666666666</ele><time>2026-04-15T12:08:55Z</time></trkpt><trkpt lat="45.544532927657755" lon="11.088937409568512"><ele>597.3333333333334</ele><time>2026-04-15T12:08:56Z</time></trkpt><trkpt lat="45.54436549851659" lon="11.088973634350792"><ele>598.0</ele><time>2026-04-15T12:08:57Z</time></trkpt><trkpt lat="45.54421187709873" lon="11.089015635719617"><ele>598.0</ele><time>2026-04-15T12:08:58Z</time></trkpt><trkpt lat="45.544052287841346" lon="11.089067411224082"><ele>598.0</ele><time>2026-04-15T12:08:59Z</time></trkpt><trkpt lat="45.54390015427139" lon="11.08912633543632"><ele>598.0</ele><time>2026-04-15T12:09:00Z</time></trkpt><trkpt lat="45.54375100224709" lon="11.089193053307312"><ele>597.0</ele><time>2026-04-15T12:09:01Z</time></trkpt><trkpt lat="45.54359846547324" lon="11.089262784397734"><ele>596.0</ele><time>2026-04-15T12:09:02Z</time></trkpt><trkpt lat="45.54344477755135" lon="11.089341986183367"><ele>595.0</ele><time>2026-04-15T12:09:03Z</time></trkpt><trkpt lat="45.54329173351771" lon="11.08942434147598"><ele>595.0</ele><time>2026-04-15T12:09:04Z</time></trkpt><trkpt lat="45.543143531639984" lon="11.089497751611814"><ele>595.0</ele><time>2026-04-15T12:09:05Z</time></trkpt><trkpt lat="45.54298917884935" lon="11.08957673781897"><ele>595.0</ele><time>2026-04-15T12:09:06Z</time></trkpt><trkpt lat="45.54284005087421" lon="11.089658079005938"><ele>595.25</ele><time>2026-04-15T12:09:07Z</time></trkpt><trkpt lat="45.54270129317437" lon="11.089734061464842"><ele>595.5</ele><time>2026-04-15T12:09:08Z</time></trkpt><trkpt lat="45.5425633847247" lon="11.089817306526593"><ele>595.75</ele><time>2026-04-15T12:09:09Z</time></trkpt><trkpt lat="45.542430990535664" lon="11.089911291098689"><ele>596.0</ele><time>2026-04-15T12:09:10Z</time></trkpt><trkpt lat="45.542299416513394" lon="11.09002777080923"><ele>596.0</ele><time>2026-04-15T12:09:11Z</time></trkpt><trkpt lat="45.542174945094565" lon="11.090135422032354"><ele>596.0</ele><time>2026-04-15T12:09:12Z</time></trkpt><trkpt lat="45.54205180795968" lon="11.090217358628282"><ele>596.0</ele><time>2026-04-15T12:09:13Z</time></trkpt><trkpt lat="45.54193242071521" lon="11.09027110395262"><ele>596.0</ele><time>2026-04-15T12:09:14Z</time></trkpt><trkpt lat="45.54181589316759" lon="11.090299216034706"><ele>596.5</ele><time>2026-04-15T12:09:15Z</time></trkpt><trkpt lat="45.5416989759566" lon="11.090311526073505"><ele>597.0</ele><time>2026-04-15T12:09:16Z</time></trkpt><trkpt lat="45.5415772429608" lon="11.090308442457566"><ele>597.5</ele><time>2026-04-15T12:09:17Z</time></trkpt><trkpt lat="45.541445418642255" lon="11.090299024541704"><ele>598.0</ele><time>2026-04-15T12:09:18Z</time></trkpt><trkpt lat="45.54130676036362" lon="11.090267425032813"><ele>596.3333333333334</ele><time>2026-04-15T12:09:19Z</time></trkpt><trkpt lat="45.54116729390849" lon="11.090188369075689"><ele>594.6666666666666</ele><time>2026-04-15T12:09:20Z</time></trkpt><trkpt lat="45.54101538554988" lon="11.09014093418138"><ele>593.0</ele><time>2026-04-15T12:09:21Z</time></trkpt><trkpt lat="45.54086954183032" lon="11.090076498858089"><ele>593.0</ele><time>2026-04-15T12:09:22Z</time></trkpt><trkpt lat="45.54071939577066" lon="11.090020125865529"><ele>593.0</ele><time>2026-04-15T12:09:23Z</time></trkpt><trkpt lat="45.540578001768985" lon="11.090004492075149"><ele>593.0</ele><time>2026-04-15T12:09:24Z</time></trkpt><trkpt lat="45.5404329377375" lon="11.090033354246835"><ele>593.0</ele><time>2026-04-15T12:09:25Z</time></trkpt><trkpt lat="45.54029476698735" lon="11.090092587613585"><ele>592.25</ele><time>2026-04-15T12:09:26Z</time></trkpt><trkpt lat="45.54016092967848" lon="11.09016085749015"><ele>591.5</ele><time>2026-04-15T12:09:27Z</time></trkpt><trkpt lat="45.54002861509314" lon="11.090240050665649"><ele>590.75</ele><time>2026-04-15T12:09:28Z</time></trkpt><trkpt lat="45.53990047410414" lon="11.090321373158673"><ele>590.0</ele><time>2026-04-15T12:09:29Z</time></trkpt><trkpt lat="45.53976090039986" lon="11.090438219215518"><ele>590.0</ele><time>2026-04-15T12:09:30Z</time></trkpt><trkpt lat="45.53964776941432" lon="11.090527824852213"><ele>590.0</ele><time>2026-04-15T12:09:31Z</time></trkpt><trkpt lat="45.53952148808407" lon="11.090627805643402"><ele>590.0</ele><time>2026-04-15T12:09:32Z</time></trkpt><trkpt lat="45.53939847048497" lon="11.090713947257356"><ele>590.0</ele><time>2026-04-15T12:09:33Z</time></trkpt><trkpt lat="45.53928572775935" lon="11.090797092690165"><ele>592.0</ele><time>2026-04-15T12:09:34Z</time></trkpt><trkpt lat="45.53919794403554" lon="11.090862317402724"><ele>594.0</ele><time>2026-04-15T12:09:35Z</time></trkpt><trkpt lat="45.539089816828074" lon="11.090890211654328"><ele>596.0</ele><time>2026-04-15T12:09:37Z</time></trkpt><trkpt lat="45.53899831685664" lon="11.090859206349144"><ele>598.0</ele><time>2026-04-15T12:09:38Z</time></trkpt><trkpt lat="45.53893323618713" lon="11.090868813710568"><ele>600.0</ele><time>2026-04-15T12:09:39Z</time></trkpt><trkpt lat="45.53887155139534" lon="11.090622819316703"><ele>600.0</ele><time>2026-04-15T12:09:42Z</time></trkpt><trkpt lat="45.538776837241215" lon="11.090547316377199"><ele>600.0</ele><time>2026-04-15T12:09:44.001Z</time></trkpt><trkpt lat="45.53869372861986" lon="11.090550602184369"><ele>600.0</ele><time>2026-04-15T12:09:45.001Z</time></trkpt><trkpt lat="45.53859625885947" lon="11.090560971566154"><ele>600.0</ele><time>2026-04-15T12:09:46.001Z</time></trkpt><trkpt lat="45.53848175558813" lon="11.090561829655105"><ele>600.0</ele><time>2026-04-15T12:09:47.001Z</time></trkpt><trkpt lat="45.538373989304766" lon="11.090536993946696"><ele>601.5</ele><time>2026-04-15T12:09:48.001Z</time></trkpt><trkpt lat="45.53825529634299" lon="11.090496446260582"><ele>603.0</ele><time>2026-04-15T12:09:49.001Z</time></trkpt><trkpt lat="45.53813395191951" lon="11.090453930630462"><ele>604.5</ele><time>2026-04-15T12:09:50.001Z</time></trkpt><trkpt lat="45.53800465368643" lon="11.090398501391963"><ele>606.0</ele><time>2026-04-15T12:09:51.001Z</time></trkpt><trkpt lat="45.537885289225" lon="11.090339849898399"><ele>609.5</ele><time>2026-04-15T12:09:52.001Z</time></trkpt><trkpt lat="45.53775749627845" lon="11.090281041619674"><ele>613.0</ele><time>2026-04-15T12:09:53.001Z</time></trkpt><trkpt lat="45.53763020071755" lon="11.090219531477647"><ele>616.5</ele><time>2026-04-15T12:09:54.001Z</time></trkpt><trkpt lat="45.53749303986573" lon="11.090145919649752"><ele>620.0</ele><time>2026-04-15T12:09:55.001Z</time></trkpt><trkpt lat="45.53736580392161" lon="11.090078771299419"><ele>620.0</ele><time>2026-04-15T12:09:56.001Z</time></trkpt><trkpt lat="45.537244936785335" lon="11.090003849947953"><ele>620.0</ele><time>2026-04-15T12:09:57.001Z</time></trkpt><trkpt lat="45.5371324755994" lon="11.08992490422519"><ele>620.0</ele><time>2026-04-15T12:09:58.001Z</time></trkpt><trkpt lat="45.53704489593235" lon="11.089853262315739"><ele>620.0</ele><time>2026-04-15T12:09:59.001Z</time></trkpt><trkpt lat="45.536951868179116" lon="11.08981162535576"><ele>621.0</ele><time>2026-04-15T12:10:00.001Z</time></trkpt><trkpt lat="45.536869927930155" lon="11.089840955497317"><ele>622.0</ele><time>2026-04-15T12:10:01.001Z</time></trkpt><trkpt lat="45.53677974055134" lon="11.089890736699006"><ele>623.0</ele><time>2026-04-15T12:10:02.001Z</time></trkpt><trkpt lat="45.53667523566953" lon="11.089947562970664"><ele>624.0</ele><time>2026-04-15T12:10:03.001Z</time></trkpt><trkpt lat="45.5365806190998" lon="11.089982906953939"><ele>625.0</ele><time>2026-04-15T12:10:04.001Z</time></trkpt><trkpt lat="45.536479023019126" lon="11.090000963524712"><ele>626.2</ele><time>2026-04-15T12:10:05.001Z</time></trkpt><trkpt lat="45.53635016798828" lon="11.090041704904742"><ele>627.4</ele><time>2026-04-15T12:10:06.001Z</time></trkpt><trkpt lat="45.536232315865625" lon="11.090062949203853"><ele>628.6</ele><time>2026-04-15T12:10:07.001Z</time></trkpt><trkpt lat="45.53613393390679" lon="11.090080264338003"><ele>629.8</ele><time>2026-04-15T12:10:08.001Z</time></trkpt><trkpt lat="45.53604137065074" lon="11.090093581798097"><ele>631.0</ele><time>2026-04-15T12:10:09.001Z</time></trkpt><trkpt lat="45.535965480397195" lon="11.090102874918019"><ele>632.0</ele><time>2026-04-15T12:10:10.001Z</time></trkpt><trkpt lat="45.53588044810415" lon="11.090102493010468"><ele>633.0</ele><time>2026-04-15T12:10:11.001Z</time></trkpt><trkpt lat="45.535786948434506" lon="11.09014257390506"><ele>634.0</ele><time>2026-04-15T12:10:12.001Z</time></trkpt><trkpt lat="45.535699182928205" lon="11.090200999590584"><ele>635.0</ele><time>2026-04-15T12:10:13.001Z</time></trkpt><trkpt lat="45.53560063667472" lon="11.09024879037816"><ele>636.0</ele><time>2026-04-15T12:10:14.001Z</time></trkpt><trkpt lat="45.53548868599619" lon="11.090272823343478"><ele>635.5</ele><time>2026-04-15T12:10:15.001Z</time></trkpt><trkpt lat="45.535371529554624" lon="11.090282605729673"><ele>635.0</ele><time>2026-04-15T12:10:16.001Z</time></trkpt><trkpt lat="45.53522149122346" lon="11.090285904947462"><ele>634.5</ele><time>2026-04-15T12:10:17.001Z</time></trkpt><trkpt lat="45.53507583919364" lon="11.09029112510866"><ele>634.0</ele><time>2026-04-15T12:10:18.001Z</time></trkpt><trkpt lat="45.534917567477635" lon="11.090309841713712"><ele>634.0</ele><time>2026-04-15T12:10:19.001Z</time></trkpt><trkpt lat="45.53477350608466" lon="11.090330276450826"><ele>634.0</ele><time>2026-04-15T12:10:20.001Z</time></trkpt><trkpt lat="45.53464165899634" lon="11.090361237249729"><ele>634.0</ele><time>2026-04-15T12:10:21.001Z</time></trkpt><trkpt lat="45.53452322255449" lon="11.090401448260243"><ele>634.0</ele><time>2026-04-15T12:10:22.001Z</time></trkpt><trkpt lat="45.53439379536405" lon="11.090463821874605"><ele>633.75</ele><time>2026-04-15T12:10:23.001Z</time></trkpt><trkpt lat="45.534269284604626" lon="11.090537914946593"><ele>633.5</ele><time>2026-04-15T12:10:24.001Z</time></trkpt><trkpt lat="45.53413669392999" lon="11.090625426508733"><ele>633.25</ele><time>2026-04-15T12:10:25.001Z</time></trkpt><trkpt lat="45.53400185816442" lon="11.090694432147535"><ele>633.0</ele><time>2026-04-15T12:10:26.001Z</time></trkpt><trkpt lat="45.53386347286087" lon="11.090755353245811"><ele>633.25</ele><time>2026-04-15T12:10:27.001Z</time></trkpt><trkpt lat="45.53373769308164" lon="11.090805355545253"><ele>633.5</ele><time>2026-04-15T12:10:28.001Z</time></trkpt><trkpt lat="45.53362751350818" lon="11.090849356016344"><ele>633.75</ele><time>2026-04-15T12:10:29.001Z</time></trkpt><trkpt lat="45.53351946606465" lon="11.090894651181154"><ele>634.0</ele><time>2026-04-15T12:10:30.001Z</time></trkpt><trkpt lat="45.53342301368919" lon="11.090948717278534"><ele>633.0</ele><time>2026-04-15T12:10:31.001Z</time></trkpt><trkpt lat="45.53330620945074" lon="11.091007485490675"><ele>632.0</ele><time>2026-04-15T12:10:32.001Z</time></trkpt><trkpt lat="45.53317018552175" lon="11.091077270473699"><ele>631.0</ele><time>2026-04-15T12:10:33.001Z</time></trkpt><trkpt lat="45.53302809045092" lon="11.091160480223126"><ele>630.0</ele><time>2026-04-15T12:10:34.001Z</time></trkpt><trkpt lat="45.53289151892649" lon="11.09123807303378"><ele>629.25</ele><time>2026-04-15T12:10:35.001Z</time></trkpt><trkpt lat="45.53277462994749" lon="11.091299251035084"><ele>628.5</ele><time>2026-04-15T12:10:36.001Z</time></trkpt><trkpt lat="45.53264568956831" lon="11.09134867700608"><ele>627.75</ele><time>2026-04-15T12:10:37.001Z</time></trkpt><trkpt lat="45.53251279743805" lon="11.091395410942294"><ele>627.0</ele><time>2026-04-15T12:10:38.001Z</time></trkpt><trkpt lat="45.53237183782726" lon="11.091445901903011"><ele>627.0</ele><time>2026-04-15T12:10:38.999Z</time></trkpt><trkpt lat="45.53222506238895" lon="11.091494608328421"><ele>627.0</ele><time>2026-04-15T12:10:39.999Z</time></trkpt><trkpt lat="45.53208924726418" lon="11.091532954497502"><ele>627.0</ele><time>2026-04-15T12:10:40.999Z</time></trkpt><trkpt lat="45.53194708959758" lon="11.091565473045328"><ele>627.0</ele><time>2026-04-15T12:10:41.999Z</time></trkpt><trkpt lat="45.53182977331644" lon="11.091577566223016"><ele>626.6</ele><time>2026-04-15T12:10:42.999Z</time></trkpt><trkpt lat="45.53170606741782" lon="11.091587299210254"><ele>626.2</ele><time>2026-04-15T12:10:43.999Z</time></trkpt><trkpt lat="45.53159611590466" lon="11.091584208258388"><ele>625.8</ele><time>2026-04-15T12:10:44.999Z</time></trkpt><trkpt lat="45.531501598341066" lon="11.091566548980312"><ele>625.4</ele><time>2026-04-15T12:10:45.999Z</time></trkpt><trkpt lat="45.53140513053681" lon="11.09153510506315"><ele>625.0</ele><time>2026-04-15T12:10:46.999Z</time></trkpt><trkpt lat="45.53130227544795" lon="11.091513641078265"><ele>623.2</ele><time>2026-04-15T12:10:47.999Z</time></trkpt><trkpt lat="45.531196453075616" lon="11.091495462250965"><ele>621.4</ele><time>2026-04-15T12:10:48.999Z</time></trkpt><trkpt lat="45.53110214944477" lon="11.091489307942062"><ele>619.6</ele><time>2026-04-15T12:10:49.999Z</time></trkpt><trkpt lat="45.53099333921579" lon="11.091482188796645"><ele>617.8</ele><time>2026-04-15T12:10:50.999Z</time></trkpt><trkpt lat="45.53087696031354" lon="11.091482572814115"><ele>616.0</ele><time>2026-04-15T12:10:51.999Z</time></trkpt><trkpt lat="45.5307402306687" lon="11.091484275848593"><ele>616.0</ele><time>2026-04-15T12:10:53Z</time></trkpt><trkpt lat="45.53064632920291" lon="11.0914771903056"><ele>616.0</ele><time>2026-04-15T12:10:54Z</time></trkpt><trkpt lat="45.53056547890221" lon="11.091479236785768"><ele>616.0</ele><time>2026-04-15T12:10:55Z</time></trkpt><trkpt lat="45.530481956834464" lon="11.091494882104888"><ele>616.0</ele><time>2026-04-15T12:10:56Z</time></trkpt><trkpt lat="45.53041639515485" lon="11.091521953875086"><ele>616.0</ele><time>2026-04-15T12:10:57Z</time></trkpt><trkpt lat="45.530341488846034" lon="11.09156444859965"><ele>616.0</ele><time>2026-04-15T12:10:58Z</time></trkpt><trkpt lat="45.530226163730056" lon="11.09164131571064"><ele>615.4</ele><time>2026-04-15T12:11:00Z</time></trkpt><trkpt lat="45.530101377427926" lon="11.091690909825372"><ele>614.8</ele><time>2026-04-15T12:11:02Z</time></trkpt><trkpt lat="45.530023088728356" lon="11.091696103645386"><ele>614.1999999999999</ele><time>2026-04-15T12:11:03Z</time></trkpt><trkpt lat="45.529938991619375" lon="11.091717889516966"><ele>613.6</ele><time>2026-04-15T12:11:04Z</time></trkpt><trkpt lat="45.52984936890492" lon="11.091749196922331"><ele>613.0</ele><time>2026-04-15T12:11:05Z</time></trkpt><trkpt lat="45.52977323759059" lon="11.091783395080071"><ele>613.0</ele><time>2026-04-15T12:11:06Z</time></trkpt><trkpt lat="45.52970650842687" lon="11.091812539052475"><ele>613.0</ele><time>2026-04-15T12:11:07Z</time></trkpt><trkpt lat="45.52964179874981" lon="11.091823242088138"><ele>613.0</ele><time>2026-04-15T12:11:08Z</time></trkpt><trkpt lat="45.529538615106546" lon="11.091848962824985"><ele>613.0</ele><time>2026-04-15T12:11:09Z</time></trkpt><trkpt lat="45.52941150657818" lon="11.091873136877485"><ele>613.0</ele><time>2026-04-15T12:11:10Z</time></trkpt><trkpt lat="45.52926637886006" lon="11.091893581239962"><ele>612.25</ele><time>2026-04-15T12:11:11Z</time></trkpt><trkpt lat="45.5291097669833" lon="11.091905230652706"><ele>611.5</ele><time>2026-04-15T12:11:12Z</time></trkpt><trkpt lat="45.52896604875895" lon="11.091896896201492"><ele>610.75</ele><time>2026-04-15T12:11:13Z</time></trkpt><trkpt lat="45.528841256743114" lon="11.09187752105497"><ele>610.0</ele><time>2026-04-15T12:11:14Z</time></trkpt><trkpt lat="45.528723880862266" lon="11.09185794715236"><ele>609.75</ele><time>2026-04-15T12:11:15Z</time></trkpt><trkpt lat="45.52861197916255" lon="11.091834249922446"><ele>609.5</ele><time>2026-04-15T12:11:16Z</time></trkpt><trkpt lat="45.528501079697506" lon="11.091801128800808"><ele>609.25</ele><time>2026-04-15T12:11:17Z</time></trkpt><trkpt lat="45.528419025724844" lon="11.091755023806627"><ele>609.0</ele><time>2026-04-15T12:11:18Z</time></trkpt><trkpt lat="45.52842720507673" lon="11.091992694602526"><ele>609.0</ele><time>2026-04-15T12:11:25Z</time></trkpt><trkpt lat="45.52851701961337" lon="11.091985348780256"><ele>609.0</ele><time>2026-04-15T12:11:26Z</time></trkpt><trkpt lat="45.528594570617294" lon="11.092024736110925"><ele>609.0</ele><time>2026-04-15T12:11:27Z</time></trkpt><trkpt lat="45.528688215476194" lon="11.09207217359904"><ele>609.0</ele><time>2026-04-15T12:11:28Z</time></trkpt><trkpt lat="45.52877862600758" lon="11.092145221351828"><ele>609.0</ele><time>2026-04-15T12:11:29Z</time></trkpt><trkpt lat="45.52887448578668" lon="11.092181584027674"><ele>609.25</ele><time>2026-04-15T12:11:30Z</time></trkpt><trkpt lat="45.52898302930625" lon="11.092266929237665"><ele>609.5</ele><time>2026-04-15T12:11:31Z</time></trkpt><trkpt lat="45.529095320774694" lon="11.092320419619806"><ele>609.75</ele><time>2026-04-15T12:11:32Z</time></trkpt><trkpt lat="45.52922467030577" lon="11.092341876129453"><ele>610.0</ele><time>2026-04-15T12:11:33Z</time></trkpt><trkpt lat="45.52936230250306" lon="11.092329616694926"><ele>610.0</ele><time>2026-04-15T12:11:34Z</time></trkpt><trkpt lat="45.52949223545993" lon="11.092303624397138"><ele>610.0</ele><time>2026-04-15T12:11:35Z</time></trkpt><trkpt lat="45.52962114613111" lon="11.09229178290718"><ele>610.0</ele><time>2026-04-15T12:11:36Z</time></trkpt><trkpt lat="45.52972574797403" lon="11.092324446365275"><ele>610.0</ele><time>2026-04-15T12:11:37Z</time></trkpt><trkpt lat="45.529798640335905" lon="11.092387426221471"><ele>608.6</ele><time>2026-04-15T12:11:38.001Z</time></trkpt><trkpt lat="45.52984262860618" lon="11.092487623846404"><ele>607.2</ele><time>2026-04-15T12:11:39.001Z</time></trkpt><trkpt lat="45.529877777517115" lon="11.092609254489135"><ele>605.8</ele><time>2026-04-15T12:11:40.001Z</time></trkpt><trkpt lat="45.52987615702721" lon="11.092779633997107"><ele>604.4</ele><time>2026-04-15T12:11:41.001Z</time></trkpt><trkpt lat="45.52984909471824" lon="11.092967839693026"><ele>603.0</ele><time>2026-04-15T12:11:42.001Z</time></trkpt><trkpt lat="45.52980733156314" lon="11.093158678271292"><ele>600.25</ele><time>2026-04-15T12:11:43.001Z</time></trkpt><trkpt lat="45.529777395160615" lon="11.093335166091443"><ele>597.5</ele><time>2026-04-15T12:11:44.001Z</time></trkpt><trkpt lat="45.52976955144034" lon="11.093519203698717"><ele>594.75</ele><time>2026-04-15T12:11:45.001Z</time></trkpt><trkpt lat="45.52976252655868" lon="11.093705558462085"><ele>592.0</ele><time>2026-04-15T12:11:46.001Z</time></trkpt><trkpt lat="45.52976231963145" lon="11.093887944406616"><ele>592.0</ele><time>2026-04-15T12:11:47.001Z</time></trkpt><trkpt lat="45.52975955850224" lon="11.094072454372684"><ele>592.0</ele><time>2026-04-15T12:11:48.001Z</time></trkpt><trkpt lat="45.529759178408504" lon="11.094251973342276"><ele>592.0</ele><time>2026-04-15T12:11:49.001Z</time></trkpt><trkpt lat="45.52978091249327" lon="11.094425265700707"><ele>592.0</ele><time>2026-04-15T12:11:50.001Z</time></trkpt><trkpt lat="45.52982113323951" lon="11.09458709357554"><ele>590.25</ele><time>2026-04-15T12:11:51.001Z</time></trkpt><trkpt lat="45.529872794382804" lon="11.094742800468868"><ele>588.5</ele><time>2026-04-15T12:11:52.001Z</time></trkpt><trkpt lat="45.52992362744887" lon="11.094896796332188"><ele>586.75</ele><time>2026-04-15T12:11:53.001Z</time></trkpt><trkpt lat="45.529983403287844" lon="11.09507580884075"><ele>585.0</ele><time>2026-04-15T12:11:54.001Z</time></trkpt><trkpt lat="45.5300534204302" lon="11.095256775774075"><ele>583.75</ele><time>2026-04-15T12:11:55.001Z</time></trkpt><trkpt lat="45.53012834033108" lon="11.095419256361588"><ele>582.5</ele><time>2026-04-15T12:11:56.001Z</time></trkpt><trkpt lat="45.53020641242199" lon="11.095567413166604"><ele>581.25</ele><time>2026-04-15T12:11:57.001Z</time></trkpt><trkpt lat="45.530306133018236" lon="11.095693782196888"><ele>580.0</ele><time>2026-04-15T12:11:58.001Z</time></trkpt><trkpt lat="45.53041232178902" lon="11.095797916459034"><ele>577.0</ele><time>2026-04-15T12:11:59.001Z</time></trkpt><trkpt lat="45.530508406452036" lon="11.095892548397881"><ele>574.0</ele><time>2026-04-15T12:12:00.001Z</time></trkpt><trkpt lat="45.530584715122956" lon="11.095997687155718"><ele>571.0</ele><time>2026-04-15T12:12:01.001Z</time></trkpt><trkpt lat="45.530651220334576" lon="11.096122100444727"><ele>568.0</ele><time>2026-04-15T12:12:02.001Z</time></trkpt><trkpt lat="45.53070006689612" lon="11.096278969677595"><ele>568.0</ele><time>2026-04-15T12:12:03.001Z</time></trkpt><trkpt lat="45.53073054133168" lon="11.096450130986355"><ele>568.0</ele><time>2026-04-15T12:12:04.001Z</time></trkpt><trkpt lat="45.53075133497252" lon="11.096620820861977"><ele>568.0</ele><time>2026-04-15T12:12:05.001Z</time></trkpt><trkpt lat="45.53076451163324" lon="11.09678610294183"><ele>568.0</ele><time>2026-04-15T12:12:06.001Z</time></trkpt><trkpt lat="45.53077297904439" lon="11.096928005953831"><ele>565.6</ele><time>2026-04-15T12:12:07.001Z</time></trkpt><trkpt lat="45.53076113970537" lon="11.097072302368002"><ele>563.1999999999999</ele><time>2026-04-15T12:12:08.001Z</time></trkpt><trkpt lat="45.53069413358649" lon="11.097197676666008"><ele>560.8</ele><time>2026-04-15T12:12:09.001Z</time></trkpt><trkpt lat="45.53062502274827" lon="11.09731819369811"><ele>558.4</ele><time>2026-04-15T12:12:10.001Z</time></trkpt><trkpt lat="45.53055326365815" lon="11.097457345267989"><ele>556.0</ele><time>2026-04-15T12:12:11.001Z</time></trkpt><trkpt lat="45.53046275324959" lon="11.097594262099465"><ele>553.0</ele><time>2026-04-15T12:12:12.001Z</time></trkpt><trkpt lat="45.53037393052451" lon="11.097743826373847"><ele>550.0</ele><time>2026-04-15T12:12:13.001Z</time></trkpt><trkpt lat="45.5302898839774" lon="11.097891800771524"><ele>547.0</ele><time>2026-04-15T12:12:14.001Z</time></trkpt><trkpt lat="45.53020778035076" lon="11.09804263493994"><ele>544.0</ele><time>2026-04-15T12:12:15.001Z</time></trkpt><trkpt lat="45.53013532356542" lon="11.098201329364903"><ele>541.5</ele><time>2026-04-15T12:12:16.001Z</time></trkpt><trkpt lat="45.53006185289802" lon="11.098376197862994"><ele>539.0</ele><time>2026-04-15T12:12:17.001Z</time></trkpt><trkpt lat="45.52999322662678" lon="11.098553292291983"><ele>536.5</ele><time>2026-04-15T12:12:18.001Z</time></trkpt><trkpt lat="45.529932861312865" lon="11.098739719404675"><ele>534.0</ele><time>2026-04-15T12:12:19.001Z</time></trkpt><trkpt lat="45.52987440947569" lon="11.09892863676617"><ele>531.0</ele><time>2026-04-15T12:12:20.001Z</time></trkpt><trkpt lat="45.52982152654243" lon="11.099124114351444"><ele>528.0</ele><time>2026-04-15T12:12:21.001Z</time></trkpt><trkpt lat="45.529772768973366" lon="11.099315876494956"><ele>525.0</ele><time>2026-04-15T12:12:22.001Z</time></trkpt><trkpt lat="45.52972700013874" lon="11.099526222874202"><ele>522.0</ele><time>2026-04-15T12:12:23.001Z</time></trkpt><trkpt lat="45.52968597601743" lon="11.099726990735249"><ele>519.0</ele><time>2026-04-15T12:12:24.001Z</time></trkpt><trkpt lat="45.52965888562859" lon="11.09992448560552"><ele>516.0</ele><time>2026-04-15T12:12:25.001Z</time></trkpt><trkpt lat="45.529652949125925" lon="11.100116056947748"><ele>513.0</ele><time>2026-04-15T12:12:26.001Z</time></trkpt><trkpt lat="45.52964938790987" lon="11.100304658501964"><ele>510.0</ele><time>2026-04-15T12:12:27.001Z</time></trkpt><trkpt lat="45.52966908966677" lon="11.100486674470362"><ele>510.0</ele><time>2026-04-15T12:12:28.001Z</time></trkpt><trkpt lat="45.52969990091978" lon="11.100661758132214"><ele>510.0</ele><time>2026-04-15T12:12:29.001Z</time></trkpt><trkpt lat="45.529736852700836" lon="11.100826595668888"><ele>510.0</ele><time>2026-04-15T12:12:30.001Z</time></trkpt><trkpt lat="45.52976091733091" lon="11.10097226236234"><ele>510.0</ele><time>2026-04-15T12:12:31.001Z</time></trkpt><trkpt lat="45.529765310270285" lon="11.101079415026138"><ele>510.0</ele><time>2026-04-15T12:12:32.001Z</time></trkpt><trkpt lat="45.52972972762966" lon="11.101208505732616"><ele>509.3333333333333</ele><time>2026-04-15T12:12:34.002Z</time></trkpt><trkpt lat="45.52966300595302" lon="11.101331037747315"><ele>508.66666666666663</ele><time>2026-04-15T12:12:36.002Z</time></trkpt><trkpt lat="45.52966897004573" lon="11.101453937557784"><ele>508.0</ele><time>2026-04-15T12:12:37.002Z</time></trkpt><trkpt lat="45.529672313901095" lon="11.101545649142391"><ele>507.3333333333333</ele><time>2026-04-15T12:12:38.002Z</time></trkpt><trkpt lat="45.52969474644452" lon="11.101638760824214"><ele>506.66666666666663</ele><time>2026-04-15T12:12:39.002Z</time></trkpt><trkpt lat="45.529720097854344" lon="11.101806257360726"><ele>506.0</ele><time>2026-04-15T12:12:41.002Z</time></trkpt><trkpt lat="45.52974110564449" lon="11.101932457105793"><ele>505.49999999999994</ele><time>2026-04-15T12:12:43.002Z</time></trkpt><trkpt lat="45.529749943282376" lon="11.10203856805975"><ele>505.0</ele><time>2026-04-15T12:12:44.999Z</time></trkpt><trkpt lat="45.52976564347133" lon="11.102136050565926"><ele>504.5</ele><time>2026-04-15T12:12:46.999Z</time></trkpt><trkpt lat="45.5297780352033" lon="11.102234553276443"><ele>504.0</ele><time>2026-04-15T12:12:48.999Z</time></trkpt><trkpt lat="45.52979348959807" lon="11.10234174180345"><ele>503.49999999999994</ele><time>2026-04-15T12:12:50.999Z</time></trkpt><trkpt lat="45.52984947332332" lon="11.102475137434597"><ele>503.0</ele><time>2026-04-15T12:12:52.999Z</time></trkpt><trkpt lat="45.52987518492331" lon="11.102557667196274"><ele>502.0</ele><time>2026-04-15T12:12:53.999Z</time></trkpt><trkpt lat="45.52991377001007" lon="11.102653383546565"><ele>501.00000000000006</ele><time>2026-04-15T12:12:54.999Z</time></trkpt><trkpt lat="45.52995327483607" lon="11.102723563962723"><ele>500.0</ele><time>2026-04-15T12:12:55.999Z</time></trkpt><trkpt lat="45.529975241859724" lon="11.102830411238424"><ele>499.0</ele><time>2026-04-15T12:12:56.999Z</time></trkpt><trkpt lat="45.53001519145617" lon="11.102923839065614"><ele>498.00000000000006</ele><time>2026-04-15T12:12:57.999Z</time></trkpt><trkpt lat="45.5300399278834" lon="11.103008443339313"><ele>497.0</ele><time>2026-04-15T12:12:59Z</time></trkpt><trkpt lat="45.53004992146773" lon="11.103116319130523"><ele>496.0</ele><time>2026-04-15T12:13:00Z</time></trkpt><trkpt lat="45.53006394270112" lon="11.103249596917049"><ele>494.0</ele><time>2026-04-15T12:13:01Z</time></trkpt><trkpt lat="45.530075182554256" lon="11.103416586632276"><ele>492.0</ele><time>2026-04-15T12:13:02Z</time></trkpt><trkpt lat="45.530102618466955" lon="11.1035736091935"><ele>490.0</ele><time>2026-04-15T12:13:03Z</time></trkpt><trkpt lat="45.53012064528271" lon="11.103720661793572"><ele>488.0</ele><time>2026-04-15T12:13:04Z</time></trkpt><trkpt lat="45.530131949263165" lon="11.103861306783255"><ele>486.0</ele><time>2026-04-15T12:13:05Z</time></trkpt><trkpt lat="45.53016512867226" lon="11.103988908733267"><ele>485.20000000000005</ele><time>2026-04-15T12:13:06Z</time></trkpt><trkpt lat="45.530208923207915" lon="11.10411364665596"><ele>484.40000000000003</ele><time>2026-04-15T12:13:07Z</time></trkpt><trkpt lat="45.53028394593815" lon="11.104209909785872"><ele>483.6</ele><time>2026-04-15T12:13:08Z</time></trkpt><trkpt lat="45.53034421187737" lon="11.104317285673169"><ele>482.8</ele><time>2026-04-15T12:13:09Z</time></trkpt><trkpt lat="45.5303858536766" lon="11.104427554392547"><ele>482.0</ele><time>2026-04-15T12:13:10Z</time></trkpt><trkpt lat="45.5304507346794" lon="11.104577075133175"><ele>479.7142857142857</ele><time>2026-04-15T12:13:12Z</time></trkpt><trkpt lat="45.53048004669256" lon="11.10468502942939"><ele>477.42857142857144</ele><time>2026-04-15T12:13:13Z</time></trkpt><trkpt lat="45.53051715271846" lon="11.104773301285034"><ele>475.14285714285717</ele><time>2026-04-15T12:13:14Z</time></trkpt><trkpt lat="45.530511015636954" lon="11.104883248820654"><ele>472.8571428571429</ele><time>2026-04-15T12:13:15Z</time></trkpt><trkpt lat="45.5305205569353" lon="11.104978469930586"><ele>470.57142857142856</ele><time>2026-04-15T12:13:16Z</time></trkpt><trkpt lat="45.53053008024678" lon="11.105072746293143"><ele>468.28571428571433</ele><time>2026-04-15T12:13:17Z</time></trkpt><trkpt lat="45.53053211743682" lon="11.105164174571089"><ele>466.0</ele><time>2026-04-15T12:13:18Z</time></trkpt><trkpt lat="45.53048832161431" lon="11.105310335246557"><ele>464.8</ele><time>2026-04-15T12:13:20Z</time></trkpt><trkpt lat="45.530428589254996" lon="11.105442212005775"><ele>463.6</ele><time>2026-04-15T12:13:22Z</time></trkpt><trkpt lat="45.530401639452556" lon="11.105569522874822"><ele>462.4</ele><time>2026-04-15T12:13:24Z</time></trkpt><trkpt lat="45.530448646951406" lon="11.105674183959508"><ele>461.2</ele><time>2026-04-15T12:13:26Z</time></trkpt><trkpt lat="45.530557842536155" lon="11.105745328876408"><ele>460.0</ele><time>2026-04-15T12:13:28Z</time></trkpt><trkpt lat="45.5306315079037" lon="11.10575733616316"><ele>458.6666666666667</ele><time>2026-04-15T12:13:29Z</time></trkpt><trkpt lat="45.53070467633993" lon="11.10579118865172"><ele>457.33333333333337</ele><time>2026-04-15T12:13:30Z</time></trkpt><trkpt lat="45.530773206699266" lon="11.10583774302973"><ele>456.0</ele><time>2026-04-15T12:13:31Z</time></trkpt><trkpt lat="45.530845295353394" lon="11.105877361467785"><ele>454.66666666666663</ele><time>2026-04-15T12:13:32Z</time></trkpt><trkpt lat="45.53090560974132" lon="11.105963546092969"><ele>453.3333333333333</ele><time>2026-04-15T12:13:33Z</time></trkpt><trkpt lat="45.53094839743521" lon="11.106049798940198"><ele>452.0</ele><time>2026-04-15T12:13:34Z</time></trkpt><trkpt lat="45.53099364614249" lon="11.106157759574076"><ele>451.99999999999994</ele><time>2026-04-15T12:13:35Z</time></trkpt><trkpt lat="45.53103079864536" lon="11.10623060238179"><ele>452.0</ele><time>2026-04-15T12:13:36.001Z</time></trkpt><trkpt lat="45.5310895438281" lon="11.106318168738804"><ele>452.0</ele><time>2026-04-15T12:13:37.001Z</time></trkpt><trkpt lat="45.53114881076388" lon="11.106406311893947"><ele>452.0</ele><time>2026-04-15T12:13:38.001Z</time></trkpt><trkpt lat="45.531201115598925" lon="11.106511412851745"><ele>451.99999999999994</ele><time>2026-04-15T12:13:39.001Z</time></trkpt><trkpt lat="45.531256185113676" lon="11.10660962866706"><ele>452.0</ele><time>2026-04-15T12:13:40.001Z</time></trkpt><trkpt lat="45.53131855727121" lon="11.10672218766715"><ele>449.99999999999994</ele><time>2026-04-15T12:13:41.001Z</time></trkpt><trkpt lat="45.53135974970767" lon="11.106827631640542"><ele>448.0</ele><time>2026-04-15T12:13:42.001Z</time></trkpt><trkpt lat="45.53138625483964" lon="11.106919993941098"><ele>446.0</ele><time>2026-04-15T12:13:43.001Z</time></trkpt><trkpt lat="45.531422055883326" lon="11.107039023746585"><ele>444.0</ele><time>2026-04-15T12:13:44.001Z</time></trkpt><trkpt lat="45.53144847145188" lon="11.107140853178878"><ele>441.99999999999994</ele><time>2026-04-15T12:13:45.001Z</time></trkpt><trkpt lat="45.531476011068506" lon="11.10725765269663"><ele>440.0</ele><time>2026-04-15T12:13:46.001Z</time></trkpt><trkpt lat="45.53148655975035" lon="11.107377567654055"><ele>438.3333333333333</ele><time>2026-04-15T12:13:47.001Z</time></trkpt><trkpt lat="45.53148284622815" lon="11.10749685352167"><ele>436.66666666666663</ele><time>2026-04-15T12:13:48.001Z</time></trkpt><trkpt lat="45.531479367866716" lon="11.107607191632553"><ele>435.0</ele><time>2026-04-15T12:13:49.001Z</time></trkpt><trkpt lat="45.531470840300294" lon="11.107712175680561"><ele>433.33333333333337</ele><time>2026-04-15T12:13:50.001Z</time></trkpt><trkpt lat="45.53146144898093" lon="11.107807397706914"><ele>431.6666666666667</ele><time>2026-04-15T12:13:51.001Z</time></trkpt><trkpt lat="45.531456767082446" lon="11.10790446286577"><ele>430.0</ele><time>2026-04-15T12:13:52.001Z</time></trkpt><trkpt lat="45.53145284686565" lon="11.108023313752277"><ele>430.00000000000006</ele><time>2026-04-15T12:13:54.001Z</time></trkpt><trkpt lat="45.531437170284576" lon="11.108115922932447"><ele>430.0</ele><time>2026-04-15T12:13:56.001Z</time></trkpt><trkpt lat="45.53135737674952" lon="11.108230018555595"><ele>430.0</ele><time>2026-04-15T12:13:58.001Z</time></trkpt><trkpt lat="45.53130277703189" lon="11.108299605367606"><ele>430.0</ele><time>2026-04-15T12:13:59.001Z</time></trkpt><trkpt lat="45.531216461210384" lon="11.108412665647629"><ele>430.00000000000006</ele><time>2026-04-15T12:14:01.001Z</time></trkpt><trkpt lat="45.531164911546206" lon="11.108473507297072"><ele>430.0</ele><time>2026-04-15T12:14:02.001Z</time></trkpt><trkpt lat="45.53110794917662" lon="11.108528531434533"><ele>428.1666666666667</ele><time>2026-04-15T12:14:03.001Z</time></trkpt><trkpt lat="45.53104927745758" lon="11.108569243463462"><ele>426.33333333333337</ele><time>2026-04-15T12:14:04.001Z</time></trkpt><trkpt lat="45.530970475303185" lon="11.108605862026307"><ele>424.5</ele><time>2026-04-15T12:14:05.001Z</time></trkpt><trkpt lat="45.5308709541163" lon="11.108661256221245"><ele>422.66666666666663</ele><time>2026-04-15T12:14:06.001Z</time></trkpt><trkpt lat="45.53079281747861" lon="11.108716484060178"><ele>420.8333333333333</ele><time>2026-04-15T12:14:07.001Z</time></trkpt><trkpt lat="45.5307127141138" lon="11.108766983741326"><ele>419.0</ele><time>2026-04-15T12:14:08.001Z</time></trkpt><trkpt lat="45.5306277755362" lon="11.108799118617299"><ele>418.99999999999994</ele><time>2026-04-15T12:14:09.001Z</time></trkpt><trkpt lat="45.530554828900556" lon="11.108807130079418"><ele>419.0</ele><time>2026-04-15T12:14:10.001Z</time></trkpt><trkpt lat="45.53047754452773" lon="11.1088002908862"><ele>419.0</ele><time>2026-04-15T12:14:11.001Z</time></trkpt><trkpt lat="45.53038865285444" lon="11.108773762803331"><ele>419.0</ele><time>2026-04-15T12:14:12.001Z</time></trkpt><trkpt lat="45.530311862636204" lon="11.108745568851191"><ele>418.99999999999994</ele><time>2026-04-15T12:14:13.001Z</time></trkpt><trkpt lat="45.530238317771634" lon="11.108710467637188"><ele>419.0</ele><time>2026-04-15T12:14:14.001Z</time></trkpt><trkpt lat="45.53016718277978" lon="11.10865994536925"><ele>418.2</ele><time>2026-04-15T12:14:15.001Z</time></trkpt><trkpt lat="45.53008345283947" lon="11.10860881316452"><ele>417.4</ele><time>2026-04-15T12:14:16.001Z</time></trkpt><trkpt lat="45.530000989693285" lon="11.10856206104262"><ele>416.6</ele><time>2026-04-15T12:14:17.001Z</time></trkpt><trkpt lat="45.52991823221961" lon="11.108510089025348"><ele>415.8</ele><time>2026-04-15T12:14:18.001Z</time></trkpt><trkpt lat="45.529835707487734" lon="11.108448355029154"><ele>415.0</ele><time>2026-04-15T12:14:19.001Z</time></trkpt><trkpt lat="45.5297552203669" lon="11.108387572105983"><ele>415.00000000000006</ele><time>2026-04-15T12:14:20.001Z</time></trkpt><trkpt lat="45.52967439263063" lon="11.108320440123789"><ele>415.0</ele><time>2026-04-15T12:14:21.001Z</time></trkpt><trkpt lat="45.529597716344476" lon="11.108254553214808"><ele>415.0</ele><time>2026-04-15T12:14:22.001Z</time></trkpt><trkpt lat="45.52951915692545" lon="11.10819124074931"><ele>415.0</ele><time>2026-04-15T12:14:23.001Z</time></trkpt><trkpt lat="45.52944475977084" lon="11.10812238446045"><ele>415.00000000000006</ele><time>2026-04-15T12:14:24.001Z</time></trkpt><trkpt lat="45.52938105495723" lon="11.108051713604501"><ele>415.0</ele><time>2026-04-15T12:14:25.001Z</time></trkpt><trkpt lat="45.529336996782696" lon="11.107978734836108"><ele>415.83333333333337</ele><time>2026-04-15T12:14:27.002Z</time></trkpt><trkpt lat="45.52927416221449" lon="11.108046657370185"><ele>416.6666666666667</ele><time>2026-04-15T12:14:29.002Z</time></trkpt><trkpt lat="45.52927601141253" lon="11.108189999883686"><ele>417.5</ele><time>2026-04-15T12:14:31.002Z</time></trkpt><trkpt lat="45.52931182487382" lon="11.108271391493338"><ele>418.33333333333337</ele><time>2026-04-15T12:14:32.002Z</time></trkpt><trkpt lat="45.52937166122092" lon="11.108347969958825"><ele>419.1666666666667</ele><time>2026-04-15T12:14:33.002Z</time></trkpt><trkpt lat="45.5294149265776" lon="11.108488227680143"><ele>420.0</ele><time>2026-04-15T12:14:35.002Z</time></trkpt><trkpt lat="45.529380843356826" lon="11.10857541684173"><ele>420.0</ele><time>2026-04-15T12:14:36.002Z</time></trkpt><trkpt lat="45.529327279545434" lon="11.108686359879904"><ele>420.0</ele><time>2026-04-15T12:14:37.002Z</time></trkpt><trkpt lat="45.52929226436938" lon="11.108794320212521"><ele>420.0</ele><time>2026-04-15T12:14:38.002Z</time></trkpt><trkpt lat="45.52926312767656" lon="11.108919753235169"><ele>420.0</ele><time>2026-04-15T12:14:39.002Z</time></trkpt><trkpt lat="45.529188984845206" lon="11.109049356321977"><ele>420.0</ele><time>2026-04-15T12:14:41.002Z</time></trkpt><trkpt lat="45.52914856061204" lon="11.109122464349136"><ele>418.1666666666667</ele><time>2026-04-15T12:14:42.002Z</time></trkpt><trkpt lat="45.52912168023563" lon="11.109228969222725"><ele>416.33333333333337</ele><time>2026-04-15T12:14:43.002Z</time></trkpt><trkpt lat="45.52910593186589" lon="11.109391926019738"><ele>414.5</ele><time>2026-04-15T12:14:44.002Z</time></trkpt><trkpt lat="45.5290457599148" lon="11.10947148264945"><ele>412.6666666666667</ele><time>2026-04-15T12:14:45.002Z</time></trkpt><trkpt lat="45.52899122040148" lon="11.109546141633025"><ele>410.83333333333337</ele><time>2026-04-15T12:14:46.002Z</time></trkpt><trkpt lat="45.5289649425657" lon="11.109636688610381"><ele>409.0</ele><time>2026-04-15T12:14:47.002Z</time></trkpt><trkpt lat="45.5289451668009" lon="11.109742994728185"><ele>409.0</ele><time>2026-04-15T12:14:48.002Z</time></trkpt><trkpt lat="45.52892812908747" lon="11.10983391088722"><ele>409.0</ele><time>2026-04-15T12:14:49.002Z</time></trkpt><trkpt lat="45.5288676188006" lon="11.109899199697967"><ele>409.0</ele><time>2026-04-15T12:14:50.002Z</time></trkpt><trkpt lat="45.52878769191042" lon="11.109969696066198"><ele>409.0</ele><time>2026-04-15T12:14:51.999Z</time></trkpt><trkpt lat="45.52869538635484" lon="11.110036086918115"><ele>409.0</ele><time>2026-04-15T12:14:53.999Z</time></trkpt><trkpt lat="45.528589577853786" lon="11.110106757344099"><ele>408.6</ele><time>2026-04-15T12:14:55.999Z</time></trkpt><trkpt lat="45.52851162639959" lon="11.110125413645141"><ele>408.2</ele><time>2026-04-15T12:14:56.999Z</time></trkpt><trkpt lat="45.52843920126463" lon="11.110143199858069"><ele>407.8</ele><time>2026-04-15T12:14:57.999Z</time></trkpt><trkpt lat="45.52835517768968" lon="11.110168403287762"><ele>407.40000000000003</ele><time>2026-04-15T12:14:59.999Z</time></trkpt><trkpt lat="45.52822425181769" lon="11.110239169225027"><ele>407.0</ele><time>2026-04-15T12:15:01.999Z</time></trkpt><trkpt lat="45.52815047225508" lon="11.11027132456899"><ele>406.99999999999994</ele><time>2026-04-15T12:15:02.999Z</time></trkpt><trkpt lat="45.52807530754093" lon="11.110278049233639"><ele>407.0</ele><time>2026-04-15T12:15:03.999Z</time></trkpt><trkpt lat="45.52798631096161" lon="11.110265795406459"><ele>407.0</ele><time>2026-04-15T12:15:04.999Z</time></trkpt><trkpt lat="45.52791185381248" lon="11.11027849452376"><ele>407.0</ele><time>2026-04-15T12:15:05.999Z</time></trkpt><trkpt lat="45.527812666402184" lon="11.110249446029801"><ele>406.99999999999994</ele><time>2026-04-15T12:15:08Z</time></trkpt><trkpt lat="45.5277905606786" lon="11.110388584092114"><ele>407.0</ele><time>2026-04-15T12:15:13Z</time></trkpt><trkpt lat="45.52780011555563" lon="11.110527775215012"><ele>406.20000000000005</ele><time>2026-04-15T12:15:15Z</time></trkpt><trkpt lat="45.52776752812628" lon="11.110614220462944"><ele>405.4</ele><time>2026-04-15T12:15:16Z</time></trkpt><trkpt lat="45.527721833080236" lon="11.110770344363425"><ele>404.6</ele><time>2026-04-15T12:15:18Z</time></trkpt><trkpt lat="45.527692007280734" lon="11.110857886360591"><ele>403.79999999999995</ele><time>2026-04-15T12:15:20Z</time></trkpt><trkpt lat="45.527618938249944" lon="11.110980697857437"><ele>403.0</ele><time>2026-04-15T12:15:22Z</time></trkpt><trkpt lat="45.52751603143329" lon="11.111077653216118"><ele>403.00000000000006</ele><time>2026-04-15T12:15:24Z</time></trkpt><trkpt lat="45.5274692076591" lon="11.1111418770135"><ele>403.0</ele><time>2026-04-15T12:15:25Z</time></trkpt><trkpt lat="45.52743142012391" lon="11.111286299642332"><ele>403.0</ele><time>2026-04-15T12:15:27Z</time></trkpt><trkpt lat="45.52737826999332" lon="11.11139951511133"><ele>403.0</ele><time>2026-04-15T12:15:29Z</time></trkpt><trkpt lat="45.527432783478794" lon="11.11153196599495"><ele>403.00000000000006</ele><time>2026-04-15T12:15:31Z</time></trkpt><trkpt lat="45.5274824755617" lon="11.111597874634272"><ele>403.0</ele><time>2026-04-15T12:15:32Z</time></trkpt><trkpt lat="45.527484749964884" lon="11.111754800560831"><ele>400.50000000000006</ele><time>2026-04-15T12:15:34Z</time></trkpt><trkpt lat="45.527454936774014" lon="11.111859732742351"><ele>398.0</ele><time>2026-04-15T12:15:35Z</time></trkpt><trkpt lat="45.52740282642412" lon="11.111949360202576"><ele>395.5</ele><time>2026-04-15T12:15:36Z</time></trkpt><trkpt lat="45.527347365806335" lon="11.112033332742937"><ele>393.0</ele><time>2026-04-15T12:15:37Z</time></trkpt><trkpt lat="45.527313337020814" lon="11.112116394120054"><ele>390.50000000000006</ele><time>2026-04-15T12:15:38Z</time></trkpt><trkpt lat="45.527273625125474" lon="11.112200721457397"><ele>388.0</ele><time>2026-04-15T12:15:39Z</time></trkpt><trkpt lat="45.52723734856046" lon="11.112310423812017"><ele>388.00000000000006</ele><time>2026-04-15T12:15:40Z</time></trkpt><trkpt lat="45.52717793558527" lon="11.1124014042873"><ele>388.0</ele><time>2026-04-15T12:15:41Z</time></trkpt><trkpt lat="45.52713218938143" lon="11.112494694589811"><ele>388.0</ele><time>2026-04-15T12:15:42.001Z</time></trkpt><trkpt lat="45.52706438048011" lon="11.112554310609422"><ele>388.0</ele><time>2026-04-15T12:15:43.001Z</time></trkpt><trkpt lat="45.52699889124949" lon="11.112609017542626"><ele>388.00000000000006</ele><time>2026-04-15T12:15:44.001Z</time></trkpt><trkpt lat="45.52689795693113" lon="11.11268690394634"><ele>388.0</ele><time>2026-04-15T12:15:46.001Z</time></trkpt><trkpt lat="45.52684008763863" lon="11.112730724763367"><ele>387.59999999999997</ele><time>2026-04-15T12:15:47.001Z</time></trkpt><trkpt lat="45.52670364928645" lon="11.11278831466931"><ele>387.2</ele><time>2026-04-15T12:15:49.001Z</time></trkpt><trkpt lat="45.52660563062923" lon="11.112806384611657"><ele>386.8</ele><time>2026-04-15T12:15:50.001Z</time></trkpt><trkpt lat="45.526507892680826" lon="11.112806349529592"><ele>386.4</ele><time>2026-04-15T12:15:51.001Z</time></trkpt><trkpt lat="45.52642994453764" lon="11.112815214685531"><ele>386.0</ele><time>2026-04-15T12:15:52.001Z</time></trkpt><trkpt lat="45.52636386617312" lon="11.112814762035018"><ele>386.0</ele><time>2026-04-15T12:15:53.001Z</time></trkpt><trkpt lat="45.52626489352501" lon="11.112850671158647"><ele>386.0</ele><time>2026-04-15T12:15:55.001Z</time></trkpt><trkpt lat="45.52622646093478" lon="11.112935799711273"><ele>386.0</ele><time>2026-04-15T12:15:56.001Z</time></trkpt><trkpt lat="45.52615107756713" lon="11.11300842811335"><ele>386.0</ele><time>2026-04-15T12:15:57.001Z</time></trkpt><trkpt lat="45.526062380539486" lon="11.113101767919435"><ele>386.0</ele><time>2026-04-15T12:15:58.001Z</time></trkpt><trkpt lat="45.52595131922899" lon="11.113184010416063"><ele>385.4</ele><time>2026-04-15T12:15:59.001Z</time></trkpt><trkpt lat="45.5258802603579" lon="11.11329876397863"><ele>384.8</ele><time>2026-04-15T12:16:00.001Z</time></trkpt><trkpt lat="45.525825823740256" lon="11.113379288028739"><ele>384.2</ele><time>2026-04-15T12:16:01.001Z</time></trkpt><trkpt lat="45.52576477697856" lon="11.113481343472202"><ele>383.59999999999997</ele><time>2026-04-15T12:16:02.001Z</time></trkpt><trkpt lat="45.52566954190495" lon="11.11354123111495"><ele>383.0</ele><time>2026-04-15T12:16:03.001Z</time></trkpt><trkpt lat="45.525578520767304" lon="11.11364052094865"><ele>383.0</ele><time>2026-04-15T12:16:04.001Z</time></trkpt><trkpt lat="45.525503919772156" lon="11.11374667531356"><ele>383.0</ele><time>2026-04-15T12:16:05.001Z</time></trkpt><trkpt lat="45.525431200429324" lon="11.113835158860901"><ele>383.0</ele><time>2026-04-15T12:16:06.001Z</time></trkpt><trkpt lat="45.52537432046578" lon="11.113911530880973"><ele>383.0</ele><time>2026-04-15T12:16:07.001Z</time></trkpt><trkpt lat="45.52531101483024" lon="11.114010979906348"><ele>383.0</ele><time>2026-04-15T12:16:08.001Z</time></trkpt><trkpt lat="45.52525383010606" lon="11.114093981402569"><ele>382.6666666666667</ele><time>2026-04-15T12:16:09.001Z</time></trkpt><trkpt lat="45.52519789934965" lon="11.114147220220062"><ele>382.33333333333337</ele><time>2026-04-15T12:16:10.001Z</time></trkpt><trkpt lat="45.52513194311936" lon="11.11419094473418"><ele>382.0</ele><time>2026-04-15T12:16:11.001Z</time></trkpt><trkpt lat="45.52507184756195" lon="11.11424656698216"><ele>381.6666666666667</ele><time>2026-04-15T12:16:12.001Z</time></trkpt><trkpt lat="45.524999765431474" lon="11.114339838227304"><ele>381.3333333333333</ele><time>2026-04-15T12:16:14.001Z</time></trkpt><trkpt lat="45.52493232958991" lon="11.114426912987668"><ele>381.0</ele><time>2026-04-15T12:16:16.001Z</time></trkpt><trkpt lat="45.52487408443859" lon="11.114517880475029"><ele>381.0</ele><time>2026-04-15T12:16:18.001Z</time></trkpt><trkpt lat="45.52480737815652" lon="11.11454544941977"><ele>381.0</ele><time>2026-04-15T12:16:20.001Z</time></trkpt><trkpt lat="45.524726110293486" lon="11.114584097639652"><ele>381.0</ele><time>2026-04-15T12:18:31.002Z</time></trkpt><trkpt lat="45.52463743359506" lon="11.11451279513838"><ele>381.0</ele><time>2026-04-15T12:18:33.002Z</time></trkpt><trkpt lat="45.52456979972638" lon="11.114436586445514"><ele>381.0</ele><time>2026-04-15T12:18:34.002Z</time></trkpt><trkpt lat="45.52449502460771" lon="11.114389695205425"><ele>381.0</ele><time>2026-04-15T12:18:35.002Z</time></trkpt><trkpt lat="45.5244364340793" lon="11.11432905712979"><ele>382.8</ele><time>2026-04-15T12:18:36.002Z</time></trkpt><trkpt lat="45.524316118155305" lon="11.114294223527125"><ele>384.6</ele><time>2026-04-15T12:18:38.002Z</time></trkpt><trkpt lat="45.52425341623303" lon="11.114332377828525"><ele>386.4</ele><time>2026-04-15T12:18:39.002Z</time></trkpt><trkpt lat="45.52416680148635" lon="11.114412512435898"><ele>388.2</ele><time>2026-04-15T12:18:41.002Z</time></trkpt><trkpt lat="45.52410211822133" lon="11.114458616401109"><ele>390.0</ele><time>2026-04-15T12:18:43.002Z</time></trkpt><trkpt lat="45.524006182836345" lon="11.114463234648165"><ele>390.0</ele><time>2026-04-15T12:18:45.002Z</time></trkpt><trkpt lat="45.52390625079126" lon="11.114385800166573"><ele>390.0</ele><time>2026-04-15T12:18:47.002Z</time></trkpt><trkpt lat="45.52382724245382" lon="11.114293470731248"><ele>390.0</ele><time>2026-04-15T12:18:49.002Z</time></trkpt><trkpt lat="45.523762379434984" lon="11.114284708643673"><ele>390.0</ele><time>2026-04-15T12:18:50.002Z</time></trkpt><trkpt lat="45.52369125869542" lon="11.114294754931723"><ele>390.0</ele><time>2026-04-15T12:18:51.002Z</time></trkpt><trkpt lat="45.52360098403987" lon="11.114280639973392"><ele>390.0</ele><time>2026-04-15T12:18:52.002Z</time></trkpt><trkpt lat="45.523504361399084" lon="11.114262003988415"><ele>390.4</ele><time>2026-04-15T12:18:53.002Z</time></trkpt><trkpt lat="45.52340944259577" lon="11.114233546333828"><ele>390.8</ele><time>2026-04-15T12:18:54.002Z</time></trkpt><trkpt lat="45.52331364359612" lon="11.114187654791225"><ele>391.20000000000005</ele><time>2026-04-15T12:18:55.002Z</time></trkpt><trkpt lat="45.523214271708774" lon="11.114134939402971"><ele>391.6</ele><time>2026-04-15T12:18:56.002Z</time></trkpt><trkpt lat="45.52311907979054" lon="11.114078465394451"><ele>392.0</ele><time>2026-04-15T12:18:57.002Z</time></trkpt><trkpt lat="45.52304118175398" lon="11.114026226514493"><ele>393.49999999999994</ele><time>2026-04-15T12:18:58.002Z</time></trkpt><trkpt lat="45.522977172311414" lon="11.113973969155024"><ele>395.0</ele><time>2026-04-15T12:18:59.002Z</time></trkpt><trkpt lat="45.52292506581669" lon="11.113921948957032"><ele>396.5</ele><time>2026-04-15T12:19:00.002Z</time></trkpt><trkpt lat="45.52283742185195" lon="11.113905027489414"><ele>398.0</ele><time>2026-04-15T12:19:02.002Z</time></trkpt><trkpt lat="45.52277206108238" lon="11.114021091937886"><ele>399.49999999999994</ele><time>2026-04-15T12:19:04.001Z</time></trkpt><trkpt lat="45.522752799093645" lon="11.114185908614955"><ele>401.0</ele><time>2026-04-15T12:19:06.001Z</time></trkpt><trkpt lat="45.52286103639894" lon="11.114298254190771"><ele>399.49999999999994</ele><time>2026-04-15T12:19:07.001Z</time></trkpt><trkpt lat="45.52289990955838" lon="11.11439202076904"><ele>398.0</ele><time>2026-04-15T12:19:08.001Z</time></trkpt><trkpt lat="45.52293003807381" lon="11.114513701427546"><ele>396.5</ele><time>2026-04-15T12:19:09.001Z</time></trkpt><trkpt lat="45.522957022037076" lon="11.11462734845969"><ele>395.0</ele><time>2026-04-15T12:19:10.001Z</time></trkpt><trkpt lat="45.52297008957274" lon="11.114731690383048"><ele>393.49999999999994</ele><time>2026-04-15T12:19:11.001Z</time></trkpt><trkpt lat="45.52297029092953" lon="11.114822100604927"><ele>392.0</ele><time>2026-04-15T12:19:12.001Z</time></trkpt><trkpt lat="45.522948435143164" lon="11.114908197407603"><ele>392.49999999999994</ele><time>2026-04-15T12:19:13.001Z</time></trkpt><trkpt lat="45.522907765994084" lon="11.1150003364773"><ele>393.0</ele><time>2026-04-15T12:19:14.001Z</time></trkpt><trkpt lat="45.52284529447957" lon="11.115078901034153"><ele>393.5</ele><time>2026-04-15T12:19:15.001Z</time></trkpt><trkpt lat="45.52278341398827" lon="11.115118185437092"><ele>394.0</ele><time>2026-04-15T12:19:16.001Z</time></trkpt><trkpt lat="45.52271560346247" lon="11.11513881864163"><ele>394.49999999999994</ele><time>2026-04-15T12:19:17.001Z</time></trkpt><trkpt lat="45.522633830467065" lon="11.115137321764623"><ele>395.0</ele><time>2026-04-15T12:19:18.001Z</time></trkpt><trkpt lat="45.52252094552061" lon="11.115129267592001"><ele>395.0</ele><time>2026-04-15T12:19:19.001Z</time></trkpt><trkpt lat="45.52240939009062" lon="11.11510893400902"><ele>395.0</ele><time>2026-04-15T12:19:20.001Z</time></trkpt><trkpt lat="45.52229501218218" lon="11.115068928870848"><ele>395.0</ele><time>2026-04-15T12:19:21.001Z</time></trkpt><trkpt lat="45.5221811700708" lon="11.115017320402503"><ele>395.0</ele><time>2026-04-15T12:19:22.001Z</time></trkpt><trkpt lat="45.52207429989514" lon="11.11496559331693"><ele>395.2</ele><time>2026-04-15T12:19:23.001Z</time></trkpt><trkpt lat="45.521974698301214" lon="11.114936155475032"><ele>395.4</ele><time>2026-04-15T12:19:24.001Z</time></trkpt><trkpt lat="45.521883108048435" lon="11.114886543393727"><ele>395.6</ele><time>2026-04-15T12:19:25.001Z</time></trkpt><trkpt lat="45.521788126462084" lon="11.11488007065508"><ele>395.8</ele><time>2026-04-15T12:19:26.001Z</time></trkpt><trkpt lat="45.521673596886274" lon="11.114916270739204"><ele>396.0</ele><time>2026-04-15T12:19:27.001Z</time></trkpt><trkpt lat="45.521549474093156" lon="11.114966886786233"><ele>396.0</ele><time>2026-04-15T12:19:28.001Z</time></trkpt><trkpt lat="45.52142204611377" lon="11.115013030772936"><ele>396.0</ele><time>2026-04-15T12:19:29.001Z</time></trkpt><trkpt lat="45.52131100911352" lon="11.1150527831387"><ele>396.0</ele><time>2026-04-15T12:19:30.001Z</time></trkpt><trkpt lat="45.52120570983735" lon="11.115070513653334"><ele>396.0</ele><time>2026-04-15T12:19:31.001Z</time></trkpt><trkpt lat="45.52111036812205" lon="11.11509345528437"><ele>396.0</ele><time>2026-04-15T12:19:32.001Z</time></trkpt><trkpt lat="45.52101708169056" lon="11.115105200426727"><ele>395.8</ele><time>2026-04-15T12:19:33.001Z</time></trkpt><trkpt lat="45.520931416186414" lon="11.115084551465635"><ele>395.6</ele><time>2026-04-15T12:19:34.001Z</time></trkpt><trkpt lat="45.52082420534657" lon="11.115042917734023"><ele>395.4</ele><time>2026-04-15T12:19:35.001Z</time></trkpt><trkpt lat="45.52072316622752" lon="11.114984970236623"><ele>395.2</ele><time>2026-04-15T12:19:36.001Z</time></trkpt><trkpt lat="45.52064150155613" lon="11.114889622954566"><ele>395.0</ele><time>2026-04-15T12:19:37.001Z</time></trkpt><trkpt lat="45.52054022319347" lon="11.114808909795606"><ele>397.2</ele><time>2026-04-15T12:19:38.001Z</time></trkpt><trkpt lat="45.52043769503166" lon="11.114749002759927"><ele>399.4</ele><time>2026-04-15T12:19:39.001Z</time></trkpt><trkpt lat="45.52033397187514" lon="11.11468669224009"><ele>401.6</ele><time>2026-04-15T12:19:40.001Z</time></trkpt><trkpt lat="45.52023065261802" lon="11.114647001161421"><ele>403.8</ele><time>2026-04-15T12:19:41.001Z</time></trkpt><trkpt lat="45.52012604493296" lon="11.1146421371083"><ele>406.0</ele><time>2026-04-15T12:19:42.001Z</time></trkpt><trkpt lat="45.52001972708989" lon="11.114684729073527"><ele>406.0</ele><time>2026-04-15T12:19:43.001Z</time></trkpt><trkpt lat="45.51991604559327" lon="11.114738264418108"><ele>406.0</ele><time>2026-04-15T12:19:44.001Z</time></trkpt><trkpt lat="45.519805515678065" lon="11.114735553824659"><ele>406.0</ele><time>2026-04-15T12:19:45.001Z</time></trkpt><trkpt lat="45.51971014493673" lon="11.11474418724822"><ele>406.0</ele><time>2026-04-15T12:19:46.001Z</time></trkpt><trkpt lat="45.51962333142971" lon="11.114735910628836"><ele>406.0</ele><time>2026-04-15T12:19:47.001Z</time></trkpt><trkpt lat="45.5195363759802" lon="11.114717061718038"><ele>403.75</ele><time>2026-04-15T12:19:48.001Z</time></trkpt><trkpt lat="45.5194281078976" lon="11.114686636284313"><ele>401.5</ele><time>2026-04-15T12:19:49.001Z</time></trkpt><trkpt lat="45.519305982902964" lon="11.11464643394783"><ele>399.25</ele><time>2026-04-15T12:19:50.001Z</time></trkpt><trkpt lat="45.51918421204693" lon="11.114601262613762"><ele>397.0</ele><time>2026-04-15T12:19:51.001Z</time></trkpt><trkpt lat="45.51906626562052" lon="11.114576828283441"><ele>397.0</ele><time>2026-04-15T12:19:52.001Z</time></trkpt><trkpt lat="45.51897101592594" lon="11.114498922186824"><ele>397.0</ele><time>2026-04-15T12:19:53.001Z</time></trkpt><trkpt lat="45.5188765579869" lon="11.114428340897001"><ele>397.0</ele><time>2026-04-15T12:19:54.001Z</time></trkpt><trkpt lat="45.51878467950049" lon="11.114343027124104"><ele>397.0</ele><time>2026-04-15T12:19:55.001Z</time></trkpt><trkpt lat="45.51871811124869" lon="11.114252626480553"><ele>397.0</ele><time>2026-04-15T12:19:56.001Z</time></trkpt><trkpt lat="45.51868481974339" lon="11.11409624567261"><ele>397.0</ele><time>2026-04-15T12:19:58.001Z</time></trkpt><trkpt lat="45.51867913393235" lon="11.11400042903313"><ele>397.0</ele><time>2026-04-15T12:19:59.001Z</time></trkpt><trkpt lat="45.518690352245684" lon="11.113868259601512"><ele>397.0</ele><time>2026-04-15T12:20:00.001Z</time></trkpt><trkpt lat="45.51871961883146" lon="11.113727312885926"><ele>397.0</ele><time>2026-04-15T12:20:01.001Z</time></trkpt><trkpt lat="45.518756449587315" lon="11.113573455201935"><ele>397.0</ele><time>2026-04-15T12:20:02.001Z</time></trkpt><trkpt lat="45.51880462481346" lon="11.11341658073786"><ele>397.0</ele><time>2026-04-15T12:20:03.001Z</time></trkpt><trkpt lat="45.51884997645079" lon="11.11326413281321"><ele>397.0</ele><time>2026-04-15T12:20:04.001Z</time></trkpt><trkpt lat="45.51887669106644" lon="11.113105435943393"><ele>397.0</ele><time>2026-04-15T12:20:05.001Z</time></trkpt><trkpt lat="45.518907848874186" lon="11.112943292827802"><ele>397.0</ele><time>2026-04-15T12:20:06.002Z</time></trkpt><trkpt lat="45.51892979740062" lon="11.112781484618335"><ele>396.0</ele><time>2026-04-15T12:20:07.002Z</time></trkpt><trkpt lat="45.518953060444005" lon="11.11262480968308"><ele>395.0</ele><time>2026-04-15T12:20:08.002Z</time></trkpt><trkpt lat="45.51895407285988" lon="11.112465475320073"><ele>394.0</ele><time>2026-04-15T12:20:09.002Z</time></trkpt><trkpt lat="45.5189727950452" lon="11.112298542073473"><ele>393.0</ele><time>2026-04-15T12:20:10.002Z</time></trkpt><trkpt lat="45.51898046144677" lon="11.112145588085676"><ele>393.0</ele><time>2026-04-15T12:20:11.002Z</time></trkpt><trkpt lat="45.518972380049064" lon="11.112026244312204"><ele>393.0</ele><time>2026-04-15T12:20:12.002Z</time></trkpt><trkpt lat="45.518945146616595" lon="11.111915126674555"><ele>393.0</ele><time>2026-04-15T12:20:14.002Z</time></trkpt><trkpt lat="45.51887783025998" lon="11.11190641889741"><ele>393.0</ele><time>2026-04-15T12:20:15.002Z</time></trkpt><trkpt lat="45.51881807776611" lon="11.111974185262318"><ele>393.0</ele><time>2026-04-15T12:20:16.002Z</time></trkpt><trkpt lat="45.518757192905504" lon="11.11208468758132"><ele>393.0</ele><time>2026-04-15T12:20:17.002Z</time></trkpt><trkpt lat="45.51866544002537" lon="11.112159308004824"><ele>393.79999999999995</ele><time>2026-04-15T12:20:18.002Z</time></trkpt><trkpt lat="45.518587076532384" lon="11.112148837028121"><ele>394.6</ele><time>2026-04-15T12:20:19.002Z</time></trkpt><trkpt lat="45.51848018907631" lon="11.112163759852907"><ele>395.4</ele><time>2026-04-15T12:20:20.002Z</time></trkpt><trkpt lat="45.5183641856285" lon="11.112153074073246"><ele>396.20000000000005</ele><time>2026-04-15T12:20:21.002Z</time></trkpt><trkpt lat="45.518243397579205" lon="11.112139367771864"><ele>397.0</ele><time>2026-04-15T12:20:22.002Z</time></trkpt><trkpt lat="45.51812250119511" lon="11.112122506236997"><ele>397.0</ele><time>2026-04-15T12:20:23.002Z</time></trkpt><trkpt lat="45.51799743620268" lon="11.11210129745285"><ele>397.0</ele><time>2026-04-15T12:20:24.002Z</time></trkpt><trkpt lat="45.51785918755742" lon="11.112076269898314"><ele>397.0</ele><time>2026-04-15T12:20:25.002Z</time></trkpt><trkpt lat="45.51773297846592" lon="11.11205097537909"><ele>397.0</ele><time>2026-04-15T12:20:26.002Z</time></trkpt><trkpt lat="45.517622569787335" lon="11.112007444722712"><ele>397.0</ele><time>2026-04-15T12:20:27.002Z</time></trkpt><trkpt lat="45.51751088605888" lon="11.111950643232992"><ele>397.0</ele><time>2026-04-15T12:20:28.002Z</time></trkpt><trkpt lat="45.517418408925465" lon="11.111888590097447"><ele>397.0</ele><time>2026-04-15T12:20:29.002Z</time></trkpt><trkpt lat="45.51734265921628" lon="11.111819673394871"><ele>397.0</ele><time>2026-04-15T12:20:30.002Z</time></trkpt><trkpt lat="45.51725710191506" lon="11.111728544851484"><ele>397.0</ele><time>2026-04-15T12:20:31.002Z</time></trkpt><trkpt lat="45.517159432955275" lon="11.11164044030814"><ele>399.8</ele><time>2026-04-15T12:20:32.002Z</time></trkpt><trkpt lat="45.51708813002419" lon="11.1114944887769"><ele>402.6</ele><time>2026-04-15T12:20:33.002Z</time></trkpt><trkpt lat="45.51701621048664" lon="11.111393721222038"><ele>405.40000000000003</ele><time>2026-04-15T12:20:34.002Z</time></trkpt><trkpt lat="45.516934471510375" lon="11.111305581049939"><ele>408.20000000000005</ele><time>2026-04-15T12:20:35.002Z</time></trkpt><trkpt lat="45.516821772879936" lon="11.111289212366724"><ele>411.0</ele><time>2026-04-15T12:20:36.002Z</time></trkpt><trkpt lat="45.516707618340895" lon="11.11130772069213"><ele>411.0</ele><time>2026-04-15T12:20:37.002Z</time></trkpt><trkpt lat="45.51658823803441" lon="11.111342638413692"><ele>411.0</ele><time>2026-04-15T12:20:38.002Z</time></trkpt><trkpt lat="45.51646162216888" lon="11.111364205850109"><ele>411.0</ele><time>2026-04-15T12:20:39.002Z</time></trkpt><trkpt lat="45.51634296225993" lon="11.111446155463028"><ele>411.0</ele><time>2026-04-15T12:20:40.002Z</time></trkpt><trkpt lat="45.5162192327686" lon="11.111492903470298"><ele>411.3333333333333</ele><time>2026-04-15T12:20:41.002Z</time></trkpt><trkpt lat="45.51612518731082" lon="11.111529376460519"><ele>411.66666666666663</ele><time>2026-04-15T12:20:42.002Z</time></trkpt><trkpt lat="45.516054564064405" lon="11.111554783400075"><ele>412.0</ele><time>2026-04-15T12:20:43.002Z</time></trkpt><trkpt lat="45.51599024651035" lon="11.111532685144322"><ele>412.3333333333333</ele><time>2026-04-15T12:20:44.002Z</time></trkpt><trkpt lat="45.51590058716337" lon="11.111540455549502"><ele>412.66666666666663</ele><time>2026-04-15T12:20:46.002Z</time></trkpt><trkpt lat="45.51597596967736" lon="11.11145404683063"><ele>413.0</ele><time>2026-04-15T12:20:49.002Z</time></trkpt><trkpt lat="45.51587994942967" lon="11.111955903265349"><ele>411.0</ele><time>2026-04-15T12:21:00.003Z</time></trkpt><trkpt lat="45.51583646102145" lon="11.112077490934594"><ele>409.0</ele><time>2026-04-15T12:21:01.003Z</time></trkpt><trkpt lat="45.515788093891544" lon="11.112207495596524"><ele>407.0</ele><time>2026-04-15T12:21:02.003Z</time></trkpt><trkpt lat="45.515737723473386" lon="11.112350065558129"><ele>405.0</ele><time>2026-04-15T12:21:03.003Z</time></trkpt><trkpt lat="45.515680868642" lon="11.112473742768717"><ele>403.0</ele><time>2026-04-15T12:21:04.003Z</time></trkpt><trkpt lat="45.51562514400628" lon="11.112609223977268"><ele>401.2</ele><time>2026-04-15T12:21:05.003Z</time></trkpt><trkpt lat="45.51558013433061" lon="11.112750676821998"><ele>399.4</ele><time>2026-04-15T12:21:06.003Z</time></trkpt><trkpt lat="45.51554396940407" lon="11.112887474694496"><ele>397.59999999999997</ele><time>2026-04-15T12:21:07.003Z</time></trkpt><trkpt lat="45.515517044691876" lon="11.113033195564798"><ele>395.79999999999995</ele><time>2026-04-15T12:21:08.003Z</time></trkpt><trkpt lat="45.515500406840836" lon="11.113164606044737"><ele>394.0</ele><time>2026-04-15T12:21:09.001Z</time></trkpt><trkpt lat="45.51548490534252" lon="11.113314431454704"><ele>393.1666666666667</ele><time>2026-04-15T12:21:10.001Z</time></trkpt><trkpt lat="45.51547245919394" lon="11.113422775964576"><ele>392.33333333333337</ele><time>2026-04-15T12:21:11.001Z</time></trkpt><trkpt lat="45.515461600641686" lon="11.113544343574599"><ele>391.5</ele><time>2026-04-15T12:21:12.001Z</time></trkpt><trkpt lat="45.515452664888485" lon="11.113662637045051"><ele>390.66666666666663</ele><time>2026-04-15T12:21:13.001Z</time></trkpt><trkpt lat="45.51543997805069" lon="11.11377207136486"><ele>389.8333333333333</ele><time>2026-04-15T12:21:14.001Z</time></trkpt><trkpt lat="45.5154175977421" lon="11.11386820034877"><ele>389.0</ele><time>2026-04-15T12:21:15.001Z</time></trkpt><trkpt lat="45.51537427571795" lon="11.114015750787521"><ele>387.99999999999994</ele><time>2026-04-15T12:21:17.001Z</time></trkpt><trkpt lat="45.515321502093734" lon="11.11409617253966"><ele>387.0</ele><time>2026-04-15T12:21:19.001Z</time></trkpt><trkpt lat="45.51520720357811" lon="11.114049643993065"><ele>386.0</ele><time>2026-04-15T12:21:21.001Z</time></trkpt><trkpt lat="45.5151323170642" lon="11.113995806921189"><ele>385.0</ele><time>2026-04-15T12:21:22.001Z</time></trkpt><trkpt lat="45.51506026011572" lon="11.113943848001243"><ele>384.0</ele><time>2026-04-15T12:21:23.001Z</time></trkpt><trkpt lat="45.51499534613019" lon="11.113872680340078"><ele>383.0</ele><time>2026-04-15T12:21:24.001Z</time></trkpt><trkpt lat="45.51495347867842" lon="11.113801022713613"><ele>383.0</ele><time>2026-04-15T12:21:25.001Z</time></trkpt><trkpt lat="45.514854069915074" lon="11.113709738060525"><ele>383.0</ele><time>2026-04-15T12:21:27.001Z</time></trkpt><trkpt lat="45.514763050119676" lon="11.11355217985619"><ele>383.0</ele><time>2026-04-15T12:21:29.001Z</time></trkpt><trkpt lat="45.51472469470195" lon="11.11347065947909"><ele>383.0</ele><time>2026-04-15T12:21:30.001Z</time></trkpt><trkpt lat="45.51466516301148" lon="11.113380278764009"><ele>383.0</ele><time>2026-04-15T12:21:32.001Z</time></trkpt><trkpt lat="45.51460049489004" lon="11.113385193366964"><ele>377.59999999999997</ele><time>2026-04-15T12:21:34.001Z</time></trkpt><trkpt lat="45.514506392353184" lon="11.11341289913506"><ele>372.2</ele><time>2026-04-15T12:21:36.001Z</time></trkpt><trkpt lat="45.51443233826224" lon="11.113372591616047"><ele>366.8</ele><time>2026-04-15T12:21:38.001Z</time></trkpt><trkpt lat="45.51435183748862" lon="11.113318824656957"><ele>361.4</ele><time>2026-04-15T12:21:40.001Z</time></trkpt><trkpt lat="45.51426862745659" lon="11.113363127355738"><ele>356.0</ele><time>2026-04-15T12:21:42.001Z</time></trkpt><trkpt lat="45.514169737395804" lon="11.113355699565371"><ele>356.0</ele><time>2026-04-15T12:21:44.001Z</time></trkpt><trkpt lat="45.51408071529191" lon="11.113273276944895"><ele>356.0</ele><time>2026-04-15T12:21:46.001Z</time></trkpt><trkpt lat="45.51401904029064" lon="11.113157467880947"><ele>356.0</ele><time>2026-04-15T12:21:48.001Z</time></trkpt><trkpt lat="45.51393698692758" lon="11.113051899207234"><ele>356.0</ele><time>2026-04-15T12:21:50.001Z</time></trkpt><trkpt lat="45.513798919748986" lon="11.113055095875346"><ele>354.6</ele><time>2026-04-15T12:21:52.001Z</time></trkpt><trkpt lat="45.513697711026644" lon="11.113084246309356"><ele>353.20000000000005</ele><time>2026-04-15T12:21:53.001Z</time></trkpt><trkpt lat="45.513603436758075" lon="11.113128408769695"><ele>351.79999999999995</ele><time>2026-04-15T12:21:54.001Z</time></trkpt><trkpt lat="45.51352803423998" lon="11.113159824444955"><ele>350.4</ele><time>2026-04-15T12:21:55.001Z</time></trkpt><trkpt lat="45.51342911706301" lon="11.113180115072254"><ele>349.0</ele><time>2026-04-15T12:21:57.001Z</time></trkpt><trkpt lat="45.51336450863845" lon="11.113230366216701"><ele>348.0</ele><time>2026-04-15T12:21:59.001Z</time></trkpt><trkpt lat="45.51332757146993" lon="11.113339030337917"><ele>347.0</ele><time>2026-04-15T12:22:01.001Z</time></trkpt><trkpt lat="45.51328172707828" lon="11.113402887224359"><ele>346.0</ele><time>2026-04-15T12:22:02.001Z</time></trkpt><trkpt lat="45.513215981687374" lon="11.113470520008518"><ele>345.0</ele><time>2026-04-15T12:22:03.001Z</time></trkpt><trkpt lat="45.51314238619769" lon="11.11353847284202"><ele>344.0</ele><time>2026-04-15T12:22:04.001Z</time></trkpt><trkpt lat="45.513062908057236" lon="11.113597433780033"><ele>343.0</ele><time>2026-04-15T12:22:05.001Z</time></trkpt><trkpt lat="45.51298890721683" lon="11.113641145374094"><ele>342.4</ele><time>2026-04-15T12:22:06.001Z</time></trkpt><trkpt lat="45.512883015518376" lon="11.11367008016806"><ele>341.79999999999995</ele><time>2026-04-15T12:22:08.001Z</time></trkpt><trkpt lat="45.512781371594244" lon="11.113704456454748"><ele>341.2</ele><time>2026-04-15T12:22:10.001Z</time></trkpt><trkpt lat="45.5127305202544" lon="11.113757683719488"><ele>340.6</ele><time>2026-04-15T12:22:11.001Z</time></trkpt><trkpt lat="45.51261362119138" lon="11.113790377071807"><ele>340.0</ele><time>2026-04-15T12:22:13.001Z</time></trkpt><trkpt lat="45.512551392497755" lon="11.113741571917442"><ele>340.0</ele><time>2026-04-15T12:22:14.001Z</time></trkpt><trkpt lat="45.51249570422967" lon="11.11369250573532"><ele>340.0</ele><time>2026-04-15T12:22:15.001Z</time></trkpt><trkpt lat="45.51240693873801" lon="11.11372617661956"><ele>340.0</ele><time>2026-04-15T12:22:17.001Z</time></trkpt><trkpt lat="45.51241794208484" lon="11.113877551941911"><ele>340.0</ele><time>2026-04-15T12:22:19.001Z</time></trkpt><trkpt lat="45.51246452645722" lon="11.114027505173565"><ele>340.0</ele><time>2026-04-15T12:22:21.001Z</time></trkpt><trkpt lat="45.5124673766004" lon="11.114139290989879"><ele>338.2</ele><time>2026-04-15T12:22:22.001Z</time></trkpt><trkpt lat="45.51245848659248" lon="11.114282153806888"><ele>336.4</ele><time>2026-04-15T12:22:24.001Z</time></trkpt><trkpt lat="45.512405195878515" lon="11.114351252431103"><ele>334.6</ele><time>2026-04-15T12:22:26.001Z</time></trkpt><trkpt lat="45.5122921039791" lon="11.114259515418981"><ele>332.8</ele><time>2026-04-15T12:22:28.001Z</time></trkpt><trkpt lat="45.51221448895435" lon="11.114177852721909"><ele>331.0</ele><time>2026-04-15T12:22:29.001Z</time></trkpt><trkpt lat="45.51211772580147" lon="11.114114305797715"><ele>330.0</ele><time>2026-04-15T12:22:30.001Z</time></trkpt><trkpt lat="45.512017283869895" lon="11.114043435695677"><ele>329.0</ele><time>2026-04-15T12:22:31.001Z</time></trkpt><trkpt lat="45.511920878349954" lon="11.113977422890391"><ele>328.0</ele><time>2026-04-15T12:22:32.001Z</time></trkpt><trkpt lat="45.511837291754574" lon="11.113925209020474"><ele>327.0</ele><time>2026-04-15T12:22:33.002Z</time></trkpt><trkpt lat="45.51174852511628" lon="11.11388166964085"><ele>326.0</ele><time>2026-04-15T12:22:34.002Z</time></trkpt><trkpt lat="45.5116562581796" lon="11.113874605810382"><ele>326.0</ele><time>2026-04-15T12:22:35.002Z</time></trkpt><trkpt lat="45.51157073612646" lon="11.113877850175331"><ele>326.0</ele><time>2026-04-15T12:22:36.002Z</time></trkpt><trkpt lat="45.51149630732482" lon="11.11386975405977"><ele>326.0</ele><time>2026-04-15T12:22:37.002Z</time></trkpt><trkpt lat="45.51140648748392" lon="11.113828591741933"><ele>326.0</ele><time>2026-04-15T12:22:38.002Z</time></trkpt><trkpt lat="45.511328047174324" lon="11.11375807930188"><ele>326.0</ele><time>2026-04-15T12:22:39.002Z</time></trkpt><trkpt lat="45.511260087563905" lon="11.113696070214695"><ele>326.0</ele><time>2026-04-15T12:22:40.002Z</time></trkpt><trkpt lat="45.51117274138905" lon="11.113741486997403"><ele>325.4</ele><time>2026-04-15T12:22:42.002Z</time></trkpt><trkpt lat="45.51115318579492" lon="11.113917351326634"><ele>324.8</ele><time>2026-04-15T12:22:44.002Z</time></trkpt><trkpt lat="45.5111488688109" lon="11.114037667092314"><ele>324.2</ele><time>2026-04-15T12:22:45.002Z</time></trkpt><trkpt lat="45.51113314345024" lon="11.114189334017631"><ele>323.59999999999997</ele><time>2026-04-15T12:22:46.002Z</time></trkpt><trkpt lat="45.51112785831198" lon="11.114344698210862"><ele>323.0</ele><time>2026-04-15T12:22:47.002Z</time></trkpt><trkpt lat="45.51113087829092" lon="11.11449562294156"><ele>323.0</ele><time>2026-04-15T12:22:48.002Z</time></trkpt><trkpt lat="45.51110178274844" lon="11.114633959030957"><ele>323.0</ele><time>2026-04-15T12:22:49.002Z</time></trkpt><trkpt lat="45.51105747490288" lon="11.114775289331243"><ele>323.0</ele><time>2026-04-15T12:22:50.002Z</time></trkpt><trkpt lat="45.511010416314654" lon="11.114922611398937"><ele>323.0</ele><time>2026-04-15T12:22:51.002Z</time></trkpt><trkpt lat="45.51097469618173" lon="11.115079758181254"><ele>323.0</ele><time>2026-04-15T12:22:52.002Z</time></trkpt><trkpt lat="45.51094268853677" lon="11.115261385789774"><ele>323.5</ele><time>2026-04-15T12:22:53.002Z</time></trkpt><trkpt lat="45.51091360995287" lon="11.115453860113327"><ele>324.0</ele><time>2026-04-15T12:22:54.002Z</time></trkpt><trkpt lat="45.510890686131276" lon="11.115617897984658"><ele>324.5</ele><time>2026-04-15T12:22:55.002Z</time></trkpt><trkpt lat="45.5108615174731" lon="11.115762017227265"><ele>325.0</ele><time>2026-04-15T12:22:56.002Z</time></trkpt><trkpt lat="45.510827325584394" lon="11.115880604493597"><ele>325.0</ele><time>2026-04-15T12:22:57.002Z</time></trkpt><trkpt lat="45.51081161514192" lon="11.115984803235488"><ele>325.0</ele><time>2026-04-15T12:22:58.002Z</time></trkpt><trkpt lat="45.51080565573514" lon="11.116093898343681"><ele>325.0</ele><time>2026-04-15T12:22:59.002Z</time></trkpt><trkpt lat="45.510795596402914" lon="11.116232229899342"><ele>325.0</ele><time>2026-04-15T12:23:00.002Z</time></trkpt><trkpt lat="45.51077775439143" lon="11.11636280305582"><ele>325.0</ele><time>2026-04-15T12:23:01.002Z</time></trkpt><trkpt lat="45.51075480307188" lon="11.116481222784333"><ele>325.0</ele><time>2026-04-15T12:23:02.002Z</time></trkpt><trkpt lat="45.510718949291004" lon="11.116594859506804"><ele>323.57142857142856</ele><time>2026-04-15T12:23:03.002Z</time></trkpt><trkpt lat="45.51068319977531" lon="11.116670308732683"><ele>322.14285714285717</ele><time>2026-04-15T12:23:04.002Z</time></trkpt><trkpt lat="45.51064202023322" lon="11.116747194576869"><ele>320.7142857142857</ele><time>2026-04-15T12:23:05.002Z</time></trkpt><trkpt lat="45.51059284761873" lon="11.116803952836577"><ele>319.2857142857143</ele><time>2026-04-15T12:23:06.002Z</time></trkpt><trkpt lat="45.51053083240214" lon="11.11682621995023"><ele>317.8571428571429</ele><time>2026-04-15T12:23:07.002Z</time></trkpt><trkpt lat="45.510480788282244" lon="11.116900149586568"><ele>316.42857142857144</ele><time>2026-04-15T12:23:08.002Z</time></trkpt><trkpt lat="45.51044496862656" lon="11.117040801591912"><ele>315.0</ele><time>2026-04-15T12:23:09.002Z</time></trkpt><trkpt lat="45.51042193228735" lon="11.117188826056749"><ele>316.2</ele><time>2026-04-15T12:23:10.002Z</time></trkpt><trkpt lat="45.51039855557174" lon="11.117298339996319"><ele>317.4</ele><time>2026-04-15T12:23:11.002Z</time></trkpt><trkpt lat="45.510356000659314" lon="11.117389350396198"><ele>318.6</ele><time>2026-04-15T12:23:12.002Z</time></trkpt><trkpt lat="45.510278538419584" lon="11.117503729314462"><ele>319.8</ele><time>2026-04-15T12:23:13.002Z</time></trkpt><trkpt lat="45.510199631945454" lon="11.117613525441799"><ele>321.0</ele><time>2026-04-15T12:23:14.002Z</time></trkpt><trkpt lat="45.510127934524505" lon="11.117703486757312"><ele>321.0</ele><time>2026-04-15T12:23:15Z</time></trkpt><trkpt lat="45.510057630961164" lon="11.117779226471196"><ele>321.0</ele><time>2026-04-15T12:23:16Z</time></trkpt><trkpt lat="45.510003008260675" lon="11.117826308517179"><ele>321.0</ele><time>2026-04-15T12:23:17Z</time></trkpt><trkpt lat="45.50995298377147" lon="11.117911592642784"><ele>321.0</ele><time>2026-04-15T12:23:19Z</time></trkpt><trkpt lat="45.51000445732254" lon="11.117857113650048"><ele>321.0</ele><time>2026-04-15T12:23:45Z</time></trkpt><trkpt lat="45.51005844475665" lon="11.117806650362603"><ele>321.0</ele><time>2026-04-15T12:23:47Z</time></trkpt><trkpt lat="45.51015459731354" lon="11.117708419219264"><ele>321.0</ele><time>2026-04-15T12:23:49Z</time></trkpt><trkpt lat="45.51020682457914" lon="11.117645402694773"><ele>321.0</ele><time>2026-04-15T12:23:50Z</time></trkpt><trkpt lat="45.51027369555791" lon="11.117551305138782"><ele>321.0</ele><time>2026-04-15T12:23:51Z</time></trkpt><trkpt lat="45.5103267797171" lon="11.117469307593685"><ele>321.0</ele><time>2026-04-15T12:23:52Z</time></trkpt><trkpt lat="45.51038120459271" lon="11.117392360128271"><ele>321.0</ele><time>2026-04-15T12:23:53Z</time></trkpt><trkpt lat="45.51043169558356" lon="11.117230382070712"><ele>321.0</ele><time>2026-04-15T12:23:55Z</time></trkpt><trkpt lat="45.51045739829009" lon="11.117134473630298"><ele>320.0</ele><time>2026-04-15T12:23:56Z</time></trkpt><trkpt lat="45.510477467290926" lon="11.117029510873392"><ele>319.0</ele><time>2026-04-15T12:23:57.001Z</time></trkpt><trkpt lat="45.51050299104043" lon="11.11693095967679"><ele>318.0</ele><time>2026-04-15T12:23:58.001Z</time></trkpt><trkpt lat="45.51053762022389" lon="11.116850849086822"><ele>317.0</ele><time>2026-04-15T12:23:59.001Z</time></trkpt><trkpt lat="45.51059206925088" lon="11.116782249673035"><ele>316.0</ele><time>2026-04-15T12:24:00.001Z</time></trkpt><trkpt lat="45.51064768567124" lon="11.116722095192186"><ele>315.0</ele><time>2026-04-15T12:24:01.001Z</time></trkpt><trkpt lat="45.51072925645321" lon="11.116581970327655"><ele>316.6666666666667</ele><time>2026-04-15T12:24:03.001Z</time></trkpt><trkpt lat="45.510761436067696" lon="11.11648558579359"><ele>318.3333333333333</ele><time>2026-04-15T12:24:04.001Z</time></trkpt><trkpt lat="45.510780476437716" lon="11.11638416858217"><ele>320.0</ele><time>2026-04-15T12:24:05.001Z</time></trkpt><trkpt lat="45.510792126687726" lon="11.116286269104862"><ele>321.66666666666663</ele><time>2026-04-15T12:24:06.001Z</time></trkpt><trkpt lat="45.51081133961938" lon="11.11616752162932"><ele>323.3333333333333</ele><time>2026-04-15T12:24:08.001Z</time></trkpt><trkpt lat="45.510823797692964" lon="11.116054101856822"><ele>325.0</ele><time>2026-04-15T12:24:10.001Z</time></trkpt><trkpt lat="45.51077114146614" lon="11.115989585958046"><ele>325.0</ele><time>2026-04-15T12:24:13.001Z</time></trkpt><trkpt lat="45.51074465909532" lon="11.116083039791981"><ele>325.0</ele><time>2026-04-15T12:24:15.001Z</time></trkpt><trkpt lat="45.510659736082985" lon="11.116189481519683"><ele>325.0</ele><time>2026-04-15T12:24:17.001Z</time></trkpt><trkpt lat="45.510570640733306" lon="11.116301366932921"><ele>325.0</ele><time>2026-04-15T12:24:19.001Z</time></trkpt><trkpt lat="45.510439204419434" lon="11.11633958545259"><ele>325.0</ele><time>2026-04-15T12:24:21.001Z</time></trkpt><trkpt lat="45.51035504616737" lon="11.116336319597826"><ele>329.8</ele><time>2026-04-15T12:24:22.001Z</time></trkpt><trkpt lat="45.510250525785075" lon="11.116322111054291"><ele>334.6</ele><time>2026-04-15T12:24:23.001Z</time></trkpt><trkpt lat="45.510146083997306" lon="11.116306113318958"><ele>339.4</ele><time>2026-04-15T12:24:24.001Z</time></trkpt><trkpt lat="45.51007990980115" lon="11.1163051229912"><ele>344.2</ele><time>2026-04-15T12:24:25.001Z</time></trkpt><trkpt lat="45.509977108470316" lon="11.116426919550968"><ele>349.0</ele><time>2026-04-15T12:24:27.001Z</time></trkpt><trkpt lat="45.50992154525094" lon="11.11653026683664"><ele>349.6</ele><time>2026-04-15T12:24:28.001Z</time></trkpt><trkpt lat="45.50984953072127" lon="11.116601998595847"><ele>350.2</ele><time>2026-04-15T12:24:29.001Z</time></trkpt><trkpt lat="45.509780387659305" lon="11.116651081428211"><ele>350.8</ele><time>2026-04-15T12:24:30.001Z</time></trkpt><trkpt lat="45.509710359345895" lon="11.116649684543315"><ele>351.40000000000003</ele><time>2026-04-15T12:24:31.001Z</time></trkpt><trkpt lat="45.509593241630114" lon="11.116664026450705"><ele>352.0</ele><time>2026-04-15T12:24:33.001Z</time></trkpt><trkpt lat="45.50946831041499" lon="11.116665046152184"><ele>352.0</ele><time>2026-04-15T12:24:35.001Z</time></trkpt><trkpt lat="45.50937842058631" lon="11.116672232293421"><ele>352.0</ele><time>2026-04-15T12:24:36.001Z</time></trkpt><trkpt lat="45.509271337911294" lon="11.116668272699329"><ele>352.0</ele><time>2026-04-15T12:24:37.001Z</time></trkpt><trkpt lat="45.509165929907645" lon="11.11667758006138"><ele>352.0</ele><time>2026-04-15T12:24:38.001Z</time></trkpt><trkpt lat="45.50908721764722" lon="11.116714394406747"><ele>352.0</ele><time>2026-04-15T12:24:39.001Z</time></trkpt><trkpt lat="45.509009544021964" lon="11.116773999896363"><ele>352.0</ele><time>2026-04-15T12:24:40.001Z</time></trkpt><trkpt lat="45.508925568156215" lon="11.11685906835089"><ele>352.0</ele><time>2026-04-15T12:24:41.001Z</time></trkpt><trkpt lat="45.508847994213596" lon="11.116941699257165"><ele>352.0</ele><time>2026-04-15T12:24:42.001Z</time></trkpt><trkpt lat="45.50878120740336" lon="11.117018570991666"><ele>352.0</ele><time>2026-04-15T12:24:43.001Z</time></trkpt><trkpt lat="45.508713470741895" lon="11.117082819978256"><ele>352.0</ele><time>2026-04-15T12:24:44.001Z</time></trkpt><trkpt lat="45.50864506498151" lon="11.117172688764304"><ele>351.7142857142857</ele><time>2026-04-15T12:24:45.001Z</time></trkpt><trkpt lat="45.5085916514618" lon="11.117230730660967"><ele>351.42857142857144</ele><time>2026-04-15T12:24:46.001Z</time></trkpt><trkpt lat="45.5085332354921" lon="11.117294965233848"><ele>351.1428571428571</ele><time>2026-04-15T12:24:47.001Z</time></trkpt><trkpt lat="45.508478394089366" lon="11.117351926122907"><ele>350.8571428571429</ele><time>2026-04-15T12:24:48.001Z</time></trkpt><trkpt lat="45.50845407902459" lon="11.117461595897858"><ele>350.57142857142856</ele><time>2026-04-15T12:24:50.001Z</time></trkpt><trkpt lat="45.50847612040025" lon="11.117549623360606"><ele>350.2857142857143</ele><time>2026-04-15T12:24:51.001Z</time></trkpt><trkpt lat="45.508473460575445" lon="11.117661904915536"><ele>350.0</ele><time>2026-04-15T12:24:52.001Z</time></trkpt><trkpt lat="45.50846571288776" lon="11.117790086968288"><ele>350.0</ele><time>2026-04-15T12:24:53.001Z</time></trkpt><trkpt lat="45.50844383793698" lon="11.117917517321183"><ele>350.0</ele><time>2026-04-15T12:24:54.001Z</time></trkpt><trkpt lat="45.508403704734825" lon="11.118023274130662"><ele>350.0</ele><time>2026-04-15T12:24:55.002Z</time></trkpt><trkpt lat="45.50834960816927" lon="11.118140226461062"><ele>350.0</ele><time>2026-04-15T12:24:56.002Z</time></trkpt><trkpt lat="45.50828178721141" lon="11.118269125105815"><ele>350.0</ele><time>2026-04-15T12:24:57.002Z</time></trkpt><trkpt lat="45.50821615495945" lon="11.118395196037023"><ele>349.8</ele><time>2026-04-15T12:24:58.002Z</time></trkpt><trkpt lat="45.50813829081452" lon="11.118525904436014"><ele>349.6</ele><time>2026-04-15T12:24:59.002Z</time></trkpt><trkpt lat="45.5080749341764" lon="11.118645071497442"><ele>349.4</ele><time>2026-04-15T12:25:00.002Z</time></trkpt><trkpt lat="45.508019107087165" lon="11.118751331570065"><ele>349.2</ele><time>2026-04-15T12:25:01.002Z</time></trkpt><trkpt lat="45.507976254272116" lon="11.118869749375078"><ele>349.0</ele><time>2026-04-15T12:25:02.002Z</time></trkpt><trkpt lat="45.507927231756334" lon="11.119016258098748"><ele>347.2</ele><time>2026-04-15T12:25:03.002Z</time></trkpt><trkpt lat="45.507883899046874" lon="11.119154743962326"><ele>345.4</ele><time>2026-04-15T12:25:04.002Z</time></trkpt><trkpt lat="45.507841138258" lon="11.119294352853775"><ele>343.6</ele><time>2026-04-15T12:25:05.002Z</time></trkpt><trkpt lat="45.50779785204883" lon="11.119433134039884"><ele>341.8</ele><time>2026-04-15T12:25:06.002Z</time></trkpt><trkpt lat="45.507759484206865" lon="11.119573611530095"><ele>340.0</ele><time>2026-04-15T12:25:07.002Z</time></trkpt><trkpt lat="45.507716120980874" lon="11.119717841388127"><ele>340.0</ele><time>2026-04-15T12:25:08.002Z</time></trkpt><trkpt lat="45.50768453361785" lon="11.119832210871772"><ele>340.0</ele><time>2026-04-15T12:25:09.002Z</time></trkpt><trkpt lat="45.50766220530556" lon="11.119920451036124"><ele>340.0</ele><time>2026-04-15T12:25:10.002Z</time></trkpt><trkpt lat="45.507619636889686" lon="11.120053468560135"><ele>340.0</ele><time>2026-04-15T12:25:12.002Z</time></trkpt><trkpt lat="45.50757006172119" lon="11.12013963811855"><ele>340.0</ele><time>2026-04-15T12:25:13.002Z</time></trkpt><trkpt lat="45.50751226772735" lon="11.120230821494172"><ele>340.0</ele><time>2026-04-15T12:25:14.002Z</time></trkpt><trkpt lat="45.507472897904265" lon="11.120302285247748"><ele>339.8</ele><time>2026-04-15T12:25:15.002Z</time></trkpt><trkpt lat="45.50739629504208" lon="11.120456663382473"><ele>339.6</ele><time>2026-04-15T12:25:17.002Z</time></trkpt><trkpt lat="45.50733892631471" lon="11.12053211171122"><ele>339.4</ele><time>2026-04-15T12:25:18.002Z</time></trkpt><trkpt lat="45.5072698068062" lon="11.120605163253533"><ele>339.2</ele><time>2026-04-15T12:25:19.002Z</time></trkpt><trkpt lat="45.507212908686874" lon="11.120670909162717"><ele>339.0</ele><time>2026-04-15T12:25:20.002Z</time></trkpt><trkpt lat="45.50714828565884" lon="11.120747046909422"><ele>337.1666666666667</ele><time>2026-04-15T12:25:21Z</time></trkpt><trkpt lat="45.50709066019138" lon="11.12082728182139"><ele>335.3333333333333</ele><time>2026-04-15T12:25:22Z</time></trkpt><trkpt lat="45.50703227825415" lon="11.120903174346648"><ele>333.5</ele><time>2026-04-15T12:25:23Z</time></trkpt><trkpt lat="45.5069981535564" lon="11.120994935878345"><ele>331.66666666666663</ele><time>2026-04-15T12:25:24Z</time></trkpt><trkpt lat="45.50692617512576" lon="11.121125010687399"><ele>329.8333333333333</ele><time>2026-04-15T12:25:26Z</time></trkpt><trkpt lat="45.50687332455786" lon="11.121247011628279"><ele>328.0</ele><time>2026-04-15T12:25:28Z</time></trkpt><trkpt lat="45.506845283078775" lon="11.121364672148804"><ele>325.0</ele><time>2026-04-15T12:25:29Z</time></trkpt><trkpt lat="45.50680932291271" lon="11.121505988337278"><ele>322.0</ele><time>2026-04-15T12:25:30Z</time></trkpt><trkpt lat="45.50678772444973" lon="11.121642324073177"><ele>319.0</ele><time>2026-04-15T12:25:31Z</time></trkpt><trkpt lat="45.50679023252825" lon="11.121767433104292"><ele>316.0</ele><time>2026-04-15T12:25:32Z</time></trkpt><trkpt lat="45.50681162222966" lon="11.121912717045019"><ele>313.0</ele><time>2026-04-15T12:25:33Z</time></trkpt><trkpt lat="45.506835503229716" lon="11.122023227637214"><ele>313.0</ele><time>2026-04-15T12:25:34Z</time></trkpt><trkpt lat="45.50685837832116" lon="11.122125124939286"><ele>313.0</ele><time>2026-04-15T12:25:35Z</time></trkpt><trkpt lat="45.506900220432186" lon="11.1222164722418"><ele>313.0</ele><time>2026-04-15T12:25:36Z</time></trkpt><trkpt lat="45.5069498995719" lon="11.122286643110993"><ele>313.0</ele><time>2026-04-15T12:25:37Z</time></trkpt><trkpt lat="45.507015323759" lon="11.122342557303865"><ele>313.0</ele><time>2026-04-15T12:25:38Z</time></trkpt><trkpt lat="45.50712843455469" lon="11.122355560575254"><ele>313.0</ele><time>2026-04-15T12:25:40Z</time></trkpt><trkpt lat="45.507198742708205" lon="11.122261915784106"><ele>313.0</ele><time>2026-04-15T12:25:42Z</time></trkpt><trkpt lat="45.50726773663948" lon="11.12233138603333"><ele>313.0</ele><time>2026-04-15T12:25:46Z</time></trkpt><trkpt lat="45.50725707965681" lon="11.122444738778148"><ele>313.0</ele><time>2026-04-15T12:25:47Z</time></trkpt><trkpt lat="45.50724111442593" lon="11.12258038471745"><ele>313.0</ele><time>2026-04-15T12:25:48Z</time></trkpt><trkpt lat="45.50722650908371" lon="11.122676886480283"><ele>313.0</ele><time>2026-04-15T12:25:49Z</time></trkpt><trkpt lat="45.507209446345904" lon="11.122764381435443"><ele>313.0</ele><time>2026-04-15T12:25:50Z</time></trkpt><trkpt lat="45.50717367224256" lon="11.12286298879062"><ele>310.3333333333333</ele><time>2026-04-15T12:25:51Z</time></trkpt><trkpt lat="45.507137567687906" lon="11.122956104640986"><ele>307.66666666666663</ele><time>2026-04-15T12:25:52Z</time></trkpt><trkpt lat="45.507089611018024" lon="11.123027382141181"><ele>305.0</ele><time>2026-04-15T12:25:53Z</time></trkpt><trkpt lat="45.507022085679075" lon="11.123085774471402"><ele>302.3333333333333</ele><time>2026-04-15T12:25:54Z</time></trkpt><trkpt lat="45.50694502977678" lon="11.123133488512295"><ele>299.6666666666667</ele><time>2026-04-15T12:25:55Z</time></trkpt><trkpt lat="45.50686379867254" lon="11.123157313426853"><ele>297.0</ele><time>2026-04-15T12:25:56Z</time></trkpt><trkpt lat="45.50677452277076" lon="11.123156140927302"><ele>296.8</ele><time>2026-04-15T12:25:57Z</time></trkpt><trkpt lat="45.50667983667885" lon="11.12312767004571"><ele>296.6</ele><time>2026-04-15T12:25:58Z</time></trkpt><trkpt lat="45.5065533670035" lon="11.123116315813444"><ele>296.40000000000003</ele><time>2026-04-15T12:25:59Z</time></trkpt><trkpt lat="45.506458372344035" lon="11.123059624325515"><ele>296.2</ele><time>2026-04-15T12:26:01Z</time></trkpt><trkpt lat="45.50638700443201" lon="11.122953482592909"><ele>296.0</ele><time>2026-04-15T12:26:03Z</time></trkpt><trkpt lat="45.5063623365609" lon="11.122832966524372"><ele>296.0</ele><time>2026-04-15T12:26:04Z</time></trkpt><trkpt lat="45.50633224228099" lon="11.122695693796354"><ele>296.0</ele><time>2026-04-15T12:26:05Z</time></trkpt><trkpt lat="45.50628589777912" lon="11.122575452069377"><ele>296.0</ele><time>2026-04-15T12:26:06.001Z</time></trkpt><trkpt lat="45.50623402893913" lon="11.122462334119511"><ele>296.0</ele><time>2026-04-15T12:26:07.001Z</time></trkpt><trkpt lat="45.50618970513864" lon="11.12235007037328"><ele>296.0</ele><time>2026-04-15T12:26:08.001Z</time></trkpt><trkpt lat="45.50614757940605" lon="11.122241386894345"><ele>295.0</ele><time>2026-04-15T12:26:09.001Z</time></trkpt><trkpt lat="45.50611863911162" lon="11.122160521930569"><ele>294.0</ele><time>2026-04-15T12:26:10.001Z</time></trkpt><trkpt lat="45.50606755334737" lon="11.122070576579496"><ele>293.0</ele><time>2026-04-15T12:26:12.001Z</time></trkpt><trkpt lat="45.50599352128165" lon="11.12203943277686"><ele>292.0</ele><time>2026-04-15T12:26:14.001Z</time></trkpt><trkpt lat="45.50590837972382" lon="11.122083486415054"><ele>291.0</ele><time>2026-04-15T12:26:16.001Z</time></trkpt><trkpt lat="45.5058497835675" lon="11.122116805916177"><ele>290.0</ele><time>2026-04-15T12:26:17.001Z</time></trkpt><trkpt lat="45.50578862681906" lon="11.122147064830727"><ele>289.0</ele><time>2026-04-15T12:26:18.001Z</time></trkpt><trkpt lat="45.50569094760529" lon="11.122197969748669"><ele>289.0</ele><time>2026-04-15T12:26:20.001Z</time></trkpt><trkpt lat="45.50574449297875" lon="11.122128803093739"><ele>289.0</ele><time>2026-04-15T12:26:29.001Z</time></trkpt><trkpt lat="45.505816034535115" lon="11.122112791043925"><ele>289.0</ele><time>2026-04-15T12:26:30.001Z</time></trkpt><trkpt lat="45.50588745637456" lon="11.122087332541101"><ele>289.0</ele><time>2026-04-15T12:26:31.001Z</time></trkpt><trkpt lat="45.50596250134064" lon="11.122053066457402"><ele>289.0</ele><time>2026-04-15T12:26:33.001Z</time></trkpt><trkpt lat="45.50602549075501" lon="11.122017733581469"><ele>289.0</ele><time>2026-04-15T12:26:35.001Z</time></trkpt><trkpt lat="45.50608104629142" lon="11.122072691880113"><ele>289.0</ele><time>2026-04-15T12:27:32Z</time></trkpt><trkpt lat="45.505975697253994" lon="11.122056654419469"><ele>289.0</ele><time>2026-04-15T12:27:41Z</time></trkpt><trkpt lat="45.50590494554097" lon="11.122095453793031"><ele>289.0</ele><time>2026-04-15T12:27:42Z</time></trkpt><trkpt lat="45.50582050006127" lon="11.122139392235153"><ele>289.0</ele><time>2026-04-15T12:27:43Z</time></trkpt><trkpt lat="45.5057190821028" lon="11.12216650226975"><ele>289.0</ele><time>2026-04-15T12:27:44Z</time></trkpt><trkpt lat="45.50561844143046" lon="11.122183075029845"><ele>289.0</ele><time>2026-04-15T12:27:45Z</time></trkpt><trkpt lat="45.50549540182506" lon="11.122216018153237"><ele>288.4</ele><time>2026-04-15T12:27:46Z</time></trkpt><trkpt lat="45.50537211796146" lon="11.122212452975418"><ele>287.79999999999995</ele><time>2026-04-15T12:27:47Z</time></trkpt><trkpt lat="45.50525399967783" lon="11.122241305367226"><ele>287.20000000000005</ele><time>2026-04-15T12:27:48Z</time></trkpt><trkpt lat="45.50516820242177" lon="11.122220460992935"><ele>286.6</ele><time>2026-04-15T12:27:49Z</time></trkpt><trkpt lat="45.505096960472436" lon="11.122211627921663"><ele>286.0</ele><time>2026-04-15T12:27:50Z</time></trkpt><trkpt lat="45.50499630261494" lon="11.122163556364658"><ele>286.0</ele><time>2026-04-15T12:27:52Z</time></trkpt><trkpt lat="45.50485902543224" lon="11.122073894134845"><ele>286.0</ele><time>2026-04-15T12:27:54Z</time></trkpt><trkpt lat="45.5048031974974" lon="11.121962613437931"><ele>286.0</ele><time>2026-04-15T12:27:55Z</time></trkpt><trkpt lat="45.504763444300096" lon="11.121863696228697"><ele>286.0</ele><time>2026-04-15T12:27:56Z</time></trkpt><trkpt lat="45.50474854392003" lon="11.121763847058153"><ele>286.0</ele><time>2026-04-15T12:27:57Z</time></trkpt><trkpt lat="45.50471280376774" lon="11.121647608501"><ele>286.0</ele><time>2026-04-15T12:27:59Z</time></trkpt><trkpt lat="45.50459412137412" lon="11.121615604431033"><ele>286.0</ele><time>2026-04-15T12:28:01.001Z</time></trkpt><trkpt lat="45.50455559130287" lon="11.121741526285712"><ele>286.0</ele><time>2026-04-15T12:28:02.001Z</time></trkpt><trkpt lat="45.50455707483562" lon="11.121850652112656"><ele>286.0</ele><time>2026-04-15T12:28:03.001Z</time></trkpt><trkpt lat="45.50453214409411" lon="11.122060578754274"><ele>286.0</ele><time>2026-04-15T12:28:05.001Z</time></trkpt><trkpt lat="45.504519301985674" lon="11.12216173081715"><ele>285.16666666666663</ele><time>2026-04-15T12:28:06.001Z</time></trkpt><trkpt lat="45.50450045445263" lon="11.12227811195165"><ele>284.3333333333333</ele><time>2026-04-15T12:28:07.001Z</time></trkpt><trkpt lat="45.50448005873042" lon="11.122395038081741"><ele>283.5</ele><time>2026-04-15T12:28:08.001Z</time></trkpt><trkpt lat="45.50440975550569" lon="11.122441302723136"><ele>282.6666666666667</ele><time>2026-04-15T12:28:10.001Z</time></trkpt><trkpt lat="45.50433660877562" lon="11.122479269307682"><ele>281.83333333333337</ele><time>2026-04-15T12:28:12.001Z</time></trkpt><trkpt lat="45.50423277918371" lon="11.122446407280176"><ele>281.0</ele><time>2026-04-15T12:28:14.001Z</time></trkpt><trkpt lat="45.50407921659167" lon="11.1223758198865"><ele>279.0</ele><time>2026-04-15T12:28:16.001Z</time></trkpt><trkpt lat="45.504018313801076" lon="11.122326855352286"><ele>277.0</ele><time>2026-04-15T12:28:17.001Z</time></trkpt><trkpt lat="45.503934794652125" lon="11.12224874585163"><ele>275.0</ele><time>2026-04-15T12:28:19.001Z</time></trkpt><trkpt lat="45.50353498553735" lon="11.123037490129116"><ele>275.0</ele><time>2026-04-15T12:28:20.001Z</time></trkpt><trkpt lat="45.503430964085254" lon="11.123047796080229"><ele>275.0</ele><time>2026-04-15T12:28:21.001Z</time></trkpt><trkpt lat="45.503349055225264" lon="11.123037704527084"><ele>275.0</ele><time>2026-04-15T12:28:22.001Z</time></trkpt><trkpt lat="45.50328204779121" lon="11.123040126595802"><ele>275.0</ele><time>2026-04-15T12:28:23.001Z</time></trkpt><trkpt lat="45.50325275567714" lon="11.123154741619851"><ele>275.0</ele><time>2026-04-15T12:28:25.001Z</time></trkpt><trkpt lat="45.503208642299896" lon="11.123262789249344"><ele>275.0</ele><time>2026-04-15T12:28:27.001Z</time></trkpt><trkpt lat="45.50310713887498" lon="11.123277833150718"><ele>275.0</ele><time>2026-04-15T12:28:29.001Z</time></trkpt><trkpt lat="45.5030480420251" lon="11.123218581719327"><ele>275.0</ele><time>2026-04-15T12:28:30.001Z</time></trkpt><trkpt lat="45.502973025803186" lon="11.123152578419985"><ele>275.0</ele><time>2026-04-15T12:28:31.001Z</time></trkpt><trkpt lat="45.50288867781157" lon="11.123107032572529"><ele>275.0</ele><time>2026-04-15T12:28:32.001Z</time></trkpt><trkpt lat="45.50279060122783" lon="11.12306832628196"><ele>275.0</ele><time>2026-04-15T12:28:33.001Z</time></trkpt><trkpt lat="45.50272762748204" lon="11.12302202279077"><ele>275.0</ele><time>2026-04-15T12:28:34.001Z</time></trkpt><trkpt lat="45.50267567455745" lon="11.122963062236613"><ele>272.2</ele><time>2026-04-15T12:28:35.001Z</time></trkpt><trkpt lat="45.50260958625746" lon="11.122906304838436"><ele>269.4</ele><time>2026-04-15T12:28:36.001Z</time></trkpt><trkpt lat="45.50255002377968" lon="11.122874352355568"><ele>266.6</ele><time>2026-04-15T12:28:37.001Z</time></trkpt><trkpt lat="45.5024675951438" lon="11.122890265254659"><ele>263.8</ele><time>2026-04-15T12:28:39.001Z</time></trkpt><trkpt lat="45.502472167422475" lon="11.123029720769587"><ele>261.0</ele><time>2026-04-15T12:28:41.001Z</time></trkpt><trkpt lat="45.502448810650506" lon="11.123214555104296"><ele>258.8333333333333</ele><time>2026-04-15T12:28:43.001Z</time></trkpt><trkpt lat="45.50249599178753" lon="11.123361942959662"><ele>256.6666666666667</ele><time>2026-04-15T12:28:45.001Z</time></trkpt><trkpt lat="45.50252669073379" lon="11.123455611419791"><ele>254.5</ele><time>2026-04-15T12:28:46.001Z</time></trkpt><trkpt lat="45.50256022645229" lon="11.123585408194053"><ele>252.33333333333334</ele><time>2026-04-15T12:28:47.001Z</time></trkpt><trkpt lat="45.50257981856998" lon="11.123684605560081"><ele>250.16666666666669</ele><time>2026-04-15T12:28:48.001Z</time></trkpt><trkpt lat="45.5025462352714" lon="11.123776260747011"><ele>248.0</ele><time>2026-04-15T12:28:49.001Z</time></trkpt><trkpt lat="45.50249992662768" lon="11.123853639285727"><ele>248.00000000000003</ele><time>2026-04-15T12:28:50.001Z</time></trkpt><trkpt lat="45.502465563448176" lon="11.123929908217365"><ele>248.0</ele><time>2026-04-15T12:28:51.001Z</time></trkpt><trkpt lat="45.50244647749609" lon="11.124016340964586"><ele>248.0</ele><time>2026-04-15T12:28:52.001Z</time></trkpt><trkpt lat="45.502454413900466" lon="11.124127295031943"><ele>248.0</ele><time>2026-04-15T12:28:53.001Z</time></trkpt><trkpt lat="45.50245653082219" lon="11.124250994662217"><ele>248.00000000000003</ele><time>2026-04-15T12:28:54.001Z</time></trkpt><trkpt lat="45.50242492187323" lon="11.124415100551575"><ele>248.0</ele><time>2026-04-15T12:28:56.001Z</time></trkpt><trkpt lat="45.502408430512745" lon="11.124549009543715"><ele>246.16666666666669</ele><time>2026-04-15T12:28:58.001Z</time></trkpt><trkpt lat="45.502378757938494" lon="11.124636479303408"><ele>244.33333333333334</ele><time>2026-04-15T12:29:00.001Z</time></trkpt><trkpt lat="45.50237263362141" lon="11.124783492427333"><ele>242.5</ele><time>2026-04-15T12:29:02.001Z</time></trkpt><trkpt lat="45.502327416286775" lon="11.124861983399827"><ele>240.66666666666669</ele><time>2026-04-15T12:29:04.002Z</time></trkpt><trkpt lat="45.50227654026777" lon="11.125021062499293"><ele>238.83333333333334</ele><time>2026-04-15T12:29:07.002Z</time></trkpt><trkpt lat="45.50223292344992" lon="11.125117401437132"><ele>237.0</ele><time>2026-04-15T12:29:08.002Z</time></trkpt><trkpt lat="45.50220685846427" lon="11.125199646578459"><ele>234.66666666666666</ele><time>2026-04-15T12:29:09.002Z</time></trkpt><trkpt lat="45.50218147902747" lon="11.125283624220828"><ele>232.33333333333331</ele><time>2026-04-15T12:29:10.002Z</time></trkpt><trkpt lat="45.502151294930314" lon="11.125367217777441"><ele>230.0</ele><time>2026-04-15T12:29:11.002Z</time></trkpt><trkpt lat="45.50211372408941" lon="11.125444739673355"><ele>227.66666666666666</ele><time>2026-04-15T12:29:12.002Z</time></trkpt><trkpt lat="45.502067761841126" lon="11.125542449043959"><ele>225.33333333333331</ele><time>2026-04-15T12:29:15.002Z</time></trkpt><trkpt lat="45.50200607324261" lon="11.125638378234155"><ele>223.0</ele><time>2026-04-15T12:29:17.002Z</time></trkpt><trkpt lat="45.501945501293484" lon="11.125723758792155"><ele>217.8</ele><time>2026-04-15T12:29:19.002Z</time></trkpt><trkpt lat="45.50186066290451" lon="11.125799941225685"><ele>212.60000000000002</ele><time>2026-04-15T12:29:21.002Z</time></trkpt><trkpt lat="45.50176219049832" lon="11.125878377721923"><ele>207.39999999999998</ele><time>2026-04-15T12:29:23.002Z</time></trkpt><trkpt lat="45.50166531413168" lon="11.125908676475841"><ele>202.2</ele><time>2026-04-15T12:29:25.002Z</time></trkpt><trkpt lat="45.50159704675228" lon="11.125925199107016"><ele>197.0</ele><time>2026-04-15T12:29:27.002Z</time></trkpt><trkpt lat="45.50150747889602" lon="11.12596113658042"><ele>197.0</ele><time>2026-04-15T12:29:29.002Z</time></trkpt><trkpt lat="45.50141581504577" lon="11.125972950498126"><ele>197.0</ele><time>2026-04-15T12:29:31.002Z</time></trkpt><trkpt lat="45.50131053854611" lon="11.125994561332906"><ele>197.0</ele><time>2026-04-15T12:29:33Z</time></trkpt><trkpt lat="45.501185493186675" lon="11.125970100666045"><ele>197.0</ele><time>2026-04-15T12:29:35Z</time></trkpt><trkpt lat="45.501089776191684" lon="11.1259640205514"><ele>197.0</ele><time>2026-04-15T12:29:36Z</time></trkpt><trkpt lat="45.50097281294872" lon="11.125986278965101"><ele>196.0</ele><time>2026-04-15T12:29:37Z</time></trkpt><trkpt lat="45.50087352758829" lon="11.12602022349261"><ele>195.0</ele><time>2026-04-15T12:29:38Z</time></trkpt><trkpt lat="45.50079123622129" lon="11.12602750789708"><ele>194.0</ele><time>2026-04-15T12:29:39Z</time></trkpt><trkpt lat="45.500721806240115" lon="11.126023295998262"><ele>193.0</ele><time>2026-04-15T12:29:40Z</time></trkpt><trkpt lat="45.500634121934475" lon="11.126009935884108"><ele>192.0</ele><time>2026-04-15T12:29:42Z</time></trkpt><trkpt lat="45.50062200702153" lon="11.126170102025656"><ele>192.0</ele><time>2026-04-15T12:29:44Z</time></trkpt><trkpt lat="45.500611493478644" lon="11.126269885490336"><ele>192.0</ele><time>2026-04-15T12:29:45Z</time></trkpt><trkpt lat="45.50057634142284" lon="11.126397898305738"><ele>192.0</ele><time>2026-04-15T12:29:47Z</time></trkpt><trkpt lat="45.50051900887287" lon="11.126526610688796"><ele>192.0</ele><time>2026-04-15T12:29:49Z</time></trkpt><trkpt lat="45.50042424945174" lon="11.12661354129118"><ele>192.0</ele><time>2026-04-15T12:29:51Z</time></trkpt><trkpt lat="45.50035998392517" lon="11.12665346472774"><ele>194.0</ele><time>2026-04-15T12:29:53Z</time></trkpt><trkpt lat="45.500276408961255" lon="11.126649296074463"><ele>196.0</ele><time>2026-04-15T12:29:55Z</time></trkpt><trkpt lat="45.500150720224255" lon="11.126666324154993"><ele>198.0</ele><time>2026-04-15T12:29:57Z</time></trkpt><trkpt lat="45.500084035889195" lon="11.126643064902206"><ele>200.0</ele><time>2026-04-15T12:29:58Z</time></trkpt><trkpt lat="45.500021499446675" lon="11.126599558152732"><ele>202.0</ele><time>2026-04-15T12:29:59Z</time></trkpt><trkpt lat="45.49994621402379" lon="11.1265508867883"><ele>204.0</ele><time>2026-04-15T12:30:00Z</time></trkpt><trkpt lat="45.499857593291395" lon="11.12651391562204"><ele>204.0</ele><time>2026-04-15T12:30:01Z</time></trkpt><trkpt lat="45.499778967968695" lon="11.126482896126497"><ele>204.0</ele><time>2026-04-15T12:30:02Z</time></trkpt><trkpt lat="45.49968827744139" lon="11.126512085757525"><ele>204.0</ele><time>2026-04-15T12:30:04Z</time></trkpt><trkpt lat="45.49960533891603" lon="11.12662836463356"><ele>204.0</ele><time>2026-04-15T12:30:06Z</time></trkpt><trkpt lat="45.499537997940315" lon="11.126695323669074"><ele>204.0</ele><time>2026-04-15T12:30:07Z</time></trkpt><trkpt lat="45.49945406496378" lon="11.126756060424617"><ele>199.39999999999998</ele><time>2026-04-15T12:30:08Z</time></trkpt><trkpt lat="45.49937422587848" lon="11.12678746269255"><ele>194.8</ele><time>2026-04-15T12:30:09Z</time></trkpt><trkpt lat="45.49928370045969" lon="11.126811871913826"><ele>190.2</ele><time>2026-04-15T12:30:11Z</time></trkpt><trkpt lat="45.49930548455456" lon="11.126941672692778"><ele>185.60000000000002</ele><time>2026-04-15T12:30:13.001Z</time></trkpt><trkpt lat="45.49931208959828" lon="11.127071245573319"><ele>181.0</ele><time>2026-04-15T12:30:14.001Z</time></trkpt><trkpt lat="45.499296085007906" lon="11.12720523075765"><ele>181.0</ele><time>2026-04-15T12:30:15.001Z</time></trkpt><trkpt lat="45.49925966496851" lon="11.127336115553481"><ele>181.0</ele><time>2026-04-15T12:30:16.001Z</time></trkpt><trkpt lat="45.49920289077564" lon="11.127435257610486"><ele>181.0</ele><time>2026-04-15T12:30:17.001Z</time></trkpt><trkpt lat="45.499149511921495" lon="11.127541082530422"><ele>181.0</ele><time>2026-04-15T12:30:18.001Z</time></trkpt><trkpt lat="45.49907918918839" lon="11.127647559495047"><ele>181.0</ele><time>2026-04-15T12:30:19.001Z</time></trkpt><trkpt lat="45.499008277660934" lon="11.12772424156763"><ele>176.4</ele><time>2026-04-15T12:30:20.001Z</time></trkpt><trkpt lat="45.498933001822415" lon="11.127785580067112"><ele>171.8</ele><time>2026-04-15T12:30:21.001Z</time></trkpt><trkpt lat="45.498864156845784" lon="11.127836709139688"><ele>167.20000000000002</ele><time>2026-04-15T12:30:22.001Z</time></trkpt><trkpt lat="45.49881717247591" lon="11.127903187264959"><ele>162.60000000000002</ele><time>2026-04-15T12:30:23.001Z</time></trkpt><trkpt lat="45.49880390019375" lon="11.128040039746846"><ele>158.0</ele><time>2026-04-15T12:30:25.001Z</time></trkpt><trkpt lat="45.49893910293801" lon="11.128109644067347"><ele>158.0</ele><time>2026-04-15T12:30:27.001Z</time></trkpt><trkpt lat="45.49901274099346" lon="11.128110500963114"><ele>158.0</ele><time>2026-04-15T12:30:28.001Z</time></trkpt><trkpt lat="45.49907684221051" lon="11.128096414177588"><ele>158.0</ele><time>2026-04-15T12:30:29.001Z</time></trkpt><trkpt lat="45.49912024226809" lon="11.128211041032314"><ele>158.0</ele><time>2026-04-15T12:30:31.001Z</time></trkpt><trkpt lat="45.499098224740315" lon="11.128310420981284"><ele>158.0</ele><time>2026-04-15T12:30:32.001Z</time></trkpt><trkpt lat="45.499029851546396" lon="11.128371398685239"><ele>158.0</ele><time>2026-04-15T12:30:33.001Z</time></trkpt><trkpt lat="45.498951388206486" lon="11.128414703341443"><ele>157.0</ele><time>2026-04-15T12:30:34.001Z</time></trkpt><trkpt lat="45.49886888689315" lon="11.128480219895119"><ele>156.0</ele><time>2026-04-15T12:30:35.001Z</time></trkpt><trkpt lat="45.498812848461114" lon="11.128547009910703"><ele>155.0</ele><time>2026-04-15T12:30:36.001Z</time></trkpt><trkpt lat="45.498689048451205" lon="11.128613613867094"><ele>154.0</ele><time>2026-04-15T12:30:38.001Z</time></trkpt><trkpt lat="45.49860132614877" lon="11.128620155498359"><ele>153.0</ele><time>2026-04-15T12:30:39.001Z</time></trkpt><trkpt lat="45.498516784997285" lon="11.128629330133288"><ele>153.0</ele><time>2026-04-15T12:30:40.001Z</time></trkpt><trkpt lat="45.49841824836189" lon="11.128647424557625"><ele>153.0</ele><time>2026-04-15T12:30:41.001Z</time></trkpt><trkpt lat="45.498307669373766" lon="11.12866529037047"><ele>153.0</ele><time>2026-04-15T12:30:42.001Z</time></trkpt><trkpt lat="45.49818509719028" lon="11.128682791215178"><ele>153.0</ele><time>2026-04-15T12:30:43.001Z</time></trkpt><trkpt lat="45.49805250031494" lon="11.128703191576278"><ele>153.0</ele><time>2026-04-15T12:30:44.001Z</time></trkpt><trkpt lat="45.49792641326308" lon="11.128723308402012"><ele>153.0</ele><time>2026-04-15T12:30:45.001Z</time></trkpt><trkpt lat="45.4978207433739" lon="11.128702829834893"><ele>153.0</ele><time>2026-04-15T12:30:46.001Z</time></trkpt><trkpt lat="45.49771667911744" lon="11.128720360330709"><ele>153.0</ele><time>2026-04-15T12:30:47.001Z</time></trkpt><trkpt lat="45.4975963404986" lon="11.128706378942475"><ele>152.5</ele><time>2026-04-15T12:30:48.001Z</time></trkpt><trkpt lat="45.49746507616346" lon="11.12869897108607"><ele>152.0</ele><time>2026-04-15T12:30:49.001Z</time></trkpt><trkpt lat="45.49732440126218" lon="11.128687390871523"><ele>151.5</ele><time>2026-04-15T12:30:50.001Z</time></trkpt><trkpt lat="45.49717183085066" lon="11.128665340725235"><ele>151.0</ele><time>2026-04-15T12:30:51.001Z</time></trkpt><trkpt lat="45.49702191192679" lon="11.128655678978046"><ele>148.66666666666669</ele><time>2026-04-15T12:30:52.001Z</time></trkpt><trkpt lat="45.496866300804705" lon="11.128624795190772"><ele>146.33333333333334</ele><time>2026-04-15T12:30:53.001Z</time></trkpt><trkpt lat="45.49671286136811" lon="11.12860771555441"><ele>144.0</ele><time>2026-04-15T12:30:54.001Z</time></trkpt><trkpt lat="45.49655142386325" lon="11.128604815848883"><ele>144.0</ele><time>2026-04-15T12:30:55.001Z</time></trkpt><trkpt lat="45.49640579924048" lon="11.12858185646811"><ele>144.0</ele><time>2026-04-15T12:30:56.001Z</time></trkpt><trkpt lat="45.49627237799244" lon="11.128557749519352"><ele>144.0</ele><time>2026-04-15T12:30:57.001Z</time></trkpt><trkpt lat="45.49613763948676" lon="11.128533440106306"><ele>144.0</ele><time>2026-04-15T12:30:58.001Z</time></trkpt><trkpt lat="45.495998308262095" lon="11.128508763191032"><ele>143.5</ele><time>2026-04-15T12:30:59.001Z</time></trkpt><trkpt lat="45.49585937220149" lon="11.128486829393653"><ele>143.0</ele><time>2026-04-15T12:31:00.001Z</time></trkpt><trkpt lat="45.49571770357612" lon="11.128441861315256"><ele>142.5</ele><time>2026-04-15T12:31:01.001Z</time></trkpt><trkpt lat="45.49556219443755" lon="11.128418421657564"><ele>142.0</ele><time>2026-04-15T12:31:02.001Z</time></trkpt><trkpt lat="45.495407473390514" lon="11.128397629917863"><ele>141.0</ele><time>2026-04-15T12:31:03.001Z</time></trkpt><trkpt lat="45.49525334571754" lon="11.128378655627138"><ele>140.0</ele><time>2026-04-15T12:31:04.001Z</time></trkpt><trkpt lat="45.49509375930819" lon="11.12835987900626"><ele>139.0</ele><time>2026-04-15T12:31:05.001Z</time></trkpt><trkpt lat="45.49495176282428" lon="11.128343743072486"><ele>139.0</ele><time>2026-04-15T12:31:06.001Z</time></trkpt><trkpt lat="45.49482367652016" lon="11.128353244194079"><ele>139.0</ele><time>2026-04-15T12:31:07.001Z</time></trkpt><trkpt lat="45.49469309891205" lon="11.128340957392531"><ele>139.0</ele><time>2026-04-15T12:31:08.001Z</time></trkpt><trkpt lat="45.49455091105888" lon="11.128323485377555"><ele>139.0</ele><time>2026-04-15T12:31:09.001Z</time></trkpt><trkpt lat="45.4944203310403" lon="11.128292163340875"><ele>139.0</ele><time>2026-04-15T12:31:10.001Z</time></trkpt><trkpt lat="45.49430596747265" lon="11.128241785067281"><ele>139.0</ele><time>2026-04-15T12:31:11.001Z</time></trkpt><trkpt lat="45.49420072256167" lon="11.128210002131688"><ele>139.0</ele><time>2026-04-15T12:31:12.001Z</time></trkpt><trkpt lat="45.49410607597306" lon="11.12819723539874"><ele>139.0</ele><time>2026-04-15T12:31:13.002Z</time></trkpt><trkpt lat="45.494032712302364" lon="11.128164969250905"><ele>139.0</ele><time>2026-04-15T12:31:14.002Z</time></trkpt><trkpt lat="45.493964740536924" lon="11.128087699356039"><ele>139.4</ele><time>2026-04-15T12:31:16.002Z</time></trkpt><trkpt lat="45.49393335092124" lon="11.127905974216562"><ele>139.8</ele><time>2026-04-15T12:31:18.002Z</time></trkpt><trkpt lat="45.493926331137075" lon="11.12781422811347"><ele>140.2</ele><time>2026-04-15T12:31:19.002Z</time></trkpt><trkpt lat="45.493927405881756" lon="11.127687033288998"><ele>140.6</ele><time>2026-04-15T12:31:20.002Z</time></trkpt><trkpt lat="45.49393663949489" lon="11.127526633023503"><ele>141.0</ele><time>2026-04-15T12:31:21.002Z</time></trkpt><trkpt lat="45.49391915354071" lon="11.12735248142831"><ele>142.25</ele><time>2026-04-15T12:31:22.002Z</time></trkpt><trkpt lat="45.49385600646753" lon="11.127184468673923"><ele>143.5</ele><time>2026-04-15T12:31:23.002Z</time></trkpt><trkpt lat="45.49376281774879" lon="11.127019912341162"><ele>144.75</ele><time>2026-04-15T12:31:24.002Z</time></trkpt><trkpt lat="45.493651118820715" lon="11.126860629658468"><ele>146.0</ele><time>2026-04-15T12:31:25.002Z</time></trkpt><trkpt lat="45.49353635906219" lon="11.126716982484869"><ele>146.0</ele><time>2026-04-15T12:31:26.002Z</time></trkpt><trkpt lat="45.49342175536697" lon="11.12656874891175"><ele>146.0</ele><time>2026-04-15T12:31:27.002Z</time></trkpt><trkpt lat="45.49331335735731" lon="11.126408919828023"><ele>146.0</ele><time>2026-04-15T12:31:28.002Z</time></trkpt><trkpt lat="45.49322030392503" lon="11.126260194954687"><ele>145.75</ele><time>2026-04-15T12:31:29.002Z</time></trkpt><trkpt lat="45.49313701087271" lon="11.12613199362682"><ele>145.5</ele><time>2026-04-15T12:31:30.002Z</time></trkpt><trkpt lat="45.49306222187658" lon="11.126018845636636"><ele>145.25</ele><time>2026-04-15T12:31:31.002Z</time></trkpt><trkpt lat="45.492976656084494" lon="11.125911141317316"><ele>145.0</ele><time>2026-04-15T12:31:32.002Z</time></trkpt><trkpt lat="45.492880411027826" lon="11.125816359694507"><ele>145.0</ele><time>2026-04-15T12:31:33.002Z</time></trkpt><trkpt lat="45.49276772072424" lon="11.125743402605146"><ele>145.0</ele><time>2026-04-15T12:31:34.002Z</time></trkpt><trkpt lat="45.492629217537406" lon="11.125716172148605"><ele>145.0</ele><time>2026-04-15T12:31:35.002Z</time></trkpt><trkpt lat="45.49248350198436" lon="11.12572709663855"><ele>145.0</ele><time>2026-04-15T12:31:36.002Z</time></trkpt><trkpt lat="45.49232670110983" lon="11.125769558269807"><ele>145.0</ele><time>2026-04-15T12:31:37.002Z</time></trkpt><trkpt lat="45.49217108310574" lon="11.125766890763057"><ele>145.0</ele><time>2026-04-15T12:31:38.002Z</time></trkpt><trkpt lat="45.49203885187907" lon="11.125795791504036"><ele>145.0</ele><time>2026-04-15T12:31:39Z</time></trkpt><trkpt lat="45.49192183167022" lon="11.125795329278056"><ele>145.0</ele><time>2026-04-15T12:31:40Z</time></trkpt><trkpt lat="45.491811276029686" lon="11.125799806998465"><ele>145.2</ele><time>2026-04-15T12:31:41Z</time></trkpt><trkpt lat="45.49171473097907" lon="11.125813669837902"><ele>145.4</ele><time>2026-04-15T12:31:42Z</time></trkpt><trkpt lat="45.491619087592206" lon="11.125818116369103"><ele>145.6</ele><time>2026-04-15T12:31:43Z</time></trkpt><trkpt lat="45.49151736513511" lon="11.12579782046327"><ele>145.8</ele><time>2026-04-15T12:31:44Z</time></trkpt><trkpt lat="45.49144028283158" lon="11.125730316696481"><ele>146.0</ele><time>2026-04-15T12:31:45Z</time></trkpt><trkpt lat="45.49138816676843" lon="11.125669180567689"><ele>147.0</ele><time>2026-04-15T12:31:46Z</time></trkpt><trkpt lat="45.49135001690221" lon="11.125596208237353"><ele>148.0</ele><time>2026-04-15T12:31:47Z</time></trkpt><trkpt lat="45.491306720177725" lon="11.125487442991487"><ele>149.0</ele><time>2026-04-15T12:31:48Z</time></trkpt><trkpt lat="45.4912392014684" lon="11.125361548191597"><ele>150.0</ele><time>2026-04-15T12:31:49Z</time></trkpt><trkpt lat="45.491160511424404" lon="11.125225281101864"><ele>151.0</ele><time>2026-04-15T12:31:50Z</time></trkpt><trkpt lat="45.49110103416243" lon="11.125121156344795"><ele>151.83333333333334</ele><time>2026-04-15T12:31:51Z</time></trkpt><trkpt lat="45.49106180416244" lon="11.12501828535111"><ele>152.66666666666669</ele><time>2026-04-15T12:31:52Z</time></trkpt><trkpt lat="45.49101941490978" lon="11.124932095351403"><ele>153.5</ele><time>2026-04-15T12:31:53Z</time></trkpt><trkpt lat="45.49097693998015" lon="11.124846643737392"><ele>154.33333333333334</ele><time>2026-04-15T12:31:54Z</time></trkpt><trkpt lat="45.490934820669416" lon="11.124761909348631"><ele>155.16666666666666</ele><time>2026-04-15T12:31:55Z</time></trkpt><trkpt lat="45.490901265204144" lon="11.124644018581925"><ele>156.0</ele><time>2026-04-15T12:31:57Z</time></trkpt><trkpt lat="45.490874607718006" lon="11.124560494801099"><ele>156.0</ele><time>2026-04-15T12:31:59Z</time></trkpt><trkpt lat="45.49068119009075" lon="11.124780968568054"><ele>156.0</ele><time>2026-04-15T12:32:04Z</time></trkpt><trkpt lat="45.490701215930116" lon="11.124868445310987"><ele>156.0</ele><time>2026-04-15T12:32:05Z</time></trkpt><trkpt lat="45.490698582734" lon="11.124993991462897"><ele>156.0</ele><time>2026-04-15T12:32:06Z</time></trkpt><trkpt lat="45.490617000255" lon="11.125093217783792"><ele>156.0</ele><time>2026-04-15T12:32:08Z</time></trkpt><trkpt lat="45.490527643957385" lon="11.125113869591543"><ele>156.0</ele><time>2026-04-15T12:32:09Z</time></trkpt><trkpt lat="45.4904214322982" lon="11.125108042406685"><ele>156.0</ele><time>2026-04-15T12:32:10Z</time></trkpt><trkpt lat="45.490306288792574" lon="11.125102289324044"><ele>156.0</ele><time>2026-04-15T12:32:11Z</time></trkpt><trkpt lat="45.49018641943584" lon="11.125111421504418"><ele>156.0</ele><time>2026-04-15T12:32:12Z</time></trkpt><trkpt lat="45.49007243228637" lon="11.125112397642203"><ele>159.75</ele><time>2026-04-15T12:32:13Z</time></trkpt><trkpt lat="45.48994420609184" lon="11.125088436777986"><ele>163.5</ele><time>2026-04-15T12:32:14Z</time></trkpt><trkpt lat="45.489811384805904" lon="11.125042526687787"><ele>167.25</ele><time>2026-04-15T12:32:15Z</time></trkpt><trkpt lat="45.48968565280259" lon="11.124969862716181"><ele>171.0</ele><time>2026-04-15T12:32:16Z</time></trkpt><trkpt lat="45.48956263666867" lon="11.124882957350609"><ele>176.20000000000002</ele><time>2026-04-15T12:32:17Z</time></trkpt><trkpt lat="45.48944758972656" lon="11.12481567621084"><ele>181.4</ele><time>2026-04-15T12:32:18Z</time></trkpt><trkpt lat="45.48936440196026" lon="11.12474115077778"><ele>186.6</ele><time>2026-04-15T12:32:19Z</time></trkpt><trkpt lat="45.48928638660487" lon="11.124655604614466"><ele>191.8</ele><time>2026-04-15T12:32:20Z</time></trkpt><trkpt lat="45.48920477021625" lon="11.124583629441744"><ele>197.0</ele><time>2026-04-15T12:32:21Z</time></trkpt><trkpt lat="45.48910010529176" lon="11.12451683442249"><ele>197.0</ele><time>2026-04-15T12:32:22Z</time></trkpt><trkpt lat="45.4890099136094" lon="11.12446342939531"><ele>197.0</ele><time>2026-04-15T12:32:23Z</time></trkpt><trkpt lat="45.4889229105168" lon="11.12438145022169"><ele>197.0</ele><time>2026-04-15T12:32:24Z</time></trkpt><trkpt lat="45.488833197256476" lon="11.12430307186782"><ele>197.0</ele><time>2026-04-15T12:32:25Z</time></trkpt><trkpt lat="45.48874954247514" lon="11.124247635064519"><ele>197.0</ele><time>2026-04-15T12:32:26Z</time></trkpt><trkpt lat="45.48868235544695" lon="11.124215747341353"><ele>195.39999999999998</ele><time>2026-04-15T12:32:27Z</time></trkpt><trkpt lat="45.488623340591246" lon="11.124165800546463"><ele>193.79999999999998</ele><time>2026-04-15T12:32:28.001Z</time></trkpt><trkpt lat="45.48853899807269" lon="11.124095829014713"><ele>192.2</ele><time>2026-04-15T12:32:29.001Z</time></trkpt><trkpt lat="45.488450757522294" lon="11.124013539131935"><ele>190.6</ele><time>2026-04-15T12:32:30.001Z</time></trkpt><trkpt lat="45.488341247625314" lon="11.123914318234421"><ele>189.0</ele><time>2026-04-15T12:32:31.001Z</time></trkpt><trkpt lat="45.48823567234795" lon="11.123815718671166"><ele>189.33333333333334</ele><time>2026-04-15T12:32:32.001Z</time></trkpt><trkpt lat="45.48813604613435" lon="11.123735554064229"><ele>189.66666666666666</ele><time>2026-04-15T12:32:33.001Z</time></trkpt><trkpt lat="45.48805531945118" lon="11.123662264666883"><ele>190.0</ele><time>2026-04-15T12:32:34.001Z</time></trkpt><trkpt lat="45.48799875640208" lon="11.123592753885848"><ele>190.33333333333331</ele><time>2026-04-15T12:32:35.001Z</time></trkpt><trkpt lat="45.48797569182908" lon="11.123501493156507"><ele>190.66666666666666</ele><time>2026-04-15T12:32:36.001Z</time></trkpt><trkpt lat="45.4879336705493" lon="11.123395935191315"><ele>191.0</ele><time>2026-04-15T12:32:37.001Z</time></trkpt><trkpt lat="45.48788636189762" lon="11.123289799126116"><ele>194.8</ele><time>2026-04-15T12:32:38.001Z</time></trkpt><trkpt lat="45.48780411190624" lon="11.123168167028258"><ele>198.60000000000002</ele><time>2026-04-15T12:32:39.001Z</time></trkpt><trkpt lat="45.48775088951297" lon="11.123059324691033"><ele>202.4</ele><time>2026-04-15T12:32:40.001Z</time></trkpt><trkpt lat="45.48770844572116" lon="11.122930221950847"><ele>206.2</ele><time>2026-04-15T12:32:41.001Z</time></trkpt><trkpt lat="45.48768895927016" lon="11.122801004601131"><ele>210.0</ele><time>2026-04-15T12:32:42.001Z</time></trkpt><trkpt lat="45.48770666748332" lon="11.122675135833743"><ele>210.0</ele><time>2026-04-15T12:32:43.001Z</time></trkpt><trkpt lat="45.48772408560581" lon="11.122535498789807"><ele>210.0</ele><time>2026-04-15T12:32:44.001Z</time></trkpt><trkpt lat="45.48787534492904" lon="11.122425385494608"><ele>210.0</ele><time>2026-04-15T12:32:45.001Z</time></trkpt><trkpt lat="45.487853911754264" lon="11.122278389997"><ele>210.0</ele><time>2026-04-15T12:32:46.001Z</time></trkpt><trkpt lat="45.48779533959607" lon="11.122161395073759"><ele>214.5</ele><time>2026-04-15T12:32:47.001Z</time></trkpt><trkpt lat="45.4876103992723" lon="11.12228066922913"><ele>219.0</ele><time>2026-04-15T12:32:48.001Z</time></trkpt><trkpt lat="45.4875217919581" lon="11.122183143354864"><ele>223.5</ele><time>2026-04-15T12:32:50.001Z</time></trkpt><trkpt lat="45.4874176878854" lon="11.122158836133618"><ele>228.0</ele><time>2026-04-15T12:32:51.001Z</time></trkpt><trkpt lat="45.487323984360636" lon="11.122180571208453"><ele>228.0</ele><time>2026-04-15T12:32:52.001Z</time></trkpt><trkpt lat="45.48723787136235" lon="11.122190207693336"><ele>228.0</ele><time>2026-04-15T12:32:53.001Z</time></trkpt><trkpt lat="45.48716402126348" lon="11.122233608277913"><ele>228.0</ele><time>2026-04-15T12:32:54.001Z</time></trkpt><trkpt lat="45.487098721321665" lon="11.12232478878957"><ele>228.0</ele><time>2026-04-15T12:32:55.001Z</time></trkpt><trkpt lat="45.487017907292895" lon="11.122410769315218"><ele>228.0</ele><time>2026-04-15T12:32:56.001Z</time></trkpt><trkpt lat="45.48694590711247" lon="11.122550218031785"><ele>227.2</ele><time>2026-04-15T12:32:57.001Z</time></trkpt><trkpt lat="45.486863374745596" lon="11.122669968484297"><ele>226.4</ele><time>2026-04-15T12:32:58.001Z</time></trkpt><trkpt lat="45.486773517595935" lon="11.1227956934477"><ele>225.59999999999997</ele><time>2026-04-15T12:32:59.001Z</time></trkpt><trkpt lat="45.486684757428606" lon="11.122897848528986"><ele>224.79999999999998</ele><time>2026-04-15T12:33:00.001Z</time></trkpt><trkpt lat="45.48661348476042" lon="11.122978471762162"><ele>224.0</ele><time>2026-04-15T12:33:01.001Z</time></trkpt><trkpt lat="45.48655034875393" lon="11.123055570536065"><ele>224.0</ele><time>2026-04-15T12:33:02.001Z</time></trkpt><trkpt lat="45.48646845696691" lon="11.123101913129526"><ele>223.99999999999997</ele><time>2026-04-15T12:33:03.001Z</time></trkpt><trkpt lat="45.486373520840324" lon="11.123154124065856"><ele>223.99999999999997</ele><time>2026-04-15T12:33:04.001Z</time></trkpt><trkpt lat="45.48630058448364" lon="11.123264118773928"><ele>224.0</ele><time>2026-04-15T12:33:05.001Z</time></trkpt><trkpt lat="45.486248988310955" lon="11.123403097505882"><ele>224.0</ele><time>2026-04-15T12:33:06.001Z</time></trkpt><trkpt lat="45.486230377887274" lon="11.123565115835083"><ele>223.2</ele><time>2026-04-15T12:33:07.001Z</time></trkpt><trkpt lat="45.48622526019613" lon="11.123721308620626"><ele>222.39999999999998</ele><time>2026-04-15T12:33:08.001Z</time></trkpt><trkpt lat="45.48621304442319" lon="11.12385642257975"><ele>221.6</ele><time>2026-04-15T12:33:09.001Z</time></trkpt><trkpt lat="45.486152498495166" lon="11.123954531914858"><ele>220.8</ele><time>2026-04-15T12:33:10.001Z</time></trkpt><trkpt lat="45.48609986061983" lon="11.12403277894663"><ele>220.0</ele><time>2026-04-15T12:33:11.001Z</time></trkpt><trkpt lat="45.486054382996095" lon="11.124126669628074"><ele>219.99999999999997</ele><time>2026-04-15T12:33:12.001Z</time></trkpt><trkpt lat="45.48598718719551" lon="11.124180260690606"><ele>220.0</ele><time>2026-04-15T12:33:13.001Z</time></trkpt><trkpt lat="45.485907979702034" lon="11.12418352531963"><ele>220.0</ele><time>2026-04-15T12:33:14.001Z</time></trkpt><trkpt lat="45.48582521423852" lon="11.124199450026294"><ele>220.0</ele><time>2026-04-15T12:33:15.001Z</time></trkpt><trkpt lat="45.48575097118888" lon="11.124263273695437"><ele>219.99999999999997</ele><time>2026-04-15T12:33:16.001Z</time></trkpt><trkpt lat="45.48567602197155" lon="11.124253284063041"><ele>220.0</ele><time>2026-04-15T12:33:17.001Z</time></trkpt><trkpt lat="45.48554858715277" lon="11.124240926961644"><ele>220.0</ele><time>2026-04-15T12:33:19.001Z</time></trkpt><trkpt lat="45.48547937281843" lon="11.124231683638556"><ele>220.0</ele><time>2026-04-15T12:33:20.001Z</time></trkpt><trkpt lat="45.485395771260485" lon="11.124215104284511"><ele>220.0</ele><time>2026-04-15T12:33:21.001Z</time></trkpt><trkpt lat="45.485310067155936" lon="11.124209084426774"><ele>220.0</ele><time>2026-04-15T12:33:22.001Z</time></trkpt><trkpt lat="45.48521195966821" lon="11.124200411483283"><ele>220.0</ele><time>2026-04-15T12:33:23.002Z</time></trkpt><trkpt lat="45.485089435174196" lon="11.124174745846704"><ele>218.25</ele><time>2026-04-15T12:33:24.002Z</time></trkpt><trkpt lat="45.484963669429675" lon="11.124136374287962"><ele>216.5</ele><time>2026-04-15T12:33:25.002Z</time></trkpt><trkpt lat="45.48483861717191" lon="11.124135245119897"><ele>214.75</ele><time>2026-04-15T12:33:26.002Z</time></trkpt><trkpt lat="45.48471049891207" lon="11.12408774381431"><ele>213.0</ele><time>2026-04-15T12:33:27.002Z</time></trkpt><trkpt lat="45.48457863549652" lon="11.12406243067574"><ele>211.75</ele><time>2026-04-15T12:33:28.002Z</time></trkpt><trkpt lat="45.484436726472865" lon="11.124035189119342"><ele>210.5</ele><time>2026-04-15T12:33:29.002Z</time></trkpt><trkpt lat="45.48429626939071" lon="11.12401654744179"><ele>209.25</ele><time>2026-04-15T12:33:30.002Z</time></trkpt><trkpt lat="45.48414479319518" lon="11.123988736774942"><ele>208.0</ele><time>2026-04-15T12:33:31.002Z</time></trkpt><trkpt lat="45.48399523683935" lon="11.123956114929381"><ele>208.0</ele><time>2026-04-15T12:33:32.002Z</time></trkpt><trkpt lat="45.48383968043805" lon="11.123919643133894"><ele>208.0</ele><time>2026-04-15T12:33:33.002Z</time></trkpt><trkpt lat="45.48368109397665" lon="11.123878615313517"><ele>208.0</ele><time>2026-04-15T12:33:34.002Z</time></trkpt><trkpt lat="45.483525831158865" lon="11.123830969617535"><ele>202.33333333333331</ele><time>2026-04-15T12:33:35.002Z</time></trkpt><trkpt lat="45.48336079536057" lon="11.12377663050621"><ele>196.66666666666666</ele><time>2026-04-15T12:33:36.002Z</time></trkpt><trkpt lat="45.483200042833325" lon="11.123717165738451"><ele>191.0</ele><time>2026-04-15T12:33:37.002Z</time></trkpt><trkpt lat="45.48302988308984" lon="11.123637481134558"><ele>185.0</ele><time>2026-04-15T12:33:38.002Z</time></trkpt><trkpt lat="45.482867083386154" lon="11.123547432030367"><ele>179.0</ele><time>2026-04-15T12:33:39.002Z</time></trkpt><trkpt lat="45.4827003180816" lon="11.123467404542465"><ele>173.0</ele><time>2026-04-15T12:33:40.002Z</time></trkpt><trkpt lat="45.482530525038364" lon="11.123411707251215"><ele>173.0</ele><time>2026-04-15T12:33:41.002Z</time></trkpt><trkpt lat="45.48235239776647" lon="11.123367797635412"><ele>173.0</ele><time>2026-04-15T12:33:42.002Z</time></trkpt><trkpt lat="45.482170406111926" lon="11.12335685017694"><ele>173.0</ele><time>2026-04-15T12:33:43.002Z</time></trkpt><trkpt lat="45.48199168007738" lon="11.123357315174083"><ele>167.66666666666666</ele><time>2026-04-15T12:33:44.002Z</time></trkpt><trkpt lat="45.48181880135691" lon="11.123336683927082"><ele>162.33333333333334</ele><time>2026-04-15T12:33:45Z</time></trkpt><trkpt lat="45.48163693966402" lon="11.12329817305738"><ele>157.0</ele><time>2026-04-15T12:33:46Z</time></trkpt><trkpt lat="45.48145914717194" lon="11.123242111233333"><ele>156.0</ele><time>2026-04-15T12:33:47Z</time></trkpt><trkpt lat="45.481284959582695" lon="11.123170704995706"><ele>155.0</ele><time>2026-04-15T12:33:48Z</time></trkpt><trkpt lat="45.48113207794193" lon="11.123020352312643"><ele>154.0</ele><time>2026-04-15T12:33:49Z</time></trkpt><trkpt lat="45.480990108490836" lon="11.122887875358026"><ele>154.0</ele><time>2026-04-15T12:33:50Z</time></trkpt><trkpt lat="45.480856515069824" lon="11.122760148273292"><ele>154.0</ele><time>2026-04-15T12:33:51Z</time></trkpt><trkpt lat="45.48074791137533" lon="11.122650278840876"><ele>154.0</ele><time>2026-04-15T12:33:52Z</time></trkpt><trkpt lat="45.480655244261285" lon="11.122595042742397"><ele>154.0</ele><time>2026-04-15T12:33:53Z</time></trkpt><trkpt lat="45.48057595516558" lon="11.122574494427397"><ele>154.0</ele><time>2026-04-15T12:33:54Z</time></trkpt><trkpt lat="45.48048353138643" lon="11.122593891402962"><ele>154.0</ele><time>2026-04-15T12:33:55Z</time></trkpt><trkpt lat="45.48039479093918" lon="11.122655118465522"><ele>154.0</ele><time>2026-04-15T12:33:56Z</time></trkpt><trkpt lat="45.48029743833551" lon="11.122756990354947"><ele>154.0</ele><time>2026-04-15T12:33:57Z</time></trkpt><trkpt lat="45.4802096992032" lon="11.122866323817385"><ele>154.0</ele><time>2026-04-15T12:33:58Z</time></trkpt><trkpt lat="45.48012253292624" lon="11.122976221435566"><ele>150.4</ele><time>2026-04-15T12:33:59Z</time></trkpt><trkpt lat="45.480059790698924" lon="11.123091967715814"><ele>146.8</ele><time>2026-04-15T12:34:00Z</time></trkpt><trkpt lat="45.47999995043062" lon="11.123182521075243"><ele>143.2</ele><time>2026-04-15T12:34:01Z</time></trkpt><trkpt lat="45.479972647933884" lon="11.123270102170464"><ele>139.6</ele><time>2026-04-15T12:34:02Z</time></trkpt><trkpt lat="45.479814587982396" lon="11.123228566155422"><ele>136.0</ele><time>2026-04-15T12:34:03Z</time></trkpt><trkpt lat="45.47970915685491" lon="11.123254489071766"><ele>136.8</ele><time>2026-04-15T12:34:04Z</time></trkpt><trkpt lat="45.479597242030984" lon="11.123299998831717"><ele>137.6</ele><time>2026-04-15T12:34:05Z</time></trkpt><trkpt lat="45.4794732491045" lon="11.123309551114051"><ele>138.4</ele><time>2026-04-15T12:34:06Z</time></trkpt><trkpt lat="45.47937561451634" lon="11.123328935936845"><ele>139.2</ele><time>2026-04-15T12:34:07Z</time></trkpt><trkpt lat="45.47927539941883" lon="11.123345924073996"><ele>140.0</ele><time>2026-04-15T12:34:08Z</time></trkpt><trkpt lat="45.4791890930877" lon="11.123356139169609"><ele>140.0</ele><time>2026-04-15T12:34:09Z</time></trkpt><trkpt lat="45.47912376913603" lon="11.12334890726189"><ele>140.0</ele><time>2026-04-15T12:34:10Z</time></trkpt><trkpt lat="45.47906914353383" lon="11.123197318162525"><ele>140.0</ele><time>2026-04-15T12:34:12Z</time></trkpt><trkpt lat="45.47907957582222" lon="11.123075168752063"><ele>140.0</ele><time>2026-04-15T12:34:13Z</time></trkpt><trkpt lat="45.479068810299495" lon="11.122948597054181"><ele>140.0</ele><time>2026-04-15T12:34:14Z</time></trkpt><trkpt lat="45.479055223671764" lon="11.122795796670276"><ele>140.0</ele><time>2026-04-15T12:34:15Z</time></trkpt><trkpt lat="45.47903922773664" lon="11.122624604582677"><ele>140.0</ele><time>2026-04-15T12:34:16Z</time></trkpt><trkpt lat="45.47902433192508" lon="11.122436691465174"><ele>140.0</ele><time>2026-04-15T12:34:17Z</time></trkpt><trkpt lat="45.47901553174682" lon="11.122239223173755"><ele>140.0</ele><time>2026-04-15T12:34:18Z</time></trkpt><trkpt lat="45.47901106895752" lon="11.122059629620605"><ele>140.0</ele><time>2026-04-15T12:34:19Z</time></trkpt><trkpt lat="45.47900260158385" lon="11.121886287187799"><ele>140.0</ele><time>2026-04-15T12:34:20Z</time></trkpt><trkpt lat="45.47900426274841" lon="11.12170046299476"><ele>140.0</ele><time>2026-04-15T12:34:21Z</time></trkpt><trkpt lat="45.479005455201595" lon="11.121499207070324"><ele>140.0</ele><time>2026-04-15T12:34:22Z</time></trkpt><trkpt lat="45.4789959784312" lon="11.121291259037019"><ele>141.0</ele><time>2026-04-15T12:34:23Z</time></trkpt><trkpt lat="45.478993467913696" lon="11.121094867058952"><ele>142.0</ele><time>2026-04-15T12:34:24Z</time></trkpt><trkpt lat="45.478998431709265" lon="11.120907173230329"><ele>143.0</ele><time>2026-04-15T12:34:25Z</time></trkpt><trkpt lat="45.47900509118466" lon="11.120707590046866"><ele>144.0</ele><time>2026-04-15T12:34:26Z</time></trkpt><trkpt lat="45.47900224943452" lon="11.120508648352606"><ele>146.0</ele><time>2026-04-15T12:34:27Z</time></trkpt><trkpt lat="45.47897787447752" lon="11.120315703144358"><ele>148.0</ele><time>2026-04-15T12:34:28.001Z</time></trkpt><trkpt lat="45.47893943204902" lon="11.12011606570877"><ele>150.0</ele><time>2026-04-15T12:34:29.001Z</time></trkpt><trkpt lat="45.4788936889167" lon="11.11991922651195"><ele>152.0</ele><time>2026-04-15T12:34:30.001Z</time></trkpt><trkpt lat="45.478840241280956" lon="11.119748781354094"><ele>153.25</ele><time>2026-04-15T12:34:31.001Z</time></trkpt><trkpt lat="45.47877983397302" lon="11.119558581963938"><ele>154.5</ele><time>2026-04-15T12:34:32.001Z</time></trkpt><trkpt lat="45.478717394549655" lon="11.119364678655046"><ele>155.75</ele><time>2026-04-15T12:34:33.001Z</time></trkpt><trkpt lat="45.4786722194425" lon="11.119187355414532"><ele>157.0</ele><time>2026-04-15T12:34:34.001Z</time></trkpt><trkpt lat="45.478643813226896" lon="11.119023382694055"><ele>160.25</ele><time>2026-04-15T12:34:35.001Z</time></trkpt><trkpt lat="45.47862291522129" lon="11.118865887175362"><ele>163.5</ele><time>2026-04-15T12:34:36.001Z</time></trkpt><trkpt lat="45.47861435034544" lon="11.118708075619333"><ele>166.75</ele><time>2026-04-15T12:34:37.001Z</time></trkpt><trkpt lat="45.47856884554452" lon="11.11854243187998"><ele>170.0</ele><time>2026-04-15T12:34:38.001Z</time></trkpt><trkpt lat="45.47854025185051" lon="11.118346479060467"><ele>168.75</ele><time>2026-04-15T12:34:39.001Z</time></trkpt><trkpt lat="45.478517408590335" lon="11.118172067736804"><ele>167.5</ele><time>2026-04-15T12:34:40.001Z</time></trkpt><trkpt lat="45.47849228773979" lon="11.117992155331153"><ele>166.25</ele><time>2026-04-15T12:34:41.001Z</time></trkpt><trkpt lat="45.47845757702469" lon="11.11781433697985"><ele>165.0</ele><time>2026-04-15T12:34:42.001Z</time></trkpt><trkpt lat="45.47839392687637" lon="11.11765191062556"><ele>165.0</ele><time>2026-04-15T12:34:43.001Z</time></trkpt><trkpt lat="45.47830651801595" lon="11.117505259132955"><ele>165.0</ele><time>2026-04-15T12:34:44.001Z</time></trkpt><trkpt lat="45.4781858697058" lon="11.117374485476047"><ele>165.0</ele><time>2026-04-15T12:34:45.001Z</time></trkpt><trkpt lat="45.47808171304189" lon="11.117235235758514"><ele>165.0</ele><time>2026-04-15T12:34:46.001Z</time></trkpt><trkpt lat="45.47801009202135" lon="11.117091276703151"><ele>165.75</ele><time>2026-04-15T12:34:47.001Z</time></trkpt><trkpt lat="45.477940718625554" lon="11.116957163956288"><ele>166.5</ele><time>2026-04-15T12:34:48.001Z</time></trkpt><trkpt lat="45.47788182256257" lon="11.116802518967326"><ele>167.25</ele><time>2026-04-15T12:34:49.001Z</time></trkpt><trkpt lat="45.47781042601655" lon="11.116645633848252"><ele>168.0</ele><time>2026-04-15T12:34:50.001Z</time></trkpt><trkpt lat="45.47775028618679" lon="11.116473422355474"><ele>169.60000000000002</ele><time>2026-04-15T12:34:51.001Z</time></trkpt><trkpt lat="45.47769646955892" lon="11.116321885155754"><ele>171.20000000000002</ele><time>2026-04-15T12:34:52.001Z</time></trkpt><trkpt lat="45.47764381360041" lon="11.116175918881375"><ele>172.8</ele><time>2026-04-15T12:34:53.001Z</time></trkpt><trkpt lat="45.47760065948241" lon="11.11605714777367"><ele>174.4</ele><time>2026-04-15T12:34:54.001Z</time></trkpt><trkpt lat="45.4775938660466" lon="11.115964481385825"><ele>176.0</ele><time>2026-04-15T12:34:55.001Z</time></trkpt><trkpt lat="45.47758914580192" lon="11.115864618271287"><ele>176.0</ele><time>2026-04-15T12:34:57.001Z</time></trkpt><trkpt lat="45.477457695123405" lon="11.115966239773428"><ele>176.0</ele><time>2026-04-15T12:35:00.001Z</time></trkpt><trkpt lat="45.47747063220539" lon="11.11607929699835"><ele>176.0</ele><time>2026-04-15T12:35:01.001Z</time></trkpt><trkpt lat="45.4774792934356" lon="11.116182224800003"><ele>176.0</ele><time>2026-04-15T12:35:02.001Z</time></trkpt><trkpt lat="45.47742711802155" lon="11.116259224300759"><ele>176.0</ele><time>2026-04-15T12:35:04.001Z</time></trkpt><trkpt lat="45.47736250084084" lon="11.11620466392204"><ele>176.0</ele><time>2026-04-15T12:35:06.001Z</time></trkpt><trkpt lat="45.47733232909296" lon="11.11612538642242"><ele>176.0</ele><time>2026-04-15T12:35:07.001Z</time></trkpt><trkpt lat="45.47728335388601" lon="11.116041977085631"><ele>176.0</ele><time>2026-04-15T12:35:08.001Z</time></trkpt><trkpt lat="45.47720122776624" lon="11.115977773995127"><ele>176.0</ele><time>2026-04-15T12:35:09.001Z</time></trkpt><trkpt lat="45.47711463980128" lon="11.115965785487404"><ele>176.0</ele><time>2026-04-15T12:35:10.001Z</time></trkpt><trkpt lat="45.47704963106294" lon="11.11597619120566"><ele>176.0</ele><time>2026-04-15T12:35:11.001Z</time></trkpt><trkpt lat="45.476935029570605" lon="11.115956275765445"><ele>179.4</ele><time>2026-04-15T12:35:12.001Z</time></trkpt><trkpt lat="45.47682591867865" lon="11.115950047062917"><ele>182.8</ele><time>2026-04-15T12:35:13.001Z</time></trkpt><trkpt lat="45.47672456279654" lon="11.115963954240309"><ele>186.20000000000002</ele><time>2026-04-15T12:35:14.001Z</time></trkpt><trkpt lat="45.476623740260024" lon="11.115985879737801"><ele>189.60000000000002</ele><time>2026-04-15T12:35:15.001Z</time></trkpt><trkpt lat="45.47655443093448" lon="11.116010355570657"><ele>193.0</ele><time>2026-04-15T12:35:16.001Z</time></trkpt><trkpt lat="45.47645408129611" lon="11.116051850165702"><ele>193.0</ele><time>2026-04-15T12:35:18.001Z</time></trkpt><trkpt lat="45.47643778759182" lon="11.116229727075641"><ele>193.0</ele><time>2026-04-15T12:35:20.001Z</time></trkpt><trkpt lat="45.47645791141168" lon="11.116359877173089"><ele>193.0</ele><time>2026-04-15T12:35:21.001Z</time></trkpt><trkpt lat="45.47650123766446" lon="11.116453289158825"><ele>193.0</ele><time>2026-04-15T12:35:22.001Z</time></trkpt><trkpt lat="45.47657311675366" lon="11.116520860838499"><ele>193.0</ele><time>2026-04-15T12:35:23.002Z</time></trkpt><trkpt lat="45.47665264120966" lon="11.116566456234077"><ele>196.4</ele><time>2026-04-15T12:35:24.002Z</time></trkpt><trkpt lat="45.47673158660501" lon="11.116657170225805"><ele>199.8</ele><time>2026-04-15T12:35:25.002Z</time></trkpt><trkpt lat="45.47678138496686" lon="11.116743497981107"><ele>203.2</ele><time>2026-04-15T12:35:26.002Z</time></trkpt><trkpt lat="45.47685899434896" lon="11.116858672112889"><ele>206.6</ele><time>2026-04-15T12:35:27.002Z</time></trkpt><trkpt lat="45.47690921570254" lon="11.116986939191733"><ele>210.0</ele><time>2026-04-15T12:35:28.002Z</time></trkpt><trkpt lat="45.476949769020706" lon="11.117096498617235"><ele>210.0</ele><time>2026-04-15T12:35:29.002Z</time></trkpt><trkpt lat="45.47697712688236" lon="11.11719632213275"><ele>210.0</ele><time>2026-04-15T12:35:30.002Z</time></trkpt><trkpt lat="45.47700031366933" lon="11.117282593489305"><ele>210.0</ele><time>2026-04-15T12:35:31.002Z</time></trkpt><trkpt lat="45.47700785517296" lon="11.11738297261943"><ele>210.0</ele><time>2026-04-15T12:35:32.002Z</time></trkpt><trkpt lat="45.47700332906514" lon="11.117520892134946"><ele>210.0</ele><time>2026-04-15T12:35:33.002Z</time></trkpt><trkpt lat="45.4769810675508" lon="11.117658221766417"><ele>210.0</ele><time>2026-04-15T12:35:34.002Z</time></trkpt><trkpt lat="45.47695986436168" lon="11.117796393402877"><ele>213.6</ele><time>2026-04-15T12:35:35.002Z</time></trkpt><trkpt lat="45.4769201923766" lon="11.117942535424596"><ele>217.2</ele><time>2026-04-15T12:35:36.002Z</time></trkpt><trkpt lat="45.476912172004205" lon="11.118054572568484"><ele>220.8</ele><time>2026-04-15T12:35:37.002Z</time></trkpt><trkpt lat="45.476883728772776" lon="11.1182025851235"><ele>224.4</ele><time>2026-04-15T12:35:39.002Z</time></trkpt><trkpt lat="45.47682224653056" lon="11.11822890891102"><ele>228.0</ele><time>2026-04-15T12:35:42.002Z</time></trkpt><trkpt lat="45.476801678771395" lon="11.118097174531052"><ele>228.0</ele><time>2026-04-15T12:35:44.002Z</time></trkpt><trkpt lat="45.476753786381856" lon="11.117918527200073"><ele>228.0</ele><time>2026-04-15T12:35:46.002Z</time></trkpt><trkpt lat="45.47668374342234" lon="11.117784820937404"><ele>228.0</ele><time>2026-04-15T12:35:48.002Z</time></trkpt><trkpt lat="45.47663357480105" lon="11.117724709185177"><ele>228.0</ele><time>2026-04-15T12:35:49.002Z</time></trkpt><trkpt lat="45.47670002483339" lon="11.117862699490923"><ele>228.0</ele><time>2026-04-15T12:36:25.001Z</time></trkpt><trkpt lat="45.47665924987101" lon="11.117736854208168"><ele>228.0</ele><time>2026-04-15T12:36:59.001Z</time></trkpt><trkpt lat="45.476600011382935" lon="11.11764159770743"><ele>228.0</ele><time>2026-04-15T12:37:01.001Z</time></trkpt><trkpt lat="45.4765340395976" lon="11.117597545439786"><ele>228.0</ele><time>2026-04-15T12:37:52.002Z</time></trkpt><trkpt lat="45.476446411286894" lon="11.117562331816407"><ele>228.0</ele><time>2026-04-15T12:38:12.002Z</time></trkpt><trkpt lat="45.47637106761618" lon="11.117498303917145"><ele>228.0</ele><time>2026-04-15T12:38:14.001Z</time></trkpt><trkpt lat="45.476304492588305" lon="11.117451597963939"><ele>228.0</ele><time>2026-04-15T12:38:16.001Z</time></trkpt><trkpt lat="45.476229301098975" lon="11.117363428250115"><ele>229.60000000000002</ele><time>2026-04-15T12:38:18.001Z</time></trkpt><trkpt lat="45.47617024867724" lon="11.117302287481127"><ele>231.20000000000002</ele><time>2026-04-15T12:38:19.001Z</time></trkpt><trkpt lat="45.47608636946774" lon="11.117231685056236"><ele>232.8</ele><time>2026-04-15T12:38:21.001Z</time></trkpt><trkpt lat="45.476000135922845" lon="11.117168825003686"><ele>234.4</ele><time>2026-04-15T12:38:23.001Z</time></trkpt><trkpt lat="45.475901427774986" lon="11.117078147001525"><ele>236.0</ele><time>2026-04-15T12:38:25.001Z</time></trkpt><trkpt lat="45.47582541883023" lon="11.117009401027309"><ele>236.0</ele><time>2026-04-15T12:38:26.001Z</time></trkpt><trkpt lat="45.47575507222191" lon="11.1169390544796"><ele>236.00000000000003</ele><time>2026-04-15T12:38:27.001Z</time></trkpt><trkpt lat="45.47567491488274" lon="11.11686786618274"><ele>236.00000000000003</ele><time>2026-04-15T12:38:28.001Z</time></trkpt><trkpt lat="45.47558139908578" lon="11.116809582006006"><ele>236.0</ele><time>2026-04-15T12:38:29.001Z</time></trkpt><trkpt lat="45.47547934866503" lon="11.116749845095523"><ele>236.0</ele><time>2026-04-15T12:38:30.001Z</time></trkpt><trkpt lat="45.47537723331764" lon="11.116725109488373"><ele>237.75</ele><time>2026-04-15T12:38:31.001Z</time></trkpt><trkpt lat="45.47529519129979" lon="11.116661167082908"><ele>239.5</ele><time>2026-04-15T12:38:32.001Z</time></trkpt><trkpt lat="45.475168956637624" lon="11.116584186212929"><ele>241.25</ele><time>2026-04-15T12:38:33.001Z</time></trkpt><trkpt lat="45.47506180531931" lon="11.116513330945265"><ele>243.0</ele><time>2026-04-15T12:38:34.001Z</time></trkpt><trkpt lat="45.47497610769767" lon="11.116432998794654"><ele>243.0</ele><time>2026-04-15T12:38:35.001Z</time></trkpt><trkpt lat="45.474891258920906" lon="11.11633052244431"><ele>243.0</ele><time>2026-04-15T12:38:36.001Z</time></trkpt><trkpt lat="45.47480071033512" lon="11.11621643112654"><ele>243.0</ele><time>2026-04-15T12:38:37.001Z</time></trkpt><trkpt lat="45.47471544788666" lon="11.116101768028406"><ele>243.0</ele><time>2026-04-15T12:38:38.001Z</time></trkpt><trkpt lat="45.47461601843945" lon="11.115975305669663"><ele>248.75</ele><time>2026-04-15T12:38:39.001Z</time></trkpt><trkpt lat="45.47452770534795" lon="11.115870372406219"><ele>254.5</ele><time>2026-04-15T12:38:40.001Z</time></trkpt><trkpt lat="45.47444507343807" lon="11.11576575684748"><ele>260.25</ele><time>2026-04-15T12:38:41.001Z</time></trkpt><trkpt lat="45.474348085297095" lon="11.115669564945213"><ele>266.0</ele><time>2026-04-15T12:38:42.001Z</time></trkpt><trkpt lat="45.47424811469506" lon="11.115586192771747"><ele>266.0</ele><time>2026-04-15T12:38:43.001Z</time></trkpt><trkpt lat="45.474144263656854" lon="11.11549770786012"><ele>266.0</ele><time>2026-04-15T12:38:44.001Z</time></trkpt><trkpt lat="45.47405351588614" lon="11.115390572906525"><ele>266.0</ele><time>2026-04-15T12:38:45.001Z</time></trkpt><trkpt lat="45.47397506364825" lon="11.11526234022313"><ele>266.0</ele><time>2026-04-15T12:38:46.001Z</time></trkpt><trkpt lat="45.47390343909542" lon="11.115098875398754"><ele>266.0</ele><time>2026-04-15T12:38:47.001Z</time></trkpt><trkpt lat="45.47382651374605" lon="11.114943802622967"><ele>266.0</ele><time>2026-04-15T12:38:48.001Z</time></trkpt><trkpt lat="45.473764330806056" lon="11.114804896792362"><ele>266.0</ele><time>2026-04-15T12:38:49.001Z</time></trkpt><trkpt lat="45.47373405131832" lon="11.114661527618763"><ele>266.0</ele><time>2026-04-15T12:38:50.001Z</time></trkpt><trkpt lat="45.47371381266565" lon="11.114494580668701"><ele>271.2</ele><time>2026-04-15T12:38:51.001Z</time></trkpt><trkpt lat="45.47370171798382" lon="11.114324811264048"><ele>276.40000000000003</ele><time>2026-04-15T12:38:52.001Z</time></trkpt><trkpt lat="45.473693715458815" lon="11.114150871742874"><ele>281.6</ele><time>2026-04-15T12:38:53.001Z</time></trkpt><trkpt lat="45.473685277271365" lon="11.113999324475364"><ele>286.8</ele><time>2026-04-15T12:38:54.001Z</time></trkpt><trkpt lat="45.47367426838606" lon="11.113867361886982"><ele>292.0</ele><time>2026-04-15T12:38:55.001Z</time></trkpt><trkpt lat="45.47366070362657" lon="11.113749501721523"><ele>292.8</ele><time>2026-04-15T12:38:56.001Z</time></trkpt><trkpt lat="45.473647758336014" lon="11.113659052500676"><ele>293.6</ele><time>2026-04-15T12:38:57.001Z</time></trkpt><trkpt lat="45.47361951749586" lon="11.113513796848558"><ele>294.40000000000003</ele><time>2026-04-15T12:38:59.001Z</time></trkpt><trkpt lat="45.473512955080764" lon="11.113426469259316"><ele>295.2</ele><time>2026-04-15T12:39:01.001Z</time></trkpt><trkpt lat="45.4734594815833" lon="11.113283941910181"><ele>296.0</ele><time>2026-04-15T12:39:03.001Z</time></trkpt><trkpt lat="45.47341295276799" lon="11.113118857586626"><ele>296.6666666666667</ele><time>2026-04-15T12:39:05.001Z</time></trkpt><trkpt lat="45.47332643659289" lon="11.112994758858104"><ele>297.33333333333337</ele><time>2026-04-15T12:39:07.001Z</time></trkpt><trkpt lat="45.473322153256106" lon="11.11289864857152"><ele>298.0</ele><time>2026-04-15T12:39:10.001Z</time></trkpt><trkpt lat="45.47342625439796" lon="11.112810965665906"><ele>298.6666666666667</ele><time>2026-04-15T12:39:12.001Z</time></trkpt><trkpt lat="45.47348144188386" lon="11.112751377160144"><ele>299.3333333333333</ele><time>2026-04-15T12:39:13.001Z</time></trkpt><trkpt lat="45.47352850631295" lon="11.112679531037669"><ele>300.0</ele><time>2026-04-15T12:39:14.001Z</time></trkpt><trkpt lat="45.47359151372163" lon="11.112617805779944"><ele>300.0</ele><time>2026-04-15T12:39:15.001Z</time></trkpt><trkpt lat="45.473646756407724" lon="11.112562394430661"><ele>300.0</ele><time>2026-04-15T12:39:16.001Z</time></trkpt><trkpt lat="45.473728310273486" lon="11.11249251475249"><ele>300.0</ele><time>2026-04-15T12:39:18.001Z</time></trkpt><trkpt lat="45.47380181947792" lon="11.112405788979464"><ele>300.0</ele><time>2026-04-15T12:39:20.002Z</time></trkpt><trkpt lat="45.473852198806426" lon="11.112342073586202"><ele>300.0</ele><time>2026-04-15T12:39:21.002Z</time></trkpt><trkpt lat="45.47391364246478" lon="11.112264366311445"><ele>300.0</ele><time>2026-04-15T12:39:22.002Z</time></trkpt><trkpt lat="45.47401149031048" lon="11.11214061929732"><ele>299.75</ele><time>2026-04-15T12:39:24.002Z</time></trkpt><trkpt lat="45.47408310663578" lon="11.112050046917908"><ele>299.5</ele><time>2026-04-15T12:39:25.002Z</time></trkpt><trkpt lat="45.47416808288403" lon="11.11194257824418"><ele>299.25</ele><time>2026-04-15T12:39:26.002Z</time></trkpt><trkpt lat="45.474259680244835" lon="11.111828194407865"><ele>299.0</ele><time>2026-04-15T12:39:27.002Z</time></trkpt><trkpt lat="45.47436680808268" lon="11.111694483788744"><ele>299.0</ele><time>2026-04-15T12:39:28.002Z</time></trkpt><trkpt lat="45.474474349013775" lon="11.111560257008437"><ele>299.0</ele><time>2026-04-15T12:39:29.002Z</time></trkpt><trkpt lat="45.47457856846811" lon="11.111432054428418"><ele>299.0</ele><time>2026-04-15T12:39:30.002Z</time></trkpt><trkpt lat="45.47468445269328" lon="11.111311226199936"><ele>299.0</ele><time>2026-04-15T12:39:31.002Z</time></trkpt><trkpt lat="45.47477960740714" lon="11.11121289245522"><ele>298.5</ele><time>2026-04-15T12:39:32.002Z</time></trkpt><trkpt lat="45.47487458547585" lon="11.111121539818996"><ele>298.0</ele><time>2026-04-15T12:39:33.002Z</time></trkpt><trkpt lat="45.47497455753936" lon="11.111030358449465"><ele>297.5</ele><time>2026-04-15T12:39:34.002Z</time></trkpt><trkpt lat="45.47509150882239" lon="11.110927841314448"><ele>297.0</ele><time>2026-04-15T12:39:35.002Z</time></trkpt><trkpt lat="45.47521587314766" lon="11.110810753637578"><ele>297.5</ele><time>2026-04-15T12:39:36.002Z</time></trkpt><trkpt lat="45.47532870108948" lon="11.110701370335867"><ele>298.0</ele><time>2026-04-15T12:39:37.002Z</time></trkpt><trkpt lat="45.47544179490185" lon="11.110595935886002"><ele>298.5</ele><time>2026-04-15T12:39:38.002Z</time></trkpt><trkpt lat="45.47554227469731" lon="11.110478404996774"><ele>299.0</ele><time>2026-04-15T12:39:39.002Z</time></trkpt><trkpt lat="45.475624708089455" lon="11.1103670164486"><ele>298.2</ele><time>2026-04-15T12:39:40.002Z</time></trkpt><trkpt lat="45.475701858954594" lon="11.11024518320453"><ele>297.4</ele><time>2026-04-15T12:39:41.002Z</time></trkpt><trkpt lat="45.47576029028092" lon="11.11013911483923"><ele>296.6</ele><time>2026-04-15T12:39:42.002Z</time></trkpt><trkpt lat="45.475821688644785" lon="11.110012898995953"><ele>295.8</ele><time>2026-04-15T12:39:43.002Z</time></trkpt><trkpt lat="45.47587844761241" lon="11.1098699909272"><ele>295.0</ele><time>2026-04-15T12:39:44.002Z</time></trkpt><trkpt lat="45.47592759324696" lon="11.109710057075013"><ele>295.0</ele><time>2026-04-15T12:39:45.002Z</time></trkpt><trkpt lat="45.47597716114814" lon="11.109550719669336"><ele>295.0</ele><time>2026-04-15T12:39:46.002Z</time></trkpt><trkpt lat="45.476030572195654" lon="11.109387544541667"><ele>295.0</ele><time>2026-04-15T12:39:47.002Z</time></trkpt><trkpt lat="45.47607878409478" lon="11.10924793139494"><ele>295.0</ele><time>2026-04-15T12:39:48.002Z</time></trkpt><trkpt lat="45.47612983261862" lon="11.109118443853095"><ele>295.4</ele><time>2026-04-15T12:39:49.002Z</time></trkpt><trkpt lat="45.476182071048044" lon="11.108996502363725"><ele>295.8</ele><time>2026-04-15T12:39:50.002Z</time></trkpt><trkpt lat="45.476235120362695" lon="11.108895273680039"><ele>296.2</ele><time>2026-04-15T12:39:51.002Z</time></trkpt><trkpt lat="45.47628963166996" lon="11.108807491567525"><ele>296.6</ele><time>2026-04-15T12:39:52.002Z</time></trkpt><trkpt lat="45.47634801302163" lon="11.108726030674143"><ele>297.0</ele><time>2026-04-15T12:39:53.002Z</time></trkpt><trkpt lat="45.47642079733692" lon="11.10862946987327"><ele>295.0</ele><time>2026-04-15T12:39:54.002Z</time></trkpt><trkpt lat="45.47647832923682" lon="11.108554227410531"><ele>293.0</ele><time>2026-04-15T12:39:55.002Z</time></trkpt><trkpt lat="45.4765532607803" lon="11.108456229603332"><ele>291.0</ele><time>2026-04-15T12:39:56.002Z</time></trkpt><trkpt lat="45.47663871455143" lon="11.108338562498412"><ele>289.0</ele><time>2026-04-15T12:39:57.002Z</time></trkpt><trkpt lat="45.476725953130746" lon="11.108209141483677"><ele>287.0</ele><time>2026-04-15T12:39:58.002Z</time></trkpt><trkpt lat="45.476812123481636" lon="11.108078733338493"><ele>287.0</ele><time>2026-04-15T12:39:59.002Z</time></trkpt><trkpt lat="45.476888066637194" lon="11.107967665247088"><ele>287.0</ele><time>2026-04-15T12:40:00.002Z</time></trkpt><trkpt lat="45.47696038251571" lon="11.107866065527203"><ele>287.0</ele><time>2026-04-15T12:40:01.002Z</time></trkpt><trkpt lat="45.47703635593846" lon="11.107762825448642"><ele>287.0</ele><time>2026-04-15T12:40:02.002Z</time></trkpt><trkpt lat="45.47710082559987" lon="11.107675217773277"><ele>287.0</ele><time>2026-04-15T12:40:03.002Z</time></trkpt><trkpt lat="45.477169404187414" lon="11.107582026180859"><ele>286.0</ele><time>2026-04-15T12:40:04.002Z</time></trkpt><trkpt lat="45.47722214511512" lon="11.107509884699066"><ele>285.0</ele><time>2026-04-15T12:40:05.002Z</time></trkpt><trkpt lat="45.477292883653796" lon="11.107412828577477"><ele>284.0</ele><time>2026-04-15T12:40:07.002Z</time></trkpt><trkpt lat="45.47721612751107" lon="11.107219809259956"><ele>283.0</ele><time>2026-04-15T12:40:10.001Z</time></trkpt><trkpt lat="45.47709658270152" lon="11.107249745720745"><ele>282.0</ele><time>2026-04-15T12:40:12.001Z</time></trkpt><trkpt lat="45.47700344805265" lon="11.10725674394923"><ele>282.0</ele><time>2026-04-15T12:40:13.001Z</time></trkpt><trkpt lat="45.47690672774268" lon="11.107233240572167"><ele>282.0</ele><time>2026-04-15T12:40:14.001Z</time></trkpt><trkpt lat="45.47679806830278" lon="11.107233240576438"><ele>282.0</ele><time>2026-04-15T12:40:15.001Z</time></trkpt><trkpt lat="45.47668766483637" lon="11.107230626858517"><ele>282.0</ele><time>2026-04-15T12:40:16.001Z</time></trkpt><trkpt lat="45.476595867913616" lon="11.107214912145027"><ele>282.0</ele><time>2026-04-15T12:40:17.001Z</time></trkpt><trkpt lat="45.476522640345486" lon="11.10714491227313"><ele>282.0</ele><time>2026-04-15T12:40:18.001Z</time></trkpt><trkpt lat="45.4764527895963" lon="11.107015977223497"><ele>282.0</ele><time>2026-04-15T12:40:19.001Z</time></trkpt><trkpt lat="45.47635669757115" lon="11.106904625200313"><ele>282.0</ele><time>2026-04-15T12:40:20.001Z</time></trkpt><trkpt lat="45.47627489590128" lon="11.10678775833494"><ele>282.0</ele><time>2026-04-15T12:40:21.001Z</time></trkpt><trkpt lat="45.47615914526516" lon="11.106706353786313"><ele>283.5</ele><time>2026-04-15T12:40:22.001Z</time></trkpt><trkpt lat="45.476040485346076" lon="11.106673556915467"><ele>285.0</ele><time>2026-04-15T12:40:23.001Z</time></trkpt><trkpt lat="45.47594283963802" lon="11.106683097566664"><ele>286.5</ele><time>2026-04-15T12:40:24.001Z</time></trkpt><trkpt lat="45.47587243187768" lon="11.106684716305992"><ele>288.0</ele><time>2026-04-15T12:40:26.001Z</time></trkpt><trkpt lat="45.475881353331616" lon="11.106448422187574"><ele>285.3333333333333</ele><time>2026-04-15T12:40:28.001Z</time></trkpt><trkpt lat="45.47585003903312" lon="11.106345633161714"><ele>282.6666666666667</ele><time>2026-04-15T12:40:29.001Z</time></trkpt><trkpt lat="45.47577402167472" lon="11.106296684244661"><ele>280.0</ele><time>2026-04-15T12:40:30.001Z</time></trkpt><trkpt lat="45.47570972938832" lon="11.10626397057966"><ele>277.33333333333337</ele><time>2026-04-15T12:40:31.001Z</time></trkpt><trkpt lat="45.47562655738485" lon="11.106276544080355"><ele>274.6666666666667</ele><time>2026-04-15T12:40:32.001Z</time></trkpt><trkpt lat="45.47555408891529" lon="11.10634023042117"><ele>272.0</ele><time>2026-04-15T12:40:33.001Z</time></trkpt><trkpt lat="45.47548412008058" lon="11.106417731263763"><ele>272.2</ele><time>2026-04-15T12:40:34.001Z</time></trkpt><trkpt lat="45.47539805971672" lon="11.106501812530777"><ele>272.4</ele><time>2026-04-15T12:40:35.001Z</time></trkpt><trkpt lat="45.47533180612464" lon="11.10662105950384"><ele>272.6</ele><time>2026-04-15T12:40:36.001Z</time></trkpt><trkpt lat="45.47525211976234" lon="11.106710169928595"><ele>272.8</ele><time>2026-04-15T12:40:37.001Z</time></trkpt><trkpt lat="45.47516306669959" lon="11.106747373753894"><ele>273.0</ele><time>2026-04-15T12:40:38.001Z</time></trkpt><trkpt lat="45.47507686000485" lon="11.106756382586497"><ele>274.8</ele><time>2026-04-15T12:40:39.001Z</time></trkpt><trkpt lat="45.47499242510735" lon="11.106798291897144"><ele>276.6</ele><time>2026-04-15T12:40:40.001Z</time></trkpt><trkpt lat="45.47491730775871" lon="11.106877509397517"><ele>278.4</ele><time>2026-04-15T12:40:41.001Z</time></trkpt><trkpt lat="45.47484168201835" lon="11.106972322906579"><ele>280.2</ele><time>2026-04-15T12:40:42.001Z</time></trkpt><trkpt lat="45.47474912000192" lon="11.10706116802283"><ele>282.0</ele><time>2026-04-15T12:40:43.001Z</time></trkpt><trkpt lat="45.47467831993524" lon="11.107129222908675"><ele>280.6</ele><time>2026-04-15T12:40:44.001Z</time></trkpt><trkpt lat="45.47458388312551" lon="11.10710243893894"><ele>279.2</ele><time>2026-04-15T12:40:45.001Z</time></trkpt><trkpt lat="45.47450825617873" lon="11.107139474863299"><ele>277.8</ele><time>2026-04-15T12:40:46.001Z</time></trkpt><trkpt lat="45.47444974169571" lon="11.10725375164175"><ele>276.4</ele><time>2026-04-15T12:40:47.001Z</time></trkpt><trkpt lat="45.474394464095724" lon="11.107363158895463"><ele>275.0</ele><time>2026-04-15T12:40:48.001Z</time></trkpt><trkpt lat="45.47431285952145" lon="11.107474610394881"><ele>275.0</ele><time>2026-04-15T12:40:49.001Z</time></trkpt><trkpt lat="45.47425327127474" lon="11.107603094906235"><ele>275.0</ele><time>2026-04-15T12:40:50.001Z</time></trkpt><trkpt lat="45.47420119352139" lon="11.10773889642904"><ele>275.0</ele><time>2026-04-15T12:40:51.001Z</time></trkpt><trkpt lat="45.47415728414282" lon="11.10786659304193"><ele>275.0</ele><time>2026-04-15T12:40:52.001Z</time></trkpt><trkpt lat="45.47409962947124" lon="11.10798757452289"><ele>275.0</ele><time>2026-04-15T12:40:53.001Z</time></trkpt><trkpt lat="45.474077080449625" lon="11.108120921387165"><ele>275.2</ele><time>2026-04-15T12:40:54.001Z</time></trkpt><trkpt lat="45.474044300624946" lon="11.108261786363952"><ele>275.4</ele><time>2026-04-15T12:40:55.001Z</time></trkpt><trkpt lat="45.474033429877124" lon="11.108401530906033"><ele>275.6</ele><time>2026-04-15T12:40:56.001Z</time></trkpt><trkpt lat="45.474038501826676" lon="11.108553052089364"><ele>275.8</ele><time>2026-04-15T12:40:57.001Z</time></trkpt><trkpt lat="45.47405029911925" lon="11.1087081535865"><ele>276.0</ele><time>2026-04-15T12:40:58.001Z</time></trkpt><trkpt lat="45.47404548037319" lon="11.108830826822473"><ele>276.0</ele><time>2026-04-15T12:40:59.001Z</time></trkpt><trkpt lat="45.47403681426676" lon="11.108936284533469"><ele>276.0</ele><time>2026-04-15T12:41:00.001Z</time></trkpt><trkpt lat="45.474008022171205" lon="11.109019725997188"><ele>276.0</ele><time>2026-04-15T12:41:01.001Z</time></trkpt><trkpt lat="45.47393959962983" lon="11.10905458167686"><ele>276.0</ele><time>2026-04-15T12:41:02.001Z</time></trkpt><trkpt lat="45.473872425645595" lon="11.109057938549293"><ele>276.0</ele><time>2026-04-15T12:41:03.001Z</time></trkpt><trkpt lat="45.473798639970425" lon="11.10909426830405"><ele>276.0</ele><time>2026-04-15T12:41:04.001Z</time></trkpt><trkpt lat="45.47369216443171" lon="11.109139323394107"><ele>272.75</ele><time>2026-04-15T12:41:05.001Z</time></trkpt><trkpt lat="45.47357455045047" lon="11.109182667595597"><ele>269.5</ele><time>2026-04-15T12:41:06.001Z</time></trkpt><trkpt lat="45.473454668326156" lon="11.109220186676817"><ele>266.25</ele><time>2026-04-15T12:41:07.001Z</time></trkpt><trkpt lat="45.47332662232443" lon="11.109260292215481"><ele>263.0</ele><time>2026-04-15T12:41:08.001Z</time></trkpt><trkpt lat="45.47320780616434" lon="11.109297016954892"><ele>263.0</ele><time>2026-04-15T12:41:09.001Z</time></trkpt><trkpt lat="45.47310466181622" lon="11.109326055451994"><ele>263.0</ele><time>2026-04-15T12:41:10.001Z</time></trkpt><trkpt lat="45.4730007213395" lon="11.10935381020355"><ele>263.0</ele><time>2026-04-15T12:41:11.001Z</time></trkpt><trkpt lat="45.47290065985668" lon="11.109376043826337"><ele>263.0</ele><time>2026-04-15T12:41:12.001Z</time></trkpt><trkpt lat="45.47281153873559" lon="11.109402130688688"><ele>263.0</ele><time>2026-04-15T12:41:13.001Z</time></trkpt><trkpt lat="45.47271907852022" lon="11.109419475792198"><ele>260.83333333333337</ele><time>2026-04-15T12:41:14.001Z</time></trkpt><trkpt lat="45.472624855193295" lon="11.109460140385536"><ele>258.6666666666667</ele><time>2026-04-15T12:41:15.001Z</time></trkpt><trkpt lat="45.472532452067476" lon="11.109534511779183"><ele>256.5</ele><time>2026-04-15T12:41:16.001Z</time></trkpt><trkpt lat="45.47245644869333" lon="11.109599411707235"><ele>254.33333333333331</ele><time>2026-04-15T12:41:17.001Z</time></trkpt><trkpt lat="45.47238971887228" lon="11.10963667810701"><ele>252.16666666666666</ele><time>2026-04-15T12:41:18.001Z</time></trkpt><trkpt lat="45.472312617131884" lon="11.109681176628172"><ele>250.0</ele><time>2026-04-15T12:41:19.001Z</time></trkpt><trkpt lat="45.47225321890939" lon="11.109715713740306"><ele>250.0</ele><time>2026-04-15T12:41:20.001Z</time></trkpt><trkpt lat="45.47219090793343" lon="11.109758143203457"><ele>250.0</ele><time>2026-04-15T12:41:21.001Z</time></trkpt><trkpt lat="45.472082986491124" lon="11.109790468222084"><ele>250.0</ele><time>2026-04-15T12:41:22.001Z</time></trkpt><trkpt lat="45.47196753870616" lon="11.109817801358691"><ele>250.0</ele><time>2026-04-15T12:41:23.001Z</time></trkpt><trkpt lat="45.47185134606525" lon="11.109862133918996"><ele>250.0</ele><time>2026-04-15T12:41:24.001Z</time></trkpt><trkpt lat="45.471726230657005" lon="11.109902547872183"><ele>251.2</ele><time>2026-04-15T12:41:25.001Z</time></trkpt><trkpt lat="45.471615943315584" lon="11.109937629266037"><ele>252.4</ele><time>2026-04-15T12:41:26.001Z</time></trkpt><trkpt lat="45.47151416726648" lon="11.109975090955297"><ele>253.60000000000002</ele><time>2026-04-15T12:41:27.001Z</time></trkpt><trkpt lat="45.47142118345132" lon="11.110013998342843"><ele>254.8</ele><time>2026-04-15T12:41:28.001Z</time></trkpt><trkpt lat="45.4713577928768" lon="11.110049208414777"><ele>256.0</ele><time>2026-04-15T12:41:29.001Z</time></trkpt><trkpt lat="45.471261959090896" lon="11.110101912575873"><ele>253.33333333333331</ele><time>2026-04-15T12:41:31.001Z</time></trkpt><trkpt lat="45.4711563614733" lon="11.11008503921967"><ele>250.66666666666666</ele><time>2026-04-15T12:41:33.001Z</time></trkpt><trkpt lat="45.471071232480085" lon="11.110102843678833"><ele>248.0</ele><time>2026-04-15T12:41:34.001Z</time></trkpt><trkpt lat="45.47098242460613" lon="11.110113847516715"><ele>245.33333333333331</ele><time>2026-04-15T12:41:35.001Z</time></trkpt><trkpt lat="45.47090818708754" lon="11.110121600914487"><ele>242.66666666666666</ele><time>2026-04-15T12:41:36.001Z</time></trkpt><trkpt lat="45.47082614426991" lon="11.1101163078391"><ele>240.0</ele><time>2026-04-15T12:41:37.001Z</time></trkpt><trkpt lat="45.47072607267401" lon="11.11001966264617"><ele>240.0</ele><time>2026-04-15T12:41:38.001Z</time></trkpt><trkpt lat="45.47059691912683" lon="11.109998226933126"><ele>240.0</ele><time>2026-04-15T12:41:40.001Z</time></trkpt><trkpt lat="45.470521167584614" lon="11.109970846894093"><ele>240.0</ele><time>2026-04-15T12:41:41.001Z</time></trkpt><trkpt lat="45.47046208599871" lon="11.10993926914052"><ele>240.0</ele><time>2026-04-15T12:41:42.001Z</time></trkpt><trkpt lat="45.4704142610826" lon="11.109871201034558"><ele>240.0</ele><time>2026-04-15T12:41:43.001Z</time></trkpt><trkpt lat="45.47035265098016" lon="11.109775824120831"><ele>240.0</ele><time>2026-04-15T12:41:44.001Z</time></trkpt><trkpt lat="45.470280282469055" lon="11.109697267015108"><ele>236.33333333333334</ele><time>2026-04-15T12:41:45.001Z</time></trkpt><trkpt lat="45.47023081716437" lon="11.10960346338855"><ele>232.66666666666669</ele><time>2026-04-15T12:41:46.001Z</time></trkpt><trkpt lat="45.470118785510714" lon="11.109492151872429"><ele>229.0</ele><time>2026-04-15T12:41:48.001Z</time></trkpt><trkpt lat="45.470043146546566" lon="11.109478137253676"><ele>225.33333333333334</ele><time>2026-04-15T12:41:49.001Z</time></trkpt><trkpt lat="45.469978995903176" lon="11.109443271315461"><ele>221.66666666666669</ele><time>2026-04-15T12:41:50.001Z</time></trkpt><trkpt lat="45.46992153944759" lon="11.10940632334274"><ele>218.0</ele><time>2026-04-15T12:41:51.001Z</time></trkpt><trkpt lat="45.46986752770182" lon="11.109358647994025"><ele>218.00000000000003</ele><time>2026-04-15T12:41:52.001Z</time></trkpt><trkpt lat="45.46980716326333" lon="11.109275433077814"><ele>218.0</ele><time>2026-04-15T12:41:53.001Z</time></trkpt><trkpt lat="45.46974462355153" lon="11.10918778997141"><ele>218.0</ele><time>2026-04-15T12:41:54.001Z</time></trkpt><trkpt lat="45.46968611697731" lon="11.109101370641289"><ele>218.0</ele><time>2026-04-15T12:41:55.001Z</time></trkpt><trkpt lat="45.46962632508996" lon="11.109009721305242"><ele>218.00000000000003</ele><time>2026-04-15T12:41:56.001Z</time></trkpt><trkpt lat="45.46956722968585" lon="11.10895143078428"><ele>218.0</ele><time>2026-04-15T12:41:57.001Z</time></trkpt><trkpt lat="45.46954146042681" lon="11.108862812158305"><ele>213.16666666666669</ele><time>2026-04-15T12:41:58.001Z</time></trkpt><trkpt lat="45.46951360595437" lon="11.108762945417816"><ele>208.33333333333334</ele><time>2026-04-15T12:41:59.001Z</time></trkpt><trkpt lat="45.4695020114363" lon="11.108666571545514"><ele>203.5</ele><time>2026-04-15T12:42:00.001Z</time></trkpt><trkpt lat="45.46949022237297" lon="11.10854187643373"><ele>198.66666666666669</ele><time>2026-04-15T12:42:01.001Z</time></trkpt><trkpt lat="45.46947166699975" lon="11.108421821569356"><ele>193.83333333333334</ele><time>2026-04-15T12:42:02.001Z</time></trkpt><trkpt lat="45.46946761125217" lon="11.108289104382655"><ele>189.0</ele><time>2026-04-15T12:42:03.001Z</time></trkpt><trkpt lat="45.46946484379729" lon="11.108181422092917"><ele>187.39999999999998</ele><time>2026-04-15T12:42:04.001Z</time></trkpt><trkpt lat="45.46944778895014" lon="11.10808885166528"><ele>185.8</ele><time>2026-04-15T12:42:05.001Z</time></trkpt><trkpt lat="45.46944259965985" lon="11.107952991832535"><ele>184.2</ele><time>2026-04-15T12:42:07.001Z</time></trkpt><trkpt lat="45.46934757073779" lon="11.108027430009294"><ele>182.60000000000002</ele><time>2026-04-15T12:42:11.001Z</time></trkpt><trkpt lat="45.4692336208239" lon="11.107952253036277"><ele>181.0</ele><time>2026-04-15T12:42:14.001Z</time></trkpt><trkpt lat="45.469199159852955" lon="11.107826721983027"><ele>181.0</ele><time>2026-04-15T12:42:19.001Z</time></trkpt><trkpt lat="45.469127908221516" lon="11.107766166078706"><ele>181.0</ele><time>2026-04-15T12:42:21.001Z</time></trkpt><trkpt lat="45.469015112244385" lon="11.10769947380402"><ele>181.0</ele><time>2026-04-15T12:42:23.001Z</time></trkpt><trkpt lat="45.46895574938567" lon="11.107664034801804"><ele>181.0</ele><time>2026-04-15T12:42:24.001Z</time></trkpt><trkpt lat="45.46889041875256" lon="11.107629056432716"><ele>181.0</ele><time>2026-04-15T12:42:25.001Z</time></trkpt><trkpt lat="45.468826990244615" lon="11.107589562188634"><ele>181.0</ele><time>2026-04-15T12:42:26.001Z</time></trkpt><trkpt lat="45.46872129296366" lon="11.107543382687286"><ele>177.20000000000002</ele><time>2026-04-15T12:42:28.001Z</time></trkpt><trkpt lat="45.46862095644755" lon="11.107489366719706"><ele>173.4</ele><time>2026-04-15T12:42:30.001Z</time></trkpt><trkpt lat="45.468534410833804" lon="11.107416553490403"><ele>169.6</ele><time>2026-04-15T12:42:32.001Z</time></trkpt><trkpt lat="45.468471812494855" lon="11.107379714644571"><ele>165.8</ele><time>2026-04-15T12:42:33.001Z</time></trkpt><trkpt lat="45.46837429828826" lon="11.107300190755272"><ele>162.0</ele><time>2026-04-15T12:42:35Z</time></trkpt><trkpt lat="45.468287662504764" lon="11.107224881691586"><ele>161.83333333333334</ele><time>2026-04-15T12:42:37Z</time></trkpt><trkpt lat="45.46817085195657" lon="11.107200921711385"><ele>161.66666666666666</ele><time>2026-04-15T12:42:39Z</time></trkpt><trkpt lat="45.468096972631" lon="11.107176839247513"><ele>161.5</ele><time>2026-04-15T12:42:40Z</time></trkpt><trkpt lat="45.46802424979017" lon="11.10716173150366"><ele>161.33333333333331</ele><time>2026-04-15T12:42:41Z</time></trkpt><trkpt lat="45.46795769515828" lon="11.107151083465707"><ele>161.16666666666666</ele><time>2026-04-15T12:42:42Z</time></trkpt><trkpt lat="45.46788588813582" lon="11.107140069547755"><ele>161.0</ele><time>2026-04-15T12:42:43Z</time></trkpt><trkpt lat="45.46782263950395" lon="11.107149182110652"><ele>158.20000000000002</ele><time>2026-04-15T12:42:44Z</time></trkpt><trkpt lat="45.467724933616246" lon="11.107190992933363"><ele>155.4</ele><time>2026-04-15T12:42:46Z</time></trkpt><trkpt lat="45.46762145323487" lon="11.107138523011292"><ele>152.6</ele><time>2026-04-15T12:42:48Z</time></trkpt><trkpt lat="45.46755483974888" lon="11.107027273063233"><ele>149.8</ele><time>2026-04-15T12:42:50Z</time></trkpt><trkpt lat="45.46751811869523" lon="11.10695429039779"><ele>147.0</ele><time>2026-04-15T12:42:51Z</time></trkpt><trkpt lat="45.467425090700075" lon="11.106907375518501"><ele>147.0</ele><time>2026-04-15T12:42:53Z</time></trkpt><trkpt lat="45.467292971030325" lon="11.106915447034872"><ele>147.0</ele><time>2026-04-15T12:42:55Z</time></trkpt><trkpt lat="45.46716820516387" lon="11.106875663838371"><ele>147.0</ele><time>2026-04-15T12:42:57Z</time></trkpt><trkpt lat="45.46710235962592" lon="11.106826896452944"><ele>147.0</ele><time>2026-04-15T12:42:58Z</time></trkpt><trkpt lat="45.46703494351351" lon="11.106778064929742"><ele>147.0</ele><time>2026-04-15T12:42:59Z</time></trkpt><trkpt lat="45.466971372120135" lon="11.1067352040593"><ele>144.6</ele><time>2026-04-15T12:43:00Z</time></trkpt><trkpt lat="45.4669022731298" lon="11.106697771913785"><ele>142.2</ele><time>2026-04-15T12:43:01Z</time></trkpt><trkpt lat="45.466840574993675" lon="11.106668671826474"><ele>139.8</ele><time>2026-04-15T12:43:02Z</time></trkpt><trkpt lat="45.46669479255134" lon="11.10651810432992"><ele>137.4</ele><time>2026-04-15T12:43:04Z</time></trkpt><trkpt lat="45.46660057301516" lon="11.106542591228967"><ele>135.0</ele><time>2026-04-15T12:43:05Z</time></trkpt><trkpt lat="45.466506086449684" lon="11.106565270945275"><ele>135.0</ele><time>2026-04-15T12:43:06Z</time></trkpt><trkpt lat="45.46642719378178" lon="11.106580313857767"><ele>135.0</ele><time>2026-04-15T12:43:07Z</time></trkpt><trkpt lat="45.46631936604802" lon="11.106575374164558"><ele>135.0</ele><time>2026-04-15T12:43:09Z</time></trkpt><trkpt lat="45.46625202975492" lon="11.106547477689196"><ele>135.0</ele><time>2026-04-15T12:43:12Z</time></trkpt><trkpt lat="45.46617341141475" lon="11.10651375565771"><ele>135.0</ele><time>2026-04-15T12:43:14Z</time></trkpt><trkpt lat="45.46611408941304" lon="11.106335901313859"><ele>133.75</ele><time>2026-04-15T12:43:16Z</time></trkpt><trkpt lat="45.46605608167961" lon="11.106200064115765"><ele>132.5</ele><time>2026-04-15T12:43:17Z</time></trkpt><trkpt lat="45.46600754647902" lon="11.106041169266136"><ele>131.25</ele><time>2026-04-15T12:43:18Z</time></trkpt><trkpt lat="45.46594592990367" lon="11.10588082668106"><ele>130.0</ele><time>2026-04-15T12:43:19Z</time></trkpt><trkpt lat="45.46590791746824" lon="11.10573456234721"><ele>130.0</ele><time>2026-04-15T12:43:20Z</time></trkpt><trkpt lat="45.46585837588826" lon="11.10563893788848"><ele>130.0</ele><time>2026-04-15T12:43:21Z</time></trkpt><trkpt lat="45.46583139294965" lon="11.105547450232024"><ele>130.0</ele><time>2026-04-15T12:43:22Z</time></trkpt><trkpt lat="45.46577391633268" lon="11.10539179190629"><ele>130.0</ele><time>2026-04-15T12:43:24.001Z</time></trkpt><trkpt lat="45.46573322279293" lon="11.1052497240406"><ele>130.0</ele><time>2026-04-15T12:43:26.001Z</time></trkpt><trkpt lat="45.46568906084405" lon="11.105160424525245"><ele>130.0</ele><time>2026-04-15T12:43:29.001Z</time></trkpt><trkpt lat="45.46562079395364" lon="11.105117945505171"><ele>130.0</ele><time>2026-04-15T12:43:30.001Z</time></trkpt><trkpt lat="45.46553529396964" lon="11.105104229427598"><ele>130.0</ele><time>2026-04-15T12:43:31.001Z</time></trkpt><trkpt lat="45.46548403125149" lon="11.105037141843095"><ele>130.0</ele><time>2026-04-15T12:43:34.001Z</time></trkpt><trkpt lat="45.46555936416737" lon="11.105054582627066"><ele>130.0</ele><time>2026-04-15T12:43:35.001Z</time></trkpt><trkpt lat="45.465630793487364" lon="11.105071231202343"><ele>130.0</ele><time>2026-04-15T12:43:36.001Z</time></trkpt><trkpt lat="45.46572869580589" lon="11.105063457672959"><ele>130.0</ele><time>2026-04-15T12:43:37.001Z</time></trkpt><trkpt lat="45.46583702988624" lon="11.10505817358494"><ele>130.0</ele><time>2026-04-15T12:43:38.001Z</time></trkpt><trkpt lat="45.46595270755501" lon="11.104976776823612"><ele>130.0</ele><time>2026-04-15T12:43:39.001Z</time></trkpt><trkpt lat="45.46607227788973" lon="11.104855789173099"><ele>130.0</ele><time>2026-04-15T12:43:40.001Z</time></trkpt><trkpt lat="45.46618898898136" lon="11.10473201990133"><ele>131.25</ele><time>2026-04-15T12:43:41.001Z</time></trkpt><trkpt lat="45.46631031528276" lon="11.10459280790311"><ele>132.5</ele><time>2026-04-15T12:43:42.001Z</time></trkpt><trkpt lat="45.46640537837425" lon="11.104472743188758"><ele>133.75</ele><time>2026-04-15T12:43:43.001Z</time></trkpt><trkpt lat="45.46649622799245" lon="11.104383365618846"><ele>135.0</ele><time>2026-04-15T12:43:44.001Z</time></trkpt><trkpt lat="45.466559698723145" lon="11.104313386299383"><ele>135.0</ele><time>2026-04-15T12:43:45.001Z</time></trkpt><trkpt lat="45.46662560695978" lon="11.104234199431295"><ele>135.0</ele><time>2026-04-15T12:43:46.001Z</time></trkpt><trkpt lat="45.46669868991101" lon="11.10412324553401"><ele>135.0</ele><time>2026-04-15T12:43:47.001Z</time></trkpt><trkpt lat="45.466774627645904" lon="11.104016246458958"><ele>135.0</ele><time>2026-04-15T12:43:48.001Z</time></trkpt><trkpt lat="45.4668481770217" lon="11.103910493187604"><ele>135.0</ele><time>2026-04-15T12:43:49.001Z</time></trkpt><trkpt lat="45.466907709240175" lon="11.10381471061488"><ele>135.66666666666666</ele><time>2026-04-15T12:43:50.001Z</time></trkpt><trkpt lat="45.466964809947484" lon="11.103728477086888"><ele>136.33333333333334</ele><time>2026-04-15T12:43:51.001Z</time></trkpt><trkpt lat="45.46702582448049" lon="11.103633115686005"><ele>137.0</ele><time>2026-04-15T12:43:52.001Z</time></trkpt><trkpt lat="45.467087191889114" lon="11.103537438900188"><ele>137.66666666666669</ele><time>2026-04-15T12:43:53.001Z</time></trkpt><trkpt lat="45.46714198555587" lon="11.103448535161116"><ele>138.33333333333334</ele><time>2026-04-15T12:43:54.001Z</time></trkpt><trkpt lat="45.46720085091968" lon="11.103372581258391"><ele>139.0</ele><time>2026-04-15T12:43:55.001Z</time></trkpt><trkpt lat="45.46725586204214" lon="11.103306991916213"><ele>139.83333333333334</ele><time>2026-04-15T12:43:56.001Z</time></trkpt><trkpt lat="45.46734003306418" lon="11.103236777449936"><ele>140.66666666666669</ele><time>2026-04-15T12:43:58.001Z</time></trkpt><trkpt lat="45.46741788147366" lon="11.10322070649427"><ele>141.5</ele><time>2026-04-15T12:44:00.001Z</time></trkpt><trkpt lat="45.46748075584773" lon="11.103198941885317"><ele>142.33333333333334</ele><time>2026-04-15T12:44:02.001Z</time></trkpt><trkpt lat="45.46754505564546" lon="11.103176526661573"><ele>143.16666666666666</ele><time>2026-04-15T12:44:03.001Z</time></trkpt><trkpt lat="45.46761308829879" lon="11.103157154248521"><ele>144.0</ele><time>2026-04-15T12:44:04.001Z</time></trkpt><trkpt lat="45.46770650698142" lon="11.10314512843927"><ele>144.0</ele><time>2026-04-15T12:44:05.001Z</time></trkpt><trkpt lat="45.46780166379342" lon="11.10313234132473"><ele>144.0</ele><time>2026-04-15T12:44:06.001Z</time></trkpt><trkpt lat="45.467923062943974" lon="11.103115713933636"><ele>144.0</ele><time>2026-04-15T12:44:07.001Z</time></trkpt><trkpt lat="45.468052303694854" lon="11.10309231392237"><ele>144.0</ele><time>2026-04-15T12:44:08.001Z</time></trkpt><trkpt lat="45.46816136669282" lon="11.103083552786767"><ele>144.0</ele><time>2026-04-15T12:44:09.001Z</time></trkpt><trkpt lat="45.468258900430556" lon="11.103069492469858"><ele>144.0</ele><time>2026-04-15T12:44:10.001Z</time></trkpt><trkpt lat="45.46834816138374" lon="11.103080314537728"><ele>144.0</ele><time>2026-04-15T12:44:11.001Z</time></trkpt><trkpt lat="45.468426391033255" lon="11.103028303410722"><ele>144.0</ele><time>2026-04-15T12:44:12.001Z</time></trkpt><trkpt lat="45.46850768618862" lon="11.103000104384726"><ele>144.0</ele><time>2026-04-15T12:44:13.001Z</time></trkpt><trkpt lat="45.46858926819055" lon="11.102957587139281"><ele>144.0</ele><time>2026-04-15T12:44:14.001Z</time></trkpt><trkpt lat="45.46866068169514" lon="11.102914067306184"><ele>144.00000000000003</ele><time>2026-04-15T12:44:15Z</time></trkpt><trkpt lat="45.46872614610944" lon="11.10286663576152"><ele>144.0</ele><time>2026-04-15T12:44:16Z</time></trkpt><trkpt lat="45.46878768053882" lon="11.10281357593551"><ele>144.0</ele><time>2026-04-15T12:44:17Z</time></trkpt><trkpt lat="45.468848776068356" lon="11.1027512455948"><ele>144.0</ele><time>2026-04-15T12:44:18Z</time></trkpt><trkpt lat="45.46891197715127" lon="11.10269250541478"><ele>144.0</ele><time>2026-04-15T12:44:19Z</time></trkpt><trkpt lat="45.4689730548467" lon="11.102632212535006"><ele>144.00000000000003</ele><time>2026-04-15T12:44:20Z</time></trkpt><trkpt lat="45.4690372121012" lon="11.102567115308995"><ele>144.0</ele><time>2026-04-15T12:44:21Z</time></trkpt><trkpt lat="45.46910324635851" lon="11.102503661117659"><ele>144.4</ele><time>2026-04-15T12:44:22Z</time></trkpt><trkpt lat="45.46917886945813" lon="11.102431888124977"><ele>144.8</ele><time>2026-04-15T12:44:23Z</time></trkpt><trkpt lat="45.46926643035127" lon="11.102348617147008"><ele>145.2</ele><time>2026-04-15T12:44:24Z</time></trkpt><trkpt lat="45.469355319342505" lon="11.102271877565645"><ele>145.6</ele><time>2026-04-15T12:44:25Z</time></trkpt><trkpt lat="45.469451313527976" lon="11.102185265325565"><ele>146.0</ele><time>2026-04-15T12:44:26Z</time></trkpt><trkpt lat="45.46955544567069" lon="11.102102520206355"><ele>147.25</ele><time>2026-04-15T12:44:27Z</time></trkpt><trkpt lat="45.469668018899924" lon="11.102018275892666"><ele>148.5</ele><time>2026-04-15T12:44:28Z</time></trkpt><trkpt lat="45.46978575068535" lon="11.101934856646071"><ele>149.75</ele><time>2026-04-15T12:44:29Z</time></trkpt><trkpt lat="45.469893748204335" lon="11.101869743269901"><ele>151.0</ele><time>2026-04-15T12:44:30Z</time></trkpt><trkpt lat="45.46999404255154" lon="11.101812143152896"><ele>151.0</ele><time>2026-04-15T12:44:31Z</time></trkpt><trkpt lat="45.470080849414174" lon="11.101757046047899"><ele>151.0</ele><time>2026-04-15T12:44:32Z</time></trkpt><trkpt lat="45.470161177427755" lon="11.101710948862818"><ele>151.0</ele><time>2026-04-15T12:44:33Z</time></trkpt><trkpt lat="45.470238777215265" lon="11.101667741303412"><ele>151.0</ele><time>2026-04-15T12:44:34Z</time></trkpt><trkpt lat="45.47032531622589" lon="11.101626106927238"><ele>151.0</ele><time>2026-04-15T12:44:35Z</time></trkpt><trkpt lat="45.47041218618039" lon="11.101590164990649"><ele>151.0</ele><time>2026-04-15T12:44:36Z</time></trkpt><trkpt lat="45.47050051119658" lon="11.101548304586332"><ele>152.4</ele><time>2026-04-15T12:44:37Z</time></trkpt><trkpt lat="45.47059322192687" lon="11.101500082092157"><ele>153.8</ele><time>2026-04-15T12:44:38Z</time></trkpt><trkpt lat="45.470692176098545" lon="11.101455687763194"><ele>155.20000000000002</ele><time>2026-04-15T12:44:39Z</time></trkpt><trkpt lat="45.47079697170825" lon="11.101405303099783"><ele>156.6</ele><time>2026-04-15T12:44:40Z</time></trkpt><trkpt lat="45.470908305179634" lon="11.101347079401256"><ele>158.0</ele><time>2026-04-15T12:44:41Z</time></trkpt><trkpt lat="45.47101836350779" lon="11.101296463951051"><ele>158.0</ele><time>2026-04-15T12:44:42Z</time></trkpt><trkpt lat="45.471121593465064" lon="11.101247758552883"><ele>158.0</ele><time>2026-04-15T12:44:43Z</time></trkpt><trkpt lat="45.47121029932812" lon="11.101204785185343"><ele>158.0</ele><time>2026-04-15T12:44:44Z</time></trkpt><trkpt lat="45.4712791620935" lon="11.101168530316045"><ele>158.0</ele><time>2026-04-15T12:44:45Z</time></trkpt><trkpt lat="45.47136333403968" lon="11.101111852629776"><ele>158.0</ele><time>2026-04-15T12:44:47Z</time></trkpt><trkpt lat="45.47130285585426" lon="11.101170586661357"><ele>158.0</ele><time>2026-04-15T12:45:31Z</time></trkpt><trkpt lat="45.47123527772792" lon="11.10120948798125"><ele>158.0</ele><time>2026-04-15T12:45:33Z</time></trkpt><trkpt lat="45.471142960179925" lon="11.10124869936158"><ele>158.0</ele><time>2026-04-15T12:45:35Z</time></trkpt><trkpt lat="45.47108033437747" lon="11.101272465690046"><ele>158.0</ele><time>2026-04-15T12:45:36Z</time></trkpt><trkpt lat="45.47101475260607" lon="11.101305038632983"><ele>158.0</ele><time>2026-04-15T12:45:37Z</time></trkpt><trkpt lat="45.470930815335976" lon="11.101279923292761"><ele>158.0</ele><time>2026-04-15T12:45:38Z</time></trkpt><trkpt lat="45.47085451130559" lon="11.101316964289916"><ele>158.0</ele><time>2026-04-15T12:45:39Z</time></trkpt><trkpt lat="45.47077640919002" lon="11.101354878155561"><ele>158.0</ele><time>2026-04-15T12:45:40Z</time></trkpt><trkpt lat="45.47070381886217" lon="11.10139011647156"><ele>158.0</ele><time>2026-04-15T12:45:41Z</time></trkpt><trkpt lat="45.470634650195464" lon="11.101424868243601"><ele>158.0</ele><time>2026-04-15T12:45:42Z</time></trkpt><trkpt lat="45.47056243467803" lon="11.101460836599408"><ele>158.0</ele><time>2026-04-15T12:45:43Z</time></trkpt><trkpt lat="45.47047783883828" lon="11.10150297120511"><ele>158.0</ele><time>2026-04-15T12:45:44Z</time></trkpt><trkpt lat="45.47039875268112" lon="11.101542361596303"><ele>158.0</ele><time>2026-04-15T12:45:45Z</time></trkpt><trkpt lat="45.47031006084617" lon="11.101585124032855"><ele>156.6</ele><time>2026-04-15T12:45:46Z</time></trkpt><trkpt lat="45.47021194246905" lon="11.101632281377906"><ele>155.20000000000002</ele><time>2026-04-15T12:45:47Z</time></trkpt><trkpt lat="45.47012509657064" lon="11.10168752147591"><ele>153.8</ele><time>2026-04-15T12:45:48Z</time></trkpt><trkpt lat="45.47002303340072" lon="11.101734229511875"><ele>152.4</ele><time>2026-04-15T12:45:49Z</time></trkpt><trkpt lat="45.4699123079807" lon="11.101792220079156"><ele>151.0</ele><time>2026-04-15T12:45:50Z</time></trkpt><trkpt lat="45.46979607047243" lon="11.101872430595723"><ele>151.0</ele><time>2026-04-15T12:45:51Z</time></trkpt><trkpt lat="45.46968142194006" lon="11.101952823529908"><ele>151.0</ele><time>2026-04-15T12:45:52Z</time></trkpt><trkpt lat="45.469570015019656" lon="11.102037739011832"><ele>151.0</ele><time>2026-04-15T12:45:53Z</time></trkpt><trkpt lat="45.469467714593975" lon="11.102120946087195"><ele>151.0</ele><time>2026-04-15T12:45:54Z</time></trkpt><trkpt lat="45.46937155010133" lon="11.102199227727429"><ele>151.5</ele><time>2026-04-15T12:45:55Z</time></trkpt><trkpt lat="45.46927843973134" lon="11.102281788427508"><ele>152.0</ele><time>2026-04-15T12:45:56Z</time></trkpt><trkpt lat="45.469170174135165" lon="11.102387909890032"><ele>152.5</ele><time>2026-04-15T12:45:57Z</time></trkpt><trkpt lat="45.46906904956885" lon="11.102490135323537"><ele>153.0</ele><time>2026-04-15T12:45:58Z</time></trkpt><trkpt lat="45.46897644468227" lon="11.102581146664559"><ele>151.25</ele><time>2026-04-15T12:45:59Z</time></trkpt><trkpt lat="45.46888277353004" lon="11.102663362040044"><ele>149.5</ele><time>2026-04-15T12:46:00Z</time></trkpt><trkpt lat="45.46878676038095" lon="11.10274636663073"><ele>147.75</ele><time>2026-04-15T12:46:01Z</time></trkpt><trkpt lat="45.46868340907218" lon="11.102835639744873"><ele>146.0</ele><time>2026-04-15T12:46:02Z</time></trkpt><trkpt lat="45.468573896206024" lon="11.1029223444258"><ele>145.5</ele><time>2026-04-15T12:46:03Z</time></trkpt><trkpt lat="45.468449915015206" lon="11.10299373305538"><ele>145.0</ele><time>2026-04-15T12:46:04Z</time></trkpt><trkpt lat="45.46832247804983" lon="11.10303530760005"><ele>144.5</ele><time>2026-04-15T12:46:05Z</time></trkpt><trkpt lat="45.46817749517775" lon="11.103062391407695"><ele>144.0</ele><time>2026-04-15T12:46:06Z</time></trkpt><trkpt lat="45.468028112855244" lon="11.103080538125022"><ele>144.0</ele><time>2026-04-15T12:46:07Z</time></trkpt><trkpt lat="45.46787591065051" lon="11.103089571007201"><ele>144.0</ele><time>2026-04-15T12:46:08Z</time></trkpt><trkpt lat="45.46772385269887" lon="11.103095955201653"><ele>144.0</ele><time>2026-04-15T12:46:09Z</time></trkpt><trkpt lat="45.46757904656891" lon="11.103125131990137"><ele>144.0</ele><time>2026-04-15T12:46:10Z</time></trkpt><trkpt lat="45.467446679160936" lon="11.103159694186619"><ele>144.0</ele><time>2026-04-15T12:46:11Z</time></trkpt><trkpt lat="45.46732237169584" lon="11.10320650755093"><ele>144.0</ele><time>2026-04-15T12:46:12Z</time></trkpt><trkpt lat="45.46721102065033" lon="11.103286478964046"><ele>144.0</ele><time>2026-04-15T12:46:13Z</time></trkpt><trkpt lat="45.46710767428203" lon="11.103408547606655"><ele>143.0</ele><time>2026-04-15T12:46:14Z</time></trkpt><trkpt lat="45.46701272358341" lon="11.103568789022733"><ele>142.0</ele><time>2026-04-15T12:46:15Z</time></trkpt><trkpt lat="45.466919396018284" lon="11.103740457575867"><ele>141.0</ele><time>2026-04-15T12:46:16Z</time></trkpt><trkpt lat="45.466824853838595" lon="11.10390606318994"><ele>140.0</ele><time>2026-04-15T12:46:17Z</time></trkpt><trkpt lat="45.46671913137711" lon="11.104048978818595"><ele>138.75</ele><time>2026-04-15T12:46:18Z</time></trkpt><trkpt lat="45.466610534294894" lon="11.104183865882433"><ele>137.5</ele><time>2026-04-15T12:46:19Z</time></trkpt><trkpt lat="45.46650512885477" lon="11.104322242117478"><ele>136.25</ele><time>2026-04-15T12:46:20Z</time></trkpt><trkpt lat="45.466396105563774" lon="11.104457658550695"><ele>135.0</ele><time>2026-04-15T12:46:21Z</time></trkpt><trkpt lat="45.46628420943408" lon="11.104589093469277"><ele>135.25</ele><time>2026-04-15T12:46:22Z</time></trkpt><trkpt lat="45.466182071458334" lon="11.104703386569648"><ele>135.5</ele><time>2026-04-15T12:46:23Z</time></trkpt><trkpt lat="45.466078940096594" lon="11.104810171376716"><ele>135.75</ele><time>2026-04-15T12:46:24Z</time></trkpt><trkpt lat="45.46596726275308" lon="11.104916955735257"><ele>136.0</ele><time>2026-04-15T12:46:25Z</time></trkpt><trkpt lat="45.46585294070891" lon="11.105001365517847"><ele>134.5</ele><time>2026-04-15T12:46:26Z</time></trkpt><trkpt lat="45.465735561935965" lon="11.105049161688692"><ele>133.0</ele><time>2026-04-15T12:46:27Z</time></trkpt><trkpt lat="45.465617200142596" lon="11.105021856665378"><ele>131.5</ele><time>2026-04-15T12:46:28Z</time></trkpt><trkpt lat="45.46550170265434" lon="11.10502203126861"><ele>130.0</ele><time>2026-04-15T12:46:29Z</time></trkpt><trkpt lat="45.465383250747166" lon="11.104988306641443"><ele>129.25</ele><time>2026-04-15T12:46:30Z</time></trkpt><trkpt lat="45.46525532971496" lon="11.104961512162323"><ele>128.5</ele><time>2026-04-15T12:46:31Z</time></trkpt><trkpt lat="45.46512024166346" lon="11.104905960228535"><ele>127.75</ele><time>2026-04-15T12:46:32Z</time></trkpt><trkpt lat="45.46498151886119" lon="11.104834857463933"><ele>127.0</ele><time>2026-04-15T12:46:33Z</time></trkpt><trkpt lat="45.464846950007185" lon="11.10477319021701"><ele>129.25</ele><time>2026-04-15T12:46:34Z</time></trkpt><trkpt lat="45.46471989497937" lon="11.104729147845061"><ele>131.5</ele><time>2026-04-15T12:46:35Z</time></trkpt><trkpt lat="45.464599931672296" lon="11.10469794867851"><ele>133.75</ele><time>2026-04-15T12:46:36Z</time></trkpt><trkpt lat="45.46448789766143" lon="11.104670908416889"><ele>136.0</ele><time>2026-04-15T12:46:37Z</time></trkpt><trkpt lat="45.464359378998736" lon="11.104663865951814"><ele>136.0</ele><time>2026-04-15T12:46:38Z</time></trkpt><trkpt lat="45.46421935177384" lon="11.104667574207589"><ele>136.0</ele><time>2026-04-15T12:46:39Z</time></trkpt><trkpt lat="45.46407273864077" lon="11.104682218074618"><ele>136.0</ele><time>2026-04-15T12:46:40Z</time></trkpt><trkpt lat="45.463922236262626" lon="11.104723550849204"><ele>136.0</ele><time>2026-04-15T12:46:41Z</time></trkpt><trkpt lat="45.46378151331754" lon="11.104747120149039"><ele>134.75</ele><time>2026-04-15T12:46:42Z</time></trkpt><trkpt lat="45.463641574939636" lon="11.10478134667234"><ele>133.5</ele><time>2026-04-15T12:46:43Z</time></trkpt><trkpt lat="45.463502273810406" lon="11.104852238612919"><ele>132.25</ele><time>2026-04-15T12:46:44Z</time></trkpt><trkpt lat="45.46337065677552" lon="11.104932162680283"><ele>131.0</ele><time>2026-04-15T12:46:45Z</time></trkpt><trkpt lat="45.4632464888024" lon="11.105014769706926"><ele>128.25</ele><time>2026-04-15T12:46:46Z</time></trkpt><trkpt lat="45.46313071589389" lon="11.105076094950855"><ele>125.5</ele><time>2026-04-15T12:46:47Z</time></trkpt><trkpt lat="45.46300579638162" lon="11.105178611355848"><ele>122.75</ele><time>2026-04-15T12:46:48Z</time></trkpt><trkpt lat="45.46287372346154" lon="11.105258301486314"><ele>120.0</ele><time>2026-04-15T12:46:49Z</time></trkpt><trkpt lat="45.46274121240428" lon="11.105305485558361"><ele>120.0</ele><time>2026-04-15T12:46:50Z</time></trkpt><trkpt lat="45.462616435788895" lon="11.105382324261694"><ele>120.0</ele><time>2026-04-15T12:46:51Z</time></trkpt><trkpt lat="45.46248043810308" lon="11.105426312953297"><ele>120.0</ele><time>2026-04-15T12:46:52Z</time></trkpt><trkpt lat="45.46234120282165" lon="11.105457521737923"><ele>120.0</ele><time>2026-04-15T12:46:53Z</time></trkpt><trkpt lat="45.4621923543018" lon="11.105490536523668"><ele>120.25</ele><time>2026-04-15T12:46:54Z</time></trkpt><trkpt lat="45.46204979211252" lon="11.105535974816195"><ele>120.5</ele><time>2026-04-15T12:46:55Z</time></trkpt><trkpt lat="45.461897768235154" lon="11.105596916683794"><ele>120.75</ele><time>2026-04-15T12:46:56Z</time></trkpt><trkpt lat="45.46176622227657" lon="11.1056772068555"><ele>121.0</ele><time>2026-04-15T12:46:57Z</time></trkpt><trkpt lat="45.461630572860656" lon="11.10575697263546"><ele>118.5</ele><time>2026-04-15T12:46:58Z</time></trkpt><trkpt lat="45.46149455852185" lon="11.105839635810161"><ele>116.0</ele><time>2026-04-15T12:46:59Z</time></trkpt><trkpt lat="45.46136733157566" lon="11.105909677609205"><ele>113.5</ele><time>2026-04-15T12:47:00Z</time></trkpt><trkpt lat="45.46123983899478" lon="11.105970020918422"><ele>111.0</ele><time>2026-04-15T12:47:01Z</time></trkpt><trkpt lat="45.46110721690631" lon="11.106023785658145"><ele>111.0</ele><time>2026-04-15T12:47:02Z</time></trkpt><trkpt lat="45.460975418782105" lon="11.106079034044916"><ele>111.0</ele><time>2026-04-15T12:47:03Z</time></trkpt><trkpt lat="45.46084167361033" lon="11.10614854581952"><ele>111.0</ele><time>2026-04-15T12:47:04Z</time></trkpt><trkpt lat="45.4607110329131" lon="11.106217511929898"><ele>111.0</ele><time>2026-04-15T12:47:05Z</time></trkpt><trkpt lat="45.46058159458609" lon="11.10627541618145"><ele>110.5</ele><time>2026-04-15T12:47:06Z</time></trkpt><trkpt lat="45.46044274808086" lon="11.106325774349123"><ele>110.0</ele><time>2026-04-15T12:47:07Z</time></trkpt><trkpt lat="45.46030860466076" lon="11.10638265076091"><ele>109.5</ele><time>2026-04-15T12:47:08Z</time></trkpt><trkpt lat="45.460168089721115" lon="11.106454842967288"><ele>109.0</ele><time>2026-04-15T12:47:09Z</time></trkpt><trkpt lat="45.460022621760544" lon="11.106520581341874"><ele>107.75</ele><time>2026-04-15T12:47:10Z</time></trkpt><trkpt lat="45.459877894784626" lon="11.106591757737942"><ele>106.5</ele><time>2026-04-15T12:47:11Z</time></trkpt><trkpt lat="45.45974154851636" lon="11.106656935870099"><ele>105.25</ele><time>2026-04-15T12:47:12Z</time></trkpt><trkpt lat="45.45960166064654" lon="11.106723112486565"><ele>104.0</ele><time>2026-04-15T12:47:13Z</time></trkpt><trkpt lat="45.459467102656944" lon="11.106792654992923"><ele>104.0</ele><time>2026-04-15T12:47:14Z</time></trkpt><trkpt lat="45.45933403301415" lon="11.10687351835177"><ele>104.0</ele><time>2026-04-15T12:47:15Z</time></trkpt><trkpt lat="45.459206952403335" lon="11.106963420408238"><ele>104.0</ele><time>2026-04-15T12:47:16Z</time></trkpt><trkpt lat="45.459090418853435" lon="11.107064587235616"><ele>104.0</ele><time>2026-04-15T12:47:17Z</time></trkpt><trkpt lat="45.45898391958424" lon="11.107166648509697"><ele>104.0</ele><time>2026-04-15T12:47:18Z</time></trkpt><trkpt lat="45.45887770497091" lon="11.107257865043591"><ele>104.0</ele><time>2026-04-15T12:47:19Z</time></trkpt><trkpt lat="45.45875840276494" lon="11.107349740828898"><ele>104.0</ele><time>2026-04-15T12:47:20Z</time></trkpt><trkpt lat="45.45864505581867" lon="11.107418286973001"><ele>104.0</ele><time>2026-04-15T12:47:21Z</time></trkpt><trkpt lat="45.45853508974784" lon="11.10746654250228"><ele>102.0</ele><time>2026-04-15T12:47:22Z</time></trkpt><trkpt lat="45.45843513216723" lon="11.107495117895361"><ele>100.0</ele><time>2026-04-15T12:47:23Z</time></trkpt><trkpt lat="45.45837368657076" lon="11.107457215246695"><ele>98.0</ele><time>2026-04-15T12:47:24Z</time></trkpt><trkpt lat="45.45830484865623" lon="11.107452348308318"><ele>96.0</ele><time>2026-04-15T12:47:26Z</time></trkpt><trkpt lat="45.45824879256099" lon="11.107759740306166"><ele>96.0</ele><time>2026-04-15T12:47:27Z</time></trkpt><trkpt lat="45.45823441197055" lon="11.107955898193104"><ele>96.0</ele><time>2026-04-15T12:47:28Z</time></trkpt><trkpt lat="45.45820399941207" lon="11.108113988983366"><ele>96.0</ele><time>2026-04-15T12:47:29Z</time></trkpt><trkpt lat="45.45819756784311" lon="11.108269003327036"><ele>96.0</ele><time>2026-04-15T12:47:30Z</time></trkpt><trkpt lat="45.45820040464812" lon="11.108386044294175"><ele>96.0</ele><time>2026-04-15T12:47:31Z</time></trkpt><trkpt lat="45.45822953745454" lon="11.108544576352767"><ele>95.8</ele><time>2026-04-15T12:47:33Z</time></trkpt><trkpt lat="45.45824485999699" lon="11.108675185183694"><ele>95.6</ele><time>2026-04-15T12:47:35Z</time></trkpt><trkpt lat="45.45822492937202" lon="11.108564530127968"><ele>95.4</ele><time>2026-04-15T12:47:40Z</time></trkpt><trkpt lat="45.45821036829091" lon="11.108464670769761"><ele>95.2</ele><time>2026-04-15T12:47:43Z</time></trkpt><trkpt lat="45.45803837364452" lon="11.108444590181794"><ele>95.0</ele><time>2026-04-15T12:47:48Z</time></trkpt><trkpt lat="45.457953845580114" lon="11.108491793153403"><ele>94.5</ele><time>2026-04-15T12:47:50Z</time></trkpt><trkpt lat="45.45788766929185" lon="11.108511556708049"><ele>94.0</ele><time>2026-04-15T12:47:52Z</time></trkpt><trkpt lat="45.457764100688664" lon="11.108518665754463"><ele>93.5</ele><time>2026-04-15T12:47:54Z</time></trkpt><trkpt lat="45.45769476124383" lon="11.108529459008917"><ele>93.0</ele><time>2026-04-15T12:47:55Z</time></trkpt><trkpt lat="45.457625626455055" lon="11.108548965894352"><ele>92.5</ele><time>2026-04-15T12:47:56Z</time></trkpt><trkpt lat="45.45755039164236" lon="11.10856940134527"><ele>92.0</ele><time>2026-04-15T12:47:57Z</time></trkpt><trkpt lat="45.457482362616915" lon="11.108581544964581"><ele>92.0</ele><time>2026-04-15T12:47:58Z</time></trkpt><trkpt lat="45.457385464192065" lon="11.108579584537702"><ele>92.0</ele><time>2026-04-15T12:48:00Z</time></trkpt><trkpt lat="45.45730153799003" lon="11.108573550211005"><ele>92.0</ele><time>2026-04-15T12:48:04Z</time></trkpt><trkpt lat="45.457228775356214" lon="11.108576595509605"><ele>92.0</ele><time>2026-04-15T12:48:05Z</time></trkpt><trkpt lat="45.457112083312786" lon="11.10857653937516"><ele>92.0</ele><time>2026-04-15T12:48:07Z</time></trkpt><trkpt lat="45.456989032378914" lon="11.108581807564327"><ele>91.42857142857143</ele><time>2026-04-15T12:48:09Z</time></trkpt><trkpt lat="45.456925679867325" lon="11.108584367453034"><ele>90.85714285714285</ele><time>2026-04-15T12:48:10Z</time></trkpt><trkpt lat="45.45686095909175" lon="11.108585099992949"><ele>90.28571428571428</ele><time>2026-04-15T12:48:11Z</time></trkpt><trkpt lat="45.45679057915986" lon="11.10858187848757"><ele>89.71428571428572</ele><time>2026-04-15T12:48:12Z</time></trkpt><trkpt lat="45.45671446922968" lon="11.108584816427745"><ele>89.14285714285714</ele><time>2026-04-15T12:48:13Z</time></trkpt><trkpt lat="45.45664975971389" lon="11.10858720767898"><ele>88.57142857142857</ele><time>2026-04-15T12:48:14Z</time></trkpt><trkpt lat="45.45658495210255" lon="11.108588816481806"><ele>88.0</ele><time>2026-04-15T12:48:15Z</time></trkpt><trkpt lat="45.456454151474475" lon="11.108536779447096"><ele>88.0</ele><time>2026-04-15T12:48:17Z</time></trkpt><trkpt lat="45.456379683478644" lon="11.108509219015243"><ele>88.0</ele><time>2026-04-15T12:48:18Z</time></trkpt><trkpt lat="45.45630312356971" lon="11.108490088009098"><ele>88.0</ele><time>2026-04-15T12:48:19Z</time></trkpt><trkpt lat="45.45623322253401" lon="11.108465452792752"><ele>88.0</ele><time>2026-04-15T12:48:20Z</time></trkpt><trkpt lat="45.45615081646579" lon="11.10842638929926"><ele>88.0</ele><time>2026-04-15T12:48:21Z</time></trkpt><trkpt lat="45.45608110091169" lon="11.108394087438672"><ele>88.0</ele><time>2026-04-15T12:48:22Z</time></trkpt><trkpt lat="45.45601013043632" lon="11.10837607193514"><ele>87.80000000000001</ele><time>2026-04-15T12:48:23Z</time></trkpt><trkpt lat="45.45594059931306" lon="11.108360705756997"><ele>87.6</ele><time>2026-04-15T12:48:24Z</time></trkpt><trkpt lat="45.45587309431848" lon="11.108350528952968"><ele>87.4</ele><time>2026-04-15T12:48:25Z</time></trkpt><trkpt lat="45.455803108918325" lon="11.108335706686221"><ele>87.19999999999999</ele><time>2026-04-15T12:48:26Z</time></trkpt><trkpt lat="45.45567790877521" lon="11.10829947832302"><ele>87.0</ele><time>2026-04-15T12:48:28Z</time></trkpt><trkpt lat="45.45555277108029" lon="11.108263674874996"><ele>87.0</ele><time>2026-04-15T12:48:30Z</time></trkpt><trkpt lat="45.45548287374595" lon="11.10824747420598"><ele>87.0</ele><time>2026-04-15T12:48:31Z</time></trkpt><trkpt lat="45.45541899846269" lon="11.108221767933939"><ele>87.0</ele><time>2026-04-15T12:48:32Z</time></trkpt><trkpt lat="45.45529863885155" lon="11.108186481685586"><ele>87.0</ele><time>2026-04-15T12:48:34Z</time></trkpt><trkpt lat="45.45518576326872" lon="11.108149541593562"><ele>87.0</ele><time>2026-04-15T12:48:36Z</time></trkpt><trkpt lat="45.4551201470149" lon="11.108121674532773"><ele>87.0</ele><time>2026-04-15T12:48:37Z</time></trkpt><trkpt lat="45.45499941521386" lon="11.108092813917569"><ele>86.0</ele><time>2026-04-15T12:48:39Z</time></trkpt><trkpt lat="45.45487916442664" lon="11.108056962967138"><ele>85.0</ele><time>2026-04-15T12:48:41Z</time></trkpt><trkpt lat="45.454795589298264" lon="11.10803121215475"><ele>84.0</ele><time>2026-04-15T12:48:42Z</time></trkpt><trkpt lat="45.45471224059563" lon="11.107998021832307"><ele>83.0</ele><time>2026-04-15T12:48:43Z</time></trkpt><trkpt lat="45.45459747692206" lon="11.107961480990571"><ele>82.0</ele><time>2026-04-15T12:48:45Z</time></trkpt><trkpt lat="45.45449258195258" lon="11.10797692915456"><ele>81.6</ele><time>2026-04-15T12:48:47Z</time></trkpt><trkpt lat="45.45439390809402" lon="11.108023398376641"><ele>81.19999999999999</ele><time>2026-04-15T12:48:49Z</time></trkpt><trkpt lat="45.45432774520257" lon="11.108070549350241"><ele>80.8</ele><time>2026-04-15T12:48:50Z</time></trkpt><trkpt lat="45.45424882624257" lon="11.108176140177584"><ele>80.4</ele><time>2026-04-15T12:48:52Z</time></trkpt><trkpt lat="45.45417531352264" lon="11.108324168706195"><ele>80.0</ele><time>2026-04-15T12:48:54Z</time></trkpt><trkpt lat="45.45411797697099" lon="11.108443598451993"><ele>80.0</ele><time>2026-04-15T12:48:55Z</time></trkpt><trkpt lat="45.45406676203791" lon="11.108558372556688"><ele>80.0</ele><time>2026-04-15T12:48:56Z</time></trkpt><trkpt lat="45.45401264196044" lon="11.108650538064401"><ele>80.0</ele><time>2026-04-15T12:48:57Z</time></trkpt><trkpt lat="45.45396815153179" lon="11.10872298454266"><ele>80.0</ele><time>2026-04-15T12:48:58Z</time></trkpt><trkpt lat="45.45393242392434" lon="11.108842279113244"><ele>80.0</ele><time>2026-04-15T12:48:59Z</time></trkpt><trkpt lat="45.45388918959036" lon="11.1089116779573"><ele>80.0</ele><time>2026-04-15T12:49:00Z</time></trkpt><trkpt lat="45.45382669058418" lon="11.108971701067754"><ele>79.16666666666667</ele><time>2026-04-15T12:49:01Z</time></trkpt><trkpt lat="45.453748840933514" lon="11.109001721473007"><ele>78.33333333333334</ele><time>2026-04-15T12:49:02Z</time></trkpt><trkpt lat="45.453670344827984" lon="11.109013272338164"><ele>77.5</ele><time>2026-04-15T12:49:03Z</time></trkpt><trkpt lat="45.4535857748063" lon="11.10899782697778"><ele>76.66666666666667</ele><time>2026-04-15T12:49:04Z</time></trkpt><trkpt lat="45.453488645331134" lon="11.108966846419735"><ele>75.83333333333333</ele><time>2026-04-15T12:49:05Z</time></trkpt><trkpt lat="45.45339822353903" lon="11.10892663080758"><ele>75.0</ele><time>2026-04-15T12:49:06Z</time></trkpt><trkpt lat="45.45332394186884" lon="11.108887359893856"><ele>75.0</ele><time>2026-04-15T12:49:07Z</time></trkpt><trkpt lat="45.45325236291533" lon="11.108841747100172"><ele>75.0</ele><time>2026-04-15T12:49:08Z</time></trkpt><trkpt lat="45.45318854388377" lon="11.108787154123714"><ele>75.0</ele><time>2026-04-15T12:49:09Z</time></trkpt><trkpt lat="45.45312986918461" lon="11.108748419680754"><ele>75.0</ele><time>2026-04-15T12:49:10Z</time></trkpt><trkpt lat="45.45305036638748" lon="11.108713954505474"><ele>75.0</ele><time>2026-04-15T12:49:11Z</time></trkpt><trkpt lat="45.452960837525886" lon="11.108713884690474"><ele>75.0</ele><time>2026-04-15T12:49:12Z</time></trkpt><trkpt lat="45.45286033387517" lon="11.10870305831515"><ele>74.75</ele><time>2026-04-15T12:49:13Z</time></trkpt><trkpt lat="45.45274560027017" lon="11.108673964258537"><ele>74.5</ele><time>2026-04-15T12:49:14Z</time></trkpt><trkpt lat="45.45263924714149" lon="11.108632281143917"><ele>74.25</ele><time>2026-04-15T12:49:15Z</time></trkpt><trkpt lat="45.452522168217016" lon="11.10859547524486"><ele>74.0</ele><time>2026-04-15T12:49:16Z</time></trkpt><trkpt lat="45.45240791203152" lon="11.108550188592785"><ele>74.0</ele><time>2026-04-15T12:49:17Z</time></trkpt><trkpt lat="45.45228339049605" lon="11.108507603013617"><ele>74.0</ele><time>2026-04-15T12:49:18Z</time></trkpt><trkpt lat="45.45215495913915" lon="11.108474304059134"><ele>74.0</ele><time>2026-04-15T12:49:19Z</time></trkpt><trkpt lat="45.45203043424634" lon="11.108450319154432"><ele>74.0</ele><time>2026-04-15T12:49:20Z</time></trkpt><trkpt lat="45.45190708688324" lon="11.10842071827267"><ele>73.25</ele><time>2026-04-15T12:49:21Z</time></trkpt><trkpt lat="45.451788228807494" lon="11.10839331092362"><ele>72.5</ele><time>2026-04-15T12:49:22Z</time></trkpt><trkpt lat="45.45166250614108" lon="11.108376034089579"><ele>71.75</ele><time>2026-04-15T12:49:23Z</time></trkpt><trkpt lat="45.4515324926742" lon="11.108368417211546"><ele>71.0</ele><time>2026-04-15T12:49:24Z</time></trkpt><trkpt lat="45.45140442018933" lon="11.108357319827382"><ele>70.75</ele><time>2026-04-15T12:49:25Z</time></trkpt><trkpt lat="45.45127918133761" lon="11.108337873904354"><ele>70.5</ele><time>2026-04-15T12:49:26Z</time></trkpt><trkpt lat="45.45115708206144" lon="11.108324282004446"><ele>70.25</ele><time>2026-04-15T12:49:27Z</time></trkpt><trkpt lat="45.451031750738004" lon="11.108308449730302"><ele>70.0</ele><time>2026-04-15T12:49:28Z</time></trkpt><trkpt lat="45.45089602484235" lon="11.108301265464716"><ele>70.0</ele><time>2026-04-15T12:49:29Z</time></trkpt><trkpt lat="45.450761666519135" lon="11.108264840115138"><ele>70.0</ele><time>2026-04-15T12:49:30Z</time></trkpt><trkpt lat="45.450631883468496" lon="11.108245803154933"><ele>70.0</ele><time>2026-04-15T12:49:31Z</time></trkpt><trkpt lat="45.45050670918765" lon="11.108226334499031"><ele>70.0</ele><time>2026-04-15T12:49:32Z</time></trkpt><trkpt lat="45.450377425071466" lon="11.108223603447254"><ele>69.0</ele><time>2026-04-15T12:49:33Z</time></trkpt><trkpt lat="45.45025396080636" lon="11.108213919302974"><ele>68.0</ele><time>2026-04-15T12:49:34Z</time></trkpt><trkpt lat="45.45011151761187" lon="11.10820926272666"><ele>67.0</ele><time>2026-04-15T12:49:35Z</time></trkpt><trkpt lat="45.44998640552193" lon="11.10818371750545"><ele>66.0</ele><time>2026-04-15T12:49:36Z</time></trkpt><trkpt lat="45.44986173244055" lon="11.108166549908393"><ele>66.0</ele><time>2026-04-15T12:49:37Z</time></trkpt><trkpt lat="45.44974511247085" lon="11.108147055738916"><ele>66.0</ele><time>2026-04-15T12:49:38Z</time></trkpt><trkpt lat="45.44962843257601" lon="11.108134488311103"><ele>66.0</ele><time>2026-04-15T12:49:39Z</time></trkpt><trkpt lat="45.449510392360935" lon="11.108134324526452"><ele>66.0</ele><time>2026-04-15T12:49:40Z</time></trkpt><trkpt lat="45.44939878047606" lon="11.108133412591885"><ele>66.2</ele><time>2026-04-15T12:49:41Z</time></trkpt><trkpt lat="45.44930739366919" lon="11.108129245561877"><ele>66.39999999999999</ele><time>2026-04-15T12:49:42Z</time></trkpt><trkpt lat="45.44920101908318" lon="11.10812569398783"><ele>66.6</ele><time>2026-04-15T12:49:43Z</time></trkpt><trkpt lat="45.44911937052393" lon="11.108111563212063"><ele>66.8</ele><time>2026-04-15T12:49:44Z</time></trkpt><trkpt lat="45.449032533130165" lon="11.108131296600664"><ele>67.0</ele><time>2026-04-15T12:49:45Z</time></trkpt><trkpt lat="45.44893833754174" lon="11.108163910449255"><ele>67.0</ele><time>2026-04-15T12:49:46Z</time></trkpt><trkpt lat="45.44884806902302" lon="11.1082004193886"><ele>67.0</ele><time>2026-04-15T12:49:48Z</time></trkpt><trkpt lat="45.44877050069614" lon="11.108212163649661"><ele>67.0</ele><time>2026-04-15T12:49:50Z</time></trkpt><trkpt lat="45.44870787026572" lon="11.108198691931989"><ele>67.0</ele><time>2026-04-15T12:49:51Z</time></trkpt><trkpt lat="45.44864453318034" lon="11.10818524652641"><ele>67.0</ele><time>2026-04-15T12:49:52Z</time></trkpt><trkpt lat="45.44855413682385" lon="11.108167780221235"><ele>67.0</ele><time>2026-04-15T12:49:53Z</time></trkpt><trkpt lat="45.448463268589364" lon="11.108142752770142"><ele>66.2</ele><time>2026-04-15T12:49:54Z</time></trkpt><trkpt lat="45.44835836279649" lon="11.108138969261159"><ele>65.4</ele><time>2026-04-15T12:49:55Z</time></trkpt><trkpt lat="45.448253489538764" lon="11.108121674887556"><ele>64.6</ele><time>2026-04-15T12:49:56Z</time></trkpt><trkpt lat="45.448142515380376" lon="11.108105914988597"><ele>63.8</ele><time>2026-04-15T12:49:57Z</time></trkpt><trkpt lat="45.44802247780124" lon="11.108056105904712"><ele>63.0</ele><time>2026-04-15T12:49:58Z</time></trkpt><trkpt lat="45.447890405748325" lon="11.108019407243205"><ele>62.25</ele><time>2026-04-15T12:49:59Z</time></trkpt><trkpt lat="45.4477510810928" lon="11.107980908029804"><ele>61.5</ele><time>2026-04-15T12:50:00Z</time></trkpt><trkpt lat="45.447622838133846" lon="11.107945679315913"><ele>60.75</ele><time>2026-04-15T12:50:01Z</time></trkpt><trkpt lat="45.447484020703584" lon="11.107913040629212"><ele>60.0</ele><time>2026-04-15T12:50:02Z</time></trkpt><trkpt lat="45.44735109702896" lon="11.107867344202296"><ele>60.0</ele><time>2026-04-15T12:50:03Z</time></trkpt><trkpt lat="45.44721362365514" lon="11.107827902579018"><ele>60.0</ele><time>2026-04-15T12:50:04Z</time></trkpt><trkpt lat="45.44707494580913" lon="11.107783810085094"><ele>60.0</ele><time>2026-04-15T12:50:05Z</time></trkpt><trkpt lat="45.446936247367915" lon="11.10774573902939"><ele>60.0</ele><time>2026-04-15T12:50:06Z</time></trkpt><trkpt lat="45.4468088032001" lon="11.10771349086953"><ele>59.25</ele><time>2026-04-15T12:50:07Z</time></trkpt><trkpt lat="45.44667452475994" lon="11.107676649050275"><ele>58.5</ele><time>2026-04-15T12:50:08Z</time></trkpt><trkpt lat="45.446534484085234" lon="11.1076393561787"><ele>57.75</ele><time>2026-04-15T12:50:09Z</time></trkpt><trkpt lat="45.44639544823693" lon="11.107592333330883"><ele>57.0</ele><time>2026-04-15T12:50:10Z</time></trkpt><trkpt lat="45.4462743908152" lon="11.107553400584548"><ele>57.0</ele><time>2026-04-15T12:50:11Z</time></trkpt><trkpt lat="45.446167159926915" lon="11.107524082036877"><ele>57.0</ele><time>2026-04-15T12:50:12Z</time></trkpt><trkpt lat="45.44609335578885" lon="11.107496162088573"><ele>57.0</ele><time>2026-04-15T12:50:13Z</time></trkpt><trkpt lat="45.446007003962414" lon="11.10748006885982"><ele>57.0</ele><time>2026-04-15T12:50:15Z</time></trkpt><trkpt lat="45.445970658842526" lon="11.107569377340907"><ele>57.0</ele><time>2026-04-15T12:50:18Z</time></trkpt><trkpt lat="45.44593298041091" lon="11.107760255869488"><ele>57.0</ele><time>2026-04-15T12:50:20Z</time></trkpt><trkpt lat="45.44592365702146" lon="11.107893152545758"><ele>57.0</ele><time>2026-04-15T12:50:21Z</time></trkpt><trkpt lat="45.445903290593535" lon="11.108015140531599"><ele>57.0</ele><time>2026-04-15T12:50:22Z</time></trkpt><trkpt lat="45.44587354576878" lon="11.108136269016349"><ele>57.0</ele><time>2026-04-15T12:50:23Z</time></trkpt><trkpt lat="45.44583431287869" lon="11.10824751115719"><ele>57.0</ele><time>2026-04-15T12:50:24Z</time></trkpt><trkpt lat="45.445791851591885" lon="11.108355316712055"><ele>57.0</ele><time>2026-04-15T12:50:25Z</time></trkpt><trkpt lat="45.44574545735235" lon="11.10844979182139"><ele>56.666666666666664</ele><time>2026-04-15T12:50:26Z</time></trkpt><trkpt lat="45.44570239573323" lon="11.108522982883484"><ele>56.33333333333333</ele><time>2026-04-15T12:50:27Z</time></trkpt><trkpt lat="45.44563555477663" lon="11.108585778598522"><ele>56.0</ele><time>2026-04-15T12:50:28Z</time></trkpt><trkpt lat="45.44555060322328" lon="11.108593097149004"><ele>55.666666666666664</ele><time>2026-04-15T12:50:29Z</time></trkpt><trkpt lat="45.44545337421148" lon="11.108605608652796"><ele>55.33333333333333</ele><time>2026-04-15T12:50:30Z</time></trkpt><trkpt lat="45.445342754216746" lon="11.108619357720368"><ele>55.0</ele><time>2026-04-15T12:50:31Z</time></trkpt><trkpt lat="45.445244307523225" lon="11.108641894352148"><ele>55.0</ele><time>2026-04-15T12:50:32Z</time></trkpt><trkpt lat="45.44512408367073" lon="11.10868192218239"><ele>55.0</ele><time>2026-04-15T12:50:33Z</time></trkpt><trkpt lat="45.44501639011494" lon="11.108739540179204"><ele>55.0</ele><time>2026-04-15T12:50:34Z</time></trkpt><trkpt lat="45.44490973660442" lon="11.108795252973644"><ele>55.0</ele><time>2026-04-15T12:50:35Z</time></trkpt><trkpt lat="45.444807272100036" lon="11.108832268589207"><ele>55.0</ele><time>2026-04-15T12:50:36Z</time></trkpt><trkpt lat="45.44470224312731" lon="11.108857730744667"><ele>55.0</ele><time>2026-04-15T12:50:37Z</time></trkpt><trkpt lat="45.444602178325894" lon="11.108882021007505"><ele>55.0</ele><time>2026-04-15T12:50:38Z</time></trkpt><trkpt lat="45.44451630310092" lon="11.108898826743063"><ele>55.0</ele><time>2026-04-15T12:50:39Z</time></trkpt><trkpt lat="45.44442091610337" lon="11.108941209073231"><ele>55.0</ele><time>2026-04-15T12:50:40Z</time></trkpt><trkpt lat="45.44435679291173" lon="11.108932653237602"><ele>54.99999999999999</ele><time>2026-04-15T12:50:41Z</time></trkpt><trkpt lat="45.44428130349769" lon="11.108938543963802"><ele>55.0</ele><time>2026-04-15T12:50:42Z</time></trkpt><trkpt lat="45.444205738473954" lon="11.10897846810471"><ele>55.0</ele><time>2026-04-15T12:50:44Z</time></trkpt><trkpt lat="45.444185622683115" lon="11.109088599904654"><ele>55.0</ele><time>2026-04-15T12:50:46Z</time></trkpt><trkpt lat="45.44412390858164" lon="11.109120065082204"><ele>55.0</ele><time>2026-04-15T12:50:47Z</time></trkpt><trkpt lat="45.44406074219765" lon="11.109143632681779"><ele>54.99999999999999</ele><time>2026-04-15T12:50:48Z</time></trkpt><trkpt lat="45.44398679813013" lon="11.109176424684566"><ele>55.0</ele><time>2026-04-15T12:50:49Z</time></trkpt><trkpt lat="45.44390059212184" lon="11.109212577312118"><ele>56.4</ele><time>2026-04-15T12:50:50Z</time></trkpt><trkpt lat="45.44381718957599" lon="11.109240318694832"><ele>57.8</ele><time>2026-04-15T12:50:51Z</time></trkpt><trkpt lat="45.443730573801325" lon="11.109271027423345"><ele>59.2</ele><time>2026-04-15T12:50:52Z</time></trkpt><trkpt lat="45.443651657012154" lon="11.109261314238996"><ele>60.6</ele><time>2026-04-15T12:50:53Z</time></trkpt><trkpt lat="45.44354630138354" lon="11.10930374228695"><ele>62.0</ele><time>2026-04-15T12:50:54Z</time></trkpt><trkpt lat="45.443454510300576" lon="11.10936757488413"><ele>62.0</ele><time>2026-04-15T12:50:55Z</time></trkpt><trkpt lat="45.44336115370027" lon="11.10944242717959"><ele>62.0</ele><time>2026-04-15T12:50:56Z</time></trkpt><trkpt lat="45.4432597384255" lon="11.10952608841984"><ele>62.0</ele><time>2026-04-15T12:50:57Z</time></trkpt><trkpt lat="45.44316401564875" lon="11.109635112342108"><ele>62.0</ele><time>2026-04-15T12:50:58Z</time></trkpt><trkpt lat="45.443064145911315" lon="11.1097297690805"><ele>62.0</ele><time>2026-04-15T12:50:59Z</time></trkpt><trkpt lat="45.4429650727023" lon="11.109826636220658"><ele>62.0</ele><time>2026-04-15T12:51:00Z</time></trkpt><trkpt lat="45.442875577356936" lon="11.109922083160082"><ele>62.0</ele><time>2026-04-15T12:51:01Z</time></trkpt><trkpt lat="45.442792930483364" lon="11.110011516773952"><ele>62.0</ele><time>2026-04-15T12:51:02Z</time></trkpt><trkpt lat="45.44270272249463" lon="11.11011132710328"><ele>62.5</ele><time>2026-04-15T12:51:03Z</time></trkpt><trkpt lat="45.44261392988928" lon="11.110209367542522"><ele>63.0</ele><time>2026-04-15T12:51:04Z</time></trkpt><trkpt lat="45.44252245079929" lon="11.110309049491867"><ele>63.5</ele><time>2026-04-15T12:51:05Z</time></trkpt><trkpt lat="45.442415634983206" lon="11.110404469582999"><ele>64.0</ele><time>2026-04-15T12:51:06Z</time></trkpt><trkpt lat="45.442321970936675" lon="11.110478680509836"><ele>64.0</ele><time>2026-04-15T12:51:07Z</time></trkpt><trkpt lat="45.442214268105324" lon="11.110553403200363"><ele>64.0</ele><time>2026-04-15T12:51:08Z</time></trkpt><trkpt lat="45.44211865344957" lon="11.110662781844018"><ele>64.0</ele><time>2026-04-15T12:51:09Z</time></trkpt><trkpt lat="45.44202969147662" lon="11.11076519774006"><ele>64.0</ele><time>2026-04-15T12:51:10Z</time></trkpt><trkpt lat="45.441960075378454" lon="11.110867158720557"><ele>63.25</ele><time>2026-04-15T12:51:11Z</time></trkpt><trkpt lat="45.44188916027069" lon="11.110985836041381"><ele>62.5</ele><time>2026-04-15T12:51:12Z</time></trkpt><trkpt lat="45.44182326510159" lon="11.111098567913741"><ele>61.75</ele><time>2026-04-15T12:51:13Z</time></trkpt><trkpt lat="45.44174910522478" lon="11.11123929842568"><ele>61.0</ele><time>2026-04-15T12:51:14Z</time></trkpt><trkpt lat="45.44167920041163" lon="11.111392480032281"><ele>61.0</ele><time>2026-04-15T12:51:15Z</time></trkpt><trkpt lat="45.44162222708335" lon="11.111496800851391"><ele>61.0</ele><time>2026-04-15T12:51:16Z</time></trkpt><trkpt lat="45.44153881894466" lon="11.111623093638245"><ele>61.0</ele><time>2026-04-15T12:51:17Z</time></trkpt><trkpt lat="45.441438310365434" lon="11.111707830524832"><ele>61.0</ele><time>2026-04-15T12:51:18Z</time></trkpt><trkpt lat="45.44133537821886" lon="11.111808121093173"><ele>59.75</ele><time>2026-04-15T12:51:19Z</time></trkpt><trkpt lat="45.441245020827886" lon="11.111894068314193"><ele>58.5</ele><time>2026-04-15T12:51:20Z</time></trkpt><trkpt lat="45.44116931694841" lon="11.111990241706252"><ele>57.25</ele><time>2026-04-15T12:51:21Z</time></trkpt><trkpt lat="45.441093191193254" lon="11.112125004667488"><ele>56.0</ele><time>2026-04-15T12:51:22Z</time></trkpt><trkpt lat="45.44102361613417" lon="11.11227207926592"><ele>58.5</ele><time>2026-04-15T12:51:23Z</time></trkpt><trkpt lat="45.44095534996338" lon="11.112428763978494"><ele>61.0</ele><time>2026-04-15T12:51:24Z</time></trkpt><trkpt lat="45.44088721621525" lon="11.112593970929467"><ele>63.5</ele><time>2026-04-15T12:51:25Z</time></trkpt><trkpt lat="45.440811057930375" lon="11.112766059359117"><ele>66.0</ele><time>2026-04-15T12:51:26Z</time></trkpt><trkpt lat="45.44073835344594" lon="11.112897741398115"><ele>66.0</ele><time>2026-04-15T12:51:27Z</time></trkpt><trkpt lat="45.44066716516779" lon="11.113034650826897"><ele>66.0</ele><time>2026-04-15T12:51:28Z</time></trkpt><trkpt lat="45.44058624088368" lon="11.113129004441328"><ele>66.0</ele><time>2026-04-15T12:51:29Z</time></trkpt><trkpt lat="45.4405023654052" lon="11.11324948316036"><ele>66.0</ele><time>2026-04-15T12:51:30Z</time></trkpt><trkpt lat="45.440408414268994" lon="11.113359886587803"><ele>64.8</ele><time>2026-04-15T12:51:31Z</time></trkpt><trkpt lat="45.4402927749358" lon="11.113478574572872"><ele>63.599999999999994</ele><time>2026-04-15T12:51:32Z</time></trkpt><trkpt lat="45.440205970616795" lon="11.11353432487089"><ele>62.4</ele><time>2026-04-15T12:51:33Z</time></trkpt><trkpt lat="45.440120493167335" lon="11.113606491956475"><ele>61.2</ele><time>2026-04-15T12:51:34Z</time></trkpt><trkpt lat="45.440030279224196" lon="11.11368637593245"><ele>60.0</ele><time>2026-04-15T12:51:35Z</time></trkpt><trkpt lat="45.439938151793754" lon="11.11378527376923"><ele>60.0</ele><time>2026-04-15T12:51:36Z</time></trkpt><trkpt lat="45.4398695151127" lon="11.113882486575681"><ele>60.0</ele><time>2026-04-15T12:51:37Z</time></trkpt><trkpt lat="45.43978974731876" lon="11.113929521464518"><ele>60.0</ele><time>2026-04-15T12:51:38Z</time></trkpt><trkpt lat="45.439696137464914" lon="11.113973268182194"><ele>60.0</ele><time>2026-04-15T12:51:39Z</time></trkpt><trkpt lat="45.439613401947284" lon="11.114030776460973"><ele>60.0</ele><time>2026-04-15T12:51:40Z</time></trkpt><trkpt lat="45.439453199690504" lon="11.114015497294151"><ele>61.0</ele><time>2026-04-15T12:51:41Z</time></trkpt><trkpt lat="45.43933385182483" lon="11.114029894692578"><ele>62.0</ele><time>2026-04-15T12:51:42Z</time></trkpt><trkpt lat="45.439223074203504" lon="11.114042993367024"><ele>63.0</ele><time>2026-04-15T12:51:43Z</time></trkpt><trkpt lat="45.43910024570074" lon="11.114093521816898"><ele>64.0</ele><time>2026-04-15T12:51:44Z</time></trkpt><trkpt lat="45.43900295691931" lon="11.11413463444043"><ele>63.99999999999999</ele><time>2026-04-15T12:51:45Z</time></trkpt><trkpt lat="45.43891174592067" lon="11.114150898076536"><ele>64.0</ele><time>2026-04-15T12:51:46Z</time></trkpt><trkpt lat="45.43882770359549" lon="11.11412530302643"><ele>64.0</ele><time>2026-04-15T12:51:48Z</time></trkpt><trkpt lat="45.43880559687342" lon="11.11398809085354"><ele>64.0</ele><time>2026-04-15T12:51:50Z</time></trkpt><trkpt lat="45.43871986733246" lon="11.113965880562448"><ele>63.99999999999999</ele><time>2026-04-15T12:51:52Z</time></trkpt><trkpt lat="45.43865566070198" lon="11.113956892616343"><ele>64.0</ele><time>2026-04-15T12:51:53Z</time></trkpt><trkpt lat="45.43852075288735" lon="11.113979610830992"><ele>62.5</ele><time>2026-04-15T12:51:55Z</time></trkpt><trkpt lat="45.43835241963792" lon="11.114026108736319"><ele>61.0</ele><time>2026-04-15T12:51:57Z</time></trkpt><trkpt lat="45.43822809126632" lon="11.114063148917335"><ele>59.5</ele><time>2026-04-15T12:51:58Z</time></trkpt><trkpt lat="45.43808477082691" lon="11.114106392151125"><ele>58.0</ele><time>2026-04-15T12:51:59Z</time></trkpt><trkpt lat="45.437926141275554" lon="11.114154254512954"><ele>56.0</ele><time>2026-04-15T12:52:00Z</time></trkpt><trkpt lat="45.43778354293063" lon="11.11419723956074"><ele>54.0</ele><time>2026-04-15T12:52:01Z</time></trkpt><trkpt lat="45.43764391590284" lon="11.114239029539883"><ele>52.0</ele><time>2026-04-15T12:52:02Z</time></trkpt><trkpt lat="45.437506681909994" lon="11.11427850069338"><ele>50.0</ele><time>2026-04-15T12:52:03Z</time></trkpt><trkpt lat="45.43736332028146" lon="11.114316969392096"><ele>50.0</ele><time>2026-04-15T12:52:04Z</time></trkpt><trkpt lat="45.437212612516646" lon="11.114356632568276"><ele>50.0</ele><time>2026-04-15T12:52:05Z</time></trkpt><trkpt lat="45.43706620848018" lon="11.114394845231647"><ele>50.0</ele><time>2026-04-15T12:52:06Z</time></trkpt><trkpt lat="45.43691883237088" lon="11.114436130910391"><ele>49.25</ele><time>2026-04-15T12:52:07Z</time></trkpt><trkpt lat="45.43677756001669" lon="11.114476726930624"><ele>48.5</ele><time>2026-04-15T12:52:08Z</time></trkpt><trkpt lat="45.436633454858026" lon="11.114517477717852"><ele>47.75</ele><time>2026-04-15T12:52:09Z</time></trkpt><trkpt lat="45.43648815173115" lon="11.114557376095801"><ele>47.0</ele><time>2026-04-15T12:52:10Z</time></trkpt><trkpt lat="45.43634513764439" lon="11.114596180440387"><ele>46.25</ele><time>2026-04-15T12:52:11Z</time></trkpt><trkpt lat="45.43619699813205" lon="11.114635735400743"><ele>45.5</ele><time>2026-04-15T12:52:12Z</time></trkpt><trkpt lat="45.436055420075625" lon="11.114674365812647"><ele>44.75</ele><time>2026-04-15T12:52:13Z</time></trkpt><trkpt lat="45.43591731297837" lon="11.114712386368074"><ele>44.0</ele><time>2026-04-15T12:52:14Z</time></trkpt><trkpt lat="45.435782180832916" lon="11.114749215481986"><ele>44.0</ele><time>2026-04-15T12:52:15Z</time></trkpt><trkpt lat="45.4356491304827" lon="11.114784508528198"><ele>44.0</ele><time>2026-04-15T12:52:16Z</time></trkpt><trkpt lat="45.43551188051179" lon="11.114820915569702"><ele>44.0</ele><time>2026-04-15T12:52:17Z</time></trkpt><trkpt lat="45.43537139489817" lon="11.114858180898555"><ele>44.0</ele><time>2026-04-15T12:52:18.001Z</time></trkpt><trkpt lat="45.43523483083826" lon="11.11489440599362"><ele>43.5</ele><time>2026-04-15T12:52:19.001Z</time></trkpt><trkpt lat="45.43510210054072" lon="11.114929614141042"><ele>43.0</ele><time>2026-04-15T12:52:20.001Z</time></trkpt><trkpt lat="45.43498070300458" lon="11.114961816152142"><ele>42.5</ele><time>2026-04-15T12:52:21.001Z</time></trkpt><trkpt lat="45.43487638095181" lon="11.114989488704623"><ele>42.0</ele><time>2026-04-15T12:52:22.001Z</time></trkpt><trkpt lat="45.43478721153391" lon="11.115013550741638"><ele>42.0</ele><time>2026-04-15T12:52:23.001Z</time></trkpt><trkpt lat="45.43471637597258" lon="11.115033044115368"><ele>42.0</ele><time>2026-04-15T12:52:24.001Z</time></trkpt><trkpt lat="45.43460807874783" lon="11.115074810970771"><ele>42.0</ele><time>2026-04-15T12:52:26.001Z</time></trkpt><trkpt lat="45.43452335230399" lon="11.11510866168515"><ele>42.0</ele><time>2026-04-15T12:52:28.001Z</time></trkpt><trkpt lat="45.43441531667734" lon="11.115132787238416"><ele>42.0</ele><time>2026-04-15T12:52:37.001Z</time></trkpt><trkpt lat="45.43434656793316" lon="11.11515179013319"><ele>41.8</ele><time>2026-04-15T12:52:38.001Z</time></trkpt><trkpt lat="45.43425783875098" lon="11.115175505802954"><ele>41.6</ele><time>2026-04-15T12:52:39Z</time></trkpt><trkpt lat="45.434150399981" lon="11.115204282974146"><ele>41.4</ele><time>2026-04-15T12:52:40Z</time></trkpt><trkpt lat="45.43403457211671" lon="11.11523840388886"><ele>41.199999999999996</ele><time>2026-04-15T12:52:41Z</time></trkpt><trkpt lat="45.43390569582591" lon="11.115248905640026"><ele>41.0</ele><time>2026-04-15T12:52:42Z</time></trkpt><trkpt lat="45.43377320959095" lon="11.115284580071611"><ele>40.75</ele><time>2026-04-15T12:52:43Z</time></trkpt><trkpt lat="45.43363260198644" lon="11.115322982394122"><ele>40.5</ele><time>2026-04-15T12:52:44Z</time></trkpt><trkpt lat="45.43351545770759" lon="11.115378833821756"><ele>40.25</ele><time>2026-04-15T12:52:45Z</time></trkpt><trkpt lat="45.43339432332965" lon="11.115411657911354"><ele>40.0</ele><time>2026-04-15T12:52:46Z</time></trkpt><trkpt lat="45.43327108958041" lon="11.115435103508357"><ele>40.0</ele><time>2026-04-15T12:52:47Z</time></trkpt><trkpt lat="45.43314394000312" lon="11.11547329507142"><ele>40.0</ele><time>2026-04-15T12:52:48Z</time></trkpt><trkpt lat="45.43300777109813" lon="11.115497260559378"><ele>40.0</ele><time>2026-04-15T12:52:49Z</time></trkpt><trkpt lat="45.432870134466654" lon="11.11554294150064"><ele>40.0</ele><time>2026-04-15T12:52:50Z</time></trkpt><trkpt lat="45.43273652687345" lon="11.115585380408058"><ele>39.75</ele><time>2026-04-15T12:52:51Z</time></trkpt><trkpt lat="45.43260910729569" lon="11.115612255932506"><ele>39.5</ele><time>2026-04-15T12:52:52Z</time></trkpt><trkpt lat="45.432486517895825" lon="11.115651151143435"><ele>39.25</ele><time>2026-04-15T12:52:53Z</time></trkpt><trkpt lat="45.43235592080026" lon="11.115694363848293"><ele>39.0</ele><time>2026-04-15T12:52:54Z</time></trkpt><trkpt lat="45.43221344915217" lon="11.115733263040479"><ele>40.0</ele><time>2026-04-15T12:52:55Z</time></trkpt><trkpt lat="45.432069816308534" lon="11.11576709376112"><ele>41.0</ele><time>2026-04-15T12:52:56Z</time></trkpt><trkpt lat="45.431936838906395" lon="11.115792239746241"><ele>42.0</ele><time>2026-04-15T12:52:57Z</time></trkpt><trkpt lat="45.43182007422978" lon="11.11584533189358"><ele>43.0</ele><time>2026-04-15T12:52:58Z</time></trkpt><trkpt lat="45.431716177573605" lon="11.11586567827076"><ele>43.0</ele><time>2026-04-15T12:52:59Z</time></trkpt><trkpt lat="45.43162523136607" lon="11.115893648982123"><ele>43.0</ele><time>2026-04-15T12:53:00Z</time></trkpt><trkpt lat="45.43154203054124" lon="11.11591565500345"><ele>43.0</ele><time>2026-04-15T12:53:01Z</time></trkpt><trkpt lat="45.43146348629701" lon="11.115942050483591"><ele>43.0</ele><time>2026-04-15T12:53:02Z</time></trkpt><trkpt lat="45.43137238165659" lon="11.11594675427803"><ele>43.0</ele><time>2026-04-15T12:53:03Z</time></trkpt><trkpt lat="45.431277392829024" lon="11.115972300721385"><ele>43.0</ele><time>2026-04-15T12:53:04Z</time></trkpt><trkpt lat="45.43116798869863" lon="11.116001724040945"><ele>42.5</ele><time>2026-04-15T12:53:05Z</time></trkpt><trkpt lat="45.43104057042308" lon="11.116035831360096"><ele>42.0</ele><time>2026-04-15T12:53:06Z</time></trkpt><trkpt lat="45.430903841026065" lon="11.116070087329634"><ele>41.5</ele><time>2026-04-15T12:53:07Z</time></trkpt><trkpt lat="45.43076120415564" lon="11.116103003948446"><ele>41.0</ele><time>2026-04-15T12:53:08Z</time></trkpt><trkpt lat="45.43061371627355" lon="11.116137775028657"><ele>41.0</ele><time>2026-04-15T12:53:09Z</time></trkpt><trkpt lat="45.430466610064805" lon="11.116177124704365"><ele>41.0</ele><time>2026-04-15T12:53:10Z</time></trkpt><trkpt lat="45.43032485213037" lon="11.116219184957282"><ele>41.0</ele><time>2026-04-15T12:53:11Z</time></trkpt><trkpt lat="45.43017232196733" lon="11.116264987371364"><ele>41.0</ele><time>2026-04-15T12:53:12Z</time></trkpt><trkpt lat="45.43003136198836" lon="11.116304974771609"><ele>41.0</ele><time>2026-04-15T12:53:13Z</time></trkpt><trkpt lat="45.42989391847088" lon="11.116343844349153"><ele>41.0</ele><time>2026-04-15T12:53:14Z</time></trkpt><trkpt lat="45.429749383119194" lon="11.116384717317514"><ele>41.0</ele><time>2026-04-15T12:53:15Z</time></trkpt><trkpt lat="45.42961156706853" lon="11.116446455948603"><ele>41.25</ele><time>2026-04-15T12:53:16Z</time></trkpt><trkpt lat="45.42947060978688" lon="11.116483262223406"><ele>41.5</ele><time>2026-04-15T12:53:17Z</time></trkpt><trkpt lat="45.42932491632111" lon="11.11649977071849"><ele>41.75</ele><time>2026-04-15T12:53:18Z</time></trkpt><trkpt lat="45.42918063164337" lon="11.116539564679703"><ele>42.0</ele><time>2026-04-15T12:53:19Z</time></trkpt><trkpt lat="45.42903724376902" lon="11.11657996421034"><ele>42.25</ele><time>2026-04-15T12:53:20Z</time></trkpt><trkpt lat="45.42889880274639" lon="11.116618969962936"><ele>42.5</ele><time>2026-04-15T12:53:21Z</time></trkpt><trkpt lat="45.42876269554102" lon="11.11665583464316"><ele>42.75</ele><time>2026-04-15T12:53:22Z</time></trkpt><trkpt lat="45.42862782372162" lon="11.116692328405348"><ele>43.0</ele><time>2026-04-15T12:53:23Z</time></trkpt><trkpt lat="45.42848311295598" lon="11.116731484412105"><ele>43.0</ele><time>2026-04-15T12:53:24Z</time></trkpt><trkpt lat="45.42834492700141" lon="11.116768874916303"><ele>43.0</ele><time>2026-04-15T12:53:25Z</time></trkpt><trkpt lat="45.42820738191452" lon="11.116806092019074"><ele>43.0</ele><time>2026-04-15T12:53:26Z</time></trkpt><trkpt lat="45.4280791626848" lon="11.116840785713205"><ele>43.0</ele><time>2026-04-15T12:53:27Z</time></trkpt><trkpt lat="45.427944858095415" lon="11.116877126007763"><ele>43.0</ele><time>2026-04-15T12:53:28Z</time></trkpt><trkpt lat="45.42781021762433" lon="11.116915483663075"><ele>43.0</ele><time>2026-04-15T12:53:29Z</time></trkpt><trkpt lat="45.42768070876441" lon="11.116953179019822"><ele>43.0</ele><time>2026-04-15T12:53:30Z</time></trkpt><trkpt lat="45.427545813937435" lon="11.116992442051357"><ele>43.0</ele><time>2026-04-15T12:53:31Z</time></trkpt><trkpt lat="45.42740853573313" lon="11.117032398783444"><ele>43.0</ele><time>2026-04-15T12:53:32Z</time></trkpt><trkpt lat="45.4272644851868" lon="11.117074051030718"><ele>43.0</ele><time>2026-04-15T12:53:33Z</time></trkpt><trkpt lat="45.42712150431297" lon="11.117113422849986"><ele>43.0</ele><time>2026-04-15T12:53:34Z</time></trkpt><trkpt lat="45.42697756387326" lon="11.117153058899676"><ele>43.0</ele><time>2026-04-15T12:53:35Z</time></trkpt><trkpt lat="45.426836897874665" lon="11.117191793283334"><ele>42.75</ele><time>2026-04-15T12:53:36Z</time></trkpt><trkpt lat="45.42668955421516" lon="11.117232366464437"><ele>42.5</ele><time>2026-04-15T12:53:37Z</time></trkpt><trkpt lat="45.42654873271097" lon="11.117271143663022"><ele>42.25</ele><time>2026-04-15T12:53:38Z</time></trkpt><trkpt lat="45.4264019783181" lon="11.11731061786246"><ele>42.0</ele><time>2026-04-15T12:53:39Z</time></trkpt><trkpt lat="45.426255500262116" lon="11.117349856725873"><ele>42.0</ele><time>2026-04-15T12:53:40Z</time></trkpt><trkpt lat="45.4261052638321" lon="11.11740850176644"><ele>42.0</ele><time>2026-04-15T12:53:41Z</time></trkpt><trkpt lat="45.42596314292522" lon="11.117445927163669"><ele>42.0</ele><time>2026-04-15T12:53:42Z</time></trkpt><trkpt lat="45.42581222707734" lon="11.11746400506803"><ele>42.0</ele><time>2026-04-15T12:53:43Z</time></trkpt><trkpt lat="45.42566345278889" lon="11.117503819055697"><ele>42.0</ele><time>2026-04-15T12:53:44Z</time></trkpt><trkpt lat="45.42551998571647" lon="11.117566189404686"><ele>42.0</ele><time>2026-04-15T12:53:45Z</time></trkpt><trkpt lat="45.425364728162236" lon="11.117586605005345"><ele>42.25</ele><time>2026-04-15T12:53:46Z</time></trkpt><trkpt lat="45.42521758086436" lon="11.117627384138014"><ele>42.5</ele><time>2026-04-15T12:53:47Z</time></trkpt><trkpt lat="45.42508032554462" lon="11.117665423848937"><ele>42.75</ele><time>2026-04-15T12:53:48Z</time></trkpt><trkpt lat="45.42493040479054" lon="11.117706971557098"><ele>43.0</ele><time>2026-04-15T12:53:49Z</time></trkpt><trkpt lat="45.42478170535769" lon="11.11774818082654"><ele>43.0</ele><time>2026-04-15T12:53:50Z</time></trkpt><trkpt lat="45.42464680770544" lon="11.117785565277233"><ele>43.0</ele><time>2026-04-15T12:53:51Z</time></trkpt><trkpt lat="45.42452319041604" lon="11.117819823450104"><ele>43.0</ele><time>2026-04-15T12:53:52Z</time></trkpt><trkpt lat="45.424400659037275" lon="11.11785470623881"><ele>43.0</ele><time>2026-04-15T12:53:53Z</time></trkpt><trkpt lat="45.424288179159625" lon="11.117889114348875"><ele>43.0</ele><time>2026-04-15T12:53:54Z</time></trkpt><trkpt lat="45.42419325675621" lon="11.117926515412393"><ele>43.0</ele><time>2026-04-15T12:53:55Z</time></trkpt><trkpt lat="45.42413077670159" lon="11.117964069245035"><ele>43.0</ele><time>2026-04-15T12:53:56Z</time></trkpt><trkpt lat="45.42401578350774" lon="11.118060233157363"><ele>43.0</ele><time>2026-04-15T12:53:59Z</time></trkpt><trkpt lat="45.42400130959721" lon="11.118149915232662"><ele>43.0</ele><time>2026-04-15T12:54:01Z</time></trkpt><trkpt lat="45.4241071501043" lon="11.118306759505344"><ele>43.66666666666667</ele><time>2026-04-15T12:54:03Z</time></trkpt><trkpt lat="45.42408862985105" lon="11.118409566244633"><ele>44.333333333333336</ele><time>2026-04-15T12:54:04Z</time></trkpt><trkpt lat="45.42410148284284" lon="11.118518796769735"><ele>45.0</ele><time>2026-04-15T12:54:05Z</time></trkpt><trkpt lat="45.42413525518007" lon="11.118630020295507"><ele>45.666666666666664</ele><time>2026-04-15T12:54:06Z</time></trkpt><trkpt lat="45.424203812907905" lon="11.118744869666909"><ele>46.33333333333333</ele><time>2026-04-15T12:54:07Z</time></trkpt><trkpt lat="45.42428016183619" lon="11.118836839662743"><ele>47.0</ele><time>2026-04-15T12:54:08Z</time></trkpt><trkpt lat="45.4243708103074" lon="11.118901858606437"><ele>47.0</ele><time>2026-04-15T12:54:09Z</time></trkpt><trkpt lat="45.424461321237" lon="11.118987472510838"><ele>47.0</ele><time>2026-04-15T12:54:10Z</time></trkpt><trkpt lat="45.424539522469594" lon="11.119061237443024"><ele>47.0</ele><time>2026-04-15T12:54:11Z</time></trkpt><trkpt lat="45.42461092658467" lon="11.119136704328968"><ele>47.0</ele><time>2026-04-15T12:54:12Z</time></trkpt><trkpt lat="45.42467705342216" lon="11.119227791140824"><ele>47.0</ele><time>2026-04-15T12:54:13Z</time></trkpt><trkpt lat="45.42474372296739" lon="11.119325894791585"><ele>48.8</ele><time>2026-04-15T12:54:14.001Z</time></trkpt><trkpt lat="45.42481946341531" lon="11.11942688974497"><ele>50.6</ele><time>2026-04-15T12:54:15.001Z</time></trkpt><trkpt lat="45.42489864443403" lon="11.119501129291153"><ele>52.39999999999999</ele><time>2026-04-15T12:54:16.001Z</time></trkpt><trkpt lat="45.424966261640485" lon="11.119564710322926"><ele>54.199999999999996</ele><time>2026-04-15T12:54:17.001Z</time></trkpt><trkpt lat="45.42503953985492" lon="11.119653419753782"><ele>56.0</ele><time>2026-04-15T12:54:18.001Z</time></trkpt><trkpt lat="45.42515272629749" lon="11.119701835472517"><ele>56.0</ele><time>2026-04-15T12:54:19.001Z</time></trkpt><trkpt lat="45.42528093201854" lon="11.11970715670599"><ele>56.0</ele><time>2026-04-15T12:54:20.001Z</time></trkpt><trkpt lat="45.42539427739061" lon="11.119739738144593"><ele>56.0</ele><time>2026-04-15T12:54:21.001Z</time></trkpt><trkpt lat="45.42549737963915" lon="11.119761306481896"><ele>56.0</ele><time>2026-04-15T12:54:22.001Z</time></trkpt><trkpt lat="45.42562509711326" lon="11.1197597649479"><ele>56.25</ele><time>2026-04-15T12:54:23.001Z</time></trkpt><trkpt lat="45.425750569427215" lon="11.119757381720328"><ele>56.5</ele><time>2026-04-15T12:54:24.001Z</time></trkpt><trkpt lat="45.42588464637979" lon="11.119756476587641"><ele>56.75</ele><time>2026-04-15T12:54:25.001Z</time></trkpt><trkpt lat="45.42602727711069" lon="11.119760948894056"><ele>57.0</ele><time>2026-04-15T12:54:26.001Z</time></trkpt><trkpt lat="45.426181240958364" lon="11.119775171711973"><ele>57.75</ele><time>2026-04-15T12:54:27.001Z</time></trkpt><trkpt lat="45.426332454617615" lon="11.119810464004685"><ele>58.5</ele><time>2026-04-15T12:54:28.001Z</time></trkpt><trkpt lat="45.42646638334305" lon="11.119863443265826"><ele>59.25</ele><time>2026-04-15T12:54:29.001Z</time></trkpt><trkpt lat="45.426588971395866" lon="11.119918374758617"><ele>60.0</ele><time>2026-04-15T12:54:30.001Z</time></trkpt><trkpt lat="45.42671856689115" lon="11.119988718572277"><ele>62.25</ele><time>2026-04-15T12:54:31.001Z</time></trkpt><trkpt lat="45.4268341084965" lon="11.120061155664999"><ele>64.5</ele><time>2026-04-15T12:54:32.001Z</time></trkpt><trkpt lat="45.426953060826605" lon="11.120136668379216"><ele>66.75</ele><time>2026-04-15T12:54:33.001Z</time></trkpt><trkpt lat="45.42708569113603" lon="11.120214420094623"><ele>69.0</ele><time>2026-04-15T12:54:34.001Z</time></trkpt><trkpt lat="45.42721668392171" lon="11.12028621348017"><ele>70.0</ele><time>2026-04-15T12:54:35.001Z</time></trkpt><trkpt lat="45.42733829933811" lon="11.120338167067985"><ele>71.0</ele><time>2026-04-15T12:54:36.001Z</time></trkpt><trkpt lat="45.427439311172705" lon="11.120367892566799"><ele>72.0</ele><time>2026-04-15T12:54:37.001Z</time></trkpt><trkpt lat="45.42751890590509" lon="11.120384995584473"><ele>73.0</ele><time>2026-04-15T12:54:38.001Z</time></trkpt><trkpt lat="45.427640298083396" lon="11.120403856031713"><ele>74.0</ele><time>2026-04-15T12:54:40.001Z</time></trkpt><trkpt lat="45.42773085774195" lon="11.12041807875036"><ele>74.0</ele><time>2026-04-15T12:54:42.001Z</time></trkpt><trkpt lat="45.427634272287705" lon="11.120589087172688"><ele>74.0</ele><time>2026-04-15T12:54:45Z</time></trkpt><trkpt lat="45.42755859617204" lon="11.120651089906707"><ele>74.0</ele><time>2026-04-15T12:54:46Z</time></trkpt><trkpt lat="45.4274742728255" lon="11.120727027559894"><ele>74.0</ele><time>2026-04-15T12:54:47Z</time></trkpt><trkpt lat="45.427381835074335" lon="11.12081057792997"><ele>74.25</ele><time>2026-04-15T12:54:48Z</time></trkpt><trkpt lat="45.427283385824" lon="11.120904000325503"><ele>74.5</ele><time>2026-04-15T12:54:49Z</time></trkpt><trkpt lat="45.42717866740754" lon="11.121000778295123"><ele>74.75</ele><time>2026-04-15T12:54:50Z</time></trkpt><trkpt lat="45.42706159000778" lon="11.121112281629145"><ele>75.0</ele><time>2026-04-15T12:54:51Z</time></trkpt><trkpt lat="45.42694728453819" lon="11.121233205066318"><ele>75.0</ele><time>2026-04-15T12:54:52Z</time></trkpt><trkpt lat="45.42684056345337" lon="11.121366392878437"><ele>75.0</ele><time>2026-04-15T12:54:53Z</time></trkpt><trkpt lat="45.42674117437535" lon="11.121500120334543"><ele>75.0</ele><time>2026-04-15T12:54:54Z</time></trkpt><trkpt lat="45.42665744361374" lon="11.121649980337166"><ele>75.0</ele><time>2026-04-15T12:54:55Z</time></trkpt><trkpt lat="45.42658565133456" lon="11.121810510315587"><ele>74.2</ele><time>2026-04-15T12:54:56Z</time></trkpt><trkpt lat="45.42651586068638" lon="11.121962618603595"><ele>73.4</ele><time>2026-04-15T12:54:57Z</time></trkpt><trkpt lat="45.42645544275987" lon="11.122081689308523"><ele>72.6</ele><time>2026-04-15T12:54:58Z</time></trkpt><trkpt lat="45.426399102845885" lon="11.122176137133128"><ele>71.8</ele><time>2026-04-15T12:54:59Z</time></trkpt><trkpt lat="45.42635809058421" lon="11.122246425264292"><ele>71.0</ele><time>2026-04-15T12:55:00Z</time></trkpt><trkpt lat="45.426310866787276" lon="11.122347768898672"><ele>73.19999999999999</ele><time>2026-04-15T12:55:02Z</time></trkpt><trkpt lat="45.426359879169986" lon="11.122434362247404"><ele>75.39999999999999</ele><time>2026-04-15T12:55:04Z</time></trkpt><trkpt lat="45.42648684001104" lon="11.122429883187124"><ele>77.6</ele><time>2026-04-15T12:55:06Z</time></trkpt><trkpt lat="45.42657517440811" lon="11.122391972162191"><ele>79.8</ele><time>2026-04-15T12:55:08Z</time></trkpt><trkpt lat="45.42667969189156" lon="11.122423323153347"><ele>82.0</ele><time>2026-04-15T12:55:10Z</time></trkpt><trkpt lat="45.42675078516514" lon="11.122396741798564"><ele>82.0</ele><time>2026-04-15T12:55:11Z</time></trkpt><trkpt lat="45.42681404575174" lon="11.122344072616404"><ele>82.0</ele><time>2026-04-15T12:55:12Z</time></trkpt><trkpt lat="45.4268475806215" lon="11.122267044970835"><ele>82.0</ele><time>2026-04-15T12:55:13Z</time></trkpt><trkpt lat="45.42686580270356" lon="11.122160308116232"><ele>82.0</ele><time>2026-04-15T12:55:14Z</time></trkpt><trkpt lat="45.4268873857301" lon="11.122039225126835"><ele>82.0</ele><time>2026-04-15T12:55:15Z</time></trkpt><trkpt lat="45.4269382862044" lon="11.121929129100087"><ele>82.0</ele><time>2026-04-15T12:55:16Z</time></trkpt><trkpt lat="45.42700950293943" lon="11.12183367914737"><ele>82.0</ele><time>2026-04-15T12:55:17Z</time></trkpt><trkpt lat="45.42711039557542" lon="11.12174905273711"><ele>82.0</ele><time>2026-04-15T12:55:18Z</time></trkpt><trkpt lat="45.42720275332248" lon="11.121725330303121"><ele>82.0</ele><time>2026-04-15T12:55:19Z</time></trkpt><trkpt lat="45.427303688877565" lon="11.121691369214158"><ele>82.0</ele><time>2026-04-15T12:55:20Z</time></trkpt><trkpt lat="45.42739578754155" lon="11.121649161018789"><ele>82.0</ele><time>2026-04-15T12:55:21Z</time></trkpt><trkpt lat="45.42746629778635" lon="11.12162107410258"><ele>82.0</ele><time>2026-04-15T12:55:22Z</time></trkpt><trkpt lat="45.42754766955299" lon="11.121582246419843"><ele>82.0</ele><time>2026-04-15T12:55:23Z</time></trkpt><trkpt lat="45.42762634090858" lon="11.121541377923121"><ele>82.0</ele><time>2026-04-15T12:55:24Z</time></trkpt><trkpt lat="45.427719231427794" lon="11.12150341150862"><ele>82.0</ele><time>2026-04-15T12:55:25Z</time></trkpt><trkpt lat="45.427801729286216" lon="11.121496798403017"><ele>82.0</ele><time>2026-04-15T12:55:26Z</time></trkpt><trkpt lat="45.42787419053205" lon="11.121516679301498"><ele>82.0</ele><time>2026-04-15T12:55:27Z</time></trkpt><trkpt lat="45.42793432801695" lon="11.121550427893183"><ele>86.39999999999999</ele><time>2026-04-15T12:55:28Z</time></trkpt><trkpt lat="45.4280157204692" lon="11.121606471139907"><ele>90.8</ele><time>2026-04-15T12:55:29Z</time></trkpt><trkpt lat="45.42810438408994" lon="11.12166516446216"><ele>95.2</ele><time>2026-04-15T12:55:30Z</time></trkpt><trkpt lat="45.42820259798552" lon="11.121720692010875"><ele>99.6</ele><time>2026-04-15T12:55:31Z</time></trkpt><trkpt lat="45.42830706101625" lon="11.121778130814203"><ele>104.0</ele><time>2026-04-15T12:55:32Z</time></trkpt><trkpt lat="45.42842113860377" lon="11.121842512039954"><ele>104.0</ele><time>2026-04-15T12:55:33Z</time></trkpt><trkpt lat="45.42852972041485" lon="11.1219075419292"><ele>104.0</ele><time>2026-04-15T12:55:34Z</time></trkpt><trkpt lat="45.42863648239553" lon="11.121970709117702"><ele>104.0</ele><time>2026-04-15T12:55:35Z</time></trkpt><trkpt lat="45.42873772500049" lon="11.122023160265922"><ele>104.0</ele><time>2026-04-15T12:55:36Z</time></trkpt><trkpt lat="45.42880863321121" lon="11.122063490443537"><ele>104.0</ele><time>2026-04-15T12:55:37Z</time></trkpt><trkpt lat="45.42881528887452" lon="11.122168452272584"><ele>105.99999999999999</ele><time>2026-04-15T12:55:41Z</time></trkpt><trkpt lat="45.42888049316893" lon="11.122253748076345"><ele>108.0</ele><time>2026-04-15T12:55:44Z</time></trkpt><trkpt lat="45.42896649972225" lon="11.122218479711536"><ele>110.0</ele><time>2026-04-15T12:55:46Z</time></trkpt><trkpt lat="45.42907567283889" lon="11.122206013541014"><ele>112.0</ele><time>2026-04-15T12:55:48Z</time></trkpt><trkpt lat="45.429140066782125" lon="11.122207857573727"><ele>113.99999999999999</ele><time>2026-04-15T12:55:49Z</time></trkpt><trkpt lat="45.429213514509215" lon="11.122208307323282"><ele>116.0</ele><time>2026-04-15T12:55:50Z</time></trkpt><trkpt lat="45.42927887411864" lon="11.122208178329203"><ele>115.99999999999999</ele><time>2026-04-15T12:55:51Z</time></trkpt><trkpt lat="45.42935357955924" lon="11.12221485219844"><ele>116.0</ele><time>2026-04-15T12:55:52Z</time></trkpt><trkpt lat="45.429433213618275" lon="11.122218893803979"><ele>116.0</ele><time>2026-04-15T12:55:53Z</time></trkpt><trkpt lat="45.42951042652877" lon="11.122219779868011"><ele>116.0</ele><time>2026-04-15T12:55:54Z</time></trkpt><trkpt lat="45.429583734601174" lon="11.122226779818236"><ele>115.99999999999999</ele><time>2026-04-15T12:55:55Z</time></trkpt><trkpt lat="45.42967103502831" lon="11.12223304901667"><ele>116.0</ele><time>2026-04-15T12:55:56Z</time></trkpt><trkpt lat="45.42975083288246" lon="11.122234545630738"><ele>117.16666666666666</ele><time>2026-04-15T12:55:57Z</time></trkpt><trkpt lat="45.4298291728375" lon="11.12223321528627"><ele>118.33333333333333</ele><time>2026-04-15T12:55:58Z</time></trkpt><trkpt lat="45.4299024791688" lon="11.122221884088608"><ele>119.5</ele><time>2026-04-15T12:55:59Z</time></trkpt><trkpt lat="45.429985762964066" lon="11.122197609910174"><ele>120.66666666666666</ele><time>2026-04-15T12:56:00Z</time></trkpt><trkpt lat="45.43006791744109" lon="11.122176706078182"><ele>121.83333333333333</ele><time>2026-04-15T12:56:01Z</time></trkpt><trkpt lat="45.43013961266072" lon="11.122158554807646"><ele>123.0</ele><time>2026-04-15T12:56:02Z</time></trkpt><trkpt lat="45.430218795044546" lon="11.122152638920044"><ele>123.0</ele><time>2026-04-15T12:56:03Z</time></trkpt><trkpt lat="45.43030888678287" lon="11.122149297986844"><ele>123.0</ele><time>2026-04-15T12:56:04Z</time></trkpt><trkpt lat="45.43039387211522" lon="11.122153708448993"><ele>123.0</ele><time>2026-04-15T12:56:05Z</time></trkpt><trkpt lat="45.430477487289664" lon="11.122135857479467"><ele>123.0</ele><time>2026-04-15T12:56:06Z</time></trkpt><trkpt lat="45.43055735643068" lon="11.122145139965417"><ele>123.0</ele><time>2026-04-15T12:56:07Z</time></trkpt><trkpt lat="45.43063533202924" lon="11.122105216667336"><ele>123.0</ele><time>2026-04-15T12:56:08Z</time></trkpt><trkpt lat="45.4307037922649" lon="11.122093418965145"><ele>123.0</ele><time>2026-04-15T12:56:09Z</time></trkpt><trkpt lat="45.43077315336116" lon="11.122145286251953"><ele>123.0</ele><time>2026-04-15T12:56:11Z</time></trkpt><trkpt lat="45.4307471864484" lon="11.122240817118948"><ele>123.0</ele><time>2026-04-15T12:56:13Z</time></trkpt><trkpt lat="45.43061847629473" lon="11.122234787039496"><ele>123.0</ele><time>2026-04-15T12:56:15Z</time></trkpt><trkpt lat="45.43053372746311" lon="11.122234641151719"><ele>123.0</ele><time>2026-04-15T12:56:16Z</time></trkpt><trkpt lat="45.43045810932609" lon="11.122230889323301"><ele>123.0</ele><time>2026-04-15T12:56:17Z</time></trkpt><trkpt lat="45.43036330057532" lon="11.122243041428272"><ele>123.0</ele><time>2026-04-15T12:56:18Z</time></trkpt><trkpt lat="45.43029307990807" lon="11.122245397289811"><ele>123.0</ele><time>2026-04-15T12:56:19Z</time></trkpt><trkpt lat="45.430212314618" lon="11.122345571408049"><ele>123.0</ele><time>2026-04-15T12:56:21Z</time></trkpt><trkpt lat="45.430194929209186" lon="11.122464203332326"><ele>123.0</ele><time>2026-04-15T12:56:22Z</time></trkpt><trkpt lat="45.43016049099752" lon="11.122594891273442"><ele>123.0</ele><time>2026-04-15T12:56:23Z</time></trkpt><trkpt lat="45.43013271599981" lon="11.122704912162193"><ele>123.0</ele><time>2026-04-15T12:56:24.001Z</time></trkpt><trkpt lat="45.43010090076982" lon="11.122835257966903"><ele>124.33333333333333</ele><time>2026-04-15T12:56:25.001Z</time></trkpt><trkpt lat="45.43007375250179" lon="11.122953531401548"><ele>125.66666666666666</ele><time>2026-04-15T12:56:26.001Z</time></trkpt><trkpt lat="45.43004601727876" lon="11.123060580957167"><ele>127.0</ele><time>2026-04-15T12:56:27.001Z</time></trkpt><trkpt lat="45.43000289995889" lon="11.12320492243136"><ele>128.33333333333331</ele><time>2026-04-15T12:56:29.001Z</time></trkpt><trkpt lat="45.42993304088549" lon="11.12318289196051"><ele>129.66666666666666</ele><time>2026-04-15T12:56:31.001Z</time></trkpt><trkpt lat="45.42985263368698" lon="11.123184249780254"><ele>131.0</ele><time>2026-04-15T12:56:34.001Z</time></trkpt><trkpt lat="45.42978378511578" lon="11.123215941846283"><ele>131.0</ele><time>2026-04-15T12:56:37.001Z</time></trkpt><trkpt lat="45.42979858051641" lon="11.12312562508705"><ele>131.0</ele><time>2026-04-15T12:56:39.001Z</time></trkpt><trkpt lat="45.42984694449787" lon="11.123044690418377"><ele>131.0</ele><time>2026-04-15T12:59:26Z</time></trkpt><trkpt lat="45.429734649201805" lon="11.123020147033209"><ele>131.0</ele><time>2026-04-15T13:01:21Z</time></trkpt><trkpt lat="45.429649167814716" lon="11.122978066901585"><ele>131.0</ele><time>2026-04-15T13:01:23Z</time></trkpt><trkpt lat="45.42958339338967" lon="11.122947954559594"><ele>131.0</ele><time>2026-04-15T13:01:25Z</time></trkpt><trkpt lat="45.429795256265244" lon="11.123033592074512"><ele>131.0</ele><time>2026-04-15T13:01:42Z</time></trkpt></trkseg></trk></gpx>